<?xml version="1.0" encoding="UTF-8"?>
<gpx
  version="1.0"
  creator="pymavlink"
  xmlns:xsi="http://www.w3.org/2001/XMLSchema-instance"
  xmlns="http://www.topografix.com/GPX/1/0"
  xsi:schemaLocation="http://www.topografix.com/GPX/1/0 http://www.topografix.com/GPX/1/0/gpx.xsd">
<trk>
<trkseg>
<trkpt lat="39.6557477" lon="-104.1382897">
  <ele>1566.58</ele>
  <time>2026-08-27T17:17:23Z</time>
  <course>66.0</course>
  <speed>0.71</speed>
  <fix>3d</fix>
</trkpt>
<trkpt lat="40.071382" lon="-105.229768">
  <ele>1583.0</ele>
  <time>2026-08-27T17:17:23Z</time>
  <course>236.29</course>
  <speed>0.10295630140987001</speed>
  <fix>3d</fix>
</trkpt>
<trkpt lat="40.071382" lon="-105.229768">
  <ele>1583.0</ele>
  <time>2026-08-27T17:17:23Z</time>
  <course>66.0</course>
  <speed>0.72</speed>
  <fix>3d</fix>
</trkpt>
<trkpt lat="40.071382" lon="-105.229768">
  <ele>1583.0</ele>
  <time>2026-08-27T17:17:23Z</time>
  <course>236.3</course>
  <speed>0.10295630140987001</speed>
  <fix>3d</fix>
</trkpt>
<trkpt lat="40.071382" lon="-105.229768">
  <ele>1583.0</ele>
  <time>2026-08-27T17:17:23Z</time>
  <course>66.0</course>
  <speed>0.72</speed>
  <fix>3d</fix>
</trkpt>
<trkpt lat="40.071382" lon="-105.229768">
  <ele>1583.0</ele>
  <time>2026-08-27T17:17:23Z</time>
  <course>236.42</course>
  <speed>0.09433981132056603</speed>
  <fix>3d</fix>
</trkpt>
<trkpt lat="40.0713826" lon="-105.2297665">
  <ele>1583.0</ele>
  <time>2026-08-27T17:17:23Z</time>
  <course>66.0</course>
  <speed>0.73</speed>
  <fix>3d</fix>
</trkpt>
<trkpt lat="40.0713826" lon="-105.2297665">
  <ele>1583.0</ele>
  <time>2026-08-27T17:17:23Z</time>
  <course>236.65</course>
  <speed>0.1</speed>
  <fix>3d</fix>
</trkpt>
<trkpt lat="40.0713826" lon="-105.2297665">
  <ele>1583.0</ele>
  <time>2026-08-27T17:17:23Z</time>
  <course>66.0</course>
  <speed>0.73</speed>
  <fix>3d</fix>
</trkpt>
<trkpt lat="40.0713826" lon="-105.2297665">
  <ele>1583.0</ele>
  <time>2026-08-27T17:17:23Z</time>
  <course>236.96</course>
  <speed>0.1</speed>
  <fix>3d</fix>
</trkpt>
<trkpt lat="40.0713832" lon="-105.2297648">
  <ele>1583.0</ele>
  <time>2026-08-27T17:17:23Z</time>
  <course>66.0</course>
  <speed>0.74</speed>
  <fix>3d</fix>
</trkpt>
<trkpt lat="40.0713832" lon="-105.2297648">
  <ele>1583.0</ele>
  <time>2026-08-27T17:17:23Z</time>
  <course>237.31</course>
  <speed>0.10816653826391968</speed>
  <fix>3d</fix>
</trkpt>
<trkpt lat="40.0713832" lon="-105.2297648">
  <ele>1583.0</ele>
  <time>2026-08-27T17:17:23Z</time>
  <course>66.0</course>
  <speed>0.74</speed>
  <fix>3d</fix>
</trkpt>
<trkpt lat="40.0713832" lon="-105.2297648">
  <ele>1583.0</ele>
  <time>2026-08-27T17:17:23Z</time>
  <course>237.68</course>
  <speed>0.10816653826391968</speed>
  <fix>3d</fix>
</trkpt>
<trkpt lat="40.0713837" lon="-105.2297633">
  <ele>1583.0</ele>
  <time>2026-08-27T17:17:23Z</time>
  <course>66.0</course>
  <speed>0.75</speed>
  <fix>3d</fix>
</trkpt>
<trkpt lat="40.0713837" lon="-105.2297633">
  <ele>1583.0</ele>
  <time>2026-08-27T17:17:23Z</time>
  <course>238.05</course>
  <speed>0.10816653826391968</speed>
  <fix>3d</fix>
</trkpt>
<trkpt lat="40.0713837" lon="-105.2297633">
  <ele>1583.0</ele>
  <time>2026-08-27T17:17:23Z</time>
  <course>66.0</course>
  <speed>0.75</speed>
  <fix>3d</fix>
</trkpt>
<trkpt lat="40.0713837" lon="-105.2297633">
  <ele>1583.0</ele>
  <time>2026-08-27T17:17:23Z</time>
  <course>238.41</course>
  <speed>0.10816653826391968</speed>
  <fix>3d</fix>
</trkpt>
<trkpt lat="40.0713842" lon="-105.2297616">
  <ele>1583.0</ele>
  <time>2026-08-27T17:17:23Z</time>
  <course>66.0</course>
  <speed>0.76</speed>
  <fix>3d</fix>
</trkpt>
<trkpt lat="40.0713842" lon="-105.2297616">
  <ele>1583.0</ele>
  <time>2026-08-27T17:17:23Z</time>
  <course>238.69</course>
  <speed>0.10816653826391968</speed>
  <fix>3d</fix>
</trkpt>
<trkpt lat="40.0713842" lon="-105.2297616">
  <ele>1583.0</ele>
  <time>2026-08-27T17:17:23Z</time>
  <course>66.0</course>
  <speed>0.76</speed>
  <fix>3d</fix>
</trkpt>
<trkpt lat="40.0713842" lon="-105.2297616">
  <ele>1583.0</ele>
  <time>2026-08-27T17:17:23Z</time>
  <course>239.02</course>
  <speed>0.1</speed>
  <fix>3d</fix>
</trkpt>
<trkpt lat="40.0713848" lon="-105.22976">
  <ele>1583.0</ele>
  <time>2026-08-27T17:17:23Z</time>
  <course>66.0</course>
  <speed>0.76</speed>
  <fix>3d</fix>
</trkpt>
<trkpt lat="40.0713848" lon="-105.22976">
  <ele>1583.0</ele>
  <time>2026-08-27T17:17:23Z</time>
  <course>239.35</course>
  <speed>0.1</speed>
  <fix>3d</fix>
</trkpt>
<trkpt lat="40.0713848" lon="-105.22976">
  <ele>1583.0</ele>
  <time>2026-08-27T17:17:23Z</time>
  <course>66.0</course>
  <speed>0.76</speed>
  <fix>3d</fix>
</trkpt>
<trkpt lat="40.0713848" lon="-105.22976">
  <ele>1583.0</ele>
  <time>2026-08-27T17:17:23Z</time>
  <course>239.67</course>
  <speed>0.1</speed>
  <fix>3d</fix>
</trkpt>
<trkpt lat="40.0713853" lon="-105.2297583">
  <ele>1583.0</ele>
  <time>2026-08-27T17:17:23Z</time>
  <course>66.0</course>
  <speed>0.77</speed>
  <fix>3d</fix>
</trkpt>
<trkpt lat="40.0713853" lon="-105.2297583">
  <ele>1583.0</ele>
  <time>2026-08-27T17:17:23Z</time>
  <course>239.99</course>
  <speed>0.08602325267042626</speed>
  <fix>3d</fix>
</trkpt>
<trkpt lat="40.0713853" lon="-105.2297583">
  <ele>1583.0</ele>
  <time>2026-08-27T17:17:23Z</time>
  <course>66.0</course>
  <speed>0.77</speed>
  <fix>3d</fix>
</trkpt>
<trkpt lat="40.0713853" lon="-105.2297583">
  <ele>1583.0</ele>
  <time>2026-08-27T17:17:23Z</time>
  <course>240.3</course>
  <speed>0.08602325267042626</speed>
  <fix>3d</fix>
</trkpt>
<trkpt lat="40.071386" lon="-105.2297567">
  <ele>1583.0</ele>
  <time>2026-08-27T17:17:23Z</time>
  <course>66.0</course>
  <speed>0.77</speed>
  <fix>3d</fix>
</trkpt>
<trkpt lat="40.071386" lon="-105.2297567">
  <ele>1583.0</ele>
  <time>2026-08-27T17:17:23Z</time>
  <course>240.6</course>
  <speed>0.07810249675906654</speed>
  <fix>3d</fix>
</trkpt>
<trkpt lat="40.071386" lon="-105.2297567">
  <ele>1583.0</ele>
  <time>2026-08-27T17:17:23Z</time>
  <course>66.0</course>
  <speed>0.77</speed>
  <fix>3d</fix>
</trkpt>
<trkpt lat="40.071386" lon="-105.2297567">
  <ele>1583.0</ele>
  <time>2026-08-27T17:17:23Z</time>
  <course>240.9</course>
  <speed>0.07211102550927978</speed>
  <fix>3d</fix>
</trkpt>
<trkpt lat="40.0713865" lon="-105.229755">
  <ele>1583.0</ele>
  <time>2026-08-27T17:17:23Z</time>
  <course>66.0</course>
  <speed>0.77</speed>
  <fix>3d</fix>
</trkpt>
<trkpt lat="40.0713865" lon="-105.229755">
  <ele>1583.0</ele>
  <time>2026-08-27T17:17:23Z</time>
  <course>241.2</course>
  <speed>0.06403124237432849</speed>
  <fix>3d</fix>
</trkpt>
<trkpt lat="40.0713865" lon="-105.229755">
  <ele>1583.0</ele>
  <time>2026-08-27T17:17:23Z</time>
  <course>66.0</course>
  <speed>0.77</speed>
  <fix>3d</fix>
</trkpt>
<trkpt lat="40.0713865" lon="-105.229755">
  <ele>1583.0</ele>
  <time>2026-08-27T17:17:23Z</time>
  <course>241.49</course>
  <speed>0.0565685424949238</speed>
  <fix>3d</fix>
</trkpt>
<trkpt lat="40.071387" lon="-105.2297533">
  <ele>1583.0</ele>
  <time>2026-08-27T17:17:23Z</time>
  <course>66.0</course>
  <speed>0.78</speed>
  <fix>3d</fix>
</trkpt>
<trkpt lat="40.071387" lon="-105.2297533">
  <ele>1583.0</ele>
  <time>2026-08-27T17:17:23Z</time>
  <course>241.83</course>
  <speed>0.05</speed>
  <fix>3d</fix>
</trkpt>
<trkpt lat="40.071387" lon="-105.2297533">
  <ele>1583.0</ele>
  <time>2026-08-27T17:17:23Z</time>
  <course>66.0</course>
  <speed>0.78</speed>
  <fix>3d</fix>
</trkpt>
<trkpt lat="40.0713877" lon="-105.2297516">
  <ele>1583.0</ele>
  <time>2026-08-27T17:17:23Z</time>
  <course>242.1</course>
  <speed>0.04242640687119285</speed>
  <fix>3d</fix>
</trkpt>
<trkpt lat="40.0713877" lon="-105.2297516">
  <ele>1583.0</ele>
  <time>2026-08-27T17:17:23Z</time>
  <course>66.0</course>
  <speed>0.78</speed>
  <fix>3d</fix>
</trkpt>
<trkpt lat="40.0713877" lon="-105.2297516">
  <ele>1583.0</ele>
  <time>2026-08-27T17:17:23Z</time>
  <course>242.38</course>
  <speed>0.03605551275463989</speed>
  <fix>3d</fix>
</trkpt>
<trkpt lat="40.0713877" lon="-105.2297516">
  <ele>1583.0</ele>
  <time>2026-08-27T17:17:23Z</time>
  <course>66.0</course>
  <speed>0.78</speed>
  <fix>3d</fix>
</trkpt>
<trkpt lat="40.0713882" lon="-105.2297499">
  <ele>1583.0</ele>
  <time>2026-08-27T17:17:23Z</time>
  <course>242.64</course>
  <speed>0.0282842712474619</speed>
  <fix>3d</fix>
</trkpt>
<trkpt lat="40.0713882" lon="-105.2297499">
  <ele>1583.0</ele>
  <time>2026-08-27T17:17:23Z</time>
  <course>66.0</course>
  <speed>0.78</speed>
  <fix>3d</fix>
</trkpt>
<trkpt lat="40.0713882" lon="-105.2297499">
  <ele>1583.0</ele>
  <time>2026-08-27T17:17:23Z</time>
  <course>242.9</course>
  <speed>0.022360679774997897</speed>
  <fix>3d</fix>
</trkpt>
<trkpt lat="40.0713882" lon="-105.2297499">
  <ele>1583.0</ele>
  <time>2026-08-27T17:17:23Z</time>
  <course>66.0</course>
  <speed>0.78</speed>
  <fix>3d</fix>
</trkpt>
<trkpt lat="40.0713882" lon="-105.2297499">
  <ele>1583.0</ele>
  <time>2026-08-27T17:17:23Z</time>
  <course>243.16</course>
  <speed>0.02</speed>
  <fix>3d</fix>
</trkpt>
<trkpt lat="40.0713887" lon="-105.2297482">
  <ele>1583.0</ele>
  <time>2026-08-27T17:17:23Z</time>
  <course>66.0</course>
  <speed>0.78</speed>
  <fix>3d</fix>
</trkpt>
<trkpt lat="40.0713887" lon="-105.2297482">
  <ele>1583.0</ele>
  <time>2026-08-27T17:17:23Z</time>
  <course>243.4</course>
  <speed>0.01</speed>
  <fix>3d</fix>
</trkpt>
<trkpt lat="40.0713887" lon="-105.2297482">
  <ele>1583.0</ele>
  <time>2026-08-27T17:17:23Z</time>
  <course>66.0</course>
  <speed>0.78</speed>
  <fix>3d</fix>
</trkpt>
<trkpt lat="40.0713887" lon="-105.2297482">
  <ele>1583.0</ele>
  <time>2026-08-27T17:17:23Z</time>
  <course>243.65</course>
  <speed>0.01</speed>
  <fix>3d</fix>
</trkpt>
<trkpt lat="40.0713894" lon="-105.2297465">
  <ele>1583.0</ele>
  <time>2026-08-27T17:17:23Z</time>
  <course>66.0</course>
  <speed>0.79</speed>
  <fix>3d</fix>
</trkpt>
<trkpt lat="40.0713894" lon="-105.2297465">
  <ele>1583.0</ele>
  <time>2026-08-27T17:17:23Z</time>
  <course>243.88</course>
  <speed>0.01</speed>
  <fix>3d</fix>
</trkpt>
<trkpt lat="40.0713894" lon="-105.2297465">
  <ele>1583.0</ele>
  <time>2026-08-27T17:17:23Z</time>
  <course>66.0</course>
  <speed>0.79</speed>
  <fix>3d</fix>
</trkpt>
<trkpt lat="40.0713894" lon="-105.2297465">
  <ele>1583.0</ele>
  <time>2026-08-27T17:17:23Z</time>
  <course>244.11</course>
  <speed>0.01</speed>
  <fix>3d</fix>
</trkpt>
<trkpt lat="40.0713899" lon="-105.2297448">
  <ele>1583.0</ele>
  <time>2026-08-27T17:17:23Z</time>
  <course>66.0</course>
  <speed>0.79</speed>
  <fix>3d</fix>
</trkpt>
<trkpt lat="40.0713899" lon="-105.2297448">
  <ele>1583.0</ele>
  <time>2026-08-27T17:17:23Z</time>
  <course>244.34</course>
  <speed>0.02</speed>
  <fix>3d</fix>
</trkpt>
<trkpt lat="40.0713899" lon="-105.2297448">
  <ele>1583.0</ele>
  <time>2026-08-27T17:17:23Z</time>
  <course>66.0</course>
  <speed>0.79</speed>
  <fix>3d</fix>
</trkpt>
<trkpt lat="40.0713899" lon="-105.2297448">
  <ele>1583.0</ele>
  <time>2026-08-27T17:17:23Z</time>
  <course>244.51</course>
  <speed>0.02</speed>
  <fix>3d</fix>
</trkpt>
<trkpt lat="40.0713906" lon="-105.2297431">
  <ele>1583.0</ele>
  <time>2026-08-27T17:17:23Z</time>
  <course>66.0</course>
  <speed>0.79</speed>
  <fix>3d</fix>
</trkpt>
<trkpt lat="40.0713906" lon="-105.2297431">
  <ele>1583.0</ele>
  <time>2026-08-27T17:17:23Z</time>
  <course>244.73</course>
  <speed>0.02</speed>
  <fix>3d</fix>
</trkpt>
<trkpt lat="40.0713906" lon="-105.2297431">
  <ele>1583.0</ele>
  <time>2026-08-27T17:17:23Z</time>
  <course>66.0</course>
  <speed>0.79</speed>
  <fix>3d</fix>
</trkpt>
<trkpt lat="40.0713906" lon="-105.2297431">
  <ele>1583.0</ele>
  <time>2026-08-27T17:17:23Z</time>
  <course>244.93</course>
  <speed>0.03</speed>
  <fix>3d</fix>
</trkpt>
<trkpt lat="40.0713911" lon="-105.2297414">
  <ele>1583.0</ele>
  <time>2026-08-27T17:17:23Z</time>
  <course>66.0</course>
  <speed>0.79</speed>
  <fix>3d</fix>
</trkpt>
<trkpt lat="40.0713911" lon="-105.2297414">
  <ele>1583.0</ele>
  <time>2026-08-27T17:17:23Z</time>
  <course>245.13</course>
  <speed>0.04</speed>
  <fix>3d</fix>
</trkpt>
<trkpt lat="40.0713911" lon="-105.2297414">
  <ele>1583.0</ele>
  <time>2026-08-27T17:17:23Z</time>
  <course>66.0</course>
  <speed>0.79</speed>
  <fix>3d</fix>
</trkpt>
<trkpt lat="40.0713911" lon="-105.2297414">
  <ele>1583.0</ele>
  <time>2026-08-27T17:17:23Z</time>
  <course>245.33</course>
  <speed>0.0412310562561766</speed>
  <fix>3d</fix>
</trkpt>
<trkpt lat="40.0713916" lon="-105.2297397">
  <ele>1583.0</ele>
  <time>2026-08-27T17:17:23Z</time>
  <course>66.0</course>
  <speed>0.79</speed>
  <fix>3d</fix>
</trkpt>
<trkpt lat="40.0713916" lon="-105.2297397">
  <ele>1583.0</ele>
  <time>2026-08-27T17:17:23Z</time>
  <course>245.52</course>
  <speed>0.0412310562561766</speed>
  <fix>3d</fix>
</trkpt>
<trkpt lat="40.0713916" lon="-105.2297397">
  <ele>1583.0</ele>
  <time>2026-08-27T17:17:23Z</time>
  <course>66.0</course>
  <speed>0.79</speed>
  <fix>3d</fix>
</trkpt>
<trkpt lat="40.0713916" lon="-105.2297397">
  <ele>1583.0</ele>
  <time>2026-08-27T17:17:23Z</time>
  <course>245.7</course>
  <speed>0.05099019513592785</speed>
  <fix>3d</fix>
</trkpt>
<trkpt lat="40.0713923" lon="-105.229738">
  <ele>1583.0</ele>
  <time>2026-08-27T17:17:23Z</time>
  <course>66.0</course>
  <speed>0.79</speed>
  <fix>3d</fix>
</trkpt>
<trkpt lat="40.0713923" lon="-105.229738">
  <ele>1583.0</ele>
  <time>2026-08-27T17:17:23Z</time>
  <course>245.88</course>
  <speed>0.05099019513592785</speed>
  <fix>3d</fix>
</trkpt>
<trkpt lat="40.0713923" lon="-105.229738">
  <ele>1583.0</ele>
  <time>2026-08-27T17:17:23Z</time>
  <course>66.0</course>
  <speed>0.79</speed>
  <fix>3d</fix>
</trkpt>
<trkpt lat="40.0713923" lon="-105.229738">
  <ele>1583.0</ele>
  <time>2026-08-27T17:17:23Z</time>
  <course>246.05</course>
  <speed>0.0632455532033676</speed>
  <fix>3d</fix>
</trkpt>
<trkpt lat="40.0713928" lon="-105.2297363">
  <ele>1583.0</ele>
  <time>2026-08-27T17:17:23Z</time>
  <course>66.0</course>
  <speed>0.79</speed>
  <fix>3d</fix>
</trkpt>
<trkpt lat="40.0713928" lon="-105.2297363">
  <ele>1583.0</ele>
  <time>2026-08-27T17:17:23Z</time>
  <course>246.22</course>
  <speed>0.0632455532033676</speed>
  <fix>3d</fix>
</trkpt>
<trkpt lat="40.0713928" lon="-105.2297363">
  <ele>1583.0</ele>
  <time>2026-08-27T17:17:23Z</time>
  <course>66.0</course>
  <speed>0.79</speed>
  <fix>3d</fix>
</trkpt>
<trkpt lat="40.0713935" lon="-105.2297346">
  <ele>1583.0</ele>
  <time>2026-08-27T17:17:23Z</time>
  <course>246.41</course>
  <speed>0.07280109889280519</speed>
  <fix>3d</fix>
</trkpt>
<trkpt lat="40.0713935" lon="-105.2297346">
  <ele>1583.0</ele>
  <time>2026-08-27T17:17:23Z</time>
  <course>66.0</course>
  <speed>0.79</speed>
  <fix>3d</fix>
</trkpt>
<trkpt lat="40.0713935" lon="-105.2297346">
  <ele>1583.0</ele>
  <time>2026-08-27T17:17:23Z</time>
  <course>246.56</course>
  <speed>0.07280109889280519</speed>
  <fix>3d</fix>
</trkpt>
<trkpt lat="40.0713935" lon="-105.2297346">
  <ele>1583.0</ele>
  <time>2026-08-27T17:17:23Z</time>
  <course>66.0</course>
  <speed>0.79</speed>
  <fix>3d</fix>
</trkpt>
<trkpt lat="40.071394" lon="-105.2297329">
  <ele>1583.0</ele>
  <time>2026-08-27T17:17:23Z</time>
  <course>246.71</course>
  <speed>0.0854400374531753</speed>
  <fix>3d</fix>
</trkpt>
<trkpt lat="40.071394" lon="-105.2297329">
  <ele>1583.0</ele>
  <time>2026-08-27T17:17:23Z</time>
  <course>66.0</course>
  <speed>0.79</speed>
  <fix>3d</fix>
</trkpt>
<trkpt lat="40.071394" lon="-105.2297329">
  <ele>1583.0</ele>
  <time>2026-08-27T17:17:23Z</time>
  <course>246.86</course>
  <speed>0.0854400374531753</speed>
  <fix>3d</fix>
</trkpt>
<trkpt lat="40.071394" lon="-105.2297329">
  <ele>1583.0</ele>
  <time>2026-08-27T17:17:23Z</time>
  <course>66.0</course>
  <speed>0.79</speed>
  <fix>3d</fix>
</trkpt>
<trkpt lat="40.071394" lon="-105.2297329">
  <ele>1583.0</ele>
  <time>2026-08-27T17:17:23Z</time>
  <course>247.0</course>
  <speed>0.0854400374531753</speed>
  <fix>3d</fix>
</trkpt>
<trkpt lat="40.0713946" lon="-105.2297312">
  <ele>1583.0</ele>
  <time>2026-08-27T17:17:23Z</time>
  <course>66.0</course>
  <speed>0.79</speed>
  <fix>3d</fix>
</trkpt>
<trkpt lat="40.0713946" lon="-105.2297312">
  <ele>1583.0</ele>
  <time>2026-08-27T17:17:23Z</time>
  <course>247.13</course>
  <speed>0.09486832980505139</speed>
  <fix>3d</fix>
</trkpt>
<trkpt lat="40.0713946" lon="-105.2297312">
  <ele>1583.0</ele>
  <time>2026-08-27T17:17:23Z</time>
  <course>66.0</course>
  <speed>0.79</speed>
  <fix>3d</fix>
</trkpt>
<trkpt lat="40.0713946" lon="-105.2297312">
  <ele>1583.0</ele>
  <time>2026-08-27T17:17:23Z</time>
  <course>247.26</course>
  <speed>0.09486832980505139</speed>
  <fix>3d</fix>
</trkpt>
<trkpt lat="40.0713952" lon="-105.2297294">
  <ele>1583.0</ele>
  <time>2026-08-27T17:17:23Z</time>
  <course>66.0</course>
  <speed>0.79</speed>
  <fix>3d</fix>
</trkpt>
<trkpt lat="40.0713952" lon="-105.2297294">
  <ele>1583.0</ele>
  <time>2026-08-27T17:17:23Z</time>
  <course>247.39</course>
  <speed>0.09848857801796104</speed>
  <fix>3d</fix>
</trkpt>
<trkpt lat="40.0713952" lon="-105.2297294">
  <ele>1583.0</ele>
  <time>2026-08-27T17:17:23Z</time>
  <course>66.0</course>
  <speed>0.79</speed>
  <fix>3d</fix>
</trkpt>
<trkpt lat="40.0713952" lon="-105.2297294">
  <ele>1583.0</ele>
  <time>2026-08-27T17:17:23Z</time>
  <course>247.51</course>
  <speed>0.10770329614269007</speed>
  <fix>3d</fix>
</trkpt>
<trkpt lat="40.0713958" lon="-105.2297277">
  <ele>1583.0</ele>
  <time>2026-08-27T17:17:23Z</time>
  <course>66.0</course>
  <speed>0.8</speed>
  <fix>3d</fix>
</trkpt>
<trkpt lat="40.0713958" lon="-105.2297277">
  <ele>1583.0</ele>
  <time>2026-08-27T17:17:23Z</time>
  <course>247.63</course>
  <speed>0.10770329614269007</speed>
  <fix>3d</fix>
</trkpt>
<trkpt lat="40.0713958" lon="-105.2297277">
  <ele>1583.0</ele>
  <time>2026-08-27T17:17:23Z</time>
  <course>66.0</course>
  <speed>0.8</speed>
  <fix>3d</fix>
</trkpt>
<trkpt lat="40.0713958" lon="-105.2297277">
  <ele>1583.0</ele>
  <time>2026-08-27T17:17:23Z</time>
  <course>247.74</course>
  <speed>0.10770329614269007</speed>
  <fix>3d</fix>
</trkpt>
<trkpt lat="40.0713964" lon="-105.229726">
  <ele>1583.0</ele>
  <time>2026-08-27T17:17:23Z</time>
  <course>66.0</course>
  <speed>0.8</speed>
  <fix>3d</fix>
</trkpt>
<trkpt lat="40.0713964" lon="-105.229726">
  <ele>1583.0</ele>
  <time>2026-08-27T17:17:23Z</time>
  <course>247.83</course>
  <speed>0.11704699910719625</speed>
  <fix>3d</fix>
</trkpt>
<trkpt lat="40.0713964" lon="-105.229726">
  <ele>1583.0</ele>
  <time>2026-08-27T17:17:23Z</time>
  <course>66.0</course>
  <speed>0.8</speed>
  <fix>3d</fix>
</trkpt>
<trkpt lat="40.0713964" lon="-105.229726">
  <ele>1583.0</ele>
  <time>2026-08-27T17:17:23Z</time>
  <course>247.93</course>
  <speed>0.12083045973594572</speed>
  <fix>3d</fix>
</trkpt>
<trkpt lat="40.071397" lon="-105.2297243">
  <ele>1583.0</ele>
  <time>2026-08-27T17:17:23Z</time>
  <course>66.0</course>
  <speed>0.8</speed>
  <fix>3d</fix>
</trkpt>
<trkpt lat="40.071397" lon="-105.2297243">
  <ele>1583.0</ele>
  <time>2026-08-27T17:17:23Z</time>
  <course>248.03</course>
  <speed>0.12083045973594572</speed>
  <fix>3d</fix>
</trkpt>
<trkpt lat="40.071397" lon="-105.2297243">
  <ele>1583.0</ele>
  <time>2026-08-27T17:17:23Z</time>
  <course>66.0</course>
  <speed>0.8</speed>
  <fix>3d</fix>
</trkpt>
<trkpt lat="40.071397" lon="-105.2297243">
  <ele>1583.0</ele>
  <time>2026-08-27T17:17:23Z</time>
  <course>248.13</course>
  <speed>0.12083045973594572</speed>
  <fix>3d</fix>
</trkpt>
<trkpt lat="40.0713976" lon="-105.2297226">
  <ele>1583.0</ele>
  <time>2026-08-27T17:17:23Z</time>
  <course>65.99</course>
  <speed>0.8</speed>
  <fix>3d</fix>
</trkpt>
<trkpt lat="40.0713976" lon="-105.2297226">
  <ele>1583.0</ele>
  <time>2026-08-27T17:17:23Z</time>
  <course>248.22</course>
  <speed>0.13</speed>
  <fix>3d</fix>
</trkpt>
<trkpt lat="40.0713976" lon="-105.2297226">
  <ele>1583.0</ele>
  <time>2026-08-27T17:17:23Z</time>
  <course>65.99</course>
  <speed>0.8</speed>
  <fix>3d</fix>
</trkpt>
<trkpt lat="40.0713976" lon="-105.2297226">
  <ele>1583.0</ele>
  <time>2026-08-27T17:17:23Z</time>
  <course>248.31</course>
  <speed>0.13</speed>
  <fix>3d</fix>
</trkpt>
<trkpt lat="40.0713982" lon="-105.2297209">
  <ele>1583.0</ele>
  <time>2026-08-27T17:17:23Z</time>
  <course>65.99</course>
  <speed>0.8</speed>
  <fix>3d</fix>
</trkpt>
<trkpt lat="40.0713982" lon="-105.2297209">
  <ele>1583.0</ele>
  <time>2026-08-27T17:17:23Z</time>
  <course>248.4</course>
  <speed>0.13</speed>
  <fix>3d</fix>
</trkpt>
<trkpt lat="40.0713982" lon="-105.2297209">
  <ele>1583.0</ele>
  <time>2026-08-27T17:17:23Z</time>
  <course>65.99</course>
  <speed>0.8</speed>
  <fix>3d</fix>
</trkpt>
<trkpt lat="40.0713982" lon="-105.2297209">
  <ele>1583.0</ele>
  <time>2026-08-27T17:17:23Z</time>
  <course>248.49</course>
  <speed>0.13</speed>
  <fix>3d</fix>
</trkpt>
<trkpt lat="40.0713987" lon="-105.2297192">
  <ele>1583.0</ele>
  <time>2026-08-27T17:17:23Z</time>
  <course>65.99</course>
  <speed>0.8</speed>
  <fix>3d</fix>
</trkpt>
<trkpt lat="40.0713987" lon="-105.2297192">
  <ele>1583.0</ele>
  <time>2026-08-27T17:17:23Z</time>
  <course>248.57</course>
  <speed>0.14317821063276354</speed>
  <fix>3d</fix>
</trkpt>
<trkpt lat="40.0713987" lon="-105.2297192">
  <ele>1583.0</ele>
  <time>2026-08-27T17:17:23Z</time>
  <course>65.99</course>
  <speed>0.8</speed>
  <fix>3d</fix>
</trkpt>
<trkpt lat="40.0713992" lon="-105.2297174">
  <ele>1583.0</ele>
  <time>2026-08-27T17:17:23Z</time>
  <course>248.66</course>
  <speed>0.14317821063276354</speed>
  <fix>3d</fix>
</trkpt>
<trkpt lat="40.0713992" lon="-105.2297174">
  <ele>1583.0</ele>
  <time>2026-08-27T17:17:23Z</time>
  <course>66.0</course>
  <speed>0.8</speed>
  <fix>3d</fix>
</trkpt>
<trkpt lat="40.0713992" lon="-105.2297174">
  <ele>1583.0</ele>
  <time>2026-08-27T17:17:23Z</time>
  <course>248.73</course>
  <speed>0.14317821063276354</speed>
  <fix>3d</fix>
</trkpt>
<trkpt lat="40.0713992" lon="-105.2297174">
  <ele>1583.0</ele>
  <time>2026-08-27T17:17:23Z</time>
  <course>66.0</course>
  <speed>0.8</speed>
  <fix>3d</fix>
</trkpt>
<trkpt lat="40.0713999" lon="-105.2297157">
  <ele>1583.0</ele>
  <time>2026-08-27T17:17:23Z</time>
  <course>248.8</course>
  <speed>0.14317821063276354</speed>
  <fix>3d</fix>
</trkpt>
<trkpt lat="40.0713999" lon="-105.2297157">
  <ele>1583.0</ele>
  <time>2026-08-27T17:17:23Z</time>
  <course>66.0</course>
  <speed>0.8</speed>
  <fix>3d</fix>
</trkpt>
<trkpt lat="40.0713999" lon="-105.2297157">
  <ele>1583.0</ele>
  <time>2026-08-27T17:17:23Z</time>
  <course>248.87</course>
  <speed>0.14317821063276354</speed>
  <fix>3d</fix>
</trkpt>
<trkpt lat="40.0713999" lon="-105.2297157">
  <ele>1583.0</ele>
  <time>2026-08-27T17:17:23Z</time>
  <course>66.0</course>
  <speed>0.8</speed>
  <fix>3d</fix>
</trkpt>
<trkpt lat="40.0714004" lon="-105.229714">
  <ele>1583.0</ele>
  <time>2026-08-27T17:17:23Z</time>
  <course>248.94</course>
  <speed>0.15231546211727817</speed>
  <fix>3d</fix>
</trkpt>
<trkpt lat="40.0714004" lon="-105.229714">
  <ele>1583.0</ele>
  <time>2026-08-27T17:17:23Z</time>
  <course>65.99</course>
  <speed>0.8</speed>
  <fix>3d</fix>
</trkpt>
<trkpt lat="40.0714004" lon="-105.229714">
  <ele>1583.0</ele>
  <time>2026-08-27T17:17:23Z</time>
  <course>249.0</course>
  <speed>0.15231546211727817</speed>
  <fix>3d</fix>
</trkpt>
<trkpt lat="40.0714004" lon="-105.229714">
  <ele>1583.0</ele>
  <time>2026-08-27T17:17:23Z</time>
  <course>65.99</course>
  <speed>0.8</speed>
  <fix>3d</fix>
</trkpt>
<trkpt lat="40.0714004" lon="-105.229714">
  <ele>1583.0</ele>
  <time>2026-08-27T17:17:23Z</time>
  <course>249.06</course>
  <speed>0.15231546211727817</speed>
  <fix>3d</fix>
</trkpt>
<trkpt lat="40.0714011" lon="-105.2297123">
  <ele>1583.0</ele>
  <time>2026-08-27T17:17:23Z</time>
  <course>65.99</course>
  <speed>0.8</speed>
  <fix>3d</fix>
</trkpt>
<trkpt lat="40.0714011" lon="-105.2297123">
  <ele>1583.0</ele>
  <time>2026-08-27T17:17:23Z</time>
  <course>249.12</course>
  <speed>0.15652475842498528</speed>
  <fix>3d</fix>
</trkpt>
<trkpt lat="40.0714011" lon="-105.2297123">
  <ele>1583.0</ele>
  <time>2026-08-27T17:17:23Z</time>
  <course>65.99</course>
  <speed>0.8</speed>
  <fix>3d</fix>
</trkpt>
<trkpt lat="40.0714011" lon="-105.2297123">
  <ele>1583.0</ele>
  <time>2026-08-27T17:17:23Z</time>
  <course>249.17</course>
  <speed>0.15652475842498528</speed>
  <fix>3d</fix>
</trkpt>
<trkpt lat="40.0714016" lon="-105.2297106">
  <ele>1583.0</ele>
  <time>2026-08-27T17:17:23Z</time>
  <course>65.99</course>
  <speed>0.8</speed>
  <fix>3d</fix>
</trkpt>
<trkpt lat="40.0714016" lon="-105.2297106">
  <ele>1583.0</ele>
  <time>2026-08-27T17:17:23Z</time>
  <course>249.23</course>
  <speed>0.15652475842498528</speed>
  <fix>3d</fix>
</trkpt>
<trkpt lat="40.0714016" lon="-105.2297106">
  <ele>1583.0</ele>
  <time>2026-08-27T17:17:23Z</time>
  <course>65.99</course>
  <speed>0.8</speed>
  <fix>3d</fix>
</trkpt>
<trkpt lat="40.0714016" lon="-105.2297106">
  <ele>1583.0</ele>
  <time>2026-08-27T17:17:23Z</time>
  <course>249.28</course>
  <speed>0.16552945357246848</speed>
  <fix>3d</fix>
</trkpt>
<trkpt lat="40.0714023" lon="-105.2297088">
  <ele>1583.0</ele>
  <time>2026-08-27T17:17:23Z</time>
  <course>65.99</course>
  <speed>0.8</speed>
  <fix>3d</fix>
</trkpt>
<trkpt lat="40.0714023" lon="-105.2297088">
  <ele>1583.0</ele>
  <time>2026-08-27T17:17:23Z</time>
  <course>249.32</course>
  <speed>0.16552945357246848</speed>
  <fix>3d</fix>
</trkpt>
<trkpt lat="40.0714023" lon="-105.2297088">
  <ele>1583.0</ele>
  <time>2026-08-27T17:17:23Z</time>
  <course>65.99</course>
  <speed>0.8</speed>
  <fix>3d</fix>
</trkpt>
<trkpt lat="40.0714023" lon="-105.2297088">
  <ele>1583.0</ele>
  <time>2026-08-27T17:17:23Z</time>
  <course>249.36</course>
  <speed>0.16552945357246848</speed>
  <fix>3d</fix>
</trkpt>
<trkpt lat="40.0714028" lon="-105.2297071">
  <ele>1583.0</ele>
  <time>2026-08-27T17:17:23Z</time>
  <course>65.99</course>
  <speed>0.8</speed>
  <fix>3d</fix>
</trkpt>
<trkpt lat="40.0714028" lon="-105.2297071">
  <ele>1583.0</ele>
  <time>2026-08-27T17:17:23Z</time>
  <course>249.41</course>
  <speed>0.16552945357246848</speed>
  <fix>3d</fix>
</trkpt>
<trkpt lat="40.0714028" lon="-105.2297071">
  <ele>1583.0</ele>
  <time>2026-08-27T17:17:23Z</time>
  <course>65.99</course>
  <speed>0.8</speed>
  <fix>3d</fix>
</trkpt>
<trkpt lat="40.0714028" lon="-105.2297071">
  <ele>1583.0</ele>
  <time>2026-08-27T17:17:23Z</time>
  <course>249.45</course>
  <speed>0.16552945357246848</speed>
  <fix>3d</fix>
</trkpt>
<trkpt lat="40.0714033" lon="-105.2297054">
  <ele>1583.0</ele>
  <time>2026-08-27T17:17:23Z</time>
  <course>65.99</course>
  <speed>0.8</speed>
  <fix>3d</fix>
</trkpt>
<trkpt lat="40.0714033" lon="-105.2297054">
  <ele>1583.0</ele>
  <time>2026-08-27T17:17:23Z</time>
  <course>249.49</course>
  <speed>0.16552945357246848</speed>
  <fix>3d</fix>
</trkpt>
<trkpt lat="40.0714033" lon="-105.2297054">
  <ele>1583.0</ele>
  <time>2026-08-27T17:17:23Z</time>
  <course>65.99</course>
  <speed>0.8</speed>
  <fix>3d</fix>
</trkpt>
<trkpt lat="40.0714033" lon="-105.2297054">
  <ele>1583.0</ele>
  <time>2026-08-27T17:17:23Z</time>
  <course>249.53</course>
  <speed>0.16552945357246848</speed>
  <fix>3d</fix>
</trkpt>
<trkpt lat="40.071404" lon="-105.2297037">
  <ele>1583.0</ele>
  <time>2026-08-27T17:17:23Z</time>
  <course>65.99</course>
  <speed>0.8</speed>
  <fix>3d</fix>
</trkpt>
<trkpt lat="40.071404" lon="-105.2297037">
  <ele>1583.0</ele>
  <time>2026-08-27T17:17:23Z</time>
  <course>249.57</course>
  <speed>0.16552945357246848</speed>
  <fix>3d</fix>
</trkpt>
<trkpt lat="40.071404" lon="-105.2297037">
  <ele>1583.0</ele>
  <time>2026-08-27T17:17:23Z</time>
  <course>65.99</course>
  <speed>0.8</speed>
  <fix>3d</fix>
</trkpt>
<trkpt lat="40.071404" lon="-105.2297037">
  <ele>1583.0</ele>
  <time>2026-08-27T17:17:23Z</time>
  <course>249.6</course>
  <speed>0.17464249196572978</speed>
  <fix>3d</fix>
</trkpt>
<trkpt lat="40.0714045" lon="-105.229702">
  <ele>1583.0</ele>
  <time>2026-08-27T17:17:23Z</time>
  <course>65.99</course>
  <speed>0.8</speed>
  <fix>3d</fix>
</trkpt>
<trkpt lat="40.0714045" lon="-105.229702">
  <ele>1583.0</ele>
  <time>2026-08-27T17:17:23Z</time>
  <course>249.64</course>
  <speed>0.17464249196572978</speed>
  <fix>3d</fix>
</trkpt>
<trkpt lat="40.0714045" lon="-105.229702">
  <ele>1583.0</ele>
  <time>2026-08-27T17:17:23Z</time>
  <course>65.99</course>
  <speed>0.8</speed>
  <fix>3d</fix>
</trkpt>
<trkpt lat="40.0714045" lon="-105.229702">
  <ele>1583.0</ele>
  <time>2026-08-27T17:17:23Z</time>
  <course>249.67</course>
  <speed>0.17464249196572978</speed>
  <fix>3d</fix>
</trkpt>
<trkpt lat="40.0714052" lon="-105.2297002">
  <ele>1583.0</ele>
  <time>2026-08-27T17:17:23Z</time>
  <course>65.99</course>
  <speed>0.8</speed>
  <fix>3d</fix>
</trkpt>
<trkpt lat="40.0714052" lon="-105.2297002">
  <ele>1583.0</ele>
  <time>2026-08-27T17:17:23Z</time>
  <course>249.71</course>
  <speed>0.17888543819998318</speed>
  <fix>3d</fix>
</trkpt>
<trkpt lat="40.0714052" lon="-105.2297002">
  <ele>1583.0</ele>
  <time>2026-08-27T17:17:23Z</time>
  <course>65.99</course>
  <speed>0.8</speed>
  <fix>3d</fix>
</trkpt>
<trkpt lat="40.0714057" lon="-105.2296985">
  <ele>1583.0</ele>
  <time>2026-08-27T17:17:23Z</time>
  <course>249.74</course>
  <speed>0.17888543819998318</speed>
  <fix>3d</fix>
</trkpt>
<trkpt lat="40.0714057" lon="-105.2296985">
  <ele>1583.0</ele>
  <time>2026-08-27T17:17:23Z</time>
  <course>65.99</course>
  <speed>0.8</speed>
  <fix>3d</fix>
</trkpt>
<trkpt lat="40.0714057" lon="-105.2296985">
  <ele>1583.0</ele>
  <time>2026-08-27T17:17:23Z</time>
  <course>249.76</course>
  <speed>0.17888543819998318</speed>
  <fix>3d</fix>
</trkpt>
<trkpt lat="40.0714057" lon="-105.2296985">
  <ele>1583.0</ele>
  <time>2026-08-27T17:17:23Z</time>
  <course>65.99</course>
  <speed>0.8</speed>
  <fix>3d</fix>
</trkpt>
<trkpt lat="40.0714064" lon="-105.2296968">
  <ele>1583.0</ele>
  <time>2026-08-27T17:17:23Z</time>
  <course>249.79</course>
  <speed>0.17888543819998318</speed>
  <fix>3d</fix>
</trkpt>
<trkpt lat="40.0714064" lon="-105.2296968">
  <ele>1583.0</ele>
  <time>2026-08-27T17:17:23Z</time>
  <course>65.99</course>
  <speed>0.8</speed>
  <fix>3d</fix>
</trkpt>
<trkpt lat="40.0714064" lon="-105.2296968">
  <ele>1583.0</ele>
  <time>2026-08-27T17:17:23Z</time>
  <course>249.81</course>
  <speed>0.17888543819998318</speed>
  <fix>3d</fix>
</trkpt>
<trkpt lat="40.0714064" lon="-105.2296968">
  <ele>1583.0</ele>
  <time>2026-08-27T17:17:23Z</time>
  <course>65.99</course>
  <speed>0.8</speed>
  <fix>3d</fix>
</trkpt>
<trkpt lat="40.0714064" lon="-105.2296968">
  <ele>1583.0</ele>
  <time>2026-08-27T17:17:23Z</time>
  <course>249.84</course>
  <speed>0.17888543819998318</speed>
  <fix>3d</fix>
</trkpt>
<trkpt lat="40.0714069" lon="-105.2296951">
  <ele>1583.0</ele>
  <time>2026-08-27T17:17:23Z</time>
  <course>65.99</course>
  <speed>0.8</speed>
  <fix>3d</fix>
</trkpt>
<trkpt lat="40.0714069" lon="-105.2296951">
  <ele>1583.0</ele>
  <time>2026-08-27T17:17:23Z</time>
  <course>249.86</course>
  <speed>0.17888543819998318</speed>
  <fix>3d</fix>
</trkpt>
<trkpt lat="40.0714069" lon="-105.2296951">
  <ele>1583.0</ele>
  <time>2026-08-27T17:17:23Z</time>
  <course>65.99</course>
  <speed>0.8</speed>
  <fix>3d</fix>
</trkpt>
<trkpt lat="40.0714069" lon="-105.2296951">
  <ele>1583.0</ele>
  <time>2026-08-27T17:17:23Z</time>
  <course>249.88</course>
  <speed>0.17888543819998318</speed>
  <fix>3d</fix>
</trkpt>
<trkpt lat="40.0714074" lon="-105.2296934">
  <ele>1583.0</ele>
  <time>2026-08-27T17:17:23Z</time>
  <course>65.99</course>
  <speed>0.8</speed>
  <fix>3d</fix>
</trkpt>
<trkpt lat="40.0714074" lon="-105.2296934">
  <ele>1583.0</ele>
  <time>2026-08-27T17:17:23Z</time>
  <course>249.9</course>
  <speed>0.18788294228055935</speed>
  <fix>3d</fix>
</trkpt>
<trkpt lat="40.0714074" lon="-105.2296934">
  <ele>1583.0</ele>
  <time>2026-08-27T17:17:23Z</time>
  <course>65.99</course>
  <speed>0.8</speed>
  <fix>3d</fix>
</trkpt>
<trkpt lat="40.0714074" lon="-105.2296934">
  <ele>1583.0</ele>
  <time>2026-08-27T17:17:23Z</time>
  <course>249.92</course>
  <speed>0.18788294228055935</speed>
  <fix>3d</fix>
</trkpt>
<trkpt lat="40.0714081" lon="-105.2296916">
  <ele>1583.0</ele>
  <time>2026-08-27T17:17:23Z</time>
  <course>65.99</course>
  <speed>0.8</speed>
  <fix>3d</fix>
</trkpt>
<trkpt lat="40.0714081" lon="-105.2296916">
  <ele>1583.0</ele>
  <time>2026-08-27T17:17:23Z</time>
  <course>249.94</course>
  <speed>0.18788294228055935</speed>
  <fix>3d</fix>
</trkpt>
<trkpt lat="40.0714081" lon="-105.2296916">
  <ele>1583.0</ele>
  <time>2026-08-27T17:17:23Z</time>
  <course>65.99</course>
  <speed>0.8</speed>
  <fix>3d</fix>
</trkpt>
<trkpt lat="40.0714081" lon="-105.2296916">
  <ele>1583.0</ele>
  <time>2026-08-27T17:17:23Z</time>
  <course>249.95</course>
  <speed>0.18788294228055935</speed>
  <fix>3d</fix>
</trkpt>
<trkpt lat="40.0714086" lon="-105.2296899">
  <ele>1583.0</ele>
  <time>2026-08-27T17:17:23Z</time>
  <course>65.99</course>
  <speed>0.8</speed>
  <fix>3d</fix>
</trkpt>
<trkpt lat="40.0714086" lon="-105.2296899">
  <ele>1583.0</ele>
  <time>2026-08-27T17:17:23Z</time>
  <course>249.97</course>
  <speed>0.18788294228055935</speed>
  <fix>3d</fix>
</trkpt>
<trkpt lat="40.0714086" lon="-105.2296899">
  <ele>1583.0</ele>
  <time>2026-08-27T17:17:23Z</time>
  <course>65.99</course>
  <speed>0.8</speed>
  <fix>3d</fix>
</trkpt>
<trkpt lat="40.0714086" lon="-105.2296899">
  <ele>1583.0</ele>
  <time>2026-08-27T17:17:23Z</time>
  <course>249.98</course>
  <speed>0.18788294228055935</speed>
  <fix>3d</fix>
</trkpt>
<trkpt lat="40.0714093" lon="-105.2296882">
  <ele>1583.0</ele>
  <time>2026-08-27T17:17:23Z</time>
  <course>65.99</course>
  <speed>0.8</speed>
  <fix>3d</fix>
</trkpt>
<trkpt lat="40.0714093" lon="-105.2296882">
  <ele>1583.0</ele>
  <time>2026-08-27T17:17:23Z</time>
  <course>250.0</course>
  <speed>0.18788294228055935</speed>
  <fix>3d</fix>
</trkpt>
<trkpt lat="40.0714093" lon="-105.2296882">
  <ele>1583.0</ele>
  <time>2026-08-27T17:17:23Z</time>
  <course>65.99</course>
  <speed>0.8</speed>
  <fix>3d</fix>
</trkpt>
<trkpt lat="40.0714093" lon="-105.2296882">
  <ele>1583.0</ele>
  <time>2026-08-27T17:17:23Z</time>
  <course>250.01</course>
  <speed>0.18788294228055935</speed>
  <fix>3d</fix>
</trkpt>
<trkpt lat="40.0714098" lon="-105.2296865">
  <ele>1583.0</ele>
  <time>2026-08-27T17:17:23Z</time>
  <course>65.99</course>
  <speed>0.8</speed>
  <fix>3d</fix>
</trkpt>
<trkpt lat="40.0714098" lon="-105.2296865">
  <ele>1583.0</ele>
  <time>2026-08-27T17:17:23Z</time>
  <course>250.02</course>
  <speed>0.18788294228055935</speed>
  <fix>3d</fix>
</trkpt>
<trkpt lat="40.0714098" lon="-105.2296865">
  <ele>1583.0</ele>
  <time>2026-08-27T17:17:23Z</time>
  <course>65.99</course>
  <speed>0.8</speed>
  <fix>3d</fix>
</trkpt>
<trkpt lat="40.0714098" lon="-105.2296865">
  <ele>1583.0</ele>
  <time>2026-08-27T17:17:23Z</time>
  <course>250.03</course>
  <speed>0.18788294228055935</speed>
  <fix>3d</fix>
</trkpt>
<trkpt lat="40.0714105" lon="-105.2296848">
  <ele>1583.0</ele>
  <time>2026-08-27T17:17:23Z</time>
  <course>65.99</course>
  <speed>0.8</speed>
  <fix>3d</fix>
</trkpt>
<trkpt lat="40.0714105" lon="-105.2296848">
  <ele>1583.0</ele>
  <time>2026-08-27T17:17:23Z</time>
  <course>250.04</course>
  <speed>0.18788294228055935</speed>
  <fix>3d</fix>
</trkpt>
<trkpt lat="40.0714105" lon="-105.2296848">
  <ele>1583.0</ele>
  <time>2026-08-27T17:17:23Z</time>
  <course>65.99</course>
  <speed>0.8</speed>
  <fix>3d</fix>
</trkpt>
<trkpt lat="40.0714105" lon="-105.2296848">
  <ele>1583.0</ele>
  <time>2026-08-27T17:17:23Z</time>
  <course>250.05</course>
  <speed>0.18788294228055935</speed>
  <fix>3d</fix>
</trkpt>
<trkpt lat="40.071411" lon="-105.229683">
  <ele>1583.0</ele>
  <time>2026-08-27T17:17:23Z</time>
  <course>65.99</course>
  <speed>0.8</speed>
  <fix>3d</fix>
</trkpt>
<trkpt lat="40.071411" lon="-105.229683">
  <ele>1583.0</ele>
  <time>2026-08-27T17:17:23Z</time>
  <course>250.06</course>
  <speed>0.18788294228055935</speed>
  <fix>3d</fix>
</trkpt>
<trkpt lat="40.071411" lon="-105.229683">
  <ele>1583.0</ele>
  <time>2026-08-27T17:17:23Z</time>
  <course>65.99</course>
  <speed>0.8</speed>
  <fix>3d</fix>
</trkpt>
<trkpt lat="40.0714116" lon="-105.2296813">
  <ele>1583.0</ele>
  <time>2026-08-27T17:17:23Z</time>
  <course>250.07</course>
  <speed>0.18788294228055935</speed>
  <fix>3d</fix>
</trkpt>
<trkpt lat="40.0714116" lon="-105.2296813">
  <ele>1583.0</ele>
  <time>2026-08-27T17:17:23Z</time>
  <course>65.99</course>
  <speed>0.8</speed>
  <fix>3d</fix>
</trkpt>
<trkpt lat="40.0714116" lon="-105.2296813">
  <ele>1583.0</ele>
  <time>2026-08-27T17:17:23Z</time>
  <course>250.08</course>
  <speed>0.18788294228055935</speed>
  <fix>3d</fix>
</trkpt>
<trkpt lat="40.0714116" lon="-105.2296813">
  <ele>1583.0</ele>
  <time>2026-08-27T17:17:23Z</time>
  <course>65.99</course>
  <speed>0.8</speed>
  <fix>3d</fix>
</trkpt>
<trkpt lat="40.0714122" lon="-105.2296796">
  <ele>1583.0</ele>
  <time>2026-08-27T17:17:23Z</time>
  <course>250.09</course>
  <speed>0.18788294228055935</speed>
  <fix>3d</fix>
</trkpt>
<trkpt lat="40.0714122" lon="-105.2296796">
  <ele>1583.0</ele>
  <time>2026-08-27T17:17:23Z</time>
  <course>65.99</course>
  <speed>0.8</speed>
  <fix>3d</fix>
</trkpt>
<trkpt lat="40.0714122" lon="-105.2296796">
  <ele>1583.0</ele>
  <time>2026-08-27T17:17:23Z</time>
  <course>250.09</course>
  <speed>0.18788294228055935</speed>
  <fix>3d</fix>
</trkpt>
<trkpt lat="40.0714122" lon="-105.2296796">
  <ele>1583.0</ele>
  <time>2026-08-27T17:17:23Z</time>
  <course>65.99</course>
  <speed>0.8</speed>
  <fix>3d</fix>
</trkpt>
<trkpt lat="40.0714122" lon="-105.2296796">
  <ele>1583.0</ele>
  <time>2026-08-27T17:17:23Z</time>
  <course>250.1</course>
  <speed>0.18788294228055935</speed>
  <fix>3d</fix>
</trkpt>
<trkpt lat="40.0714128" lon="-105.2296779">
  <ele>1583.0</ele>
  <time>2026-08-27T17:17:23Z</time>
  <course>65.99</course>
  <speed>0.8</speed>
  <fix>3d</fix>
</trkpt>
<trkpt lat="40.0714128" lon="-105.2296779">
  <ele>1583.0</ele>
  <time>2026-08-27T17:17:23Z</time>
  <course>250.1</course>
  <speed>0.18788294228055935</speed>
  <fix>3d</fix>
</trkpt>
<trkpt lat="40.0714128" lon="-105.2296779">
  <ele>1583.0</ele>
  <time>2026-08-27T17:17:23Z</time>
  <course>65.99</course>
  <speed>0.8</speed>
  <fix>3d</fix>
</trkpt>
<trkpt lat="40.0714128" lon="-105.2296779">
  <ele>1583.0</ele>
  <time>2026-08-27T17:17:23Z</time>
  <course>250.11</course>
  <speed>0.18788294228055935</speed>
  <fix>3d</fix>
</trkpt>
<trkpt lat="40.0714134" lon="-105.2296762">
  <ele>1583.0</ele>
  <time>2026-08-27T17:17:23Z</time>
  <course>65.99</course>
  <speed>0.8</speed>
  <fix>3d</fix>
</trkpt>
<trkpt lat="40.0714134" lon="-105.2296762">
  <ele>1583.0</ele>
  <time>2026-08-27T17:17:23Z</time>
  <course>250.11</course>
  <speed>0.18788294228055935</speed>
  <fix>3d</fix>
</trkpt>
<trkpt lat="40.0714134" lon="-105.2296762">
  <ele>1583.0</ele>
  <time>2026-08-27T17:17:23Z</time>
  <course>65.99</course>
  <speed>0.8</speed>
  <fix>3d</fix>
</trkpt>
<trkpt lat="40.0714134" lon="-105.2296762">
  <ele>1583.0</ele>
  <time>2026-08-27T17:17:23Z</time>
  <course>250.12</course>
  <speed>0.18788294228055935</speed>
  <fix>3d</fix>
</trkpt>
<trkpt lat="40.071414" lon="-105.2296744">
  <ele>1583.0</ele>
  <time>2026-08-27T17:17:23Z</time>
  <course>65.99</course>
  <speed>0.8</speed>
  <fix>3d</fix>
</trkpt>
<trkpt lat="40.071414" lon="-105.2296744">
  <ele>1583.0</ele>
  <time>2026-08-27T17:17:23Z</time>
  <course>250.12</course>
  <speed>0.18788294228055935</speed>
  <fix>3d</fix>
</trkpt>
<trkpt lat="40.071414" lon="-105.2296744">
  <ele>1583.0</ele>
  <time>2026-08-27T17:17:23Z</time>
  <course>65.99</course>
  <speed>0.8</speed>
  <fix>3d</fix>
</trkpt>
<trkpt lat="40.071414" lon="-105.2296744">
  <ele>1583.0</ele>
  <time>2026-08-27T17:17:23Z</time>
  <course>250.12</course>
  <speed>0.18788294228055935</speed>
  <fix>3d</fix>
</trkpt>
<trkpt lat="40.0714146" lon="-105.2296727">
  <ele>1583.0</ele>
  <time>2026-08-27T17:17:23Z</time>
  <course>65.99</course>
  <speed>0.8</speed>
  <fix>3d</fix>
</trkpt>
<trkpt lat="40.0714146" lon="-105.2296727">
  <ele>1583.0</ele>
  <time>2026-08-27T17:17:23Z</time>
  <course>250.12</course>
  <speed>0.18788294228055935</speed>
  <fix>3d</fix>
</trkpt>
<trkpt lat="40.0714146" lon="-105.2296727">
  <ele>1583.0</ele>
  <time>2026-08-27T17:17:23Z</time>
  <course>65.99</course>
  <speed>0.8</speed>
  <fix>3d</fix>
</trkpt>
<trkpt lat="40.0714146" lon="-105.2296727">
  <ele>1583.0</ele>
  <time>2026-08-27T17:17:23Z</time>
  <course>250.12</course>
  <speed>0.18788294228055935</speed>
  <fix>3d</fix>
</trkpt>
<trkpt lat="40.0714151" lon="-105.229671">
  <ele>1583.0</ele>
  <time>2026-08-27T17:17:23Z</time>
  <course>65.99</course>
  <speed>0.8</speed>
  <fix>3d</fix>
</trkpt>
<trkpt lat="40.0714151" lon="-105.229671">
  <ele>1583.0</ele>
  <time>2026-08-27T17:17:23Z</time>
  <course>250.12</course>
  <speed>0.18788294228055935</speed>
  <fix>3d</fix>
</trkpt>
<trkpt lat="40.0714151" lon="-105.229671">
  <ele>1583.0</ele>
  <time>2026-08-27T17:17:23Z</time>
  <course>65.99</course>
  <speed>0.8</speed>
  <fix>3d</fix>
</trkpt>
<trkpt lat="40.0714151" lon="-105.229671">
  <ele>1583.0</ele>
  <time>2026-08-27T17:17:23Z</time>
  <course>250.12</course>
  <speed>0.18788294228055935</speed>
  <fix>3d</fix>
</trkpt>
<trkpt lat="40.0714157" lon="-105.2296693">
  <ele>1583.0</ele>
  <time>2026-08-27T17:17:23Z</time>
  <course>65.99</course>
  <speed>0.8</speed>
  <fix>3d</fix>
</trkpt>
<trkpt lat="40.0714157" lon="-105.2296693">
  <ele>1583.0</ele>
  <time>2026-08-27T17:17:23Z</time>
  <course>250.12</course>
  <speed>0.18788294228055935</speed>
  <fix>3d</fix>
</trkpt>
<trkpt lat="40.0714157" lon="-105.2296693">
  <ele>1583.0</ele>
  <time>2026-08-27T17:17:23Z</time>
  <course>65.99</course>
  <speed>0.8</speed>
  <fix>3d</fix>
</trkpt>
<trkpt lat="40.0714157" lon="-105.2296693">
  <ele>1583.0</ele>
  <time>2026-08-27T17:17:23Z</time>
  <course>250.12</course>
  <speed>0.18788294228055935</speed>
  <fix>3d</fix>
</trkpt>
<trkpt lat="40.0714162" lon="-105.2296676">
  <ele>1583.0</ele>
  <time>2026-08-27T17:17:23Z</time>
  <course>65.99</course>
  <speed>0.8</speed>
  <fix>3d</fix>
</trkpt>
<trkpt lat="40.0714162" lon="-105.2296676">
  <ele>1583.0</ele>
  <time>2026-08-27T17:17:23Z</time>
  <course>250.12</course>
  <speed>0.18788294228055935</speed>
  <fix>3d</fix>
</trkpt>
<trkpt lat="40.0714162" lon="-105.2296676">
  <ele>1583.0</ele>
  <time>2026-08-27T17:17:23Z</time>
  <course>65.99</course>
  <speed>0.8</speed>
  <fix>3d</fix>
</trkpt>
<trkpt lat="40.0714162" lon="-105.2296676">
  <ele>1583.0</ele>
  <time>2026-08-27T17:17:23Z</time>
  <course>250.12</course>
  <speed>0.18788294228055935</speed>
  <fix>3d</fix>
</trkpt>
<trkpt lat="40.0714169" lon="-105.2296658">
  <ele>1583.0</ele>
  <time>2026-08-27T17:17:23Z</time>
  <course>65.99</course>
  <speed>0.8</speed>
  <fix>3d</fix>
</trkpt>
<trkpt lat="40.0714169" lon="-105.2296658">
  <ele>1583.0</ele>
  <time>2026-08-27T17:17:23Z</time>
  <course>250.12</course>
  <speed>0.18788294228055935</speed>
  <fix>3d</fix>
</trkpt>
<trkpt lat="40.0714169" lon="-105.2296658">
  <ele>1583.0</ele>
  <time>2026-08-27T17:17:23Z</time>
  <course>65.99</course>
  <speed>0.8</speed>
  <fix>3d</fix>
</trkpt>
<trkpt lat="40.0714169" lon="-105.2296658">
  <ele>1583.0</ele>
  <time>2026-08-27T17:17:23Z</time>
  <course>250.12</course>
  <speed>0.18788294228055935</speed>
  <fix>3d</fix>
</trkpt>
<trkpt lat="40.0714174" lon="-105.2296641">
  <ele>1583.0</ele>
  <time>2026-08-27T17:17:23Z</time>
  <course>65.99</course>
  <speed>0.8</speed>
  <fix>3d</fix>
</trkpt>
<trkpt lat="40.0714174" lon="-105.2296641">
  <ele>1583.0</ele>
  <time>2026-08-27T17:17:23Z</time>
  <course>250.12</course>
  <speed>0.18788294228055935</speed>
  <fix>3d</fix>
</trkpt>
<trkpt lat="40.0714174" lon="-105.2296641">
  <ele>1583.0</ele>
  <time>2026-08-27T17:17:23Z</time>
  <course>65.99</course>
  <speed>0.8</speed>
  <fix>3d</fix>
</trkpt>
<trkpt lat="40.0714181" lon="-105.2296624">
  <ele>1583.0</ele>
  <time>2026-08-27T17:17:23Z</time>
  <course>250.11</course>
  <speed>0.18788294228055935</speed>
  <fix>3d</fix>
</trkpt>
<trkpt lat="40.0714181" lon="-105.2296624">
  <ele>1583.0</ele>
  <time>2026-08-27T17:17:23Z</time>
  <course>65.99</course>
  <speed>0.8</speed>
  <fix>3d</fix>
</trkpt>
<trkpt lat="40.0714181" lon="-105.2296624">
  <ele>1583.0</ele>
  <time>2026-08-27T17:17:23Z</time>
  <course>250.11</course>
  <speed>0.18788294228055935</speed>
  <fix>3d</fix>
</trkpt>
<trkpt lat="40.0714181" lon="-105.2296624">
  <ele>1583.0</ele>
  <time>2026-08-27T17:17:23Z</time>
  <course>65.99</course>
  <speed>0.8</speed>
  <fix>3d</fix>
</trkpt>
<trkpt lat="40.0714186" lon="-105.2296607">
  <ele>1583.0</ele>
  <time>2026-08-27T17:17:23Z</time>
  <course>250.11</course>
  <speed>0.18788294228055935</speed>
  <fix>3d</fix>
</trkpt>
<trkpt lat="40.0714186" lon="-105.2296607">
  <ele>1583.0</ele>
  <time>2026-08-27T17:17:23Z</time>
  <course>65.99</course>
  <speed>0.8</speed>
  <fix>3d</fix>
</trkpt>
<trkpt lat="40.0714186" lon="-105.2296607">
  <ele>1583.0</ele>
  <time>2026-08-27T17:17:23Z</time>
  <course>250.1</course>
  <speed>0.18788294228055935</speed>
  <fix>3d</fix>
</trkpt>
<trkpt lat="40.0714186" lon="-105.2296607">
  <ele>1583.0</ele>
  <time>2026-08-27T17:17:23Z</time>
  <course>65.99</course>
  <speed>0.8</speed>
  <fix>3d</fix>
</trkpt>
<trkpt lat="40.0714186" lon="-105.2296607">
  <ele>1583.0</ele>
  <time>2026-08-27T17:17:23Z</time>
  <course>250.1</course>
  <speed>0.18788294228055935</speed>
  <fix>3d</fix>
</trkpt>
<trkpt lat="40.0714193" lon="-105.229659">
  <ele>1583.0</ele>
  <time>2026-08-27T17:17:23Z</time>
  <course>65.99</course>
  <speed>0.8</speed>
  <fix>3d</fix>
</trkpt>
<trkpt lat="40.0714193" lon="-105.229659">
  <ele>1583.0</ele>
  <time>2026-08-27T17:17:23Z</time>
  <course>250.09</course>
  <speed>0.18788294228055935</speed>
  <fix>3d</fix>
</trkpt>
<trkpt lat="40.0714193" lon="-105.229659">
  <ele>1583.0</ele>
  <time>2026-08-27T17:17:23Z</time>
  <course>65.99</course>
  <speed>0.8</speed>
  <fix>3d</fix>
</trkpt>
<trkpt lat="40.0714193" lon="-105.229659">
  <ele>1583.0</ele>
  <time>2026-08-27T17:17:23Z</time>
  <course>250.09</course>
  <speed>0.18788294228055935</speed>
  <fix>3d</fix>
</trkpt>
<trkpt lat="40.0714198" lon="-105.2296572">
  <ele>1583.0</ele>
  <time>2026-08-27T17:17:23Z</time>
  <course>65.99</course>
  <speed>0.8</speed>
  <fix>3d</fix>
</trkpt>
<trkpt lat="40.0714198" lon="-105.2296572">
  <ele>1583.0</ele>
  <time>2026-08-27T17:17:23Z</time>
  <course>250.08</course>
  <speed>0.18788294228055935</speed>
  <fix>3d</fix>
</trkpt>
<trkpt lat="40.0714198" lon="-105.2296572">
  <ele>1583.0</ele>
  <time>2026-08-27T17:17:23Z</time>
  <course>65.99</course>
  <speed>0.8</speed>
  <fix>3d</fix>
</trkpt>
<trkpt lat="40.0714198" lon="-105.2296572">
  <ele>1583.0</ele>
  <time>2026-08-27T17:17:23Z</time>
  <course>250.08</course>
  <speed>0.18788294228055935</speed>
  <fix>3d</fix>
</trkpt>
<trkpt lat="40.0714203" lon="-105.2296555">
  <ele>1583.0</ele>
  <time>2026-08-27T17:17:23Z</time>
  <course>65.99</course>
  <speed>0.8</speed>
  <fix>3d</fix>
</trkpt>
<trkpt lat="40.0714203" lon="-105.2296555">
  <ele>1583.0</ele>
  <time>2026-08-27T17:17:23Z</time>
  <course>250.07</course>
  <speed>0.18788294228055935</speed>
  <fix>3d</fix>
</trkpt>
<trkpt lat="40.0714203" lon="-105.2296555">
  <ele>1583.0</ele>
  <time>2026-08-27T17:17:23Z</time>
  <course>65.99</course>
  <speed>0.8</speed>
  <fix>3d</fix>
</trkpt>
<trkpt lat="40.0714203" lon="-105.2296555">
  <ele>1583.0</ele>
  <time>2026-08-27T17:17:23Z</time>
  <course>250.07</course>
  <speed>0.18788294228055935</speed>
  <fix>3d</fix>
</trkpt>
<trkpt lat="40.071421" lon="-105.2296538">
  <ele>1583.0</ele>
  <time>2026-08-27T17:17:23Z</time>
  <course>65.99</course>
  <speed>0.8</speed>
  <fix>3d</fix>
</trkpt>
<trkpt lat="40.071421" lon="-105.2296538">
  <ele>1583.0</ele>
  <time>2026-08-27T17:17:23Z</time>
  <course>250.06</course>
  <speed>0.18788294228055935</speed>
  <fix>3d</fix>
</trkpt>
<trkpt lat="40.071421" lon="-105.2296538">
  <ele>1583.0</ele>
  <time>2026-08-27T17:17:23Z</time>
  <course>65.99</course>
  <speed>0.8</speed>
  <fix>3d</fix>
</trkpt>
<trkpt lat="40.071421" lon="-105.2296538">
  <ele>1583.0</ele>
  <time>2026-08-27T17:17:23Z</time>
  <course>250.06</course>
  <speed>0.17888543819998318</speed>
  <fix>3d</fix>
</trkpt>
<trkpt lat="40.0714215" lon="-105.2296521">
  <ele>1583.0</ele>
  <time>2026-08-27T17:17:23Z</time>
  <course>65.99</course>
  <speed>0.8</speed>
  <fix>3d</fix>
</trkpt>
<trkpt lat="40.0714215" lon="-105.2296521">
  <ele>1583.0</ele>
  <time>2026-08-27T17:17:23Z</time>
  <course>250.05</course>
  <speed>0.17888543819998318</speed>
  <fix>3d</fix>
</trkpt>
<trkpt lat="40.0714215" lon="-105.2296521">
  <ele>1583.0</ele>
  <time>2026-08-27T17:17:23Z</time>
  <course>65.99</course>
  <speed>0.8</speed>
  <fix>3d</fix>
</trkpt>
<trkpt lat="40.0714215" lon="-105.2296521">
  <ele>1583.0</ele>
  <time>2026-08-27T17:17:23Z</time>
  <course>250.04</course>
  <speed>0.17888543819998318</speed>
  <fix>3d</fix>
</trkpt>
<trkpt lat="40.0714222" lon="-105.2296504">
  <ele>1583.0</ele>
  <time>2026-08-27T17:17:23Z</time>
  <course>65.99</course>
  <speed>0.8</speed>
  <fix>3d</fix>
</trkpt>
<trkpt lat="40.0714222" lon="-105.2296504">
  <ele>1583.0</ele>
  <time>2026-08-27T17:17:23Z</time>
  <course>250.04</course>
  <speed>0.17888543819998318</speed>
  <fix>3d</fix>
</trkpt>
<trkpt lat="40.0714222" lon="-105.2296504">
  <ele>1583.0</ele>
  <time>2026-08-27T17:17:23Z</time>
  <course>65.99</course>
  <speed>0.8</speed>
  <fix>3d</fix>
</trkpt>
<trkpt lat="40.0714222" lon="-105.2296504">
  <ele>1583.0</ele>
  <time>2026-08-27T17:17:23Z</time>
  <course>250.03</course>
  <speed>0.17888543819998318</speed>
  <fix>3d</fix>
</trkpt>
<trkpt lat="40.0714227" lon="-105.2296486">
  <ele>1583.0</ele>
  <time>2026-08-27T17:17:23Z</time>
  <course>65.99</course>
  <speed>0.8</speed>
  <fix>3d</fix>
</trkpt>
<trkpt lat="40.0714227" lon="-105.2296486">
  <ele>1583.0</ele>
  <time>2026-08-27T17:17:23Z</time>
  <course>250.02</course>
  <speed>0.17888543819998318</speed>
  <fix>3d</fix>
</trkpt>
<trkpt lat="40.0714227" lon="-105.2296486">
  <ele>1583.0</ele>
  <time>2026-08-27T17:17:23Z</time>
  <course>65.99</course>
  <speed>0.8</speed>
  <fix>3d</fix>
</trkpt>
<trkpt lat="40.0714227" lon="-105.2296486">
  <ele>1583.0</ele>
  <time>2026-08-27T17:17:23Z</time>
  <course>250.01</course>
  <speed>0.17888543819998318</speed>
  <fix>3d</fix>
</trkpt>
<trkpt lat="40.0714234" lon="-105.2296469">
  <ele>1583.0</ele>
  <time>2026-08-27T17:17:23Z</time>
  <course>65.99</course>
  <speed>0.8</speed>
  <fix>3d</fix>
</trkpt>
<trkpt lat="40.0714234" lon="-105.2296469">
  <ele>1583.0</ele>
  <time>2026-08-27T17:17:23Z</time>
  <course>250.01</course>
  <speed>0.17888543819998318</speed>
  <fix>3d</fix>
</trkpt>
<trkpt lat="40.0714234" lon="-105.2296469">
  <ele>1583.0</ele>
  <time>2026-08-27T17:17:23Z</time>
  <course>65.99</course>
  <speed>0.8</speed>
  <fix>3d</fix>
</trkpt>
<trkpt lat="40.0714239" lon="-105.2296452">
  <ele>1583.0</ele>
  <time>2026-08-27T17:17:23Z</time>
  <course>250.0</course>
  <speed>0.17888543819998318</speed>
  <fix>3d</fix>
</trkpt>
<trkpt lat="40.0714239" lon="-105.2296452">
  <ele>1583.0</ele>
  <time>2026-08-27T17:17:23Z</time>
  <course>65.99</course>
  <speed>0.8</speed>
  <fix>3d</fix>
</trkpt>
<trkpt lat="40.0714239" lon="-105.2296452">
  <ele>1583.0</ele>
  <time>2026-08-27T17:17:23Z</time>
  <course>249.99</course>
  <speed>0.17888543819998318</speed>
  <fix>3d</fix>
</trkpt>
<trkpt lat="40.0714239" lon="-105.2296452">
  <ele>1583.0</ele>
  <time>2026-08-27T17:17:23Z</time>
  <course>65.99</course>
  <speed>0.8</speed>
  <fix>3d</fix>
</trkpt>
<trkpt lat="40.0714244" lon="-105.2296435">
  <ele>1583.0</ele>
  <time>2026-08-27T17:17:23Z</time>
  <course>249.98</course>
  <speed>0.17888543819998318</speed>
  <fix>3d</fix>
</trkpt>
<trkpt lat="40.0714244" lon="-105.2296435">
  <ele>1583.0</ele>
  <time>2026-08-27T17:17:23Z</time>
  <course>65.99</course>
  <speed>0.8</speed>
  <fix>3d</fix>
</trkpt>
<trkpt lat="40.0714244" lon="-105.2296435">
  <ele>1583.0</ele>
  <time>2026-08-27T17:17:23Z</time>
  <course>249.97</course>
  <speed>0.17888543819998318</speed>
  <fix>3d</fix>
</trkpt>
<trkpt lat="40.0714244" lon="-105.2296435">
  <ele>1583.0</ele>
  <time>2026-08-27T17:17:23Z</time>
  <course>65.99</course>
  <speed>0.8</speed>
  <fix>3d</fix>
</trkpt>
<trkpt lat="40.0714244" lon="-105.2296435">
  <ele>1583.0</ele>
  <time>2026-08-27T17:17:23Z</time>
  <course>249.97</course>
  <speed>0.17888543819998318</speed>
  <fix>3d</fix>
</trkpt>
<trkpt lat="40.0714251" lon="-105.2296418">
  <ele>1583.0</ele>
  <time>2026-08-27T17:17:23Z</time>
  <course>65.99</course>
  <speed>0.8</speed>
  <fix>3d</fix>
</trkpt>
<trkpt lat="40.0714251" lon="-105.2296418">
  <ele>1583.0</ele>
  <time>2026-08-27T17:17:23Z</time>
  <course>249.96</course>
  <speed>0.17464249196572978</speed>
  <fix>3d</fix>
</trkpt>
<trkpt lat="40.0714251" lon="-105.2296418">
  <ele>1583.0</ele>
  <time>2026-08-27T17:17:23Z</time>
  <course>65.99</course>
  <speed>0.8</speed>
  <fix>3d</fix>
</trkpt>
<trkpt lat="40.0714251" lon="-105.2296418">
  <ele>1583.0</ele>
  <time>2026-08-27T17:17:23Z</time>
  <course>249.95</course>
  <speed>0.16552945357246848</speed>
  <fix>3d</fix>
</trkpt>
<trkpt lat="40.0714256" lon="-105.22964">
  <ele>1583.0</ele>
  <time>2026-08-27T17:17:23Z</time>
  <course>65.99</course>
  <speed>0.8</speed>
  <fix>3d</fix>
</trkpt>
<trkpt lat="40.0714256" lon="-105.22964">
  <ele>1583.0</ele>
  <time>2026-08-27T17:17:23Z</time>
  <course>249.94</course>
  <speed>0.16552945357246848</speed>
  <fix>3d</fix>
</trkpt>
<trkpt lat="40.0714256" lon="-105.22964">
  <ele>1583.0</ele>
  <time>2026-08-27T17:17:23Z</time>
  <course>65.99</course>
  <speed>0.8</speed>
  <fix>3d</fix>
</trkpt>
<trkpt lat="40.0714256" lon="-105.22964">
  <ele>1583.0</ele>
  <time>2026-08-27T17:17:23Z</time>
  <course>249.93</course>
  <speed>0.16552945357246848</speed>
  <fix>3d</fix>
</trkpt>
<trkpt lat="40.0714263" lon="-105.2296383">
  <ele>1583.0</ele>
  <time>2026-08-27T17:17:23Z</time>
  <course>65.99</course>
  <speed>0.8</speed>
  <fix>3d</fix>
</trkpt>
<trkpt lat="40.0714263" lon="-105.2296383">
  <ele>1583.0</ele>
  <time>2026-08-27T17:17:23Z</time>
  <course>249.92</course>
  <speed>0.16552945357246848</speed>
  <fix>3d</fix>
</trkpt>
<trkpt lat="40.0714263" lon="-105.2296383">
  <ele>1583.0</ele>
  <time>2026-08-27T17:17:23Z</time>
  <course>65.99</course>
  <speed>0.8</speed>
  <fix>3d</fix>
</trkpt>
<trkpt lat="40.0714263" lon="-105.2296383">
  <ele>1583.0</ele>
  <time>2026-08-27T17:17:23Z</time>
  <course>249.91</course>
  <speed>0.16552945357246848</speed>
  <fix>3d</fix>
</trkpt>
<trkpt lat="40.0714268" lon="-105.2296366">
  <ele>1583.0</ele>
  <time>2026-08-27T17:17:23Z</time>
  <course>65.99</course>
  <speed>0.8</speed>
  <fix>3d</fix>
</trkpt>
<trkpt lat="40.0714268" lon="-105.2296366">
  <ele>1583.0</ele>
  <time>2026-08-27T17:17:23Z</time>
  <course>249.91</course>
  <speed>0.16552945357246848</speed>
  <fix>3d</fix>
</trkpt>
<trkpt lat="40.0714268" lon="-105.2296366">
  <ele>1583.0</ele>
  <time>2026-08-27T17:17:23Z</time>
  <course>65.99</course>
  <speed>0.8</speed>
  <fix>3d</fix>
</trkpt>
<trkpt lat="40.0714268" lon="-105.2296366">
  <ele>1583.0</ele>
  <time>2026-08-27T17:17:23Z</time>
  <course>249.9</course>
  <speed>0.16552945357246848</speed>
  <fix>3d</fix>
</trkpt>
<trkpt lat="40.0714275" lon="-105.2296349">
  <ele>1583.0</ele>
  <time>2026-08-27T17:17:23Z</time>
  <course>65.99</course>
  <speed>0.8</speed>
  <fix>3d</fix>
</trkpt>
<trkpt lat="40.0714275" lon="-105.2296349">
  <ele>1583.0</ele>
  <time>2026-08-27T17:17:23Z</time>
  <course>249.89</course>
  <speed>0.16552945357246848</speed>
  <fix>3d</fix>
</trkpt>
<trkpt lat="40.0714275" lon="-105.2296349">
  <ele>1583.0</ele>
  <time>2026-08-27T17:17:23Z</time>
  <course>65.99</course>
  <speed>0.8</speed>
  <fix>3d</fix>
</trkpt>
<trkpt lat="40.0714275" lon="-105.2296349">
  <ele>1583.0</ele>
  <time>2026-08-27T17:17:23Z</time>
  <course>249.88</course>
  <speed>0.16552945357246848</speed>
  <fix>3d</fix>
</trkpt>
<trkpt lat="40.071428" lon="-105.2296332">
  <ele>1583.0</ele>
  <time>2026-08-27T17:17:23Z</time>
  <course>65.99</course>
  <speed>0.8</speed>
  <fix>3d</fix>
</trkpt>
<trkpt lat="40.071428" lon="-105.2296332">
  <ele>1583.0</ele>
  <time>2026-08-27T17:17:23Z</time>
  <course>249.87</course>
  <speed>0.16552945357246848</speed>
  <fix>3d</fix>
</trkpt>
<trkpt lat="40.071428" lon="-105.2296332">
  <ele>1583.0</ele>
  <time>2026-08-27T17:17:23Z</time>
  <course>65.99</course>
  <speed>0.8</speed>
  <fix>3d</fix>
</trkpt>
<trkpt lat="40.071428" lon="-105.2296332">
  <ele>1583.0</ele>
  <time>2026-08-27T17:17:23Z</time>
  <course>249.86</course>
  <speed>0.16552945357246848</speed>
  <fix>3d</fix>
</trkpt>
<trkpt lat="40.0714286" lon="-105.2296314">
  <ele>1583.0</ele>
  <time>2026-08-27T17:17:23Z</time>
  <course>65.99</course>
  <speed>0.8</speed>
  <fix>3d</fix>
</trkpt>
<trkpt lat="40.0714286" lon="-105.2296314">
  <ele>1583.0</ele>
  <time>2026-08-27T17:17:23Z</time>
  <course>249.85</course>
  <speed>0.15652475842498528</speed>
  <fix>3d</fix>
</trkpt>
<trkpt lat="40.0714286" lon="-105.2296314">
  <ele>1583.0</ele>
  <time>2026-08-27T17:17:23Z</time>
  <course>65.99</course>
  <speed>0.8</speed>
  <fix>3d</fix>
</trkpt>
<trkpt lat="40.0714286" lon="-105.2296314">
  <ele>1583.0</ele>
  <time>2026-08-27T17:17:23Z</time>
  <course>249.84</course>
  <speed>0.15652475842498528</speed>
  <fix>3d</fix>
</trkpt>
<trkpt lat="40.0714292" lon="-105.2296297">
  <ele>1583.0</ele>
  <time>2026-08-27T17:17:23Z</time>
  <course>65.99</course>
  <speed>0.8</speed>
  <fix>3d</fix>
</trkpt>
<trkpt lat="40.0714292" lon="-105.2296297">
  <ele>1583.0</ele>
  <time>2026-08-27T17:17:23Z</time>
  <course>249.83</course>
  <speed>0.15652475842498528</speed>
  <fix>3d</fix>
</trkpt>
<trkpt lat="40.0714292" lon="-105.2296297">
  <ele>1583.0</ele>
  <time>2026-08-27T17:17:23Z</time>
  <course>65.99</course>
  <speed>0.8</speed>
  <fix>3d</fix>
</trkpt>
<trkpt lat="40.0714298" lon="-105.229628">
  <ele>1583.0</ele>
  <time>2026-08-27T17:17:23Z</time>
  <course>249.82</course>
  <speed>0.15652475842498528</speed>
  <fix>3d</fix>
</trkpt>
<trkpt lat="40.0714298" lon="-105.229628">
  <ele>1583.0</ele>
  <time>2026-08-27T17:17:23Z</time>
  <course>65.99</course>
  <speed>0.8</speed>
  <fix>3d</fix>
</trkpt>
<trkpt lat="40.0714298" lon="-105.229628">
  <ele>1583.0</ele>
  <time>2026-08-27T17:17:23Z</time>
  <course>249.81</course>
  <speed>0.15652475842498528</speed>
  <fix>3d</fix>
</trkpt>
<trkpt lat="40.0714298" lon="-105.229628">
  <ele>1583.0</ele>
  <time>2026-08-27T17:17:23Z</time>
  <course>65.99</course>
  <speed>0.8</speed>
  <fix>3d</fix>
</trkpt>
<trkpt lat="40.0714303" lon="-105.2296263">
  <ele>1583.0</ele>
  <time>2026-08-27T17:17:23Z</time>
  <course>249.8</course>
  <speed>0.15652475842498528</speed>
  <fix>3d</fix>
</trkpt>
<trkpt lat="40.0714303" lon="-105.2296263">
  <ele>1583.0</ele>
  <time>2026-08-27T17:17:23Z</time>
  <course>65.99</course>
  <speed>0.8</speed>
  <fix>3d</fix>
</trkpt>
<trkpt lat="40.0714303" lon="-105.2296263">
  <ele>1583.0</ele>
  <time>2026-08-27T17:17:23Z</time>
  <course>249.78</course>
  <speed>0.15652475842498528</speed>
  <fix>3d</fix>
</trkpt>
<trkpt lat="40.0714303" lon="-105.2296263">
  <ele>1583.0</ele>
  <time>2026-08-27T17:17:23Z</time>
  <course>65.99</course>
  <speed>0.8</speed>
  <fix>3d</fix>
</trkpt>
<trkpt lat="40.071431" lon="-105.2296245">
  <ele>1583.0</ele>
  <time>2026-08-27T17:17:23Z</time>
  <course>249.77</course>
  <speed>0.15652475842498528</speed>
  <fix>3d</fix>
</trkpt>
<trkpt lat="40.071431" lon="-105.2296245">
  <ele>1583.0</ele>
  <time>2026-08-27T17:17:23Z</time>
  <course>65.99</course>
  <speed>0.8</speed>
  <fix>3d</fix>
</trkpt>
<trkpt lat="40.071431" lon="-105.2296245">
  <ele>1583.0</ele>
  <time>2026-08-27T17:17:23Z</time>
  <course>249.76</course>
  <speed>0.15652475842498528</speed>
  <fix>3d</fix>
</trkpt>
<trkpt lat="40.071431" lon="-105.2296245">
  <ele>1583.0</ele>
  <time>2026-08-27T17:17:23Z</time>
  <course>65.99</course>
  <speed>0.8</speed>
  <fix>3d</fix>
</trkpt>
<trkpt lat="40.071431" lon="-105.2296245">
  <ele>1583.0</ele>
  <time>2026-08-27T17:17:23Z</time>
  <course>249.75</course>
  <speed>0.15652475842498528</speed>
  <fix>3d</fix>
</trkpt>
<trkpt lat="40.0714315" lon="-105.2296228">
  <ele>1583.0</ele>
  <time>2026-08-27T17:17:23Z</time>
  <course>65.99</course>
  <speed>0.8</speed>
  <fix>3d</fix>
</trkpt>
<trkpt lat="40.0714315" lon="-105.2296228">
  <ele>1583.0</ele>
  <time>2026-08-27T17:17:23Z</time>
  <course>249.74</course>
  <speed>0.147648230602334</speed>
  <fix>3d</fix>
</trkpt>
<trkpt lat="40.0714315" lon="-105.2296228">
  <ele>1583.0</ele>
  <time>2026-08-27T17:17:23Z</time>
  <course>65.99</course>
  <speed>0.8</speed>
  <fix>3d</fix>
</trkpt>
<trkpt lat="40.0714315" lon="-105.2296228">
  <ele>1583.0</ele>
  <time>2026-08-27T17:17:23Z</time>
  <course>249.73</course>
  <speed>0.147648230602334</speed>
  <fix>3d</fix>
</trkpt>
<trkpt lat="40.0714321" lon="-105.2296211">
  <ele>1583.0</ele>
  <time>2026-08-27T17:17:23Z</time>
  <course>65.99</course>
  <speed>0.8</speed>
  <fix>3d</fix>
</trkpt>
<trkpt lat="40.0714321" lon="-105.2296211">
  <ele>1583.0</ele>
  <time>2026-08-27T17:17:23Z</time>
  <course>249.72</course>
  <speed>0.14317821063276354</speed>
  <fix>3d</fix>
</trkpt>
<trkpt lat="40.0714321" lon="-105.2296211">
  <ele>1583.0</ele>
  <time>2026-08-27T17:17:23Z</time>
  <course>65.99</course>
  <speed>0.8</speed>
  <fix>3d</fix>
</trkpt>
<trkpt lat="40.0714321" lon="-105.2296211">
  <ele>1583.0</ele>
  <time>2026-08-27T17:17:23Z</time>
  <course>249.71</course>
  <speed>0.14317821063276354</speed>
  <fix>3d</fix>
</trkpt>
<trkpt lat="40.0714327" lon="-105.2296194">
  <ele>1583.0</ele>
  <time>2026-08-27T17:17:23Z</time>
  <course>65.99</course>
  <speed>0.8</speed>
  <fix>3d</fix>
</trkpt>
<trkpt lat="40.0714327" lon="-105.2296194">
  <ele>1583.0</ele>
  <time>2026-08-27T17:17:23Z</time>
  <course>249.7</course>
  <speed>0.14317821063276354</speed>
  <fix>3d</fix>
</trkpt>
<trkpt lat="40.0714327" lon="-105.2296194">
  <ele>1583.0</ele>
  <time>2026-08-27T17:17:23Z</time>
  <course>65.99</course>
  <speed>0.8</speed>
  <fix>3d</fix>
</trkpt>
<trkpt lat="40.0714327" lon="-105.2296194">
  <ele>1583.0</ele>
  <time>2026-08-27T17:17:23Z</time>
  <course>249.69</course>
  <speed>0.14317821063276354</speed>
  <fix>3d</fix>
</trkpt>
<trkpt lat="40.0714332" lon="-105.2296177">
  <ele>1583.0</ele>
  <time>2026-08-27T17:17:23Z</time>
  <course>65.99</course>
  <speed>0.8</speed>
  <fix>3d</fix>
</trkpt>
<trkpt lat="40.0714332" lon="-105.2296177">
  <ele>1583.0</ele>
  <time>2026-08-27T17:17:23Z</time>
  <course>249.68</course>
  <speed>0.14317821063276354</speed>
  <fix>3d</fix>
</trkpt>
<trkpt lat="40.0714332" lon="-105.2296177">
  <ele>1583.0</ele>
  <time>2026-08-27T17:17:23Z</time>
  <course>65.99</course>
  <speed>0.8</speed>
  <fix>3d</fix>
</trkpt>
<trkpt lat="40.0714332" lon="-105.2296177">
  <ele>1583.0</ele>
  <time>2026-08-27T17:17:23Z</time>
  <course>249.67</course>
  <speed>0.14317821063276354</speed>
  <fix>3d</fix>
</trkpt>
<trkpt lat="40.0714339" lon="-105.2296159">
  <ele>1583.0</ele>
  <time>2026-08-27T17:17:23Z</time>
  <course>65.99</course>
  <speed>0.8</speed>
  <fix>3d</fix>
</trkpt>
<trkpt lat="40.0714339" lon="-105.2296159">
  <ele>1583.0</ele>
  <time>2026-08-27T17:17:23Z</time>
  <course>249.66</course>
  <speed>0.14317821063276354</speed>
  <fix>3d</fix>
</trkpt>
<trkpt lat="40.0714339" lon="-105.2296159">
  <ele>1583.0</ele>
  <time>2026-08-27T17:17:23Z</time>
  <course>65.99</course>
  <speed>0.8</speed>
  <fix>3d</fix>
</trkpt>
<trkpt lat="40.0714339" lon="-105.2296159">
  <ele>1583.0</ele>
  <time>2026-08-27T17:17:23Z</time>
  <course>249.65</course>
  <speed>0.14317821063276354</speed>
  <fix>3d</fix>
</trkpt>
<trkpt lat="40.0714344" lon="-105.2296142">
  <ele>1583.0</ele>
  <time>2026-08-27T17:17:23Z</time>
  <course>65.99</course>
  <speed>0.8</speed>
  <fix>3d</fix>
</trkpt>
<trkpt lat="40.0714344" lon="-105.2296142">
  <ele>1583.0</ele>
  <time>2026-08-27T17:17:23Z</time>
  <course>249.64</course>
  <speed>0.1341640786499874</speed>
  <fix>3d</fix>
</trkpt>
<trkpt lat="40.0714344" lon="-105.2296142">
  <ele>1583.0</ele>
  <time>2026-08-27T17:17:23Z</time>
  <course>65.99</course>
  <speed>0.8</speed>
  <fix>3d</fix>
</trkpt>
<trkpt lat="40.0714344" lon="-105.2296142">
  <ele>1583.0</ele>
  <time>2026-08-27T17:17:23Z</time>
  <course>249.62</course>
  <speed>0.1341640786499874</speed>
  <fix>3d</fix>
</trkpt>
<trkpt lat="40.0714351" lon="-105.2296125">
  <ele>1583.0</ele>
  <time>2026-08-27T17:17:23Z</time>
  <course>65.99</course>
  <speed>0.8</speed>
  <fix>3d</fix>
</trkpt>
<trkpt lat="40.0714351" lon="-105.2296125">
  <ele>1583.0</ele>
  <time>2026-08-27T17:17:23Z</time>
  <course>249.61</course>
  <speed>0.1341640786499874</speed>
  <fix>3d</fix>
</trkpt>
<trkpt lat="40.0714351" lon="-105.2296125">
  <ele>1583.0</ele>
  <time>2026-08-27T17:17:23Z</time>
  <course>65.99</course>
  <speed>0.8</speed>
  <fix>3d</fix>
</trkpt>
<trkpt lat="40.0714351" lon="-105.2296125">
  <ele>1583.0</ele>
  <time>2026-08-27T17:17:23Z</time>
  <course>249.6</course>
  <speed>0.1341640786499874</speed>
  <fix>3d</fix>
</trkpt>
<trkpt lat="40.0714356" lon="-105.2296108">
  <ele>1583.0</ele>
  <time>2026-08-27T17:17:23Z</time>
  <course>65.99</course>
  <speed>0.8</speed>
  <fix>3d</fix>
</trkpt>
<trkpt lat="40.0714356" lon="-105.2296108">
  <ele>1583.0</ele>
  <time>2026-08-27T17:17:23Z</time>
  <course>249.59</course>
  <speed>0.1341640786499874</speed>
  <fix>3d</fix>
</trkpt>
<trkpt lat="40.0714356" lon="-105.2296108">
  <ele>1583.0</ele>
  <time>2026-08-27T17:17:23Z</time>
  <course>65.99</course>
  <speed>0.8</speed>
  <fix>3d</fix>
</trkpt>
<trkpt lat="40.0714362" lon="-105.2296091">
  <ele>1583.0</ele>
  <time>2026-08-27T17:17:23Z</time>
  <course>249.58</course>
  <speed>0.1341640786499874</speed>
  <fix>3d</fix>
</trkpt>
<trkpt lat="40.0714362" lon="-105.2296091">
  <ele>1583.0</ele>
  <time>2026-08-27T17:17:23Z</time>
  <course>65.99</course>
  <speed>0.8</speed>
  <fix>3d</fix>
</trkpt>
<trkpt lat="40.0714362" lon="-105.2296091">
  <ele>1583.0</ele>
  <time>2026-08-27T17:17:23Z</time>
  <course>249.57</course>
  <speed>0.1341640786499874</speed>
  <fix>3d</fix>
</trkpt>
<trkpt lat="40.0714362" lon="-105.2296091">
  <ele>1583.0</ele>
  <time>2026-08-27T17:17:23Z</time>
  <course>65.99</course>
  <speed>0.8</speed>
  <fix>3d</fix>
</trkpt>
<trkpt lat="40.0714368" lon="-105.2296073">
  <ele>1583.0</ele>
  <time>2026-08-27T17:17:23Z</time>
  <course>249.56</course>
  <speed>0.1341640786499874</speed>
  <fix>3d</fix>
</trkpt>
<trkpt lat="40.0714368" lon="-105.2296073">
  <ele>1583.0</ele>
  <time>2026-08-27T17:17:23Z</time>
  <course>65.99</course>
  <speed>0.8</speed>
  <fix>3d</fix>
</trkpt>
<trkpt lat="40.0714368" lon="-105.2296073">
  <ele>1583.0</ele>
  <time>2026-08-27T17:17:23Z</time>
  <course>249.55</course>
  <speed>0.1341640786499874</speed>
  <fix>3d</fix>
</trkpt>
<trkpt lat="40.0714368" lon="-105.2296073">
  <ele>1583.0</ele>
  <time>2026-08-27T17:17:23Z</time>
  <course>65.99</course>
  <speed>0.8</speed>
  <fix>3d</fix>
</trkpt>
<trkpt lat="40.0714368" lon="-105.2296073">
  <ele>1583.0</ele>
  <time>2026-08-27T17:17:23Z</time>
  <course>249.53</course>
  <speed>0.12529964086141668</speed>
  <fix>3d</fix>
</trkpt>
<trkpt lat="40.0714373" lon="-105.2296056">
  <ele>1583.0</ele>
  <time>2026-08-27T17:17:23Z</time>
  <course>65.99</course>
  <speed>0.8</speed>
  <fix>3d</fix>
</trkpt>
<trkpt lat="40.0714373" lon="-105.2296056">
  <ele>1583.0</ele>
  <time>2026-08-27T17:17:23Z</time>
  <course>249.52</course>
  <speed>0.12529964086141668</speed>
  <fix>3d</fix>
</trkpt>
<trkpt lat="40.0714373" lon="-105.2296056">
  <ele>1583.0</ele>
  <time>2026-08-27T17:17:23Z</time>
  <course>65.99</course>
  <speed>0.8</speed>
  <fix>3d</fix>
</trkpt>
<trkpt lat="40.0714373" lon="-105.2296056">
  <ele>1583.0</ele>
  <time>2026-08-27T17:17:23Z</time>
  <course>249.51</course>
  <speed>0.12529964086141668</speed>
  <fix>3d</fix>
</trkpt>
<trkpt lat="40.071438" lon="-105.2296039">
  <ele>1583.0</ele>
  <time>2026-08-27T17:17:23Z</time>
  <course>65.99</course>
  <speed>0.8</speed>
  <fix>3d</fix>
</trkpt>
<trkpt lat="40.071438" lon="-105.2296039">
  <ele>1583.0</ele>
  <time>2026-08-27T17:17:23Z</time>
  <course>249.5</course>
  <speed>0.12529964086141668</speed>
  <fix>3d</fix>
</trkpt>
<trkpt lat="40.071438" lon="-105.2296039">
  <ele>1583.0</ele>
  <time>2026-08-27T17:17:23Z</time>
  <course>65.99</course>
  <speed>0.8</speed>
  <fix>3d</fix>
</trkpt>
<trkpt lat="40.071438" lon="-105.2296039">
  <ele>1583.0</ele>
  <time>2026-08-27T17:17:23Z</time>
  <course>249.49</course>
  <speed>0.12529964086141668</speed>
  <fix>3d</fix>
</trkpt>
<trkpt lat="40.0714385" lon="-105.2296022">
  <ele>1583.0</ele>
  <time>2026-08-27T17:17:23Z</time>
  <course>65.99</course>
  <speed>0.8</speed>
  <fix>3d</fix>
</trkpt>
<trkpt lat="40.0714385" lon="-105.2296022">
  <ele>1583.0</ele>
  <time>2026-08-27T17:17:23Z</time>
  <course>249.48</course>
  <speed>0.12529964086141668</speed>
  <fix>3d</fix>
</trkpt>
<trkpt lat="40.0714385" lon="-105.2296022">
  <ele>1583.0</ele>
  <time>2026-08-27T17:17:23Z</time>
  <course>65.99</course>
  <speed>0.8</speed>
  <fix>3d</fix>
</trkpt>
<trkpt lat="40.0714385" lon="-105.2296022">
  <ele>1583.0</ele>
  <time>2026-08-27T17:17:23Z</time>
  <course>249.47</course>
  <speed>0.12083045973594572</speed>
  <fix>3d</fix>
</trkpt>
<trkpt lat="40.0714392" lon="-105.2296005">
  <ele>1583.0</ele>
  <time>2026-08-27T17:17:23Z</time>
  <course>65.99</course>
  <speed>0.8</speed>
  <fix>3d</fix>
</trkpt>
<trkpt lat="40.0714392" lon="-105.2296005">
  <ele>1583.0</ele>
  <time>2026-08-27T17:17:23Z</time>
  <course>249.46</course>
  <speed>0.12083045973594572</speed>
  <fix>3d</fix>
</trkpt>
<trkpt lat="40.0714392" lon="-105.2296005">
  <ele>1583.0</ele>
  <time>2026-08-27T17:17:23Z</time>
  <course>65.99</course>
  <speed>0.8</speed>
  <fix>3d</fix>
</trkpt>
<trkpt lat="40.0714392" lon="-105.2296005">
  <ele>1583.0</ele>
  <time>2026-08-27T17:17:23Z</time>
  <course>249.45</course>
  <speed>0.12083045973594572</speed>
  <fix>3d</fix>
</trkpt>
<trkpt lat="40.0714397" lon="-105.2295987">
  <ele>1583.0</ele>
  <time>2026-08-27T17:17:23Z</time>
  <course>65.99</course>
  <speed>0.8</speed>
  <fix>3d</fix>
</trkpt>
<trkpt lat="40.0714397" lon="-105.2295987">
  <ele>1583.0</ele>
  <time>2026-08-27T17:17:23Z</time>
  <course>249.43</course>
  <speed>0.1118033988749895</speed>
  <fix>3d</fix>
</trkpt>
<trkpt lat="40.0714397" lon="-105.2295987">
  <ele>1583.0</ele>
  <time>2026-08-27T17:17:23Z</time>
  <course>65.99</course>
  <speed>0.8</speed>
  <fix>3d</fix>
</trkpt>
<trkpt lat="40.0714397" lon="-105.2295987">
  <ele>1583.0</ele>
  <time>2026-08-27T17:17:23Z</time>
  <course>249.42</course>
  <speed>0.1118033988749895</speed>
  <fix>3d</fix>
</trkpt>
<trkpt lat="40.0714403" lon="-105.229597">
  <ele>1583.0</ele>
  <time>2026-08-27T17:17:23Z</time>
  <course>65.99</course>
  <speed>0.8</speed>
  <fix>3d</fix>
</trkpt>
<trkpt lat="40.0714403" lon="-105.229597">
  <ele>1583.0</ele>
  <time>2026-08-27T17:17:23Z</time>
  <course>249.41</course>
  <speed>0.1118033988749895</speed>
  <fix>3d</fix>
</trkpt>
<trkpt lat="40.0714403" lon="-105.229597">
  <ele>1583.0</ele>
  <time>2026-08-27T17:17:23Z</time>
  <course>65.99</course>
  <speed>0.8</speed>
  <fix>3d</fix>
</trkpt>
<trkpt lat="40.0714403" lon="-105.229597">
  <ele>1583.0</ele>
  <time>2026-08-27T17:17:23Z</time>
  <course>249.4</course>
  <speed>0.1118033988749895</speed>
  <fix>3d</fix>
</trkpt>
<trkpt lat="40.0714409" lon="-105.2295953">
  <ele>1583.0</ele>
  <time>2026-08-27T17:17:23Z</time>
  <course>65.99</course>
  <speed>0.8</speed>
  <fix>3d</fix>
</trkpt>
<trkpt lat="40.0714409" lon="-105.2295953">
  <ele>1583.0</ele>
  <time>2026-08-27T17:17:23Z</time>
  <course>249.39</course>
  <speed>0.1118033988749895</speed>
  <fix>3d</fix>
</trkpt>
<trkpt lat="40.0714409" lon="-105.2295953">
  <ele>1583.0</ele>
  <time>2026-08-27T17:17:23Z</time>
  <course>65.99</course>
  <speed>0.8</speed>
  <fix>3d</fix>
</trkpt>
<trkpt lat="40.0714409" lon="-105.2295953">
  <ele>1583.0</ele>
  <time>2026-08-27T17:17:23Z</time>
  <course>249.38</course>
  <speed>0.1118033988749895</speed>
  <fix>3d</fix>
</trkpt>
<trkpt lat="40.0714414" lon="-105.2295936">
  <ele>1583.0</ele>
  <time>2026-08-27T17:17:23Z</time>
  <course>65.99</course>
  <speed>0.8</speed>
  <fix>3d</fix>
</trkpt>
<trkpt lat="40.0714414" lon="-105.2295936">
  <ele>1583.0</ele>
  <time>2026-08-27T17:17:23Z</time>
  <course>249.37</course>
  <speed>0.1118033988749895</speed>
  <fix>3d</fix>
</trkpt>
<trkpt lat="40.0714414" lon="-105.2295936">
  <ele>1583.0</ele>
  <time>2026-08-27T17:17:23Z</time>
  <course>65.99</course>
  <speed>0.8</speed>
  <fix>3d</fix>
</trkpt>
<trkpt lat="40.0714421" lon="-105.2295919">
  <ele>1583.0</ele>
  <time>2026-08-27T17:17:23Z</time>
  <course>249.35</course>
  <speed>0.1118033988749895</speed>
  <fix>3d</fix>
</trkpt>
<trkpt lat="40.0714421" lon="-105.2295919">
  <ele>1583.0</ele>
  <time>2026-08-27T17:17:23Z</time>
  <course>65.99</course>
  <speed>0.8</speed>
  <fix>3d</fix>
</trkpt>
<trkpt lat="40.0714421" lon="-105.2295919">
  <ele>1583.0</ele>
  <time>2026-08-27T17:17:23Z</time>
  <course>249.34</course>
  <speed>0.1118033988749895</speed>
  <fix>3d</fix>
</trkpt>
<trkpt lat="40.0714421" lon="-105.2295919">
  <ele>1583.0</ele>
  <time>2026-08-27T17:17:23Z</time>
  <course>65.99</course>
  <speed>0.8</speed>
  <fix>3d</fix>
</trkpt>
<trkpt lat="40.0714426" lon="-105.2295901">
  <ele>1583.0</ele>
  <time>2026-08-27T17:17:23Z</time>
  <course>249.33</course>
  <speed>0.1118033988749895</speed>
  <fix>3d</fix>
</trkpt>
<trkpt lat="40.0714426" lon="-105.2295901">
  <ele>1583.0</ele>
  <time>2026-08-27T17:17:23Z</time>
  <course>65.99</course>
  <speed>0.8</speed>
  <fix>3d</fix>
</trkpt>
<trkpt lat="40.0714426" lon="-105.2295901">
  <ele>1583.0</ele>
  <time>2026-08-27T17:17:23Z</time>
  <course>249.32</course>
  <speed>0.10295630140987001</speed>
  <fix>3d</fix>
</trkpt>
<trkpt lat="40.0714426" lon="-105.2295901">
  <ele>1583.0</ele>
  <time>2026-08-27T17:17:23Z</time>
  <course>65.99</course>
  <speed>0.8</speed>
  <fix>3d</fix>
</trkpt>
<trkpt lat="40.0714426" lon="-105.2295901">
  <ele>1583.0</ele>
  <time>2026-08-27T17:17:23Z</time>
  <course>249.31</course>
  <speed>0.10295630140987001</speed>
  <fix>3d</fix>
</trkpt>
<trkpt lat="40.0714433" lon="-105.2295884">
  <ele>1583.0</ele>
  <time>2026-08-27T17:17:23Z</time>
  <course>65.99</course>
  <speed>0.8</speed>
  <fix>3d</fix>
</trkpt>
<trkpt lat="40.0714433" lon="-105.2295884">
  <ele>1583.0</ele>
  <time>2026-08-27T17:17:23Z</time>
  <course>249.3</course>
  <speed>0.10295630140987001</speed>
  <fix>3d</fix>
</trkpt>
<trkpt lat="40.0714433" lon="-105.2295884">
  <ele>1583.0</ele>
  <time>2026-08-27T17:17:23Z</time>
  <course>65.99</course>
  <speed>0.8</speed>
  <fix>3d</fix>
</trkpt>
<trkpt lat="40.0714433" lon="-105.2295884">
  <ele>1583.0</ele>
  <time>2026-08-27T17:17:23Z</time>
  <course>249.29</course>
  <speed>0.10295630140987001</speed>
  <fix>3d</fix>
</trkpt>
<trkpt lat="40.0714438" lon="-105.2295867">
  <ele>1583.0</ele>
  <time>2026-08-27T17:17:23Z</time>
  <course>65.99</course>
  <speed>0.8</speed>
  <fix>3d</fix>
</trkpt>
<trkpt lat="40.0714438" lon="-105.2295867">
  <ele>1583.0</ele>
  <time>2026-08-27T17:17:23Z</time>
  <course>249.28</course>
  <speed>0.10295630140987001</speed>
  <fix>3d</fix>
</trkpt>
<trkpt lat="40.0714438" lon="-105.2295867">
  <ele>1583.0</ele>
  <time>2026-08-27T17:17:23Z</time>
  <course>65.99</course>
  <speed>0.8</speed>
  <fix>3d</fix>
</trkpt>
<trkpt lat="40.0714438" lon="-105.2295867">
  <ele>1583.0</ele>
  <time>2026-08-27T17:17:23Z</time>
  <course>249.27</course>
  <speed>0.10295630140987001</speed>
  <fix>3d</fix>
</trkpt>
<trkpt lat="40.0714445" lon="-105.229585">
  <ele>1583.0</ele>
  <time>2026-08-27T17:17:23Z</time>
  <course>65.99</course>
  <speed>0.8</speed>
  <fix>3d</fix>
</trkpt>
<trkpt lat="40.0714445" lon="-105.229585">
  <ele>1583.0</ele>
  <time>2026-08-27T17:17:23Z</time>
  <course>249.25</course>
  <speed>0.10295630140987001</speed>
  <fix>3d</fix>
</trkpt>
<trkpt lat="40.0714445" lon="-105.229585">
  <ele>1583.0</ele>
  <time>2026-08-27T17:17:23Z</time>
  <course>65.99</course>
  <speed>0.8</speed>
  <fix>3d</fix>
</trkpt>
<trkpt lat="40.0714445" lon="-105.229585">
  <ele>1583.0</ele>
  <time>2026-08-27T17:17:23Z</time>
  <course>249.24</course>
  <speed>0.10295630140987001</speed>
  <fix>3d</fix>
</trkpt>
<trkpt lat="40.071445" lon="-105.2295833">
  <ele>1583.0</ele>
  <time>2026-08-27T17:17:23Z</time>
  <course>65.99</course>
  <speed>0.8</speed>
  <fix>3d</fix>
</trkpt>
<trkpt lat="40.071445" lon="-105.2295833">
  <ele>1583.0</ele>
  <time>2026-08-27T17:17:23Z</time>
  <course>249.23</course>
  <speed>0.10295630140987001</speed>
  <fix>3d</fix>
</trkpt>
<trkpt lat="40.071445" lon="-105.2295833">
  <ele>1583.0</ele>
  <time>2026-08-27T17:17:23Z</time>
  <course>65.99</course>
  <speed>0.8</speed>
  <fix>3d</fix>
</trkpt>
<trkpt lat="40.071445" lon="-105.2295833">
  <ele>1583.0</ele>
  <time>2026-08-27T17:17:23Z</time>
  <course>249.22</course>
  <speed>0.10295630140987001</speed>
  <fix>3d</fix>
</trkpt>
<trkpt lat="40.0714456" lon="-105.2295815">
  <ele>1583.0</ele>
  <time>2026-08-27T17:17:23Z</time>
  <course>65.99</course>
  <speed>0.8</speed>
  <fix>3d</fix>
</trkpt>
<trkpt lat="40.0714456" lon="-105.2295815">
  <ele>1583.0</ele>
  <time>2026-08-27T17:17:23Z</time>
  <course>249.21</course>
  <speed>0.10295630140987001</speed>
  <fix>3d</fix>
</trkpt>
<trkpt lat="40.0714456" lon="-105.2295815">
  <ele>1583.0</ele>
  <time>2026-08-27T17:17:23Z</time>
  <course>65.99</course>
  <speed>0.8</speed>
  <fix>3d</fix>
</trkpt>
<trkpt lat="40.0714456" lon="-105.2295815">
  <ele>1583.0</ele>
  <time>2026-08-27T17:17:23Z</time>
  <course>249.2</course>
  <speed>0.10295630140987001</speed>
  <fix>3d</fix>
</trkpt>
<trkpt lat="40.0714461" lon="-105.2295798">
  <ele>1583.0</ele>
  <time>2026-08-27T17:17:23Z</time>
  <course>65.99</course>
  <speed>0.8</speed>
  <fix>3d</fix>
</trkpt>
<trkpt lat="40.0714461" lon="-105.2295798">
  <ele>1583.0</ele>
  <time>2026-08-27T17:17:23Z</time>
  <course>249.19</course>
  <speed>0.09433981132056603</speed>
  <fix>3d</fix>
</trkpt>
<trkpt lat="40.0714461" lon="-105.2295798">
  <ele>1583.0</ele>
  <time>2026-08-27T17:17:23Z</time>
  <course>65.99</course>
  <speed>0.8</speed>
  <fix>3d</fix>
</trkpt>
<trkpt lat="40.0714461" lon="-105.2295798">
  <ele>1583.0</ele>
  <time>2026-08-27T17:17:23Z</time>
  <course>249.18</course>
  <speed>0.09433981132056603</speed>
  <fix>3d</fix>
</trkpt>
<trkpt lat="40.0714468" lon="-105.2295781">
  <ele>1583.0</ele>
  <time>2026-08-27T17:17:23Z</time>
  <course>65.99</course>
  <speed>0.8</speed>
  <fix>3d</fix>
</trkpt>
<trkpt lat="40.0714468" lon="-105.2295781">
  <ele>1583.0</ele>
  <time>2026-08-27T17:17:23Z</time>
  <course>249.17</course>
  <speed>0.09433981132056603</speed>
  <fix>3d</fix>
</trkpt>
<trkpt lat="40.0714468" lon="-105.2295781">
  <ele>1583.0</ele>
  <time>2026-08-27T17:17:23Z</time>
  <course>65.99</course>
  <speed>0.8</speed>
  <fix>3d</fix>
</trkpt>
<trkpt lat="40.0714468" lon="-105.2295781">
  <ele>1583.0</ele>
  <time>2026-08-27T17:17:23Z</time>
  <course>249.16</course>
  <speed>0.09433981132056603</speed>
  <fix>3d</fix>
</trkpt>
<trkpt lat="40.0714473" lon="-105.2295764">
  <ele>1583.0</ele>
  <time>2026-08-27T17:17:23Z</time>
  <course>65.99</course>
  <speed>0.8</speed>
  <fix>3d</fix>
</trkpt>
<trkpt lat="40.0714473" lon="-105.2295764">
  <ele>1583.0</ele>
  <time>2026-08-27T17:17:23Z</time>
  <course>249.15</course>
  <speed>0.09433981132056603</speed>
  <fix>3d</fix>
</trkpt>
<trkpt lat="40.0714473" lon="-105.2295764">
  <ele>1583.0</ele>
  <time>2026-08-27T17:17:23Z</time>
  <course>65.99</course>
  <speed>0.8</speed>
  <fix>3d</fix>
</trkpt>
<trkpt lat="40.0714473" lon="-105.2295764">
  <ele>1583.0</ele>
  <time>2026-08-27T17:17:23Z</time>
  <course>249.14</course>
  <speed>0.09433981132056603</speed>
  <fix>3d</fix>
</trkpt>
<trkpt lat="40.071448" lon="-105.2295747">
  <ele>1583.0</ele>
  <time>2026-08-27T17:17:23Z</time>
  <course>65.99</course>
  <speed>0.8</speed>
  <fix>3d</fix>
</trkpt>
<trkpt lat="40.071448" lon="-105.2295747">
  <ele>1583.0</ele>
  <time>2026-08-27T17:17:23Z</time>
  <course>249.13</course>
  <speed>0.09433981132056603</speed>
  <fix>3d</fix>
</trkpt>
<trkpt lat="40.071448" lon="-105.2295747">
  <ele>1583.0</ele>
  <time>2026-08-27T17:17:23Z</time>
  <course>65.99</course>
  <speed>0.8</speed>
  <fix>3d</fix>
</trkpt>
<trkpt lat="40.0714485" lon="-105.2295729">
  <ele>1583.0</ele>
  <time>2026-08-27T17:17:23Z</time>
  <course>249.11</course>
  <speed>0.09433981132056603</speed>
  <fix>3d</fix>
</trkpt>
<trkpt lat="40.0714485" lon="-105.2295729">
  <ele>1583.0</ele>
  <time>2026-08-27T17:17:23Z</time>
  <course>65.99</course>
  <speed>0.8</speed>
  <fix>3d</fix>
</trkpt>
<trkpt lat="40.0714485" lon="-105.2295729">
  <ele>1583.0</ele>
  <time>2026-08-27T17:17:23Z</time>
  <course>249.1</course>
  <speed>0.09433981132056603</speed>
  <fix>3d</fix>
</trkpt>
<trkpt lat="40.0714485" lon="-105.2295729">
  <ele>1583.0</ele>
  <time>2026-08-27T17:17:23Z</time>
  <course>65.99</course>
  <speed>0.8</speed>
  <fix>3d</fix>
</trkpt>
<trkpt lat="40.0714491" lon="-105.2295712">
  <ele>1583.0</ele>
  <time>2026-08-27T17:17:23Z</time>
  <course>249.09</course>
  <speed>0.08944271909999159</speed>
  <fix>3d</fix>
</trkpt>
<trkpt lat="40.0714491" lon="-105.2295712">
  <ele>1583.0</ele>
  <time>2026-08-27T17:17:23Z</time>
  <course>65.99</course>
  <speed>0.8</speed>
  <fix>3d</fix>
</trkpt>
<trkpt lat="40.0714491" lon="-105.2295712">
  <ele>1583.0</ele>
  <time>2026-08-27T17:17:23Z</time>
  <course>249.08</course>
  <speed>0.08944271909999159</speed>
  <fix>3d</fix>
</trkpt>
<trkpt lat="40.0714491" lon="-105.2295712">
  <ele>1583.0</ele>
  <time>2026-08-27T17:17:23Z</time>
  <course>65.99</course>
  <speed>0.8</speed>
  <fix>3d</fix>
</trkpt>
<trkpt lat="40.0714491" lon="-105.2295712">
  <ele>1583.0</ele>
  <time>2026-08-27T17:17:23Z</time>
  <course>249.07</course>
  <speed>0.08944271909999159</speed>
  <fix>3d</fix>
</trkpt>
<trkpt lat="40.0714497" lon="-105.2295695">
  <ele>1583.0</ele>
  <time>2026-08-27T17:17:23Z</time>
  <course>65.99</course>
  <speed>0.8</speed>
  <fix>3d</fix>
</trkpt>
<trkpt lat="40.0714497" lon="-105.2295695">
  <ele>1583.0</ele>
  <time>2026-08-27T17:17:23Z</time>
  <course>249.06</course>
  <speed>0.08944271909999159</speed>
  <fix>3d</fix>
</trkpt>
<trkpt lat="40.0714497" lon="-105.2295695">
  <ele>1583.0</ele>
  <time>2026-08-27T17:17:23Z</time>
  <course>65.99</course>
  <speed>0.8</speed>
  <fix>3d</fix>
</trkpt>
<trkpt lat="40.0714497" lon="-105.2295695">
  <ele>1583.0</ele>
  <time>2026-08-27T17:17:23Z</time>
  <course>249.05</course>
  <speed>0.08062257748298549</speed>
  <fix>3d</fix>
</trkpt>
<trkpt lat="40.0714502" lon="-105.2295678">
  <ele>1583.0</ele>
  <time>2026-08-27T17:17:23Z</time>
  <course>65.99</course>
  <speed>0.8</speed>
  <fix>3d</fix>
</trkpt>
<trkpt lat="40.0714502" lon="-105.2295678">
  <ele>1583.0</ele>
  <time>2026-08-27T17:17:23Z</time>
  <course>249.04</course>
  <speed>0.08062257748298549</speed>
  <fix>3d</fix>
</trkpt>
<trkpt lat="40.0714502" lon="-105.2295678">
  <ele>1583.0</ele>
  <time>2026-08-27T17:17:23Z</time>
  <course>65.99</course>
  <speed>0.8</speed>
  <fix>3d</fix>
</trkpt>
<trkpt lat="40.0714502" lon="-105.2295678">
  <ele>1583.0</ele>
  <time>2026-08-27T17:17:23Z</time>
  <course>249.03</course>
  <speed>0.08062257748298549</speed>
  <fix>3d</fix>
</trkpt>
<trkpt lat="40.0714509" lon="-105.2295661">
  <ele>1583.0</ele>
  <time>2026-08-27T17:17:23Z</time>
  <course>65.99</course>
  <speed>0.8</speed>
  <fix>3d</fix>
</trkpt>
<trkpt lat="40.0714509" lon="-105.2295661">
  <ele>1583.0</ele>
  <time>2026-08-27T17:17:23Z</time>
  <course>249.02</course>
  <speed>0.08062257748298549</speed>
  <fix>3d</fix>
</trkpt>
<trkpt lat="40.0714509" lon="-105.2295661">
  <ele>1583.0</ele>
  <time>2026-08-27T17:17:23Z</time>
  <course>65.99</course>
  <speed>0.8</speed>
  <fix>3d</fix>
</trkpt>
<trkpt lat="40.0714509" lon="-105.2295661">
  <ele>1583.0</ele>
  <time>2026-08-27T17:17:23Z</time>
  <course>249.01</course>
  <speed>0.08062257748298549</speed>
  <fix>3d</fix>
</trkpt>
<trkpt lat="40.0714514" lon="-105.2295643">
  <ele>1583.0</ele>
  <time>2026-08-27T17:17:23Z</time>
  <course>65.99</course>
  <speed>0.8</speed>
  <fix>3d</fix>
</trkpt>
<trkpt lat="40.0714514" lon="-105.2295643">
  <ele>1583.0</ele>
  <time>2026-08-27T17:17:23Z</time>
  <course>249.0</course>
  <speed>0.08062257748298549</speed>
  <fix>3d</fix>
</trkpt>
<trkpt lat="40.0714514" lon="-105.2295643">
  <ele>1583.0</ele>
  <time>2026-08-27T17:17:23Z</time>
  <course>65.99</course>
  <speed>0.8</speed>
  <fix>3d</fix>
</trkpt>
<trkpt lat="40.0714514" lon="-105.2295643">
  <ele>1583.0</ele>
  <time>2026-08-27T17:17:23Z</time>
  <course>248.99</course>
  <speed>0.08062257748298549</speed>
  <fix>3d</fix>
</trkpt>
<trkpt lat="40.0714521" lon="-105.2295626">
  <ele>1583.0</ele>
  <time>2026-08-27T17:17:23Z</time>
  <course>65.99</course>
  <speed>0.8</speed>
  <fix>3d</fix>
</trkpt>
<trkpt lat="40.0714521" lon="-105.2295626">
  <ele>1583.0</ele>
  <time>2026-08-27T17:17:23Z</time>
  <course>248.98</course>
  <speed>0.08062257748298549</speed>
  <fix>3d</fix>
</trkpt>
<trkpt lat="40.0714521" lon="-105.2295626">
  <ele>1583.0</ele>
  <time>2026-08-27T17:17:23Z</time>
  <course>65.99</course>
  <speed>0.8</speed>
  <fix>3d</fix>
</trkpt>
<trkpt lat="40.0714521" lon="-105.2295626">
  <ele>1583.0</ele>
  <time>2026-08-27T17:17:23Z</time>
  <course>248.97</course>
  <speed>0.08062257748298549</speed>
  <fix>3d</fix>
</trkpt>
<trkpt lat="40.0714526" lon="-105.2295609">
  <ele>1583.0</ele>
  <time>2026-08-27T17:17:23Z</time>
  <course>65.99</course>
  <speed>0.8</speed>
  <fix>3d</fix>
</trkpt>
<trkpt lat="40.0714526" lon="-105.2295609">
  <ele>1583.0</ele>
  <time>2026-08-27T17:17:23Z</time>
  <course>248.96</course>
  <speed>0.08062257748298549</speed>
  <fix>3d</fix>
</trkpt>
<trkpt lat="40.0714526" lon="-105.2295609">
  <ele>1583.0</ele>
  <time>2026-08-27T17:17:23Z</time>
  <course>65.99</course>
  <speed>0.8</speed>
  <fix>3d</fix>
</trkpt>
<trkpt lat="40.0714526" lon="-105.2295609">
  <ele>1583.0</ele>
  <time>2026-08-27T17:17:23Z</time>
  <course>248.95</course>
  <speed>0.08062257748298549</speed>
  <fix>3d</fix>
</trkpt>
<trkpt lat="40.0714532" lon="-105.2295592">
  <ele>1583.0</ele>
  <time>2026-08-27T17:17:23Z</time>
  <course>65.99</course>
  <speed>0.8</speed>
  <fix>3d</fix>
</trkpt>
<trkpt lat="40.0714532" lon="-105.2295592">
  <ele>1583.0</ele>
  <time>2026-08-27T17:17:23Z</time>
  <course>248.94</course>
  <speed>0.08062257748298549</speed>
  <fix>3d</fix>
</trkpt>
<trkpt lat="40.0714532" lon="-105.2295592">
  <ele>1583.0</ele>
  <time>2026-08-27T17:17:23Z</time>
  <course>65.99</course>
  <speed>0.8</speed>
  <fix>3d</fix>
</trkpt>
<trkpt lat="40.0714532" lon="-105.2295592">
  <ele>1583.0</ele>
  <time>2026-08-27T17:17:23Z</time>
  <course>248.93</course>
  <speed>0.08062257748298549</speed>
  <fix>3d</fix>
</trkpt>
<trkpt lat="40.0714538" lon="-105.2295575">
  <ele>1583.0</ele>
  <time>2026-08-27T17:17:23Z</time>
  <course>65.99</course>
  <speed>0.8</speed>
  <fix>3d</fix>
</trkpt>
<trkpt lat="40.0714538" lon="-105.2295575">
  <ele>1583.0</ele>
  <time>2026-08-27T17:17:23Z</time>
  <course>248.92</course>
  <speed>0.08062257748298549</speed>
  <fix>3d</fix>
</trkpt>
<trkpt lat="40.0714538" lon="-105.2295575">
  <ele>1583.0</ele>
  <time>2026-08-27T17:17:23Z</time>
  <course>65.99</course>
  <speed>0.8</speed>
  <fix>3d</fix>
</trkpt>
<trkpt lat="40.0714543" lon="-105.2295557">
  <ele>1583.0</ele>
  <time>2026-08-27T17:17:23Z</time>
  <course>248.91</course>
  <speed>0.08062257748298549</speed>
  <fix>3d</fix>
</trkpt>
<trkpt lat="40.0714543" lon="-105.2295557">
  <ele>1583.0</ele>
  <time>2026-08-27T17:17:23Z</time>
  <course>65.99</course>
  <speed>0.8</speed>
  <fix>3d</fix>
</trkpt>
<trkpt lat="40.0714543" lon="-105.2295557">
  <ele>1583.0</ele>
  <time>2026-08-27T17:17:23Z</time>
  <course>248.9</course>
  <speed>0.08062257748298549</speed>
  <fix>3d</fix>
</trkpt>
<trkpt lat="40.0714543" lon="-105.2295557">
  <ele>1583.0</ele>
  <time>2026-08-27T17:17:23Z</time>
  <course>65.99</course>
  <speed>0.8</speed>
  <fix>3d</fix>
</trkpt>
<trkpt lat="40.071455" lon="-105.229554">
  <ele>1583.0</ele>
  <time>2026-08-27T17:17:23Z</time>
  <course>248.89</course>
  <speed>0.07211102550927978</speed>
  <fix>3d</fix>
</trkpt>
<trkpt lat="40.071455" lon="-105.229554">
  <ele>1583.0</ele>
  <time>2026-08-27T17:17:23Z</time>
  <course>65.99</course>
  <speed>0.8</speed>
  <fix>3d</fix>
</trkpt>
<trkpt lat="40.071455" lon="-105.229554">
  <ele>1583.0</ele>
  <time>2026-08-27T17:17:23Z</time>
  <course>248.88</course>
  <speed>0.07211102550927978</speed>
  <fix>3d</fix>
</trkpt>
<trkpt lat="40.071455" lon="-105.229554">
  <ele>1583.0</ele>
  <time>2026-08-27T17:17:23Z</time>
  <course>65.99</course>
  <speed>0.8</speed>
  <fix>3d</fix>
</trkpt>
<trkpt lat="40.071455" lon="-105.229554">
  <ele>1583.0</ele>
  <time>2026-08-27T17:17:23Z</time>
  <course>248.87</course>
  <speed>0.07211102550927978</speed>
  <fix>3d</fix>
</trkpt>
<trkpt lat="40.0714555" lon="-105.2295523">
  <ele>1583.0</ele>
  <time>2026-08-27T17:17:23Z</time>
  <course>65.99</course>
  <speed>0.8</speed>
  <fix>3d</fix>
</trkpt>
<trkpt lat="40.0714555" lon="-105.2295523">
  <ele>1583.0</ele>
  <time>2026-08-27T17:17:23Z</time>
  <course>248.86</course>
  <speed>0.07211102550927978</speed>
  <fix>3d</fix>
</trkpt>
<trkpt lat="40.0714555" lon="-105.2295523">
  <ele>1583.0</ele>
  <time>2026-08-27T17:17:23Z</time>
  <course>65.99</course>
  <speed>0.8</speed>
  <fix>3d</fix>
</trkpt>
<trkpt lat="40.0714555" lon="-105.2295523">
  <ele>1583.0</ele>
  <time>2026-08-27T17:17:23Z</time>
  <course>248.85</course>
  <speed>0.07211102550927978</speed>
  <fix>3d</fix>
</trkpt>
<trkpt lat="40.0714562" lon="-105.2295506">
  <ele>1583.0</ele>
  <time>2026-08-27T17:17:23Z</time>
  <course>65.99</course>
  <speed>0.8</speed>
  <fix>3d</fix>
</trkpt>
<trkpt lat="40.0714562" lon="-105.2295506">
  <ele>1583.0</ele>
  <time>2026-08-27T17:17:23Z</time>
  <course>248.85</course>
  <speed>0.07211102550927978</speed>
  <fix>3d</fix>
</trkpt>
<trkpt lat="40.0714562" lon="-105.2295506">
  <ele>1583.0</ele>
  <time>2026-08-27T17:17:23Z</time>
  <course>65.99</course>
  <speed>0.8</speed>
  <fix>3d</fix>
</trkpt>
<trkpt lat="40.0714562" lon="-105.2295506">
  <ele>1583.0</ele>
  <time>2026-08-27T17:17:23Z</time>
  <course>248.84</course>
  <speed>0.07211102550927978</speed>
  <fix>3d</fix>
</trkpt>
<trkpt lat="40.0714567" lon="-105.2295489">
  <ele>1583.0</ele>
  <time>2026-08-27T17:17:23Z</time>
  <course>65.99</course>
  <speed>0.8</speed>
  <fix>3d</fix>
</trkpt>
<trkpt lat="40.0714567" lon="-105.2295489">
  <ele>1583.0</ele>
  <time>2026-08-27T17:17:23Z</time>
  <course>248.83</course>
  <speed>0.07211102550927978</speed>
  <fix>3d</fix>
</trkpt>
<trkpt lat="40.0714567" lon="-105.2295489">
  <ele>1583.0</ele>
  <time>2026-08-27T17:17:23Z</time>
  <course>65.99</course>
  <speed>0.8</speed>
  <fix>3d</fix>
</trkpt>
<trkpt lat="40.0714567" lon="-105.2295489">
  <ele>1583.0</ele>
  <time>2026-08-27T17:17:23Z</time>
  <course>248.82</course>
  <speed>0.07211102550927978</speed>
  <fix>3d</fix>
</trkpt>
<trkpt lat="40.0714573" lon="-105.2295471">
  <ele>1583.0</ele>
  <time>2026-08-27T17:17:23Z</time>
  <course>65.99</course>
  <speed>0.8</speed>
  <fix>3d</fix>
</trkpt>
<trkpt lat="40.0714573" lon="-105.2295471">
  <ele>1583.0</ele>
  <time>2026-08-27T17:17:23Z</time>
  <course>248.81</course>
  <speed>0.07211102550927978</speed>
  <fix>3d</fix>
</trkpt>
<trkpt lat="40.0714573" lon="-105.2295471">
  <ele>1583.0</ele>
  <time>2026-08-27T17:17:23Z</time>
  <course>65.99</course>
  <speed>0.8</speed>
  <fix>3d</fix>
</trkpt>
<trkpt lat="40.0714573" lon="-105.2295471">
  <ele>1583.0</ele>
  <time>2026-08-27T17:17:23Z</time>
  <course>248.8</course>
  <speed>0.07211102550927978</speed>
  <fix>3d</fix>
</trkpt>
<trkpt lat="40.0714579" lon="-105.2295454">
  <ele>1583.0</ele>
  <time>2026-08-27T17:17:23Z</time>
  <course>65.99</course>
  <speed>0.8</speed>
  <fix>3d</fix>
</trkpt>
<trkpt lat="40.0714579" lon="-105.2295454">
  <ele>1583.0</ele>
  <time>2026-08-27T17:17:23Z</time>
  <course>248.79</course>
  <speed>0.07211102550927978</speed>
  <fix>3d</fix>
</trkpt>
<trkpt lat="40.0714579" lon="-105.2295454">
  <ele>1583.0</ele>
  <time>2026-08-27T17:17:23Z</time>
  <course>65.99</course>
  <speed>0.8</speed>
  <fix>3d</fix>
</trkpt>
<trkpt lat="40.0714579" lon="-105.2295454">
  <ele>1583.0</ele>
  <time>2026-08-27T17:17:23Z</time>
  <course>248.78</course>
  <speed>0.07211102550927978</speed>
  <fix>3d</fix>
</trkpt>
<trkpt lat="40.0714584" lon="-105.2295437">
  <ele>1583.0</ele>
  <time>2026-08-27T17:17:23Z</time>
  <course>65.99</course>
  <speed>0.8</speed>
  <fix>3d</fix>
</trkpt>
<trkpt lat="40.0714584" lon="-105.2295437">
  <ele>1583.0</ele>
  <time>2026-08-27T17:17:23Z</time>
  <course>248.77</course>
  <speed>0.07211102550927978</speed>
  <fix>3d</fix>
</trkpt>
<trkpt lat="40.0714584" lon="-105.2295437">
  <ele>1583.0</ele>
  <time>2026-08-27T17:17:23Z</time>
  <course>65.99</course>
  <speed>0.8</speed>
  <fix>3d</fix>
</trkpt>
<trkpt lat="40.0714584" lon="-105.2295437">
  <ele>1583.0</ele>
  <time>2026-08-27T17:17:23Z</time>
  <course>248.76</course>
  <speed>0.07211102550927978</speed>
  <fix>3d</fix>
</trkpt>
<trkpt lat="40.0714591" lon="-105.229542">
  <ele>1583.0</ele>
  <time>2026-08-27T17:17:23Z</time>
  <course>65.99</course>
  <speed>0.8</speed>
  <fix>3d</fix>
</trkpt>
<trkpt lat="40.0714591" lon="-105.229542">
  <ele>1583.0</ele>
  <time>2026-08-27T17:17:23Z</time>
  <course>248.75</course>
  <speed>0.07211102550927978</speed>
  <fix>3d</fix>
</trkpt>
<trkpt lat="40.0714591" lon="-105.229542">
  <ele>1583.0</ele>
  <time>2026-08-27T17:17:23Z</time>
  <course>65.99</course>
  <speed>0.8</speed>
  <fix>3d</fix>
</trkpt>
<trkpt lat="40.0714591" lon="-105.229542">
  <ele>1583.0</ele>
  <time>2026-08-27T17:17:23Z</time>
  <course>248.75</course>
  <speed>0.07211102550927978</speed>
  <fix>3d</fix>
</trkpt>
<trkpt lat="40.0714596" lon="-105.2295403">
  <ele>1583.0</ele>
  <time>2026-08-27T17:17:23Z</time>
  <course>65.99</course>
  <speed>0.8</speed>
  <fix>3d</fix>
</trkpt>
<trkpt lat="40.0714596" lon="-105.2295403">
  <ele>1583.0</ele>
  <time>2026-08-27T17:17:23Z</time>
  <course>248.74</course>
  <speed>0.07211102550927978</speed>
  <fix>3d</fix>
</trkpt>
<trkpt lat="40.0714596" lon="-105.2295403">
  <ele>1583.0</ele>
  <time>2026-08-27T17:17:23Z</time>
  <course>65.99</course>
  <speed>0.8</speed>
  <fix>3d</fix>
</trkpt>
<trkpt lat="40.0714596" lon="-105.2295403">
  <ele>1583.0</ele>
  <time>2026-08-27T17:17:23Z</time>
  <course>248.73</course>
  <speed>0.07211102550927978</speed>
  <fix>3d</fix>
</trkpt>
<trkpt lat="40.0714603" lon="-105.2295386">
  <ele>1583.0</ele>
  <time>2026-08-27T17:17:23Z</time>
  <course>65.99</course>
  <speed>0.8</speed>
  <fix>3d</fix>
</trkpt>
<trkpt lat="40.0714603" lon="-105.2295386">
  <ele>1583.0</ele>
  <time>2026-08-27T17:17:23Z</time>
  <course>248.72</course>
  <speed>0.07211102550927978</speed>
  <fix>3d</fix>
</trkpt>
<trkpt lat="40.0714603" lon="-105.2295386">
  <ele>1583.0</ele>
  <time>2026-08-27T17:17:23Z</time>
  <course>65.99</course>
  <speed>0.8</speed>
  <fix>3d</fix>
</trkpt>
<trkpt lat="40.0714609" lon="-105.2295368">
  <ele>1583.0</ele>
  <time>2026-08-27T17:17:23Z</time>
  <course>248.71</course>
  <speed>0.07211102550927978</speed>
  <fix>3d</fix>
</trkpt>
<trkpt lat="40.0714609" lon="-105.2295368">
  <ele>1583.0</ele>
  <time>2026-08-27T17:17:23Z</time>
  <course>65.99</course>
  <speed>0.8</speed>
  <fix>3d</fix>
</trkpt>
<trkpt lat="40.0714609" lon="-105.2295368">
  <ele>1583.0</ele>
  <time>2026-08-27T17:17:23Z</time>
  <course>248.7</course>
  <speed>0.07211102550927978</speed>
  <fix>3d</fix>
</trkpt>
<trkpt lat="40.0714609" lon="-105.2295368">
  <ele>1583.0</ele>
  <time>2026-08-27T17:17:23Z</time>
  <course>65.99</course>
  <speed>0.8</speed>
  <fix>3d</fix>
</trkpt>
<trkpt lat="40.0714614" lon="-105.2295351">
  <ele>1583.0</ele>
  <time>2026-08-27T17:17:23Z</time>
  <course>248.69</course>
  <speed>0.07211102550927978</speed>
  <fix>3d</fix>
</trkpt>
<trkpt lat="40.0714614" lon="-105.2295351">
  <ele>1583.0</ele>
  <time>2026-08-27T17:17:23Z</time>
  <course>65.99</course>
  <speed>0.8</speed>
  <fix>3d</fix>
</trkpt>
<trkpt lat="40.0714614" lon="-105.2295351">
  <ele>1583.0</ele>
  <time>2026-08-27T17:17:23Z</time>
  <course>248.68</course>
  <speed>0.07211102550927978</speed>
  <fix>3d</fix>
</trkpt>
<trkpt lat="40.0714614" lon="-105.2295351">
  <ele>1583.0</ele>
  <time>2026-08-27T17:17:23Z</time>
  <course>65.99</course>
  <speed>0.8</speed>
  <fix>3d</fix>
</trkpt>
<trkpt lat="40.0714614" lon="-105.2295351">
  <ele>1583.0</ele>
  <time>2026-08-27T17:17:23Z</time>
  <course>248.67</course>
  <speed>0.06403124237432849</speed>
  <fix>3d</fix>
</trkpt>
<trkpt lat="40.0714619" lon="-105.2295334">
  <ele>1583.0</ele>
  <time>2026-08-27T17:17:23Z</time>
  <course>65.99</course>
  <speed>0.8</speed>
  <fix>3d</fix>
</trkpt>
<trkpt lat="40.0714619" lon="-105.2295334">
  <ele>1583.0</ele>
  <time>2026-08-27T17:17:23Z</time>
  <course>248.67</course>
  <speed>0.06403124237432849</speed>
  <fix>3d</fix>
</trkpt>
<trkpt lat="40.0714619" lon="-105.2295334">
  <ele>1583.0</ele>
  <time>2026-08-27T17:17:23Z</time>
  <course>65.99</course>
  <speed>0.8</speed>
  <fix>3d</fix>
</trkpt>
<trkpt lat="40.0714619" lon="-105.2295334">
  <ele>1583.0</ele>
  <time>2026-08-27T17:17:23Z</time>
  <course>248.66</course>
  <speed>0.06403124237432849</speed>
  <fix>3d</fix>
</trkpt>
<trkpt lat="40.0714626" lon="-105.2295317">
  <ele>1583.0</ele>
  <time>2026-08-27T17:17:23Z</time>
  <course>65.99</course>
  <speed>0.8</speed>
  <fix>3d</fix>
</trkpt>
<trkpt lat="40.0714626" lon="-105.2295317">
  <ele>1583.0</ele>
  <time>2026-08-27T17:17:23Z</time>
  <course>248.65</course>
  <speed>0.06403124237432849</speed>
  <fix>3d</fix>
</trkpt>
<trkpt lat="40.0714626" lon="-105.2295317">
  <ele>1583.0</ele>
  <time>2026-08-27T17:17:23Z</time>
  <course>65.99</course>
  <speed>0.8</speed>
  <fix>3d</fix>
</trkpt>
<trkpt lat="40.0714626" lon="-105.2295317">
  <ele>1583.0</ele>
  <time>2026-08-27T17:17:23Z</time>
  <course>248.64</course>
  <speed>0.06403124237432849</speed>
  <fix>3d</fix>
</trkpt>
<trkpt lat="40.0714631" lon="-105.22953">
  <ele>1583.0</ele>
  <time>2026-08-27T17:17:23Z</time>
  <course>65.99</course>
  <speed>0.8</speed>
  <fix>3d</fix>
</trkpt>
<trkpt lat="40.0714631" lon="-105.22953">
  <ele>1583.0</ele>
  <time>2026-08-27T17:17:23Z</time>
  <course>248.63</course>
  <speed>0.06403124237432849</speed>
  <fix>3d</fix>
</trkpt>
<trkpt lat="40.0714631" lon="-105.22953">
  <ele>1583.0</ele>
  <time>2026-08-27T17:17:23Z</time>
  <course>65.99</course>
  <speed>0.8</speed>
  <fix>3d</fix>
</trkpt>
<trkpt lat="40.0714631" lon="-105.22953">
  <ele>1583.0</ele>
  <time>2026-08-27T17:17:23Z</time>
  <course>248.63</course>
  <speed>0.06403124237432849</speed>
  <fix>3d</fix>
</trkpt>
<trkpt lat="40.0714638" lon="-105.2295282">
  <ele>1583.0</ele>
  <time>2026-08-27T17:17:23Z</time>
  <course>65.99</course>
  <speed>0.8</speed>
  <fix>3d</fix>
</trkpt>
<trkpt lat="40.0714638" lon="-105.2295282">
  <ele>1583.0</ele>
  <time>2026-08-27T17:17:23Z</time>
  <course>248.62</course>
  <speed>0.06403124237432849</speed>
  <fix>3d</fix>
</trkpt>
<trkpt lat="40.0714638" lon="-105.2295282">
  <ele>1583.0</ele>
  <time>2026-08-27T17:17:23Z</time>
  <course>65.99</course>
  <speed>0.8</speed>
  <fix>3d</fix>
</trkpt>
<trkpt lat="40.0714638" lon="-105.2295282">
  <ele>1583.0</ele>
  <time>2026-08-27T17:17:23Z</time>
  <course>248.61</course>
  <speed>0.06403124237432849</speed>
  <fix>3d</fix>
</trkpt>
<trkpt lat="40.0714643" lon="-105.2295265">
  <ele>1583.0</ele>
  <time>2026-08-27T17:17:23Z</time>
  <course>65.99</course>
  <speed>0.8</speed>
  <fix>3d</fix>
</trkpt>
<trkpt lat="40.0714643" lon="-105.2295265">
  <ele>1583.0</ele>
  <time>2026-08-27T17:17:23Z</time>
  <course>248.6</course>
  <speed>0.06403124237432849</speed>
  <fix>3d</fix>
</trkpt>
<trkpt lat="40.0714643" lon="-105.2295265">
  <ele>1583.0</ele>
  <time>2026-08-27T17:17:23Z</time>
  <course>65.99</course>
  <speed>0.8</speed>
  <fix>3d</fix>
</trkpt>
<trkpt lat="40.0714643" lon="-105.2295265">
  <ele>1583.0</ele>
  <time>2026-08-27T17:17:23Z</time>
  <course>248.59</course>
  <speed>0.06403124237432849</speed>
  <fix>3d</fix>
</trkpt>
<trkpt lat="40.071465" lon="-105.2295248">
  <ele>1583.0</ele>
  <time>2026-08-27T17:17:23Z</time>
  <course>65.99</course>
  <speed>0.8</speed>
  <fix>3d</fix>
</trkpt>
<trkpt lat="40.071465" lon="-105.2295248">
  <ele>1583.0</ele>
  <time>2026-08-27T17:17:23Z</time>
  <course>248.58</course>
  <speed>0.06403124237432849</speed>
  <fix>3d</fix>
</trkpt>
<trkpt lat="40.071465" lon="-105.2295248">
  <ele>1583.0</ele>
  <time>2026-08-27T17:17:23Z</time>
  <course>65.99</course>
  <speed>0.8</speed>
  <fix>3d</fix>
</trkpt>
<trkpt lat="40.071465" lon="-105.2295248">
  <ele>1583.0</ele>
  <time>2026-08-27T17:17:23Z</time>
  <course>248.58</course>
  <speed>0.06403124237432849</speed>
  <fix>3d</fix>
</trkpt>
<trkpt lat="40.0714655" lon="-105.2295231">
  <ele>1583.0</ele>
  <time>2026-08-27T17:17:23Z</time>
  <course>65.99</course>
  <speed>0.8</speed>
  <fix>3d</fix>
</trkpt>
<trkpt lat="40.0714655" lon="-105.2295231">
  <ele>1583.0</ele>
  <time>2026-08-27T17:17:23Z</time>
  <course>248.57</course>
  <speed>0.06403124237432849</speed>
  <fix>3d</fix>
</trkpt>
<trkpt lat="40.0714655" lon="-105.2295231">
  <ele>1583.0</ele>
  <time>2026-08-27T17:17:23Z</time>
  <course>65.99</course>
  <speed>0.8</speed>
  <fix>3d</fix>
</trkpt>
<trkpt lat="40.0714655" lon="-105.2295231">
  <ele>1583.0</ele>
  <time>2026-08-27T17:17:23Z</time>
  <course>248.56</course>
  <speed>0.06403124237432849</speed>
  <fix>3d</fix>
</trkpt>
<trkpt lat="40.071466" lon="-105.2295214">
  <ele>1583.0</ele>
  <time>2026-08-27T17:17:23Z</time>
  <course>65.99</course>
  <speed>0.8</speed>
  <fix>3d</fix>
</trkpt>
<trkpt lat="40.071466" lon="-105.2295214">
  <ele>1583.0</ele>
  <time>2026-08-27T17:17:23Z</time>
  <course>248.55</course>
  <speed>0.06403124237432849</speed>
  <fix>3d</fix>
</trkpt>
<trkpt lat="40.071466" lon="-105.2295214">
  <ele>1583.0</ele>
  <time>2026-08-27T17:17:23Z</time>
  <course>65.99</course>
  <speed>0.8</speed>
  <fix>3d</fix>
</trkpt>
<trkpt lat="40.0714667" lon="-105.2295196">
  <ele>1583.0</ele>
  <time>2026-08-27T17:17:23Z</time>
  <course>248.54</course>
  <speed>0.06403124237432849</speed>
  <fix>3d</fix>
</trkpt>
<trkpt lat="40.0714667" lon="-105.2295196">
  <ele>1583.0</ele>
  <time>2026-08-27T17:17:23Z</time>
  <course>65.99</course>
  <speed>0.8</speed>
  <fix>3d</fix>
</trkpt>
<trkpt lat="40.0714667" lon="-105.2295196">
  <ele>1583.0</ele>
  <time>2026-08-27T17:17:23Z</time>
  <course>248.54</course>
  <speed>0.06403124237432849</speed>
  <fix>3d</fix>
</trkpt>
<trkpt lat="40.0714667" lon="-105.2295196">
  <ele>1583.0</ele>
  <time>2026-08-27T17:17:23Z</time>
  <course>65.99</course>
  <speed>0.8</speed>
  <fix>3d</fix>
</trkpt>
<trkpt lat="40.0714672" lon="-105.2295179">
  <ele>1583.0</ele>
  <time>2026-08-27T17:17:23Z</time>
  <course>248.53</course>
  <speed>0.06403124237432849</speed>
  <fix>3d</fix>
</trkpt>
<trkpt lat="40.0714672" lon="-105.2295179">
  <ele>1583.0</ele>
  <time>2026-08-27T17:17:23Z</time>
  <course>65.99</course>
  <speed>0.8</speed>
  <fix>3d</fix>
</trkpt>
<trkpt lat="40.0714672" lon="-105.2295179">
  <ele>1583.0</ele>
  <time>2026-08-27T17:17:23Z</time>
  <course>248.52</course>
  <speed>0.06403124237432849</speed>
  <fix>3d</fix>
</trkpt>
<trkpt lat="40.0714672" lon="-105.2295179">
  <ele>1583.0</ele>
  <time>2026-08-27T17:17:23Z</time>
  <course>65.99</course>
  <speed>0.8</speed>
  <fix>3d</fix>
</trkpt>
<trkpt lat="40.0714672" lon="-105.2295179">
  <ele>1583.0</ele>
  <time>2026-08-27T17:17:23Z</time>
  <course>248.51</course>
  <speed>0.06403124237432849</speed>
  <fix>3d</fix>
</trkpt>
<trkpt lat="40.0714679" lon="-105.2295162">
  <ele>1583.0</ele>
  <time>2026-08-27T17:17:23Z</time>
  <course>65.99</course>
  <speed>0.8</speed>
  <fix>3d</fix>
</trkpt>
<trkpt lat="40.0714679" lon="-105.2295162">
  <ele>1583.0</ele>
  <time>2026-08-27T17:17:23Z</time>
  <course>248.5</course>
  <speed>0.06403124237432849</speed>
  <fix>3d</fix>
</trkpt>
<trkpt lat="40.0714679" lon="-105.2295162">
  <ele>1583.0</ele>
  <time>2026-08-27T17:17:23Z</time>
  <course>65.99</course>
  <speed>0.8</speed>
  <fix>3d</fix>
</trkpt>
<trkpt lat="40.0714679" lon="-105.2295162">
  <ele>1583.0</ele>
  <time>2026-08-27T17:17:23Z</time>
  <course>248.5</course>
  <speed>0.06403124237432849</speed>
  <fix>3d</fix>
</trkpt>
<trkpt lat="40.0714684" lon="-105.2295145">
  <ele>1583.0</ele>
  <time>2026-08-27T17:17:23Z</time>
  <course>65.99</course>
  <speed>0.8</speed>
  <fix>3d</fix>
</trkpt>
<trkpt lat="40.0714684" lon="-105.2295145">
  <ele>1583.0</ele>
  <time>2026-08-27T17:17:23Z</time>
  <course>248.49</course>
  <speed>0.06403124237432849</speed>
  <fix>3d</fix>
</trkpt>
<trkpt lat="40.0714684" lon="-105.2295145">
  <ele>1583.0</ele>
  <time>2026-08-27T17:17:23Z</time>
  <course>65.99</course>
  <speed>0.8</speed>
  <fix>3d</fix>
</trkpt>
<trkpt lat="40.0714684" lon="-105.2295145">
  <ele>1583.0</ele>
  <time>2026-08-27T17:17:23Z</time>
  <course>248.48</course>
  <speed>0.06403124237432849</speed>
  <fix>3d</fix>
</trkpt>
<trkpt lat="40.0714691" lon="-105.2295128">
  <ele>1583.0</ele>
  <time>2026-08-27T17:17:23Z</time>
  <course>65.99</course>
  <speed>0.8</speed>
  <fix>3d</fix>
</trkpt>
<trkpt lat="40.0714691" lon="-105.2295128">
  <ele>1583.0</ele>
  <time>2026-08-27T17:17:23Z</time>
  <course>248.47</course>
  <speed>0.06403124237432849</speed>
  <fix>3d</fix>
</trkpt>
<trkpt lat="40.0714691" lon="-105.2295128">
  <ele>1583.0</ele>
  <time>2026-08-27T17:17:23Z</time>
  <course>65.99</course>
  <speed>0.8</speed>
  <fix>3d</fix>
</trkpt>
<trkpt lat="40.0714691" lon="-105.2295128">
  <ele>1583.0</ele>
  <time>2026-08-27T17:17:23Z</time>
  <course>248.47</course>
  <speed>0.06403124237432849</speed>
  <fix>3d</fix>
</trkpt>
<trkpt lat="40.0714696" lon="-105.229511">
  <ele>1583.0</ele>
  <time>2026-08-27T17:17:23Z</time>
  <course>65.99</course>
  <speed>0.8</speed>
  <fix>3d</fix>
</trkpt>
<trkpt lat="40.0714696" lon="-105.229511">
  <ele>1583.0</ele>
  <time>2026-08-27T17:17:23Z</time>
  <course>248.46</course>
  <speed>0.06403124237432849</speed>
  <fix>3d</fix>
</trkpt>
<trkpt lat="40.0714696" lon="-105.229511">
  <ele>1583.0</ele>
  <time>2026-08-27T17:17:23Z</time>
  <course>65.99</course>
  <speed>0.8</speed>
  <fix>3d</fix>
</trkpt>
<trkpt lat="40.0714696" lon="-105.229511">
  <ele>1583.0</ele>
  <time>2026-08-27T17:17:23Z</time>
  <course>248.45</course>
  <speed>0.06403124237432849</speed>
  <fix>3d</fix>
</trkpt>
<trkpt lat="40.0714702" lon="-105.2295093">
  <ele>1583.0</ele>
  <time>2026-08-27T17:17:23Z</time>
  <course>65.99</course>
  <speed>0.8</speed>
  <fix>3d</fix>
</trkpt>
<trkpt lat="40.0714702" lon="-105.2295093">
  <ele>1583.0</ele>
  <time>2026-08-27T17:17:23Z</time>
  <course>248.45</course>
  <speed>0.06403124237432849</speed>
  <fix>3d</fix>
</trkpt>
<trkpt lat="40.0714702" lon="-105.2295093">
  <ele>1583.0</ele>
  <time>2026-08-27T17:17:23Z</time>
  <course>65.99</course>
  <speed>0.8</speed>
  <fix>3d</fix>
</trkpt>
<trkpt lat="40.0714702" lon="-105.2295093">
  <ele>1583.0</ele>
  <time>2026-08-27T17:17:23Z</time>
  <course>248.44</course>
  <speed>0.06403124237432849</speed>
  <fix>3d</fix>
</trkpt>
<trkpt lat="40.0714708" lon="-105.2295076">
  <ele>1583.0</ele>
  <time>2026-08-27T17:17:23Z</time>
  <course>65.99</course>
  <speed>0.8</speed>
  <fix>3d</fix>
</trkpt>
<trkpt lat="40.0714708" lon="-105.2295076">
  <ele>1583.0</ele>
  <time>2026-08-27T17:17:23Z</time>
  <course>248.43</course>
  <speed>0.06403124237432849</speed>
  <fix>3d</fix>
</trkpt>
<trkpt lat="40.0714708" lon="-105.2295076">
  <ele>1583.0</ele>
  <time>2026-08-27T17:17:23Z</time>
  <course>65.99</course>
  <speed>0.8</speed>
  <fix>3d</fix>
</trkpt>
<trkpt lat="40.0714708" lon="-105.2295076">
  <ele>1583.0</ele>
  <time>2026-08-27T17:17:23Z</time>
  <course>248.42</course>
  <speed>0.06403124237432849</speed>
  <fix>3d</fix>
</trkpt>
<trkpt lat="40.0714713" lon="-105.2295059">
  <ele>1583.0</ele>
  <time>2026-08-27T17:17:23Z</time>
  <course>65.99</course>
  <speed>0.8</speed>
  <fix>3d</fix>
</trkpt>
<trkpt lat="40.0714713" lon="-105.2295059">
  <ele>1583.0</ele>
  <time>2026-08-27T17:17:23Z</time>
  <course>248.42</course>
  <speed>0.06403124237432849</speed>
  <fix>3d</fix>
</trkpt>
<trkpt lat="40.0714713" lon="-105.2295059">
  <ele>1583.0</ele>
  <time>2026-08-27T17:17:23Z</time>
  <course>65.99</course>
  <speed>0.8</speed>
  <fix>3d</fix>
</trkpt>
<trkpt lat="40.0714713" lon="-105.2295059">
  <ele>1583.0</ele>
  <time>2026-08-27T17:17:23Z</time>
  <course>248.41</course>
  <speed>0.06403124237432849</speed>
  <fix>3d</fix>
</trkpt>
<trkpt lat="40.071472" lon="-105.2295041">
  <ele>1583.0</ele>
  <time>2026-08-27T17:17:23Z</time>
  <course>65.99</course>
  <speed>0.8</speed>
  <fix>3d</fix>
</trkpt>
<trkpt lat="40.071472" lon="-105.2295041">
  <ele>1583.0</ele>
  <time>2026-08-27T17:17:23Z</time>
  <course>248.4</course>
  <speed>0.06403124237432849</speed>
  <fix>3d</fix>
</trkpt>
<trkpt lat="40.071472" lon="-105.2295041">
  <ele>1583.0</ele>
  <time>2026-08-27T17:17:23Z</time>
  <course>65.99</course>
  <speed>0.8</speed>
  <fix>3d</fix>
</trkpt>
<trkpt lat="40.0714725" lon="-105.2295024">
  <ele>1583.0</ele>
  <time>2026-08-27T17:17:23Z</time>
  <course>248.4</course>
  <speed>0.06403124237432849</speed>
  <fix>3d</fix>
</trkpt>
<trkpt lat="40.0714725" lon="-105.2295024">
  <ele>1583.0</ele>
  <time>2026-08-27T17:17:23Z</time>
  <course>65.99</course>
  <speed>0.8</speed>
  <fix>3d</fix>
</trkpt>
<trkpt lat="40.0714725" lon="-105.2295024">
  <ele>1583.0</ele>
  <time>2026-08-27T17:17:23Z</time>
  <course>248.39</course>
  <speed>0.06403124237432849</speed>
  <fix>3d</fix>
</trkpt>
<trkpt lat="40.0714725" lon="-105.2295024">
  <ele>1583.0</ele>
  <time>2026-08-27T17:17:24Z</time>
  <course>65.99</course>
  <speed>0.8</speed>
  <fix>3d</fix>
</trkpt>
<trkpt lat="40.0714732" lon="-105.2295007">
  <ele>1583.0</ele>
  <time>2026-08-27T17:17:24Z</time>
  <course>248.38</course>
  <speed>0.06403124237432849</speed>
  <fix>3d</fix>
</trkpt>
<trkpt lat="40.0714732" lon="-105.2295007">
  <ele>1583.0</ele>
  <time>2026-08-27T17:17:24Z</time>
  <course>65.99</course>
  <speed>0.8</speed>
  <fix>3d</fix>
</trkpt>
<trkpt lat="40.0714732" lon="-105.2295007">
  <ele>1583.0</ele>
  <time>2026-08-27T17:17:24Z</time>
  <course>248.37</course>
  <speed>0.06403124237432849</speed>
  <fix>3d</fix>
</trkpt>
<trkpt lat="40.0714732" lon="-105.2295007">
  <ele>1583.0</ele>
  <time>2026-08-27T17:17:24Z</time>
  <course>65.99</course>
  <speed>0.8</speed>
  <fix>3d</fix>
</trkpt>
<trkpt lat="40.0714732" lon="-105.2295007">
  <ele>1583.0</ele>
  <time>2026-08-27T17:17:24Z</time>
  <course>248.37</course>
  <speed>0.06403124237432849</speed>
  <fix>3d</fix>
</trkpt>
<trkpt lat="40.0714737" lon="-105.229499">
  <ele>1583.0</ele>
  <time>2026-08-27T17:17:24Z</time>
  <course>65.99</course>
  <speed>0.8</speed>
  <fix>3d</fix>
</trkpt>
<trkpt lat="40.0714737" lon="-105.229499">
  <ele>1583.0</ele>
  <time>2026-08-27T17:17:24Z</time>
  <course>248.36</course>
  <speed>0.06403124237432849</speed>
  <fix>3d</fix>
</trkpt>
<trkpt lat="40.0714737" lon="-105.229499">
  <ele>1583.0</ele>
  <time>2026-08-27T17:17:24Z</time>
  <course>65.99</course>
  <speed>0.8</speed>
  <fix>3d</fix>
</trkpt>
<trkpt lat="40.0714737" lon="-105.229499">
  <ele>1583.0</ele>
  <time>2026-08-27T17:17:24Z</time>
  <course>248.35</course>
  <speed>0.0565685424949238</speed>
  <fix>3d</fix>
</trkpt>
<trkpt lat="40.0714743" lon="-105.2294973">
  <ele>1583.0</ele>
  <time>2026-08-27T17:17:24Z</time>
  <course>65.99</course>
  <speed>0.8</speed>
  <fix>3d</fix>
</trkpt>
<trkpt lat="40.0714743" lon="-105.2294973">
  <ele>1583.0</ele>
  <time>2026-08-27T17:17:24Z</time>
  <course>248.35</course>
  <speed>0.0565685424949238</speed>
  <fix>3d</fix>
</trkpt>
<trkpt lat="40.0714743" lon="-105.2294973">
  <ele>1583.0</ele>
  <time>2026-08-27T17:17:24Z</time>
  <course>65.99</course>
  <speed>0.8</speed>
  <fix>3d</fix>
</trkpt>
<trkpt lat="40.0714743" lon="-105.2294973">
  <ele>1583.0</ele>
  <time>2026-08-27T17:17:24Z</time>
  <course>248.34</course>
  <speed>0.0565685424949238</speed>
  <fix>3d</fix>
</trkpt>
<trkpt lat="40.0714749" lon="-105.2294955">
  <ele>1583.0</ele>
  <time>2026-08-27T17:17:24Z</time>
  <course>65.99</course>
  <speed>0.8</speed>
  <fix>3d</fix>
</trkpt>
<trkpt lat="40.0714749" lon="-105.2294955">
  <ele>1583.0</ele>
  <time>2026-08-27T17:17:24Z</time>
  <course>248.33</course>
  <speed>0.0565685424949238</speed>
  <fix>3d</fix>
</trkpt>
<trkpt lat="40.0714749" lon="-105.2294955">
  <ele>1583.0</ele>
  <time>2026-08-27T17:17:24Z</time>
  <course>65.99</course>
  <speed>0.8</speed>
  <fix>3d</fix>
</trkpt>
<trkpt lat="40.0714749" lon="-105.2294955">
  <ele>1583.0</ele>
  <time>2026-08-27T17:17:24Z</time>
  <course>248.33</course>
  <speed>0.0565685424949238</speed>
  <fix>3d</fix>
</trkpt>
<trkpt lat="40.0714754" lon="-105.2294938">
  <ele>1583.0</ele>
  <time>2026-08-27T17:17:24Z</time>
  <course>65.99</course>
  <speed>0.8</speed>
  <fix>3d</fix>
</trkpt>
<trkpt lat="40.0714754" lon="-105.2294938">
  <ele>1583.0</ele>
  <time>2026-08-27T17:17:24Z</time>
  <course>248.32</course>
  <speed>0.0565685424949238</speed>
  <fix>3d</fix>
</trkpt>
<trkpt lat="40.0714754" lon="-105.2294938">
  <ele>1583.0</ele>
  <time>2026-08-27T17:17:24Z</time>
  <course>65.99</course>
  <speed>0.8</speed>
  <fix>3d</fix>
</trkpt>
<trkpt lat="40.0714754" lon="-105.2294938">
  <ele>1583.0</ele>
  <time>2026-08-27T17:17:24Z</time>
  <course>248.31</course>
  <speed>0.0565685424949238</speed>
  <fix>3d</fix>
</trkpt>
<trkpt lat="40.0714761" lon="-105.2294921">
  <ele>1583.0</ele>
  <time>2026-08-27T17:17:24Z</time>
  <course>65.99</course>
  <speed>0.8</speed>
  <fix>3d</fix>
</trkpt>
<trkpt lat="40.0714763" lon="-105.2294914">
  <ele>1583.09</ele>
  <time>2026-08-27T17:17:24Z</time>
  <course>248.31</course>
  <speed>0.797057087039567</speed>
  <fix>3d</fix>
</trkpt>
<trkpt lat="40.0714761" lon="-105.2294921">
  <ele>1583.0</ele>
  <time>2026-08-27T17:17:24Z</time>
  <course>65.99</course>
  <speed>0.8</speed>
  <fix>3d</fix>
</trkpt>
<trkpt lat="40.0714767" lon="-105.2294902">
  <ele>1583.08</ele>
  <time>2026-08-27T17:17:24Z</time>
  <course>248.3</course>
  <speed>0.797057087039567</speed>
  <fix>3d</fix>
</trkpt>
<trkpt lat="40.0714767" lon="-105.2294904">
  <ele>1583.0</ele>
  <time>2026-08-27T17:17:24Z</time>
  <course>65.99</course>
  <speed>0.8</speed>
  <fix>3d</fix>
</trkpt>
<trkpt lat="40.0714771" lon="-105.229489">
  <ele>1583.06</ele>
  <time>2026-08-27T17:17:24Z</time>
  <course>248.29</course>
  <speed>0.797057087039567</speed>
  <fix>3d</fix>
</trkpt>
<trkpt lat="40.0714767" lon="-105.2294904">
  <ele>1583.0</ele>
  <time>2026-08-27T17:17:24Z</time>
  <course>65.99</course>
  <speed>0.8</speed>
  <fix>3d</fix>
</trkpt>
<trkpt lat="40.0714774" lon="-105.229488">
  <ele>1583.05</ele>
  <time>2026-08-27T17:17:24Z</time>
  <course>248.29</course>
  <speed>0.8011242100947892</speed>
  <fix>3d</fix>
</trkpt>
<trkpt lat="40.0714773" lon="-105.2294887">
  <ele>1583.0</ele>
  <time>2026-08-27T17:17:24Z</time>
  <course>65.99</course>
  <speed>0.8</speed>
  <fix>3d</fix>
</trkpt>
<trkpt lat="40.0714778" lon="-105.229487">
  <ele>1583.04</ele>
  <time>2026-08-27T17:17:24Z</time>
  <course>248.28</course>
  <speed>0.8011242100947892</speed>
  <fix>3d</fix>
</trkpt>
<trkpt lat="40.0714773" lon="-105.2294887">
  <ele>1583.0</ele>
  <time>2026-08-27T17:17:24Z</time>
  <course>65.99</course>
  <speed>0.8</speed>
  <fix>3d</fix>
</trkpt>
<trkpt lat="40.0714781" lon="-105.229486">
  <ele>1583.03</ele>
  <time>2026-08-27T17:17:24Z</time>
  <course>248.28</course>
  <speed>0.8011242100947892</speed>
  <fix>3d</fix>
</trkpt>
<trkpt lat="40.0714779" lon="-105.2294869">
  <ele>1583.0</ele>
  <time>2026-08-27T17:17:24Z</time>
  <course>65.99</course>
  <speed>0.8</speed>
  <fix>3d</fix>
</trkpt>
<trkpt lat="40.0714785" lon="-105.2294851">
  <ele>1583.02</ele>
  <time>2026-08-27T17:17:24Z</time>
  <course>248.27</course>
  <speed>0.8011242100947892</speed>
  <fix>3d</fix>
</trkpt>
<trkpt lat="40.0714779" lon="-105.2294869">
  <ele>1583.0</ele>
  <time>2026-08-27T17:17:24Z</time>
  <course>65.99</course>
  <speed>0.8</speed>
  <fix>3d</fix>
</trkpt>
<trkpt lat="40.0714788" lon="-105.2294842">
  <ele>1583.02</ele>
  <time>2026-08-27T17:17:24Z</time>
  <course>248.26</course>
  <speed>0.8102468759581859</speed>
  <fix>3d</fix>
</trkpt>
<trkpt lat="40.0714784" lon="-105.2294852">
  <ele>1583.0</ele>
  <time>2026-08-27T17:17:24Z</time>
  <course>65.99</course>
  <speed>0.8</speed>
  <fix>3d</fix>
</trkpt>
<trkpt lat="40.0714791" lon="-105.2294831">
  <ele>1583.02</ele>
  <time>2026-08-27T17:17:24Z</time>
  <course>248.26</course>
  <speed>0.8102468759581859</speed>
  <fix>3d</fix>
</trkpt>
<trkpt lat="40.0714784" lon="-105.2294852">
  <ele>1583.0</ele>
  <time>2026-08-27T17:17:24Z</time>
  <course>65.99</course>
  <speed>0.8</speed>
  <fix>3d</fix>
</trkpt>
<trkpt lat="40.0714794" lon="-105.2294822">
  <ele>1583.02</ele>
  <time>2026-08-27T17:17:24Z</time>
  <course>248.25</course>
  <speed>0.8102468759581859</speed>
  <fix>3d</fix>
</trkpt>
<trkpt lat="40.0714789" lon="-105.2294835">
  <ele>1583.0</ele>
  <time>2026-08-27T17:17:24Z</time>
  <course>65.99</course>
  <speed>0.8</speed>
  <fix>3d</fix>
</trkpt>
<trkpt lat="40.0714797" lon="-105.2294813">
  <ele>1583.02</ele>
  <time>2026-08-27T17:17:24Z</time>
  <course>248.25</course>
  <speed>0.8143709228600933</speed>
  <fix>3d</fix>
</trkpt>
<trkpt lat="40.0714789" lon="-105.2294835">
  <ele>1583.0</ele>
  <time>2026-08-27T17:17:24Z</time>
  <course>65.99</course>
  <speed>0.8</speed>
  <fix>3d</fix>
</trkpt>
<trkpt lat="40.07148" lon="-105.2294804">
  <ele>1583.03</ele>
  <time>2026-08-27T17:17:24Z</time>
  <course>248.24</course>
  <speed>0.8143709228600933</speed>
  <fix>3d</fix>
</trkpt>
<trkpt lat="40.0714796" lon="-105.2294818">
  <ele>1583.0</ele>
  <time>2026-08-27T17:17:24Z</time>
  <course>65.99</course>
  <speed>0.8</speed>
  <fix>3d</fix>
</trkpt>
<trkpt lat="40.0714803" lon="-105.2294795">
  <ele>1583.03</ele>
  <time>2026-08-27T17:17:24Z</time>
  <course>248.23</course>
  <speed>0.8143709228600933</speed>
  <fix>3d</fix>
</trkpt>
<trkpt lat="40.0714796" lon="-105.2294818">
  <ele>1583.0</ele>
  <time>2026-08-27T17:17:24Z</time>
  <course>65.99</course>
  <speed>0.8</speed>
  <fix>3d</fix>
</trkpt>
<trkpt lat="40.0714806" lon="-105.2294787">
  <ele>1583.04</ele>
  <time>2026-08-27T17:17:24Z</time>
  <course>248.23</course>
  <speed>0.8143709228600933</speed>
  <fix>3d</fix>
</trkpt>
<trkpt lat="40.0714801" lon="-105.2294801">
  <ele>1583.0</ele>
  <time>2026-08-27T17:17:24Z</time>
  <course>65.99</course>
  <speed>0.8</speed>
  <fix>3d</fix>
</trkpt>
<trkpt lat="40.0714809" lon="-105.2294778">
  <ele>1583.04</ele>
  <time>2026-08-27T17:17:24Z</time>
  <course>248.22</course>
  <speed>0.8143709228600933</speed>
  <fix>3d</fix>
</trkpt>
<trkpt lat="40.0714801" lon="-105.2294801">
  <ele>1583.0</ele>
  <time>2026-08-27T17:17:24Z</time>
  <course>65.99</course>
  <speed>0.8</speed>
  <fix>3d</fix>
</trkpt>
<trkpt lat="40.0714812" lon="-105.2294769">
  <ele>1583.04</ele>
  <time>2026-08-27T17:17:24Z</time>
  <course>248.22</course>
  <speed>0.8234682750416071</speed>
  <fix>3d</fix>
</trkpt>
<trkpt lat="40.0714808" lon="-105.2294784">
  <ele>1583.0</ele>
  <time>2026-08-27T17:17:24Z</time>
  <course>65.99</course>
  <speed>0.8</speed>
  <fix>3d</fix>
</trkpt>
<trkpt lat="40.0714815" lon="-105.2294761">
  <ele>1583.05</ele>
  <time>2026-08-27T17:17:24Z</time>
  <course>248.21</course>
  <speed>0.8234682750416071</speed>
  <fix>3d</fix>
</trkpt>
<trkpt lat="40.0714808" lon="-105.2294784">
  <ele>1583.0</ele>
  <time>2026-08-27T17:17:24Z</time>
  <course>65.99</course>
  <speed>0.8</speed>
  <fix>3d</fix>
</trkpt>
<trkpt lat="40.0714818" lon="-105.2294752">
  <ele>1583.05</ele>
  <time>2026-08-27T17:17:24Z</time>
  <course>248.21</course>
  <speed>0.8234682750416071</speed>
  <fix>3d</fix>
</trkpt>
<trkpt lat="40.0714813" lon="-105.2294766">
  <ele>1583.0</ele>
  <time>2026-08-27T17:17:24Z</time>
  <course>65.99</course>
  <speed>0.8</speed>
  <fix>3d</fix>
</trkpt>
<trkpt lat="40.0714821" lon="-105.2294744">
  <ele>1583.06</ele>
  <time>2026-08-27T17:17:24Z</time>
  <course>248.2</course>
  <speed>0.8234682750416071</speed>
  <fix>3d</fix>
</trkpt>
<trkpt lat="40.0714813" lon="-105.2294766">
  <ele>1583.0</ele>
  <time>2026-08-27T17:17:24Z</time>
  <course>65.99</course>
  <speed>0.8</speed>
  <fix>3d</fix>
</trkpt>
<trkpt lat="40.0714824" lon="-105.2294737">
  <ele>1583.06</ele>
  <time>2026-08-27T17:17:24Z</time>
  <course>248.2</course>
  <speed>0.8276472678623424</speed>
  <fix>3d</fix>
</trkpt>
<trkpt lat="40.071482" lon="-105.2294749">
  <ele>1583.0</ele>
  <time>2026-08-27T17:17:24Z</time>
  <course>65.99</course>
  <speed>0.8</speed>
  <fix>3d</fix>
</trkpt>
<trkpt lat="40.0714827" lon="-105.2294728">
  <ele>1583.06</ele>
  <time>2026-08-27T17:17:24Z</time>
  <course>248.19</course>
  <speed>0.8276472678623424</speed>
  <fix>3d</fix>
</trkpt>
<trkpt lat="40.071482" lon="-105.2294749">
  <ele>1583.0</ele>
  <time>2026-08-27T17:17:24Z</time>
  <course>65.99</course>
  <speed>0.8</speed>
  <fix>3d</fix>
</trkpt>
<trkpt lat="40.071483" lon="-105.229472">
  <ele>1583.07</ele>
  <time>2026-08-27T17:17:24Z</time>
  <course>248.19</course>
  <speed>0.8276472678623424</speed>
  <fix>3d</fix>
</trkpt>
<trkpt lat="40.0714825" lon="-105.2294732">
  <ele>1583.0</ele>
  <time>2026-08-27T17:17:24Z</time>
  <course>65.99</course>
  <speed>0.8</speed>
  <fix>3d</fix>
</trkpt>
<trkpt lat="40.0714833" lon="-105.2294711">
  <ele>1583.07</ele>
  <time>2026-08-27T17:17:24Z</time>
  <course>248.18</course>
  <speed>0.8276472678623424</speed>
  <fix>3d</fix>
</trkpt>
<trkpt lat="40.0714825" lon="-105.2294732">
  <ele>1583.0</ele>
  <time>2026-08-27T17:17:24Z</time>
  <course>65.99</course>
  <speed>0.8</speed>
  <fix>3d</fix>
</trkpt>
<trkpt lat="40.0714836" lon="-105.2294702">
  <ele>1583.07</ele>
  <time>2026-08-27T17:17:24Z</time>
  <course>248.18</course>
  <speed>0.8276472678623424</speed>
  <fix>3d</fix>
</trkpt>
<trkpt lat="40.071483" lon="-105.2294715">
  <ele>1583.0</ele>
  <time>2026-08-27T17:17:24Z</time>
  <course>65.99</course>
  <speed>0.8</speed>
  <fix>3d</fix>
</trkpt>
<trkpt lat="40.0714843" lon="-105.229468">
  <ele>1583.08</ele>
  <time>2026-08-27T17:17:24Z</time>
  <course>248.16</course>
  <speed>0.8276472678623424</speed>
  <fix>3d</fix>
</trkpt>
<trkpt lat="40.0714837" lon="-105.2294698">
  <ele>1583.0</ele>
  <time>2026-08-27T17:17:24Z</time>
  <course>65.99</course>
  <speed>0.8</speed>
  <fix>3d</fix>
</trkpt>
<trkpt lat="40.0714846" lon="-105.2294671">
  <ele>1583.07</ele>
  <time>2026-08-27T17:17:24Z</time>
  <course>248.16</course>
  <speed>0.8276472678623424</speed>
  <fix>3d</fix>
</trkpt>
<trkpt lat="40.0714837" lon="-105.2294698">
  <ele>1583.0</ele>
  <time>2026-08-27T17:17:24Z</time>
  <course>65.99</course>
  <speed>0.8</speed>
  <fix>3d</fix>
</trkpt>
<trkpt lat="40.0714849" lon="-105.2294662">
  <ele>1583.07</ele>
  <time>2026-08-27T17:17:24Z</time>
  <course>248.15</course>
  <speed>0.8276472678623424</speed>
  <fix>3d</fix>
</trkpt>
<trkpt lat="40.0714842" lon="-105.229468">
  <ele>1583.0</ele>
  <time>2026-08-27T17:17:24Z</time>
  <course>65.99</course>
  <speed>0.8</speed>
  <fix>3d</fix>
</trkpt>
<trkpt lat="40.0714853" lon="-105.2294652">
  <ele>1583.08</ele>
  <time>2026-08-27T17:17:24Z</time>
  <course>248.15</course>
  <speed>0.8276472678623424</speed>
  <fix>3d</fix>
</trkpt>
<trkpt lat="40.0714842" lon="-105.229468">
  <ele>1583.0</ele>
  <time>2026-08-27T17:17:24Z</time>
  <course>65.99</course>
  <speed>0.8</speed>
  <fix>3d</fix>
</trkpt>
<trkpt lat="40.0714856" lon="-105.2294643">
  <ele>1583.08</ele>
  <time>2026-08-27T17:17:24Z</time>
  <course>248.14</course>
  <speed>0.8276472678623424</speed>
  <fix>3d</fix>
</trkpt>
<trkpt lat="40.0714849" lon="-105.2294663">
  <ele>1583.0</ele>
  <time>2026-08-27T17:17:24Z</time>
  <course>65.99</course>
  <speed>0.8</speed>
  <fix>3d</fix>
</trkpt>
<trkpt lat="40.0714859" lon="-105.2294634">
  <ele>1583.08</ele>
  <time>2026-08-27T17:17:24Z</time>
  <course>248.14</course>
  <speed>0.8276472678623424</speed>
  <fix>3d</fix>
</trkpt>
<trkpt lat="40.0714849" lon="-105.2294663">
  <ele>1583.0</ele>
  <time>2026-08-27T17:17:24Z</time>
  <course>65.99</course>
  <speed>0.8</speed>
  <fix>3d</fix>
</trkpt>
<trkpt lat="40.0714862" lon="-105.2294626">
  <ele>1583.08</ele>
  <time>2026-08-27T17:17:24Z</time>
  <course>248.13</course>
  <speed>0.8276472678623424</speed>
  <fix>3d</fix>
</trkpt>
<trkpt lat="40.0714854" lon="-105.2294646">
  <ele>1583.0</ele>
  <time>2026-08-27T17:17:24Z</time>
  <course>65.99</course>
  <speed>0.8</speed>
  <fix>3d</fix>
</trkpt>
<trkpt lat="40.0714865" lon="-105.2294617">
  <ele>1583.08</ele>
  <time>2026-08-27T17:17:24Z</time>
  <course>248.13</course>
  <speed>0.8234682750416071</speed>
  <fix>3d</fix>
</trkpt>
<trkpt lat="40.0714854" lon="-105.2294646">
  <ele>1583.0</ele>
  <time>2026-08-27T17:17:24Z</time>
  <course>65.99</course>
  <speed>0.8</speed>
  <fix>3d</fix>
</trkpt>
<trkpt lat="40.0714868" lon="-105.2294609">
  <ele>1583.08</ele>
  <time>2026-08-27T17:17:24Z</time>
  <course>248.12</course>
  <speed>0.8234682750416071</speed>
  <fix>3d</fix>
</trkpt>
<trkpt lat="40.0714861" lon="-105.2294629">
  <ele>1583.0</ele>
  <time>2026-08-27T17:17:24Z</time>
  <course>65.99</course>
  <speed>0.8</speed>
  <fix>3d</fix>
</trkpt>
<trkpt lat="40.071487" lon="-105.2294601">
  <ele>1583.09</ele>
  <time>2026-08-27T17:17:24Z</time>
  <course>248.0</course>
  <speed>0.6977822009767805</speed>
  <fix>3d</fix>
</trkpt>
<trkpt lat="40.0714861" lon="-105.2294629">
  <ele>1583.0</ele>
  <time>2026-08-27T17:17:24Z</time>
  <course>65.99</course>
  <speed>0.8</speed>
  <fix>3d</fix>
</trkpt>
<trkpt lat="40.0714872" lon="-105.2294595">
  <ele>1583.09</ele>
  <time>2026-08-27T17:17:24Z</time>
  <course>248.08</course>
  <speed>0.5546169849544819</speed>
  <fix>3d</fix>
</trkpt>
<trkpt lat="40.0714866" lon="-105.2294612">
  <ele>1583.0</ele>
  <time>2026-08-27T17:17:24Z</time>
  <course>65.94</course>
  <speed>0.72</speed>
  <fix>3d</fix>
</trkpt>
<trkpt lat="40.0714874" lon="-105.229459">
  <ele>1583.09</ele>
  <time>2026-08-27T17:17:24Z</time>
  <course>248.35</course>
  <speed>0.42485291572496003</speed>
  <fix>3d</fix>
</trkpt>
<trkpt lat="40.0714866" lon="-105.2294612">
  <ele>1583.0</ele>
  <time>2026-08-27T17:17:24Z</time>
  <course>65.94</course>
  <speed>0.72</speed>
  <fix>3d</fix>
</trkpt>
<trkpt lat="40.0714875" lon="-105.2294587">
  <ele>1583.09</ele>
  <time>2026-08-27T17:17:24Z</time>
  <course>248.7</course>
  <speed>0.304138126514911</speed>
  <fix>3d</fix>
</trkpt>
<trkpt lat="40.0714871" lon="-105.2294598">
  <ele>1583.0</ele>
  <time>2026-08-27T17:17:24Z</time>
  <course>66.03</course>
  <speed>0.52</speed>
  <fix>3d</fix>
</trkpt>
<trkpt lat="40.0714876" lon="-105.2294585">
  <ele>1583.09</ele>
  <time>2026-08-27T17:17:24Z</time>
  <course>249.04</course>
  <speed>0.18027756377319945</speed>
  <fix>3d</fix>
</trkpt>
<trkpt lat="40.0714871" lon="-105.2294598">
  <ele>1583.0</ele>
  <time>2026-08-27T17:17:24Z</time>
  <course>66.03</course>
  <speed>0.52</speed>
  <fix>3d</fix>
</trkpt>
<trkpt lat="40.0714876" lon="-105.2294584">
  <ele>1583.09</ele>
  <time>2026-08-27T17:17:24Z</time>
  <course>249.24</course>
  <speed>0.0848528137423857</speed>
  <fix>3d</fix>
</trkpt>
<trkpt lat="40.0714873" lon="-105.2294589">
  <ele>1583.0</ele>
  <time>2026-08-27T17:17:24Z</time>
  <course>66.51</course>
  <speed>0.27</speed>
  <fix>3d</fix>
</trkpt>
<trkpt lat="40.0714876" lon="-105.2294584">
  <ele>1583.09</ele>
  <time>2026-08-27T17:17:24Z</time>
  <course>249.32</course>
  <speed>0.03605551275463989</speed>
  <fix>3d</fix>
</trkpt>
<trkpt lat="40.0714873" lon="-105.2294589">
  <ele>1583.0</ele>
  <time>2026-08-27T17:17:24Z</time>
  <course>66.51</course>
  <speed>0.27</speed>
  <fix>3d</fix>
</trkpt>
<trkpt lat="40.0714876" lon="-105.2294586">
  <ele>1583.09</ele>
  <time>2026-08-27T17:17:24Z</time>
  <course>249.51</course>
  <speed>0.1414213562373095</speed>
  <fix>3d</fix>
</trkpt>
<trkpt lat="40.0714874" lon="-105.2294586">
  <ele>1583.0</ele>
  <time>2026-08-27T17:17:24Z</time>
  <course>66.82</course>
  <speed>0.04</speed>
  <fix>3d</fix>
</trkpt>
<trkpt lat="40.0714875" lon="-105.2294589">
  <ele>1583.09</ele>
  <time>2026-08-27T17:17:24Z</time>
  <course>250.07</course>
  <speed>0.2570992026436488</speed>
  <fix>3d</fix>
</trkpt>
<trkpt lat="40.0714874" lon="-105.2294586">
  <ele>1583.0</ele>
  <time>2026-08-27T17:17:24Z</time>
  <course>66.82</course>
  <speed>0.04</speed>
  <fix>3d</fix>
</trkpt>
<trkpt lat="40.0714874" lon="-105.2294593">
  <ele>1583.08</ele>
  <time>2026-08-27T17:17:24Z</time>
  <course>251.1</course>
  <speed>0.37107950630558945</speed>
  <fix>3d</fix>
</trkpt>
<trkpt lat="40.0714874" lon="-105.2294587">
  <ele>1583.0</ele>
  <time>2026-08-27T17:17:24Z</time>
  <course>248.17</course>
  <speed>0.17</speed>
  <fix>3d</fix>
</trkpt>
<trkpt lat="40.0714872" lon="-105.2294598">
  <ele>1583.09</ele>
  <time>2026-08-27T17:17:24Z</time>
  <course>252.7</course>
  <speed>0.49477267507411926</speed>
  <fix>3d</fix>
</trkpt>
<trkpt lat="40.0714874" lon="-105.2294587">
  <ele>1583.0</ele>
  <time>2026-08-27T17:17:24Z</time>
  <course>248.17</course>
  <speed>0.17</speed>
  <fix>3d</fix>
</trkpt>
<trkpt lat="40.0714871" lon="-105.2294603">
  <ele>1583.09</ele>
  <time>2026-08-27T17:17:24Z</time>
  <course>254.99</course>
  <speed>0.6161168720299746</speed>
  <fix>3d</fix>
</trkpt>
<trkpt lat="40.0714873" lon="-105.2294593">
  <ele>1583.0</ele>
  <time>2026-08-27T17:17:24Z</time>
  <course>250.39</course>
  <speed>0.4</speed>
  <fix>3d</fix>
</trkpt>
<trkpt lat="40.071487" lon="-105.2294612">
  <ele>1583.09</ele>
  <time>2026-08-27T17:17:24Z</time>
  <course>258.04</course>
  <speed>0.7433034373659253</speed>
  <fix>3d</fix>
</trkpt>
<trkpt lat="40.0714873" lon="-105.2294593">
  <ele>1583.0</ele>
  <time>2026-08-27T17:17:24Z</time>
  <course>250.39</course>
  <speed>0.4</speed>
  <fix>3d</fix>
</trkpt>
<trkpt lat="40.0714869" lon="-105.2294621">
  <ele>1583.09</ele>
  <time>2026-08-27T17:17:24Z</time>
  <course>261.94</course>
  <speed>0.8670063436907484</speed>
  <fix>3d</fix>
</trkpt>
<trkpt lat="40.0714871" lon="-105.2294604">
  <ele>1583.0</ele>
  <time>2026-08-27T17:17:24Z</time>
  <course>255.06</course>
  <speed>0.64</speed>
  <fix>3d</fix>
</trkpt>
<trkpt lat="40.0714868" lon="-105.2294632">
  <ele>1583.09</ele>
  <time>2026-08-27T17:17:24Z</time>
  <course>266.51</course>
  <speed>0.9812746812182611</speed>
  <fix>3d</fix>
</trkpt>
<trkpt lat="40.0714871" lon="-105.2294604">
  <ele>1583.0</ele>
  <time>2026-08-27T17:17:24Z</time>
  <course>255.06</course>
  <speed>0.64</speed>
  <fix>3d</fix>
</trkpt>
<trkpt lat="40.0714868" lon="-105.2294647">
  <ele>1583.09</ele>
  <time>2026-08-27T17:17:24Z</time>
  <course>272.23</course>
  <speed>1.120714058089752</speed>
  <fix>3d</fix>
</trkpt>
<trkpt lat="40.0714868" lon="-105.2294622">
  <ele>1583.0</ele>
  <time>2026-08-27T17:17:24Z</time>
  <course>262.57</course>
  <speed>0.87</speed>
  <fix>3d</fix>
</trkpt>
<trkpt lat="40.0714868" lon="-105.2294661">
  <ele>1583.09</ele>
  <time>2026-08-27T17:17:24Z</time>
  <course>276.8</course>
  <speed>1.2379418403139946</speed>
  <fix>3d</fix>
</trkpt>
<trkpt lat="40.0714868" lon="-105.2294622">
  <ele>1583.0</ele>
  <time>2026-08-27T17:17:24Z</time>
  <course>262.57</course>
  <speed>0.87</speed>
  <fix>3d</fix>
</trkpt>
<trkpt lat="40.071487" lon="-105.2294676">
  <ele>1583.09</ele>
  <time>2026-08-27T17:17:24Z</time>
  <course>281.1</course>
  <speed>1.3434656675925887</speed>
  <fix>3d</fix>
</trkpt>
<trkpt lat="40.0714867" lon="-105.2294646">
  <ele>1583.0</ele>
  <time>2026-08-27T17:17:24Z</time>
  <course>271.55</course>
  <speed>1.1</speed>
  <fix>3d</fix>
</trkpt>
<trkpt lat="40.0714872" lon="-105.2294692">
  <ele>1583.08</ele>
  <time>2026-08-27T17:17:24Z</time>
  <course>285.09</course>
  <speed>1.438401890988746</speed>
  <fix>3d</fix>
</trkpt>
<trkpt lat="40.0714867" lon="-105.2294646">
  <ele>1583.0</ele>
  <time>2026-08-27T17:17:24Z</time>
  <course>271.55</course>
  <speed>1.1</speed>
  <fix>3d</fix>
</trkpt>
<trkpt lat="40.0714876" lon="-105.2294709">
  <ele>1583.09</ele>
  <time>2026-08-27T17:17:24Z</time>
  <course>288.45</course>
  <speed>1.5368799562750501</speed>
  <fix>3d</fix>
</trkpt>
<trkpt lat="40.0714869" lon="-105.2294674">
  <ele>1583.0</ele>
  <time>2026-08-27T17:17:24Z</time>
  <course>280.1</course>
  <speed>1.31</speed>
  <fix>3d</fix>
</trkpt>
<trkpt lat="40.071488" lon="-105.2294727">
  <ele>1583.09</ele>
  <time>2026-08-27T17:17:24Z</time>
  <course>291.16</course>
  <speed>1.6175598906995685</speed>
  <fix>3d</fix>
</trkpt>
<trkpt lat="40.0714869" lon="-105.2294674">
  <ele>1583.0</ele>
  <time>2026-08-27T17:17:24Z</time>
  <course>280.1</course>
  <speed>1.31</speed>
  <fix>3d</fix>
</trkpt>
<trkpt lat="40.0714886" lon="-105.2294745">
  <ele>1583.09</ele>
  <time>2026-08-27T17:17:24Z</time>
  <course>293.38</course>
  <speed>1.6977926846349645</speed>
  <fix>3d</fix>
</trkpt>
<trkpt lat="40.0714875" lon="-105.2294706">
  <ele>1583.0</ele>
  <time>2026-08-27T17:17:24Z</time>
  <course>286.96</course>
  <speed>1.5</speed>
  <fix>3d</fix>
</trkpt>
<trkpt lat="40.0714892" lon="-105.2294763">
  <ele>1583.09</ele>
  <time>2026-08-27T17:17:24Z</time>
  <course>295.23</course>
  <speed>1.7628386199536246</speed>
  <fix>3d</fix>
</trkpt>
<trkpt lat="40.0714875" lon="-105.2294706">
  <ele>1583.0</ele>
  <time>2026-08-27T17:17:24Z</time>
  <course>286.96</course>
  <speed>1.5</speed>
  <fix>3d</fix>
</trkpt>
<trkpt lat="40.0714899" lon="-105.2294782">
  <ele>1583.09</ele>
  <time>2026-08-27T17:17:24Z</time>
  <course>296.76</course>
  <speed>1.820164827701052</speed>
  <fix>3d</fix>
</trkpt>
<trkpt lat="40.0714884" lon="-105.2294741">
  <ele>1583.0</ele>
  <time>2026-08-27T17:17:24Z</time>
  <course>291.76</course>
  <speed>1.66</speed>
  <fix>3d</fix>
</trkpt>
<trkpt lat="40.0714906" lon="-105.2294801">
  <ele>1583.09</ele>
  <time>2026-08-27T17:17:24Z</time>
  <course>298.07</course>
  <speed>1.8741664813991312</speed>
  <fix>3d</fix>
</trkpt>
<trkpt lat="40.0714884" lon="-105.2294741">
  <ele>1583.0</ele>
  <time>2026-08-27T17:17:24Z</time>
  <course>291.76</course>
  <speed>1.66</speed>
  <fix>3d</fix>
</trkpt>
<trkpt lat="40.0714914" lon="-105.229482">
  <ele>1583.09</ele>
  <time>2026-08-27T17:17:24Z</time>
  <course>299.16</course>
  <speed>1.9154111830100606</speed>
  <fix>3d</fix>
</trkpt>
<trkpt lat="40.0714897" lon="-105.2294778">
  <ele>1583.0</ele>
  <time>2026-08-27T17:17:24Z</time>
  <course>295.07</course>
  <speed>1.78</speed>
  <fix>3d</fix>
</trkpt>
<trkpt lat="40.071492" lon="-105.2294836">
  <ele>1583.09</ele>
  <time>2026-08-27T17:17:24Z</time>
  <course>299.91</course>
  <speed>1.9523319389898839</speed>
  <fix>3d</fix>
</trkpt>
<trkpt lat="40.0714897" lon="-105.2294778">
  <ele>1583.0</ele>
  <time>2026-08-27T17:17:24Z</time>
  <course>295.07</course>
  <speed>1.78</speed>
  <fix>3d</fix>
</trkpt>
<trkpt lat="40.0714929" lon="-105.2294855">
  <ele>1583.09</ele>
  <time>2026-08-27T17:17:24Z</time>
  <course>300.71</course>
  <speed>1.989572818471342</speed>
  <fix>3d</fix>
</trkpt>
<trkpt lat="40.0714911" lon="-105.2294817">
  <ele>1583.0</ele>
  <time>2026-08-27T17:17:24Z</time>
  <course>297.42</course>
  <speed>1.88</speed>
  <fix>3d</fix>
</trkpt>
<trkpt lat="40.0714938" lon="-105.2294876">
  <ele>1583.09</ele>
  <time>2026-08-27T17:17:24Z</time>
  <course>301.39</course>
  <speed>2.018539075668341</speed>
  <fix>3d</fix>
</trkpt>
<trkpt lat="40.0714911" lon="-105.2294817">
  <ele>1583.0</ele>
  <time>2026-08-27T17:17:24Z</time>
  <course>297.42</course>
  <speed>1.88</speed>
  <fix>3d</fix>
</trkpt>
<trkpt lat="40.0714947" lon="-105.2294896">
  <ele>1583.1</ele>
  <time>2026-08-27T17:17:24Z</time>
  <course>301.96</course>
  <speed>2.0511947737842937</speed>
  <fix>3d</fix>
</trkpt>
<trkpt lat="40.0714927" lon="-105.2294857">
  <ele>1583.0</ele>
  <time>2026-08-27T17:17:24Z</time>
  <course>299.09</course>
  <speed>1.95</speed>
  <fix>3d</fix>
</trkpt>
<trkpt lat="40.0714956" lon="-105.2294916">
  <ele>1583.1</ele>
  <time>2026-08-27T17:17:24Z</time>
  <course>302.45</course>
  <speed>2.0754758490524527</speed>
  <fix>3d</fix>
</trkpt>
<trkpt lat="40.0714927" lon="-105.2294857">
  <ele>1583.0</ele>
  <time>2026-08-27T17:17:24Z</time>
  <course>299.09</course>
  <speed>1.95</speed>
  <fix>3d</fix>
</trkpt>
<trkpt lat="40.0714966" lon="-105.2294937">
  <ele>1583.1</ele>
  <time>2026-08-27T17:17:24Z</time>
  <course>302.87</course>
  <speed>2.094588265029669</speed>
  <fix>3d</fix>
</trkpt>
<trkpt lat="40.0714945" lon="-105.2294897">
  <ele>1583.0</ele>
  <time>2026-08-27T17:17:24Z</time>
  <course>300.29</course>
  <speed>2.01</speed>
  <fix>3d</fix>
</trkpt>
<trkpt lat="40.0714975" lon="-105.2294958">
  <ele>1583.1</ele>
  <time>2026-08-27T17:17:24Z</time>
  <course>303.22</course>
  <speed>2.113764414498456</speed>
  <fix>3d</fix>
</trkpt>
<trkpt lat="40.0714945" lon="-105.2294897">
  <ele>1583.0</ele>
  <time>2026-08-27T17:17:24Z</time>
  <course>300.29</course>
  <speed>2.01</speed>
  <fix>3d</fix>
</trkpt>
<trkpt lat="40.0714986" lon="-105.2294979">
  <ele>1583.1</ele>
  <time>2026-08-27T17:17:24Z</time>
  <course>303.53</course>
  <speed>2.1330025785263365</speed>
  <fix>3d</fix>
</trkpt>
<trkpt lat="40.0714964" lon="-105.2294938">
  <ele>1583.0</ele>
  <time>2026-08-27T17:17:24Z</time>
  <course>301.17</course>
  <speed>2.06</speed>
  <fix>3d</fix>
</trkpt>
<trkpt lat="40.0714996" lon="-105.2295">
  <ele>1583.1</ele>
  <time>2026-08-27T17:17:24Z</time>
  <course>303.8</course>
  <speed>2.1468348795377814</speed>
  <fix>3d</fix>
</trkpt>
<trkpt lat="40.0714964" lon="-105.2294938">
  <ele>1583.0</ele>
  <time>2026-08-27T17:17:24Z</time>
  <course>301.17</course>
  <speed>2.06</speed>
  <fix>3d</fix>
</trkpt>
<trkpt lat="40.0715006" lon="-105.2295021">
  <ele>1583.1</ele>
  <time>2026-08-27T17:17:24Z</time>
  <course>304.02</course>
  <speed>2.1661486560252508</speed>
  <fix>3d</fix>
</trkpt>
<trkpt lat="40.0714983" lon="-105.2294979">
  <ele>1583.0</ele>
  <time>2026-08-27T17:17:24Z</time>
  <course>301.81</course>
  <speed>2.09</speed>
  <fix>3d</fix>
</trkpt>
<trkpt lat="40.0715018" lon="-105.2295047">
  <ele>1583.1</ele>
  <time>2026-08-27T17:17:24Z</time>
  <course>304.25</course>
  <speed>2.171658352503911</speed>
  <fix>3d</fix>
</trkpt>
<trkpt lat="40.0714983" lon="-105.2294979">
  <ele>1583.0</ele>
  <time>2026-08-27T17:17:24Z</time>
  <course>301.81</course>
  <speed>2.09</speed>
  <fix>3d</fix>
</trkpt>
<trkpt lat="40.0715029" lon="-105.2295068">
  <ele>1583.11</ele>
  <time>2026-08-27T17:17:24Z</time>
  <course>304.41</course>
  <speed>2.185520532962342</speed>
  <fix>3d</fix>
</trkpt>
<trkpt lat="40.0715004" lon="-105.2295022">
  <ele>1583.0</ele>
  <time>2026-08-27T17:17:24Z</time>
  <course>302.28</course>
  <speed>2.12</speed>
  <fix>3d</fix>
</trkpt>
<trkpt lat="40.0715039" lon="-105.2295089">
  <ele>1583.11</ele>
  <time>2026-08-27T17:17:24Z</time>
  <course>304.54</course>
  <speed>2.185520532962342</speed>
  <fix>3d</fix>
</trkpt>
<trkpt lat="40.0715004" lon="-105.2295022">
  <ele>1583.0</ele>
  <time>2026-08-27T17:17:24Z</time>
  <course>302.28</course>
  <speed>2.12</speed>
  <fix>3d</fix>
</trkpt>
<trkpt lat="40.071505" lon="-105.2295111">
  <ele>1583.11</ele>
  <time>2026-08-27T17:17:24Z</time>
  <course>304.66</course>
  <speed>2.1993862780330335</speed>
  <fix>3d</fix>
</trkpt>
<trkpt lat="40.0715024" lon="-105.2295064">
  <ele>1583.0</ele>
  <time>2026-08-27T17:17:24Z</time>
  <course>302.62</course>
  <speed>2.14</speed>
  <fix>3d</fix>
</trkpt>
<trkpt lat="40.071506" lon="-105.2295132">
  <ele>1583.11</ele>
  <time>2026-08-27T17:17:24Z</time>
  <course>304.75</course>
  <speed>2.1993862780330335</speed>
  <fix>3d</fix>
</trkpt>
<trkpt lat="40.0715024" lon="-105.2295064">
  <ele>1583.0</ele>
  <time>2026-08-27T17:17:24Z</time>
  <course>302.62</course>
  <speed>2.14</speed>
  <fix>3d</fix>
</trkpt>
<trkpt lat="40.0715071" lon="-105.2295153">
  <ele>1583.11</ele>
  <time>2026-08-27T17:17:24Z</time>
  <course>304.84</course>
  <speed>2.2049489790015553</speed>
  <fix>3d</fix>
</trkpt>
<trkpt lat="40.0715045" lon="-105.2295106">
  <ele>1583.0</ele>
  <time>2026-08-27T17:17:24Z</time>
  <course>302.87</course>
  <speed>2.15</speed>
  <fix>3d</fix>
</trkpt>
<trkpt lat="40.0715081" lon="-105.2295175">
  <ele>1583.11</ele>
  <time>2026-08-27T17:17:24Z</time>
  <course>304.9</course>
  <speed>2.2049489790015553</speed>
  <fix>3d</fix>
</trkpt>
<trkpt lat="40.0715045" lon="-105.2295106">
  <ele>1583.0</ele>
  <time>2026-08-27T17:17:24Z</time>
  <course>302.87</course>
  <speed>2.15</speed>
  <fix>3d</fix>
</trkpt>
<trkpt lat="40.0715092" lon="-105.2295196">
  <ele>1583.11</ele>
  <time>2026-08-27T17:17:24Z</time>
  <course>304.96</course>
  <speed>2.2049489790015553</speed>
  <fix>3d</fix>
</trkpt>
<trkpt lat="40.0715066" lon="-105.2295149">
  <ele>1583.0</ele>
  <time>2026-08-27T17:17:24Z</time>
  <course>303.04</course>
  <speed>2.16</speed>
  <fix>3d</fix>
</trkpt>
<trkpt lat="40.0715102" lon="-105.2295217">
  <ele>1583.11</ele>
  <time>2026-08-27T17:17:24Z</time>
  <course>305.01</course>
  <speed>2.2049489790015553</speed>
  <fix>3d</fix>
</trkpt>
<trkpt lat="40.0715066" lon="-105.2295149">
  <ele>1583.0</ele>
  <time>2026-08-27T17:17:24Z</time>
  <course>303.04</course>
  <speed>2.16</speed>
  <fix>3d</fix>
</trkpt>
<trkpt lat="40.0715113" lon="-105.2295238">
  <ele>1583.12</ele>
  <time>2026-08-27T17:17:24Z</time>
  <course>305.04</course>
  <speed>2.2049489790015553</speed>
  <fix>3d</fix>
</trkpt>
<trkpt lat="40.0715087" lon="-105.2295192">
  <ele>1583.0</ele>
  <time>2026-08-27T17:17:24Z</time>
  <course>303.17</course>
  <speed>2.17</speed>
  <fix>3d</fix>
</trkpt>
<trkpt lat="40.0715123" lon="-105.2295259">
  <ele>1583.12</ele>
  <time>2026-08-27T17:17:24Z</time>
  <course>305.07</course>
  <speed>2.2049489790015553</speed>
  <fix>3d</fix>
</trkpt>
<trkpt lat="40.0715087" lon="-105.2295192">
  <ele>1583.0</ele>
  <time>2026-08-27T17:17:24Z</time>
  <course>303.17</course>
  <speed>2.17</speed>
  <fix>3d</fix>
</trkpt>
<trkpt lat="40.0715132" lon="-105.2295276">
  <ele>1583.13</ele>
  <time>2026-08-27T17:17:24Z</time>
  <course>305.09</course>
  <speed>2.2049489790015553</speed>
  <fix>3d</fix>
</trkpt>
<trkpt lat="40.0715109" lon="-105.2295235">
  <ele>1583.0</ele>
  <time>2026-08-27T17:17:24Z</time>
  <course>303.25</course>
  <speed>2.18</speed>
  <fix>3d</fix>
</trkpt>
<trkpt lat="40.0715143" lon="-105.2295297">
  <ele>1583.13</ele>
  <time>2026-08-27T17:17:24Z</time>
  <course>305.12</course>
  <speed>2.2049489790015553</speed>
  <fix>3d</fix>
</trkpt>
<trkpt lat="40.0715109" lon="-105.2295235">
  <ele>1583.0</ele>
  <time>2026-08-27T17:17:24Z</time>
  <course>303.25</course>
  <speed>2.18</speed>
  <fix>3d</fix>
</trkpt>
<trkpt lat="40.0715153" lon="-105.2295319">
  <ele>1583.13</ele>
  <time>2026-08-27T17:17:24Z</time>
  <course>305.14</course>
  <speed>2.2132555207205518</speed>
  <fix>3d</fix>
</trkpt>
<trkpt lat="40.0715131" lon="-105.2295278">
  <ele>1583.0</ele>
  <time>2026-08-27T17:17:24Z</time>
  <course>303.31</course>
  <speed>2.18</speed>
  <fix>3d</fix>
</trkpt>
<trkpt lat="40.0715164" lon="-105.229534">
  <ele>1583.13</ele>
  <time>2026-08-27T17:17:24Z</time>
  <course>305.14</course>
  <speed>2.2132555207205518</speed>
  <fix>3d</fix>
</trkpt>
<trkpt lat="40.0715131" lon="-105.2295278">
  <ele>1583.0</ele>
  <time>2026-08-27T17:17:24Z</time>
  <course>303.31</course>
  <speed>2.18</speed>
  <fix>3d</fix>
</trkpt>
<trkpt lat="40.0715174" lon="-105.2295362">
  <ele>1583.13</ele>
  <time>2026-08-27T17:17:24Z</time>
  <course>305.15</course>
  <speed>2.2077137495608437</speed>
  <fix>3d</fix>
</trkpt>
<trkpt lat="40.0715152" lon="-105.229532">
  <ele>1583.0</ele>
  <time>2026-08-27T17:17:24Z</time>
  <course>303.34</course>
  <speed>2.19</speed>
  <fix>3d</fix>
</trkpt>
<trkpt lat="40.0715185" lon="-105.2295383">
  <ele>1583.13</ele>
  <time>2026-08-27T17:17:24Z</time>
  <course>305.15</course>
  <speed>2.2077137495608437</speed>
  <fix>3d</fix>
</trkpt>
<trkpt lat="40.0715152" lon="-105.229532">
  <ele>1583.0</ele>
  <time>2026-08-27T17:17:24Z</time>
  <course>303.34</course>
  <speed>2.19</speed>
  <fix>3d</fix>
</trkpt>
<trkpt lat="40.0715196" lon="-105.2295405">
  <ele>1583.13</ele>
  <time>2026-08-27T17:17:24Z</time>
  <course>305.15</course>
  <speed>2.2077137495608437</speed>
  <fix>3d</fix>
</trkpt>
<trkpt lat="40.0715174" lon="-105.2295364">
  <ele>1583.0</ele>
  <time>2026-08-27T17:17:24Z</time>
  <course>303.34</course>
  <speed>2.19</speed>
  <fix>3d</fix>
</trkpt>
<trkpt lat="40.0715207" lon="-105.2295427">
  <ele>1583.13</ele>
  <time>2026-08-27T17:17:24Z</time>
  <course>305.15</course>
  <speed>2.2077137495608437</speed>
  <fix>3d</fix>
</trkpt>
<trkpt lat="40.0715174" lon="-105.2295364">
  <ele>1583.0</ele>
  <time>2026-08-27T17:17:24Z</time>
  <course>303.34</course>
  <speed>2.19</speed>
  <fix>3d</fix>
</trkpt>
<trkpt lat="40.0715218" lon="-105.2295448">
  <ele>1583.13</ele>
  <time>2026-08-27T17:17:24Z</time>
  <course>305.15</course>
  <speed>2.2077137495608437</speed>
  <fix>3d</fix>
</trkpt>
<trkpt lat="40.0715196" lon="-105.2295407">
  <ele>1583.0</ele>
  <time>2026-08-27T17:17:24Z</time>
  <course>303.34</course>
  <speed>2.19</speed>
  <fix>3d</fix>
</trkpt>
<trkpt lat="40.0715229" lon="-105.229547">
  <ele>1583.13</ele>
  <time>2026-08-27T17:17:24Z</time>
  <course>305.15</course>
  <speed>2.2077137495608437</speed>
  <fix>3d</fix>
</trkpt>
<trkpt lat="40.0715196" lon="-105.2295407">
  <ele>1583.0</ele>
  <time>2026-08-27T17:17:24Z</time>
  <course>303.34</course>
  <speed>2.19</speed>
  <fix>3d</fix>
</trkpt>
<trkpt lat="40.0715242" lon="-105.2295496">
  <ele>1583.12</ele>
  <time>2026-08-27T17:17:24Z</time>
  <course>305.15</course>
  <speed>2.2077137495608437</speed>
  <fix>3d</fix>
</trkpt>
<trkpt lat="40.0715218" lon="-105.229545">
  <ele>1583.0</ele>
  <time>2026-08-27T17:17:24Z</time>
  <course>303.34</course>
  <speed>2.2</speed>
  <fix>3d</fix>
</trkpt>
<trkpt lat="40.0715253" lon="-105.2295518">
  <ele>1583.12</ele>
  <time>2026-08-27T17:17:24Z</time>
  <course>305.15</course>
  <speed>2.2077137495608437</speed>
  <fix>3d</fix>
</trkpt>
<trkpt lat="40.0715218" lon="-105.229545">
  <ele>1583.0</ele>
  <time>2026-08-27T17:17:24Z</time>
  <course>303.34</course>
  <speed>2.2</speed>
  <fix>3d</fix>
</trkpt>
<trkpt lat="40.0715263" lon="-105.229554">
  <ele>1583.12</ele>
  <time>2026-08-27T17:17:24Z</time>
  <course>305.15</course>
  <speed>2.2077137495608437</speed>
  <fix>3d</fix>
</trkpt>
<trkpt lat="40.0715239" lon="-105.2295493">
  <ele>1583.0</ele>
  <time>2026-08-27T17:17:24Z</time>
  <course>303.34</course>
  <speed>2.2</speed>
  <fix>3d</fix>
</trkpt>
<trkpt lat="40.0715274" lon="-105.2295561">
  <ele>1583.12</ele>
  <time>2026-08-27T17:17:24Z</time>
  <course>305.15</course>
  <speed>2.2077137495608437</speed>
  <fix>3d</fix>
</trkpt>
<trkpt lat="40.0715239" lon="-105.2295493">
  <ele>1583.0</ele>
  <time>2026-08-27T17:17:24Z</time>
  <course>303.34</course>
  <speed>2.2</speed>
  <fix>3d</fix>
</trkpt>
<trkpt lat="40.0715285" lon="-105.2295583">
  <ele>1583.11</ele>
  <time>2026-08-27T17:17:24Z</time>
  <course>305.15</course>
  <speed>2.2077137495608437</speed>
  <fix>3d</fix>
</trkpt>
<trkpt lat="40.0715261" lon="-105.2295536">
  <ele>1583.0</ele>
  <time>2026-08-27T17:17:24Z</time>
  <course>303.34</course>
  <speed>2.2</speed>
  <fix>3d</fix>
</trkpt>
<trkpt lat="40.0715296" lon="-105.2295605">
  <ele>1583.11</ele>
  <time>2026-08-27T17:17:24Z</time>
  <course>305.15</course>
  <speed>2.2077137495608437</speed>
  <fix>3d</fix>
</trkpt>
<trkpt lat="40.0715261" lon="-105.2295536">
  <ele>1583.0</ele>
  <time>2026-08-27T17:17:24Z</time>
  <course>303.34</course>
  <speed>2.2</speed>
  <fix>3d</fix>
</trkpt>
<trkpt lat="40.0715307" lon="-105.2295626">
  <ele>1583.11</ele>
  <time>2026-08-27T17:17:24Z</time>
  <course>305.16</course>
  <speed>2.202203442009843</speed>
  <fix>3d</fix>
</trkpt>
<trkpt lat="40.0715283" lon="-105.229558">
  <ele>1583.0</ele>
  <time>2026-08-27T17:17:24Z</time>
  <course>303.34</course>
  <speed>2.2</speed>
  <fix>3d</fix>
</trkpt>
<trkpt lat="40.0715318" lon="-105.2295648">
  <ele>1583.11</ele>
  <time>2026-08-27T17:17:24Z</time>
  <course>305.16</course>
  <speed>2.202203442009843</speed>
  <fix>3d</fix>
</trkpt>
<trkpt lat="40.0715283" lon="-105.229558">
  <ele>1583.0</ele>
  <time>2026-08-27T17:17:24Z</time>
  <course>303.34</course>
  <speed>2.2</speed>
  <fix>3d</fix>
</trkpt>
<trkpt lat="40.0715328" lon="-105.2295669">
  <ele>1583.11</ele>
  <time>2026-08-27T17:17:24Z</time>
  <course>305.16</course>
  <speed>2.202203442009843</speed>
  <fix>3d</fix>
</trkpt>
<trkpt lat="40.0715304" lon="-105.2295623">
  <ele>1583.0</ele>
  <time>2026-08-27T17:17:24Z</time>
  <course>303.34</course>
  <speed>2.2</speed>
  <fix>3d</fix>
</trkpt>
<trkpt lat="40.0715339" lon="-105.229569">
  <ele>1583.11</ele>
  <time>2026-08-27T17:17:24Z</time>
  <course>305.16</course>
  <speed>2.193855054464629</speed>
  <fix>3d</fix>
</trkpt>
<trkpt lat="40.0715304" lon="-105.2295623">
  <ele>1583.0</ele>
  <time>2026-08-27T17:17:24Z</time>
  <course>303.34</course>
  <speed>2.2</speed>
  <fix>3d</fix>
</trkpt>
<trkpt lat="40.071535" lon="-105.2295712">
  <ele>1583.12</ele>
  <time>2026-08-27T17:17:24Z</time>
  <course>305.16</course>
  <speed>2.193855054464629</speed>
  <fix>3d</fix>
</trkpt>
<trkpt lat="40.0715326" lon="-105.2295666">
  <ele>1583.0</ele>
  <time>2026-08-27T17:17:24Z</time>
  <course>303.34</course>
  <speed>2.2</speed>
  <fix>3d</fix>
</trkpt>
<trkpt lat="40.0715358" lon="-105.2295729">
  <ele>1583.12</ele>
  <time>2026-08-27T17:17:24Z</time>
  <course>305.16</course>
  <speed>2.193855054464629</speed>
  <fix>3d</fix>
</trkpt>
<trkpt lat="40.0715326" lon="-105.2295666">
  <ele>1583.0</ele>
  <time>2026-08-27T17:17:24Z</time>
  <course>303.34</course>
  <speed>2.2</speed>
  <fix>3d</fix>
</trkpt>
<trkpt lat="40.0715369" lon="-105.229575">
  <ele>1583.12</ele>
  <time>2026-08-27T17:17:24Z</time>
  <course>305.16</course>
  <speed>2.193855054464629</speed>
  <fix>3d</fix>
</trkpt>
<trkpt lat="40.0715347" lon="-105.2295709">
  <ele>1583.0</ele>
  <time>2026-08-27T17:17:24Z</time>
  <course>303.34</course>
  <speed>2.2</speed>
  <fix>3d</fix>
</trkpt>
<trkpt lat="40.071538" lon="-105.2295772">
  <ele>1583.13</ele>
  <time>2026-08-27T17:17:24Z</time>
  <course>305.17</course>
  <speed>2.1883555469804263</speed>
  <fix>3d</fix>
</trkpt>
<trkpt lat="40.0715347" lon="-105.2295709">
  <ele>1583.0</ele>
  <time>2026-08-27T17:17:24Z</time>
  <course>303.34</course>
  <speed>2.2</speed>
  <fix>3d</fix>
</trkpt>
<trkpt lat="40.071539" lon="-105.2295793">
  <ele>1583.13</ele>
  <time>2026-08-27T17:17:24Z</time>
  <course>305.18</course>
  <speed>2.1883555469804263</speed>
  <fix>3d</fix>
</trkpt>
<trkpt lat="40.071537" lon="-105.2295752">
  <ele>1583.0</ele>
  <time>2026-08-27T17:17:24Z</time>
  <course>303.35</course>
  <speed>2.2</speed>
  <fix>3d</fix>
</trkpt>
<trkpt lat="40.0715401" lon="-105.2295815">
  <ele>1583.13</ele>
  <time>2026-08-27T17:17:24Z</time>
  <course>305.19</course>
  <speed>2.1883555469804263</speed>
  <fix>3d</fix>
</trkpt>
<trkpt lat="40.071537" lon="-105.2295752">
  <ele>1583.0</ele>
  <time>2026-08-27T17:17:24Z</time>
  <course>303.35</course>
  <speed>2.2</speed>
  <fix>3d</fix>
</trkpt>
<trkpt lat="40.0715412" lon="-105.2295836">
  <ele>1583.13</ele>
  <time>2026-08-27T17:17:24Z</time>
  <course>305.2</course>
  <speed>2.1883555469804263</speed>
  <fix>3d</fix>
</trkpt>
<trkpt lat="40.0715391" lon="-105.2295796">
  <ele>1583.0</ele>
  <time>2026-08-27T17:17:24Z</time>
  <course>303.36</course>
  <speed>2.2</speed>
  <fix>3d</fix>
</trkpt>
<trkpt lat="40.0715423" lon="-105.2295858">
  <ele>1583.12</ele>
  <time>2026-08-27T17:17:24Z</time>
  <course>305.21</course>
  <speed>2.1883555469804263</speed>
  <fix>3d</fix>
</trkpt>
<trkpt lat="40.0715391" lon="-105.2295796">
  <ele>1583.0</ele>
  <time>2026-08-27T17:17:24Z</time>
  <course>303.36</course>
  <speed>2.2</speed>
  <fix>3d</fix>
</trkpt>
<trkpt lat="40.0715434" lon="-105.229588">
  <ele>1583.12</ele>
  <time>2026-08-27T17:17:24Z</time>
  <course>305.22</course>
  <speed>2.18</speed>
  <fix>3d</fix>
</trkpt>
<trkpt lat="40.0715414" lon="-105.2295839">
  <ele>1583.0</ele>
  <time>2026-08-27T17:17:24Z</time>
  <course>303.38</course>
  <speed>2.2</speed>
  <fix>3d</fix>
</trkpt>
<trkpt lat="40.0715445" lon="-105.2295901">
  <ele>1583.12</ele>
  <time>2026-08-27T17:17:24Z</time>
  <course>305.23</course>
  <speed>2.18</speed>
  <fix>3d</fix>
</trkpt>
<trkpt lat="40.0715414" lon="-105.2295839">
  <ele>1583.0</ele>
  <time>2026-08-27T17:17:24Z</time>
  <course>303.38</course>
  <speed>2.2</speed>
  <fix>3d</fix>
</trkpt>
<trkpt lat="40.0715456" lon="-105.2295923">
  <ele>1583.11</ele>
  <time>2026-08-27T17:17:24Z</time>
  <course>305.23</course>
  <speed>2.18</speed>
  <fix>3d</fix>
</trkpt>
<trkpt lat="40.0715435" lon="-105.2295882">
  <ele>1583.0</ele>
  <time>2026-08-27T17:17:24Z</time>
  <course>303.39</course>
  <speed>2.2</speed>
  <fix>3d</fix>
</trkpt>
<trkpt lat="40.0715469" lon="-105.2295949">
  <ele>1583.11</ele>
  <time>2026-08-27T17:17:24Z</time>
  <course>305.23</course>
  <speed>2.18</speed>
  <fix>3d</fix>
</trkpt>
<trkpt lat="40.0715435" lon="-105.2295882">
  <ele>1583.0</ele>
  <time>2026-08-27T17:17:24Z</time>
  <course>303.39</course>
  <speed>2.2</speed>
  <fix>3d</fix>
</trkpt>
<trkpt lat="40.071548" lon="-105.2295971">
  <ele>1583.1</ele>
  <time>2026-08-27T17:17:24Z</time>
  <course>305.23</course>
  <speed>2.18</speed>
  <fix>3d</fix>
</trkpt>
<trkpt lat="40.0715457" lon="-105.2295925">
  <ele>1583.0</ele>
  <time>2026-08-27T17:17:24Z</time>
  <course>303.4</course>
  <speed>2.2</speed>
  <fix>3d</fix>
</trkpt>
<trkpt lat="40.0715491" lon="-105.2295992">
  <ele>1583.1</ele>
  <time>2026-08-27T17:17:24Z</time>
  <course>305.23</course>
  <speed>2.18</speed>
  <fix>3d</fix>
</trkpt>
<trkpt lat="40.0715457" lon="-105.2295925">
  <ele>1583.0</ele>
  <time>2026-08-27T17:17:24Z</time>
  <course>303.4</course>
  <speed>2.2</speed>
  <fix>3d</fix>
</trkpt>
<trkpt lat="40.0715502" lon="-105.2296014">
  <ele>1583.09</ele>
  <time>2026-08-27T17:17:24Z</time>
  <course>305.23</course>
  <speed>2.18</speed>
  <fix>3d</fix>
</trkpt>
<trkpt lat="40.0715479" lon="-105.2295969">
  <ele>1583.0</ele>
  <time>2026-08-27T17:17:24Z</time>
  <course>303.4</course>
  <speed>2.2</speed>
  <fix>3d</fix>
</trkpt>
<trkpt lat="40.0715513" lon="-105.2296035">
  <ele>1583.09</ele>
  <time>2026-08-27T17:17:24Z</time>
  <course>305.24</course>
  <speed>2.18</speed>
  <fix>3d</fix>
</trkpt>
<trkpt lat="40.0715479" lon="-105.2295969">
  <ele>1583.0</ele>
  <time>2026-08-27T17:17:24Z</time>
  <course>303.4</course>
  <speed>2.2</speed>
  <fix>3d</fix>
</trkpt>
<trkpt lat="40.0715523" lon="-105.2296057">
  <ele>1583.08</ele>
  <time>2026-08-27T17:17:24Z</time>
  <course>305.24</course>
  <speed>2.18</speed>
  <fix>3d</fix>
</trkpt>
<trkpt lat="40.07155" lon="-105.2296012">
  <ele>1583.0</ele>
  <time>2026-08-27T17:17:24Z</time>
  <course>303.4</course>
  <speed>2.2</speed>
  <fix>3d</fix>
</trkpt>
<trkpt lat="40.0715534" lon="-105.2296078">
  <ele>1583.08</ele>
  <time>2026-08-27T17:17:24Z</time>
  <course>305.24</course>
  <speed>2.18</speed>
  <fix>3d</fix>
</trkpt>
<trkpt lat="40.07155" lon="-105.2296012">
  <ele>1583.0</ele>
  <time>2026-08-27T17:17:24Z</time>
  <course>303.4</course>
  <speed>2.2</speed>
  <fix>3d</fix>
</trkpt>
<trkpt lat="40.0715545" lon="-105.22961">
  <ele>1583.08</ele>
  <time>2026-08-27T17:17:24Z</time>
  <course>305.24</course>
  <speed>2.18</speed>
  <fix>3d</fix>
</trkpt>
<trkpt lat="40.0715522" lon="-105.2296056">
  <ele>1583.0</ele>
  <time>2026-08-27T17:17:24Z</time>
  <course>303.4</course>
  <speed>2.2</speed>
  <fix>3d</fix>
</trkpt>
<trkpt lat="40.0715556" lon="-105.2296121">
  <ele>1583.07</ele>
  <time>2026-08-27T17:17:24Z</time>
  <course>305.24</course>
  <speed>2.171658352503911</speed>
  <fix>3d</fix>
</trkpt>
<trkpt lat="40.0715522" lon="-105.2296056">
  <ele>1583.0</ele>
  <time>2026-08-27T17:17:24Z</time>
  <course>303.4</course>
  <speed>2.2</speed>
  <fix>3d</fix>
</trkpt>
<trkpt lat="40.0715566" lon="-105.2296142">
  <ele>1583.07</ele>
  <time>2026-08-27T17:17:24Z</time>
  <course>305.25</course>
  <speed>2.171658352503911</speed>
  <fix>3d</fix>
</trkpt>
<trkpt lat="40.0715545" lon="-105.2296099">
  <ele>1583.0</ele>
  <time>2026-08-27T17:17:24Z</time>
  <course>303.4</course>
  <speed>2.2</speed>
  <fix>3d</fix>
</trkpt>
<trkpt lat="40.0715577" lon="-105.2296164">
  <ele>1583.07</ele>
  <time>2026-08-27T17:17:24Z</time>
  <course>305.25</course>
  <speed>2.171658352503911</speed>
  <fix>3d</fix>
</trkpt>
<trkpt lat="40.0715545" lon="-105.2296099">
  <ele>1583.0</ele>
  <time>2026-08-27T17:17:24Z</time>
  <course>303.4</course>
  <speed>2.2</speed>
  <fix>3d</fix>
</trkpt>
<trkpt lat="40.0715586" lon="-105.2296181">
  <ele>1583.08</ele>
  <time>2026-08-27T17:17:24Z</time>
  <course>305.25</course>
  <speed>2.171658352503911</speed>
  <fix>3d</fix>
</trkpt>
<trkpt lat="40.0715567" lon="-105.2296142">
  <ele>1583.0</ele>
  <time>2026-08-27T17:17:24Z</time>
  <course>303.4</course>
  <speed>2.2</speed>
  <fix>3d</fix>
</trkpt>
<trkpt lat="40.0715597" lon="-105.2296202">
  <ele>1583.08</ele>
  <time>2026-08-27T17:17:24Z</time>
  <course>305.25</course>
  <speed>2.171658352503911</speed>
  <fix>3d</fix>
</trkpt>
<trkpt lat="40.0715567" lon="-105.2296142">
  <ele>1583.0</ele>
  <time>2026-08-27T17:17:24Z</time>
  <course>303.4</course>
  <speed>2.2</speed>
  <fix>3d</fix>
</trkpt>
<trkpt lat="40.0715608" lon="-105.2296224">
  <ele>1583.08</ele>
  <time>2026-08-27T17:17:24Z</time>
  <course>305.25</course>
  <speed>2.171658352503911</speed>
  <fix>3d</fix>
</trkpt>
<trkpt lat="40.0715588" lon="-105.2296185">
  <ele>1583.0</ele>
  <time>2026-08-27T17:17:24Z</time>
  <course>303.4</course>
  <speed>2.2</speed>
  <fix>3d</fix>
</trkpt>
<trkpt lat="40.0715619" lon="-105.2296245">
  <ele>1583.08</ele>
  <time>2026-08-27T17:17:24Z</time>
  <course>305.25</course>
  <speed>2.171658352503911</speed>
  <fix>3d</fix>
</trkpt>
<trkpt lat="40.0715588" lon="-105.2296185">
  <ele>1583.0</ele>
  <time>2026-08-27T17:17:24Z</time>
  <course>303.4</course>
  <speed>2.2</speed>
  <fix>3d</fix>
</trkpt>
<trkpt lat="40.071563" lon="-105.2296267">
  <ele>1583.08</ele>
  <time>2026-08-27T17:17:24Z</time>
  <course>305.26</course>
  <speed>2.171658352503911</speed>
  <fix>3d</fix>
</trkpt>
<trkpt lat="40.071561" lon="-105.2296229">
  <ele>1583.0</ele>
  <time>2026-08-27T17:17:24Z</time>
  <course>303.4</course>
  <speed>2.2</speed>
  <fix>3d</fix>
</trkpt>
<trkpt lat="40.0715641" lon="-105.2296289">
  <ele>1583.09</ele>
  <time>2026-08-27T17:17:24Z</time>
  <course>305.26</course>
  <speed>2.171658352503911</speed>
  <fix>3d</fix>
</trkpt>
<trkpt lat="40.071561" lon="-105.2296229">
  <ele>1583.0</ele>
  <time>2026-08-27T17:17:24Z</time>
  <course>303.4</course>
  <speed>2.2</speed>
  <fix>3d</fix>
</trkpt>
<trkpt lat="40.0715652" lon="-105.229631">
  <ele>1583.09</ele>
  <time>2026-08-27T17:17:24Z</time>
  <course>305.26</course>
  <speed>2.171658352503911</speed>
  <fix>3d</fix>
</trkpt>
<trkpt lat="40.0715632" lon="-105.2296272">
  <ele>1583.0</ele>
  <time>2026-08-27T17:17:24Z</time>
  <course>303.4</course>
  <speed>2.2</speed>
  <fix>3d</fix>
</trkpt>
<trkpt lat="40.0715663" lon="-105.2296332">
  <ele>1583.09</ele>
  <time>2026-08-27T17:17:24Z</time>
  <course>305.27</course>
  <speed>2.171658352503911</speed>
  <fix>3d</fix>
</trkpt>
<trkpt lat="40.0715632" lon="-105.2296272">
  <ele>1583.0</ele>
  <time>2026-08-27T17:17:24Z</time>
  <course>303.4</course>
  <speed>2.2</speed>
  <fix>3d</fix>
</trkpt>
<trkpt lat="40.0715674" lon="-105.2296354">
  <ele>1583.09</ele>
  <time>2026-08-27T17:17:24Z</time>
  <course>305.27</course>
  <speed>2.171658352503911</speed>
  <fix>3d</fix>
</trkpt>
<trkpt lat="40.0715654" lon="-105.2296315">
  <ele>1583.0</ele>
  <time>2026-08-27T17:17:24Z</time>
  <course>303.4</course>
  <speed>2.2</speed>
  <fix>3d</fix>
</trkpt>
<trkpt lat="40.0715687" lon="-105.229638">
  <ele>1583.09</ele>
  <time>2026-08-27T17:17:24Z</time>
  <course>305.27</course>
  <speed>2.171658352503911</speed>
  <fix>3d</fix>
</trkpt>
<trkpt lat="40.0715654" lon="-105.2296315">
  <ele>1583.0</ele>
  <time>2026-08-27T17:17:24Z</time>
  <course>303.4</course>
  <speed>2.2</speed>
  <fix>3d</fix>
</trkpt>
<trkpt lat="40.0715698" lon="-105.2296402">
  <ele>1583.09</ele>
  <time>2026-08-27T17:17:24Z</time>
  <course>305.27</course>
  <speed>2.171658352503911</speed>
  <fix>3d</fix>
</trkpt>
<trkpt lat="40.0715675" lon="-105.2296358">
  <ele>1583.0</ele>
  <time>2026-08-27T17:17:24Z</time>
  <course>303.4</course>
  <speed>2.2</speed>
  <fix>3d</fix>
</trkpt>
<trkpt lat="40.0715709" lon="-105.2296423">
  <ele>1583.09</ele>
  <time>2026-08-27T17:17:24Z</time>
  <course>305.27</course>
  <speed>2.171658352503911</speed>
  <fix>3d</fix>
</trkpt>
<trkpt lat="40.0715675" lon="-105.2296358">
  <ele>1583.0</ele>
  <time>2026-08-27T17:17:24Z</time>
  <course>303.4</course>
  <speed>2.2</speed>
  <fix>3d</fix>
</trkpt>
<trkpt lat="40.071572" lon="-105.2296445">
  <ele>1583.1</ele>
  <time>2026-08-27T17:17:24Z</time>
  <course>305.28</course>
  <speed>2.171658352503911</speed>
  <fix>3d</fix>
</trkpt>
<trkpt lat="40.0715698" lon="-105.2296401">
  <ele>1583.0</ele>
  <time>2026-08-27T17:17:24Z</time>
  <course>303.4</course>
  <speed>2.2</speed>
  <fix>3d</fix>
</trkpt>
<trkpt lat="40.0715731" lon="-105.2296467">
  <ele>1583.1</ele>
  <time>2026-08-27T17:17:24Z</time>
  <course>305.28</course>
  <speed>2.171658352503911</speed>
  <fix>3d</fix>
</trkpt>
<trkpt lat="40.0715698" lon="-105.2296401">
  <ele>1583.0</ele>
  <time>2026-08-27T17:17:24Z</time>
  <course>303.4</course>
  <speed>2.2</speed>
  <fix>3d</fix>
</trkpt>
<trkpt lat="40.0715742" lon="-105.2296488">
  <ele>1583.1</ele>
  <time>2026-08-27T17:17:24Z</time>
  <course>305.28</course>
  <speed>2.171658352503911</speed>
  <fix>3d</fix>
</trkpt>
<trkpt lat="40.0715719" lon="-105.2296445">
  <ele>1583.0</ele>
  <time>2026-08-27T17:17:24Z</time>
  <course>303.4</course>
  <speed>2.2</speed>
  <fix>3d</fix>
</trkpt>
<trkpt lat="40.0715752" lon="-105.2296509">
  <ele>1583.1</ele>
  <time>2026-08-27T17:17:24Z</time>
  <course>305.28</course>
  <speed>2.1633307652783937</speed>
  <fix>3d</fix>
</trkpt>
<trkpt lat="40.0715719" lon="-105.2296445">
  <ele>1583.0</ele>
  <time>2026-08-27T17:17:24Z</time>
  <course>303.4</course>
  <speed>2.2</speed>
  <fix>3d</fix>
</trkpt>
<trkpt lat="40.0715763" lon="-105.2296531">
  <ele>1583.11</ele>
  <time>2026-08-27T17:17:24Z</time>
  <course>305.28</course>
  <speed>2.1633307652783937</speed>
  <fix>3d</fix>
</trkpt>
<trkpt lat="40.0715741" lon="-105.2296488">
  <ele>1583.0</ele>
  <time>2026-08-27T17:17:24Z</time>
  <course>303.4</course>
  <speed>2.2</speed>
  <fix>3d</fix>
</trkpt>
<trkpt lat="40.0715774" lon="-105.2296552">
  <ele>1583.1</ele>
  <time>2026-08-27T17:17:24Z</time>
  <course>305.28</course>
  <speed>2.1633307652783937</speed>
  <fix>3d</fix>
</trkpt>
<trkpt lat="40.0715741" lon="-105.2296488">
  <ele>1583.0</ele>
  <time>2026-08-27T17:17:24Z</time>
  <course>303.4</course>
  <speed>2.2</speed>
  <fix>3d</fix>
</trkpt>
<trkpt lat="40.0715785" lon="-105.2296574">
  <ele>1583.1</ele>
  <time>2026-08-27T17:17:24Z</time>
  <course>305.28</course>
  <speed>2.1633307652783937</speed>
  <fix>3d</fix>
</trkpt>
<trkpt lat="40.0715762" lon="-105.2296532">
  <ele>1583.0</ele>
  <time>2026-08-27T17:17:24Z</time>
  <course>303.4</course>
  <speed>2.2</speed>
  <fix>3d</fix>
</trkpt>
<trkpt lat="40.0715796" lon="-105.2296595">
  <ele>1583.1</ele>
  <time>2026-08-27T17:17:24Z</time>
  <course>305.29</course>
  <speed>2.1633307652783937</speed>
  <fix>3d</fix>
</trkpt>
<trkpt lat="40.0715762" lon="-105.2296532">
  <ele>1583.0</ele>
  <time>2026-08-27T17:17:24Z</time>
  <course>303.4</course>
  <speed>2.2</speed>
  <fix>3d</fix>
</trkpt>
<trkpt lat="40.0715807" lon="-105.2296616">
  <ele>1583.1</ele>
  <time>2026-08-27T17:17:24Z</time>
  <course>305.29</course>
  <speed>2.1633307652783937</speed>
  <fix>3d</fix>
</trkpt>
<trkpt lat="40.0715785" lon="-105.2296575">
  <ele>1583.0</ele>
  <time>2026-08-27T17:17:24Z</time>
  <course>303.4</course>
  <speed>2.2</speed>
  <fix>3d</fix>
</trkpt>
<trkpt lat="40.0715815" lon="-105.2296634">
  <ele>1583.1</ele>
  <time>2026-08-27T17:17:24Z</time>
  <course>305.29</course>
  <speed>2.1633307652783937</speed>
  <fix>3d</fix>
</trkpt>
<trkpt lat="40.0715785" lon="-105.2296575">
  <ele>1583.0</ele>
  <time>2026-08-27T17:17:24Z</time>
  <course>303.4</course>
  <speed>2.2</speed>
  <fix>3d</fix>
</trkpt>
<trkpt lat="40.0715826" lon="-105.2296655">
  <ele>1583.1</ele>
  <time>2026-08-27T17:17:24Z</time>
  <course>305.29</course>
  <speed>2.1633307652783937</speed>
  <fix>3d</fix>
</trkpt>
<trkpt lat="40.0715807" lon="-105.2296618">
  <ele>1583.0</ele>
  <time>2026-08-27T17:17:24Z</time>
  <course>303.4</course>
  <speed>2.2</speed>
  <fix>3d</fix>
</trkpt>
<trkpt lat="40.0715837" lon="-105.2296677">
  <ele>1583.1</ele>
  <time>2026-08-27T17:17:24Z</time>
  <course>305.29</course>
  <speed>2.1633307652783937</speed>
  <fix>3d</fix>
</trkpt>
<trkpt lat="40.0715807" lon="-105.2296618">
  <ele>1583.0</ele>
  <time>2026-08-27T17:17:24Z</time>
  <course>303.4</course>
  <speed>2.2</speed>
  <fix>3d</fix>
</trkpt>
<trkpt lat="40.0715848" lon="-105.2296698">
  <ele>1583.1</ele>
  <time>2026-08-27T17:17:24Z</time>
  <course>305.29</course>
  <speed>2.1633307652783937</speed>
  <fix>3d</fix>
</trkpt>
<trkpt lat="40.0715828" lon="-105.2296661">
  <ele>1583.0</ele>
  <time>2026-08-27T17:17:24Z</time>
  <course>303.4</course>
  <speed>2.2</speed>
  <fix>3d</fix>
</trkpt>
<trkpt lat="40.0715859" lon="-105.229672">
  <ele>1583.1</ele>
  <time>2026-08-27T17:17:24Z</time>
  <course>305.29</course>
  <speed>2.1633307652783937</speed>
  <fix>3d</fix>
</trkpt>
<trkpt lat="40.0715828" lon="-105.2296661">
  <ele>1583.0</ele>
  <time>2026-08-27T17:17:24Z</time>
  <course>303.4</course>
  <speed>2.2</speed>
  <fix>3d</fix>
</trkpt>
<trkpt lat="40.071587" lon="-105.2296741">
  <ele>1583.09</ele>
  <time>2026-08-27T17:17:24Z</time>
  <course>305.29</course>
  <speed>2.1633307652783937</speed>
  <fix>3d</fix>
</trkpt>
<trkpt lat="40.071585" lon="-105.2296705">
  <ele>1583.0</ele>
  <time>2026-08-27T17:17:24Z</time>
  <course>303.39</course>
  <speed>2.2</speed>
  <fix>3d</fix>
</trkpt>
<trkpt lat="40.0715881" lon="-105.2296763">
  <ele>1583.09</ele>
  <time>2026-08-27T17:17:24Z</time>
  <course>305.28</course>
  <speed>2.1633307652783937</speed>
  <fix>3d</fix>
</trkpt>
<trkpt lat="40.071585" lon="-105.2296705">
  <ele>1583.0</ele>
  <time>2026-08-27T17:17:24Z</time>
  <course>303.39</course>
  <speed>2.2</speed>
  <fix>3d</fix>
</trkpt>
<trkpt lat="40.0715892" lon="-105.2296785">
  <ele>1583.09</ele>
  <time>2026-08-27T17:17:24Z</time>
  <course>305.27</course>
  <speed>2.1633307652783937</speed>
  <fix>3d</fix>
</trkpt>
<trkpt lat="40.0715871" lon="-105.2296748">
  <ele>1583.0</ele>
  <time>2026-08-27T17:17:24Z</time>
  <course>303.38</course>
  <speed>2.2</speed>
  <fix>3d</fix>
</trkpt>
<trkpt lat="40.0715903" lon="-105.2296807">
  <ele>1583.09</ele>
  <time>2026-08-27T17:17:24Z</time>
  <course>305.26</course>
  <speed>2.1633307652783937</speed>
  <fix>3d</fix>
</trkpt>
<trkpt lat="40.0715871" lon="-105.2296748">
  <ele>1583.0</ele>
  <time>2026-08-27T17:17:24Z</time>
  <course>303.38</course>
  <speed>2.2</speed>
  <fix>3d</fix>
</trkpt>
<trkpt lat="40.0715916" lon="-105.2296833">
  <ele>1583.09</ele>
  <time>2026-08-27T17:17:24Z</time>
  <course>305.25</course>
  <speed>2.1633307652783937</speed>
  <fix>3d</fix>
</trkpt>
<trkpt lat="40.0715893" lon="-105.2296791">
  <ele>1583.0</ele>
  <time>2026-08-27T17:17:24Z</time>
  <course>303.37</course>
  <speed>2.2</speed>
  <fix>3d</fix>
</trkpt>
<trkpt lat="40.0715927" lon="-105.2296855">
  <ele>1583.09</ele>
  <time>2026-08-27T17:17:24Z</time>
  <course>305.25</course>
  <speed>2.1633307652783937</speed>
  <fix>3d</fix>
</trkpt>
<trkpt lat="40.0715893" lon="-105.2296791">
  <ele>1583.0</ele>
  <time>2026-08-27T17:17:24Z</time>
  <course>303.37</course>
  <speed>2.2</speed>
  <fix>3d</fix>
</trkpt>
<trkpt lat="40.0715938" lon="-105.2296877">
  <ele>1583.09</ele>
  <time>2026-08-27T17:17:24Z</time>
  <course>305.24</course>
  <speed>2.1633307652783937</speed>
  <fix>3d</fix>
</trkpt>
<trkpt lat="40.0715916" lon="-105.2296834">
  <ele>1583.0</ele>
  <time>2026-08-27T17:17:24Z</time>
  <course>303.35</course>
  <speed>2.2</speed>
  <fix>3d</fix>
</trkpt>
<trkpt lat="40.0715949" lon="-105.2296898">
  <ele>1583.09</ele>
  <time>2026-08-27T17:17:24Z</time>
  <course>305.23</course>
  <speed>2.1633307652783937</speed>
  <fix>3d</fix>
</trkpt>
<trkpt lat="40.0715916" lon="-105.2296834">
  <ele>1583.0</ele>
  <time>2026-08-27T17:17:24Z</time>
  <course>303.35</course>
  <speed>2.2</speed>
  <fix>3d</fix>
</trkpt>
<trkpt lat="40.071596" lon="-105.229692">
  <ele>1583.09</ele>
  <time>2026-08-27T17:17:24Z</time>
  <course>305.21</course>
  <speed>2.1633307652783937</speed>
  <fix>3d</fix>
</trkpt>
<trkpt lat="40.0715938" lon="-105.2296878">
  <ele>1583.0</ele>
  <time>2026-08-27T17:17:24Z</time>
  <course>303.33</course>
  <speed>2.2</speed>
  <fix>3d</fix>
</trkpt>
<trkpt lat="40.0715971" lon="-105.2296942">
  <ele>1583.09</ele>
  <time>2026-08-27T17:17:24Z</time>
  <course>305.2</course>
  <speed>2.171658352503911</speed>
  <fix>3d</fix>
</trkpt>
<trkpt lat="40.0715938" lon="-105.2296878">
  <ele>1583.0</ele>
  <time>2026-08-27T17:17:24Z</time>
  <course>303.33</course>
  <speed>2.2</speed>
  <fix>3d</fix>
</trkpt>
<trkpt lat="40.0715982" lon="-105.2296963">
  <ele>1583.08</ele>
  <time>2026-08-27T17:17:24Z</time>
  <course>305.19</course>
  <speed>2.171658352503911</speed>
  <fix>3d</fix>
</trkpt>
<trkpt lat="40.071596" lon="-105.2296921">
  <ele>1583.0</ele>
  <time>2026-08-27T17:17:24Z</time>
  <course>303.31</course>
  <speed>2.2</speed>
  <fix>3d</fix>
</trkpt>
<trkpt lat="40.0715992" lon="-105.2296985">
  <ele>1583.08</ele>
  <time>2026-08-27T17:17:24Z</time>
  <course>305.18</course>
  <speed>2.1633307652783937</speed>
  <fix>3d</fix>
</trkpt>
<trkpt lat="40.071596" lon="-105.2296921">
  <ele>1583.0</ele>
  <time>2026-08-27T17:17:24Z</time>
  <course>303.31</course>
  <speed>2.2</speed>
  <fix>3d</fix>
</trkpt>
<trkpt lat="40.0716003" lon="-105.2297006">
  <ele>1583.08</ele>
  <time>2026-08-27T17:17:24Z</time>
  <course>305.17</course>
  <speed>2.1633307652783937</speed>
  <fix>3d</fix>
</trkpt>
<trkpt lat="40.0715981" lon="-105.2296964">
  <ele>1583.0</ele>
  <time>2026-08-27T17:17:24Z</time>
  <course>303.28</course>
  <speed>2.2</speed>
  <fix>3d</fix>
</trkpt>
<trkpt lat="40.0716014" lon="-105.2297028">
  <ele>1583.08</ele>
  <time>2026-08-27T17:17:24Z</time>
  <course>305.15</course>
  <speed>2.1633307652783937</speed>
  <fix>3d</fix>
</trkpt>
<trkpt lat="40.0715981" lon="-105.2296964">
  <ele>1583.0</ele>
  <time>2026-08-27T17:17:24Z</time>
  <course>303.28</course>
  <speed>2.2</speed>
  <fix>3d</fix>
</trkpt>
<trkpt lat="40.0716025" lon="-105.2297049">
  <ele>1583.08</ele>
  <time>2026-08-27T17:17:24Z</time>
  <course>305.13</course>
  <speed>2.1633307652783937</speed>
  <fix>3d</fix>
</trkpt>
<trkpt lat="40.0716003" lon="-105.2297008">
  <ele>1583.0</ele>
  <time>2026-08-27T17:17:24Z</time>
  <course>303.26</course>
  <speed>2.2</speed>
  <fix>3d</fix>
</trkpt>
<trkpt lat="40.0716034" lon="-105.2297067">
  <ele>1583.08</ele>
  <time>2026-08-27T17:17:24Z</time>
  <course>305.13</course>
  <speed>2.1633307652783937</speed>
  <fix>3d</fix>
</trkpt>
<trkpt lat="40.0716003" lon="-105.2297008">
  <ele>1583.0</ele>
  <time>2026-08-27T17:17:24Z</time>
  <course>303.26</course>
  <speed>2.2</speed>
  <fix>3d</fix>
</trkpt>
<trkpt lat="40.0716045" lon="-105.2297088">
  <ele>1583.07</ele>
  <time>2026-08-27T17:17:24Z</time>
  <course>305.11</course>
  <speed>2.1633307652783937</speed>
  <fix>3d</fix>
</trkpt>
<trkpt lat="40.0716025" lon="-105.2297051">
  <ele>1583.0</ele>
  <time>2026-08-27T17:17:24Z</time>
  <course>303.23</course>
  <speed>2.2</speed>
  <fix>3d</fix>
</trkpt>
<trkpt lat="40.0716055" lon="-105.229711">
  <ele>1583.07</ele>
  <time>2026-08-27T17:17:24Z</time>
  <course>305.1</course>
  <speed>2.1633307652783937</speed>
  <fix>3d</fix>
</trkpt>
<trkpt lat="40.0716025" lon="-105.2297051">
  <ele>1583.0</ele>
  <time>2026-08-27T17:17:24Z</time>
  <course>303.23</course>
  <speed>2.2</speed>
  <fix>3d</fix>
</trkpt>
<trkpt lat="40.0716066" lon="-105.2297131">
  <ele>1583.07</ele>
  <time>2026-08-27T17:17:24Z</time>
  <course>305.1</course>
  <speed>2.1633307652783937</speed>
  <fix>3d</fix>
</trkpt>
<trkpt lat="40.0716046" lon="-105.2297095">
  <ele>1583.0</ele>
  <time>2026-08-27T17:17:24Z</time>
  <course>303.21</course>
  <speed>2.2</speed>
  <fix>3d</fix>
</trkpt>
<trkpt lat="40.0716077" lon="-105.2297153">
  <ele>1583.07</ele>
  <time>2026-08-27T17:17:24Z</time>
  <course>305.08</course>
  <speed>2.171658352503911</speed>
  <fix>3d</fix>
</trkpt>
<trkpt lat="40.0716046" lon="-105.2297095">
  <ele>1583.0</ele>
  <time>2026-08-27T17:17:24Z</time>
  <course>303.21</course>
  <speed>2.2</speed>
  <fix>3d</fix>
</trkpt>
<trkpt lat="40.0716088" lon="-105.2297175">
  <ele>1583.07</ele>
  <time>2026-08-27T17:17:24Z</time>
  <course>305.07</course>
  <speed>2.171658352503911</speed>
  <fix>3d</fix>
</trkpt>
<trkpt lat="40.0716068" lon="-105.2297138">
  <ele>1583.0</ele>
  <time>2026-08-27T17:17:24Z</time>
  <course>303.19</course>
  <speed>2.2</speed>
  <fix>3d</fix>
</trkpt>
<trkpt lat="40.0716099" lon="-105.2297197">
  <ele>1583.07</ele>
  <time>2026-08-27T17:17:24Z</time>
  <course>305.07</course>
  <speed>2.171658352503911</speed>
  <fix>3d</fix>
</trkpt>
<trkpt lat="40.0716068" lon="-105.2297138">
  <ele>1583.0</ele>
  <time>2026-08-27T17:17:24Z</time>
  <course>303.19</course>
  <speed>2.2</speed>
  <fix>3d</fix>
</trkpt>
<trkpt lat="40.071611" lon="-105.2297219">
  <ele>1583.07</ele>
  <time>2026-08-27T17:17:24Z</time>
  <course>305.06</course>
  <speed>2.171658352503911</speed>
  <fix>3d</fix>
</trkpt>
<trkpt lat="40.0716089" lon="-105.2297181">
  <ele>1583.0</ele>
  <time>2026-08-27T17:17:24Z</time>
  <course>303.17</course>
  <speed>2.2</speed>
  <fix>3d</fix>
</trkpt>
<trkpt lat="40.0716121" lon="-105.2297241">
  <ele>1583.07</ele>
  <time>2026-08-27T17:17:24Z</time>
  <course>305.05</course>
  <speed>2.171658352503911</speed>
  <fix>3d</fix>
</trkpt>
<trkpt lat="40.0716089" lon="-105.2297181">
  <ele>1583.0</ele>
  <time>2026-08-27T17:17:24Z</time>
  <course>303.17</course>
  <speed>2.2</speed>
  <fix>3d</fix>
</trkpt>
<trkpt lat="40.0716132" lon="-105.2297263">
  <ele>1583.07</ele>
  <time>2026-08-27T17:17:24Z</time>
  <course>305.04</course>
  <speed>2.171658352503911</speed>
  <fix>3d</fix>
</trkpt>
<trkpt lat="40.0716112" lon="-105.2297225">
  <ele>1583.0</ele>
  <time>2026-08-27T17:17:24Z</time>
  <course>303.15</course>
  <speed>2.2</speed>
  <fix>3d</fix>
</trkpt>
<trkpt lat="40.0716145" lon="-105.2297289">
  <ele>1583.08</ele>
  <time>2026-08-27T17:17:24Z</time>
  <course>305.04</course>
  <speed>2.171658352503911</speed>
  <fix>3d</fix>
</trkpt>
<trkpt lat="40.0716112" lon="-105.2297225">
  <ele>1583.0</ele>
  <time>2026-08-27T17:17:24Z</time>
  <course>303.15</course>
  <speed>2.2</speed>
  <fix>3d</fix>
</trkpt>
<trkpt lat="40.0716156" lon="-105.2297311">
  <ele>1583.08</ele>
  <time>2026-08-27T17:17:24Z</time>
  <course>305.03</course>
  <speed>2.171658352503911</speed>
  <fix>3d</fix>
</trkpt>
<trkpt lat="40.0716133" lon="-105.2297268">
  <ele>1583.0</ele>
  <time>2026-08-27T17:17:24Z</time>
  <course>303.15</course>
  <speed>2.2</speed>
  <fix>3d</fix>
</trkpt>
<trkpt lat="40.0716167" lon="-105.2297332">
  <ele>1583.08</ele>
  <time>2026-08-27T17:17:24Z</time>
  <course>305.02</course>
  <speed>2.171658352503911</speed>
  <fix>3d</fix>
</trkpt>
<trkpt lat="40.0716133" lon="-105.2297268">
  <ele>1583.0</ele>
  <time>2026-08-27T17:17:24Z</time>
  <course>303.15</course>
  <speed>2.2</speed>
  <fix>3d</fix>
</trkpt>
<trkpt lat="40.0716178" lon="-105.2297354">
  <ele>1583.09</ele>
  <time>2026-08-27T17:17:24Z</time>
  <course>305.02</course>
  <speed>2.171658352503911</speed>
  <fix>3d</fix>
</trkpt>
<trkpt lat="40.0716155" lon="-105.2297312">
  <ele>1583.0</ele>
  <time>2026-08-27T17:17:24Z</time>
  <course>303.13</course>
  <speed>2.2</speed>
  <fix>3d</fix>
</trkpt>
<trkpt lat="40.0716189" lon="-105.2297376">
  <ele>1583.09</ele>
  <time>2026-08-27T17:17:24Z</time>
  <course>305.01</course>
  <speed>2.171658352503911</speed>
  <fix>3d</fix>
</trkpt>
<trkpt lat="40.0716155" lon="-105.2297312">
  <ele>1583.0</ele>
  <time>2026-08-27T17:17:24Z</time>
  <course>303.13</course>
  <speed>2.2</speed>
  <fix>3d</fix>
</trkpt>
<trkpt lat="40.0716199" lon="-105.2297398">
  <ele>1583.09</ele>
  <time>2026-08-27T17:17:24Z</time>
  <course>305.0</course>
  <speed>2.171658352503911</speed>
  <fix>3d</fix>
</trkpt>
<trkpt lat="40.0716177" lon="-105.2297355">
  <ele>1583.0</ele>
  <time>2026-08-27T17:17:24Z</time>
  <course>303.12</course>
  <speed>2.2</speed>
  <fix>3d</fix>
</trkpt>
<trkpt lat="40.071621" lon="-105.2297419">
  <ele>1583.09</ele>
  <time>2026-08-27T17:17:24Z</time>
  <course>304.99</course>
  <speed>2.171658352503911</speed>
  <fix>3d</fix>
</trkpt>
<trkpt lat="40.0716177" lon="-105.2297355">
  <ele>1583.0</ele>
  <time>2026-08-27T17:17:24Z</time>
  <course>303.12</course>
  <speed>2.2</speed>
  <fix>3d</fix>
</trkpt>
<trkpt lat="40.0716221" lon="-105.2297441">
  <ele>1583.09</ele>
  <time>2026-08-27T17:17:24Z</time>
  <course>304.99</course>
  <speed>2.171658352503911</speed>
  <fix>3d</fix>
</trkpt>
<trkpt lat="40.0716198" lon="-105.2297399">
  <ele>1583.0</ele>
  <time>2026-08-27T17:17:24Z</time>
  <course>303.11</course>
  <speed>2.2</speed>
  <fix>3d</fix>
</trkpt>
<trkpt lat="40.0716232" lon="-105.2297463">
  <ele>1583.09</ele>
  <time>2026-08-27T17:17:24Z</time>
  <course>304.98</course>
  <speed>2.171658352503911</speed>
  <fix>3d</fix>
</trkpt>
<trkpt lat="40.0716198" lon="-105.2297399">
  <ele>1583.0</ele>
  <time>2026-08-27T17:17:24Z</time>
  <course>303.11</course>
  <speed>2.2</speed>
  <fix>3d</fix>
</trkpt>
<trkpt lat="40.0716242" lon="-105.2297484">
  <ele>1583.09</ele>
  <time>2026-08-27T17:17:24Z</time>
  <course>304.97</course>
  <speed>2.171658352503911</speed>
  <fix>3d</fix>
</trkpt>
<trkpt lat="40.071622" lon="-105.2297442">
  <ele>1583.0</ele>
  <time>2026-08-27T17:17:24Z</time>
  <course>303.09</course>
  <speed>2.2</speed>
  <fix>3d</fix>
</trkpt>
<trkpt lat="40.0716253" lon="-105.2297506">
  <ele>1583.09</ele>
  <time>2026-08-27T17:17:24Z</time>
  <course>304.96</course>
  <speed>2.171658352503911</speed>
  <fix>3d</fix>
</trkpt>
<trkpt lat="40.071622" lon="-105.2297442">
  <ele>1583.0</ele>
  <time>2026-08-27T17:17:24Z</time>
  <course>303.09</course>
  <speed>2.2</speed>
  <fix>3d</fix>
</trkpt>
<trkpt lat="40.0716262" lon="-105.2297523">
  <ele>1583.09</ele>
  <time>2026-08-27T17:17:24Z</time>
  <course>304.96</course>
  <speed>2.171658352503911</speed>
  <fix>3d</fix>
</trkpt>
<trkpt lat="40.0716242" lon="-105.2297485">
  <ele>1583.0</ele>
  <time>2026-08-27T17:17:24Z</time>
  <course>303.09</course>
  <speed>2.2</speed>
  <fix>3d</fix>
</trkpt>
<trkpt lat="40.0716273" lon="-105.2297545">
  <ele>1583.09</ele>
  <time>2026-08-27T17:17:24Z</time>
  <course>304.96</course>
  <speed>2.171658352503911</speed>
  <fix>3d</fix>
</trkpt>
<trkpt lat="40.0716242" lon="-105.2297485">
  <ele>1583.0</ele>
  <time>2026-08-27T17:17:24Z</time>
  <course>303.09</course>
  <speed>2.2</speed>
  <fix>3d</fix>
</trkpt>
<trkpt lat="40.0716283" lon="-105.2297566">
  <ele>1583.09</ele>
  <time>2026-08-27T17:17:24Z</time>
  <course>304.95</course>
  <speed>2.171658352503911</speed>
  <fix>3d</fix>
</trkpt>
<trkpt lat="40.0716263" lon="-105.2297529">
  <ele>1583.0</ele>
  <time>2026-08-27T17:17:24Z</time>
  <course>303.07</course>
  <speed>2.2</speed>
  <fix>3d</fix>
</trkpt>
<trkpt lat="40.0716294" lon="-105.2297588">
  <ele>1583.08</ele>
  <time>2026-08-27T17:17:24Z</time>
  <course>304.95</course>
  <speed>2.171658352503911</speed>
  <fix>3d</fix>
</trkpt>
<trkpt lat="40.0716263" lon="-105.2297529">
  <ele>1583.0</ele>
  <time>2026-08-27T17:17:24Z</time>
  <course>303.07</course>
  <speed>2.2</speed>
  <fix>3d</fix>
</trkpt>
<trkpt lat="40.0716305" lon="-105.2297609">
  <ele>1583.08</ele>
  <time>2026-08-27T17:17:24Z</time>
  <course>304.95</course>
  <speed>2.171658352503911</speed>
  <fix>3d</fix>
</trkpt>
<trkpt lat="40.0716285" lon="-105.2297572">
  <ele>1583.0</ele>
  <time>2026-08-27T17:17:24Z</time>
  <course>303.07</course>
  <speed>2.2</speed>
  <fix>3d</fix>
</trkpt>
<trkpt lat="40.0716316" lon="-105.2297631">
  <ele>1583.08</ele>
  <time>2026-08-27T17:17:24Z</time>
  <course>304.94</course>
  <speed>2.171658352503911</speed>
  <fix>3d</fix>
</trkpt>
<trkpt lat="40.0716285" lon="-105.2297572">
  <ele>1583.0</ele>
  <time>2026-08-27T17:17:24Z</time>
  <course>303.07</course>
  <speed>2.2</speed>
  <fix>3d</fix>
</trkpt>
<trkpt lat="40.0716327" lon="-105.2297653">
  <ele>1583.07</ele>
  <time>2026-08-27T17:17:24Z</time>
  <course>304.94</course>
  <speed>2.171658352503911</speed>
  <fix>3d</fix>
</trkpt>
<trkpt lat="40.0716307" lon="-105.2297615">
  <ele>1583.0</ele>
  <time>2026-08-27T17:17:24Z</time>
  <course>303.07</course>
  <speed>2.2</speed>
  <fix>3d</fix>
</trkpt>
<trkpt lat="40.0716338" lon="-105.2297675">
  <ele>1583.07</ele>
  <time>2026-08-27T17:17:24Z</time>
  <course>304.94</course>
  <speed>2.171658352503911</speed>
  <fix>3d</fix>
</trkpt>
<trkpt lat="40.0716307" lon="-105.2297615">
  <ele>1583.0</ele>
  <time>2026-08-27T17:17:24Z</time>
  <course>303.07</course>
  <speed>2.2</speed>
  <fix>3d</fix>
</trkpt>
<trkpt lat="40.0716349" lon="-105.2297697">
  <ele>1583.07</ele>
  <time>2026-08-27T17:17:24Z</time>
  <course>304.94</course>
  <speed>2.171658352503911</speed>
  <fix>3d</fix>
</trkpt>
<trkpt lat="40.0716328" lon="-105.2297659">
  <ele>1583.0</ele>
  <time>2026-08-27T17:17:24Z</time>
  <course>303.07</course>
  <speed>2.2</speed>
  <fix>3d</fix>
</trkpt>
<trkpt lat="40.0716359" lon="-105.2297719">
  <ele>1583.07</ele>
  <time>2026-08-27T17:17:24Z</time>
  <course>304.94</course>
  <speed>2.171658352503911</speed>
  <fix>3d</fix>
</trkpt>
<trkpt lat="40.0716328" lon="-105.2297659">
  <ele>1583.0</ele>
  <time>2026-08-27T17:17:24Z</time>
  <course>303.07</course>
  <speed>2.2</speed>
  <fix>3d</fix>
</trkpt>
<trkpt lat="40.0716373" lon="-105.2297745">
  <ele>1583.07</ele>
  <time>2026-08-27T17:17:24Z</time>
  <course>304.93</course>
  <speed>2.171658352503911</speed>
  <fix>3d</fix>
</trkpt>
<trkpt lat="40.071635" lon="-105.2297703">
  <ele>1583.0</ele>
  <time>2026-08-27T17:17:24Z</time>
  <course>303.07</course>
  <speed>2.2</speed>
  <fix>3d</fix>
</trkpt>
<trkpt lat="40.0716383" lon="-105.2297767">
  <ele>1583.07</ele>
  <time>2026-08-27T17:17:24Z</time>
  <course>304.93</course>
  <speed>2.18</speed>
  <fix>3d</fix>
</trkpt>
<trkpt lat="40.071635" lon="-105.2297703">
  <ele>1583.0</ele>
  <time>2026-08-27T17:17:24Z</time>
  <course>303.07</course>
  <speed>2.2</speed>
  <fix>3d</fix>
</trkpt>
<trkpt lat="40.0716394" lon="-105.2297789">
  <ele>1583.07</ele>
  <time>2026-08-27T17:17:24Z</time>
  <course>304.93</course>
  <speed>2.18</speed>
  <fix>3d</fix>
</trkpt>
<trkpt lat="40.0716372" lon="-105.2297746">
  <ele>1583.0</ele>
  <time>2026-08-27T17:17:24Z</time>
  <course>303.07</course>
  <speed>2.21</speed>
  <fix>3d</fix>
</trkpt>
<trkpt lat="40.0716405" lon="-105.2297811">
  <ele>1583.07</ele>
  <time>2026-08-27T17:17:24Z</time>
  <course>304.93</course>
  <speed>2.18</speed>
  <fix>3d</fix>
</trkpt>
<trkpt lat="40.0716372" lon="-105.2297746">
  <ele>1583.0</ele>
  <time>2026-08-27T17:17:24Z</time>
  <course>303.07</course>
  <speed>2.21</speed>
  <fix>3d</fix>
</trkpt>
<trkpt lat="40.0716416" lon="-105.2297833">
  <ele>1583.07</ele>
  <time>2026-08-27T17:17:24Z</time>
  <course>304.93</course>
  <speed>2.18</speed>
  <fix>3d</fix>
</trkpt>
<trkpt lat="40.0716393" lon="-105.2297789">
  <ele>1583.0</ele>
  <time>2026-08-27T17:17:24Z</time>
  <course>303.07</course>
  <speed>2.21</speed>
  <fix>3d</fix>
</trkpt>
<trkpt lat="40.0716427" lon="-105.2297854">
  <ele>1583.07</ele>
  <time>2026-08-27T17:17:24Z</time>
  <course>304.92</course>
  <speed>2.18</speed>
  <fix>3d</fix>
</trkpt>
<trkpt lat="40.0716393" lon="-105.2297789">
  <ele>1583.0</ele>
  <time>2026-08-27T17:17:24Z</time>
  <course>303.07</course>
  <speed>2.21</speed>
  <fix>3d</fix>
</trkpt>
<trkpt lat="40.0716438" lon="-105.2297876">
  <ele>1583.07</ele>
  <time>2026-08-27T17:17:24Z</time>
  <course>304.92</course>
  <speed>2.18</speed>
  <fix>3d</fix>
</trkpt>
<trkpt lat="40.0716415" lon="-105.2297833">
  <ele>1583.0</ele>
  <time>2026-08-27T17:17:24Z</time>
  <course>303.07</course>
  <speed>2.21</speed>
  <fix>3d</fix>
</trkpt>
<trkpt lat="40.0716449" lon="-105.2297898">
  <ele>1583.07</ele>
  <time>2026-08-27T17:17:24Z</time>
  <course>304.92</course>
  <speed>2.18</speed>
  <fix>3d</fix>
</trkpt>
<trkpt lat="40.0716415" lon="-105.2297833">
  <ele>1583.0</ele>
  <time>2026-08-27T17:17:24Z</time>
  <course>303.07</course>
  <speed>2.21</speed>
  <fix>3d</fix>
</trkpt>
<trkpt lat="40.0716459" lon="-105.2297919">
  <ele>1583.07</ele>
  <time>2026-08-27T17:17:24Z</time>
  <course>304.92</course>
  <speed>2.18</speed>
  <fix>3d</fix>
</trkpt>
<trkpt lat="40.0716436" lon="-105.2297877">
  <ele>1583.0</ele>
  <time>2026-08-27T17:17:24Z</time>
  <course>303.07</course>
  <speed>2.21</speed>
  <fix>3d</fix>
</trkpt>
<trkpt lat="40.071647" lon="-105.2297941">
  <ele>1583.07</ele>
  <time>2026-08-27T17:17:24Z</time>
  <course>304.92</course>
  <speed>2.18</speed>
  <fix>3d</fix>
</trkpt>
<trkpt lat="40.0716436" lon="-105.2297877">
  <ele>1583.0</ele>
  <time>2026-08-27T17:17:24Z</time>
  <course>303.07</course>
  <speed>2.21</speed>
  <fix>3d</fix>
</trkpt>
<trkpt lat="40.0716481" lon="-105.2297962">
  <ele>1583.07</ele>
  <time>2026-08-27T17:17:24Z</time>
  <course>304.92</course>
  <speed>2.171658352503911</speed>
  <fix>3d</fix>
</trkpt>
<trkpt lat="40.0716458" lon="-105.229792">
  <ele>1583.0</ele>
  <time>2026-08-27T17:17:24Z</time>
  <course>303.07</course>
  <speed>2.21</speed>
  <fix>3d</fix>
</trkpt>
<trkpt lat="40.0716489" lon="-105.229798">
  <ele>1583.07</ele>
  <time>2026-08-27T17:17:24Z</time>
  <course>304.91</course>
  <speed>2.171658352503911</speed>
  <fix>3d</fix>
</trkpt>
<trkpt lat="40.0716458" lon="-105.229792">
  <ele>1583.0</ele>
  <time>2026-08-27T17:17:24Z</time>
  <course>303.07</course>
  <speed>2.21</speed>
  <fix>3d</fix>
</trkpt>
<trkpt lat="40.07165" lon="-105.2298001">
  <ele>1583.07</ele>
  <time>2026-08-27T17:17:24Z</time>
  <course>304.91</course>
  <speed>2.171658352503911</speed>
  <fix>3d</fix>
</trkpt>
<trkpt lat="40.0716479" lon="-105.2297964">
  <ele>1583.0</ele>
  <time>2026-08-27T17:17:24Z</time>
  <course>303.07</course>
  <speed>2.21</speed>
  <fix>3d</fix>
</trkpt>
<trkpt lat="40.0716511" lon="-105.2298023">
  <ele>1583.07</ele>
  <time>2026-08-27T17:17:24Z</time>
  <course>304.93</course>
  <speed>2.171658352503911</speed>
  <fix>3d</fix>
</trkpt>
<trkpt lat="40.0716479" lon="-105.2297964">
  <ele>1583.0</ele>
  <time>2026-08-27T17:17:24Z</time>
  <course>303.07</course>
  <speed>2.21</speed>
  <fix>3d</fix>
</trkpt>
<trkpt lat="40.0716522" lon="-105.2298045">
  <ele>1583.07</ele>
  <time>2026-08-27T17:17:24Z</time>
  <course>304.96</course>
  <speed>2.171658352503911</speed>
  <fix>3d</fix>
</trkpt>
<trkpt lat="40.0716501" lon="-105.2298007">
  <ele>1583.0</ele>
  <time>2026-08-27T17:17:24Z</time>
  <course>303.08</course>
  <speed>2.21</speed>
  <fix>3d</fix>
</trkpt>
<trkpt lat="40.0716532" lon="-105.2298067">
  <ele>1583.07</ele>
  <time>2026-08-27T17:17:24Z</time>
  <course>304.98</course>
  <speed>2.171658352503911</speed>
  <fix>3d</fix>
</trkpt>
<trkpt lat="40.0716501" lon="-105.2298007">
  <ele>1583.0</ele>
  <time>2026-08-27T17:17:24Z</time>
  <course>303.08</course>
  <speed>2.21</speed>
  <fix>3d</fix>
</trkpt>
<trkpt lat="40.0716543" lon="-105.2298088">
  <ele>1583.08</ele>
  <time>2026-08-27T17:17:24Z</time>
  <course>305.01</course>
  <speed>2.171658352503911</speed>
  <fix>3d</fix>
</trkpt>
<trkpt lat="40.0716523" lon="-105.229805">
  <ele>1583.0</ele>
  <time>2026-08-27T17:17:24Z</time>
  <course>303.13</course>
  <speed>2.21</speed>
  <fix>3d</fix>
</trkpt>
<trkpt lat="40.0716554" lon="-105.229811">
  <ele>1583.08</ele>
  <time>2026-08-27T17:17:24Z</time>
  <course>305.04</course>
  <speed>2.171658352503911</speed>
  <fix>3d</fix>
</trkpt>
<trkpt lat="40.0716523" lon="-105.229805">
  <ele>1583.0</ele>
  <time>2026-08-27T17:17:24Z</time>
  <course>303.13</course>
  <speed>2.21</speed>
  <fix>3d</fix>
</trkpt>
<trkpt lat="40.0716565" lon="-105.2298132">
  <ele>1583.08</ele>
  <time>2026-08-27T17:17:24Z</time>
  <course>305.07</course>
  <speed>2.177200036744442</speed>
  <fix>3d</fix>
</trkpt>
<trkpt lat="40.0716544" lon="-105.2298094">
  <ele>1583.0</ele>
  <time>2026-08-27T17:17:24Z</time>
  <course>303.19</course>
  <speed>2.21</speed>
  <fix>3d</fix>
</trkpt>
<trkpt lat="40.0716576" lon="-105.2298154">
  <ele>1583.08</ele>
  <time>2026-08-27T17:17:24Z</time>
  <course>305.09</course>
  <speed>2.177200036744442</speed>
  <fix>3d</fix>
</trkpt>
<trkpt lat="40.0716544" lon="-105.2298094">
  <ele>1583.0</ele>
  <time>2026-08-27T17:17:24Z</time>
  <course>303.19</course>
  <speed>2.21</speed>
  <fix>3d</fix>
</trkpt>
<trkpt lat="40.0716587" lon="-105.2298176">
  <ele>1583.08</ele>
  <time>2026-08-27T17:17:24Z</time>
  <course>305.12</course>
  <speed>2.177200036744442</speed>
  <fix>3d</fix>
</trkpt>
<trkpt lat="40.0716567" lon="-105.2298137">
  <ele>1583.0</ele>
  <time>2026-08-27T17:17:24Z</time>
  <course>303.25</course>
  <speed>2.21</speed>
  <fix>3d</fix>
</trkpt>
<trkpt lat="40.07166" lon="-105.2298202">
  <ele>1583.08</ele>
  <time>2026-08-27T17:17:24Z</time>
  <course>305.16</course>
  <speed>2.177200036744442</speed>
  <fix>3d</fix>
</trkpt>
<trkpt lat="40.0716567" lon="-105.2298137">
  <ele>1583.0</ele>
  <time>2026-08-27T17:17:24Z</time>
  <course>303.25</course>
  <speed>2.21</speed>
  <fix>3d</fix>
</trkpt>
<trkpt lat="40.0716611" lon="-105.2298224">
  <ele>1583.08</ele>
  <time>2026-08-27T17:17:24Z</time>
  <course>305.18</course>
  <speed>2.177200036744442</speed>
  <fix>3d</fix>
</trkpt>
<trkpt lat="40.0716589" lon="-105.2298181">
  <ele>1583.0</ele>
  <time>2026-08-27T17:17:24Z</time>
  <course>303.31</course>
  <speed>2.2</speed>
  <fix>3d</fix>
</trkpt>
<trkpt lat="40.0716622" lon="-105.2298245">
  <ele>1583.08</ele>
  <time>2026-08-27T17:17:24Z</time>
  <course>305.21</course>
  <speed>2.177200036744442</speed>
  <fix>3d</fix>
</trkpt>
<trkpt lat="40.0716589" lon="-105.2298181">
  <ele>1583.0</ele>
  <time>2026-08-27T17:17:24Z</time>
  <course>303.31</course>
  <speed>2.2</speed>
  <fix>3d</fix>
</trkpt>
<trkpt lat="40.0716633" lon="-105.2298267">
  <ele>1583.08</ele>
  <time>2026-08-27T17:17:24Z</time>
  <course>305.24</course>
  <speed>2.177200036744442</speed>
  <fix>3d</fix>
</trkpt>
<trkpt lat="40.0716611" lon="-105.2298224">
  <ele>1583.0</ele>
  <time>2026-08-27T17:17:24Z</time>
  <course>303.37</course>
  <speed>2.2</speed>
  <fix>3d</fix>
</trkpt>
<trkpt lat="40.0716644" lon="-105.2298289">
  <ele>1583.08</ele>
  <time>2026-08-27T17:17:24Z</time>
  <course>305.27</course>
  <speed>2.1827734651126764</speed>
  <fix>3d</fix>
</trkpt>
<trkpt lat="40.0716611" lon="-105.2298224">
  <ele>1583.0</ele>
  <time>2026-08-27T17:17:24Z</time>
  <course>303.37</course>
  <speed>2.2</speed>
  <fix>3d</fix>
</trkpt>
<trkpt lat="40.0716655" lon="-105.2298311">
  <ele>1583.08</ele>
  <time>2026-08-27T17:17:24Z</time>
  <course>305.33</course>
  <speed>2.1827734651126764</speed>
  <fix>3d</fix>
</trkpt>
<trkpt lat="40.0716633" lon="-105.2298268">
  <ele>1583.0</ele>
  <time>2026-08-27T17:17:24Z</time>
  <course>303.43</course>
  <speed>2.2</speed>
  <fix>3d</fix>
</trkpt>
<trkpt lat="40.0716666" lon="-105.2298332">
  <ele>1583.08</ele>
  <time>2026-08-27T17:17:24Z</time>
  <course>305.44</course>
  <speed>2.1827734651126764</speed>
  <fix>3d</fix>
</trkpt>
<trkpt lat="40.0716633" lon="-105.2298268">
  <ele>1583.0</ele>
  <time>2026-08-27T17:17:24Z</time>
  <course>303.43</course>
  <speed>2.2</speed>
  <fix>3d</fix>
</trkpt>
<trkpt lat="40.0716677" lon="-105.2298353">
  <ele>1583.08</ele>
  <time>2026-08-27T17:17:24Z</time>
  <course>305.58</course>
  <speed>2.1801146758828995</speed>
  <fix>3d</fix>
</trkpt>
<trkpt lat="40.0716654" lon="-105.2298311">
  <ele>1583.0</ele>
  <time>2026-08-27T17:17:24Z</time>
  <course>303.56</course>
  <speed>2.2</speed>
  <fix>3d</fix>
</trkpt>
<trkpt lat="40.0716688" lon="-105.2298375">
  <ele>1583.08</ele>
  <time>2026-08-27T17:17:24Z</time>
  <course>305.76</course>
  <speed>2.1801146758828995</speed>
  <fix>3d</fix>
</trkpt>
<trkpt lat="40.0716654" lon="-105.2298311">
  <ele>1583.0</ele>
  <time>2026-08-27T17:17:24Z</time>
  <course>303.56</course>
  <speed>2.2</speed>
  <fix>3d</fix>
</trkpt>
<trkpt lat="40.0716699" lon="-105.2298396">
  <ele>1583.08</ele>
  <time>2026-08-27T17:17:24Z</time>
  <course>305.99</course>
  <speed>2.177544488638522</speed>
  <fix>3d</fix>
</trkpt>
<trkpt lat="40.0716676" lon="-105.2298354">
  <ele>1583.0</ele>
  <time>2026-08-27T17:17:24Z</time>
  <course>303.82</course>
  <speed>2.2</speed>
  <fix>3d</fix>
</trkpt>
<trkpt lat="40.071671" lon="-105.2298417">
  <ele>1583.08</ele>
  <time>2026-08-27T17:17:24Z</time>
  <course>306.26</course>
  <speed>2.1750632174720805</speed>
  <fix>3d</fix>
</trkpt>
<trkpt lat="40.0716676" lon="-105.2298354">
  <ele>1583.0</ele>
  <time>2026-08-27T17:17:24Z</time>
  <course>303.82</course>
  <speed>2.2</speed>
  <fix>3d</fix>
</trkpt>
<trkpt lat="40.0716719" lon="-105.2298434">
  <ele>1583.08</ele>
  <time>2026-08-27T17:17:24Z</time>
  <course>306.52</course>
  <speed>2.1750632174720805</speed>
  <fix>3d</fix>
</trkpt>
<trkpt lat="40.0716698" lon="-105.2298397">
  <ele>1583.0</ele>
  <time>2026-08-27T17:17:24Z</time>
  <course>304.26</course>
  <speed>2.2</speed>
  <fix>3d</fix>
</trkpt>
<trkpt lat="40.0716731" lon="-105.2298456">
  <ele>1583.08</ele>
  <time>2026-08-27T17:17:24Z</time>
  <course>306.89</course>
  <speed>2.1726711670199887</speed>
  <fix>3d</fix>
</trkpt>
<trkpt lat="40.0716698" lon="-105.2298397">
  <ele>1583.0</ele>
  <time>2026-08-27T17:17:24Z</time>
  <course>304.26</course>
  <speed>2.2</speed>
  <fix>3d</fix>
</trkpt>
<trkpt lat="40.0716742" lon="-105.2298477">
  <ele>1583.09</ele>
  <time>2026-08-27T17:17:24Z</time>
  <course>307.32</course>
  <speed>2.176235281397671</speed>
  <fix>3d</fix>
</trkpt>
<trkpt lat="40.0716721" lon="-105.2298439">
  <ele>1583.0</ele>
  <time>2026-08-27T17:17:24Z</time>
  <course>304.89</course>
  <speed>2.2</speed>
  <fix>3d</fix>
</trkpt>
<trkpt lat="40.0716754" lon="-105.2298498">
  <ele>1583.09</ele>
  <time>2026-08-27T17:17:24Z</time>
  <course>307.81</course>
  <speed>2.1660332407421636</speed>
  <fix>3d</fix>
</trkpt>
<trkpt lat="40.0716721" lon="-105.2298439">
  <ele>1583.0</ele>
  <time>2026-08-27T17:17:24Z</time>
  <course>304.89</course>
  <speed>2.2</speed>
  <fix>3d</fix>
</trkpt>
<trkpt lat="40.0716766" lon="-105.2298518">
  <ele>1583.09</ele>
  <time>2026-08-27T17:17:24Z</time>
  <course>308.38</course>
  <speed>2.1700230413523265</speed>
  <fix>3d</fix>
</trkpt>
<trkpt lat="40.0716744" lon="-105.2298481">
  <ele>1583.0</ele>
  <time>2026-08-27T17:17:24Z</time>
  <course>305.75</course>
  <speed>2.2</speed>
  <fix>3d</fix>
</trkpt>
<trkpt lat="40.0716777" lon="-105.2298539">
  <ele>1583.09</ele>
  <time>2026-08-27T17:17:24Z</time>
  <course>309.03</course>
  <speed>2.166333307688362</speed>
  <fix>3d</fix>
</trkpt>
<trkpt lat="40.0716744" lon="-105.2298481">
  <ele>1583.0</ele>
  <time>2026-08-27T17:17:24Z</time>
  <course>305.75</course>
  <speed>2.2</speed>
  <fix>3d</fix>
</trkpt>
<trkpt lat="40.071679" lon="-105.229856">
  <ele>1583.09</ele>
  <time>2026-08-27T17:17:24Z</time>
  <course>309.77</course>
  <speed>2.1630071659613153</speed>
  <fix>3d</fix>
</trkpt>
<trkpt lat="40.0716767" lon="-105.2298524">
  <ele>1583.0</ele>
  <time>2026-08-27T17:17:24Z</time>
  <course>306.89</course>
  <speed>2.2</speed>
  <fix>3d</fix>
</trkpt>
<trkpt lat="40.0716802" lon="-105.229858">
  <ele>1583.09</ele>
  <time>2026-08-27T17:17:24Z</time>
  <course>310.63</course>
  <speed>2.1600462958001616</speed>
  <fix>3d</fix>
</trkpt>
<trkpt lat="40.0716767" lon="-105.2298524">
  <ele>1583.0</ele>
  <time>2026-08-27T17:17:24Z</time>
  <course>306.89</course>
  <speed>2.2</speed>
  <fix>3d</fix>
</trkpt>
<trkpt lat="40.0716815" lon="-105.22986">
  <ele>1583.09</ele>
  <time>2026-08-27T17:17:24Z</time>
  <course>311.61</course>
  <speed>2.1562931155109686</speed>
  <fix>3d</fix>
</trkpt>
<trkpt lat="40.0716791" lon="-105.2298565">
  <ele>1583.0</ele>
  <time>2026-08-27T17:17:24Z</time>
  <course>308.38</course>
  <speed>2.19</speed>
  <fix>3d</fix>
</trkpt>
<trkpt lat="40.0716828" lon="-105.2298619">
  <ele>1583.09</ele>
  <time>2026-08-27T17:17:24Z</time>
  <course>312.74</course>
  <speed>2.153369452741447</speed>
  <fix>3d</fix>
</trkpt>
<trkpt lat="40.0716791" lon="-105.2298565">
  <ele>1583.0</ele>
  <time>2026-08-27T17:17:24Z</time>
  <course>308.38</course>
  <speed>2.19</speed>
  <fix>3d</fix>
</trkpt>
<trkpt lat="40.0716843" lon="-105.2298642">
  <ele>1583.09</ele>
  <time>2026-08-27T17:17:24Z</time>
  <course>314.33</course>
  <speed>2.1507673049402625</speed>
  <fix>3d</fix>
</trkpt>
<trkpt lat="40.0716816" lon="-105.2298604">
  <ele>1583.0</ele>
  <time>2026-08-27T17:17:24Z</time>
  <course>310.35</course>
  <speed>2.19</speed>
  <fix>3d</fix>
</trkpt>
<trkpt lat="40.0716857" lon="-105.2298661">
  <ele>1583.09</ele>
  <time>2026-08-27T17:17:24Z</time>
  <course>315.86</course>
  <speed>2.142545215392198</speed>
  <fix>3d</fix>
</trkpt>
<trkpt lat="40.0716816" lon="-105.2298604">
  <ele>1583.0</ele>
  <time>2026-08-27T17:17:24Z</time>
  <course>310.35</course>
  <speed>2.19</speed>
  <fix>3d</fix>
</trkpt>
<trkpt lat="40.0716871" lon="-105.2298679">
  <ele>1583.09</ele>
  <time>2026-08-27T17:17:24Z</time>
  <course>317.55</course>
  <speed>2.1362116000059546</speed>
  <fix>3d</fix>
</trkpt>
<trkpt lat="40.0716842" lon="-105.2298643">
  <ele>1583.0</ele>
  <time>2026-08-27T17:17:24Z</time>
  <course>312.94</course>
  <speed>2.18</speed>
  <fix>3d</fix>
</trkpt>
<trkpt lat="40.0716885" lon="-105.2298696">
  <ele>1583.1</ele>
  <time>2026-08-27T17:17:24Z</time>
  <course>319.44</course>
  <speed>2.132627487396709</speed>
  <fix>3d</fix>
</trkpt>
<trkpt lat="40.0716842" lon="-105.2298643">
  <ele>1583.0</ele>
  <time>2026-08-27T17:17:24Z</time>
  <course>312.94</course>
  <speed>2.18</speed>
  <fix>3d</fix>
</trkpt>
<trkpt lat="40.07169" lon="-105.2298713">
  <ele>1583.1</ele>
  <time>2026-08-27T17:17:24Z</time>
  <course>321.57</course>
  <speed>2.1241704263076446</speed>
  <fix>3d</fix>
</trkpt>
<trkpt lat="40.071687" lon="-105.2298679">
  <ele>1583.0</ele>
  <time>2026-08-27T17:17:24Z</time>
  <course>316.26</course>
  <speed>2.17</speed>
  <fix>3d</fix>
</trkpt>
<trkpt lat="40.0716915" lon="-105.2298728">
  <ele>1583.1</ele>
  <time>2026-08-27T17:17:24Z</time>
  <course>324.0</course>
  <speed>2.114000946073582</speed>
  <fix>3d</fix>
</trkpt>
<trkpt lat="40.071687" lon="-105.2298679">
  <ele>1583.0</ele>
  <time>2026-08-27T17:17:24Z</time>
  <course>316.26</course>
  <speed>2.17</speed>
  <fix>3d</fix>
</trkpt>
<trkpt lat="40.071693" lon="-105.2298743">
  <ele>1583.1</ele>
  <time>2026-08-27T17:17:24Z</time>
  <course>326.8</course>
  <speed>2.096783250600786</speed>
  <fix>3d</fix>
</trkpt>
<trkpt lat="40.0716898" lon="-105.2298713">
  <ele>1583.0</ele>
  <time>2026-08-27T17:17:24Z</time>
  <course>320.45</course>
  <speed>2.15</speed>
  <fix>3d</fix>
</trkpt>
<trkpt lat="40.0716946" lon="-105.2298756">
  <ele>1583.1</ele>
  <time>2026-08-27T17:17:24Z</time>
  <course>330.06</course>
  <speed>2.080312476528466</speed>
  <fix>3d</fix>
</trkpt>
<trkpt lat="40.0716898" lon="-105.2298713">
  <ele>1583.0</ele>
  <time>2026-08-27T17:17:24Z</time>
  <course>320.45</course>
  <speed>2.15</speed>
  <fix>3d</fix>
</trkpt>
<trkpt lat="40.0716962" lon="-105.2298768">
  <ele>1583.1</ele>
  <time>2026-08-27T17:17:24Z</time>
  <course>333.91</course>
  <speed>2.0571825392998067</speed>
  <fix>3d</fix>
</trkpt>
<trkpt lat="40.0716929" lon="-105.2298744">
  <ele>1583.0</ele>
  <time>2026-08-27T17:17:24Z</time>
  <course>325.92</course>
  <speed>2.12</speed>
  <fix>3d</fix>
</trkpt>
<trkpt lat="40.0716979" lon="-105.2298778">
  <ele>1583.1</ele>
  <time>2026-08-27T17:17:24Z</time>
  <course>338.49</course>
  <speed>2.0278066969018522</speed>
  <fix>3d</fix>
</trkpt>
<trkpt lat="40.0716929" lon="-105.2298744">
  <ele>1583.0</ele>
  <time>2026-08-27T17:17:24Z</time>
  <course>325.92</course>
  <speed>2.12</speed>
  <fix>3d</fix>
</trkpt>
<trkpt lat="40.0716996" lon="-105.2298786">
  <ele>1583.1</ele>
  <time>2026-08-27T17:17:24Z</time>
  <course>344.11</course>
  <speed>2.0</speed>
  <fix>3d</fix>
</trkpt>
<trkpt lat="40.0716962" lon="-105.2298768">
  <ele>1583.0</ele>
  <time>2026-08-27T17:17:24Z</time>
  <course>333.42</course>
  <speed>2.08</speed>
  <fix>3d</fix>
</trkpt>
<trkpt lat="40.071701" lon="-105.2298791">
  <ele>1583.1</ele>
  <time>2026-08-27T17:17:24Z</time>
  <course>349.35</course>
  <speed>1.9847921805569468</speed>
  <fix>3d</fix>
</trkpt>
<trkpt lat="40.0716962" lon="-105.2298768">
  <ele>1583.0</ele>
  <time>2026-08-27T17:17:24Z</time>
  <course>333.42</course>
  <speed>2.08</speed>
  <fix>3d</fix>
</trkpt>
<trkpt lat="40.0717028" lon="-105.2298793">
  <ele>1583.1</ele>
  <time>2026-08-27T17:17:24Z</time>
  <course>356.89</course>
  <speed>1.9625493624365222</speed>
  <fix>3d</fix>
</trkpt>
<trkpt lat="40.0716996" lon="-105.2298786">
  <ele>1583.0</ele>
  <time>2026-08-27T17:17:24Z</time>
  <course>344.13</course>
  <speed>2.03</speed>
  <fix>3d</fix>
</trkpt>
<trkpt lat="40.0717046" lon="-105.2298793">
  <ele>1583.09</ele>
  <time>2026-08-27T17:17:24Z</time>
  <course>5.49</course>
  <speed>1.9592345444075858</speed>
  <fix>3d</fix>
</trkpt>
<trkpt lat="40.0716996" lon="-105.2298786">
  <ele>1583.0</ele>
  <time>2026-08-27T17:17:24Z</time>
  <course>344.13</course>
  <speed>2.03</speed>
  <fix>3d</fix>
</trkpt>
<trkpt lat="40.0717063" lon="-105.2298788">
  <ele>1583.09</ele>
  <time>2026-08-27T17:17:24Z</time>
  <course>15.08</course>
  <speed>1.9409533739891847</speed>
  <fix>3d</fix>
</trkpt>
<trkpt lat="40.0717032" lon="-105.2298793">
  <ele>1583.0</ele>
  <time>2026-08-27T17:17:24Z</time>
  <course>359.04</course>
  <speed>1.99</speed>
  <fix>3d</fix>
</trkpt>
<trkpt lat="40.071708" lon="-105.229878">
  <ele>1583.09</ele>
  <time>2026-08-27T17:17:24Z</time>
  <course>25.63</course>
  <speed>1.9319679086361656</speed>
  <fix>3d</fix>
</trkpt>
<trkpt lat="40.0717032" lon="-105.2298793">
  <ele>1583.0</ele>
  <time>2026-08-27T17:17:24Z</time>
  <course>359.04</course>
  <speed>1.99</speed>
  <fix>3d</fix>
</trkpt>
<trkpt lat="40.0717095" lon="-105.2298769">
  <ele>1583.09</ele>
  <time>2026-08-27T17:17:24Z</time>
  <course>36.32</course>
  <speed>1.9181501505356664</speed>
  <fix>3d</fix>
</trkpt>
<trkpt lat="40.0717068" lon="-105.2298787">
  <ele>1583.0</ele>
  <time>2026-08-27T17:17:24Z</time>
  <course>17.91</course>
  <speed>1.95</speed>
  <fix>3d</fix>
</trkpt>
<trkpt lat="40.0717107" lon="-105.2298753">
  <ele>1583.09</ele>
  <time>2026-08-27T17:17:24Z</time>
  <course>46.23</course>
  <speed>1.8902116283633428</speed>
  <fix>3d</fix>
</trkpt>
<trkpt lat="40.0717068" lon="-105.2298787">
  <ele>1583.0</ele>
  <time>2026-08-27T17:17:24Z</time>
  <course>17.91</course>
  <speed>1.95</speed>
  <fix>3d</fix>
</trkpt>
<trkpt lat="40.0717118" lon="-105.2298735">
  <ele>1583.09</ele>
  <time>2026-08-27T17:17:24Z</time>
  <course>55.12</course>
  <speed>1.8139735389470266</speed>
  <fix>3d</fix>
</trkpt>
<trkpt lat="40.0717098" lon="-105.2298766">
  <ele>1583.0</ele>
  <time>2026-08-27T17:17:24Z</time>
  <course>38.16</course>
  <speed>1.9</speed>
  <fix>3d</fix>
</trkpt>
<trkpt lat="40.0717126" lon="-105.2298717">
  <ele>1583.09</ele>
  <time>2026-08-27T17:17:24Z</time>
  <course>62.88</course>
  <speed>1.744706279005151</speed>
  <fix>3d</fix>
</trkpt>
<trkpt lat="40.0717098" lon="-105.2298766">
  <ele>1583.0</ele>
  <time>2026-08-27T17:17:24Z</time>
  <course>38.16</course>
  <speed>1.9</speed>
  <fix>3d</fix>
</trkpt>
<trkpt lat="40.0717133" lon="-105.2298694">
  <ele>1583.08</ele>
  <time>2026-08-27T17:17:24Z</time>
  <course>70.8</course>
  <speed>1.695405556201819</speed>
  <fix>3d</fix>
</trkpt>
<trkpt lat="40.0717121" lon="-105.2298735">
  <ele>1583.0</ele>
  <time>2026-08-27T17:17:24Z</time>
  <course>55.88</course>
  <speed>1.8</speed>
  <fix>3d</fix>
</trkpt>
<trkpt lat="40.0717137" lon="-105.2298675">
  <ele>1583.08</ele>
  <time>2026-08-27T17:17:24Z</time>
  <course>76.21</course>
  <speed>1.6867127793432999</speed>
  <fix>3d</fix>
</trkpt>
<trkpt lat="40.0717121" lon="-105.2298735">
  <ele>1583.0</ele>
  <time>2026-08-27T17:17:24Z</time>
  <course>55.88</course>
  <speed>1.8</speed>
  <fix>3d</fix>
</trkpt>
<trkpt lat="40.071714" lon="-105.2298655">
  <ele>1583.09</ele>
  <time>2026-08-27T17:17:24Z</time>
  <course>80.55</course>
  <speed>1.695670958647343</speed>
  <fix>3d</fix>
</trkpt>
<trkpt lat="40.0717135" lon="-105.2298698">
  <ele>1583.0</ele>
  <time>2026-08-27T17:17:24Z</time>
  <course>69.73</course>
  <speed>1.7</speed>
  <fix>3d</fix>
</trkpt>
<trkpt lat="40.0717142" lon="-105.2298635">
  <ele>1583.08</ele>
  <time>2026-08-27T17:17:24Z</time>
  <course>83.8</course>
  <speed>1.71572142260916</speed>
  <fix>3d</fix>
</trkpt>
<trkpt lat="40.0717135" lon="-105.2298698">
  <ele>1583.0</ele>
  <time>2026-08-27T17:17:24Z</time>
  <course>69.73</course>
  <speed>1.7</speed>
  <fix>3d</fix>
</trkpt>
<trkpt lat="40.0717143" lon="-105.2298615">
  <ele>1583.08</ele>
  <time>2026-08-27T17:17:24Z</time>
  <course>85.95</course>
  <speed>1.7518276170902203</speed>
  <fix>3d</fix>
</trkpt>
<trkpt lat="40.0717142" lon="-105.2298659">
  <ele>1583.0</ele>
  <time>2026-08-27T17:17:24Z</time>
  <course>79.16</course>
  <speed>1.7</speed>
  <fix>3d</fix>
</trkpt>
<trkpt lat="40.0717144" lon="-105.2298594">
  <ele>1583.08</ele>
  <time>2026-08-27T17:17:24Z</time>
  <course>87.23</course>
  <speed>1.8006943105369106</speed>
  <fix>3d</fix>
</trkpt>
<trkpt lat="40.0717142" lon="-105.2298659">
  <ele>1583.0</ele>
  <time>2026-08-27T17:17:24Z</time>
  <course>79.16</course>
  <speed>1.7</speed>
  <fix>3d</fix>
</trkpt>
<trkpt lat="40.0717145" lon="-105.2298573">
  <ele>1583.08</ele>
  <time>2026-08-27T17:17:24Z</time>
  <course>88.31</course>
  <speed>1.840108692441835</speed>
  <fix>3d</fix>
</trkpt>
<trkpt lat="40.0717147" lon="-105.2298619">
  <ele>1583.0</ele>
  <time>2026-08-27T17:17:24Z</time>
  <course>84.34</course>
  <speed>1.75</speed>
  <fix>3d</fix>
</trkpt>
<trkpt lat="40.0717146" lon="-105.2298551">
  <ele>1583.08</ele>
  <time>2026-08-27T17:17:24Z</time>
  <course>89.21</course>
  <speed>1.89</speed>
  <fix>3d</fix>
</trkpt>
<trkpt lat="40.0717147" lon="-105.2298619">
  <ele>1583.0</ele>
  <time>2026-08-27T17:17:24Z</time>
  <course>84.34</course>
  <speed>1.75</speed>
  <fix>3d</fix>
</trkpt>
<trkpt lat="40.0717146" lon="-105.2298529">
  <ele>1583.08</ele>
  <time>2026-08-27T17:17:24Z</time>
  <course>89.94</course>
  <speed>1.9300259065618783</speed>
  <fix>3d</fix>
</trkpt>
<trkpt lat="40.0717149" lon="-105.2298577">
  <ele>1583.0</ele>
  <time>2026-08-27T17:17:24Z</time>
  <course>86.89</course>
  <speed>1.83</speed>
  <fix>3d</fix>
</trkpt>
<trkpt lat="40.0717146" lon="-105.2298507">
  <ele>1583.08</ele>
  <time>2026-08-27T17:17:24Z</time>
  <course>90.54</course>
  <speed>1.970101520226813</speed>
  <fix>3d</fix>
</trkpt>
<trkpt lat="40.0717149" lon="-105.2298577">
  <ele>1583.0</ele>
  <time>2026-08-27T17:17:24Z</time>
  <course>86.89</course>
  <speed>1.83</speed>
  <fix>3d</fix>
</trkpt>
<trkpt lat="40.0717147" lon="-105.2298484">
  <ele>1583.08</ele>
  <time>2026-08-27T17:17:24Z</time>
  <course>91.04</course>
  <speed>2.000224987345174</speed>
  <fix>3d</fix>
</trkpt>
<trkpt lat="40.071715" lon="-105.2298533">
  <ele>1583.0</ele>
  <time>2026-08-27T17:17:24Z</time>
  <course>88.5</course>
  <speed>1.92</speed>
  <fix>3d</fix>
</trkpt>
<trkpt lat="40.0717148" lon="-105.229846">
  <ele>1583.08</ele>
  <time>2026-08-27T17:17:24Z</time>
  <course>91.45</course>
  <speed>2.0303940504246953</speed>
  <fix>3d</fix>
</trkpt>
<trkpt lat="40.071715" lon="-105.2298533">
  <ele>1583.0</ele>
  <time>2026-08-27T17:17:24Z</time>
  <course>88.5</course>
  <speed>1.92</speed>
  <fix>3d</fix>
</trkpt>
<trkpt lat="40.0717148" lon="-105.2298441">
  <ele>1583.08</ele>
  <time>2026-08-27T17:17:24Z</time>
  <course>91.71</course>
  <speed>2.0506096654409878</speed>
  <fix>3d</fix>
</trkpt>
<trkpt lat="40.0717151" lon="-105.2298487">
  <ele>1583.0</ele>
  <time>2026-08-27T17:17:24Z</time>
  <course>89.58</course>
  <speed>1.98</speed>
  <fix>3d</fix>
</trkpt>
<trkpt lat="40.0717148" lon="-105.2298417">
  <ele>1583.08</ele>
  <time>2026-08-27T17:17:24Z</time>
  <course>91.96</course>
  <speed>2.080600874747485</speed>
  <fix>3d</fix>
</trkpt>
<trkpt lat="40.0717151" lon="-105.2298487">
  <ele>1583.0</ele>
  <time>2026-08-27T17:17:24Z</time>
  <course>89.58</course>
  <speed>1.98</speed>
  <fix>3d</fix>
</trkpt>
<trkpt lat="40.0717148" lon="-105.2298392">
  <ele>1583.08</ele>
  <time>2026-08-27T17:17:24Z</time>
  <course>92.17</course>
  <speed>2.1005951537600005</speed>
  <fix>3d</fix>
</trkpt>
<trkpt lat="40.0717151" lon="-105.229844">
  <ele>1583.0</ele>
  <time>2026-08-27T17:17:24Z</time>
  <course>90.28</course>
  <speed>2.04</speed>
  <fix>3d</fix>
</trkpt>
<trkpt lat="40.0717148" lon="-105.2298368">
  <ele>1583.09</ele>
  <time>2026-08-27T17:17:24Z</time>
  <course>92.36</course>
  <speed>2.1105923339195565</speed>
  <fix>3d</fix>
</trkpt>
<trkpt lat="40.0717151" lon="-105.229844">
  <ele>1583.0</ele>
  <time>2026-08-27T17:17:24Z</time>
  <course>90.28</course>
  <speed>2.04</speed>
  <fix>3d</fix>
</trkpt>
<trkpt lat="40.0717148" lon="-105.2298343">
  <ele>1583.09</ele>
  <time>2026-08-27T17:17:24Z</time>
  <course>92.53</course>
  <speed>2.1305867736377224</speed>
  <fix>3d</fix>
</trkpt>
<trkpt lat="40.0717151" lon="-105.2298391">
  <ele>1583.0</ele>
  <time>2026-08-27T17:17:24Z</time>
  <course>90.75</course>
  <speed>2.08</speed>
  <fix>3d</fix>
</trkpt>
<trkpt lat="40.0717148" lon="-105.2298318">
  <ele>1583.1</ele>
  <time>2026-08-27T17:17:24Z</time>
  <course>92.7</course>
  <speed>2.1405840324546945</speed>
  <fix>3d</fix>
</trkpt>
<trkpt lat="40.0717151" lon="-105.2298391">
  <ele>1583.0</ele>
  <time>2026-08-27T17:17:24Z</time>
  <course>90.75</course>
  <speed>2.08</speed>
  <fix>3d</fix>
</trkpt>
<trkpt lat="40.0717148" lon="-105.2298293">
  <ele>1583.1</ele>
  <time>2026-08-27T17:17:24Z</time>
  <course>92.84</course>
  <speed>2.1505813167606567</speed>
  <fix>3d</fix>
</trkpt>
<trkpt lat="40.0717151" lon="-105.2298342">
  <ele>1583.0</ele>
  <time>2026-08-27T17:17:24Z</time>
  <course>91.11</course>
  <speed>2.11</speed>
  <fix>3d</fix>
</trkpt>
<trkpt lat="40.0717148" lon="-105.2298267">
  <ele>1583.1</ele>
  <time>2026-08-27T17:17:24Z</time>
  <course>92.98</course>
  <speed>2.1605786262017865</speed>
  <fix>3d</fix>
</trkpt>
<trkpt lat="40.0717151" lon="-105.2298342">
  <ele>1583.0</ele>
  <time>2026-08-27T17:17:24Z</time>
  <course>91.11</course>
  <speed>2.11</speed>
  <fix>3d</fix>
</trkpt>
<trkpt lat="40.0717147" lon="-105.2298242">
  <ele>1583.1</ele>
  <time>2026-08-27T17:17:24Z</time>
  <course>93.09</course>
  <speed>2.1705759604307793</speed>
  <fix>3d</fix>
</trkpt>
<trkpt lat="40.071715" lon="-105.2298293">
  <ele>1583.0</ele>
  <time>2026-08-27T17:17:24Z</time>
  <course>91.41</course>
  <speed>2.13</speed>
  <fix>3d</fix>
</trkpt>
<trkpt lat="40.0717147" lon="-105.2298211">
  <ele>1583.11</ele>
  <time>2026-08-27T17:17:24Z</time>
  <course>93.23</course>
  <speed>2.180573319106698</speed>
  <fix>3d</fix>
</trkpt>
<trkpt lat="40.071715" lon="-105.2298293">
  <ele>1583.0</ele>
  <time>2026-08-27T17:17:24Z</time>
  <course>91.41</course>
  <speed>2.13</speed>
  <fix>3d</fix>
</trkpt>
<trkpt lat="40.0717147" lon="-105.2298186">
  <ele>1583.11</ele>
  <time>2026-08-27T17:17:24Z</time>
  <course>93.32</course>
  <speed>2.190570701894828</speed>
  <fix>3d</fix>
</trkpt>
<trkpt lat="40.0717149" lon="-105.2298242">
  <ele>1583.0</ele>
  <time>2026-08-27T17:17:24Z</time>
  <course>91.66</course>
  <speed>2.15</speed>
  <fix>3d</fix>
</trkpt>
<trkpt lat="40.0717147" lon="-105.229816">
  <ele>1583.11</ele>
  <time>2026-08-27T17:17:24Z</time>
  <course>93.4</course>
  <speed>2.190570701894828</speed>
  <fix>3d</fix>
</trkpt>
<trkpt lat="40.0717149" lon="-105.2298242">
  <ele>1583.0</ele>
  <time>2026-08-27T17:17:24Z</time>
  <course>91.66</course>
  <speed>2.15</speed>
  <fix>3d</fix>
</trkpt>
<trkpt lat="40.0717146" lon="-105.2298135">
  <ele>1583.11</ele>
  <time>2026-08-27T17:17:24Z</time>
  <course>93.49</course>
  <speed>2.190570701894828</speed>
  <fix>3d</fix>
</trkpt>
<trkpt lat="40.0717148" lon="-105.2298191">
  <ele>1583.0</ele>
  <time>2026-08-27T17:17:24Z</time>
  <course>91.87</course>
  <speed>2.16</speed>
  <fix>3d</fix>
</trkpt>
<trkpt lat="40.0717146" lon="-105.2298109">
  <ele>1583.11</ele>
  <time>2026-08-27T17:17:24Z</time>
  <course>93.57</course>
  <speed>2.2005681084665385</speed>
  <fix>3d</fix>
</trkpt>
<trkpt lat="40.0717148" lon="-105.2298191">
  <ele>1583.0</ele>
  <time>2026-08-27T17:17:24Z</time>
  <course>91.87</course>
  <speed>2.16</speed>
  <fix>3d</fix>
</trkpt>
<trkpt lat="40.0717145" lon="-105.2298084">
  <ele>1583.11</ele>
  <time>2026-08-27T17:17:24Z</time>
  <course>93.65</course>
  <speed>2.2005681084665385</speed>
  <fix>3d</fix>
</trkpt>
<trkpt lat="40.0717147" lon="-105.229814">
  <ele>1583.0</ele>
  <time>2026-08-27T17:17:24Z</time>
  <course>92.04</course>
  <speed>2.17</speed>
  <fix>3d</fix>
</trkpt>
<trkpt lat="40.0717145" lon="-105.2298058">
  <ele>1583.11</ele>
  <time>2026-08-27T17:17:24Z</time>
  <course>93.7</course>
  <speed>2.2005681084665385</speed>
  <fix>3d</fix>
</trkpt>
<trkpt lat="40.0717147" lon="-105.229814">
  <ele>1583.0</ele>
  <time>2026-08-27T17:17:24Z</time>
  <course>92.04</course>
  <speed>2.17</speed>
  <fix>3d</fix>
</trkpt>
<trkpt lat="40.0717145" lon="-105.2298033">
  <ele>1583.11</ele>
  <time>2026-08-27T17:17:24Z</time>
  <course>93.76</course>
  <speed>2.2005681084665385</speed>
  <fix>3d</fix>
</trkpt>
<trkpt lat="40.0717145" lon="-105.2298089">
  <ele>1583.0</ele>
  <time>2026-08-27T17:17:24Z</time>
  <course>92.2</course>
  <speed>2.18</speed>
  <fix>3d</fix>
</trkpt>
<trkpt lat="40.0717144" lon="-105.2298008">
  <ele>1583.11</ele>
  <time>2026-08-27T17:17:24Z</time>
  <course>93.81</course>
  <speed>2.2005681084665385</speed>
  <fix>3d</fix>
</trkpt>
<trkpt lat="40.0717145" lon="-105.2298089">
  <ele>1583.0</ele>
  <time>2026-08-27T17:17:24Z</time>
  <course>92.2</course>
  <speed>2.18</speed>
  <fix>3d</fix>
</trkpt>
<trkpt lat="40.0717143" lon="-105.2297982">
  <ele>1583.11</ele>
  <time>2026-08-27T17:17:24Z</time>
  <course>93.87</course>
  <speed>2.2005681084665385</speed>
  <fix>3d</fix>
</trkpt>
<trkpt lat="40.0717144" lon="-105.2298038">
  <ele>1583.0</ele>
  <time>2026-08-27T17:17:24Z</time>
  <course>92.32</course>
  <speed>2.18</speed>
  <fix>3d</fix>
</trkpt>
<trkpt lat="40.0717143" lon="-105.2297957">
  <ele>1583.11</ele>
  <time>2026-08-27T17:17:24Z</time>
  <course>93.92</course>
  <speed>2.190570701894828</speed>
  <fix>3d</fix>
</trkpt>
<trkpt lat="40.0717144" lon="-105.2298038">
  <ele>1583.0</ele>
  <time>2026-08-27T17:17:24Z</time>
  <course>92.32</course>
  <speed>2.18</speed>
  <fix>3d</fix>
</trkpt>
<trkpt lat="40.0717142" lon="-105.2297937">
  <ele>1583.11</ele>
  <time>2026-08-27T17:17:24Z</time>
  <course>93.96</course>
  <speed>2.190570701894828</speed>
  <fix>3d</fix>
</trkpt>
<trkpt lat="40.0717142" lon="-105.2297987">
  <ele>1583.0</ele>
  <time>2026-08-27T17:17:24Z</time>
  <course>92.44</course>
  <speed>2.19</speed>
  <fix>3d</fix>
</trkpt>
<trkpt lat="40.0717142" lon="-105.2297911">
  <ele>1583.11</ele>
  <time>2026-08-27T17:17:24Z</time>
  <course>93.99</course>
  <speed>2.190570701894828</speed>
  <fix>3d</fix>
</trkpt>
<trkpt lat="40.0717142" lon="-105.2297987">
  <ele>1583.0</ele>
  <time>2026-08-27T17:17:24Z</time>
  <course>92.44</course>
  <speed>2.19</speed>
  <fix>3d</fix>
</trkpt>
<trkpt lat="40.0717141" lon="-105.2297886">
  <ele>1583.11</ele>
  <time>2026-08-27T17:17:24Z</time>
  <course>94.02</course>
  <speed>2.190570701894828</speed>
  <fix>3d</fix>
</trkpt>
<trkpt lat="40.071714" lon="-105.2297935">
  <ele>1583.0</ele>
  <time>2026-08-27T17:17:24Z</time>
  <course>92.54</course>
  <speed>2.19</speed>
  <fix>3d</fix>
</trkpt>
<trkpt lat="40.071714" lon="-105.229786">
  <ele>1583.11</ele>
  <time>2026-08-27T17:17:24Z</time>
  <course>94.05</course>
  <speed>2.190570701894828</speed>
  <fix>3d</fix>
</trkpt>
<trkpt lat="40.071714" lon="-105.2297935">
  <ele>1583.0</ele>
  <time>2026-08-27T17:17:24Z</time>
  <course>92.54</course>
  <speed>2.19</speed>
  <fix>3d</fix>
</trkpt>
<trkpt lat="40.0717139" lon="-105.2297835">
  <ele>1583.11</ele>
  <time>2026-08-27T17:17:24Z</time>
  <course>94.07</course>
  <speed>2.190570701894828</speed>
  <fix>3d</fix>
</trkpt>
<trkpt lat="40.0717139" lon="-105.2297883">
  <ele>1583.0</ele>
  <time>2026-08-27T17:17:24Z</time>
  <course>92.62</course>
  <speed>2.19</speed>
  <fix>3d</fix>
</trkpt>
<trkpt lat="40.0717138" lon="-105.2297809">
  <ele>1583.11</ele>
  <time>2026-08-27T17:17:24Z</time>
  <course>94.1</course>
  <speed>2.190821763631172</speed>
  <fix>3d</fix>
</trkpt>
<trkpt lat="40.0717139" lon="-105.2297883">
  <ele>1583.0</ele>
  <time>2026-08-27T17:17:24Z</time>
  <course>92.62</course>
  <speed>2.19</speed>
  <fix>3d</fix>
</trkpt>
<trkpt lat="40.0717138" lon="-105.2297783">
  <ele>1583.11</ele>
  <time>2026-08-27T17:17:24Z</time>
  <course>94.12</course>
  <speed>2.190821763631172</speed>
  <fix>3d</fix>
</trkpt>
<trkpt lat="40.0717136" lon="-105.2297832">
  <ele>1583.0</ele>
  <time>2026-08-27T17:17:24Z</time>
  <course>92.68</course>
  <speed>2.19</speed>
  <fix>3d</fix>
</trkpt>
<trkpt lat="40.0717137" lon="-105.2297757">
  <ele>1583.1</ele>
  <time>2026-08-27T17:17:25Z</time>
  <course>94.15</course>
  <speed>2.190821763631172</speed>
  <fix>3d</fix>
</trkpt>
<trkpt lat="40.0717136" lon="-105.2297832">
  <ele>1583.0</ele>
  <time>2026-08-27T17:17:25Z</time>
  <course>92.68</course>
  <speed>2.19</speed>
  <fix>3d</fix>
</trkpt>
<trkpt lat="40.0717136" lon="-105.2297731">
  <ele>1583.1</ele>
  <time>2026-08-27T17:17:25Z</time>
  <course>94.17</course>
  <speed>2.190821763631172</speed>
  <fix>3d</fix>
</trkpt>
<trkpt lat="40.0717135" lon="-105.229778">
  <ele>1583.0</ele>
  <time>2026-08-27T17:17:25Z</time>
  <course>92.74</course>
  <speed>2.19</speed>
  <fix>3d</fix>
</trkpt>
<trkpt lat="40.0717135" lon="-105.2297705">
  <ele>1583.1</ele>
  <time>2026-08-27T17:17:25Z</time>
  <course>94.17</course>
  <speed>2.190821763631172</speed>
  <fix>3d</fix>
</trkpt>
<trkpt lat="40.0717135" lon="-105.229778">
  <ele>1583.0</ele>
  <time>2026-08-27T17:17:25Z</time>
  <course>92.74</course>
  <speed>2.19</speed>
  <fix>3d</fix>
</trkpt>
<trkpt lat="40.0717134" lon="-105.2297674">
  <ele>1583.1</ele>
  <time>2026-08-27T17:17:25Z</time>
  <course>94.18</course>
  <speed>2.190821763631172</speed>
  <fix>3d</fix>
</trkpt>
<trkpt lat="40.0717133" lon="-105.2297729">
  <ele>1583.0</ele>
  <time>2026-08-27T17:17:25Z</time>
  <course>92.78</course>
  <speed>2.19</speed>
  <fix>3d</fix>
</trkpt>
<trkpt lat="40.0717133" lon="-105.2297648">
  <ele>1583.09</ele>
  <time>2026-08-27T17:17:25Z</time>
  <course>94.17</course>
  <speed>2.190821763631172</speed>
  <fix>3d</fix>
</trkpt>
<trkpt lat="40.0717133" lon="-105.2297729">
  <ele>1583.0</ele>
  <time>2026-08-27T17:17:25Z</time>
  <course>92.78</course>
  <speed>2.19</speed>
  <fix>3d</fix>
</trkpt>
<trkpt lat="40.0717132" lon="-105.2297623">
  <ele>1583.09</ele>
  <time>2026-08-27T17:17:25Z</time>
  <course>94.17</course>
  <speed>2.191118435867856</speed>
  <fix>3d</fix>
</trkpt>
<trkpt lat="40.071713" lon="-105.2297677">
  <ele>1583.0</ele>
  <time>2026-08-27T17:17:25Z</time>
  <course>92.8</course>
  <speed>2.19</speed>
  <fix>3d</fix>
</trkpt>
<trkpt lat="40.0717131" lon="-105.2297597">
  <ele>1583.09</ele>
  <time>2026-08-27T17:17:25Z</time>
  <course>94.16</course>
  <speed>2.191118435867856</speed>
  <fix>3d</fix>
</trkpt>
<trkpt lat="40.071713" lon="-105.2297677">
  <ele>1583.0</ele>
  <time>2026-08-27T17:17:25Z</time>
  <course>92.8</course>
  <speed>2.19</speed>
  <fix>3d</fix>
</trkpt>
<trkpt lat="40.071713" lon="-105.2297571">
  <ele>1583.09</ele>
  <time>2026-08-27T17:17:25Z</time>
  <course>94.16</course>
  <speed>2.1811235636707975</speed>
  <fix>3d</fix>
</trkpt>
<trkpt lat="40.0717128" lon="-105.2297626">
  <ele>1583.0</ele>
  <time>2026-08-27T17:17:25Z</time>
  <course>92.8</course>
  <speed>2.19</speed>
  <fix>3d</fix>
</trkpt>
<trkpt lat="40.0717129" lon="-105.2297545">
  <ele>1583.1</ele>
  <time>2026-08-27T17:17:25Z</time>
  <course>94.15</course>
  <speed>2.1811235636707975</speed>
  <fix>3d</fix>
</trkpt>
<trkpt lat="40.0717128" lon="-105.2297626">
  <ele>1583.0</ele>
  <time>2026-08-27T17:17:25Z</time>
  <course>92.8</course>
  <speed>2.19</speed>
  <fix>3d</fix>
</trkpt>
<trkpt lat="40.0717128" lon="-105.229752">
  <ele>1583.1</ele>
  <time>2026-08-27T17:17:25Z</time>
  <course>94.15</course>
  <speed>2.1811235636707975</speed>
  <fix>3d</fix>
</trkpt>
<trkpt lat="40.0717127" lon="-105.2297574">
  <ele>1583.0</ele>
  <time>2026-08-27T17:17:25Z</time>
  <course>92.8</course>
  <speed>2.19</speed>
  <fix>3d</fix>
</trkpt>
<trkpt lat="40.0717127" lon="-105.2297494">
  <ele>1583.1</ele>
  <time>2026-08-27T17:17:25Z</time>
  <course>94.14</course>
  <speed>2.1811235636707975</speed>
  <fix>3d</fix>
</trkpt>
<trkpt lat="40.0717127" lon="-105.2297574">
  <ele>1583.0</ele>
  <time>2026-08-27T17:17:25Z</time>
  <course>92.8</course>
  <speed>2.19</speed>
  <fix>3d</fix>
</trkpt>
<trkpt lat="40.0717126" lon="-105.2297469">
  <ele>1583.1</ele>
  <time>2026-08-27T17:17:25Z</time>
  <course>94.14</course>
  <speed>2.1811235636707975</speed>
  <fix>3d</fix>
</trkpt>
<trkpt lat="40.0717124" lon="-105.2297523">
  <ele>1583.0</ele>
  <time>2026-08-27T17:17:25Z</time>
  <course>92.8</course>
  <speed>2.19</speed>
  <fix>3d</fix>
</trkpt>
<trkpt lat="40.0717125" lon="-105.2297443">
  <ele>1583.1</ele>
  <time>2026-08-27T17:17:25Z</time>
  <course>94.13</course>
  <speed>2.1811235636707975</speed>
  <fix>3d</fix>
</trkpt>
<trkpt lat="40.0717124" lon="-105.2297523">
  <ele>1583.0</ele>
  <time>2026-08-27T17:17:25Z</time>
  <course>92.8</course>
  <speed>2.19</speed>
  <fix>3d</fix>
</trkpt>
<trkpt lat="40.0717124" lon="-105.2297418">
  <ele>1583.1</ele>
  <time>2026-08-27T17:17:25Z</time>
  <course>94.13</course>
  <speed>2.1714741536569115</speed>
  <fix>3d</fix>
</trkpt>
<trkpt lat="40.0717123" lon="-105.2297471">
  <ele>1583.0</ele>
  <time>2026-08-27T17:17:25Z</time>
  <course>92.8</course>
  <speed>2.19</speed>
  <fix>3d</fix>
</trkpt>
<trkpt lat="40.0717123" lon="-105.2297397">
  <ele>1583.09</ele>
  <time>2026-08-27T17:17:25Z</time>
  <course>94.12</course>
  <speed>2.1714741536569115</speed>
  <fix>3d</fix>
</trkpt>
<trkpt lat="40.0717123" lon="-105.2297471">
  <ele>1583.0</ele>
  <time>2026-08-27T17:17:25Z</time>
  <course>92.8</course>
  <speed>2.19</speed>
  <fix>3d</fix>
</trkpt>
<trkpt lat="40.0717122" lon="-105.2297372">
  <ele>1583.09</ele>
  <time>2026-08-27T17:17:25Z</time>
  <course>94.1</course>
  <speed>2.1714741536569115</speed>
  <fix>3d</fix>
</trkpt>
<trkpt lat="40.0717122" lon="-105.2297419">
  <ele>1583.0</ele>
  <time>2026-08-27T17:17:25Z</time>
  <course>92.79</course>
  <speed>2.19</speed>
  <fix>3d</fix>
</trkpt>
<trkpt lat="40.0717121" lon="-105.2297346">
  <ele>1583.09</ele>
  <time>2026-08-27T17:17:25Z</time>
  <course>94.07</course>
  <speed>2.1714741536569115</speed>
  <fix>3d</fix>
</trkpt>
<trkpt lat="40.0717122" lon="-105.2297419">
  <ele>1583.0</ele>
  <time>2026-08-27T17:17:25Z</time>
  <course>92.79</course>
  <speed>2.19</speed>
  <fix>3d</fix>
</trkpt>
<trkpt lat="40.071712" lon="-105.2297321">
  <ele>1583.09</ele>
  <time>2026-08-27T17:17:25Z</time>
  <course>94.04</course>
  <speed>2.1714741536569115</speed>
  <fix>3d</fix>
</trkpt>
<trkpt lat="40.071712" lon="-105.2297368">
  <ele>1583.0</ele>
  <time>2026-08-27T17:17:25Z</time>
  <course>92.76</course>
  <speed>2.19</speed>
  <fix>3d</fix>
</trkpt>
<trkpt lat="40.0717119" lon="-105.2297295">
  <ele>1583.09</ele>
  <time>2026-08-27T17:17:25Z</time>
  <course>94.01</course>
  <speed>2.1714741536569115</speed>
  <fix>3d</fix>
</trkpt>
<trkpt lat="40.071712" lon="-105.2297368">
  <ele>1583.0</ele>
  <time>2026-08-27T17:17:25Z</time>
  <course>92.76</course>
  <speed>2.19</speed>
  <fix>3d</fix>
</trkpt>
<trkpt lat="40.0717118" lon="-105.2297269">
  <ele>1583.09</ele>
  <time>2026-08-27T17:17:25Z</time>
  <course>93.98</course>
  <speed>2.1714741536569115</speed>
  <fix>3d</fix>
</trkpt>
<trkpt lat="40.0717118" lon="-105.2297317">
  <ele>1583.0</ele>
  <time>2026-08-27T17:17:25Z</time>
  <course>92.71</course>
  <speed>2.19</speed>
  <fix>3d</fix>
</trkpt>
<trkpt lat="40.0717117" lon="-105.2297243">
  <ele>1583.09</ele>
  <time>2026-08-27T17:17:25Z</time>
  <course>93.95</course>
  <speed>2.1714741536569115</speed>
  <fix>3d</fix>
</trkpt>
<trkpt lat="40.0717118" lon="-105.2297317">
  <ele>1583.0</ele>
  <time>2026-08-27T17:17:25Z</time>
  <course>92.71</course>
  <speed>2.19</speed>
  <fix>3d</fix>
</trkpt>
<trkpt lat="40.0717116" lon="-105.2297217">
  <ele>1583.09</ele>
  <time>2026-08-27T17:17:25Z</time>
  <course>93.92</course>
  <speed>2.1714741536569115</speed>
  <fix>3d</fix>
</trkpt>
<trkpt lat="40.0717116" lon="-105.2297265">
  <ele>1583.0</ele>
  <time>2026-08-27T17:17:25Z</time>
  <course>92.65</course>
  <speed>2.19</speed>
  <fix>3d</fix>
</trkpt>
<trkpt lat="40.0717115" lon="-105.2297191">
  <ele>1583.09</ele>
  <time>2026-08-27T17:17:25Z</time>
  <course>93.89</course>
  <speed>2.1714741536569115</speed>
  <fix>3d</fix>
</trkpt>
<trkpt lat="40.0717116" lon="-105.2297265">
  <ele>1583.0</ele>
  <time>2026-08-27T17:17:25Z</time>
  <course>92.65</course>
  <speed>2.19</speed>
  <fix>3d</fix>
</trkpt>
<trkpt lat="40.0717114" lon="-105.2297166">
  <ele>1583.1</ele>
  <time>2026-08-27T17:17:25Z</time>
  <course>93.86</course>
  <speed>2.1714741536569115</speed>
  <fix>3d</fix>
</trkpt>
<trkpt lat="40.0717114" lon="-105.2297213">
  <ele>1583.0</ele>
  <time>2026-08-27T17:17:25Z</time>
  <course>92.59</course>
  <speed>2.19</speed>
  <fix>3d</fix>
</trkpt>
<trkpt lat="40.0717113" lon="-105.2297135">
  <ele>1583.1</ele>
  <time>2026-08-27T17:17:25Z</time>
  <course>93.82</course>
  <speed>2.1714741536569115</speed>
  <fix>3d</fix>
</trkpt>
<trkpt lat="40.0717114" lon="-105.2297213">
  <ele>1583.0</ele>
  <time>2026-08-27T17:17:25Z</time>
  <course>92.59</course>
  <speed>2.19</speed>
  <fix>3d</fix>
</trkpt>
<trkpt lat="40.0717112" lon="-105.2297109">
  <ele>1583.1</ele>
  <time>2026-08-27T17:17:25Z</time>
  <course>93.79</course>
  <speed>2.1714741536569115</speed>
  <fix>3d</fix>
</trkpt>
<trkpt lat="40.0717111" lon="-105.2297162">
  <ele>1583.0</ele>
  <time>2026-08-27T17:17:25Z</time>
  <course>92.53</course>
  <speed>2.2</speed>
  <fix>3d</fix>
</trkpt>
<trkpt lat="40.0717111" lon="-105.2297083">
  <ele>1583.1</ele>
  <time>2026-08-27T17:17:25Z</time>
  <course>93.76</course>
  <speed>2.1714741536569115</speed>
  <fix>3d</fix>
</trkpt>
<trkpt lat="40.0717111" lon="-105.2297162">
  <ele>1583.0</ele>
  <time>2026-08-27T17:17:25Z</time>
  <course>92.53</course>
  <speed>2.2</speed>
  <fix>3d</fix>
</trkpt>
<trkpt lat="40.071711" lon="-105.2297057">
  <ele>1583.1</ele>
  <time>2026-08-27T17:17:25Z</time>
  <course>93.73</course>
  <speed>2.1714741536569115</speed>
  <fix>3d</fix>
</trkpt>
<trkpt lat="40.071711" lon="-105.2297111">
  <ele>1583.0</ele>
  <time>2026-08-27T17:17:25Z</time>
  <course>92.47</course>
  <speed>2.2</speed>
  <fix>3d</fix>
</trkpt>
<trkpt lat="40.0717109" lon="-105.2297031">
  <ele>1583.11</ele>
  <time>2026-08-27T17:17:25Z</time>
  <course>93.7</course>
  <speed>2.1714741536569115</speed>
  <fix>3d</fix>
</trkpt>
<trkpt lat="40.071711" lon="-105.2297111">
  <ele>1583.0</ele>
  <time>2026-08-27T17:17:25Z</time>
  <course>92.47</course>
  <speed>2.2</speed>
  <fix>3d</fix>
</trkpt>
<trkpt lat="40.0717108" lon="-105.2297006">
  <ele>1583.11</ele>
  <time>2026-08-27T17:17:25Z</time>
  <course>93.67</course>
  <speed>2.1714741536569115</speed>
  <fix>3d</fix>
</trkpt>
<trkpt lat="40.0717109" lon="-105.2297059">
  <ele>1583.0</ele>
  <time>2026-08-27T17:17:25Z</time>
  <course>92.41</course>
  <speed>2.2</speed>
  <fix>3d</fix>
</trkpt>
<trkpt lat="40.0717107" lon="-105.229698">
  <ele>1583.11</ele>
  <time>2026-08-27T17:17:25Z</time>
  <course>93.64</course>
  <speed>2.1614809737770075</speed>
  <fix>3d</fix>
</trkpt>
<trkpt lat="40.0717109" lon="-105.2297059">
  <ele>1583.0</ele>
  <time>2026-08-27T17:17:25Z</time>
  <course>92.41</course>
  <speed>2.2</speed>
  <fix>3d</fix>
</trkpt>
<trkpt lat="40.0717107" lon="-105.2296955">
  <ele>1583.11</ele>
  <time>2026-08-27T17:17:25Z</time>
  <course>93.61</course>
  <speed>2.1614809737770075</speed>
  <fix>3d</fix>
</trkpt>
<trkpt lat="40.0717106" lon="-105.2297007">
  <ele>1583.0</ele>
  <time>2026-08-27T17:17:25Z</time>
  <course>92.35</course>
  <speed>2.2</speed>
  <fix>3d</fix>
</trkpt>
<trkpt lat="40.0717106" lon="-105.2296929">
  <ele>1583.1</ele>
  <time>2026-08-27T17:17:25Z</time>
  <course>93.58</course>
  <speed>2.1614809737770075</speed>
  <fix>3d</fix>
</trkpt>
<trkpt lat="40.0717106" lon="-105.2297007">
  <ele>1583.0</ele>
  <time>2026-08-27T17:17:25Z</time>
  <course>92.35</course>
  <speed>2.2</speed>
  <fix>3d</fix>
</trkpt>
<trkpt lat="40.0717105" lon="-105.2296904">
  <ele>1583.1</ele>
  <time>2026-08-27T17:17:25Z</time>
  <course>93.54</course>
  <speed>2.1614809737770075</speed>
  <fix>3d</fix>
</trkpt>
<trkpt lat="40.0717105" lon="-105.2296956">
  <ele>1583.0</ele>
  <time>2026-08-27T17:17:25Z</time>
  <course>92.29</course>
  <speed>2.2</speed>
  <fix>3d</fix>
</trkpt>
<trkpt lat="40.0717104" lon="-105.2296878">
  <ele>1583.1</ele>
  <time>2026-08-27T17:17:25Z</time>
  <course>93.5</course>
  <speed>2.1614809737770075</speed>
  <fix>3d</fix>
</trkpt>
<trkpt lat="40.0717105" lon="-105.2296956">
  <ele>1583.0</ele>
  <time>2026-08-27T17:17:25Z</time>
  <course>92.29</course>
  <speed>2.2</speed>
  <fix>3d</fix>
</trkpt>
<trkpt lat="40.0717103" lon="-105.2296858">
  <ele>1583.1</ele>
  <time>2026-08-27T17:17:25Z</time>
  <course>93.47</course>
  <speed>2.1614809737770075</speed>
  <fix>3d</fix>
</trkpt>
<trkpt lat="40.0717104" lon="-105.2296904">
  <ele>1583.0</ele>
  <time>2026-08-27T17:17:25Z</time>
  <course>92.22</course>
  <speed>2.2</speed>
  <fix>3d</fix>
</trkpt>
<trkpt lat="40.0717102" lon="-105.2296832">
  <ele>1583.1</ele>
  <time>2026-08-27T17:17:25Z</time>
  <course>93.44</course>
  <speed>2.1614809737770075</speed>
  <fix>3d</fix>
</trkpt>
<trkpt lat="40.0717104" lon="-105.2296904">
  <ele>1583.0</ele>
  <time>2026-08-27T17:17:25Z</time>
  <course>92.22</course>
  <speed>2.2</speed>
  <fix>3d</fix>
</trkpt>
<trkpt lat="40.0717101" lon="-105.2296807">
  <ele>1583.1</ele>
  <time>2026-08-27T17:17:25Z</time>
  <course>93.39</course>
  <speed>2.1614809737770075</speed>
  <fix>3d</fix>
</trkpt>
<trkpt lat="40.0717102" lon="-105.2296852">
  <ele>1583.0</ele>
  <time>2026-08-27T17:17:25Z</time>
  <course>92.14</course>
  <speed>2.2</speed>
  <fix>3d</fix>
</trkpt>
<trkpt lat="40.0717101" lon="-105.2296781">
  <ele>1583.09</ele>
  <time>2026-08-27T17:17:25Z</time>
  <course>93.36</course>
  <speed>2.1614809737770075</speed>
  <fix>3d</fix>
</trkpt>
<trkpt lat="40.0717102" lon="-105.2296852">
  <ele>1583.0</ele>
  <time>2026-08-27T17:17:25Z</time>
  <course>92.14</course>
  <speed>2.2</speed>
  <fix>3d</fix>
</trkpt>
<trkpt lat="40.07171" lon="-105.2296756">
  <ele>1583.09</ele>
  <time>2026-08-27T17:17:25Z</time>
  <course>93.32</course>
  <speed>2.1614809737770075</speed>
  <fix>3d</fix>
</trkpt>
<trkpt lat="40.0717101" lon="-105.2296801">
  <ele>1583.0</ele>
  <time>2026-08-27T17:17:25Z</time>
  <course>92.06</course>
  <speed>2.2</speed>
  <fix>3d</fix>
</trkpt>
<trkpt lat="40.0717099" lon="-105.229673">
  <ele>1583.09</ele>
  <time>2026-08-27T17:17:25Z</time>
  <course>93.28</course>
  <speed>2.1614809737770075</speed>
  <fix>3d</fix>
</trkpt>
<trkpt lat="40.0717101" lon="-105.2296801">
  <ele>1583.0</ele>
  <time>2026-08-27T17:17:25Z</time>
  <course>92.06</course>
  <speed>2.2</speed>
  <fix>3d</fix>
</trkpt>
<trkpt lat="40.0717098" lon="-105.2296704">
  <ele>1583.09</ele>
  <time>2026-08-27T17:17:25Z</time>
  <course>93.25</course>
  <speed>2.1614809737770075</speed>
  <fix>3d</fix>
</trkpt>
<trkpt lat="40.0717099" lon="-105.2296748">
  <ele>1583.0</ele>
  <time>2026-08-27T17:17:25Z</time>
  <course>91.98</course>
  <speed>2.2</speed>
  <fix>3d</fix>
</trkpt>
<trkpt lat="40.0717098" lon="-105.2296678">
  <ele>1583.09</ele>
  <time>2026-08-27T17:17:25Z</time>
  <course>93.22</course>
  <speed>2.1614809737770075</speed>
  <fix>3d</fix>
</trkpt>
<trkpt lat="40.0717099" lon="-105.2296748">
  <ele>1583.0</ele>
  <time>2026-08-27T17:17:25Z</time>
  <course>91.98</course>
  <speed>2.2</speed>
  <fix>3d</fix>
</trkpt>
<trkpt lat="40.0717097" lon="-105.2296652">
  <ele>1583.1</ele>
  <time>2026-08-27T17:17:25Z</time>
  <course>93.18</course>
  <speed>2.1614809737770075</speed>
  <fix>3d</fix>
</trkpt>
<trkpt lat="40.0717098" lon="-105.2296697">
  <ele>1583.0</ele>
  <time>2026-08-27T17:17:25Z</time>
  <course>91.91</course>
  <speed>2.2</speed>
  <fix>3d</fix>
</trkpt>
<trkpt lat="40.0717096" lon="-105.2296626">
  <ele>1583.1</ele>
  <time>2026-08-27T17:17:25Z</time>
  <course>93.15</course>
  <speed>2.1614809737770075</speed>
  <fix>3d</fix>
</trkpt>
<trkpt lat="40.0717098" lon="-105.2296697">
  <ele>1583.0</ele>
  <time>2026-08-27T17:17:25Z</time>
  <course>91.91</course>
  <speed>2.2</speed>
  <fix>3d</fix>
</trkpt>
<trkpt lat="40.0717095" lon="-105.2296594">
  <ele>1583.1</ele>
  <time>2026-08-27T17:17:25Z</time>
  <course>93.11</course>
  <speed>2.1614809737770075</speed>
  <fix>3d</fix>
</trkpt>
<trkpt lat="40.0717097" lon="-105.2296645">
  <ele>1583.0</ele>
  <time>2026-08-27T17:17:25Z</time>
  <course>91.84</course>
  <speed>2.2</speed>
  <fix>3d</fix>
</trkpt>
<trkpt lat="40.0717095" lon="-105.2296568">
  <ele>1583.1</ele>
  <time>2026-08-27T17:17:25Z</time>
  <course>93.08</course>
  <speed>2.1614809737770075</speed>
  <fix>3d</fix>
</trkpt>
<trkpt lat="40.0717097" lon="-105.2296645">
  <ele>1583.0</ele>
  <time>2026-08-27T17:17:25Z</time>
  <course>91.84</course>
  <speed>2.2</speed>
  <fix>3d</fix>
</trkpt>
<trkpt lat="40.0717094" lon="-105.2296542">
  <ele>1583.1</ele>
  <time>2026-08-27T17:17:25Z</time>
  <course>93.05</course>
  <speed>2.1614809737770075</speed>
  <fix>3d</fix>
</trkpt>
<trkpt lat="40.0717095" lon="-105.2296594">
  <ele>1583.0</ele>
  <time>2026-08-27T17:17:25Z</time>
  <course>91.77</course>
  <speed>2.2</speed>
  <fix>3d</fix>
</trkpt>
<trkpt lat="40.0717093" lon="-105.2296516">
  <ele>1583.1</ele>
  <time>2026-08-27T17:17:25Z</time>
  <course>93.02</course>
  <speed>2.1614809737770075</speed>
  <fix>3d</fix>
</trkpt>
<trkpt lat="40.0717095" lon="-105.2296594">
  <ele>1583.0</ele>
  <time>2026-08-27T17:17:25Z</time>
  <course>91.77</course>
  <speed>2.2</speed>
  <fix>3d</fix>
</trkpt>
<trkpt lat="40.0717092" lon="-105.2296491">
  <ele>1583.09</ele>
  <time>2026-08-27T17:17:25Z</time>
  <course>92.99</course>
  <speed>2.1614809737770075</speed>
  <fix>3d</fix>
</trkpt>
<trkpt lat="40.0717094" lon="-105.2296542">
  <ele>1583.0</ele>
  <time>2026-08-27T17:17:25Z</time>
  <course>91.7</course>
  <speed>2.2</speed>
  <fix>3d</fix>
</trkpt>
<trkpt lat="40.0717092" lon="-105.2296465">
  <ele>1583.09</ele>
  <time>2026-08-27T17:17:25Z</time>
  <course>92.96</course>
  <speed>2.1614809737770075</speed>
  <fix>3d</fix>
</trkpt>
<trkpt lat="40.0717094" lon="-105.2296542">
  <ele>1583.0</ele>
  <time>2026-08-27T17:17:25Z</time>
  <course>91.7</course>
  <speed>2.2</speed>
  <fix>3d</fix>
</trkpt>
<trkpt lat="40.0717091" lon="-105.2296439">
  <ele>1583.09</ele>
  <time>2026-08-27T17:17:25Z</time>
  <course>92.93</course>
  <speed>2.1614809737770075</speed>
  <fix>3d</fix>
</trkpt>
<trkpt lat="40.0717093" lon="-105.229649">
  <ele>1583.0</ele>
  <time>2026-08-27T17:17:25Z</time>
  <course>91.64</course>
  <speed>2.2</speed>
  <fix>3d</fix>
</trkpt>
<trkpt lat="40.0717091" lon="-105.2296414">
  <ele>1583.09</ele>
  <time>2026-08-27T17:17:25Z</time>
  <course>92.9</course>
  <speed>2.1614809737770075</speed>
  <fix>3d</fix>
</trkpt>
<trkpt lat="40.0717093" lon="-105.229649">
  <ele>1583.0</ele>
  <time>2026-08-27T17:17:25Z</time>
  <course>91.64</course>
  <speed>2.2</speed>
  <fix>3d</fix>
</trkpt>
<trkpt lat="40.071709" lon="-105.2296388">
  <ele>1583.09</ele>
  <time>2026-08-27T17:17:25Z</time>
  <course>92.87</course>
  <speed>2.1614809737770075</speed>
  <fix>3d</fix>
</trkpt>
<trkpt lat="40.0717092" lon="-105.2296439">
  <ele>1583.0</ele>
  <time>2026-08-27T17:17:25Z</time>
  <course>91.58</course>
  <speed>2.2</speed>
  <fix>3d</fix>
</trkpt>
<trkpt lat="40.0717089" lon="-105.2296362">
  <ele>1583.08</ele>
  <time>2026-08-27T17:17:25Z</time>
  <course>92.84</course>
  <speed>2.1614809737770075</speed>
  <fix>3d</fix>
</trkpt>
<trkpt lat="40.0717092" lon="-105.2296439">
  <ele>1583.0</ele>
  <time>2026-08-27T17:17:25Z</time>
  <course>91.58</course>
  <speed>2.2</speed>
  <fix>3d</fix>
</trkpt>
<trkpt lat="40.0717089" lon="-105.2296337">
  <ele>1583.08</ele>
  <time>2026-08-27T17:17:25Z</time>
  <course>92.81</course>
  <speed>2.1614809737770075</speed>
  <fix>3d</fix>
</trkpt>
<trkpt lat="40.0717091" lon="-105.2296387">
  <ele>1583.0</ele>
  <time>2026-08-27T17:17:25Z</time>
  <course>91.52</course>
  <speed>2.2</speed>
  <fix>3d</fix>
</trkpt>
<trkpt lat="40.0717088" lon="-105.2296316">
  <ele>1583.08</ele>
  <time>2026-08-27T17:17:25Z</time>
  <course>92.79</course>
  <speed>2.1614809737770075</speed>
  <fix>3d</fix>
</trkpt>
<trkpt lat="40.0717091" lon="-105.2296387">
  <ele>1583.0</ele>
  <time>2026-08-27T17:17:25Z</time>
  <course>91.52</course>
  <speed>2.2</speed>
  <fix>3d</fix>
</trkpt>
<trkpt lat="40.0717088" lon="-105.229629">
  <ele>1583.08</ele>
  <time>2026-08-27T17:17:25Z</time>
  <course>92.76</course>
  <speed>2.1614809737770075</speed>
  <fix>3d</fix>
</trkpt>
<trkpt lat="40.071709" lon="-105.2296334">
  <ele>1583.0</ele>
  <time>2026-08-27T17:17:25Z</time>
  <course>91.46</course>
  <speed>2.2</speed>
  <fix>3d</fix>
</trkpt>
<trkpt lat="40.0717087" lon="-105.2296264">
  <ele>1583.08</ele>
  <time>2026-08-27T17:17:25Z</time>
  <course>92.73</course>
  <speed>2.1611339616044165</speed>
  <fix>3d</fix>
</trkpt>
<trkpt lat="40.071709" lon="-105.2296334">
  <ele>1583.0</ele>
  <time>2026-08-27T17:17:25Z</time>
  <course>91.46</course>
  <speed>2.2</speed>
  <fix>3d</fix>
</trkpt>
<trkpt lat="40.0717087" lon="-105.2296239">
  <ele>1583.08</ele>
  <time>2026-08-27T17:17:25Z</time>
  <course>92.7</course>
  <speed>2.1611339616044165</speed>
  <fix>3d</fix>
</trkpt>
<trkpt lat="40.0717089" lon="-105.2296283">
  <ele>1583.0</ele>
  <time>2026-08-27T17:17:25Z</time>
  <course>91.4</course>
  <speed>2.2</speed>
  <fix>3d</fix>
</trkpt>
<trkpt lat="40.0717086" lon="-105.2296213">
  <ele>1583.08</ele>
  <time>2026-08-27T17:17:25Z</time>
  <course>92.67</course>
  <speed>2.1611339616044165</speed>
  <fix>3d</fix>
</trkpt>
<trkpt lat="40.0717089" lon="-105.2296283">
  <ele>1583.0</ele>
  <time>2026-08-27T17:17:25Z</time>
  <course>91.4</course>
  <speed>2.2</speed>
  <fix>3d</fix>
</trkpt>
<trkpt lat="40.0717086" lon="-105.2296187">
  <ele>1583.08</ele>
  <time>2026-08-27T17:17:25Z</time>
  <course>92.64</course>
  <speed>2.1611339616044165</speed>
  <fix>3d</fix>
</trkpt>
<trkpt lat="40.0717088" lon="-105.2296231">
  <ele>1583.0</ele>
  <time>2026-08-27T17:17:25Z</time>
  <course>91.34</course>
  <speed>2.2</speed>
  <fix>3d</fix>
</trkpt>
<trkpt lat="40.0717085" lon="-105.229616">
  <ele>1583.07</ele>
  <time>2026-08-27T17:17:25Z</time>
  <course>92.61</course>
  <speed>2.1611339616044165</speed>
  <fix>3d</fix>
</trkpt>
<trkpt lat="40.0717088" lon="-105.2296231">
  <ele>1583.0</ele>
  <time>2026-08-27T17:17:25Z</time>
  <course>91.34</course>
  <speed>2.2</speed>
  <fix>3d</fix>
</trkpt>
<trkpt lat="40.0717085" lon="-105.2296134">
  <ele>1583.07</ele>
  <time>2026-08-27T17:17:25Z</time>
  <course>92.58</course>
  <speed>2.1711287386979152</speed>
  <fix>3d</fix>
</trkpt>
<trkpt lat="40.0717087" lon="-105.2296179">
  <ele>1583.0</ele>
  <time>2026-08-27T17:17:25Z</time>
  <course>91.28</course>
  <speed>2.2</speed>
  <fix>3d</fix>
</trkpt>
<trkpt lat="40.0717084" lon="-105.2296108">
  <ele>1583.07</ele>
  <time>2026-08-27T17:17:25Z</time>
  <course>92.55</course>
  <speed>2.1711287386979152</speed>
  <fix>3d</fix>
</trkpt>
<trkpt lat="40.0717087" lon="-105.2296179">
  <ele>1583.0</ele>
  <time>2026-08-27T17:17:25Z</time>
  <course>91.28</course>
  <speed>2.2</speed>
  <fix>3d</fix>
</trkpt>
<trkpt lat="40.0717084" lon="-105.2296082">
  <ele>1583.06</ele>
  <time>2026-08-27T17:17:25Z</time>
  <course>92.52</course>
  <speed>2.1711287386979152</speed>
  <fix>3d</fix>
</trkpt>
<trkpt lat="40.0717086" lon="-105.2296128">
  <ele>1583.0</ele>
  <time>2026-08-27T17:17:25Z</time>
  <course>91.22</course>
  <speed>2.2</speed>
  <fix>3d</fix>
</trkpt>
<trkpt lat="40.0717083" lon="-105.2296051">
  <ele>1583.06</ele>
  <time>2026-08-27T17:17:25Z</time>
  <course>92.49</course>
  <speed>2.1711287386979152</speed>
  <fix>3d</fix>
</trkpt>
<trkpt lat="40.0717086" lon="-105.2296128">
  <ele>1583.0</ele>
  <time>2026-08-27T17:17:25Z</time>
  <course>91.22</course>
  <speed>2.2</speed>
  <fix>3d</fix>
</trkpt>
<trkpt lat="40.0717083" lon="-105.2296024">
  <ele>1583.06</ele>
  <time>2026-08-27T17:17:25Z</time>
  <course>92.46</course>
  <speed>2.1711287386979152</speed>
  <fix>3d</fix>
</trkpt>
<trkpt lat="40.0717085" lon="-105.2296076">
  <ele>1583.0</ele>
  <time>2026-08-27T17:17:25Z</time>
  <course>91.16</course>
  <speed>2.2</speed>
  <fix>3d</fix>
</trkpt>
<trkpt lat="40.0717082" lon="-105.2295998">
  <ele>1583.06</ele>
  <time>2026-08-27T17:17:25Z</time>
  <course>92.43</course>
  <speed>2.1711287386979152</speed>
  <fix>3d</fix>
</trkpt>
<trkpt lat="40.0717085" lon="-105.2296076">
  <ele>1583.0</ele>
  <time>2026-08-27T17:17:25Z</time>
  <course>91.16</course>
  <speed>2.2</speed>
  <fix>3d</fix>
</trkpt>
<trkpt lat="40.0717082" lon="-105.2295972">
  <ele>1583.07</ele>
  <time>2026-08-27T17:17:25Z</time>
  <course>92.4</course>
  <speed>2.1711287386979152</speed>
  <fix>3d</fix>
</trkpt>
<trkpt lat="40.0717085" lon="-105.2296023">
  <ele>1583.0</ele>
  <time>2026-08-27T17:17:25Z</time>
  <course>91.1</course>
  <speed>2.21</speed>
  <fix>3d</fix>
</trkpt>
<trkpt lat="40.0717082" lon="-105.2295946">
  <ele>1583.07</ele>
  <time>2026-08-27T17:17:25Z</time>
  <course>92.38</course>
  <speed>2.1711287386979152</speed>
  <fix>3d</fix>
</trkpt>
<trkpt lat="40.0717085" lon="-105.2296023">
  <ele>1583.0</ele>
  <time>2026-08-27T17:17:25Z</time>
  <course>91.1</course>
  <speed>2.21</speed>
  <fix>3d</fix>
</trkpt>
<trkpt lat="40.0717081" lon="-105.229592">
  <ele>1583.07</ele>
  <time>2026-08-27T17:17:25Z</time>
  <course>92.36</course>
  <speed>2.1711287386979152</speed>
  <fix>3d</fix>
</trkpt>
<trkpt lat="40.0717084" lon="-105.2295972">
  <ele>1583.0</ele>
  <time>2026-08-27T17:17:25Z</time>
  <course>91.05</course>
  <speed>2.21</speed>
  <fix>3d</fix>
</trkpt>
<trkpt lat="40.0717081" lon="-105.2295894">
  <ele>1583.07</ele>
  <time>2026-08-27T17:17:25Z</time>
  <course>92.36</course>
  <speed>2.1711287386979152</speed>
  <fix>3d</fix>
</trkpt>
<trkpt lat="40.0717084" lon="-105.2295972">
  <ele>1583.0</ele>
  <time>2026-08-27T17:17:25Z</time>
  <course>91.05</course>
  <speed>2.21</speed>
  <fix>3d</fix>
</trkpt>
<trkpt lat="40.0717081" lon="-105.2295869">
  <ele>1583.08</ele>
  <time>2026-08-27T17:17:25Z</time>
  <course>92.34</course>
  <speed>2.1711287386979152</speed>
  <fix>3d</fix>
</trkpt>
<trkpt lat="40.0717083" lon="-105.229592">
  <ele>1583.0</ele>
  <time>2026-08-27T17:17:25Z</time>
  <course>91.01</course>
  <speed>2.21</speed>
  <fix>3d</fix>
</trkpt>
<trkpt lat="40.071708" lon="-105.2295843">
  <ele>1583.08</ele>
  <time>2026-08-27T17:17:25Z</time>
  <course>92.32</course>
  <speed>2.170829334609241</speed>
  <fix>3d</fix>
</trkpt>
<trkpt lat="40.0717083" lon="-105.229592">
  <ele>1583.0</ele>
  <time>2026-08-27T17:17:25Z</time>
  <course>91.01</course>
  <speed>2.21</speed>
  <fix>3d</fix>
</trkpt>
<trkpt lat="40.071708" lon="-105.2295817">
  <ele>1583.08</ele>
  <time>2026-08-27T17:17:25Z</time>
  <course>92.32</course>
  <speed>2.1711287386979152</speed>
  <fix>3d</fix>
</trkpt>
<trkpt lat="40.0717082" lon="-105.2295867">
  <ele>1583.0</ele>
  <time>2026-08-27T17:17:25Z</time>
  <course>90.99</course>
  <speed>2.21</speed>
  <fix>3d</fix>
</trkpt>
<trkpt lat="40.0717079" lon="-105.2295791">
  <ele>1583.08</ele>
  <time>2026-08-27T17:17:25Z</time>
  <course>92.31</course>
  <speed>2.170829334609241</speed>
  <fix>3d</fix>
</trkpt>
<trkpt lat="40.0717082" lon="-105.2295867">
  <ele>1583.0</ele>
  <time>2026-08-27T17:17:25Z</time>
  <course>90.99</course>
  <speed>2.21</speed>
  <fix>3d</fix>
</trkpt>
<trkpt lat="40.0717079" lon="-105.229577">
  <ele>1583.08</ele>
  <time>2026-08-27T17:17:25Z</time>
  <course>92.31</course>
  <speed>2.170829334609241</speed>
  <fix>3d</fix>
</trkpt>
<trkpt lat="40.0717081" lon="-105.2295815">
  <ele>1583.0</ele>
  <time>2026-08-27T17:17:25Z</time>
  <course>90.97</course>
  <speed>2.21</speed>
  <fix>3d</fix>
</trkpt>
<trkpt lat="40.0717079" lon="-105.2295744">
  <ele>1583.08</ele>
  <time>2026-08-27T17:17:25Z</time>
  <course>92.3</course>
  <speed>2.170829334609241</speed>
  <fix>3d</fix>
</trkpt>
<trkpt lat="40.0717081" lon="-105.2295815">
  <ele>1583.0</ele>
  <time>2026-08-27T17:17:25Z</time>
  <course>90.97</course>
  <speed>2.21</speed>
  <fix>3d</fix>
</trkpt>
<trkpt lat="40.0717078" lon="-105.2295718">
  <ele>1583.08</ele>
  <time>2026-08-27T17:17:25Z</time>
  <course>92.29</course>
  <speed>2.170829334609241</speed>
  <fix>3d</fix>
</trkpt>
<trkpt lat="40.0717081" lon="-105.2295764">
  <ele>1583.0</ele>
  <time>2026-08-27T17:17:25Z</time>
  <course>90.96</course>
  <speed>2.21</speed>
  <fix>3d</fix>
</trkpt>
<trkpt lat="40.0717078" lon="-105.2295692">
  <ele>1583.09</ele>
  <time>2026-08-27T17:17:25Z</time>
  <course>92.28</course>
  <speed>2.170829334609241</speed>
  <fix>3d</fix>
</trkpt>
<trkpt lat="40.0717081" lon="-105.2295764">
  <ele>1583.0</ele>
  <time>2026-08-27T17:17:25Z</time>
  <course>90.96</course>
  <speed>2.21</speed>
  <fix>3d</fix>
</trkpt>
<trkpt lat="40.0717078" lon="-105.2295666">
  <ele>1583.09</ele>
  <time>2026-08-27T17:17:25Z</time>
  <course>92.28</course>
  <speed>2.170829334609241</speed>
  <fix>3d</fix>
</trkpt>
<trkpt lat="40.071708" lon="-105.2295713">
  <ele>1583.0</ele>
  <time>2026-08-27T17:17:25Z</time>
  <course>90.95</course>
  <speed>2.21</speed>
  <fix>3d</fix>
</trkpt>
<trkpt lat="40.0717077" lon="-105.229564">
  <ele>1583.1</ele>
  <time>2026-08-27T17:17:25Z</time>
  <course>92.27</course>
  <speed>2.170829334609241</speed>
  <fix>3d</fix>
</trkpt>
<trkpt lat="40.071708" lon="-105.2295713">
  <ele>1583.0</ele>
  <time>2026-08-27T17:17:25Z</time>
  <course>90.95</course>
  <speed>2.21</speed>
  <fix>3d</fix>
</trkpt>
<trkpt lat="40.0717077" lon="-105.2295614">
  <ele>1583.1</ele>
  <time>2026-08-27T17:17:25Z</time>
  <course>92.26</course>
  <speed>2.180825531765437</speed>
  <fix>3d</fix>
</trkpt>
<trkpt lat="40.071708" lon="-105.2295661">
  <ele>1583.0</ele>
  <time>2026-08-27T17:17:25Z</time>
  <course>90.94</course>
  <speed>2.21</speed>
  <fix>3d</fix>
</trkpt>
<trkpt lat="40.0717077" lon="-105.2295588">
  <ele>1583.11</ele>
  <time>2026-08-27T17:17:25Z</time>
  <course>92.26</course>
  <speed>2.180825531765437</speed>
  <fix>3d</fix>
</trkpt>
<trkpt lat="40.071708" lon="-105.2295661">
  <ele>1583.0</ele>
  <time>2026-08-27T17:17:25Z</time>
  <course>90.94</course>
  <speed>2.21</speed>
  <fix>3d</fix>
</trkpt>
<trkpt lat="40.0717076" lon="-105.2295562">
  <ele>1583.11</ele>
  <time>2026-08-27T17:17:25Z</time>
  <course>92.25</course>
  <speed>2.180825531765437</speed>
  <fix>3d</fix>
</trkpt>
<trkpt lat="40.0717079" lon="-105.2295609">
  <ele>1583.0</ele>
  <time>2026-08-27T17:17:25Z</time>
  <course>90.93</course>
  <speed>2.21</speed>
  <fix>3d</fix>
</trkpt>
<trkpt lat="40.0717076" lon="-105.2295531">
  <ele>1583.12</ele>
  <time>2026-08-27T17:17:25Z</time>
  <course>92.25</course>
  <speed>2.180825531765437</speed>
  <fix>3d</fix>
</trkpt>
<trkpt lat="40.0717079" lon="-105.2295609">
  <ele>1583.0</ele>
  <time>2026-08-27T17:17:25Z</time>
  <course>90.93</course>
  <speed>2.21</speed>
  <fix>3d</fix>
</trkpt>
<trkpt lat="40.0717076" lon="-105.2295504">
  <ele>1583.11</ele>
  <time>2026-08-27T17:17:25Z</time>
  <course>92.24</course>
  <speed>2.180825531765437</speed>
  <fix>3d</fix>
</trkpt>
<trkpt lat="40.0717078" lon="-105.2295556">
  <ele>1583.0</ele>
  <time>2026-08-27T17:17:25Z</time>
  <course>90.93</course>
  <speed>2.21</speed>
  <fix>3d</fix>
</trkpt>
<trkpt lat="40.0717075" lon="-105.2295478">
  <ele>1583.12</ele>
  <time>2026-08-27T17:17:25Z</time>
  <course>92.24</course>
  <speed>2.180825531765437</speed>
  <fix>3d</fix>
</trkpt>
<trkpt lat="40.0717078" lon="-105.2295556">
  <ele>1583.0</ele>
  <time>2026-08-27T17:17:25Z</time>
  <course>90.93</course>
  <speed>2.21</speed>
  <fix>3d</fix>
</trkpt>
<trkpt lat="40.0717075" lon="-105.2295452">
  <ele>1583.11</ele>
  <time>2026-08-27T17:17:25Z</time>
  <course>92.23</course>
  <speed>2.180825531765437</speed>
  <fix>3d</fix>
</trkpt>
<trkpt lat="40.0717078" lon="-105.2295504">
  <ele>1583.0</ele>
  <time>2026-08-27T17:17:25Z</time>
  <course>90.92</course>
  <speed>2.21</speed>
  <fix>3d</fix>
</trkpt>
<trkpt lat="40.0717075" lon="-105.2295426">
  <ele>1583.11</ele>
  <time>2026-08-27T17:17:25Z</time>
  <course>92.23</course>
  <speed>2.180825531765437</speed>
  <fix>3d</fix>
</trkpt>
<trkpt lat="40.0717078" lon="-105.2295504">
  <ele>1583.0</ele>
  <time>2026-08-27T17:17:25Z</time>
  <course>90.92</course>
  <speed>2.21</speed>
  <fix>3d</fix>
</trkpt>
<trkpt lat="40.0717074" lon="-105.22954">
  <ele>1583.11</ele>
  <time>2026-08-27T17:17:25Z</time>
  <course>92.23</course>
  <speed>2.180825531765437</speed>
  <fix>3d</fix>
</trkpt>
<trkpt lat="40.0717077" lon="-105.2295453">
  <ele>1583.0</ele>
  <time>2026-08-27T17:17:25Z</time>
  <course>90.92</course>
  <speed>2.21</speed>
  <fix>3d</fix>
</trkpt>
<trkpt lat="40.0717074" lon="-105.2295374">
  <ele>1583.11</ele>
  <time>2026-08-27T17:17:25Z</time>
  <course>92.23</course>
  <speed>2.180825531765437</speed>
  <fix>3d</fix>
</trkpt>
<trkpt lat="40.0717077" lon="-105.2295453">
  <ele>1583.0</ele>
  <time>2026-08-27T17:17:25Z</time>
  <course>90.92</course>
  <speed>2.21</speed>
  <fix>3d</fix>
</trkpt>
<trkpt lat="40.0717074" lon="-105.2295349">
  <ele>1583.11</ele>
  <time>2026-08-27T17:17:25Z</time>
  <course>92.23</course>
  <speed>2.180825531765437</speed>
  <fix>3d</fix>
</trkpt>
<trkpt lat="40.0717077" lon="-105.2295401">
  <ele>1583.0</ele>
  <time>2026-08-27T17:17:25Z</time>
  <course>90.92</course>
  <speed>2.21</speed>
  <fix>3d</fix>
</trkpt>
<trkpt lat="40.0717073" lon="-105.2295323">
  <ele>1583.11</ele>
  <time>2026-08-27T17:17:25Z</time>
  <course>92.22</course>
  <speed>2.180825531765437</speed>
  <fix>3d</fix>
</trkpt>
<trkpt lat="40.0717077" lon="-105.2295401">
  <ele>1583.0</ele>
  <time>2026-08-27T17:17:25Z</time>
  <course>90.92</course>
  <speed>2.21</speed>
  <fix>3d</fix>
</trkpt>
<trkpt lat="40.0717073" lon="-105.2295297">
  <ele>1583.11</ele>
  <time>2026-08-27T17:17:25Z</time>
  <course>92.22</course>
  <speed>2.180825531765437</speed>
  <fix>3d</fix>
</trkpt>
<trkpt lat="40.0717076" lon="-105.2295348">
  <ele>1583.0</ele>
  <time>2026-08-27T17:17:25Z</time>
  <course>90.92</course>
  <speed>2.21</speed>
  <fix>3d</fix>
</trkpt>
<trkpt lat="40.0717073" lon="-105.2295271">
  <ele>1583.11</ele>
  <time>2026-08-27T17:17:25Z</time>
  <course>92.22</course>
  <speed>2.180825531765437</speed>
  <fix>3d</fix>
</trkpt>
<trkpt lat="40.0717076" lon="-105.2295348">
  <ele>1583.0</ele>
  <time>2026-08-27T17:17:25Z</time>
  <course>90.92</course>
  <speed>2.21</speed>
  <fix>3d</fix>
</trkpt>
<trkpt lat="40.0717073" lon="-105.2295251">
  <ele>1583.1</ele>
  <time>2026-08-27T17:17:25Z</time>
  <course>92.22</course>
  <speed>2.180825531765437</speed>
  <fix>3d</fix>
</trkpt>
<trkpt lat="40.0717075" lon="-105.2295297">
  <ele>1583.0</ele>
  <time>2026-08-27T17:17:25Z</time>
  <course>90.92</course>
  <speed>2.21</speed>
  <fix>3d</fix>
</trkpt>
<trkpt lat="40.0717072" lon="-105.2295225">
  <ele>1583.1</ele>
  <time>2026-08-27T17:17:25Z</time>
  <course>92.21</course>
  <speed>2.170829334609241</speed>
  <fix>3d</fix>
</trkpt>
<trkpt lat="40.0717075" lon="-105.2295297">
  <ele>1583.0</ele>
  <time>2026-08-27T17:17:25Z</time>
  <course>90.92</course>
  <speed>2.21</speed>
  <fix>3d</fix>
</trkpt>
<trkpt lat="40.0717072" lon="-105.2295199">
  <ele>1583.1</ele>
  <time>2026-08-27T17:17:25Z</time>
  <course>92.21</course>
  <speed>2.170829334609241</speed>
  <fix>3d</fix>
</trkpt>
<trkpt lat="40.0717074" lon="-105.2295245">
  <ele>1583.0</ele>
  <time>2026-08-27T17:17:25Z</time>
  <course>90.92</course>
  <speed>2.21</speed>
  <fix>3d</fix>
</trkpt>
<trkpt lat="40.0717072" lon="-105.2295173">
  <ele>1583.1</ele>
  <time>2026-08-27T17:17:25Z</time>
  <course>92.21</course>
  <speed>2.170829334609241</speed>
  <fix>3d</fix>
</trkpt>
<trkpt lat="40.0717074" lon="-105.2295245">
  <ele>1583.0</ele>
  <time>2026-08-27T17:17:25Z</time>
  <course>90.92</course>
  <speed>2.21</speed>
  <fix>3d</fix>
</trkpt>
<trkpt lat="40.0717071" lon="-105.2295147">
  <ele>1583.1</ele>
  <time>2026-08-27T17:17:25Z</time>
  <course>92.21</course>
  <speed>2.180825531765437</speed>
  <fix>3d</fix>
</trkpt>
<trkpt lat="40.0717074" lon="-105.2295192">
  <ele>1583.0</ele>
  <time>2026-08-27T17:17:25Z</time>
  <course>90.92</course>
  <speed>2.21</speed>
  <fix>3d</fix>
</trkpt>
<trkpt lat="40.0717071" lon="-105.2295121">
  <ele>1583.09</ele>
  <time>2026-08-27T17:17:25Z</time>
  <course>92.2</course>
  <speed>2.180825531765437</speed>
  <fix>3d</fix>
</trkpt>
<trkpt lat="40.0717074" lon="-105.2295192">
  <ele>1583.0</ele>
  <time>2026-08-27T17:17:25Z</time>
  <course>90.92</course>
  <speed>2.21</speed>
  <fix>3d</fix>
</trkpt>
<trkpt lat="40.0717071" lon="-105.2295095">
  <ele>1583.09</ele>
  <time>2026-08-27T17:17:25Z</time>
  <course>92.2</course>
  <speed>2.180825531765437</speed>
  <fix>3d</fix>
</trkpt>
<trkpt lat="40.0717073" lon="-105.229514">
  <ele>1583.0</ele>
  <time>2026-08-27T17:17:25Z</time>
  <course>90.92</course>
  <speed>2.21</speed>
  <fix>3d</fix>
</trkpt>
<trkpt lat="40.071707" lon="-105.2295069">
  <ele>1583.1</ele>
  <time>2026-08-27T17:17:25Z</time>
  <course>92.2</course>
  <speed>2.180825531765437</speed>
  <fix>3d</fix>
</trkpt>
<trkpt lat="40.0717073" lon="-105.229514">
  <ele>1583.0</ele>
  <time>2026-08-27T17:17:25Z</time>
  <course>90.92</course>
  <speed>2.21</speed>
  <fix>3d</fix>
</trkpt>
<trkpt lat="40.071707" lon="-105.2295042">
  <ele>1583.09</ele>
  <time>2026-08-27T17:17:25Z</time>
  <course>92.2</course>
  <speed>2.180825531765437</speed>
  <fix>3d</fix>
</trkpt>
<trkpt lat="40.0717073" lon="-105.2295089">
  <ele>1583.0</ele>
  <time>2026-08-27T17:17:25Z</time>
  <course>90.92</course>
  <speed>2.21</speed>
  <fix>3d</fix>
</trkpt>
<trkpt lat="40.071707" lon="-105.2295016">
  <ele>1583.09</ele>
  <time>2026-08-27T17:17:25Z</time>
  <course>92.19</course>
  <speed>2.180825531765437</speed>
  <fix>3d</fix>
</trkpt>
<trkpt lat="40.0717073" lon="-105.2295089">
  <ele>1583.0</ele>
  <time>2026-08-27T17:17:25Z</time>
  <course>90.92</course>
  <speed>2.21</speed>
  <fix>3d</fix>
</trkpt>
<trkpt lat="40.0717069" lon="-105.2294985">
  <ele>1583.09</ele>
  <time>2026-08-27T17:17:25Z</time>
  <course>92.19</course>
  <speed>2.180825531765437</speed>
  <fix>3d</fix>
</trkpt>
<trkpt lat="40.0717072" lon="-105.2295037">
  <ele>1583.0</ele>
  <time>2026-08-27T17:17:25Z</time>
  <course>90.92</course>
  <speed>2.21</speed>
  <fix>3d</fix>
</trkpt>
<trkpt lat="40.0717069" lon="-105.2294959">
  <ele>1583.09</ele>
  <time>2026-08-27T17:17:25Z</time>
  <course>92.19</course>
  <speed>2.180825531765437</speed>
  <fix>3d</fix>
</trkpt>
<trkpt lat="40.0717072" lon="-105.2295037">
  <ele>1583.0</ele>
  <time>2026-08-27T17:17:25Z</time>
  <course>90.92</course>
  <speed>2.21</speed>
  <fix>3d</fix>
</trkpt>
<trkpt lat="40.0717069" lon="-105.2294933">
  <ele>1583.09</ele>
  <time>2026-08-27T17:17:25Z</time>
  <course>92.19</course>
  <speed>2.180825531765437</speed>
  <fix>3d</fix>
</trkpt>
<trkpt lat="40.0717071" lon="-105.2294984">
  <ele>1583.0</ele>
  <time>2026-08-27T17:17:25Z</time>
  <course>90.92</course>
  <speed>2.21</speed>
  <fix>3d</fix>
</trkpt>
<trkpt lat="40.0717068" lon="-105.2294906">
  <ele>1583.1</ele>
  <time>2026-08-27T17:17:25Z</time>
  <course>92.18</course>
  <speed>2.180825531765437</speed>
  <fix>3d</fix>
</trkpt>
<trkpt lat="40.0717071" lon="-105.2294984">
  <ele>1583.0</ele>
  <time>2026-08-27T17:17:25Z</time>
  <course>90.92</course>
  <speed>2.21</speed>
  <fix>3d</fix>
</trkpt>
<trkpt lat="40.0717068" lon="-105.229488">
  <ele>1583.1</ele>
  <time>2026-08-27T17:17:25Z</time>
  <course>92.18</course>
  <speed>2.180825531765437</speed>
  <fix>3d</fix>
</trkpt>
<trkpt lat="40.0717071" lon="-105.2294933">
  <ele>1583.0</ele>
  <time>2026-08-27T17:17:25Z</time>
  <course>90.92</course>
  <speed>2.21</speed>
  <fix>3d</fix>
</trkpt>
<trkpt lat="40.0717068" lon="-105.2294854">
  <ele>1583.1</ele>
  <time>2026-08-27T17:17:25Z</time>
  <course>92.18</course>
  <speed>2.180825531765437</speed>
  <fix>3d</fix>
</trkpt>
<trkpt lat="40.0717071" lon="-105.2294933">
  <ele>1583.0</ele>
  <time>2026-08-27T17:17:25Z</time>
  <course>90.92</course>
  <speed>2.21</speed>
  <fix>3d</fix>
</trkpt>
<trkpt lat="40.0717067" lon="-105.2294828">
  <ele>1583.09</ele>
  <time>2026-08-27T17:17:25Z</time>
  <course>92.18</course>
  <speed>2.180825531765437</speed>
  <fix>3d</fix>
</trkpt>
<trkpt lat="40.071707" lon="-105.2294881">
  <ele>1583.0</ele>
  <time>2026-08-27T17:17:25Z</time>
  <course>90.92</course>
  <speed>2.21</speed>
  <fix>3d</fix>
</trkpt>
<trkpt lat="40.0717067" lon="-105.2294802">
  <ele>1583.09</ele>
  <time>2026-08-27T17:17:25Z</time>
  <course>92.18</course>
  <speed>2.180825531765437</speed>
  <fix>3d</fix>
</trkpt>
<trkpt lat="40.071707" lon="-105.2294881">
  <ele>1583.0</ele>
  <time>2026-08-27T17:17:25Z</time>
  <course>90.92</course>
  <speed>2.21</speed>
  <fix>3d</fix>
</trkpt>
<trkpt lat="40.0717067" lon="-105.2294777">
  <ele>1583.09</ele>
  <time>2026-08-27T17:17:25Z</time>
  <course>92.17</course>
  <speed>2.180825531765437</speed>
  <fix>3d</fix>
</trkpt>
<trkpt lat="40.0717069" lon="-105.2294828">
  <ele>1583.0</ele>
  <time>2026-08-27T17:17:25Z</time>
  <course>90.92</course>
  <speed>2.21</speed>
  <fix>3d</fix>
</trkpt>
<trkpt lat="40.0717067" lon="-105.2294751">
  <ele>1583.09</ele>
  <time>2026-08-27T17:17:25Z</time>
  <course>92.17</course>
  <speed>2.180825531765437</speed>
  <fix>3d</fix>
</trkpt>
<trkpt lat="40.0717069" lon="-105.2294828">
  <ele>1583.0</ele>
  <time>2026-08-27T17:17:25Z</time>
  <course>90.92</course>
  <speed>2.21</speed>
  <fix>3d</fix>
</trkpt>
<trkpt lat="40.0717066" lon="-105.2294725">
  <ele>1583.09</ele>
  <time>2026-08-27T17:17:25Z</time>
  <course>92.17</course>
  <speed>2.180825531765437</speed>
  <fix>3d</fix>
</trkpt>
<trkpt lat="40.0717068" lon="-105.2294776">
  <ele>1583.0</ele>
  <time>2026-08-27T17:17:25Z</time>
  <course>90.92</course>
  <speed>2.21</speed>
  <fix>3d</fix>
</trkpt>
<trkpt lat="40.0717066" lon="-105.2294704">
  <ele>1583.09</ele>
  <time>2026-08-27T17:17:25Z</time>
  <course>92.17</course>
  <speed>2.180825531765437</speed>
  <fix>3d</fix>
</trkpt>
<trkpt lat="40.0717068" lon="-105.2294776">
  <ele>1583.0</ele>
  <time>2026-08-27T17:17:25Z</time>
  <course>90.92</course>
  <speed>2.21</speed>
  <fix>3d</fix>
</trkpt>
<trkpt lat="40.0717066" lon="-105.2294678">
  <ele>1583.09</ele>
  <time>2026-08-27T17:17:25Z</time>
  <course>92.17</course>
  <speed>2.180825531765437</speed>
  <fix>3d</fix>
</trkpt>
<trkpt lat="40.0717068" lon="-105.2294725">
  <ele>1583.0</ele>
  <time>2026-08-27T17:17:25Z</time>
  <course>90.92</course>
  <speed>2.21</speed>
  <fix>3d</fix>
</trkpt>
<trkpt lat="40.0717065" lon="-105.2294652">
  <ele>1583.09</ele>
  <time>2026-08-27T17:17:25Z</time>
  <course>92.16</course>
  <speed>2.180825531765437</speed>
  <fix>3d</fix>
</trkpt>
<trkpt lat="40.0717068" lon="-105.2294725">
  <ele>1583.0</ele>
  <time>2026-08-27T17:17:25Z</time>
  <course>90.92</course>
  <speed>2.21</speed>
  <fix>3d</fix>
</trkpt>
<trkpt lat="40.0717065" lon="-105.2294626">
  <ele>1583.09</ele>
  <time>2026-08-27T17:17:25Z</time>
  <course>92.16</course>
  <speed>2.180825531765437</speed>
  <fix>3d</fix>
</trkpt>
<trkpt lat="40.0717068" lon="-105.2294673">
  <ele>1583.0</ele>
  <time>2026-08-27T17:17:25Z</time>
  <course>90.92</course>
  <speed>2.21</speed>
  <fix>3d</fix>
</trkpt>
<trkpt lat="40.0717065" lon="-105.22946">
  <ele>1583.08</ele>
  <time>2026-08-27T17:17:25Z</time>
  <course>92.16</course>
  <speed>2.180825531765437</speed>
  <fix>3d</fix>
</trkpt>
<trkpt lat="40.0717068" lon="-105.2294673">
  <ele>1583.0</ele>
  <time>2026-08-27T17:17:25Z</time>
  <course>90.92</course>
  <speed>2.21</speed>
  <fix>3d</fix>
</trkpt>
<trkpt lat="40.0717064" lon="-105.2294574">
  <ele>1583.09</ele>
  <time>2026-08-27T17:17:25Z</time>
  <course>92.16</course>
  <speed>2.180825531765437</speed>
  <fix>3d</fix>
</trkpt>
<trkpt lat="40.0717067" lon="-105.229462">
  <ele>1583.0</ele>
  <time>2026-08-27T17:17:25Z</time>
  <course>90.92</course>
  <speed>2.21</speed>
  <fix>3d</fix>
</trkpt>
<trkpt lat="40.0717064" lon="-105.2294548">
  <ele>1583.09</ele>
  <time>2026-08-27T17:17:25Z</time>
  <course>92.15</course>
  <speed>2.180825531765437</speed>
  <fix>3d</fix>
</trkpt>
<trkpt lat="40.0717067" lon="-105.229462">
  <ele>1583.0</ele>
  <time>2026-08-27T17:17:25Z</time>
  <course>90.92</course>
  <speed>2.21</speed>
  <fix>3d</fix>
</trkpt>
<trkpt lat="40.0717064" lon="-105.2294522">
  <ele>1583.08</ele>
  <time>2026-08-27T17:17:25Z</time>
  <course>92.15</course>
  <speed>2.180825531765437</speed>
  <fix>3d</fix>
</trkpt>
<trkpt lat="40.0717066" lon="-105.2294569">
  <ele>1583.0</ele>
  <time>2026-08-27T17:17:25Z</time>
  <course>90.92</course>
  <speed>2.21</speed>
  <fix>3d</fix>
</trkpt>
<trkpt lat="40.0717064" lon="-105.2294496">
  <ele>1583.08</ele>
  <time>2026-08-27T17:17:25Z</time>
  <course>92.15</course>
  <speed>2.180825531765437</speed>
  <fix>3d</fix>
</trkpt>
<trkpt lat="40.0717066" lon="-105.2294569">
  <ele>1583.0</ele>
  <time>2026-08-27T17:17:25Z</time>
  <course>90.92</course>
  <speed>2.21</speed>
  <fix>3d</fix>
</trkpt>
<trkpt lat="40.0717063" lon="-105.2294469">
  <ele>1583.08</ele>
  <time>2026-08-27T17:17:25Z</time>
  <course>92.15</course>
  <speed>2.180825531765437</speed>
  <fix>3d</fix>
</trkpt>
<trkpt lat="40.0717066" lon="-105.2294517">
  <ele>1583.0</ele>
  <time>2026-08-27T17:17:25Z</time>
  <course>90.92</course>
  <speed>2.21</speed>
  <fix>3d</fix>
</trkpt>
<trkpt lat="40.0717063" lon="-105.2294438">
  <ele>1583.08</ele>
  <time>2026-08-27T17:17:25Z</time>
  <course>92.14</course>
  <speed>2.190821763631172</speed>
  <fix>3d</fix>
</trkpt>
<trkpt lat="40.0717066" lon="-105.2294517">
  <ele>1583.0</ele>
  <time>2026-08-27T17:17:25Z</time>
  <course>90.92</course>
  <speed>2.21</speed>
  <fix>3d</fix>
</trkpt>
<trkpt lat="40.0717063" lon="-105.2294412">
  <ele>1583.08</ele>
  <time>2026-08-27T17:17:25Z</time>
  <course>92.14</course>
  <speed>2.190821763631172</speed>
  <fix>3d</fix>
</trkpt>
<trkpt lat="40.0717065" lon="-105.2294465">
  <ele>1583.0</ele>
  <time>2026-08-27T17:17:25Z</time>
  <course>90.92</course>
  <speed>2.21</speed>
  <fix>3d</fix>
</trkpt>
<trkpt lat="40.0717062" lon="-105.2294386">
  <ele>1583.08</ele>
  <time>2026-08-27T17:17:25Z</time>
  <course>92.14</course>
  <speed>2.190821763631172</speed>
  <fix>3d</fix>
</trkpt>
<trkpt lat="40.0717065" lon="-105.2294465">
  <ele>1583.0</ele>
  <time>2026-08-27T17:17:25Z</time>
  <course>90.92</course>
  <speed>2.21</speed>
  <fix>3d</fix>
</trkpt>
<trkpt lat="40.0717062" lon="-105.229436">
  <ele>1583.08</ele>
  <time>2026-08-27T17:17:25Z</time>
  <course>92.14</course>
  <speed>2.190821763631172</speed>
  <fix>3d</fix>
</trkpt>
<trkpt lat="40.0717064" lon="-105.2294414">
  <ele>1583.0</ele>
  <time>2026-08-27T17:17:25Z</time>
  <course>90.92</course>
  <speed>2.21</speed>
  <fix>3d</fix>
</trkpt>
<trkpt lat="40.0717062" lon="-105.2294334">
  <ele>1583.08</ele>
  <time>2026-08-27T17:17:25Z</time>
  <course>92.14</course>
  <speed>2.190821763631172</speed>
  <fix>3d</fix>
</trkpt>
<trkpt lat="40.0717064" lon="-105.2294414">
  <ele>1583.0</ele>
  <time>2026-08-27T17:17:25Z</time>
  <course>90.92</course>
  <speed>2.21</speed>
  <fix>3d</fix>
</trkpt>
<trkpt lat="40.0717061" lon="-105.2294308">
  <ele>1583.08</ele>
  <time>2026-08-27T17:17:25Z</time>
  <course>92.14</course>
  <speed>2.190821763631172</speed>
  <fix>3d</fix>
</trkpt>
<trkpt lat="40.0717063" lon="-105.2294361">
  <ele>1583.0</ele>
  <time>2026-08-27T17:17:25Z</time>
  <course>90.92</course>
  <speed>2.21</speed>
  <fix>3d</fix>
</trkpt>
<trkpt lat="40.0717061" lon="-105.2294282">
  <ele>1583.08</ele>
  <time>2026-08-27T17:17:25Z</time>
  <course>92.13</course>
  <speed>2.190821763631172</speed>
  <fix>3d</fix>
</trkpt>
<trkpt lat="40.0717063" lon="-105.2294361">
  <ele>1583.0</ele>
  <time>2026-08-27T17:17:25Z</time>
  <course>90.92</course>
  <speed>2.21</speed>
  <fix>3d</fix>
</trkpt>
<trkpt lat="40.0717061" lon="-105.2294256">
  <ele>1583.08</ele>
  <time>2026-08-27T17:17:25Z</time>
  <course>92.13</course>
  <speed>2.180825531765437</speed>
  <fix>3d</fix>
</trkpt>
<trkpt lat="40.0717063" lon="-105.2294309">
  <ele>1583.0</ele>
  <time>2026-08-27T17:17:25Z</time>
  <course>90.92</course>
  <speed>2.21</speed>
  <fix>3d</fix>
</trkpt>
<trkpt lat="40.071706" lon="-105.2294231">
  <ele>1583.07</ele>
  <time>2026-08-27T17:17:25Z</time>
  <course>92.13</course>
  <speed>2.180825531765437</speed>
  <fix>3d</fix>
</trkpt>
<trkpt lat="40.0717063" lon="-105.2294309">
  <ele>1583.0</ele>
  <time>2026-08-27T17:17:25Z</time>
  <course>90.92</course>
  <speed>2.21</speed>
  <fix>3d</fix>
</trkpt>
<trkpt lat="40.071706" lon="-105.2294205">
  <ele>1583.07</ele>
  <time>2026-08-27T17:17:25Z</time>
  <course>92.14</course>
  <speed>2.180825531765437</speed>
  <fix>3d</fix>
</trkpt>
<trkpt lat="40.0717062" lon="-105.2294258">
  <ele>1583.0</ele>
  <time>2026-08-27T17:17:25Z</time>
  <course>90.92</course>
  <speed>2.21</speed>
  <fix>3d</fix>
</trkpt>
<trkpt lat="40.071706" lon="-105.2294179">
  <ele>1583.07</ele>
  <time>2026-08-27T17:17:25Z</time>
  <course>92.15</course>
  <speed>2.180825531765437</speed>
  <fix>3d</fix>
</trkpt>
<trkpt lat="40.0717062" lon="-105.2294258">
  <ele>1583.0</ele>
  <time>2026-08-27T17:17:25Z</time>
  <course>90.92</course>
  <speed>2.21</speed>
  <fix>3d</fix>
</trkpt>
<trkpt lat="40.0717059" lon="-105.2294159">
  <ele>1583.07</ele>
  <time>2026-08-27T17:17:25Z</time>
  <course>92.16</course>
  <speed>2.180825531765437</speed>
  <fix>3d</fix>
</trkpt>
<trkpt lat="40.0717062" lon="-105.2294206">
  <ele>1583.0</ele>
  <time>2026-08-27T17:17:25Z</time>
  <course>90.93</course>
  <speed>2.21</speed>
  <fix>3d</fix>
</trkpt>
<trkpt lat="40.0717059" lon="-105.2294133">
  <ele>1583.07</ele>
  <time>2026-08-27T17:17:25Z</time>
  <course>92.18</course>
  <speed>2.180825531765437</speed>
  <fix>3d</fix>
</trkpt>
<trkpt lat="40.0717062" lon="-105.2294206">
  <ele>1583.0</ele>
  <time>2026-08-27T17:17:25Z</time>
  <course>90.93</course>
  <speed>2.21</speed>
  <fix>3d</fix>
</trkpt>
<trkpt lat="40.0717059" lon="-105.2294107">
  <ele>1583.07</ele>
  <time>2026-08-27T17:17:25Z</time>
  <course>92.19</course>
  <speed>2.180825531765437</speed>
  <fix>3d</fix>
</trkpt>
<trkpt lat="40.0717061" lon="-105.2294153">
  <ele>1583.0</ele>
  <time>2026-08-27T17:17:25Z</time>
  <course>90.96</course>
  <speed>2.21</speed>
  <fix>3d</fix>
</trkpt>
<trkpt lat="40.0717058" lon="-105.2294081">
  <ele>1583.07</ele>
  <time>2026-08-27T17:17:25Z</time>
  <course>92.21</course>
  <speed>2.180825531765437</speed>
  <fix>3d</fix>
</trkpt>
<trkpt lat="40.0717061" lon="-105.2294153">
  <ele>1583.0</ele>
  <time>2026-08-27T17:17:25Z</time>
  <course>90.96</course>
  <speed>2.21</speed>
  <fix>3d</fix>
</trkpt>
<trkpt lat="40.0717058" lon="-105.2294055">
  <ele>1583.07</ele>
  <time>2026-08-27T17:17:25Z</time>
  <course>92.24</course>
  <speed>2.180825531765437</speed>
  <fix>3d</fix>
</trkpt>
<trkpt lat="40.071706" lon="-105.2294101">
  <ele>1583.0</ele>
  <time>2026-08-27T17:17:25Z</time>
  <course>91.0</course>
  <speed>2.21</speed>
  <fix>3d</fix>
</trkpt>
<trkpt lat="40.0717058" lon="-105.2294029">
  <ele>1583.08</ele>
  <time>2026-08-27T17:17:25Z</time>
  <course>92.26</course>
  <speed>2.180825531765437</speed>
  <fix>3d</fix>
</trkpt>
<trkpt lat="40.071706" lon="-105.2294101">
  <ele>1583.0</ele>
  <time>2026-08-27T17:17:25Z</time>
  <course>91.0</course>
  <speed>2.21</speed>
  <fix>3d</fix>
</trkpt>
<trkpt lat="40.0717057" lon="-105.2294003">
  <ele>1583.08</ele>
  <time>2026-08-27T17:17:25Z</time>
  <course>92.29</course>
  <speed>2.180825531765437</speed>
  <fix>3d</fix>
</trkpt>
<trkpt lat="40.071706" lon="-105.229405">
  <ele>1583.0</ele>
  <time>2026-08-27T17:17:25Z</time>
  <course>91.05</course>
  <speed>2.21</speed>
  <fix>3d</fix>
</trkpt>
<trkpt lat="40.0717057" lon="-105.2293977">
  <ele>1583.08</ele>
  <time>2026-08-27T17:17:25Z</time>
  <course>92.32</course>
  <speed>2.180825531765437</speed>
  <fix>3d</fix>
</trkpt>
<trkpt lat="40.071706" lon="-105.229405">
  <ele>1583.0</ele>
  <time>2026-08-27T17:17:25Z</time>
  <course>91.05</course>
  <speed>2.21</speed>
  <fix>3d</fix>
</trkpt>
<trkpt lat="40.0717057" lon="-105.2293951">
  <ele>1583.08</ele>
  <time>2026-08-27T17:17:25Z</time>
  <course>92.35</course>
  <speed>2.180825531765437</speed>
  <fix>3d</fix>
</trkpt>
<trkpt lat="40.0717059" lon="-105.2293998">
  <ele>1583.0</ele>
  <time>2026-08-27T17:17:25Z</time>
  <course>91.1</course>
  <speed>2.21</speed>
  <fix>3d</fix>
</trkpt>
<trkpt lat="40.0717056" lon="-105.2293925">
  <ele>1583.09</ele>
  <time>2026-08-27T17:17:25Z</time>
  <course>92.37</course>
  <speed>2.1811235636707975</speed>
  <fix>3d</fix>
</trkpt>
<trkpt lat="40.0717059" lon="-105.2293998">
  <ele>1583.0</ele>
  <time>2026-08-27T17:17:25Z</time>
  <course>91.1</course>
  <speed>2.21</speed>
  <fix>3d</fix>
</trkpt>
<trkpt lat="40.0717056" lon="-105.2293893">
  <ele>1583.09</ele>
  <time>2026-08-27T17:17:25Z</time>
  <course>92.41</course>
  <speed>2.1811235636707975</speed>
  <fix>3d</fix>
</trkpt>
<trkpt lat="40.0717058" lon="-105.2293945">
  <ele>1583.0</ele>
  <time>2026-08-27T17:17:25Z</time>
  <course>91.16</course>
  <speed>2.21</speed>
  <fix>3d</fix>
</trkpt>
<trkpt lat="40.0717055" lon="-105.2293867">
  <ele>1583.09</ele>
  <time>2026-08-27T17:17:25Z</time>
  <course>92.44</course>
  <speed>2.1811235636707975</speed>
  <fix>3d</fix>
</trkpt>
<trkpt lat="40.0717058" lon="-105.2293945">
  <ele>1583.0</ele>
  <time>2026-08-27T17:17:25Z</time>
  <course>91.16</course>
  <speed>2.21</speed>
  <fix>3d</fix>
</trkpt>
<trkpt lat="40.0717055" lon="-105.2293841">
  <ele>1583.09</ele>
  <time>2026-08-27T17:17:25Z</time>
  <course>92.46</course>
  <speed>2.1811235636707975</speed>
  <fix>3d</fix>
</trkpt>
<trkpt lat="40.0717057" lon="-105.2293894">
  <ele>1583.0</ele>
  <time>2026-08-27T17:17:25Z</time>
  <course>91.22</course>
  <speed>2.21</speed>
  <fix>3d</fix>
</trkpt>
<trkpt lat="40.0717054" lon="-105.2293815">
  <ele>1583.09</ele>
  <time>2026-08-27T17:17:25Z</time>
  <course>92.49</course>
  <speed>2.1811235636707975</speed>
  <fix>3d</fix>
</trkpt>
<trkpt lat="40.0717057" lon="-105.2293894">
  <ele>1583.0</ele>
  <time>2026-08-27T17:17:25Z</time>
  <course>91.22</course>
  <speed>2.21</speed>
  <fix>3d</fix>
</trkpt>
<trkpt lat="40.0717054" lon="-105.2293789">
  <ele>1583.09</ele>
  <time>2026-08-27T17:17:25Z</time>
  <course>92.52</course>
  <speed>2.1811235636707975</speed>
  <fix>3d</fix>
</trkpt>
<trkpt lat="40.0717056" lon="-105.2293842">
  <ele>1583.0</ele>
  <time>2026-08-27T17:17:25Z</time>
  <course>91.28</course>
  <speed>2.21</speed>
  <fix>3d</fix>
</trkpt>
<trkpt lat="40.0717053" lon="-105.2293763">
  <ele>1583.09</ele>
  <time>2026-08-27T17:17:25Z</time>
  <course>92.55</course>
  <speed>2.1811235636707975</speed>
  <fix>3d</fix>
</trkpt>
<trkpt lat="40.0717056" lon="-105.2293842">
  <ele>1583.0</ele>
  <time>2026-08-27T17:17:25Z</time>
  <course>91.28</course>
  <speed>2.21</speed>
  <fix>3d</fix>
</trkpt>
<trkpt lat="40.0717053" lon="-105.2293737">
  <ele>1583.1</ele>
  <time>2026-08-27T17:17:25Z</time>
  <course>92.58</course>
  <speed>2.1811235636707975</speed>
  <fix>3d</fix>
</trkpt>
<trkpt lat="40.0717055" lon="-105.229379">
  <ele>1583.0</ele>
  <time>2026-08-27T17:17:25Z</time>
  <course>91.35</course>
  <speed>2.21</speed>
  <fix>3d</fix>
</trkpt>
<trkpt lat="40.0717052" lon="-105.2293711">
  <ele>1583.1</ele>
  <time>2026-08-27T17:17:25Z</time>
  <course>92.61</course>
  <speed>2.1811235636707975</speed>
  <fix>3d</fix>
</trkpt>
<trkpt lat="40.0717055" lon="-105.229379">
  <ele>1583.0</ele>
  <time>2026-08-27T17:17:25Z</time>
  <course>91.35</course>
  <speed>2.21</speed>
  <fix>3d</fix>
</trkpt>
<trkpt lat="40.0717052" lon="-105.2293685">
  <ele>1583.1</ele>
  <time>2026-08-27T17:17:25Z</time>
  <course>92.64</course>
  <speed>2.1814673960433146</speed>
  <fix>3d</fix>
</trkpt>
<trkpt lat="40.0717054" lon="-105.2293737">
  <ele>1583.0</ele>
  <time>2026-08-27T17:17:25Z</time>
  <course>91.41</course>
  <speed>2.21</speed>
  <fix>3d</fix>
</trkpt>
<trkpt lat="40.0717051" lon="-105.229366">
  <ele>1583.1</ele>
  <time>2026-08-27T17:17:25Z</time>
  <course>92.66</course>
  <speed>2.1814673960433146</speed>
  <fix>3d</fix>
</trkpt>
<trkpt lat="40.0717054" lon="-105.2293737">
  <ele>1583.0</ele>
  <time>2026-08-27T17:17:25Z</time>
  <course>91.41</course>
  <speed>2.21</speed>
  <fix>3d</fix>
</trkpt>
<trkpt lat="40.0717051" lon="-105.2293634">
  <ele>1583.1</ele>
  <time>2026-08-27T17:17:25Z</time>
  <course>92.69</course>
  <speed>2.1814673960433146</speed>
  <fix>3d</fix>
</trkpt>
<trkpt lat="40.0717053" lon="-105.2293685">
  <ele>1583.0</ele>
  <time>2026-08-27T17:17:25Z</time>
  <course>91.47</course>
  <speed>2.21</speed>
  <fix>3d</fix>
</trkpt>
<trkpt lat="40.071705" lon="-105.2293613">
  <ele>1583.09</ele>
  <time>2026-08-27T17:17:25Z</time>
  <course>92.72</course>
  <speed>2.1814673960433146</speed>
  <fix>3d</fix>
</trkpt>
<trkpt lat="40.0717053" lon="-105.2293685">
  <ele>1583.0</ele>
  <time>2026-08-27T17:17:25Z</time>
  <course>91.47</course>
  <speed>2.21</speed>
  <fix>3d</fix>
</trkpt>
<trkpt lat="40.071705" lon="-105.2293587">
  <ele>1583.09</ele>
  <time>2026-08-27T17:17:25Z</time>
  <course>92.75</course>
  <speed>2.1814673960433146</speed>
  <fix>3d</fix>
</trkpt>
<trkpt lat="40.0717052" lon="-105.2293634">
  <ele>1583.0</ele>
  <time>2026-08-27T17:17:25Z</time>
  <course>91.53</course>
  <speed>2.21</speed>
  <fix>3d</fix>
</trkpt>
<trkpt lat="40.0717049" lon="-105.2293561">
  <ele>1583.09</ele>
  <time>2026-08-27T17:17:25Z</time>
  <course>92.77</course>
  <speed>2.1814673960433146</speed>
  <fix>3d</fix>
</trkpt>
<trkpt lat="40.0717052" lon="-105.2293634">
  <ele>1583.0</ele>
  <time>2026-08-27T17:17:25Z</time>
  <course>91.53</course>
  <speed>2.21</speed>
  <fix>3d</fix>
</trkpt>
<trkpt lat="40.0717049" lon="-105.2293536">
  <ele>1583.09</ele>
  <time>2026-08-27T17:17:25Z</time>
  <course>92.8</course>
  <speed>2.1814673960433146</speed>
  <fix>3d</fix>
</trkpt>
<trkpt lat="40.0717051" lon="-105.2293581">
  <ele>1583.0</ele>
  <time>2026-08-27T17:17:25Z</time>
  <course>91.59</course>
  <speed>2.21</speed>
  <fix>3d</fix>
</trkpt>
<trkpt lat="40.0717048" lon="-105.2293509">
  <ele>1583.09</ele>
  <time>2026-08-27T17:17:25Z</time>
  <course>92.83</course>
  <speed>2.1814673960433146</speed>
  <fix>3d</fix>
</trkpt>
<trkpt lat="40.0717051" lon="-105.2293581">
  <ele>1583.0</ele>
  <time>2026-08-27T17:17:25Z</time>
  <course>91.59</course>
  <speed>2.21</speed>
  <fix>3d</fix>
</trkpt>
<trkpt lat="40.0717047" lon="-105.2293483">
  <ele>1583.09</ele>
  <time>2026-08-27T17:17:25Z</time>
  <course>92.86</course>
  <speed>2.1814673960433146</speed>
  <fix>3d</fix>
</trkpt>
<trkpt lat="40.071705" lon="-105.229353">
  <ele>1583.0</ele>
  <time>2026-08-27T17:17:25Z</time>
  <course>91.65</course>
  <speed>2.21</speed>
  <fix>3d</fix>
</trkpt>
<trkpt lat="40.0717047" lon="-105.2293457">
  <ele>1583.09</ele>
  <time>2026-08-27T17:17:25Z</time>
  <course>92.89</course>
  <speed>2.1818570072303087</speed>
  <fix>3d</fix>
</trkpt>
<trkpt lat="40.071705" lon="-105.229353">
  <ele>1583.0</ele>
  <time>2026-08-27T17:17:25Z</time>
  <course>91.65</course>
  <speed>2.21</speed>
  <fix>3d</fix>
</trkpt>
<trkpt lat="40.0717046" lon="-105.2293431">
  <ele>1583.09</ele>
  <time>2026-08-27T17:17:25Z</time>
  <course>92.92</course>
  <speed>2.1818570072303087</speed>
  <fix>3d</fix>
</trkpt>
<trkpt lat="40.0717049" lon="-105.2293478">
  <ele>1583.0</ele>
  <time>2026-08-27T17:17:25Z</time>
  <course>91.7</course>
  <speed>2.21</speed>
  <fix>3d</fix>
</trkpt>
<trkpt lat="40.0717046" lon="-105.2293405">
  <ele>1583.09</ele>
  <time>2026-08-27T17:17:25Z</time>
  <course>92.95</course>
  <speed>2.1818570072303087</speed>
  <fix>3d</fix>
</trkpt>
<trkpt lat="40.0717049" lon="-105.2293478">
  <ele>1583.0</ele>
  <time>2026-08-27T17:17:25Z</time>
  <course>91.7</course>
  <speed>2.21</speed>
  <fix>3d</fix>
</trkpt>
<trkpt lat="40.0717045" lon="-105.2293379">
  <ele>1583.09</ele>
  <time>2026-08-27T17:17:25Z</time>
  <course>92.99</course>
  <speed>2.1818570072303087</speed>
  <fix>3d</fix>
</trkpt>
<trkpt lat="40.0717048" lon="-105.2293426">
  <ele>1583.0</ele>
  <time>2026-08-27T17:17:25Z</time>
  <course>91.77</course>
  <speed>2.21</speed>
  <fix>3d</fix>
</trkpt>
<trkpt lat="40.0717044" lon="-105.2293348">
  <ele>1583.09</ele>
  <time>2026-08-27T17:17:25Z</time>
  <course>93.06</course>
  <speed>2.1818570072303087</speed>
  <fix>3d</fix>
</trkpt>
<trkpt lat="40.0717048" lon="-105.2293426">
  <ele>1583.0</ele>
  <time>2026-08-27T17:17:25Z</time>
  <course>91.77</course>
  <speed>2.21</speed>
  <fix>3d</fix>
</trkpt>
<trkpt lat="40.0717044" lon="-105.2293321">
  <ele>1583.09</ele>
  <time>2026-08-27T17:17:25Z</time>
  <course>93.12</course>
  <speed>2.1818570072303087</speed>
  <fix>3d</fix>
</trkpt>
<trkpt lat="40.0717047" lon="-105.2293375">
  <ele>1583.0</ele>
  <time>2026-08-27T17:17:25Z</time>
  <course>91.86</course>
  <speed>2.2</speed>
  <fix>3d</fix>
</trkpt>
<trkpt lat="40.0717043" lon="-105.2293296">
  <ele>1583.09</ele>
  <time>2026-08-27T17:17:25Z</time>
  <course>93.18</course>
  <speed>2.182292372712694</speed>
  <fix>3d</fix>
</trkpt>
<trkpt lat="40.0717047" lon="-105.2293375">
  <ele>1583.0</ele>
  <time>2026-08-27T17:17:25Z</time>
  <course>91.86</course>
  <speed>2.2</speed>
  <fix>3d</fix>
</trkpt>
<trkpt lat="40.0717042" lon="-105.2293269">
  <ele>1583.09</ele>
  <time>2026-08-27T17:17:25Z</time>
  <course>93.24</course>
  <speed>2.182292372712694</speed>
  <fix>3d</fix>
</trkpt>
<trkpt lat="40.0717045" lon="-105.2293323">
  <ele>1583.0</ele>
  <time>2026-08-27T17:17:25Z</time>
  <course>91.97</course>
  <speed>2.2</speed>
  <fix>3d</fix>
</trkpt>
<trkpt lat="40.0717042" lon="-105.2293244">
  <ele>1583.1</ele>
  <time>2026-08-27T17:17:25Z</time>
  <course>93.29</course>
  <speed>2.182292372712694</speed>
  <fix>3d</fix>
</trkpt>
<trkpt lat="40.0717045" lon="-105.2293323">
  <ele>1583.0</ele>
  <time>2026-08-27T17:17:25Z</time>
  <course>91.97</course>
  <speed>2.2</speed>
  <fix>3d</fix>
</trkpt>
<trkpt lat="40.0717041" lon="-105.2293218">
  <ele>1583.1</ele>
  <time>2026-08-27T17:17:25Z</time>
  <course>93.36</course>
  <speed>2.182292372712694</speed>
  <fix>3d</fix>
</trkpt>
<trkpt lat="40.0717044" lon="-105.229327">
  <ele>1583.0</ele>
  <time>2026-08-27T17:17:25Z</time>
  <course>92.09</course>
  <speed>2.2</speed>
  <fix>3d</fix>
</trkpt>
<trkpt lat="40.071704" lon="-105.2293192">
  <ele>1583.1</ele>
  <time>2026-08-27T17:17:25Z</time>
  <course>93.45</course>
  <speed>2.1827734651126764</speed>
  <fix>3d</fix>
</trkpt>
<trkpt lat="40.0717044" lon="-105.229327">
  <ele>1583.0</ele>
  <time>2026-08-27T17:17:25Z</time>
  <course>92.09</course>
  <speed>2.2</speed>
  <fix>3d</fix>
</trkpt>
<trkpt lat="40.0717039" lon="-105.2293166">
  <ele>1583.1</ele>
  <time>2026-08-27T17:17:25Z</time>
  <course>93.54</course>
  <speed>2.1827734651126764</speed>
  <fix>3d</fix>
</trkpt>
<trkpt lat="40.0717043" lon="-105.2293219">
  <ele>1583.0</ele>
  <time>2026-08-27T17:17:25Z</time>
  <course>92.24</course>
  <speed>2.2</speed>
  <fix>3d</fix>
</trkpt>
<trkpt lat="40.0717038" lon="-105.2293141">
  <ele>1583.1</ele>
  <time>2026-08-27T17:17:25Z</time>
  <course>93.63</course>
  <speed>2.1827734651126764</speed>
  <fix>3d</fix>
</trkpt>
<trkpt lat="40.0717043" lon="-105.2293219">
  <ele>1583.0</ele>
  <time>2026-08-27T17:17:25Z</time>
  <course>92.24</course>
  <speed>2.2</speed>
  <fix>3d</fix>
</trkpt>
<trkpt lat="40.0717038" lon="-105.2293115">
  <ele>1583.1</ele>
  <time>2026-08-27T17:17:25Z</time>
  <course>93.75</course>
  <speed>2.173315439599139</speed>
  <fix>3d</fix>
</trkpt>
<trkpt lat="40.0717041" lon="-105.2293167">
  <ele>1583.0</ele>
  <time>2026-08-27T17:17:25Z</time>
  <course>92.42</course>
  <speed>2.2</speed>
  <fix>3d</fix>
</trkpt>
<trkpt lat="40.0717037" lon="-105.2293089">
  <ele>1583.1</ele>
  <time>2026-08-27T17:17:25Z</time>
  <course>93.87</course>
  <speed>2.173315439599139</speed>
  <fix>3d</fix>
</trkpt>
<trkpt lat="40.0717041" lon="-105.2293167">
  <ele>1583.0</ele>
  <time>2026-08-27T17:17:25Z</time>
  <course>92.42</course>
  <speed>2.2</speed>
  <fix>3d</fix>
</trkpt>
<trkpt lat="40.0717036" lon="-105.2293069">
  <ele>1583.1</ele>
  <time>2026-08-27T17:17:25Z</time>
  <course>93.99</course>
  <speed>2.1738905216224667</speed>
  <fix>3d</fix>
</trkpt>
<trkpt lat="40.0717039" lon="-105.2293115">
  <ele>1583.0</ele>
  <time>2026-08-27T17:17:25Z</time>
  <course>92.63</course>
  <speed>2.2</speed>
  <fix>3d</fix>
</trkpt>
<trkpt lat="40.0717035" lon="-105.2293043">
  <ele>1583.09</ele>
  <time>2026-08-27T17:17:25Z</time>
  <course>94.15</course>
  <speed>2.1738905216224667</speed>
  <fix>3d</fix>
</trkpt>
<trkpt lat="40.0717039" lon="-105.2293115">
  <ele>1583.0</ele>
  <time>2026-08-27T17:17:25Z</time>
  <course>92.63</course>
  <speed>2.2</speed>
  <fix>3d</fix>
</trkpt>
<trkpt lat="40.0717034" lon="-105.2293017">
  <ele>1583.09</ele>
  <time>2026-08-27T17:17:25Z</time>
  <course>94.34</course>
  <speed>2.1745114393812695</speed>
  <fix>3d</fix>
</trkpt>
<trkpt lat="40.0717037" lon="-105.2293064">
  <ele>1583.0</ele>
  <time>2026-08-27T17:17:25Z</time>
  <course>92.92</course>
  <speed>2.2</speed>
  <fix>3d</fix>
</trkpt>
<trkpt lat="40.0717033" lon="-105.2292991">
  <ele>1583.09</ele>
  <time>2026-08-27T17:17:25Z</time>
  <course>94.56</course>
  <speed>2.175178153623284</speed>
  <fix>3d</fix>
</trkpt>
<trkpt lat="40.0717037" lon="-105.2293064">
  <ele>1583.0</ele>
  <time>2026-08-27T17:17:25Z</time>
  <course>92.92</course>
  <speed>2.2</speed>
  <fix>3d</fix>
</trkpt>
<trkpt lat="40.0717032" lon="-105.2292965">
  <ele>1583.09</ele>
  <time>2026-08-27T17:17:25Z</time>
  <course>94.98</course>
  <speed>2.175890622251036</speed>
  <fix>3d</fix>
</trkpt>
<trkpt lat="40.0717035" lon="-105.2293012">
  <ele>1583.0</ele>
  <time>2026-08-27T17:17:25Z</time>
  <course>93.3</course>
  <speed>2.2</speed>
  <fix>3d</fix>
</trkpt>
<trkpt lat="40.071703" lon="-105.229294">
  <ele>1583.09</ele>
  <time>2026-08-27T17:17:25Z</time>
  <course>96.49</course>
  <speed>2.171174797200815</speed>
  <fix>3d</fix>
</trkpt>
<trkpt lat="40.0717035" lon="-105.2293012">
  <ele>1583.0</ele>
  <time>2026-08-27T17:17:25Z</time>
  <course>93.3</course>
  <speed>2.2</speed>
  <fix>3d</fix>
</trkpt>
<trkpt lat="40.0717028" lon="-105.2292914">
  <ele>1583.09</ele>
  <time>2026-08-27T17:17:25Z</time>
  <course>99.12</course>
  <speed>2.163792966066763</speed>
  <fix>3d</fix>
</trkpt>
<trkpt lat="40.0717032" lon="-105.229296">
  <ele>1583.0</ele>
  <time>2026-08-27T17:17:25Z</time>
  <course>94.91</course>
  <speed>2.2</speed>
  <fix>3d</fix>
</trkpt>
<trkpt lat="40.0717024" lon="-105.2292888">
  <ele>1583.09</ele>
  <time>2026-08-27T17:17:25Z</time>
  <course>102.89</course>
  <speed>2.161712284278368</speed>
  <fix>3d</fix>
</trkpt>
<trkpt lat="40.0717032" lon="-105.229296">
  <ele>1583.0</ele>
  <time>2026-08-27T17:17:25Z</time>
  <course>94.91</course>
  <speed>2.2</speed>
  <fix>3d</fix>
</trkpt>
<trkpt lat="40.0717019" lon="-105.2292863">
  <ele>1583.09</ele>
  <time>2026-08-27T17:17:25Z</time>
  <course>107.73</course>
  <speed>2.157127719909046</speed>
  <fix>3d</fix>
</trkpt>
<trkpt lat="40.0717028" lon="-105.2292909">
  <ele>1583.0</ele>
  <time>2026-08-27T17:17:25Z</time>
  <course>99.92</course>
  <speed>2.19</speed>
  <fix>3d</fix>
</trkpt>
<trkpt lat="40.0717011" lon="-105.2292834">
  <ele>1583.08</ele>
  <time>2026-08-27T17:17:25Z</time>
  <course>114.44</course>
  <speed>2.139369065869655</speed>
  <fix>3d</fix>
</trkpt>
<trkpt lat="40.0717028" lon="-105.2292909">
  <ele>1583.0</ele>
  <time>2026-08-27T17:17:25Z</time>
  <course>99.92</course>
  <speed>2.19</speed>
  <fix>3d</fix>
</trkpt>
<trkpt lat="40.0717002" lon="-105.2292812">
  <ele>1583.08</ele>
  <time>2026-08-27T17:17:25Z</time>
  <course>119.98</course>
  <speed>2.1148285982556603</speed>
  <fix>3d</fix>
</trkpt>
<trkpt lat="40.0717018" lon="-105.229286">
  <ele>1583.0</ele>
  <time>2026-08-27T17:17:25Z</time>
  <course>108.97</course>
  <speed>2.17</speed>
  <fix>3d</fix>
</trkpt>
<trkpt lat="40.0716992" lon="-105.2292791">
  <ele>1583.07</ele>
  <time>2026-08-27T17:17:25Z</time>
  <course>125.54</course>
  <speed>2.07850908104824</speed>
  <fix>3d</fix>
</trkpt>
<trkpt lat="40.0717018" lon="-105.229286">
  <ele>1583.0</ele>
  <time>2026-08-27T17:17:25Z</time>
  <course>108.97</course>
  <speed>2.17</speed>
  <fix>3d</fix>
</trkpt>
<trkpt lat="40.071698" lon="-105.2292772">
  <ele>1583.07</ele>
  <time>2026-08-27T17:17:25Z</time>
  <course>131.11</course>
  <speed>2.040441128775834</speed>
  <fix>3d</fix>
</trkpt>
<trkpt lat="40.0717002" lon="-105.2292813">
  <ele>1583.0</ele>
  <time>2026-08-27T17:17:25Z</time>
  <course>119.91</course>
  <speed>2.13</speed>
  <fix>3d</fix>
</trkpt>
<trkpt lat="40.0716967" lon="-105.2292755">
  <ele>1583.07</ele>
  <time>2026-08-27T17:17:25Z</time>
  <course>136.63</course>
  <speed>1.9670282153543197</speed>
  <fix>3d</fix>
</trkpt>
<trkpt lat="40.0717002" lon="-105.2292813">
  <ele>1583.0</ele>
  <time>2026-08-27T17:17:25Z</time>
  <course>119.91</course>
  <speed>2.13</speed>
  <fix>3d</fix>
</trkpt>
<trkpt lat="40.0716954" lon="-105.229274">
  <ele>1583.07</ele>
  <time>2026-08-27T17:17:25Z</time>
  <course>141.22</course>
  <speed>1.9225503894566716</speed>
  <fix>3d</fix>
</trkpt>
<trkpt lat="40.071698" lon="-105.2292773">
  <ele>1583.0</ele>
  <time>2026-08-27T17:17:25Z</time>
  <course>130.9</course>
  <speed>2.04</speed>
  <fix>3d</fix>
</trkpt>
<trkpt lat="40.071694" lon="-105.2292727">
  <ele>1583.07</ele>
  <time>2026-08-27T17:17:25Z</time>
  <course>144.69</course>
  <speed>1.8777912557044245</speed>
  <fix>3d</fix>
</trkpt>
<trkpt lat="40.071698" lon="-105.2292773">
  <ele>1583.0</ele>
  <time>2026-08-27T17:17:25Z</time>
  <course>130.9</course>
  <speed>2.04</speed>
  <fix>3d</fix>
</trkpt>
<trkpt lat="40.0716926" lon="-105.2292715">
  <ele>1583.07</ele>
  <time>2026-08-27T17:17:25Z</time>
  <course>147.07</course>
  <speed>1.8284966502567075</speed>
  <fix>3d</fix>
</trkpt>
<trkpt lat="40.0716954" lon="-105.2292741">
  <ele>1583.0</ele>
  <time>2026-08-27T17:17:25Z</time>
  <course>140.28</course>
  <speed>1.94</speed>
  <fix>3d</fix>
</trkpt>
<trkpt lat="40.0716912" lon="-105.2292703">
  <ele>1583.07</ele>
  <time>2026-08-27T17:17:25Z</time>
  <course>148.33</course>
  <speed>1.7801685313475237</speed>
  <fix>3d</fix>
</trkpt>
<trkpt lat="40.0716954" lon="-105.2292741">
  <ele>1583.0</ele>
  <time>2026-08-27T17:17:25Z</time>
  <course>140.28</course>
  <speed>1.94</speed>
  <fix>3d</fix>
</trkpt>
<trkpt lat="40.0716898" lon="-105.2292693">
  <ele>1583.07</ele>
  <time>2026-08-27T17:17:25Z</time>
  <course>148.48</course>
  <speed>1.7390802166662698</speed>
  <fix>3d</fix>
</trkpt>
<trkpt lat="40.0716927" lon="-105.2292714">
  <ele>1583.0</ele>
  <time>2026-08-27T17:17:25Z</time>
  <course>145.71</course>
  <speed>1.85</speed>
  <fix>3d</fix>
</trkpt>
<trkpt lat="40.0716885" lon="-105.2292682">
  <ele>1583.07</ele>
  <time>2026-08-27T17:17:25Z</time>
  <course>147.54</course>
  <speed>1.7013524032369074</speed>
  <fix>3d</fix>
</trkpt>
<trkpt lat="40.0716927" lon="-105.2292714">
  <ele>1583.0</ele>
  <time>2026-08-27T17:17:25Z</time>
  <course>145.71</course>
  <speed>1.85</speed>
  <fix>3d</fix>
</trkpt>
<trkpt lat="40.0716873" lon="-105.2292671">
  <ele>1583.06</ele>
  <time>2026-08-27T17:17:25Z</time>
  <course>145.56</course>
  <speed>1.6585535867134351</speed>
  <fix>3d</fix>
</trkpt>
<trkpt lat="40.07169" lon="-105.2292691">
  <ele>1583.0</ele>
  <time>2026-08-27T17:17:25Z</time>
  <course>146.74</course>
  <speed>1.76</speed>
  <fix>3d</fix>
</trkpt>
<trkpt lat="40.0716863" lon="-105.2292662">
  <ele>1583.06</ele>
  <time>2026-08-27T17:17:25Z</time>
  <course>144.1</course>
  <speed>1.6368261972488098</speed>
  <fix>3d</fix>
</trkpt>
<trkpt lat="40.07169" lon="-105.2292691">
  <ele>1583.0</ele>
  <time>2026-08-27T17:17:25Z</time>
  <course>146.74</course>
  <speed>1.76</speed>
  <fix>3d</fix>
</trkpt>
<trkpt lat="40.0716851" lon="-105.229265">
  <ele>1583.06</ele>
  <time>2026-08-27T17:17:25Z</time>
  <course>142.59</course>
  <speed>1.6020611723651503</speed>
  <fix>3d</fix>
</trkpt>
<trkpt lat="40.0716874" lon="-105.2292668">
  <ele>1583.0</ele>
  <time>2026-08-27T17:17:25Z</time>
  <course>144.28</course>
  <speed>1.68</speed>
  <fix>3d</fix>
</trkpt>
<trkpt lat="40.071684" lon="-105.2292638">
  <ele>1583.07</ele>
  <time>2026-08-27T17:17:25Z</time>
  <course>141.31</course>
  <speed>1.574325252290644</speed>
  <fix>3d</fix>
</trkpt>
<trkpt lat="40.0716874" lon="-105.2292668">
  <ele>1583.0</ele>
  <time>2026-08-27T17:17:25Z</time>
  <course>144.28</course>
  <speed>1.68</speed>
  <fix>3d</fix>
</trkpt>
<trkpt lat="40.0716829" lon="-105.2292626">
  <ele>1583.07</ele>
  <time>2026-08-27T17:17:25Z</time>
  <course>140.23</course>
  <speed>1.557080601638849</speed>
  <fix>3d</fix>
</trkpt>
<trkpt lat="40.071685" lon="-105.2292645">
  <ele>1583.0</ele>
  <time>2026-08-27T17:17:25Z</time>
  <course>141.11</course>
  <speed>1.62</speed>
  <fix>3d</fix>
</trkpt>
<trkpt lat="40.0716819" lon="-105.2292614">
  <ele>1583.07</ele>
  <time>2026-08-27T17:17:25Z</time>
  <course>139.33</course>
  <speed>1.52620444239951</speed>
  <fix>3d</fix>
</trkpt>
<trkpt lat="40.071685" lon="-105.2292645">
  <ele>1583.0</ele>
  <time>2026-08-27T17:17:25Z</time>
  <course>141.11</course>
  <speed>1.62</speed>
  <fix>3d</fix>
</trkpt>
<trkpt lat="40.0716808" lon="-105.2292602">
  <ele>1583.07</ele>
  <time>2026-08-27T17:17:25Z</time>
  <course>138.57</course>
  <speed>1.5174320413119</speed>
  <fix>3d</fix>
</trkpt>
<trkpt lat="40.0716829" lon="-105.229262">
  <ele>1583.0</ele>
  <time>2026-08-27T17:17:25Z</time>
  <course>138.87</course>
  <speed>1.57</speed>
  <fix>3d</fix>
</trkpt>
<trkpt lat="40.0716798" lon="-105.229259">
  <ele>1583.07</ele>
  <time>2026-08-27T17:17:25Z</time>
  <course>137.93</course>
  <speed>1.494824404403407</speed>
  <fix>3d</fix>
</trkpt>
<trkpt lat="40.0716829" lon="-105.229262">
  <ele>1583.0</ele>
  <time>2026-08-27T17:17:25Z</time>
  <course>138.87</course>
  <speed>1.57</speed>
  <fix>3d</fix>
</trkpt>
<trkpt lat="40.0716788" lon="-105.2292577">
  <ele>1583.07</ele>
  <time>2026-08-27T17:17:25Z</time>
  <course>137.38</course>
  <speed>1.4866068747318506</speed>
  <fix>3d</fix>
</trkpt>
<trkpt lat="40.0716807" lon="-105.2292595">
  <ele>1583.0</ele>
  <time>2026-08-27T17:17:25Z</time>
  <course>137.29</course>
  <speed>1.53</speed>
  <fix>3d</fix>
</trkpt>
<trkpt lat="40.0716778" lon="-105.2292565">
  <ele>1583.07</ele>
  <time>2026-08-27T17:17:25Z</time>
  <course>136.93</course>
  <speed>1.4792227688891217</speed>
  <fix>3d</fix>
</trkpt>
<trkpt lat="40.0716807" lon="-105.2292595">
  <ele>1583.0</ele>
  <time>2026-08-27T17:17:25Z</time>
  <course>137.29</course>
  <speed>1.53</speed>
  <fix>3d</fix>
</trkpt>
<trkpt lat="40.0716767" lon="-105.229255">
  <ele>1583.08</ele>
  <time>2026-08-27T17:17:25Z</time>
  <course>136.48</course>
  <speed>1.4713938969562161</speed>
  <fix>3d</fix>
</trkpt>
<trkpt lat="40.0716788" lon="-105.2292571">
  <ele>1583.0</ele>
  <time>2026-08-27T17:17:25Z</time>
  <course>136.18</course>
  <speed>1.5</speed>
  <fix>3d</fix>
</trkpt>
<trkpt lat="40.0716757" lon="-105.2292537">
  <ele>1583.08</ele>
  <time>2026-08-27T17:17:25Z</time>
  <course>136.17</course>
  <speed>1.4713938969562161</speed>
  <fix>3d</fix>
</trkpt>
<trkpt lat="40.0716788" lon="-105.2292571">
  <ele>1583.0</ele>
  <time>2026-08-27T17:17:25Z</time>
  <course>136.18</course>
  <speed>1.5</speed>
  <fix>3d</fix>
</trkpt>
<trkpt lat="40.0716747" lon="-105.2292525">
  <ele>1583.08</ele>
  <time>2026-08-27T17:17:25Z</time>
  <course>135.92</course>
  <speed>1.464137971640651</speed>
  <fix>3d</fix>
</trkpt>
<trkpt lat="40.0716769" lon="-105.2292547">
  <ele>1583.0</ele>
  <time>2026-08-27T17:17:25Z</time>
  <course>135.39</course>
  <speed>1.49</speed>
  <fix>3d</fix>
</trkpt>
<trkpt lat="40.0716738" lon="-105.2292512">
  <ele>1583.08</ele>
  <time>2026-08-27T17:17:25Z</time>
  <course>135.7</course>
  <speed>1.4638647478507023</speed>
  <fix>3d</fix>
</trkpt>
<trkpt lat="40.0716769" lon="-105.2292547">
  <ele>1583.0</ele>
  <time>2026-08-27T17:17:25Z</time>
  <course>135.39</course>
  <speed>1.49</speed>
  <fix>3d</fix>
</trkpt>
<trkpt lat="40.0716729" lon="-105.22925">
  <ele>1583.08</ele>
  <time>2026-08-27T17:17:25Z</time>
  <course>135.51</course>
  <speed>1.4638647478507023</speed>
  <fix>3d</fix>
</trkpt>
<trkpt lat="40.071675" lon="-105.2292522">
  <ele>1583.0</ele>
  <time>2026-08-27T17:17:25Z</time>
  <course>134.84</course>
  <speed>1.48</speed>
  <fix>3d</fix>
</trkpt>
<trkpt lat="40.0716719" lon="-105.2292487">
  <ele>1583.08</ele>
  <time>2026-08-27T17:17:25Z</time>
  <course>135.36</course>
  <speed>1.4708500943332057</speed>
  <fix>3d</fix>
</trkpt>
<trkpt lat="40.071675" lon="-105.2292522">
  <ele>1583.0</ele>
  <time>2026-08-27T17:17:25Z</time>
  <course>134.84</course>
  <speed>1.48</speed>
  <fix>3d</fix>
</trkpt>
<trkpt lat="40.071671" lon="-105.2292475">
  <ele>1583.08</ele>
  <time>2026-08-27T17:17:25Z</time>
  <course>135.23</course>
  <speed>1.4637281168304446</speed>
  <fix>3d</fix>
</trkpt>
<trkpt lat="40.0716731" lon="-105.2292497">
  <ele>1583.0</ele>
  <time>2026-08-27T17:17:25Z</time>
  <course>134.44</course>
  <speed>1.48</speed>
  <fix>3d</fix>
</trkpt>
<trkpt lat="40.0716701" lon="-105.2292462">
  <ele>1583.08</ele>
  <time>2026-08-27T17:17:25Z</time>
  <course>135.12</course>
  <speed>1.4637281168304446</speed>
  <fix>3d</fix>
</trkpt>
<trkpt lat="40.0716731" lon="-105.2292497">
  <ele>1583.0</ele>
  <time>2026-08-27T17:17:25Z</time>
  <course>134.44</course>
  <speed>1.48</speed>
  <fix>3d</fix>
</trkpt>
<trkpt lat="40.0716692" lon="-105.229245">
  <ele>1583.08</ele>
  <time>2026-08-27T17:17:25Z</time>
  <course>135.03</course>
  <speed>1.4707821048680187</speed>
  <fix>3d</fix>
</trkpt>
<trkpt lat="40.0716712" lon="-105.2292472">
  <ele>1583.0</ele>
  <time>2026-08-27T17:17:25Z</time>
  <course>134.17</course>
  <speed>1.48</speed>
  <fix>3d</fix>
</trkpt>
<trkpt lat="40.0716683" lon="-105.2292437">
  <ele>1583.08</ele>
  <time>2026-08-27T17:17:25Z</time>
  <course>134.96</course>
  <speed>1.4707821048680187</speed>
  <fix>3d</fix>
</trkpt>
<trkpt lat="40.0716712" lon="-105.2292472">
  <ele>1583.0</ele>
  <time>2026-08-27T17:17:25Z</time>
  <course>134.17</course>
  <speed>1.48</speed>
  <fix>3d</fix>
</trkpt>
<trkpt lat="40.0716673" lon="-105.2292425">
  <ele>1583.08</ele>
  <time>2026-08-27T17:17:25Z</time>
  <course>134.9</course>
  <speed>1.4707821048680187</speed>
  <fix>3d</fix>
</trkpt>
<trkpt lat="40.0716694" lon="-105.2292447">
  <ele>1583.0</ele>
  <time>2026-08-27T17:17:25Z</time>
  <course>133.97</course>
  <speed>1.48</speed>
  <fix>3d</fix>
</trkpt>
<trkpt lat="40.0716666" lon="-105.2292414">
  <ele>1583.08</ele>
  <time>2026-08-27T17:17:25Z</time>
  <course>134.85</course>
  <speed>1.4707821048680187</speed>
  <fix>3d</fix>
</trkpt>
<trkpt lat="40.0716694" lon="-105.2292447">
  <ele>1583.0</ele>
  <time>2026-08-27T17:17:25Z</time>
  <course>133.97</course>
  <speed>1.48</speed>
  <fix>3d</fix>
</trkpt>
<trkpt lat="40.0716657" lon="-105.2292402">
  <ele>1583.08</ele>
  <time>2026-08-27T17:17:25Z</time>
  <course>134.81</course>
  <speed>1.4778700890132392</speed>
  <fix>3d</fix>
</trkpt>
<trkpt lat="40.0716676" lon="-105.2292422">
  <ele>1583.0</ele>
  <time>2026-08-27T17:17:25Z</time>
  <course>133.83</course>
  <speed>1.48</speed>
  <fix>3d</fix>
</trkpt>
<trkpt lat="40.0716648" lon="-105.2292389">
  <ele>1583.08</ele>
  <time>2026-08-27T17:17:25Z</time>
  <course>134.77</course>
  <speed>1.4778700890132392</speed>
  <fix>3d</fix>
</trkpt>
<trkpt lat="40.0716676" lon="-105.2292422">
  <ele>1583.0</ele>
  <time>2026-08-27T17:17:25Z</time>
  <course>133.83</course>
  <speed>1.48</speed>
  <fix>3d</fix>
</trkpt>
<trkpt lat="40.0716639" lon="-105.2292376">
  <ele>1583.09</ele>
  <time>2026-08-27T17:17:25Z</time>
  <course>134.74</course>
  <speed>1.4778700890132392</speed>
  <fix>3d</fix>
</trkpt>
<trkpt lat="40.0716657" lon="-105.2292397">
  <ele>1583.0</ele>
  <time>2026-08-27T17:17:25Z</time>
  <course>133.74</course>
  <speed>1.49</speed>
  <fix>3d</fix>
</trkpt>
<trkpt lat="40.0716629" lon="-105.2292363">
  <ele>1583.08</ele>
  <time>2026-08-27T17:17:25Z</time>
  <course>134.72</course>
  <speed>1.4778700890132392</speed>
  <fix>3d</fix>
</trkpt>
<trkpt lat="40.0716657" lon="-105.2292397">
  <ele>1583.0</ele>
  <time>2026-08-27T17:17:25Z</time>
  <course>133.74</course>
  <speed>1.49</speed>
  <fix>3d</fix>
</trkpt>
<trkpt lat="40.071662" lon="-105.2292351">
  <ele>1583.08</ele>
  <time>2026-08-27T17:17:25Z</time>
  <course>134.7</course>
  <speed>1.4849915824677256</speed>
  <fix>3d</fix>
</trkpt>
<trkpt lat="40.0716638" lon="-105.2292372">
  <ele>1583.0</ele>
  <time>2026-08-27T17:17:25Z</time>
  <course>133.67</course>
  <speed>1.49</speed>
  <fix>3d</fix>
</trkpt>
<trkpt lat="40.0716611" lon="-105.2292338">
  <ele>1583.08</ele>
  <time>2026-08-27T17:17:25Z</time>
  <course>134.68</course>
  <speed>1.4849915824677256</speed>
  <fix>3d</fix>
</trkpt>
<trkpt lat="40.0716638" lon="-105.2292372">
  <ele>1583.0</ele>
  <time>2026-08-27T17:17:25Z</time>
  <course>133.67</course>
  <speed>1.49</speed>
  <fix>3d</fix>
</trkpt>
<trkpt lat="40.0716601" lon="-105.2292325">
  <ele>1583.08</ele>
  <time>2026-08-27T17:17:25Z</time>
  <course>134.66</course>
  <speed>1.4849915824677256</speed>
  <fix>3d</fix>
</trkpt>
<trkpt lat="40.071662" lon="-105.2292346">
  <ele>1583.0</ele>
  <time>2026-08-27T17:17:25Z</time>
  <course>133.63</course>
  <speed>1.49</speed>
  <fix>3d</fix>
</trkpt>
<trkpt lat="40.0716592" lon="-105.2292312">
  <ele>1583.08</ele>
  <time>2026-08-27T17:17:25Z</time>
  <course>134.65</course>
  <speed>1.4849915824677256</speed>
  <fix>3d</fix>
</trkpt>
<trkpt lat="40.071662" lon="-105.2292346">
  <ele>1583.0</ele>
  <time>2026-08-27T17:17:25Z</time>
  <course>133.63</course>
  <speed>1.49</speed>
  <fix>3d</fix>
</trkpt>
<trkpt lat="40.0716583" lon="-105.2292299">
  <ele>1583.08</ele>
  <time>2026-08-27T17:17:25Z</time>
  <course>134.64</course>
  <speed>1.4921461054467824</speed>
  <fix>3d</fix>
</trkpt>
<trkpt lat="40.0716601" lon="-105.229232">
  <ele>1583.0</ele>
  <time>2026-08-27T17:17:25Z</time>
  <course>133.6</course>
  <speed>1.5</speed>
  <fix>3d</fix>
</trkpt>
<trkpt lat="40.0716571" lon="-105.2292283">
  <ele>1583.08</ele>
  <time>2026-08-27T17:17:25Z</time>
  <course>134.64</course>
  <speed>1.4921461054467824</speed>
  <fix>3d</fix>
</trkpt>
<trkpt lat="40.0716601" lon="-105.229232">
  <ele>1583.0</ele>
  <time>2026-08-27T17:17:25Z</time>
  <course>133.6</course>
  <speed>1.5</speed>
  <fix>3d</fix>
</trkpt>
<trkpt lat="40.0716562" lon="-105.229227">
  <ele>1583.07</ele>
  <time>2026-08-27T17:17:25Z</time>
  <course>134.64</course>
  <speed>1.4991330828182001</speed>
  <fix>3d</fix>
</trkpt>
<trkpt lat="40.0716582" lon="-105.2292295">
  <ele>1583.0</ele>
  <time>2026-08-27T17:17:25Z</time>
  <course>133.59</course>
  <speed>1.5</speed>
  <fix>3d</fix>
</trkpt>
<trkpt lat="40.0716553" lon="-105.2292258">
  <ele>1583.07</ele>
  <time>2026-08-27T17:17:25Z</time>
  <course>134.64</course>
  <speed>1.4991330828182001</speed>
  <fix>3d</fix>
</trkpt>
<trkpt lat="40.0716582" lon="-105.2292295">
  <ele>1583.0</ele>
  <time>2026-08-27T17:17:25Z</time>
  <course>133.59</course>
  <speed>1.5</speed>
  <fix>3d</fix>
</trkpt>
<trkpt lat="40.0716543" lon="-105.2292245">
  <ele>1583.07</ele>
  <time>2026-08-27T17:17:25Z</time>
  <course>134.64</course>
  <speed>1.4991330828182001</speed>
  <fix>3d</fix>
</trkpt>
<trkpt lat="40.0716564" lon="-105.229227">
  <ele>1583.0</ele>
  <time>2026-08-27T17:17:25Z</time>
  <course>133.59</course>
  <speed>1.5</speed>
  <fix>3d</fix>
</trkpt>
<trkpt lat="40.0716534" lon="-105.2292232">
  <ele>1583.07</ele>
  <time>2026-08-27T17:17:25Z</time>
  <course>134.64</course>
  <speed>1.4991330828182001</speed>
  <fix>3d</fix>
</trkpt>
<trkpt lat="40.0716564" lon="-105.229227">
  <ele>1583.0</ele>
  <time>2026-08-27T17:17:25Z</time>
  <course>133.59</course>
  <speed>1.5</speed>
  <fix>3d</fix>
</trkpt>
<trkpt lat="40.0716525" lon="-105.2292219">
  <ele>1583.07</ele>
  <time>2026-08-27T17:17:25Z</time>
  <course>134.64</course>
  <speed>1.4991330828182001</speed>
  <fix>3d</fix>
</trkpt>
<trkpt lat="40.0716545" lon="-105.2292243">
  <ele>1583.0</ele>
  <time>2026-08-27T17:17:25Z</time>
  <course>133.59</course>
  <speed>1.5</speed>
  <fix>3d</fix>
</trkpt>
<trkpt lat="40.0716515" lon="-105.2292206">
  <ele>1583.06</ele>
  <time>2026-08-27T17:17:25Z</time>
  <course>134.64</course>
  <speed>1.4991330828182001</speed>
  <fix>3d</fix>
</trkpt>
<trkpt lat="40.0716545" lon="-105.2292243">
  <ele>1583.0</ele>
  <time>2026-08-27T17:17:25Z</time>
  <course>133.59</course>
  <speed>1.5</speed>
  <fix>3d</fix>
</trkpt>
<trkpt lat="40.0716506" lon="-105.2292193">
  <ele>1583.06</ele>
  <time>2026-08-27T17:17:25Z</time>
  <course>134.64</course>
  <speed>1.4991330828182001</speed>
  <fix>3d</fix>
</trkpt>
<trkpt lat="40.0716527" lon="-105.2292218">
  <ele>1583.0</ele>
  <time>2026-08-27T17:17:25Z</time>
  <course>133.59</course>
  <speed>1.5</speed>
  <fix>3d</fix>
</trkpt>
<trkpt lat="40.0716497" lon="-105.229218">
  <ele>1583.06</ele>
  <time>2026-08-27T17:17:25Z</time>
  <course>134.64</course>
  <speed>1.4991330828182001</speed>
  <fix>3d</fix>
</trkpt>
<trkpt lat="40.0716527" lon="-105.2292218">
  <ele>1583.0</ele>
  <time>2026-08-27T17:17:25Z</time>
  <course>133.59</course>
  <speed>1.5</speed>
  <fix>3d</fix>
</trkpt>
<trkpt lat="40.0716487" lon="-105.2292168">
  <ele>1583.06</ele>
  <time>2026-08-27T17:17:25Z</time>
  <course>134.64</course>
  <speed>1.4991330828182001</speed>
  <fix>3d</fix>
</trkpt>
<trkpt lat="40.0716508" lon="-105.2292192">
  <ele>1583.0</ele>
  <time>2026-08-27T17:17:25Z</time>
  <course>133.59</course>
  <speed>1.51</speed>
  <fix>3d</fix>
</trkpt>
<trkpt lat="40.0716478" lon="-105.2292155">
  <ele>1583.06</ele>
  <time>2026-08-27T17:17:25Z</time>
  <course>134.64</course>
  <speed>1.4991330828182001</speed>
  <fix>3d</fix>
</trkpt>
<trkpt lat="40.0716508" lon="-105.2292192">
  <ele>1583.0</ele>
  <time>2026-08-27T17:17:25Z</time>
  <course>133.59</course>
  <speed>1.51</speed>
  <fix>3d</fix>
</trkpt>
<trkpt lat="40.0716471" lon="-105.2292145">
  <ele>1583.06</ele>
  <time>2026-08-27T17:17:25Z</time>
  <course>134.64</course>
  <speed>1.4991330828182001</speed>
  <fix>3d</fix>
</trkpt>
<trkpt lat="40.0716489" lon="-105.2292167">
  <ele>1583.0</ele>
  <time>2026-08-27T17:17:25Z</time>
  <course>133.59</course>
  <speed>1.51</speed>
  <fix>3d</fix>
</trkpt>
<trkpt lat="40.0716462" lon="-105.2292132">
  <ele>1583.06</ele>
  <time>2026-08-27T17:17:25Z</time>
  <course>134.64</course>
  <speed>1.4991330828182001</speed>
  <fix>3d</fix>
</trkpt>
<trkpt lat="40.0716489" lon="-105.2292167">
  <ele>1583.0</ele>
  <time>2026-08-27T17:17:25Z</time>
  <course>133.59</course>
  <speed>1.51</speed>
  <fix>3d</fix>
</trkpt>
<trkpt lat="40.0716452" lon="-105.2292119">
  <ele>1583.06</ele>
  <time>2026-08-27T17:17:25Z</time>
  <course>135.37</course>
  <speed>1.4990663761154805</speed>
  <fix>3d</fix>
</trkpt>
<trkpt lat="40.071647" lon="-105.2292141">
  <ele>1583.0</ele>
  <time>2026-08-27T17:17:25Z</time>
  <course>133.66</course>
  <speed>1.51</speed>
  <fix>3d</fix>
</trkpt>
<trkpt lat="40.0716443" lon="-105.2292107">
  <ele>1583.06</ele>
  <time>2026-08-27T17:17:25Z</time>
  <course>137.24</course>
  <speed>1.4928161306738348</speed>
  <fix>3d</fix>
</trkpt>
<trkpt lat="40.071647" lon="-105.2292141">
  <ele>1583.0</ele>
  <time>2026-08-27T17:17:25Z</time>
  <course>133.66</course>
  <speed>1.51</speed>
  <fix>3d</fix>
</trkpt>
<trkpt lat="40.0716433" lon="-105.2292095">
  <ele>1583.06</ele>
  <time>2026-08-27T17:17:25Z</time>
  <course>140.22</course>
  <speed>1.4903690818049065</speed>
  <fix>3d</fix>
</trkpt>
<trkpt lat="40.0716452" lon="-105.2292116">
  <ele>1583.0</ele>
  <time>2026-08-27T17:17:25Z</time>
  <course>135.51</course>
  <speed>1.51</speed>
  <fix>3d</fix>
</trkpt>
<trkpt lat="40.0716422" lon="-105.2292084">
  <ele>1583.06</ele>
  <time>2026-08-27T17:17:25Z</time>
  <course>144.29</course>
  <speed>1.482194319244275</speed>
  <fix>3d</fix>
</trkpt>
<trkpt lat="40.0716452" lon="-105.2292116">
  <ele>1583.0</ele>
  <time>2026-08-27T17:17:25Z</time>
  <course>135.51</course>
  <speed>1.51</speed>
  <fix>3d</fix>
</trkpt>
<trkpt lat="40.0716411" lon="-105.2292074">
  <ele>1583.07</ele>
  <time>2026-08-27T17:17:25Z</time>
  <course>149.45</course>
  <speed>1.4663219291819924</speed>
  <fix>3d</fix>
</trkpt>
<trkpt lat="40.0716431" lon="-105.2292092">
  <ele>1583.0</ele>
  <time>2026-08-27T17:17:25Z</time>
  <course>141.24</course>
  <speed>1.49</speed>
  <fix>3d</fix>
</trkpt>
<trkpt lat="40.0716399" lon="-105.2292066">
  <ele>1583.07</ele>
  <time>2026-08-27T17:17:25Z</time>
  <course>155.02</course>
  <speed>1.4450605523645021</speed>
  <fix>3d</fix>
</trkpt>
<trkpt lat="40.0716431" lon="-105.2292092">
  <ele>1583.0</ele>
  <time>2026-08-27T17:17:25Z</time>
  <course>141.24</course>
  <speed>1.49</speed>
  <fix>3d</fix>
</trkpt>
<trkpt lat="40.0716387" lon="-105.2292059">
  <ele>1583.07</ele>
  <time>2026-08-27T17:17:25Z</time>
  <course>160.51</course>
  <speed>1.3978555004005242</speed>
  <fix>3d</fix>
</trkpt>
<trkpt lat="40.0716409" lon="-105.2292072">
  <ele>1583.0</ele>
  <time>2026-08-27T17:17:25Z</time>
  <course>150.62</course>
  <speed>1.46</speed>
  <fix>3d</fix>
</trkpt>
<trkpt lat="40.0716375" lon="-105.2292055">
  <ele>1583.07</ele>
  <time>2026-08-27T17:17:25Z</time>
  <course>166.0</course>
  <speed>1.3582341477079718</speed>
  <fix>3d</fix>
</trkpt>
<trkpt lat="40.0716409" lon="-105.2292072">
  <ele>1583.0</ele>
  <time>2026-08-27T17:17:25Z</time>
  <course>150.62</course>
  <speed>1.46</speed>
  <fix>3d</fix>
</trkpt>
<trkpt lat="40.0716361" lon="-105.2292051">
  <ele>1583.07</ele>
  <time>2026-08-27T17:17:25Z</time>
  <course>172.6</course>
  <speed>1.2887590930814028</speed>
  <fix>3d</fix>
</trkpt>
<trkpt lat="40.0716386" lon="-105.2292059">
  <ele>1583.0</ele>
  <time>2026-08-27T17:17:25Z</time>
  <course>161.5</course>
  <speed>1.39</speed>
  <fix>3d</fix>
</trkpt>
<trkpt lat="40.071635" lon="-105.229205">
  <ele>1583.07</ele>
  <time>2026-08-27T17:17:25Z</time>
  <course>178.09</course>
  <speed>1.2303657992645927</speed>
  <fix>3d</fix>
</trkpt>
<trkpt lat="40.0716386" lon="-105.2292059">
  <ele>1583.0</ele>
  <time>2026-08-27T17:17:25Z</time>
  <course>161.5</course>
  <speed>1.39</speed>
  <fix>3d</fix>
</trkpt>
<trkpt lat="40.0716339" lon="-105.2292051">
  <ele>1583.07</ele>
  <time>2026-08-27T17:17:25Z</time>
  <course>183.59</course>
  <speed>1.172731853408954</speed>
  <fix>3d</fix>
</trkpt>
<trkpt lat="40.0716362" lon="-105.2292052">
  <ele>1583.0</ele>
  <time>2026-08-27T17:17:25Z</time>
  <course>172.43</course>
  <speed>1.29</speed>
  <fix>3d</fix>
</trkpt>
<trkpt lat="40.0716328" lon="-105.2292052">
  <ele>1583.07</ele>
  <time>2026-08-27T17:17:25Z</time>
  <course>189.08</course>
  <speed>1.1261438629233833</speed>
  <fix>3d</fix>
</trkpt>
<trkpt lat="40.0716362" lon="-105.2292052">
  <ele>1583.0</ele>
  <time>2026-08-27T17:17:25Z</time>
  <course>172.43</course>
  <speed>1.29</speed>
  <fix>3d</fix>
</trkpt>
<trkpt lat="40.0716319" lon="-105.2292055">
  <ele>1583.06</ele>
  <time>2026-08-27T17:17:25Z</time>
  <course>194.56</course>
  <speed>1.0893117092916977</speed>
  <fix>3d</fix>
</trkpt>
<trkpt lat="40.071634" lon="-105.2292051">
  <ele>1583.0</ele>
  <time>2026-08-27T17:17:25Z</time>
  <course>183.41</course>
  <speed>1.18</speed>
  <fix>3d</fix>
</trkpt>
<trkpt lat="40.0716309" lon="-105.2292059">
  <ele>1583.06</ele>
  <time>2026-08-27T17:17:25Z</time>
  <course>199.64</course>
  <speed>1.056882207249228</speed>
  <fix>3d</fix>
</trkpt>
<trkpt lat="40.071634" lon="-105.2292051">
  <ele>1583.0</ele>
  <time>2026-08-27T17:17:25Z</time>
  <course>183.41</course>
  <speed>1.18</speed>
  <fix>3d</fix>
</trkpt>
<trkpt lat="40.0716301" lon="-105.2292063">
  <ele>1583.06</ele>
  <time>2026-08-27T17:17:25Z</time>
  <course>203.86</course>
  <speed>1.0469479452198185</speed>
  <fix>3d</fix>
</trkpt>
<trkpt lat="40.071632" lon="-105.2292054">
  <ele>1583.0</ele>
  <time>2026-08-27T17:17:25Z</time>
  <course>194.2</course>
  <speed>1.09</speed>
  <fix>3d</fix>
</trkpt>
<trkpt lat="40.0716292" lon="-105.2292069">
  <ele>1583.06</ele>
  <time>2026-08-27T17:17:25Z</time>
  <course>207.4</course>
  <speed>1.0335376142163382</speed>
  <fix>3d</fix>
</trkpt>
<trkpt lat="40.071632" lon="-105.2292054">
  <ele>1583.0</ele>
  <time>2026-08-27T17:17:25Z</time>
  <course>194.2</course>
  <speed>1.09</speed>
  <fix>3d</fix>
</trkpt>
<trkpt lat="40.0716284" lon="-105.2292075">
  <ele>1583.06</ele>
  <time>2026-08-27T17:17:25Z</time>
  <course>210.37</course>
  <speed>1.0410091258005378</speed>
  <fix>3d</fix>
</trkpt>
<trkpt lat="40.0716302" lon="-105.2292061">
  <ele>1583.0</ele>
  <time>2026-08-27T17:17:25Z</time>
  <course>203.27</course>
  <speed>1.05</speed>
  <fix>3d</fix>
</trkpt>
<trkpt lat="40.0716277" lon="-105.2292081">
  <ele>1583.06</ele>
  <time>2026-08-27T17:17:25Z</time>
  <course>212.85</course>
  <speed>1.045609869884557</speed>
  <fix>3d</fix>
</trkpt>
<trkpt lat="40.0716302" lon="-105.2292061">
  <ele>1583.0</ele>
  <time>2026-08-27T17:17:25Z</time>
  <course>203.27</course>
  <speed>1.05</speed>
  <fix>3d</fix>
</trkpt>
<trkpt lat="40.0716269" lon="-105.2292088">
  <ele>1583.06</ele>
  <time>2026-08-27T17:17:25Z</time>
  <course>214.92</course>
  <speed>1.0520931517693668</speed>
  <fix>3d</fix>
</trkpt>
<trkpt lat="40.0716285" lon="-105.2292073">
  <ele>1583.0</ele>
  <time>2026-08-27T17:17:25Z</time>
  <course>209.68</course>
  <speed>1.05</speed>
  <fix>3d</fix>
</trkpt>
<trkpt lat="40.0716263" lon="-105.2292094">
  <ele>1583.06</ele>
  <time>2026-08-27T17:17:25Z</time>
  <course>216.73</course>
  <speed>1.0621205204683695</speed>
  <fix>3d</fix>
</trkpt>
<trkpt lat="40.0716285" lon="-105.2292073">
  <ele>1583.0</ele>
  <time>2026-08-27T17:17:25Z</time>
  <course>209.68</course>
  <speed>1.05</speed>
  <fix>3d</fix>
</trkpt>
<trkpt lat="40.0716255" lon="-105.2292102">
  <ele>1583.06</ele>
  <time>2026-08-27T17:17:25Z</time>
  <course>219.35</course>
  <speed>1.064048871058092</speed>
  <fix>3d</fix>
</trkpt>
<trkpt lat="40.0716269" lon="-105.2292087">
  <ele>1583.0</ele>
  <time>2026-08-27T17:17:25Z</time>
  <course>214.58</course>
  <speed>1.06</speed>
  <fix>3d</fix>
</trkpt>
<trkpt lat="40.0716248" lon="-105.229211">
  <ele>1583.07</ele>
  <time>2026-08-27T17:17:25Z</time>
  <course>221.54</course>
  <speed>1.0756393447619885</speed>
  <fix>3d</fix>
</trkpt>
<trkpt lat="40.0716269" lon="-105.2292087">
  <ele>1583.0</ele>
  <time>2026-08-27T17:17:25Z</time>
  <course>214.58</course>
  <speed>1.06</speed>
  <fix>3d</fix>
</trkpt>
<trkpt lat="40.0716241" lon="-105.2292119">
  <ele>1583.07</ele>
  <time>2026-08-27T17:17:25Z</time>
  <course>223.46</course>
  <speed>1.0960383204979651</speed>
  <fix>3d</fix>
</trkpt>
<trkpt lat="40.0716253" lon="-105.2292102">
  <ele>1583.0</ele>
  <time>2026-08-27T17:17:25Z</time>
  <course>219.1</course>
  <speed>1.08</speed>
  <fix>3d</fix>
</trkpt>
<trkpt lat="40.0716234" lon="-105.2292128">
  <ele>1583.07</ele>
  <time>2026-08-27T17:17:25Z</time>
  <course>225.16</course>
  <speed>1.1103603018840327</speed>
  <fix>3d</fix>
</trkpt>
<trkpt lat="40.0716253" lon="-105.2292102">
  <ele>1583.0</ele>
  <time>2026-08-27T17:17:25Z</time>
  <course>219.1</course>
  <speed>1.08</speed>
  <fix>3d</fix>
</trkpt>
<trkpt lat="40.0716226" lon="-105.2292137">
  <ele>1583.08</ele>
  <time>2026-08-27T17:17:25Z</time>
  <course>226.65</course>
  <speed>1.1395174417269793</speed>
  <fix>3d</fix>
</trkpt>
<trkpt lat="40.0716239" lon="-105.2292119">
  <ele>1583.0</ele>
  <time>2026-08-27T17:17:25Z</time>
  <course>223.09</course>
  <speed>1.1</speed>
  <fix>3d</fix>
</trkpt>
<trkpt lat="40.0716219" lon="-105.2292147">
  <ele>1583.08</ele>
  <time>2026-08-27T17:17:25Z</time>
  <course>227.97</course>
  <speed>1.1693160394008115</speed>
  <fix>3d</fix>
</trkpt>
<trkpt lat="40.0716239" lon="-105.2292119">
  <ele>1583.0</ele>
  <time>2026-08-27T17:17:25Z</time>
  <course>223.09</course>
  <speed>1.1</speed>
  <fix>3d</fix>
</trkpt>
<trkpt lat="40.0716212" lon="-105.2292158">
  <ele>1583.08</ele>
  <time>2026-08-27T17:17:25Z</time>
  <course>229.13</course>
  <speed>1.192057045614848</speed>
  <fix>3d</fix>
</trkpt>
<trkpt lat="40.0716224" lon="-105.2292137">
  <ele>1583.0</ele>
  <time>2026-08-27T17:17:25Z</time>
  <course>226.16</course>
  <speed>1.15</speed>
  <fix>3d</fix>
</trkpt>
<trkpt lat="40.0716205" lon="-105.2292169">
  <ele>1583.08</ele>
  <time>2026-08-27T17:17:25Z</time>
  <course>230.14</course>
  <speed>1.229186723000212</speed>
  <fix>3d</fix>
</trkpt>
<trkpt lat="40.0716224" lon="-105.2292137">
  <ele>1583.0</ele>
  <time>2026-08-27T17:17:25Z</time>
  <course>226.16</course>
  <speed>1.15</speed>
  <fix>3d</fix>
</trkpt>
<trkpt lat="40.0716198" lon="-105.229218">
  <ele>1583.09</ele>
  <time>2026-08-27T17:17:25Z</time>
  <course>231.03</course>
  <speed>1.2603570922560003</speed>
  <fix>3d</fix>
</trkpt>
<trkpt lat="40.071621" lon="-105.2292157">
  <ele>1583.0</ele>
  <time>2026-08-27T17:17:25Z</time>
  <course>228.52</course>
  <speed>1.2</speed>
  <fix>3d</fix>
</trkpt>
<trkpt lat="40.0716189" lon="-105.2292194">
  <ele>1583.08</ele>
  <time>2026-08-27T17:17:25Z</time>
  <course>231.96</course>
  <speed>1.298075498574717</speed>
  <fix>3d</fix>
</trkpt>
<trkpt lat="40.071621" lon="-105.2292157">
  <ele>1583.0</ele>
  <time>2026-08-27T17:17:25Z</time>
  <course>228.52</course>
  <speed>1.2</speed>
  <fix>3d</fix>
</trkpt>
<trkpt lat="40.0716181" lon="-105.2292206">
  <ele>1583.08</ele>
  <time>2026-08-27T17:17:25Z</time>
  <course>232.62</course>
  <speed>1.3280060240827223</speed>
  <fix>3d</fix>
</trkpt>
<trkpt lat="40.0716196" lon="-105.2292179">
  <ele>1583.0</ele>
  <time>2026-08-27T17:17:25Z</time>
  <course>230.34</course>
  <speed>1.26</speed>
  <fix>3d</fix>
</trkpt>
<trkpt lat="40.0716174" lon="-105.2292219">
  <ele>1583.08</ele>
  <time>2026-08-27T17:17:25Z</time>
  <course>233.2</course>
  <speed>1.3660527076214886</speed>
  <fix>3d</fix>
</trkpt>
<trkpt lat="40.0716196" lon="-105.2292179">
  <ele>1583.0</ele>
  <time>2026-08-27T17:17:25Z</time>
  <course>230.34</course>
  <speed>1.26</speed>
  <fix>3d</fix>
</trkpt>
<trkpt lat="40.0716167" lon="-105.2292232">
  <ele>1583.08</ele>
  <time>2026-08-27T17:17:25Z</time>
  <course>233.7</course>
  <speed>1.3961733416735902</speed>
  <fix>3d</fix>
</trkpt>
<trkpt lat="40.0716181" lon="-105.2292203">
  <ele>1583.0</ele>
  <time>2026-08-27T17:17:25Z</time>
  <course>231.73</course>
  <speed>1.33</speed>
  <fix>3d</fix>
</trkpt>
<trkpt lat="40.0716159" lon="-105.2292245">
  <ele>1583.08</ele>
  <time>2026-08-27T17:17:25Z</time>
  <course>234.13</course>
  <speed>1.4263590010933433</speed>
  <fix>3d</fix>
</trkpt>
<trkpt lat="40.0716181" lon="-105.2292203">
  <ele>1583.0</ele>
  <time>2026-08-27T17:17:25Z</time>
  <course>231.73</course>
  <speed>1.33</speed>
  <fix>3d</fix>
</trkpt>
<trkpt lat="40.0716151" lon="-105.2292259">
  <ele>1583.08</ele>
  <time>2026-08-27T17:17:25Z</time>
  <course>234.5</course>
  <speed>1.4484474446799924</speed>
  <fix>3d</fix>
</trkpt>
<trkpt lat="40.0716166" lon="-105.2292229">
  <ele>1583.0</ele>
  <time>2026-08-27T17:17:25Z</time>
  <course>232.79</course>
  <speed>1.39</speed>
  <fix>3d</fix>
</trkpt>
<trkpt lat="40.0716143" lon="-105.2292273">
  <ele>1583.08</ele>
  <time>2026-08-27T17:17:25Z</time>
  <course>234.81</course>
  <speed>1.4787156589419075</speed>
  <fix>3d</fix>
</trkpt>
<trkpt lat="40.0716166" lon="-105.2292229">
  <ele>1583.0</ele>
  <time>2026-08-27T17:17:25Z</time>
  <course>232.79</course>
  <speed>1.39</speed>
  <fix>3d</fix>
</trkpt>
<trkpt lat="40.0716136" lon="-105.2292287">
  <ele>1583.08</ele>
  <time>2026-08-27T17:17:25Z</time>
  <course>235.08</course>
  <speed>1.5008331019803633</speed>
  <fix>3d</fix>
</trkpt>
<trkpt lat="40.0716151" lon="-105.2292255">
  <ele>1583.0</ele>
  <time>2026-08-27T17:17:25Z</time>
  <course>233.57</course>
  <speed>1.44</speed>
  <fix>3d</fix>
</trkpt>
<trkpt lat="40.0716128" lon="-105.2292301">
  <ele>1583.08</ele>
  <time>2026-08-27T17:17:25Z</time>
  <course>235.3</course>
  <speed>1.522957648787385</speed>
  <fix>3d</fix>
</trkpt>
<trkpt lat="40.0716151" lon="-105.2292255">
  <ele>1583.0</ele>
  <time>2026-08-27T17:17:25Z</time>
  <course>233.57</course>
  <speed>1.44</speed>
  <fix>3d</fix>
</trkpt>
<trkpt lat="40.071612" lon="-105.2292315">
  <ele>1583.08</ele>
  <time>2026-08-27T17:17:25Z</time>
  <course>235.48</course>
  <speed>1.5450889942006578</speed>
  <fix>3d</fix>
</trkpt>
<trkpt lat="40.0716135" lon="-105.2292283">
  <ele>1583.0</ele>
  <time>2026-08-27T17:17:25Z</time>
  <course>234.13</course>
  <speed>1.49</speed>
  <fix>3d</fix>
</trkpt>
<trkpt lat="40.0716112" lon="-105.229233">
  <ele>1583.08</ele>
  <time>2026-08-27T17:17:25Z</time>
  <course>235.62</course>
  <speed>1.5672268502038882</speed>
  <fix>3d</fix>
</trkpt>
<trkpt lat="40.0716135" lon="-105.2292283">
  <ele>1583.0</ele>
  <time>2026-08-27T17:17:25Z</time>
  <course>234.13</course>
  <speed>1.49</speed>
  <fix>3d</fix>
</trkpt>
<trkpt lat="40.0716105" lon="-105.2292342">
  <ele>1583.09</ele>
  <time>2026-08-27T17:17:25Z</time>
  <course>235.71</course>
  <speed>1.5811388300841898</speed>
  <fix>3d</fix>
</trkpt>
<trkpt lat="40.0716118" lon="-105.2292312">
  <ele>1583.0</ele>
  <time>2026-08-27T17:17:25Z</time>
  <course>234.52</course>
  <speed>1.54</speed>
  <fix>3d</fix>
</trkpt>
<trkpt lat="40.0716097" lon="-105.2292357">
  <ele>1583.09</ele>
  <time>2026-08-27T17:17:25Z</time>
  <course>235.79</course>
  <speed>1.603277892319357</speed>
  <fix>3d</fix>
</trkpt>
<trkpt lat="40.0716118" lon="-105.2292312">
  <ele>1583.0</ele>
  <time>2026-08-27T17:17:25Z</time>
  <course>234.52</course>
  <speed>1.54</speed>
  <fix>3d</fix>
</trkpt>
<trkpt lat="40.0716088" lon="-105.2292373">
  <ele>1583.08</ele>
  <time>2026-08-27T17:17:25Z</time>
  <course>235.84</course>
  <speed>1.6171889190815032</speed>
  <fix>3d</fix>
</trkpt>
<trkpt lat="40.0716103" lon="-105.2292342">
  <ele>1583.0</ele>
  <time>2026-08-27T17:17:25Z</time>
  <course>234.75</course>
  <speed>1.58</speed>
  <fix>3d</fix>
</trkpt>
<trkpt lat="40.071608" lon="-105.2292388">
  <ele>1583.08</ele>
  <time>2026-08-27T17:17:25Z</time>
  <course>235.87</course>
  <speed>1.63932913107771</speed>
  <fix>3d</fix>
</trkpt>
<trkpt lat="40.0716103" lon="-105.2292342">
  <ele>1583.0</ele>
  <time>2026-08-27T17:17:25Z</time>
  <course>234.75</course>
  <speed>1.58</speed>
  <fix>3d</fix>
</trkpt>
<trkpt lat="40.0716071" lon="-105.2292404">
  <ele>1583.08</ele>
  <time>2026-08-27T17:17:25Z</time>
  <course>235.88</course>
  <speed>1.647573974060042</speed>
  <fix>3d</fix>
</trkpt>
<trkpt lat="40.0716086" lon="-105.2292373">
  <ele>1583.0</ele>
  <time>2026-08-27T17:17:25Z</time>
  <course>234.87</course>
  <speed>1.61</speed>
  <fix>3d</fix>
</trkpt>
<trkpt lat="40.0716063" lon="-105.229242">
  <ele>1583.08</ele>
  <time>2026-08-27T17:17:25Z</time>
  <course>235.88</course>
  <speed>1.6614752480852673</speed>
  <fix>3d</fix>
</trkpt>
<trkpt lat="40.0716086" lon="-105.2292373">
  <ele>1583.0</ele>
  <time>2026-08-27T17:17:25Z</time>
  <course>234.87</course>
  <speed>1.61</speed>
  <fix>3d</fix>
</trkpt>
<trkpt lat="40.0716054" lon="-105.2292436">
  <ele>1583.08</ele>
  <time>2026-08-27T17:17:25Z</time>
  <course>235.86</course>
  <speed>1.6753805537847213</speed>
  <fix>3d</fix>
</trkpt>
<trkpt lat="40.0716069" lon="-105.2292405">
  <ele>1583.0</ele>
  <time>2026-08-27T17:17:25Z</time>
  <course>234.91</course>
  <speed>1.64</speed>
  <fix>3d</fix>
</trkpt>
<trkpt lat="40.0716045" lon="-105.2292452">
  <ele>1583.08</ele>
  <time>2026-08-27T17:17:25Z</time>
  <course>235.82</course>
  <speed>1.681071087134628</speed>
  <fix>3d</fix>
</trkpt>
<trkpt lat="40.0716069" lon="-105.2292405">
  <ele>1583.0</ele>
  <time>2026-08-27T17:17:25Z</time>
  <course>234.91</course>
  <speed>1.64</speed>
  <fix>3d</fix>
</trkpt>
<trkpt lat="40.0716036" lon="-105.2292469">
  <ele>1583.08</ele>
  <time>2026-08-27T17:17:25Z</time>
  <course>235.77</course>
  <speed>1.6949926253526886</speed>
  <fix>3d</fix>
</trkpt>
<trkpt lat="40.0716052" lon="-105.2292437">
  <ele>1583.0</ele>
  <time>2026-08-27T17:17:25Z</time>
  <course>234.87</course>
  <speed>1.67</speed>
  <fix>3d</fix>
</trkpt>
<trkpt lat="40.0716028" lon="-105.2292485">
  <ele>1583.08</ele>
  <time>2026-08-27T17:17:25Z</time>
  <course>235.7</course>
  <speed>1.703202865192517</speed>
  <fix>3d</fix>
</trkpt>
<trkpt lat="40.0716052" lon="-105.2292437">
  <ele>1583.0</ele>
  <time>2026-08-27T17:17:25Z</time>
  <course>234.87</course>
  <speed>1.67</speed>
  <fix>3d</fix>
</trkpt>
<trkpt lat="40.0716017" lon="-105.2292505">
  <ele>1583.08</ele>
  <time>2026-08-27T17:17:25Z</time>
  <course>235.59</course>
  <speed>1.7089177862027185</speed>
  <fix>3d</fix>
</trkpt>
<trkpt lat="40.0716034" lon="-105.2292468">
  <ele>1583.0</ele>
  <time>2026-08-27T17:17:25Z</time>
  <course>234.77</course>
  <speed>1.68</speed>
  <fix>3d</fix>
</trkpt>
<trkpt lat="40.0716008" lon="-105.2292521">
  <ele>1583.08</ele>
  <time>2026-08-27T17:17:25Z</time>
  <course>235.5</course>
  <speed>1.7146719802924406</speed>
  <fix>3d</fix>
</trkpt>
<trkpt lat="40.0716034" lon="-105.2292468">
  <ele>1583.0</ele>
  <time>2026-08-27T17:17:25Z</time>
  <course>234.77</course>
  <speed>1.68</speed>
  <fix>3d</fix>
</trkpt>
<trkpt lat="40.0715999" lon="-105.2292538">
  <ele>1583.08</ele>
  <time>2026-08-27T17:17:25Z</time>
  <course>235.39</course>
  <speed>1.7286121600868136</speed>
  <fix>3d</fix>
</trkpt>
<trkpt lat="40.0716017" lon="-105.2292501">
  <ele>1583.0</ele>
  <time>2026-08-27T17:17:25Z</time>
  <course>234.61</course>
  <speed>1.7</speed>
  <fix>3d</fix>
</trkpt>
<trkpt lat="40.071599" lon="-105.2292554">
  <ele>1583.09</ele>
  <time>2026-08-27T17:17:25Z</time>
  <course>235.27</course>
  <speed>1.7286121600868136</speed>
  <fix>3d</fix>
</trkpt>
<trkpt lat="40.0716017" lon="-105.2292501">
  <ele>1583.0</ele>
  <time>2026-08-27T17:17:25Z</time>
  <course>234.61</course>
  <speed>1.7</speed>
  <fix>3d</fix>
</trkpt>
<trkpt lat="40.071598" lon="-105.229257">
  <ele>1583.09</ele>
  <time>2026-08-27T17:17:25Z</time>
  <course>235.15</course>
  <speed>1.7344163283364233</speed>
  <fix>3d</fix>
</trkpt>
<trkpt lat="40.0716" lon="-105.2292534">
  <ele>1583.0</ele>
  <time>2026-08-27T17:17:25Z</time>
  <course>234.41</course>
  <speed>1.71</speed>
  <fix>3d</fix>
</trkpt>
<trkpt lat="40.0715971" lon="-105.2292587">
  <ele>1583.1</ele>
  <time>2026-08-27T17:17:25Z</time>
  <course>235.01</course>
  <speed>1.7344163283364233</speed>
  <fix>3d</fix>
</trkpt>
<trkpt lat="40.0716" lon="-105.2292534">
  <ele>1583.0</ele>
  <time>2026-08-27T17:17:25Z</time>
  <course>234.41</course>
  <speed>1.71</speed>
  <fix>3d</fix>
</trkpt>
<trkpt lat="40.0715962" lon="-105.2292603">
  <ele>1583.1</ele>
  <time>2026-08-27T17:17:25Z</time>
  <course>234.87</course>
  <speed>1.740258601472781</speed>
  <fix>3d</fix>
</trkpt>
<trkpt lat="40.0715981" lon="-105.2292566">
  <ele>1583.0</ele>
  <time>2026-08-27T17:17:25Z</time>
  <course>234.16</course>
  <speed>1.72</speed>
  <fix>3d</fix>
</trkpt>
<trkpt lat="40.0715953" lon="-105.2292619">
  <ele>1583.1</ele>
  <time>2026-08-27T17:17:25Z</time>
  <course>234.73</course>
  <speed>1.73216627377397</speed>
  <fix>3d</fix>
</trkpt>
<trkpt lat="40.0715981" lon="-105.2292566">
  <ele>1583.0</ele>
  <time>2026-08-27T17:17:25Z</time>
  <course>234.16</course>
  <speed>1.72</speed>
  <fix>3d</fix>
</trkpt>
<trkpt lat="40.0715944" lon="-105.2292635">
  <ele>1583.09</ele>
  <time>2026-08-27T17:17:25Z</time>
  <course>234.58</course>
  <speed>1.73216627377397</speed>
  <fix>3d</fix>
</trkpt>
<trkpt lat="40.0715962" lon="-105.2292599">
  <ele>1583.0</ele>
  <time>2026-08-27T17:17:25Z</time>
  <course>233.89</course>
  <speed>1.73</speed>
  <fix>3d</fix>
</trkpt>
<trkpt lat="40.0715935" lon="-105.2292651">
  <ele>1583.09</ele>
  <time>2026-08-27T17:17:25Z</time>
  <course>234.42</course>
  <speed>1.7380736463107656</speed>
  <fix>3d</fix>
</trkpt>
<trkpt lat="40.0715962" lon="-105.2292599">
  <ele>1583.0</ele>
  <time>2026-08-27T17:17:25Z</time>
  <course>233.89</course>
  <speed>1.73</speed>
  <fix>3d</fix>
</trkpt>
<trkpt lat="40.0715926" lon="-105.2292667">
  <ele>1583.09</ele>
  <time>2026-08-27T17:17:25Z</time>
  <course>234.26</course>
  <speed>1.7300289014926888</speed>
  <fix>3d</fix>
</trkpt>
<trkpt lat="40.0715945" lon="-105.2292632">
  <ele>1583.0</ele>
  <time>2026-08-27T17:17:25Z</time>
  <course>233.59</course>
  <speed>1.73</speed>
  <fix>3d</fix>
</trkpt>
<trkpt lat="40.0715918" lon="-105.229268">
  <ele>1583.08</ele>
  <time>2026-08-27T17:17:25Z</time>
  <course>234.12</course>
  <speed>1.7360011520733505</speed>
  <fix>3d</fix>
</trkpt>
<trkpt lat="40.0715945" lon="-105.2292632">
  <ele>1583.0</ele>
  <time>2026-08-27T17:17:25Z</time>
  <course>233.59</course>
  <speed>1.73</speed>
  <fix>3d</fix>
</trkpt>
<trkpt lat="40.0715909" lon="-105.2292697">
  <ele>1583.08</ele>
  <time>2026-08-27T17:17:25Z</time>
  <course>233.96</course>
  <speed>1.7360011520733505</speed>
  <fix>3d</fix>
</trkpt>
<trkpt lat="40.0715926" lon="-105.2292665">
  <ele>1583.0</ele>
  <time>2026-08-27T17:17:25Z</time>
  <course>233.27</course>
  <speed>1.73</speed>
  <fix>3d</fix>
</trkpt>
<trkpt lat="40.0715899" lon="-105.2292713">
  <ele>1583.08</ele>
  <time>2026-08-27T17:17:26Z</time>
  <course>233.8</course>
  <speed>1.7280046296234277</speed>
  <fix>3d</fix>
</trkpt>
<trkpt lat="40.0715926" lon="-105.2292665">
  <ele>1583.0</ele>
  <time>2026-08-27T17:17:26Z</time>
  <course>233.27</course>
  <speed>1.73</speed>
  <fix>3d</fix>
</trkpt>
<trkpt lat="40.071589" lon="-105.2292729">
  <ele>1583.08</ele>
  <time>2026-08-27T17:17:26Z</time>
  <course>233.66</course>
  <speed>1.7280046296234277</speed>
  <fix>3d</fix>
</trkpt>
<trkpt lat="40.0715907" lon="-105.2292698">
  <ele>1583.0</ele>
  <time>2026-08-27T17:17:26Z</time>
  <course>232.95</course>
  <speed>1.73</speed>
  <fix>3d</fix>
</trkpt>
<trkpt lat="40.071588" lon="-105.2292745">
  <ele>1583.08</ele>
  <time>2026-08-27T17:17:26Z</time>
  <course>233.52</course>
  <speed>1.7340415219942111</speed>
  <fix>3d</fix>
</trkpt>
<trkpt lat="40.0715907" lon="-105.2292698">
  <ele>1583.0</ele>
  <time>2026-08-27T17:17:26Z</time>
  <course>232.95</course>
  <speed>1.73</speed>
  <fix>3d</fix>
</trkpt>
<trkpt lat="40.0715871" lon="-105.2292761">
  <ele>1583.07</ele>
  <time>2026-08-27T17:17:26Z</time>
  <course>233.38</course>
  <speed>1.7260938560808332</speed>
  <fix>3d</fix>
</trkpt>
<trkpt lat="40.0715888" lon="-105.229273">
  <ele>1583.0</ele>
  <time>2026-08-27T17:17:26Z</time>
  <course>232.66</course>
  <speed>1.73</speed>
  <fix>3d</fix>
</trkpt>
<trkpt lat="40.0715861" lon="-105.2292777">
  <ele>1583.07</ele>
  <time>2026-08-27T17:17:26Z</time>
  <course>233.26</course>
  <speed>1.7260938560808332</speed>
  <fix>3d</fix>
</trkpt>
<trkpt lat="40.0715888" lon="-105.229273">
  <ele>1583.0</ele>
  <time>2026-08-27T17:17:26Z</time>
  <course>232.66</course>
  <speed>1.73</speed>
  <fix>3d</fix>
</trkpt>
<trkpt lat="40.0715852" lon="-105.2292794">
  <ele>1583.07</ele>
  <time>2026-08-27T17:17:26Z</time>
  <course>233.14</course>
  <speed>1.7181676286090366</speed>
  <fix>3d</fix>
</trkpt>
<trkpt lat="40.0715869" lon="-105.2292763">
  <ele>1583.0</ele>
  <time>2026-08-27T17:17:26Z</time>
  <course>232.39</course>
  <speed>1.73</speed>
  <fix>3d</fix>
</trkpt>
<trkpt lat="40.0715842" lon="-105.229281">
  <ele>1583.07</ele>
  <time>2026-08-27T17:17:26Z</time>
  <course>233.02</course>
  <speed>1.7181676286090366</speed>
  <fix>3d</fix>
</trkpt>
<trkpt lat="40.0715869" lon="-105.2292763">
  <ele>1583.0</ele>
  <time>2026-08-27T17:17:26Z</time>
  <course>232.39</course>
  <speed>1.73</speed>
  <fix>3d</fix>
</trkpt>
<trkpt lat="40.071583" lon="-105.2292829">
  <ele>1583.07</ele>
  <time>2026-08-27T17:17:26Z</time>
  <course>232.88</course>
  <speed>1.7242969581832475</speed>
  <fix>3d</fix>
</trkpt>
<trkpt lat="40.071585" lon="-105.2292794">
  <ele>1583.0</ele>
  <time>2026-08-27T17:17:26Z</time>
  <course>232.14</course>
  <speed>1.73</speed>
  <fix>3d</fix>
</trkpt>
<trkpt lat="40.0715821" lon="-105.2292845">
  <ele>1583.07</ele>
  <time>2026-08-27T17:17:26Z</time>
  <course>232.78</course>
  <speed>1.7164206943520577</speed>
  <fix>3d</fix>
</trkpt>
<trkpt lat="40.071585" lon="-105.2292794">
  <ele>1583.0</ele>
  <time>2026-08-27T17:17:26Z</time>
  <course>232.14</course>
  <speed>1.73</speed>
  <fix>3d</fix>
</trkpt>
<trkpt lat="40.0715811" lon="-105.2292861">
  <ele>1583.07</ele>
  <time>2026-08-27T17:17:26Z</time>
  <course>232.68</course>
  <speed>1.7164206943520577</speed>
  <fix>3d</fix>
</trkpt>
<trkpt lat="40.0715831" lon="-105.2292827">
  <ele>1583.0</ele>
  <time>2026-08-27T17:17:26Z</time>
  <course>231.92</course>
  <speed>1.72</speed>
  <fix>3d</fix>
</trkpt>
<trkpt lat="40.0715802" lon="-105.2292877">
  <ele>1583.07</ele>
  <time>2026-08-27T17:17:26Z</time>
  <course>232.59</course>
  <speed>1.7164206943520577</speed>
  <fix>3d</fix>
</trkpt>
<trkpt lat="40.0715831" lon="-105.2292827">
  <ele>1583.0</ele>
  <time>2026-08-27T17:17:26Z</time>
  <course>231.92</course>
  <speed>1.72</speed>
  <fix>3d</fix>
</trkpt>
<trkpt lat="40.0715792" lon="-105.2292893">
  <ele>1583.07</ele>
  <time>2026-08-27T17:17:26Z</time>
  <course>232.5</course>
  <speed>1.7085666507338835</speed>
  <fix>3d</fix>
</trkpt>
<trkpt lat="40.0715812" lon="-105.2292858">
  <ele>1583.0</ele>
  <time>2026-08-27T17:17:26Z</time>
  <course>231.72</course>
  <speed>1.72</speed>
  <fix>3d</fix>
</trkpt>
<trkpt lat="40.0715782" lon="-105.2292908">
  <ele>1583.07</ele>
  <time>2026-08-27T17:17:26Z</time>
  <course>232.4</course>
  <speed>1.7085666507338835</speed>
  <fix>3d</fix>
</trkpt>
<trkpt lat="40.0715812" lon="-105.2292858">
  <ele>1583.0</ele>
  <time>2026-08-27T17:17:26Z</time>
  <course>231.72</course>
  <speed>1.72</speed>
  <fix>3d</fix>
</trkpt>
<trkpt lat="40.0715773" lon="-105.2292924">
  <ele>1583.07</ele>
  <time>2026-08-27T17:17:26Z</time>
  <course>232.31</course>
  <speed>1.7085666507338835</speed>
  <fix>3d</fix>
</trkpt>
<trkpt lat="40.0715792" lon="-105.229289">
  <ele>1583.0</ele>
  <time>2026-08-27T17:17:26Z</time>
  <course>231.53</course>
  <speed>1.72</speed>
  <fix>3d</fix>
</trkpt>
<trkpt lat="40.0715763" lon="-105.229294">
  <ele>1583.06</ele>
  <time>2026-08-27T17:17:26Z</time>
  <course>232.23</course>
  <speed>1.7007351351694948</speed>
  <fix>3d</fix>
</trkpt>
<trkpt lat="40.0715792" lon="-105.229289">
  <ele>1583.0</ele>
  <time>2026-08-27T17:17:26Z</time>
  <course>231.53</course>
  <speed>1.72</speed>
  <fix>3d</fix>
</trkpt>
<trkpt lat="40.0715754" lon="-105.2292955">
  <ele>1583.06</ele>
  <time>2026-08-27T17:17:26Z</time>
  <course>232.16</course>
  <speed>1.7007351351694948</speed>
  <fix>3d</fix>
</trkpt>
<trkpt lat="40.0715773" lon="-105.2292922">
  <ele>1583.0</ele>
  <time>2026-08-27T17:17:26Z</time>
  <course>231.35</course>
  <speed>1.71</speed>
  <fix>3d</fix>
</trkpt>
<trkpt lat="40.0715744" lon="-105.2292971">
  <ele>1583.06</ele>
  <time>2026-08-27T17:17:26Z</time>
  <course>232.09</course>
  <speed>1.6929264603047587</speed>
  <fix>3d</fix>
</trkpt>
<trkpt lat="40.0715773" lon="-105.2292922">
  <ele>1583.0</ele>
  <time>2026-08-27T17:17:26Z</time>
  <course>231.35</course>
  <speed>1.71</speed>
  <fix>3d</fix>
</trkpt>
<trkpt lat="40.0715735" lon="-105.2292986">
  <ele>1583.07</ele>
  <time>2026-08-27T17:17:26Z</time>
  <course>232.02</course>
  <speed>1.6866831356244716</speed>
  <fix>3d</fix>
</trkpt>
<trkpt lat="40.0715754" lon="-105.2292953">
  <ele>1583.0</ele>
  <time>2026-08-27T17:17:26Z</time>
  <course>231.19</course>
  <speed>1.71</speed>
  <fix>3d</fix>
</trkpt>
<trkpt lat="40.0715725" lon="-105.2293001">
  <ele>1583.07</ele>
  <time>2026-08-27T17:17:26Z</time>
  <course>231.94</course>
  <speed>1.6866831356244716</speed>
  <fix>3d</fix>
</trkpt>
<trkpt lat="40.0715754" lon="-105.2292953">
  <ele>1583.0</ele>
  <time>2026-08-27T17:17:26Z</time>
  <course>231.19</course>
  <speed>1.71</speed>
  <fix>3d</fix>
</trkpt>
<trkpt lat="40.0715717" lon="-105.2293014">
  <ele>1583.07</ele>
  <time>2026-08-27T17:17:26Z</time>
  <course>231.89</course>
  <speed>1.6788686666919483</speed>
  <fix>3d</fix>
</trkpt>
<trkpt lat="40.0715735" lon="-105.2292985">
  <ele>1583.0</ele>
  <time>2026-08-27T17:17:26Z</time>
  <course>231.05</course>
  <speed>1.7</speed>
  <fix>3d</fix>
</trkpt>
<trkpt lat="40.0715708" lon="-105.2293029">
  <ele>1583.07</ele>
  <time>2026-08-27T17:17:26Z</time>
  <course>231.82</course>
  <speed>1.6788686666919483</speed>
  <fix>3d</fix>
</trkpt>
<trkpt lat="40.0715735" lon="-105.2292985">
  <ele>1583.0</ele>
  <time>2026-08-27T17:17:26Z</time>
  <course>231.05</course>
  <speed>1.7</speed>
  <fix>3d</fix>
</trkpt>
<trkpt lat="40.0715698" lon="-105.2293045">
  <ele>1583.08</ele>
  <time>2026-08-27T17:17:26Z</time>
  <course>231.77</course>
  <speed>1.6788686666919483</speed>
  <fix>3d</fix>
</trkpt>
<trkpt lat="40.0715716" lon="-105.2293016">
  <ele>1583.0</ele>
  <time>2026-08-27T17:17:26Z</time>
  <course>230.92</course>
  <speed>1.7</speed>
  <fix>3d</fix>
</trkpt>
<trkpt lat="40.0715689" lon="-105.229306">
  <ele>1583.08</ele>
  <time>2026-08-27T17:17:26Z</time>
  <course>231.71</course>
  <speed>1.6788686666919483</speed>
  <fix>3d</fix>
</trkpt>
<trkpt lat="40.0715716" lon="-105.2293016">
  <ele>1583.0</ele>
  <time>2026-08-27T17:17:26Z</time>
  <course>230.92</course>
  <speed>1.7</speed>
  <fix>3d</fix>
</trkpt>
<trkpt lat="40.0715679" lon="-105.2293076">
  <ele>1583.09</ele>
  <time>2026-08-27T17:17:26Z</time>
  <course>231.67</course>
  <speed>1.6710774967068402</speed>
  <fix>3d</fix>
</trkpt>
<trkpt lat="40.0715696" lon="-105.2293047">
  <ele>1583.0</ele>
  <time>2026-08-27T17:17:26Z</time>
  <course>230.8</course>
  <speed>1.7</speed>
  <fix>3d</fix>
</trkpt>
<trkpt lat="40.071567" lon="-105.2293091">
  <ele>1583.09</ele>
  <time>2026-08-27T17:17:26Z</time>
  <course>231.62</course>
  <speed>1.6710774967068402</speed>
  <fix>3d</fix>
</trkpt>
<trkpt lat="40.0715696" lon="-105.2293047">
  <ele>1583.0</ele>
  <time>2026-08-27T17:17:26Z</time>
  <course>230.8</course>
  <speed>1.7</speed>
  <fix>3d</fix>
</trkpt>
<trkpt lat="40.071566" lon="-105.2293107">
  <ele>1583.09</ele>
  <time>2026-08-27T17:17:26Z</time>
  <course>231.58</course>
  <speed>1.6710774967068402</speed>
  <fix>3d</fix>
</trkpt>
<trkpt lat="40.0715677" lon="-105.2293078">
  <ele>1583.0</ele>
  <time>2026-08-27T17:17:26Z</time>
  <course>230.7</course>
  <speed>1.69</speed>
  <fix>3d</fix>
</trkpt>
<trkpt lat="40.071565" lon="-105.2293122">
  <ele>1583.09</ele>
  <time>2026-08-27T17:17:26Z</time>
  <course>231.53</course>
  <speed>1.6710774967068402</speed>
  <fix>3d</fix>
</trkpt>
<trkpt lat="40.0715677" lon="-105.2293078">
  <ele>1583.0</ele>
  <time>2026-08-27T17:17:26Z</time>
  <course>230.7</course>
  <speed>1.69</speed>
  <fix>3d</fix>
</trkpt>
<trkpt lat="40.0715641" lon="-105.2293138">
  <ele>1583.09</ele>
  <time>2026-08-27T17:17:26Z</time>
  <course>231.49</course>
  <speed>1.6710774967068402</speed>
  <fix>3d</fix>
</trkpt>
<trkpt lat="40.0715658" lon="-105.2293109">
  <ele>1583.0</ele>
  <time>2026-08-27T17:17:26Z</time>
  <course>230.61</course>
  <speed>1.69</speed>
  <fix>3d</fix>
</trkpt>
<trkpt lat="40.0715629" lon="-105.2293156">
  <ele>1583.09</ele>
  <time>2026-08-27T17:17:26Z</time>
  <course>231.44</course>
  <speed>1.6710774967068402</speed>
  <fix>3d</fix>
</trkpt>
<trkpt lat="40.0715658" lon="-105.2293109">
  <ele>1583.0</ele>
  <time>2026-08-27T17:17:26Z</time>
  <course>230.61</course>
  <speed>1.69</speed>
  <fix>3d</fix>
</trkpt>
<trkpt lat="40.0715619" lon="-105.2293171">
  <ele>1583.09</ele>
  <time>2026-08-27T17:17:26Z</time>
  <course>231.39</course>
  <speed>1.6633099530754933</speed>
  <fix>3d</fix>
</trkpt>
<trkpt lat="40.0715638" lon="-105.2293139">
  <ele>1583.0</ele>
  <time>2026-08-27T17:17:26Z</time>
  <course>230.52</course>
  <speed>1.69</speed>
  <fix>3d</fix>
</trkpt>
<trkpt lat="40.071561" lon="-105.2293187">
  <ele>1583.09</ele>
  <time>2026-08-27T17:17:26Z</time>
  <course>231.34</course>
  <speed>1.657015389186232</speed>
  <fix>3d</fix>
</trkpt>
<trkpt lat="40.0715638" lon="-105.2293139">
  <ele>1583.0</ele>
  <time>2026-08-27T17:17:26Z</time>
  <course>230.52</course>
  <speed>1.69</speed>
  <fix>3d</fix>
</trkpt>
<trkpt lat="40.07156" lon="-105.2293202">
  <ele>1583.09</ele>
  <time>2026-08-27T17:17:26Z</time>
  <course>231.29</course>
  <speed>1.657015389186232</speed>
  <fix>3d</fix>
</trkpt>
<trkpt lat="40.0715619" lon="-105.229317">
  <ele>1583.0</ele>
  <time>2026-08-27T17:17:26Z</time>
  <course>230.42</course>
  <speed>1.68</speed>
  <fix>3d</fix>
</trkpt>
<trkpt lat="40.0715591" lon="-105.2293217">
  <ele>1583.09</ele>
  <time>2026-08-27T17:17:26Z</time>
  <course>231.25</course>
  <speed>1.657015389186232</speed>
  <fix>3d</fix>
</trkpt>
<trkpt lat="40.0715619" lon="-105.229317">
  <ele>1583.0</ele>
  <time>2026-08-27T17:17:26Z</time>
  <course>230.42</course>
  <speed>1.68</speed>
  <fix>3d</fix>
</trkpt>
<trkpt lat="40.0715581" lon="-105.2293232">
  <ele>1583.09</ele>
  <time>2026-08-27T17:17:26Z</time>
  <course>231.2</course>
  <speed>1.657015389186232</speed>
  <fix>3d</fix>
</trkpt>
<trkpt lat="40.07156" lon="-105.22932">
  <ele>1583.0</ele>
  <time>2026-08-27T17:17:26Z</time>
  <course>230.32</course>
  <speed>1.68</speed>
  <fix>3d</fix>
</trkpt>
<trkpt lat="40.0715572" lon="-105.2293247">
  <ele>1583.08</ele>
  <time>2026-08-27T17:17:26Z</time>
  <course>231.16</course>
  <speed>1.6492422502470643</speed>
  <fix>3d</fix>
</trkpt>
<trkpt lat="40.07156" lon="-105.22932">
  <ele>1583.0</ele>
  <time>2026-08-27T17:17:26Z</time>
  <course>230.32</course>
  <speed>1.68</speed>
  <fix>3d</fix>
</trkpt>
<trkpt lat="40.0715562" lon="-105.2293262">
  <ele>1583.08</ele>
  <time>2026-08-27T17:17:26Z</time>
  <course>231.12</course>
  <speed>1.6492422502470643</speed>
  <fix>3d</fix>
</trkpt>
<trkpt lat="40.071558" lon="-105.229323">
  <ele>1583.0</ele>
  <time>2026-08-27T17:17:26Z</time>
  <course>230.23</course>
  <speed>1.68</speed>
  <fix>3d</fix>
</trkpt>
<trkpt lat="40.0715553" lon="-105.2293277">
  <ele>1583.08</ele>
  <time>2026-08-27T17:17:26Z</time>
  <course>231.1</course>
  <speed>1.6492422502470643</speed>
  <fix>3d</fix>
</trkpt>
<trkpt lat="40.071558" lon="-105.229323">
  <ele>1583.0</ele>
  <time>2026-08-27T17:17:26Z</time>
  <course>230.23</course>
  <speed>1.68</speed>
  <fix>3d</fix>
</trkpt>
<trkpt lat="40.0715543" lon="-105.2293292">
  <ele>1583.08</ele>
  <time>2026-08-27T17:17:26Z</time>
  <course>231.07</course>
  <speed>1.6492422502470643</speed>
  <fix>3d</fix>
</trkpt>
<trkpt lat="40.0715561" lon="-105.2293261">
  <ele>1583.0</ele>
  <time>2026-08-27T17:17:26Z</time>
  <course>230.16</course>
  <speed>1.67</speed>
  <fix>3d</fix>
</trkpt>
<trkpt lat="40.0715534" lon="-105.2293307">
  <ele>1583.08</ele>
  <time>2026-08-27T17:17:26Z</time>
  <course>231.05</course>
  <speed>1.6492422502470643</speed>
  <fix>3d</fix>
</trkpt>
<trkpt lat="40.0715561" lon="-105.2293261">
  <ele>1583.0</ele>
  <time>2026-08-27T17:17:26Z</time>
  <course>230.16</course>
  <speed>1.67</speed>
  <fix>3d</fix>
</trkpt>
<trkpt lat="40.0715526" lon="-105.2293319">
  <ele>1583.08</ele>
  <time>2026-08-27T17:17:26Z</time>
  <course>231.03</course>
  <speed>1.6414932226482082</speed>
  <fix>3d</fix>
</trkpt>
<trkpt lat="40.0715541" lon="-105.2293292">
  <ele>1583.0</ele>
  <time>2026-08-27T17:17:26Z</time>
  <course>230.11</course>
  <speed>1.67</speed>
  <fix>3d</fix>
</trkpt>
<trkpt lat="40.0715516" lon="-105.2293334">
  <ele>1583.08</ele>
  <time>2026-08-27T17:17:26Z</time>
  <course>231.01</course>
  <speed>1.6351758315239373</speed>
  <fix>3d</fix>
</trkpt>
<trkpt lat="40.0715541" lon="-105.2293292">
  <ele>1583.0</ele>
  <time>2026-08-27T17:17:26Z</time>
  <course>230.11</course>
  <speed>1.67</speed>
  <fix>3d</fix>
</trkpt>
<trkpt lat="40.0715507" lon="-105.2293349">
  <ele>1583.08</ele>
  <time>2026-08-27T17:17:26Z</time>
  <course>230.99</course>
  <speed>1.6351758315239373</speed>
  <fix>3d</fix>
</trkpt>
<trkpt lat="40.0715522" lon="-105.2293321">
  <ele>1583.0</ele>
  <time>2026-08-27T17:17:26Z</time>
  <course>230.06</course>
  <speed>1.67</speed>
  <fix>3d</fix>
</trkpt>
<trkpt lat="40.0715497" lon="-105.2293364">
  <ele>1583.08</ele>
  <time>2026-08-27T17:17:26Z</time>
  <course>230.98</course>
  <speed>1.6351758315239373</speed>
  <fix>3d</fix>
</trkpt>
<trkpt lat="40.0715522" lon="-105.2293321">
  <ele>1583.0</ele>
  <time>2026-08-27T17:17:26Z</time>
  <course>230.06</course>
  <speed>1.67</speed>
  <fix>3d</fix>
</trkpt>
<trkpt lat="40.0715488" lon="-105.2293379">
  <ele>1583.08</ele>
  <time>2026-08-27T17:17:26Z</time>
  <course>230.98</course>
  <speed>1.6351758315239373</speed>
  <fix>3d</fix>
</trkpt>
<trkpt lat="40.0715503" lon="-105.2293352">
  <ele>1583.0</ele>
  <time>2026-08-27T17:17:26Z</time>
  <course>230.03</course>
  <speed>1.67</speed>
  <fix>3d</fix>
</trkpt>
<trkpt lat="40.0715478" lon="-105.2293394">
  <ele>1583.08</ele>
  <time>2026-08-27T17:17:26Z</time>
  <course>230.98</course>
  <speed>1.6351758315239373</speed>
  <fix>3d</fix>
</trkpt>
<trkpt lat="40.0715503" lon="-105.2293352">
  <ele>1583.0</ele>
  <time>2026-08-27T17:17:26Z</time>
  <course>230.03</course>
  <speed>1.67</speed>
  <fix>3d</fix>
</trkpt>
<trkpt lat="40.0715468" lon="-105.2293409">
  <ele>1583.09</ele>
  <time>2026-08-27T17:17:26Z</time>
  <course>230.98</course>
  <speed>1.6351758315239373</speed>
  <fix>3d</fix>
</trkpt>
<trkpt lat="40.0715484" lon="-105.2293382">
  <ele>1583.0</ele>
  <time>2026-08-27T17:17:26Z</time>
  <course>230.02</course>
  <speed>1.67</speed>
  <fix>3d</fix>
</trkpt>
<trkpt lat="40.0715459" lon="-105.2293424">
  <ele>1583.09</ele>
  <time>2026-08-27T17:17:26Z</time>
  <course>230.98</course>
  <speed>1.6351758315239373</speed>
  <fix>3d</fix>
</trkpt>
<trkpt lat="40.0715484" lon="-105.2293382">
  <ele>1583.0</ele>
  <time>2026-08-27T17:17:26Z</time>
  <course>230.02</course>
  <speed>1.67</speed>
  <fix>3d</fix>
</trkpt>
<trkpt lat="40.0715449" lon="-105.229344">
  <ele>1583.09</ele>
  <time>2026-08-27T17:17:26Z</time>
  <course>230.98</course>
  <speed>1.6351758315239373</speed>
  <fix>3d</fix>
</trkpt>
<trkpt lat="40.0715464" lon="-105.2293411">
  <ele>1583.0</ele>
  <time>2026-08-27T17:17:26Z</time>
  <course>230.01</course>
  <speed>1.66</speed>
  <fix>3d</fix>
</trkpt>
<trkpt lat="40.0715439" lon="-105.2293455">
  <ele>1583.1</ele>
  <time>2026-08-27T17:17:26Z</time>
  <course>230.98</course>
  <speed>1.6351758315239373</speed>
  <fix>3d</fix>
</trkpt>
<trkpt lat="40.0715464" lon="-105.2293411">
  <ele>1583.0</ele>
  <time>2026-08-27T17:17:26Z</time>
  <course>230.01</course>
  <speed>1.66</speed>
  <fix>3d</fix>
</trkpt>
<trkpt lat="40.0715428" lon="-105.2293473">
  <ele>1583.1</ele>
  <time>2026-08-27T17:17:26Z</time>
  <course>230.98</course>
  <speed>1.6351758315239373</speed>
  <fix>3d</fix>
</trkpt>
<trkpt lat="40.0715445" lon="-105.2293441">
  <ele>1583.0</ele>
  <time>2026-08-27T17:17:26Z</time>
  <course>230.01</course>
  <speed>1.66</speed>
  <fix>3d</fix>
</trkpt>
<trkpt lat="40.0715418" lon="-105.2293488">
  <ele>1583.1</ele>
  <time>2026-08-27T17:17:26Z</time>
  <course>230.98</course>
  <speed>1.6351758315239373</speed>
  <fix>3d</fix>
</trkpt>
<trkpt lat="40.0715445" lon="-105.2293441">
  <ele>1583.0</ele>
  <time>2026-08-27T17:17:26Z</time>
  <course>230.01</course>
  <speed>1.66</speed>
  <fix>3d</fix>
</trkpt>
<trkpt lat="40.0715408" lon="-105.2293503">
  <ele>1583.1</ele>
  <time>2026-08-27T17:17:26Z</time>
  <course>230.98</course>
  <speed>1.6351758315239373</speed>
  <fix>3d</fix>
</trkpt>
<trkpt lat="40.0715426" lon="-105.2293471">
  <ele>1583.0</ele>
  <time>2026-08-27T17:17:26Z</time>
  <course>230.01</course>
  <speed>1.66</speed>
  <fix>3d</fix>
</trkpt>
<trkpt lat="40.0715399" lon="-105.2293518">
  <ele>1583.1</ele>
  <time>2026-08-27T17:17:26Z</time>
  <course>230.98</course>
  <speed>1.6351758315239373</speed>
  <fix>3d</fix>
</trkpt>
<trkpt lat="40.0715426" lon="-105.2293471">
  <ele>1583.0</ele>
  <time>2026-08-27T17:17:26Z</time>
  <course>230.01</course>
  <speed>1.66</speed>
  <fix>3d</fix>
</trkpt>
<trkpt lat="40.0715389" lon="-105.2293533">
  <ele>1583.1</ele>
  <time>2026-08-27T17:17:26Z</time>
  <course>231.0</course>
  <speed>1.6351758315239373</speed>
  <fix>3d</fix>
</trkpt>
<trkpt lat="40.0715407" lon="-105.2293502">
  <ele>1583.0</ele>
  <time>2026-08-27T17:17:26Z</time>
  <course>230.02</course>
  <speed>1.66</speed>
  <fix>3d</fix>
</trkpt>
<trkpt lat="40.071538" lon="-105.2293548">
  <ele>1583.1</ele>
  <time>2026-08-27T17:17:26Z</time>
  <course>231.03</course>
  <speed>1.6351758315239373</speed>
  <fix>3d</fix>
</trkpt>
<trkpt lat="40.0715407" lon="-105.2293502">
  <ele>1583.0</ele>
  <time>2026-08-27T17:17:26Z</time>
  <course>230.02</course>
  <speed>1.66</speed>
  <fix>3d</fix>
</trkpt>
<trkpt lat="40.071537" lon="-105.2293563">
  <ele>1583.1</ele>
  <time>2026-08-27T17:17:26Z</time>
  <course>231.05</course>
  <speed>1.6351758315239373</speed>
  <fix>3d</fix>
</trkpt>
<trkpt lat="40.0715387" lon="-105.2293531">
  <ele>1583.0</ele>
  <time>2026-08-27T17:17:26Z</time>
  <course>230.04</course>
  <speed>1.66</speed>
  <fix>3d</fix>
</trkpt>
<trkpt lat="40.0715361" lon="-105.2293578">
  <ele>1583.1</ele>
  <time>2026-08-27T17:17:26Z</time>
  <course>231.07</course>
  <speed>1.6288953311984167</speed>
  <fix>3d</fix>
</trkpt>
<trkpt lat="40.0715387" lon="-105.2293531">
  <ele>1583.0</ele>
  <time>2026-08-27T17:17:26Z</time>
  <course>230.04</course>
  <speed>1.66</speed>
  <fix>3d</fix>
</trkpt>
<trkpt lat="40.0715351" lon="-105.2293593">
  <ele>1583.09</ele>
  <time>2026-08-27T17:17:26Z</time>
  <course>231.11</course>
  <speed>1.6288953311984167</speed>
  <fix>3d</fix>
</trkpt>
<trkpt lat="40.0715368" lon="-105.2293562">
  <ele>1583.0</ele>
  <time>2026-08-27T17:17:26Z</time>
  <course>230.09</course>
  <speed>1.66</speed>
  <fix>3d</fix>
</trkpt>
<trkpt lat="40.0715342" lon="-105.2293608">
  <ele>1583.09</ele>
  <time>2026-08-27T17:17:26Z</time>
  <course>231.15</course>
  <speed>1.6288953311984167</speed>
  <fix>3d</fix>
</trkpt>
<trkpt lat="40.0715368" lon="-105.2293562">
  <ele>1583.0</ele>
  <time>2026-08-27T17:17:26Z</time>
  <course>230.09</course>
  <speed>1.66</speed>
  <fix>3d</fix>
</trkpt>
<trkpt lat="40.0715332" lon="-105.2293623">
  <ele>1583.09</ele>
  <time>2026-08-27T17:17:26Z</time>
  <course>231.19</course>
  <speed>1.6288953311984167</speed>
  <fix>3d</fix>
</trkpt>
<trkpt lat="40.0715349" lon="-105.2293592">
  <ele>1583.0</ele>
  <time>2026-08-27T17:17:26Z</time>
  <course>230.15</course>
  <speed>1.66</speed>
  <fix>3d</fix>
</trkpt>
<trkpt lat="40.0715325" lon="-105.2293635">
  <ele>1583.09</ele>
  <time>2026-08-27T17:17:26Z</time>
  <course>231.23</course>
  <speed>1.6288953311984167</speed>
  <fix>3d</fix>
</trkpt>
<trkpt lat="40.0715349" lon="-105.2293592">
  <ele>1583.0</ele>
  <time>2026-08-27T17:17:26Z</time>
  <course>230.15</course>
  <speed>1.66</speed>
  <fix>3d</fix>
</trkpt>
<trkpt lat="40.0715315" lon="-105.229365">
  <ele>1583.09</ele>
  <time>2026-08-27T17:17:26Z</time>
  <course>231.27</course>
  <speed>1.6367040050051813</speed>
  <fix>3d</fix>
</trkpt>
<trkpt lat="40.071533" lon="-105.2293622">
  <ele>1583.0</ele>
  <time>2026-08-27T17:17:26Z</time>
  <course>230.24</course>
  <speed>1.66</speed>
  <fix>3d</fix>
</trkpt>
<trkpt lat="40.0715305" lon="-105.2293665">
  <ele>1583.09</ele>
  <time>2026-08-27T17:17:26Z</time>
  <course>231.32</course>
  <speed>1.6367040050051813</speed>
  <fix>3d</fix>
</trkpt>
<trkpt lat="40.071533" lon="-105.2293622">
  <ele>1583.0</ele>
  <time>2026-08-27T17:17:26Z</time>
  <course>230.24</course>
  <speed>1.66</speed>
  <fix>3d</fix>
</trkpt>
<trkpt lat="40.0715296" lon="-105.229368">
  <ele>1583.09</ele>
  <time>2026-08-27T17:17:26Z</time>
  <course>231.36</course>
  <speed>1.6367040050051813</speed>
  <fix>3d</fix>
</trkpt>
<trkpt lat="40.0715311" lon="-105.2293651">
  <ele>1583.0</ele>
  <time>2026-08-27T17:17:26Z</time>
  <course>230.33</course>
  <speed>1.66</speed>
  <fix>3d</fix>
</trkpt>
<trkpt lat="40.0715287" lon="-105.2293695">
  <ele>1583.09</ele>
  <time>2026-08-27T17:17:26Z</time>
  <course>231.41</course>
  <speed>1.6367040050051813</speed>
  <fix>3d</fix>
</trkpt>
<trkpt lat="40.0715311" lon="-105.2293651">
  <ele>1583.0</ele>
  <time>2026-08-27T17:17:26Z</time>
  <course>230.33</course>
  <speed>1.66</speed>
  <fix>3d</fix>
</trkpt>
<trkpt lat="40.0715277" lon="-105.229371">
  <ele>1583.09</ele>
  <time>2026-08-27T17:17:26Z</time>
  <course>231.45</course>
  <speed>1.6367040050051813</speed>
  <fix>3d</fix>
</trkpt>
<trkpt lat="40.0715292" lon="-105.2293682">
  <ele>1583.0</ele>
  <time>2026-08-27T17:17:26Z</time>
  <course>230.42</course>
  <speed>1.66</speed>
  <fix>3d</fix>
</trkpt>
<trkpt lat="40.0715267" lon="-105.2293725">
  <ele>1583.09</ele>
  <time>2026-08-27T17:17:26Z</time>
  <course>231.49</course>
  <speed>1.6304907236779973</speed>
  <fix>3d</fix>
</trkpt>
<trkpt lat="40.0715292" lon="-105.2293682">
  <ele>1583.0</ele>
  <time>2026-08-27T17:17:26Z</time>
  <course>230.42</course>
  <speed>1.66</speed>
  <fix>3d</fix>
</trkpt>
<trkpt lat="40.0715258" lon="-105.2293741">
  <ele>1583.09</ele>
  <time>2026-08-27T17:17:26Z</time>
  <course>231.53</course>
  <speed>1.6304907236779973</speed>
  <fix>3d</fix>
</trkpt>
<trkpt lat="40.0715273" lon="-105.2293712">
  <ele>1583.0</ele>
  <time>2026-08-27T17:17:26Z</time>
  <course>230.51</course>
  <speed>1.66</speed>
  <fix>3d</fix>
</trkpt>
<trkpt lat="40.0715248" lon="-105.2293756">
  <ele>1583.09</ele>
  <time>2026-08-27T17:17:26Z</time>
  <course>231.56</course>
  <speed>1.63835283135227</speed>
  <fix>3d</fix>
</trkpt>
<trkpt lat="40.0715273" lon="-105.2293712">
  <ele>1583.0</ele>
  <time>2026-08-27T17:17:26Z</time>
  <course>230.51</course>
  <speed>1.66</speed>
  <fix>3d</fix>
</trkpt>
<trkpt lat="40.0715239" lon="-105.2293771">
  <ele>1583.09</ele>
  <time>2026-08-27T17:17:26Z</time>
  <course>231.59</course>
  <speed>1.63835283135227</speed>
  <fix>3d</fix>
</trkpt>
<trkpt lat="40.0715254" lon="-105.2293742">
  <ele>1583.0</ele>
  <time>2026-08-27T17:17:26Z</time>
  <course>230.58</course>
  <speed>1.66</speed>
  <fix>3d</fix>
</trkpt>
<trkpt lat="40.0715227" lon="-105.2293789">
  <ele>1583.09</ele>
  <time>2026-08-27T17:17:26Z</time>
  <course>231.63</course>
  <speed>1.63835283135227</speed>
  <fix>3d</fix>
</trkpt>
<trkpt lat="40.0715254" lon="-105.2293742">
  <ele>1583.0</ele>
  <time>2026-08-27T17:17:26Z</time>
  <course>230.58</course>
  <speed>1.66</speed>
  <fix>3d</fix>
</trkpt>
<trkpt lat="40.0715218" lon="-105.2293805">
  <ele>1583.09</ele>
  <time>2026-08-27T17:17:26Z</time>
  <course>231.67</course>
  <speed>1.63835283135227</speed>
  <fix>3d</fix>
</trkpt>
<trkpt lat="40.0715235" lon="-105.2293773">
  <ele>1583.0</ele>
  <time>2026-08-27T17:17:26Z</time>
  <course>230.65</course>
  <speed>1.66</speed>
  <fix>3d</fix>
</trkpt>
<trkpt lat="40.0715208" lon="-105.229382">
  <ele>1583.09</ele>
  <time>2026-08-27T17:17:26Z</time>
  <course>231.71</course>
  <speed>1.63835283135227</speed>
  <fix>3d</fix>
</trkpt>
<trkpt lat="40.0715235" lon="-105.2293773">
  <ele>1583.0</ele>
  <time>2026-08-27T17:17:26Z</time>
  <course>230.65</course>
  <speed>1.66</speed>
  <fix>3d</fix>
</trkpt>
<trkpt lat="40.0715199" lon="-105.2293835">
  <ele>1583.09</ele>
  <time>2026-08-27T17:17:26Z</time>
  <course>231.74</course>
  <speed>1.63835283135227</speed>
  <fix>3d</fix>
</trkpt>
<trkpt lat="40.0715216" lon="-105.2293803">
  <ele>1583.0</ele>
  <time>2026-08-27T17:17:26Z</time>
  <course>230.73</course>
  <speed>1.67</speed>
  <fix>3d</fix>
</trkpt>
<trkpt lat="40.0715189" lon="-105.2293851">
  <ele>1583.09</ele>
  <time>2026-08-27T17:17:26Z</time>
  <course>231.78</course>
  <speed>1.6462381358722071</speed>
  <fix>3d</fix>
</trkpt>
<trkpt lat="40.0715216" lon="-105.2293803">
  <ele>1583.0</ele>
  <time>2026-08-27T17:17:26Z</time>
  <course>230.73</course>
  <speed>1.67</speed>
  <fix>3d</fix>
</trkpt>
<trkpt lat="40.071518" lon="-105.2293866">
  <ele>1583.09</ele>
  <time>2026-08-27T17:17:26Z</time>
  <course>231.81</course>
  <speed>1.6462381358722071</speed>
  <fix>3d</fix>
</trkpt>
<trkpt lat="40.0715196" lon="-105.2293833">
  <ele>1583.0</ele>
  <time>2026-08-27T17:17:26Z</time>
  <course>230.8</course>
  <speed>1.67</speed>
  <fix>3d</fix>
</trkpt>
<trkpt lat="40.071517" lon="-105.2293881">
  <ele>1583.1</ele>
  <time>2026-08-27T17:17:26Z</time>
  <course>231.86</course>
  <speed>1.6462381358722071</speed>
  <fix>3d</fix>
</trkpt>
<trkpt lat="40.0715196" lon="-105.2293833">
  <ele>1583.0</ele>
  <time>2026-08-27T17:17:26Z</time>
  <course>230.8</course>
  <speed>1.67</speed>
  <fix>3d</fix>
</trkpt>
<trkpt lat="40.0715161" lon="-105.2293896">
  <ele>1583.1</ele>
  <time>2026-08-27T17:17:26Z</time>
  <course>231.9</course>
  <speed>1.6462381358722071</speed>
  <fix>3d</fix>
</trkpt>
<trkpt lat="40.0715177" lon="-105.2293864">
  <ele>1583.0</ele>
  <time>2026-08-27T17:17:26Z</time>
  <course>230.88</course>
  <speed>1.67</speed>
  <fix>3d</fix>
</trkpt>
<trkpt lat="40.0715152" lon="-105.2293911">
  <ele>1583.1</ele>
  <time>2026-08-27T17:17:26Z</time>
  <course>231.94</course>
  <speed>1.6462381358722071</speed>
  <fix>3d</fix>
</trkpt>
<trkpt lat="40.0715177" lon="-105.2293864">
  <ele>1583.0</ele>
  <time>2026-08-27T17:17:26Z</time>
  <course>230.88</course>
  <speed>1.67</speed>
  <fix>3d</fix>
</trkpt>
<trkpt lat="40.0715142" lon="-105.2293926">
  <ele>1583.09</ele>
  <time>2026-08-27T17:17:26Z</time>
  <course>231.99</course>
  <speed>1.6462381358722071</speed>
  <fix>3d</fix>
</trkpt>
<trkpt lat="40.0715159" lon="-105.2293894">
  <ele>1583.0</ele>
  <time>2026-08-27T17:17:26Z</time>
  <course>230.96</course>
  <speed>1.67</speed>
  <fix>3d</fix>
</trkpt>
<trkpt lat="40.0715133" lon="-105.2293942">
  <ele>1583.09</ele>
  <time>2026-08-27T17:17:26Z</time>
  <course>232.03</course>
  <speed>1.6462381358722071</speed>
  <fix>3d</fix>
</trkpt>
<trkpt lat="40.0715159" lon="-105.2293894">
  <ele>1583.0</ele>
  <time>2026-08-27T17:17:26Z</time>
  <course>230.96</course>
  <speed>1.67</speed>
  <fix>3d</fix>
</trkpt>
<trkpt lat="40.0715125" lon="-105.2293954">
  <ele>1583.09</ele>
  <time>2026-08-27T17:17:26Z</time>
  <course>232.07</course>
  <speed>1.6462381358722071</speed>
  <fix>3d</fix>
</trkpt>
<trkpt lat="40.071514" lon="-105.2293924">
  <ele>1583.0</ele>
  <time>2026-08-27T17:17:26Z</time>
  <course>231.05</course>
  <speed>1.67</speed>
  <fix>3d</fix>
</trkpt>
<trkpt lat="40.0715116" lon="-105.2293969">
  <ele>1583.09</ele>
  <time>2026-08-27T17:17:26Z</time>
  <course>232.11</course>
  <speed>1.6462381358722071</speed>
  <fix>3d</fix>
</trkpt>
<trkpt lat="40.071514" lon="-105.2293924">
  <ele>1583.0</ele>
  <time>2026-08-27T17:17:26Z</time>
  <course>231.05</course>
  <speed>1.67</speed>
  <fix>3d</fix>
</trkpt>
<trkpt lat="40.0715106" lon="-105.2293984">
  <ele>1583.09</ele>
  <time>2026-08-27T17:17:26Z</time>
  <course>232.16</course>
  <speed>1.6541463055002117</speed>
  <fix>3d</fix>
</trkpt>
<trkpt lat="40.0715121" lon="-105.2293955">
  <ele>1583.0</ele>
  <time>2026-08-27T17:17:26Z</time>
  <course>231.15</course>
  <speed>1.67</speed>
  <fix>3d</fix>
</trkpt>
<trkpt lat="40.0715097" lon="-105.2293999">
  <ele>1583.09</ele>
  <time>2026-08-27T17:17:26Z</time>
  <course>232.2</course>
  <speed>1.6541463055002117</speed>
  <fix>3d</fix>
</trkpt>
<trkpt lat="40.0715121" lon="-105.2293955">
  <ele>1583.0</ele>
  <time>2026-08-27T17:17:26Z</time>
  <course>231.15</course>
  <speed>1.67</speed>
  <fix>3d</fix>
</trkpt>
<trkpt lat="40.0715088" lon="-105.2294015">
  <ele>1583.09</ele>
  <time>2026-08-27T17:17:26Z</time>
  <course>232.24</course>
  <speed>1.6541463055002117</speed>
  <fix>3d</fix>
</trkpt>
<trkpt lat="40.0715102" lon="-105.2293986">
  <ele>1583.0</ele>
  <time>2026-08-27T17:17:26Z</time>
  <course>231.24</course>
  <speed>1.67</speed>
  <fix>3d</fix>
</trkpt>
<trkpt lat="40.0715078" lon="-105.229403">
  <ele>1583.09</ele>
  <time>2026-08-27T17:17:26Z</time>
  <course>232.3</course>
  <speed>1.6541463055002117</speed>
  <fix>3d</fix>
</trkpt>
<trkpt lat="40.0715102" lon="-105.2293986">
  <ele>1583.0</ele>
  <time>2026-08-27T17:17:26Z</time>
  <course>231.24</course>
  <speed>1.67</speed>
  <fix>3d</fix>
</trkpt>
<trkpt lat="40.0715069" lon="-105.2294046">
  <ele>1583.08</ele>
  <time>2026-08-27T17:17:26Z</time>
  <course>232.35</course>
  <speed>1.6541463055002117</speed>
  <fix>3d</fix>
</trkpt>
<trkpt lat="40.0715083" lon="-105.2294017">
  <ele>1583.0</ele>
  <time>2026-08-27T17:17:26Z</time>
  <course>231.33</course>
  <speed>1.68</speed>
  <fix>3d</fix>
</trkpt>
<trkpt lat="40.0715059" lon="-105.2294061">
  <ele>1583.08</ele>
  <time>2026-08-27T17:17:26Z</time>
  <course>232.42</course>
  <speed>1.6620770138594663</speed>
  <fix>3d</fix>
</trkpt>
<trkpt lat="40.0715083" lon="-105.2294017">
  <ele>1583.0</ele>
  <time>2026-08-27T17:17:26Z</time>
  <course>231.33</course>
  <speed>1.68</speed>
  <fix>3d</fix>
</trkpt>
<trkpt lat="40.071505" lon="-105.2294077">
  <ele>1583.08</ele>
  <time>2026-08-27T17:17:26Z</time>
  <course>232.49</course>
  <speed>1.6620770138594663</speed>
  <fix>3d</fix>
</trkpt>
<trkpt lat="40.0715064" lon="-105.2294048">
  <ele>1583.0</ele>
  <time>2026-08-27T17:17:26Z</time>
  <course>231.45</course>
  <speed>1.68</speed>
  <fix>3d</fix>
</trkpt>
<trkpt lat="40.071504" lon="-105.2294093">
  <ele>1583.08</ele>
  <time>2026-08-27T17:17:26Z</time>
  <course>232.55</course>
  <speed>1.6560193235587561</speed>
  <fix>3d</fix>
</trkpt>
<trkpt lat="40.0715064" lon="-105.2294048">
  <ele>1583.0</ele>
  <time>2026-08-27T17:17:26Z</time>
  <course>231.45</course>
  <speed>1.68</speed>
  <fix>3d</fix>
</trkpt>
<trkpt lat="40.0715029" lon="-105.2294112">
  <ele>1583.08</ele>
  <time>2026-08-27T17:17:26Z</time>
  <course>232.63</course>
  <speed>1.6560193235587561</speed>
  <fix>3d</fix>
</trkpt>
<trkpt lat="40.0715045" lon="-105.2294079">
  <ele>1583.0</ele>
  <time>2026-08-27T17:17:26Z</time>
  <course>231.59</course>
  <speed>1.68</speed>
  <fix>3d</fix>
</trkpt>
<trkpt lat="40.0715019" lon="-105.2294127">
  <ele>1583.08</ele>
  <time>2026-08-27T17:17:26Z</time>
  <course>232.7</course>
  <speed>1.664001201922643</speed>
  <fix>3d</fix>
</trkpt>
<trkpt lat="40.0715045" lon="-105.2294079">
  <ele>1583.0</ele>
  <time>2026-08-27T17:17:26Z</time>
  <course>231.59</course>
  <speed>1.68</speed>
  <fix>3d</fix>
</trkpt>
<trkpt lat="40.071501" lon="-105.2294143">
  <ele>1583.08</ele>
  <time>2026-08-27T17:17:26Z</time>
  <course>232.77</course>
  <speed>1.664001201922643</speed>
  <fix>3d</fix>
</trkpt>
<trkpt lat="40.0715026" lon="-105.229411">
  <ele>1583.0</ele>
  <time>2026-08-27T17:17:26Z</time>
  <course>231.72</course>
  <speed>1.68</speed>
  <fix>3d</fix>
</trkpt>
<trkpt lat="40.0715" lon="-105.2294159">
  <ele>1583.08</ele>
  <time>2026-08-27T17:17:26Z</time>
  <course>232.86</course>
  <speed>1.664001201922643</speed>
  <fix>3d</fix>
</trkpt>
<trkpt lat="40.0715026" lon="-105.229411">
  <ele>1583.0</ele>
  <time>2026-08-27T17:17:26Z</time>
  <course>231.72</course>
  <speed>1.68</speed>
  <fix>3d</fix>
</trkpt>
<trkpt lat="40.0714991" lon="-105.2294174">
  <ele>1583.07</ele>
  <time>2026-08-27T17:17:26Z</time>
  <course>232.95</course>
  <speed>1.664001201922643</speed>
  <fix>3d</fix>
</trkpt>
<trkpt lat="40.0715008" lon="-105.2294141">
  <ele>1583.0</ele>
  <time>2026-08-27T17:17:26Z</time>
  <course>231.88</course>
  <speed>1.68</speed>
  <fix>3d</fix>
</trkpt>
<trkpt lat="40.0714982" lon="-105.229419">
  <ele>1583.07</ele>
  <time>2026-08-27T17:17:26Z</time>
  <course>233.04</course>
  <speed>1.6720047846821493</speed>
  <fix>3d</fix>
</trkpt>
<trkpt lat="40.0715008" lon="-105.2294141">
  <ele>1583.0</ele>
  <time>2026-08-27T17:17:26Z</time>
  <course>231.88</course>
  <speed>1.68</speed>
  <fix>3d</fix>
</trkpt>
<trkpt lat="40.0714972" lon="-105.2294206">
  <ele>1583.07</ele>
  <time>2026-08-27T17:17:26Z</time>
  <course>233.13</course>
  <speed>1.6720047846821493</speed>
  <fix>3d</fix>
</trkpt>
<trkpt lat="40.0714989" lon="-105.2294172">
  <ele>1583.0</ele>
  <time>2026-08-27T17:17:26Z</time>
  <course>232.06</course>
  <speed>1.69</speed>
  <fix>3d</fix>
</trkpt>
<trkpt lat="40.0714963" lon="-105.2294221">
  <ele>1583.07</ele>
  <time>2026-08-27T17:17:26Z</time>
  <course>233.24</course>
  <speed>1.6720047846821493</speed>
  <fix>3d</fix>
</trkpt>
<trkpt lat="40.0714989" lon="-105.2294172">
  <ele>1583.0</ele>
  <time>2026-08-27T17:17:26Z</time>
  <course>232.06</course>
  <speed>1.69</speed>
  <fix>3d</fix>
</trkpt>
<trkpt lat="40.0714954" lon="-105.2294237">
  <ele>1583.08</ele>
  <time>2026-08-27T17:17:26Z</time>
  <course>233.35</course>
  <speed>1.666043216726385</speed>
  <fix>3d</fix>
</trkpt>
<trkpt lat="40.071497" lon="-105.2294204">
  <ele>1583.0</ele>
  <time>2026-08-27T17:17:26Z</time>
  <course>232.25</course>
  <speed>1.69</speed>
  <fix>3d</fix>
</trkpt>
<trkpt lat="40.0714945" lon="-105.2294253">
  <ele>1583.08</ele>
  <time>2026-08-27T17:17:26Z</time>
  <course>233.47</course>
  <speed>1.6740967713964445</speed>
  <fix>3d</fix>
</trkpt>
<trkpt lat="40.071497" lon="-105.2294204">
  <ele>1583.0</ele>
  <time>2026-08-27T17:17:26Z</time>
  <course>232.25</course>
  <speed>1.69</speed>
  <fix>3d</fix>
</trkpt>
<trkpt lat="40.0714936" lon="-105.2294268">
  <ele>1583.08</ele>
  <time>2026-08-27T17:17:26Z</time>
  <course>233.58</course>
  <speed>1.6740967713964445</speed>
  <fix>3d</fix>
</trkpt>
<trkpt lat="40.0714952" lon="-105.2294235">
  <ele>1583.0</ele>
  <time>2026-08-27T17:17:26Z</time>
  <course>232.46</course>
  <speed>1.69</speed>
  <fix>3d</fix>
</trkpt>
<trkpt lat="40.0714928" lon="-105.2294281">
  <ele>1583.07</ele>
  <time>2026-08-27T17:17:26Z</time>
  <course>233.69</course>
  <speed>1.6740967713964445</speed>
  <fix>3d</fix>
</trkpt>
<trkpt lat="40.0714952" lon="-105.2294235">
  <ele>1583.0</ele>
  <time>2026-08-27T17:17:26Z</time>
  <course>232.46</course>
  <speed>1.69</speed>
  <fix>3d</fix>
</trkpt>
<trkpt lat="40.0714919" lon="-105.2294297">
  <ele>1583.07</ele>
  <time>2026-08-27T17:17:26Z</time>
  <course>233.83</course>
  <speed>1.6821712160181557</speed>
  <fix>3d</fix>
</trkpt>
<trkpt lat="40.0714933" lon="-105.2294267">
  <ele>1583.0</ele>
  <time>2026-08-27T17:17:26Z</time>
  <course>232.71</course>
  <speed>1.7</speed>
  <fix>3d</fix>
</trkpt>
<trkpt lat="40.071491" lon="-105.2294313">
  <ele>1583.07</ele>
  <time>2026-08-27T17:17:26Z</time>
  <course>233.98</course>
  <speed>1.676305461424021</speed>
  <fix>3d</fix>
</trkpt>
<trkpt lat="40.0714933" lon="-105.2294267">
  <ele>1583.0</ele>
  <time>2026-08-27T17:17:26Z</time>
  <course>232.71</course>
  <speed>1.7</speed>
  <fix>3d</fix>
</trkpt>
<trkpt lat="40.0714901" lon="-105.2294329">
  <ele>1583.07</ele>
  <time>2026-08-27T17:17:26Z</time>
  <course>234.14</course>
  <speed>1.6844286865284621</speed>
  <fix>3d</fix>
</trkpt>
<trkpt lat="40.0714914" lon="-105.2294298">
  <ele>1583.0</ele>
  <time>2026-08-27T17:17:26Z</time>
  <course>232.99</course>
  <speed>1.7</speed>
  <fix>3d</fix>
</trkpt>
<trkpt lat="40.0714891" lon="-105.2294345">
  <ele>1583.07</ele>
  <time>2026-08-27T17:17:26Z</time>
  <course>234.31</course>
  <speed>1.6844286865284621</speed>
  <fix>3d</fix>
</trkpt>
<trkpt lat="40.0714914" lon="-105.2294298">
  <ele>1583.0</ele>
  <time>2026-08-27T17:17:26Z</time>
  <course>232.99</course>
  <speed>1.7</speed>
  <fix>3d</fix>
</trkpt>
<trkpt lat="40.0714882" lon="-105.2294361">
  <ele>1583.07</ele>
  <time>2026-08-27T17:17:26Z</time>
  <course>234.49</course>
  <speed>1.6925720073308552</speed>
  <fix>3d</fix>
</trkpt>
<trkpt lat="40.0714897" lon="-105.2294331">
  <ele>1583.0</ele>
  <time>2026-08-27T17:17:26Z</time>
  <course>233.31</course>
  <speed>1.7</speed>
  <fix>3d</fix>
</trkpt>
<trkpt lat="40.0714873" lon="-105.2294377">
  <ele>1583.07</ele>
  <time>2026-08-27T17:17:26Z</time>
  <course>234.69</course>
  <speed>1.6868017073740469</speed>
  <fix>3d</fix>
</trkpt>
<trkpt lat="40.0714897" lon="-105.2294331">
  <ele>1583.0</ele>
  <time>2026-08-27T17:17:26Z</time>
  <course>233.31</course>
  <speed>1.7</speed>
  <fix>3d</fix>
</trkpt>
<trkpt lat="40.0714864" lon="-105.2294394">
  <ele>1583.07</ele>
  <time>2026-08-27T17:17:26Z</time>
  <course>234.9</course>
  <speed>1.6949926253526886</speed>
  <fix>3d</fix>
</trkpt>
<trkpt lat="40.0714878" lon="-105.2294363">
  <ele>1583.0</ele>
  <time>2026-08-27T17:17:26Z</time>
  <course>233.68</course>
  <speed>1.71</speed>
  <fix>3d</fix>
</trkpt>
<trkpt lat="40.0714855" lon="-105.229441">
  <ele>1583.07</ele>
  <time>2026-08-27T17:17:26Z</time>
  <course>235.13</course>
  <speed>1.6949926253526886</speed>
  <fix>3d</fix>
</trkpt>
<trkpt lat="40.0714878" lon="-105.2294363">
  <ele>1583.0</ele>
  <time>2026-08-27T17:17:26Z</time>
  <course>233.68</course>
  <speed>1.71</speed>
  <fix>3d</fix>
</trkpt>
<trkpt lat="40.0714846" lon="-105.2294427">
  <ele>1583.07</ele>
  <time>2026-08-27T17:17:26Z</time>
  <course>235.39</course>
  <speed>1.6975276139138356</speed>
  <fix>3d</fix>
</trkpt>
<trkpt lat="40.0714859" lon="-105.2294396">
  <ele>1583.0</ele>
  <time>2026-08-27T17:17:26Z</time>
  <course>234.11</course>
  <speed>1.71</speed>
  <fix>3d</fix>
</trkpt>
<trkpt lat="40.0714835" lon="-105.2294447">
  <ele>1583.07</ele>
  <time>2026-08-27T17:17:26Z</time>
  <course>235.73</course>
  <speed>1.70578427709954</speed>
  <fix>3d</fix>
</trkpt>
<trkpt lat="40.0714859" lon="-105.2294396">
  <ele>1583.0</ele>
  <time>2026-08-27T17:17:26Z</time>
  <course>234.11</course>
  <speed>1.71</speed>
  <fix>3d</fix>
</trkpt>
<trkpt lat="40.0714826" lon="-105.2294464">
  <ele>1583.07</ele>
  <time>2026-08-27T17:17:26Z</time>
  <course>236.04</course>
  <speed>1.7084788555905512</speed>
  <fix>3d</fix>
</trkpt>
<trkpt lat="40.0714842" lon="-105.2294428">
  <ele>1583.0</ele>
  <time>2026-08-27T17:17:26Z</time>
  <course>234.62</course>
  <speed>1.72</speed>
  <fix>3d</fix>
</trkpt>
<trkpt lat="40.0714817" lon="-105.2294481">
  <ele>1583.07</ele>
  <time>2026-08-27T17:17:26Z</time>
  <course>236.38</course>
  <speed>1.7167993476233616</speed>
  <fix>3d</fix>
</trkpt>
<trkpt lat="40.0714842" lon="-105.2294428">
  <ele>1583.0</ele>
  <time>2026-08-27T17:17:26Z</time>
  <course>234.62</course>
  <speed>1.72</speed>
  <fix>3d</fix>
</trkpt>
<trkpt lat="40.0714808" lon="-105.2294498">
  <ele>1583.07</ele>
  <time>2026-08-27T17:17:26Z</time>
  <course>236.77</course>
  <speed>1.7196511274092776</speed>
  <fix>3d</fix>
</trkpt>
<trkpt lat="40.0714824" lon="-105.2294462">
  <ele>1583.0</ele>
  <time>2026-08-27T17:17:26Z</time>
  <course>235.23</course>
  <speed>1.73</speed>
  <fix>3d</fix>
</trkpt>
<trkpt lat="40.0714799" lon="-105.2294515">
  <ele>1583.07</ele>
  <time>2026-08-27T17:17:26Z</time>
  <course>237.19</course>
  <speed>1.722614292289484</speed>
  <fix>3d</fix>
</trkpt>
<trkpt lat="40.0714824" lon="-105.2294462">
  <ele>1583.0</ele>
  <time>2026-08-27T17:17:26Z</time>
  <course>235.23</course>
  <speed>1.73</speed>
  <fix>3d</fix>
</trkpt>
<trkpt lat="40.0714791" lon="-105.2294532">
  <ele>1583.07</ele>
  <time>2026-08-27T17:17:26Z</time>
  <course>237.67</course>
  <speed>1.725688268488837</speed>
  <fix>3d</fix>
</trkpt>
<trkpt lat="40.0714806" lon="-105.2294496">
  <ele>1583.0</ele>
  <time>2026-08-27T17:17:26Z</time>
  <course>235.99</course>
  <speed>1.73</speed>
  <fix>3d</fix>
</trkpt>
<trkpt lat="40.0714782" lon="-105.2294549">
  <ele>1583.07</ele>
  <time>2026-08-27T17:17:26Z</time>
  <course>238.21</course>
  <speed>1.73738308959193</speed>
  <fix>3d</fix>
</trkpt>
<trkpt lat="40.0714806" lon="-105.2294496">
  <ele>1583.0</ele>
  <time>2026-08-27T17:17:26Z</time>
  <course>235.99</course>
  <speed>1.73</speed>
  <fix>3d</fix>
</trkpt>
<trkpt lat="40.0714774" lon="-105.2294566">
  <ele>1583.07</ele>
  <time>2026-08-27T17:17:26Z</time>
  <course>238.84</course>
  <speed>1.7355690709389817</speed>
  <fix>3d</fix>
</trkpt>
<trkpt lat="40.0714789" lon="-105.2294529">
  <ele>1583.0</ele>
  <time>2026-08-27T17:17:26Z</time>
  <course>236.93</course>
  <speed>1.74</speed>
  <fix>3d</fix>
</trkpt>
<trkpt lat="40.0714766" lon="-105.2294584">
  <ele>1583.07</ele>
  <time>2026-08-27T17:17:26Z</time>
  <course>239.55</course>
  <speed>1.7477127910500627</speed>
  <fix>3d</fix>
</trkpt>
<trkpt lat="40.0714789" lon="-105.2294529">
  <ele>1583.0</ele>
  <time>2026-08-27T17:17:26Z</time>
  <course>236.93</course>
  <speed>1.74</speed>
  <fix>3d</fix>
</trkpt>
<trkpt lat="40.0714757" lon="-105.2294601">
  <ele>1583.08</ele>
  <time>2026-08-27T17:17:26Z</time>
  <course>240.4</course>
  <speed>1.746424919657298</speed>
  <fix>3d</fix>
</trkpt>
<trkpt lat="40.0714772" lon="-105.2294564">
  <ele>1583.0</ele>
  <time>2026-08-27T17:17:26Z</time>
  <course>238.15</course>
  <speed>1.75</speed>
  <fix>3d</fix>
</trkpt>
<trkpt lat="40.071475" lon="-105.2294619">
  <ele>1583.08</ele>
  <time>2026-08-27T17:17:26Z</time>
  <course>241.42</course>
  <speed>1.7582377541163197</speed>
  <fix>3d</fix>
</trkpt>
<trkpt lat="40.0714772" lon="-105.2294564">
  <ele>1583.0</ele>
  <time>2026-08-27T17:17:26Z</time>
  <course>238.15</course>
  <speed>1.75</speed>
  <fix>3d</fix>
</trkpt>
<trkpt lat="40.0714743" lon="-105.2294634">
  <ele>1583.08</ele>
  <time>2026-08-27T17:17:26Z</time>
  <course>242.38</course>
  <speed>1.766635219845908</speed>
  <fix>3d</fix>
</trkpt>
<trkpt lat="40.0714756" lon="-105.2294599">
  <ele>1583.0</ele>
  <time>2026-08-27T17:17:26Z</time>
  <course>239.81</course>
  <speed>1.77</speed>
  <fix>3d</fix>
</trkpt>
<trkpt lat="40.0714736" lon="-105.2294653">
  <ele>1583.08</ele>
  <time>2026-08-27T17:17:26Z</time>
  <course>243.84</course>
  <speed>1.7756407294269863</speed>
  <fix>3d</fix>
</trkpt>
<trkpt lat="40.0714756" lon="-105.2294599">
  <ele>1583.0</ele>
  <time>2026-08-27T17:17:26Z</time>
  <course>239.81</course>
  <speed>1.77</speed>
  <fix>3d</fix>
</trkpt>
<trkpt lat="40.0714729" lon="-105.2294672">
  <ele>1583.08</ele>
  <time>2026-08-27T17:17:26Z</time>
  <course>245.52</course>
  <speed>1.7860011198204777</speed>
  <fix>3d</fix>
</trkpt>
<trkpt lat="40.071474" lon="-105.2294636">
  <ele>1583.0</ele>
  <time>2026-08-27T17:17:26Z</time>
  <course>242.21</course>
  <speed>1.78</speed>
  <fix>3d</fix>
</trkpt>
<trkpt lat="40.0714722" lon="-105.2294691">
  <ele>1583.08</ele>
  <time>2026-08-27T17:17:26Z</time>
  <course>247.42</course>
  <speed>1.7938784797192924</speed>
  <fix>3d</fix>
</trkpt>
<trkpt lat="40.071474" lon="-105.2294636">
  <ele>1583.0</ele>
  <time>2026-08-27T17:17:26Z</time>
  <course>242.21</course>
  <speed>1.78</speed>
  <fix>3d</fix>
</trkpt>
<trkpt lat="40.0714716" lon="-105.2294711">
  <ele>1583.08</ele>
  <time>2026-08-27T17:17:26Z</time>
  <course>249.65</course>
  <speed>1.8095303258028033</speed>
  <fix>3d</fix>
</trkpt>
<trkpt lat="40.0714726" lon="-105.2294674">
  <ele>1583.0</ele>
  <time>2026-08-27T17:17:26Z</time>
  <course>245.54</course>
  <speed>1.81</speed>
  <fix>3d</fix>
</trkpt>
<trkpt lat="40.0714711" lon="-105.2294731">
  <ele>1583.07</ele>
  <time>2026-08-27T17:17:26Z</time>
  <course>252.26</course>
  <speed>1.8343936327844141</speed>
  <fix>3d</fix>
</trkpt>
<trkpt lat="40.0714726" lon="-105.2294674">
  <ele>1583.0</ele>
  <time>2026-08-27T17:17:26Z</time>
  <course>245.54</course>
  <speed>1.81</speed>
  <fix>3d</fix>
</trkpt>
<trkpt lat="40.0714706" lon="-105.2294752">
  <ele>1583.07</ele>
  <time>2026-08-27T17:17:26Z</time>
  <course>254.99</course>
  <speed>1.8506755523321745</speed>
  <fix>3d</fix>
</trkpt>
<trkpt lat="40.0714714" lon="-105.2294714">
  <ele>1583.0</ele>
  <time>2026-08-27T17:17:26Z</time>
  <course>250.0</course>
  <speed>1.83</speed>
  <fix>3d</fix>
</trkpt>
<trkpt lat="40.0714702" lon="-105.2294774">
  <ele>1583.07</ele>
  <time>2026-08-27T17:17:26Z</time>
  <course>257.66</course>
  <speed>1.8690371852908652</speed>
  <fix>3d</fix>
</trkpt>
<trkpt lat="40.0714714" lon="-105.2294714">
  <ele>1583.0</ele>
  <time>2026-08-27T17:17:26Z</time>
  <course>250.0</course>
  <speed>1.83</speed>
  <fix>3d</fix>
</trkpt>
<trkpt lat="40.0714698" lon="-105.2294796">
  <ele>1583.06</ele>
  <time>2026-08-27T17:17:26Z</time>
  <course>260.07</course>
  <speed>1.895521036549054</speed>
  <fix>3d</fix>
</trkpt>
<trkpt lat="40.0714703" lon="-105.2294755">
  <ele>1583.0</ele>
  <time>2026-08-27T17:17:26Z</time>
  <course>255.2</course>
  <speed>1.87</speed>
  <fix>3d</fix>
</trkpt>
<trkpt lat="40.0714695" lon="-105.2294823">
  <ele>1583.06</ele>
  <time>2026-08-27T17:17:26Z</time>
  <course>262.28</course>
  <speed>1.9250194804209124</speed>
  <fix>3d</fix>
</trkpt>
<trkpt lat="40.0714703" lon="-105.2294755">
  <ele>1583.0</ele>
  <time>2026-08-27T17:17:26Z</time>
  <course>255.2</course>
  <speed>1.87</speed>
  <fix>3d</fix>
</trkpt>
<trkpt lat="40.0714693" lon="-105.2294846">
  <ele>1583.06</ele>
  <time>2026-08-27T17:17:26Z</time>
  <course>263.2</course>
  <speed>1.9314502323383846</speed>
  <fix>3d</fix>
</trkpt>
<trkpt lat="40.0714696" lon="-105.2294799">
  <ele>1583.0</ele>
  <time>2026-08-27T17:17:26Z</time>
  <course>259.78</course>
  <speed>1.92</speed>
  <fix>3d</fix>
</trkpt>
<trkpt lat="40.0714691" lon="-105.2294869">
  <ele>1583.06</ele>
  <time>2026-08-27T17:17:26Z</time>
  <course>263.2</course>
  <speed>1.9513328778042973</speed>
  <fix>3d</fix>
</trkpt>
<trkpt lat="40.0714696" lon="-105.2294799">
  <ele>1583.0</ele>
  <time>2026-08-27T17:17:26Z</time>
  <course>259.78</course>
  <speed>1.92</speed>
  <fix>3d</fix>
</trkpt>
<trkpt lat="40.0714689" lon="-105.2294892">
  <ele>1583.06</ele>
  <time>2026-08-27T17:17:26Z</time>
  <course>263.19</course>
  <speed>1.9712178976460215</speed>
  <fix>3d</fix>
</trkpt>
<trkpt lat="40.0714691" lon="-105.2294843">
  <ele>1583.0</ele>
  <time>2026-08-27T17:17:26Z</time>
  <course>262.02</course>
  <speed>1.95</speed>
  <fix>3d</fix>
</trkpt>
<trkpt lat="40.0714686" lon="-105.2294915">
  <ele>1583.06</ele>
  <time>2026-08-27T17:17:26Z</time>
  <course>263.18</course>
  <speed>2.002123872291622</speed>
  <fix>3d</fix>
</trkpt>
<trkpt lat="40.0714691" lon="-105.2294843">
  <ele>1583.0</ele>
  <time>2026-08-27T17:17:26Z</time>
  <course>262.02</course>
  <speed>1.95</speed>
  <fix>3d</fix>
</trkpt>
<trkpt lat="40.0714684" lon="-105.2294939">
  <ele>1583.06</ele>
  <time>2026-08-27T17:17:26Z</time>
  <course>263.18</course>
  <speed>2.0120636172845034</speed>
  <fix>3d</fix>
</trkpt>
<trkpt lat="40.0714686" lon="-105.229489">
  <ele>1583.0</ele>
  <time>2026-08-27T17:17:26Z</time>
  <course>262.34</course>
  <speed>1.98</speed>
  <fix>3d</fix>
</trkpt>
<trkpt lat="40.0714682" lon="-105.2294963">
  <ele>1583.06</ele>
  <time>2026-08-27T17:17:26Z</time>
  <course>263.17</course>
  <speed>2.0319448811422025</speed>
  <fix>3d</fix>
</trkpt>
<trkpt lat="40.0714686" lon="-105.229489">
  <ele>1583.0</ele>
  <time>2026-08-27T17:17:26Z</time>
  <course>262.34</course>
  <speed>1.98</speed>
  <fix>3d</fix>
</trkpt>
<trkpt lat="40.0714679" lon="-105.2294986">
  <ele>1583.06</ele>
  <time>2026-08-27T17:17:26Z</time>
  <course>263.17</course>
  <speed>2.0529247428973134</speed>
  <fix>3d</fix>
</trkpt>
<trkpt lat="40.0714681" lon="-105.2294936">
  <ele>1583.0</ele>
  <time>2026-08-27T17:17:26Z</time>
  <course>262.34</course>
  <speed>2.02</speed>
  <fix>3d</fix>
</trkpt>
<trkpt lat="40.0714677" lon="-105.229501">
  <ele>1583.06</ele>
  <time>2026-08-27T17:17:26Z</time>
  <course>263.17</course>
  <speed>2.062862089428181</speed>
  <fix>3d</fix>
</trkpt>
<trkpt lat="40.0714681" lon="-105.2294936">
  <ele>1583.0</ele>
  <time>2026-08-27T17:17:26Z</time>
  <course>262.34</course>
  <speed>2.02</speed>
  <fix>3d</fix>
</trkpt>
<trkpt lat="40.0714675" lon="-105.2295034">
  <ele>1583.06</ele>
  <time>2026-08-27T17:17:26Z</time>
  <course>263.17</course>
  <speed>2.072800038595137</speed>
  <fix>3d</fix>
</trkpt>
<trkpt lat="40.0714676" lon="-105.2294984">
  <ele>1583.0</ele>
  <time>2026-08-27T17:17:26Z</time>
  <course>262.34</course>
  <speed>2.05</speed>
  <fix>3d</fix>
</trkpt>
<trkpt lat="40.0714672" lon="-105.2295058">
  <ele>1583.06</ele>
  <time>2026-08-27T17:17:26Z</time>
  <course>263.17</course>
  <speed>2.082738581771606</speed>
  <fix>3d</fix>
</trkpt>
<trkpt lat="40.0714676" lon="-105.2294984">
  <ele>1583.0</ele>
  <time>2026-08-27T17:17:26Z</time>
  <course>262.34</course>
  <speed>2.05</speed>
  <fix>3d</fix>
</trkpt>
<trkpt lat="40.071467" lon="-105.2295078">
  <ele>1583.05</ele>
  <time>2026-08-27T17:17:26Z</time>
  <course>263.16</course>
  <speed>2.09267771049438</speed>
  <fix>3d</fix>
</trkpt>
<trkpt lat="40.0714671" lon="-105.2295032">
  <ele>1583.0</ele>
  <time>2026-08-27T17:17:26Z</time>
  <course>262.34</course>
  <speed>2.08</speed>
  <fix>3d</fix>
</trkpt>
<trkpt lat="40.0714668" lon="-105.2295102">
  <ele>1583.05</ele>
  <time>2026-08-27T17:17:26Z</time>
  <course>263.16</course>
  <speed>2.103734774157617</speed>
  <fix>3d</fix>
</trkpt>
<trkpt lat="40.0714671" lon="-105.2295032">
  <ele>1583.0</ele>
  <time>2026-08-27T17:17:26Z</time>
  <course>262.34</course>
  <speed>2.08</speed>
  <fix>3d</fix>
</trkpt>
<trkpt lat="40.0714665" lon="-105.2295127">
  <ele>1583.05</ele>
  <time>2026-08-27T17:17:26Z</time>
  <course>263.16</course>
  <speed>2.103734774157617</speed>
  <fix>3d</fix>
</trkpt>
<trkpt lat="40.0714666" lon="-105.2295081">
  <ele>1583.0</ele>
  <time>2026-08-27T17:17:26Z</time>
  <course>262.34</course>
  <speed>2.1</speed>
  <fix>3d</fix>
</trkpt>
<trkpt lat="40.0714662" lon="-105.2295151">
  <ele>1583.05</ele>
  <time>2026-08-27T17:17:26Z</time>
  <course>263.16</course>
  <speed>2.1136697944570244</speed>
  <fix>3d</fix>
</trkpt>
<trkpt lat="40.0714666" lon="-105.2295081">
  <ele>1583.0</ele>
  <time>2026-08-27T17:17:26Z</time>
  <course>262.34</course>
  <speed>2.1</speed>
  <fix>3d</fix>
</trkpt>
<trkpt lat="40.071466" lon="-105.2295176">
  <ele>1583.05</ele>
  <time>2026-08-27T17:17:26Z</time>
  <course>263.15</course>
  <speed>2.123605424743495</speed>
  <fix>3d</fix>
</trkpt>
<trkpt lat="40.0714661" lon="-105.229513">
  <ele>1583.0</ele>
  <time>2026-08-27T17:17:26Z</time>
  <course>262.34</course>
  <speed>2.12</speed>
  <fix>3d</fix>
</trkpt>
<trkpt lat="40.0714657" lon="-105.2295201">
  <ele>1583.05</ele>
  <time>2026-08-27T17:17:26Z</time>
  <course>263.15</course>
  <speed>2.123605424743495</speed>
  <fix>3d</fix>
</trkpt>
<trkpt lat="40.0714661" lon="-105.229513">
  <ele>1583.0</ele>
  <time>2026-08-27T17:17:26Z</time>
  <course>262.34</course>
  <speed>2.12</speed>
  <fix>3d</fix>
</trkpt>
<trkpt lat="40.0714655" lon="-105.2295226">
  <ele>1583.06</ele>
  <time>2026-08-27T17:17:26Z</time>
  <course>263.15</course>
  <speed>2.134689672996991</speed>
  <fix>3d</fix>
</trkpt>
<trkpt lat="40.0714656" lon="-105.2295179">
  <ele>1583.0</ele>
  <time>2026-08-27T17:17:26Z</time>
  <course>262.34</course>
  <speed>2.13</speed>
  <fix>3d</fix>
</trkpt>
<trkpt lat="40.0714652" lon="-105.2295251">
  <ele>1583.06</ele>
  <time>2026-08-27T17:17:26Z</time>
  <course>263.15</course>
  <speed>2.134689672996991</speed>
  <fix>3d</fix>
</trkpt>
<trkpt lat="40.0714656" lon="-105.2295179">
  <ele>1583.0</ele>
  <time>2026-08-27T17:17:26Z</time>
  <course>262.34</course>
  <speed>2.13</speed>
  <fix>3d</fix>
</trkpt>
<trkpt lat="40.0714649" lon="-105.2295277">
  <ele>1583.06</ele>
  <time>2026-08-27T17:17:26Z</time>
  <course>263.14</course>
  <speed>2.144621178670023</speed>
  <fix>3d</fix>
</trkpt>
<trkpt lat="40.0714651" lon="-105.229523">
  <ele>1583.0</ele>
  <time>2026-08-27T17:17:26Z</time>
  <course>262.34</course>
  <speed>2.14</speed>
  <fix>3d</fix>
</trkpt>
<trkpt lat="40.0714647" lon="-105.2295302">
  <ele>1583.07</ele>
  <time>2026-08-27T17:17:26Z</time>
  <course>263.14</course>
  <speed>2.144621178670023</speed>
  <fix>3d</fix>
</trkpt>
<trkpt lat="40.0714651" lon="-105.229523">
  <ele>1583.0</ele>
  <time>2026-08-27T17:17:26Z</time>
  <course>262.34</course>
  <speed>2.14</speed>
  <fix>3d</fix>
</trkpt>
<trkpt lat="40.0714644" lon="-105.2295332">
  <ele>1583.07</ele>
  <time>2026-08-27T17:17:26Z</time>
  <course>263.14</course>
  <speed>2.144621178670023</speed>
  <fix>3d</fix>
</trkpt>
<trkpt lat="40.0714646" lon="-105.2295279">
  <ele>1583.0</ele>
  <time>2026-08-27T17:17:26Z</time>
  <course>262.34</course>
  <speed>2.14</speed>
  <fix>3d</fix>
</trkpt>
<trkpt lat="40.0714641" lon="-105.2295357">
  <ele>1583.07</ele>
  <time>2026-08-27T17:17:26Z</time>
  <course>263.14</course>
  <speed>2.1545533179756773</speed>
  <fix>3d</fix>
</trkpt>
<trkpt lat="40.0714646" lon="-105.2295279">
  <ele>1583.0</ele>
  <time>2026-08-27T17:17:26Z</time>
  <course>262.34</course>
  <speed>2.14</speed>
  <fix>3d</fix>
</trkpt>
<trkpt lat="40.0714638" lon="-105.2295383">
  <ele>1583.07</ele>
  <time>2026-08-27T17:17:26Z</time>
  <course>263.14</course>
  <speed>2.155736533067063</speed>
  <fix>3d</fix>
</trkpt>
<trkpt lat="40.0714641" lon="-105.229533">
  <ele>1583.0</ele>
  <time>2026-08-27T17:17:26Z</time>
  <course>262.34</course>
  <speed>2.15</speed>
  <fix>3d</fix>
</trkpt>
<trkpt lat="40.0714636" lon="-105.2295408">
  <ele>1583.08</ele>
  <time>2026-08-27T17:17:26Z</time>
  <course>263.13</course>
  <speed>2.155736533067063</speed>
  <fix>3d</fix>
</trkpt>
<trkpt lat="40.0714641" lon="-105.229533">
  <ele>1583.0</ele>
  <time>2026-08-27T17:17:26Z</time>
  <course>262.34</course>
  <speed>2.15</speed>
  <fix>3d</fix>
</trkpt>
<trkpt lat="40.0714633" lon="-105.2295433">
  <ele>1583.07</ele>
  <time>2026-08-27T17:17:26Z</time>
  <course>263.13</course>
  <speed>2.155736533067063</speed>
  <fix>3d</fix>
</trkpt>
<trkpt lat="40.0714636" lon="-105.2295379">
  <ele>1583.0</ele>
  <time>2026-08-27T17:17:26Z</time>
  <course>262.34</course>
  <speed>2.16</speed>
  <fix>3d</fix>
</trkpt>
<trkpt lat="40.071463" lon="-105.2295459">
  <ele>1583.07</ele>
  <time>2026-08-27T17:17:26Z</time>
  <course>263.13</course>
  <speed>2.16566387050253</speed>
  <fix>3d</fix>
</trkpt>
<trkpt lat="40.0714636" lon="-105.2295379">
  <ele>1583.0</ele>
  <time>2026-08-27T17:17:26Z</time>
  <course>262.34</course>
  <speed>2.16</speed>
  <fix>3d</fix>
</trkpt>
<trkpt lat="40.0714628" lon="-105.2295484">
  <ele>1583.07</ele>
  <time>2026-08-27T17:17:26Z</time>
  <course>263.13</course>
  <speed>2.16566387050253</speed>
  <fix>3d</fix>
</trkpt>
<trkpt lat="40.0714631" lon="-105.229543">
  <ele>1583.0</ele>
  <time>2026-08-27T17:17:26Z</time>
  <course>262.34</course>
  <speed>2.16</speed>
  <fix>3d</fix>
</trkpt>
<trkpt lat="40.0714625" lon="-105.2295509">
  <ele>1583.07</ele>
  <time>2026-08-27T17:17:26Z</time>
  <course>263.13</course>
  <speed>2.16566387050253</speed>
  <fix>3d</fix>
</trkpt>
<trkpt lat="40.0714631" lon="-105.229543">
  <ele>1583.0</ele>
  <time>2026-08-27T17:17:26Z</time>
  <course>262.34</course>
  <speed>2.16</speed>
  <fix>3d</fix>
</trkpt>
<trkpt lat="40.0714623" lon="-105.2295534">
  <ele>1583.06</ele>
  <time>2026-08-27T17:17:26Z</time>
  <course>263.13</course>
  <speed>2.16566387050253</speed>
  <fix>3d</fix>
</trkpt>
<trkpt lat="40.0714625" lon="-105.229548">
  <ele>1583.0</ele>
  <time>2026-08-27T17:17:26Z</time>
  <course>262.34</course>
  <speed>2.16</speed>
  <fix>3d</fix>
</trkpt>
<trkpt lat="40.071462" lon="-105.2295559">
  <ele>1583.06</ele>
  <time>2026-08-27T17:17:26Z</time>
  <course>263.13</course>
  <speed>2.155736533067063</speed>
  <fix>3d</fix>
</trkpt>
<trkpt lat="40.0714625" lon="-105.229548">
  <ele>1583.0</ele>
  <time>2026-08-27T17:17:26Z</time>
  <course>262.34</course>
  <speed>2.16</speed>
  <fix>3d</fix>
</trkpt>
<trkpt lat="40.0714617" lon="-105.2295584">
  <ele>1583.06</ele>
  <time>2026-08-27T17:17:26Z</time>
  <course>263.13</course>
  <speed>2.155736533067063</speed>
  <fix>3d</fix>
</trkpt>
<trkpt lat="40.071462" lon="-105.2295531">
  <ele>1583.0</ele>
  <time>2026-08-27T17:17:26Z</time>
  <course>262.34</course>
  <speed>2.16</speed>
  <fix>3d</fix>
</trkpt>
<trkpt lat="40.0714615" lon="-105.2295604">
  <ele>1583.06</ele>
  <time>2026-08-27T17:17:26Z</time>
  <course>263.13</course>
  <speed>2.155736533067063</speed>
  <fix>3d</fix>
</trkpt>
<trkpt lat="40.071462" lon="-105.2295531">
  <ele>1583.0</ele>
  <time>2026-08-27T17:17:26Z</time>
  <course>262.34</course>
  <speed>2.16</speed>
  <fix>3d</fix>
</trkpt>
<trkpt lat="40.0714613" lon="-105.2295629">
  <ele>1583.06</ele>
  <time>2026-08-27T17:17:26Z</time>
  <course>263.13</course>
  <speed>2.155736533067063</speed>
  <fix>3d</fix>
</trkpt>
<trkpt lat="40.0714615" lon="-105.2295581">
  <ele>1583.0</ele>
  <time>2026-08-27T17:17:26Z</time>
  <course>262.34</course>
  <speed>2.16</speed>
  <fix>3d</fix>
</trkpt>
<trkpt lat="40.071461" lon="-105.2295654">
  <ele>1583.06</ele>
  <time>2026-08-27T17:17:26Z</time>
  <course>263.61</course>
  <speed>2.163353877663107</speed>
  <fix>3d</fix>
</trkpt>
<trkpt lat="40.0714615" lon="-105.2295581">
  <ele>1583.0</ele>
  <time>2026-08-27T17:17:26Z</time>
  <course>262.34</course>
  <speed>2.16</speed>
  <fix>3d</fix>
</trkpt>
<trkpt lat="40.0714608" lon="-105.2295679">
  <ele>1583.06</ele>
  <time>2026-08-27T17:17:26Z</time>
  <course>265.26</course>
  <speed>2.1575217264259474</speed>
  <fix>3d</fix>
</trkpt>
<trkpt lat="40.071461" lon="-105.2295632">
  <ele>1583.0</ele>
  <time>2026-08-27T17:17:26Z</time>
  <course>262.85</course>
  <speed>2.17</speed>
  <fix>3d</fix>
</trkpt>
<trkpt lat="40.0714606" lon="-105.2295705">
  <ele>1583.06</ele>
  <time>2026-08-27T17:17:26Z</time>
  <course>268.02</course>
  <speed>2.1614809737770075</speed>
  <fix>3d</fix>
</trkpt>
<trkpt lat="40.071461" lon="-105.2295632">
  <ele>1583.0</ele>
  <time>2026-08-27T17:17:26Z</time>
  <course>262.85</course>
  <speed>2.17</speed>
  <fix>3d</fix>
</trkpt>
<trkpt lat="40.0714606" lon="-105.229573">
  <ele>1583.07</ele>
  <time>2026-08-27T17:17:26Z</time>
  <course>271.88</course>
  <speed>2.160833172644293</speed>
  <fix>3d</fix>
</trkpt>
<trkpt lat="40.0714606" lon="-105.2295682">
  <ele>1583.0</ele>
  <time>2026-08-27T17:17:26Z</time>
  <course>266.03</course>
  <speed>2.17</speed>
  <fix>3d</fix>
</trkpt>
<trkpt lat="40.0714607" lon="-105.2295756">
  <ele>1583.07</ele>
  <time>2026-08-27T17:17:26Z</time>
  <course>276.84</course>
  <speed>2.1644860821913365</speed>
  <fix>3d</fix>
</trkpt>
<trkpt lat="40.0714606" lon="-105.2295682">
  <ele>1583.0</ele>
  <time>2026-08-27T17:17:26Z</time>
  <course>266.03</course>
  <speed>2.17</speed>
  <fix>3d</fix>
</trkpt>
<trkpt lat="40.071461" lon="-105.2295781">
  <ele>1583.07</ele>
  <time>2026-08-27T17:17:26Z</time>
  <course>282.89</course>
  <speed>2.1736605070709643</speed>
  <fix>3d</fix>
</trkpt>
<trkpt lat="40.0714605" lon="-105.2295733">
  <ele>1583.0</ele>
  <time>2026-08-27T17:17:26Z</time>
  <course>273.56</course>
  <speed>2.17</speed>
  <fix>3d</fix>
</trkpt>
<trkpt lat="40.0714616" lon="-105.2295806">
  <ele>1583.07</ele>
  <time>2026-08-27T17:17:26Z</time>
  <course>290.09</course>
  <speed>2.1606711920141852</speed>
  <fix>3d</fix>
</trkpt>
<trkpt lat="40.0714605" lon="-105.2295733">
  <ele>1583.0</ele>
  <time>2026-08-27T17:17:26Z</time>
  <course>273.56</course>
  <speed>2.17</speed>
  <fix>3d</fix>
</trkpt>
<trkpt lat="40.0714624" lon="-105.2295829">
  <ele>1583.07</ele>
  <time>2026-08-27T17:17:26Z</time>
  <course>298.31</course>
  <speed>2.1524404753674373</speed>
  <fix>3d</fix>
</trkpt>
<trkpt lat="40.0714611" lon="-105.2295784">
  <ele>1583.0</ele>
  <time>2026-08-27T17:17:26Z</time>
  <course>285.44</course>
  <speed>2.16</speed>
  <fix>3d</fix>
</trkpt>
<trkpt lat="40.0714637" lon="-105.2295854">
  <ele>1583.07</ele>
  <time>2026-08-27T17:17:26Z</time>
  <course>309.56</course>
  <speed>2.1292721761202817</speed>
  <fix>3d</fix>
</trkpt>
<trkpt lat="40.0714611" lon="-105.2295784">
  <ele>1583.0</ele>
  <time>2026-08-27T17:17:26Z</time>
  <course>285.44</course>
  <speed>2.16</speed>
  <fix>3d</fix>
</trkpt>
<trkpt lat="40.0714651" lon="-105.2295872">
  <ele>1583.08</ele>
  <time>2026-08-27T17:17:26Z</time>
  <course>320.1</course>
  <speed>2.1037585412779674</speed>
  <fix>3d</fix>
</trkpt>
<trkpt lat="40.0714626" lon="-105.229583">
  <ele>1583.0</ele>
  <time>2026-08-27T17:17:26Z</time>
  <course>301.6</course>
  <speed>2.13</speed>
  <fix>3d</fix>
</trkpt>
<trkpt lat="40.0714667" lon="-105.2295885">
  <ele>1583.08</ele>
  <time>2026-08-27T17:17:26Z</time>
  <course>331.02</course>
  <speed>2.075885353289049</speed>
  <fix>3d</fix>
</trkpt>
<trkpt lat="40.0714626" lon="-105.229583">
  <ele>1583.0</ele>
  <time>2026-08-27T17:17:26Z</time>
  <course>301.6</course>
  <speed>2.13</speed>
  <fix>3d</fix>
</trkpt>
<trkpt lat="40.0714684" lon="-105.2295894">
  <ele>1583.07</ele>
  <time>2026-08-27T17:17:26Z</time>
  <course>341.89</course>
  <speed>2.0593445559206454</speed>
  <fix>3d</fix>
</trkpt>
<trkpt lat="40.0714651" lon="-105.2295867">
  <ele>1583.0</ele>
  <time>2026-08-27T17:17:26Z</time>
  <course>321.51</course>
  <speed>2.08</speed>
  <fix>3d</fix>
</trkpt>
<trkpt lat="40.0714703" lon="-105.2295899">
  <ele>1583.07</ele>
  <time>2026-08-27T17:17:26Z</time>
  <course>352.78</course>
  <speed>2.040833163195855</speed>
  <fix>3d</fix>
</trkpt>
<trkpt lat="40.0714651" lon="-105.2295867">
  <ele>1583.0</ele>
  <time>2026-08-27T17:17:26Z</time>
  <course>321.51</course>
  <speed>2.08</speed>
  <fix>3d</fix>
</trkpt>
<trkpt lat="40.0714721" lon="-105.2295898">
  <ele>1583.07</ele>
  <time>2026-08-27T17:17:26Z</time>
  <course>3.66</course>
  <speed>2.0280039447693388</speed>
  <fix>3d</fix>
</trkpt>
<trkpt lat="40.0714684" lon="-105.2295889">
  <ele>1583.0</ele>
  <time>2026-08-27T17:17:26Z</time>
  <course>343.25</course>
  <speed>2.04</speed>
  <fix>3d</fix>
</trkpt>
<trkpt lat="40.0714739" lon="-105.2295895">
  <ele>1583.07</ele>
  <time>2026-08-27T17:17:26Z</time>
  <course>14.54</course>
  <speed>2.019207765436732</speed>
  <fix>3d</fix>
</trkpt>
<trkpt lat="40.0714684" lon="-105.2295889">
  <ele>1583.0</ele>
  <time>2026-08-27T17:17:26Z</time>
  <course>343.25</course>
  <speed>2.04</speed>
  <fix>3d</fix>
</trkpt>
<trkpt lat="40.0714756" lon="-105.2295886">
  <ele>1583.07</ele>
  <time>2026-08-27T17:17:26Z</time>
  <course>25.41</course>
  <speed>1.999124808509964</speed>
  <fix>3d</fix>
</trkpt>
<trkpt lat="40.071472" lon="-105.2295894">
  <ele>1583.0</ele>
  <time>2026-08-27T17:17:26Z</time>
  <course>5.09</course>
  <speed>2.0</speed>
  <fix>3d</fix>
</trkpt>
<trkpt lat="40.0714771" lon="-105.2295873">
  <ele>1583.07</ele>
  <time>2026-08-27T17:17:26Z</time>
  <course>36.28</course>
  <speed>1.9804039991880444</speed>
  <fix>3d</fix>
</trkpt>
<trkpt lat="40.071472" lon="-105.2295894">
  <ele>1583.0</ele>
  <time>2026-08-27T17:17:26Z</time>
  <course>5.09</course>
  <speed>2.0</speed>
  <fix>3d</fix>
</trkpt>
<trkpt lat="40.0714783" lon="-105.2295856">
  <ele>1583.07</ele>
  <time>2026-08-27T17:17:26Z</time>
  <course>46.86</course>
  <speed>1.9341406360448559</speed>
  <fix>3d</fix>
</trkpt>
<trkpt lat="40.0714754" lon="-105.2295881">
  <ele>1583.0</ele>
  <time>2026-08-27T17:17:26Z</time>
  <course>26.8</course>
  <speed>1.96</speed>
  <fix>3d</fix>
</trkpt>
<trkpt lat="40.0714793" lon="-105.2295838">
  <ele>1583.07</ele>
  <time>2026-08-27T17:17:26Z</time>
  <course>56.37</course>
  <speed>1.850756602041446</speed>
  <fix>3d</fix>
</trkpt>
<trkpt lat="40.0714754" lon="-105.2295881">
  <ele>1583.0</ele>
  <time>2026-08-27T17:17:26Z</time>
  <course>26.8</course>
  <speed>1.96</speed>
  <fix>3d</fix>
</trkpt>
<trkpt lat="40.07148" lon="-105.2295823">
  <ele>1583.07</ele>
  <time>2026-08-27T17:17:26Z</time>
  <course>63.31</course>
  <speed>1.7851890656174207</speed>
  <fix>3d</fix>
</trkpt>
<trkpt lat="40.0714781" lon="-105.2295854">
  <ele>1583.0</ele>
  <time>2026-08-27T17:17:26Z</time>
  <course>47.23</course>
  <speed>1.87</speed>
  <fix>3d</fix>
</trkpt>
<trkpt lat="40.0714805" lon="-105.2295804">
  <ele>1583.07</ele>
  <time>2026-08-27T17:17:26Z</time>
  <course>70.97</course>
  <speed>1.73</speed>
  <fix>3d</fix>
</trkpt>
<trkpt lat="40.0714781" lon="-105.2295854">
  <ele>1583.0</ele>
  <time>2026-08-27T17:17:26Z</time>
  <course>47.23</course>
  <speed>1.87</speed>
  <fix>3d</fix>
</trkpt>
<trkpt lat="40.0714809" lon="-105.2295784">
  <ele>1583.08</ele>
  <time>2026-08-27T17:17:26Z</time>
  <course>77.63</course>
  <speed>1.7102046661145558</speed>
  <fix>3d</fix>
</trkpt>
<trkpt lat="40.0714799" lon="-105.229582">
  <ele>1583.0</ele>
  <time>2026-08-27T17:17:26Z</time>
  <course>64.94</course>
  <speed>1.75</speed>
  <fix>3d</fix>
</trkpt>
<trkpt lat="40.071481" lon="-105.2295764">
  <ele>1583.08</ele>
  <time>2026-08-27T17:17:26Z</time>
  <course>83.19</course>
  <speed>1.6966437457521835</speed>
  <fix>3d</fix>
</trkpt>
<trkpt lat="40.0714799" lon="-105.229582">
  <ele>1583.0</ele>
  <time>2026-08-27T17:17:26Z</time>
  <course>64.94</course>
  <speed>1.75</speed>
  <fix>3d</fix>
</trkpt>
<trkpt lat="40.0714811" lon="-105.2295744">
  <ele>1583.08</ele>
  <time>2026-08-27T17:17:26Z</time>
  <course>87.74</course>
  <speed>1.7001176429882727</speed>
  <fix>3d</fix>
</trkpt>
<trkpt lat="40.0714809" lon="-105.2295782">
  <ele>1583.0</ele>
  <time>2026-08-27T17:17:26Z</time>
  <course>78.63</course>
  <speed>1.68</speed>
  <fix>3d</fix>
</trkpt>
<trkpt lat="40.0714811" lon="-105.2295724">
  <ele>1583.07</ele>
  <time>2026-08-27T17:17:26Z</time>
  <course>91.22</course>
  <speed>1.7214238292762187</speed>
  <fix>3d</fix>
</trkpt>
<trkpt lat="40.0714809" lon="-105.2295782">
  <ele>1583.0</ele>
  <time>2026-08-27T17:17:26Z</time>
  <course>78.63</course>
  <speed>1.68</speed>
  <fix>3d</fix>
</trkpt>
<trkpt lat="40.071481" lon="-105.2295704">
  <ele>1583.07</ele>
  <time>2026-08-27T17:17:26Z</time>
  <course>93.77</course>
  <speed>1.746453549339346</speed>
  <fix>3d</fix>
</trkpt>
<trkpt lat="40.0714812" lon="-105.2295743">
  <ele>1583.0</ele>
  <time>2026-08-27T17:17:26Z</time>
  <course>87.98</course>
  <speed>1.69</speed>
  <fix>3d</fix>
</trkpt>
<trkpt lat="40.0714809" lon="-105.2295683">
  <ele>1583.07</ele>
  <time>2026-08-27T17:17:26Z</time>
  <course>96.0</course>
  <speed>1.7724841325100769</speed>
  <fix>3d</fix>
</trkpt>
<trkpt lat="40.0714812" lon="-105.2295743">
  <ele>1583.0</ele>
  <time>2026-08-27T17:17:26Z</time>
  <course>87.98</course>
  <speed>1.69</speed>
  <fix>3d</fix>
</trkpt>
<trkpt lat="40.0714807" lon="-105.2295662">
  <ele>1583.07</ele>
  <time>2026-08-27T17:17:26Z</time>
  <course>97.9</course>
  <speed>1.8102486017119306</speed>
  <fix>3d</fix>
</trkpt>
<trkpt lat="40.0714811" lon="-105.2295702">
  <ele>1583.0</ele>
  <time>2026-08-27T17:17:26Z</time>
  <course>93.8</course>
  <speed>1.74</speed>
  <fix>3d</fix>
</trkpt>
<trkpt lat="40.0714805" lon="-105.2295641">
  <ele>1583.07</ele>
  <time>2026-08-27T17:17:26Z</time>
  <course>99.52</course>
  <speed>1.84967564724197</speed>
  <fix>3d</fix>
</trkpt>
<trkpt lat="40.0714811" lon="-105.2295702">
  <ele>1583.0</ele>
  <time>2026-08-27T17:17:26Z</time>
  <course>93.8</course>
  <speed>1.74</speed>
  <fix>3d</fix>
</trkpt>
<trkpt lat="40.0714801" lon="-105.2295615">
  <ele>1583.07</ele>
  <time>2026-08-27T17:17:26Z</time>
  <course>101.15</course>
  <speed>1.8886238376129854</speed>
  <fix>3d</fix>
</trkpt>
<trkpt lat="40.0714809" lon="-105.2295661">
  <ele>1583.0</ele>
  <time>2026-08-27T17:17:26Z</time>
  <course>97.69</course>
  <speed>1.8</speed>
  <fix>3d</fix>
</trkpt>
<trkpt lat="40.0714798" lon="-105.2295593">
  <ele>1583.07</ele>
  <time>2026-08-27T17:17:26Z</time>
  <course>102.27</course>
  <speed>1.9165855055279948</speed>
  <fix>3d</fix>
</trkpt>
<trkpt lat="40.0714809" lon="-105.2295661">
  <ele>1583.0</ele>
  <time>2026-08-27T17:17:26Z</time>
  <course>97.69</course>
  <speed>1.8</speed>
  <fix>3d</fix>
</trkpt>
<trkpt lat="40.0714794" lon="-105.2295571">
  <ele>1583.07</ele>
  <time>2026-08-27T17:17:26Z</time>
  <course>103.2</course>
  <speed>1.9451735141112731</speed>
  <fix>3d</fix>
</trkpt>
<trkpt lat="40.0714804" lon="-105.2295618">
  <ele>1583.0</ele>
  <time>2026-08-27T17:17:26Z</time>
  <course>100.52</course>
  <speed>1.87</speed>
  <fix>3d</fix>
</trkpt>
<trkpt lat="40.071479" lon="-105.2295549">
  <ele>1583.06</ele>
  <time>2026-08-27T17:17:26Z</time>
  <course>103.97</course>
  <speed>1.9693907687404246</speed>
  <fix>3d</fix>
</trkpt>
<trkpt lat="40.0714804" lon="-105.2295618">
  <ele>1583.0</ele>
  <time>2026-08-27T17:17:26Z</time>
  <course>100.52</course>
  <speed>1.87</speed>
  <fix>3d</fix>
</trkpt>
<trkpt lat="40.0714786" lon="-105.2295526">
  <ele>1583.06</ele>
  <time>2026-08-27T17:17:26Z</time>
  <course>104.6</course>
  <speed>1.9840362899906847</speed>
  <fix>3d</fix>
</trkpt>
<trkpt lat="40.0714797" lon="-105.2295574">
  <ele>1583.0</ele>
  <time>2026-08-27T17:17:26Z</time>
  <course>102.53</course>
  <speed>1.93</speed>
  <fix>3d</fix>
</trkpt>
<trkpt lat="40.0714781" lon="-105.2295503">
  <ele>1583.06</ele>
  <time>2026-08-27T17:17:26Z</time>
  <course>105.14</course>
  <speed>1.9988246546408217</speed>
  <fix>3d</fix>
</trkpt>
<trkpt lat="40.0714797" lon="-105.2295574">
  <ele>1583.0</ele>
  <time>2026-08-27T17:17:26Z</time>
  <course>102.53</course>
  <speed>1.93</speed>
  <fix>3d</fix>
</trkpt>
<trkpt lat="40.0714777" lon="-105.2295481">
  <ele>1583.06</ele>
  <time>2026-08-27T17:17:26Z</time>
  <course>105.58</course>
  <speed>2.0137527157027004</speed>
  <fix>3d</fix>
</trkpt>
<trkpt lat="40.0714789" lon="-105.2295529">
  <ele>1583.0</ele>
  <time>2026-08-27T17:17:26Z</time>
  <course>103.91</course>
  <speed>1.97</speed>
  <fix>3d</fix>
</trkpt>
<trkpt lat="40.0714772" lon="-105.2295458">
  <ele>1583.06</ele>
  <time>2026-08-27T17:17:26Z</time>
  <course>105.94</course>
  <speed>2.0164572894063486</speed>
  <fix>3d</fix>
</trkpt>
<trkpt lat="40.0714789" lon="-105.2295529">
  <ele>1583.0</ele>
  <time>2026-08-27T17:17:26Z</time>
  <course>103.91</course>
  <speed>1.97</speed>
  <fix>3d</fix>
</trkpt>
<trkpt lat="40.0714768" lon="-105.2295435">
  <ele>1583.06</ele>
  <time>2026-08-27T17:17:26Z</time>
  <course>106.23</course>
  <speed>2.02881738951538</speed>
  <fix>3d</fix>
</trkpt>
<trkpt lat="40.071478" lon="-105.2295484">
  <ele>1583.0</ele>
  <time>2026-08-27T17:17:26Z</time>
  <course>104.87</course>
  <speed>2.0</speed>
  <fix>3d</fix>
</trkpt>
<trkpt lat="40.0714763" lon="-105.2295413">
  <ele>1583.06</ele>
  <time>2026-08-27T17:17:26Z</time>
  <course>106.48</course>
  <speed>2.02881738951538</speed>
  <fix>3d</fix>
</trkpt>
<trkpt lat="40.071478" lon="-105.2295484">
  <ele>1583.0</ele>
  <time>2026-08-27T17:17:26Z</time>
  <course>104.87</course>
  <speed>2.0</speed>
  <fix>3d</fix>
</trkpt>
<trkpt lat="40.0714758" lon="-105.229539">
  <ele>1583.06</ele>
  <time>2026-08-27T17:17:26Z</time>
  <course>106.67</course>
  <speed>2.0316003544004415</speed>
  <fix>3d</fix>
</trkpt>
<trkpt lat="40.071477" lon="-105.2295438">
  <ele>1583.0</ele>
  <time>2026-08-27T17:17:26Z</time>
  <course>105.51</course>
  <speed>2.02</speed>
  <fix>3d</fix>
</trkpt>
<trkpt lat="40.0714754" lon="-105.2295372">
  <ele>1583.06</ele>
  <time>2026-08-27T17:17:26Z</time>
  <course>106.81</course>
  <speed>2.0316003544004415</speed>
  <fix>3d</fix>
</trkpt>
<trkpt lat="40.071477" lon="-105.2295438">
  <ele>1583.0</ele>
  <time>2026-08-27T17:17:26Z</time>
  <course>105.51</course>
  <speed>2.02</speed>
  <fix>3d</fix>
</trkpt>
<trkpt lat="40.0714749" lon="-105.2295349">
  <ele>1583.06</ele>
  <time>2026-08-27T17:17:26Z</time>
  <course>106.94</course>
  <speed>2.0316003544004415</speed>
  <fix>3d</fix>
</trkpt>
<trkpt lat="40.0714761" lon="-105.2295393">
  <ele>1583.0</ele>
  <time>2026-08-27T17:17:26Z</time>
  <course>105.94</course>
  <speed>2.03</speed>
  <fix>3d</fix>
</trkpt>
<trkpt lat="40.0714744" lon="-105.2295326">
  <ele>1583.06</ele>
  <time>2026-08-27T17:17:26Z</time>
  <course>107.05</course>
  <speed>2.0316003544004415</speed>
  <fix>3d</fix>
</trkpt>
<trkpt lat="40.0714761" lon="-105.2295393">
  <ele>1583.0</ele>
  <time>2026-08-27T17:17:26Z</time>
  <course>105.94</course>
  <speed>2.03</speed>
  <fix>3d</fix>
</trkpt>
<trkpt lat="40.071474" lon="-105.2295303">
  <ele>1583.06</ele>
  <time>2026-08-27T17:17:26Z</time>
  <course>107.13</course>
  <speed>2.0316003544004415</speed>
  <fix>3d</fix>
</trkpt>
<trkpt lat="40.0714751" lon="-105.2295346">
  <ele>1583.0</ele>
  <time>2026-08-27T17:17:26Z</time>
  <course>106.22</course>
  <speed>2.04</speed>
  <fix>3d</fix>
</trkpt>
<trkpt lat="40.0714735" lon="-105.229528">
  <ele>1583.06</ele>
  <time>2026-08-27T17:17:26Z</time>
  <course>107.19</course>
  <speed>2.0316003544004415</speed>
  <fix>3d</fix>
</trkpt>
<trkpt lat="40.0714751" lon="-105.2295346">
  <ele>1583.0</ele>
  <time>2026-08-27T17:17:26Z</time>
  <course>106.22</course>
  <speed>2.04</speed>
  <fix>3d</fix>
</trkpt>
<trkpt lat="40.071473" lon="-105.2295257">
  <ele>1583.06</ele>
  <time>2026-08-27T17:17:26Z</time>
  <course>107.25</course>
  <speed>2.0316003544004415</speed>
  <fix>3d</fix>
</trkpt>
<trkpt lat="40.071474" lon="-105.2295299">
  <ele>1583.0</ele>
  <time>2026-08-27T17:17:26Z</time>
  <course>106.4</course>
  <speed>2.05</speed>
  <fix>3d</fix>
</trkpt>
<trkpt lat="40.0714724" lon="-105.2295233">
  <ele>1583.06</ele>
  <time>2026-08-27T17:17:26Z</time>
  <course>107.28</course>
  <speed>2.0316003544004415</speed>
  <fix>3d</fix>
</trkpt>
<trkpt lat="40.071474" lon="-105.2295299">
  <ele>1583.0</ele>
  <time>2026-08-27T17:17:26Z</time>
  <course>106.4</course>
  <speed>2.05</speed>
  <fix>3d</fix>
</trkpt>
<trkpt lat="40.0714719" lon="-105.229521">
  <ele>1583.05</ele>
  <time>2026-08-27T17:17:26Z</time>
  <course>107.31</course>
  <speed>2.0316003544004415</speed>
  <fix>3d</fix>
</trkpt>
<trkpt lat="40.071473" lon="-105.2295254">
  <ele>1583.0</ele>
  <time>2026-08-27T17:17:26Z</time>
  <course>106.51</course>
  <speed>2.05</speed>
  <fix>3d</fix>
</trkpt>
<trkpt lat="40.0714714" lon="-105.2295187">
  <ele>1583.05</ele>
  <time>2026-08-27T17:17:26Z</time>
  <course>107.33</course>
  <speed>2.0316003544004415</speed>
  <fix>3d</fix>
</trkpt>
<trkpt lat="40.071473" lon="-105.2295254">
  <ele>1583.0</ele>
  <time>2026-08-27T17:17:26Z</time>
  <course>106.51</course>
  <speed>2.05</speed>
  <fix>3d</fix>
</trkpt>
<trkpt lat="40.0714709" lon="-105.2295164">
  <ele>1583.05</ele>
  <time>2026-08-27T17:17:26Z</time>
  <course>107.33</course>
  <speed>2.0316003544004415</speed>
  <fix>3d</fix>
</trkpt>
<trkpt lat="40.0714719" lon="-105.2295207">
  <ele>1583.0</ele>
  <time>2026-08-27T17:17:26Z</time>
  <course>106.57</course>
  <speed>2.05</speed>
  <fix>3d</fix>
</trkpt>
<trkpt lat="40.0714703" lon="-105.2295136">
  <ele>1583.05</ele>
  <time>2026-08-27T17:17:26Z</time>
  <course>107.33</course>
  <speed>2.0316003544004415</speed>
  <fix>3d</fix>
</trkpt>
<trkpt lat="40.0714719" lon="-105.2295207">
  <ele>1583.0</ele>
  <time>2026-08-27T17:17:26Z</time>
  <course>106.57</course>
  <speed>2.05</speed>
  <fix>3d</fix>
</trkpt>
<trkpt lat="40.0714698" lon="-105.2295113">
  <ele>1583.05</ele>
  <time>2026-08-27T17:17:26Z</time>
  <course>107.33</course>
  <speed>2.0316003544004415</speed>
  <fix>3d</fix>
</trkpt>
<trkpt lat="40.0714708" lon="-105.2295162">
  <ele>1583.0</ele>
  <time>2026-08-27T17:17:26Z</time>
  <course>106.59</course>
  <speed>2.05</speed>
  <fix>3d</fix>
</trkpt>
<trkpt lat="40.0714693" lon="-105.229509">
  <ele>1583.05</ele>
  <time>2026-08-27T17:17:26Z</time>
  <course>107.33</course>
  <speed>2.02881738951538</speed>
  <fix>3d</fix>
</trkpt>
<trkpt lat="40.0714708" lon="-105.2295162">
  <ele>1583.0</ele>
  <time>2026-08-27T17:17:26Z</time>
  <course>106.59</course>
  <speed>2.05</speed>
  <fix>3d</fix>
</trkpt>
<trkpt lat="40.0714687" lon="-105.2295066">
  <ele>1583.05</ele>
  <time>2026-08-27T17:17:26Z</time>
  <course>107.33</course>
  <speed>2.02881738951538</speed>
  <fix>3d</fix>
</trkpt>
<trkpt lat="40.0714698" lon="-105.2295115">
  <ele>1583.0</ele>
  <time>2026-08-27T17:17:26Z</time>
  <course>106.59</course>
  <speed>2.05</speed>
  <fix>3d</fix>
</trkpt>
<trkpt lat="40.0714682" lon="-105.2295043">
  <ele>1583.06</ele>
  <time>2026-08-27T17:17:26Z</time>
  <course>107.33</course>
  <speed>2.02881738951538</speed>
  <fix>3d</fix>
</trkpt>
<trkpt lat="40.0714698" lon="-105.2295115">
  <ele>1583.0</ele>
  <time>2026-08-27T17:17:26Z</time>
  <course>106.59</course>
  <speed>2.05</speed>
  <fix>3d</fix>
</trkpt>
<trkpt lat="40.0714677" lon="-105.229502">
  <ele>1583.06</ele>
  <time>2026-08-27T17:17:26Z</time>
  <course>107.33</course>
  <speed>2.02881738951538</speed>
  <fix>3d</fix>
</trkpt>
<trkpt lat="40.0714687" lon="-105.2295068">
  <ele>1583.0</ele>
  <time>2026-08-27T17:17:26Z</time>
  <course>106.59</course>
  <speed>2.05</speed>
  <fix>3d</fix>
</trkpt>
<trkpt lat="40.0714672" lon="-105.2294997">
  <ele>1583.06</ele>
  <time>2026-08-27T17:17:26Z</time>
  <course>107.33</course>
  <speed>2.02881738951538</speed>
  <fix>3d</fix>
</trkpt>
<trkpt lat="40.0714687" lon="-105.2295068">
  <ele>1583.0</ele>
  <time>2026-08-27T17:17:26Z</time>
  <course>106.59</course>
  <speed>2.05</speed>
  <fix>3d</fix>
</trkpt>
<trkpt lat="40.0714667" lon="-105.2294975">
  <ele>1583.06</ele>
  <time>2026-08-27T17:17:26Z</time>
  <course>107.33</course>
  <speed>2.019207765436732</speed>
  <fix>3d</fix>
</trkpt>
<trkpt lat="40.0714677" lon="-105.2295022">
  <ele>1583.0</ele>
  <time>2026-08-27T17:17:26Z</time>
  <course>106.59</course>
  <speed>2.05</speed>
  <fix>3d</fix>
</trkpt>
<trkpt lat="40.0714662" lon="-105.2294952">
  <ele>1583.06</ele>
  <time>2026-08-27T17:17:26Z</time>
  <course>107.33</course>
  <speed>2.019207765436732</speed>
  <fix>3d</fix>
</trkpt>
<trkpt lat="40.0714677" lon="-105.2295022">
  <ele>1583.0</ele>
  <time>2026-08-27T17:17:26Z</time>
  <course>106.59</course>
  <speed>2.05</speed>
  <fix>3d</fix>
</trkpt>
<trkpt lat="40.0714657" lon="-105.2294929">
  <ele>1583.07</ele>
  <time>2026-08-27T17:17:26Z</time>
  <course>107.33</course>
  <speed>2.019207765436732</speed>
  <fix>3d</fix>
</trkpt>
<trkpt lat="40.0714666" lon="-105.2294976">
  <ele>1583.0</ele>
  <time>2026-08-27T17:17:26Z</time>
  <course>106.59</course>
  <speed>2.05</speed>
  <fix>3d</fix>
</trkpt>
<trkpt lat="40.0714652" lon="-105.2294906">
  <ele>1583.07</ele>
  <time>2026-08-27T17:17:26Z</time>
  <course>107.31</course>
  <speed>2.019207765436732</speed>
  <fix>3d</fix>
</trkpt>
<trkpt lat="40.0714666" lon="-105.2294976">
  <ele>1583.0</ele>
  <time>2026-08-27T17:17:26Z</time>
  <course>106.59</course>
  <speed>2.05</speed>
  <fix>3d</fix>
</trkpt>
<trkpt lat="40.0714647" lon="-105.2294888">
  <ele>1583.07</ele>
  <time>2026-08-27T17:17:26Z</time>
  <course>107.3</course>
  <speed>2.019207765436732</speed>
  <fix>3d</fix>
</trkpt>
<trkpt lat="40.0714655" lon="-105.2294929">
  <ele>1583.0</ele>
  <time>2026-08-27T17:17:26Z</time>
  <course>106.57</course>
  <speed>2.05</speed>
  <fix>3d</fix>
</trkpt>
<trkpt lat="40.0714642" lon="-105.2294865">
  <ele>1583.07</ele>
  <time>2026-08-27T17:17:26Z</time>
  <course>107.28</course>
  <speed>2.019207765436732</speed>
  <fix>3d</fix>
</trkpt>
<trkpt lat="40.0714655" lon="-105.2294929">
  <ele>1583.0</ele>
  <time>2026-08-27T17:17:26Z</time>
  <course>106.57</course>
  <speed>2.05</speed>
  <fix>3d</fix>
</trkpt>
<trkpt lat="40.0714637" lon="-105.2294841">
  <ele>1583.07</ele>
  <time>2026-08-27T17:17:26Z</time>
  <course>107.26</course>
  <speed>2.019207765436732</speed>
  <fix>3d</fix>
</trkpt>
<trkpt lat="40.0714645" lon="-105.2294883">
  <ele>1583.0</ele>
  <time>2026-08-27T17:17:26Z</time>
  <course>106.55</course>
  <speed>2.05</speed>
  <fix>3d</fix>
</trkpt>
<trkpt lat="40.0714632" lon="-105.2294818">
  <ele>1583.08</ele>
  <time>2026-08-27T17:17:26Z</time>
  <course>107.24</course>
  <speed>2.0164572894063486</speed>
  <fix>3d</fix>
</trkpt>
<trkpt lat="40.0714645" lon="-105.2294883">
  <ele>1583.0</ele>
  <time>2026-08-27T17:17:26Z</time>
  <course>106.55</course>
  <speed>2.05</speed>
  <fix>3d</fix>
</trkpt>
<trkpt lat="40.0714626" lon="-105.2294795">
  <ele>1583.08</ele>
  <time>2026-08-27T17:17:26Z</time>
  <course>107.22</course>
  <speed>2.0164572894063486</speed>
  <fix>3d</fix>
</trkpt>
<trkpt lat="40.0714635" lon="-105.2294837">
  <ele>1583.0</ele>
  <time>2026-08-27T17:17:26Z</time>
  <course>106.51</course>
  <speed>2.05</speed>
  <fix>3d</fix>
</trkpt>
<trkpt lat="40.0714621" lon="-105.2294772">
  <ele>1583.08</ele>
  <time>2026-08-27T17:17:26Z</time>
  <course>107.2</course>
  <speed>2.0164572894063486</speed>
  <fix>3d</fix>
</trkpt>
<trkpt lat="40.0714635" lon="-105.2294837">
  <ele>1583.0</ele>
  <time>2026-08-27T17:17:26Z</time>
  <course>106.51</course>
  <speed>2.05</speed>
  <fix>3d</fix>
</trkpt>
<trkpt lat="40.0714616" lon="-105.2294749">
  <ele>1583.08</ele>
  <time>2026-08-27T17:17:26Z</time>
  <course>107.18</course>
  <speed>2.0164572894063486</speed>
  <fix>3d</fix>
</trkpt>
<trkpt lat="40.0714624" lon="-105.229479">
  <ele>1583.0</ele>
  <time>2026-08-27T17:17:26Z</time>
  <course>106.47</course>
  <speed>2.05</speed>
  <fix>3d</fix>
</trkpt>
<trkpt lat="40.0714611" lon="-105.2294726">
  <ele>1583.09</ele>
  <time>2026-08-27T17:17:26Z</time>
  <course>107.16</course>
  <speed>2.0164572894063486</speed>
  <fix>3d</fix>
</trkpt>
<trkpt lat="40.0714624" lon="-105.229479">
  <ele>1583.0</ele>
  <time>2026-08-27T17:17:26Z</time>
  <course>106.47</course>
  <speed>2.05</speed>
  <fix>3d</fix>
</trkpt>
<trkpt lat="40.0714606" lon="-105.2294702">
  <ele>1583.09</ele>
  <time>2026-08-27T17:17:26Z</time>
  <course>107.14</course>
  <speed>2.0164572894063486</speed>
  <fix>3d</fix>
</trkpt>
<trkpt lat="40.0714613" lon="-105.2294744">
  <ele>1583.0</ele>
  <time>2026-08-27T17:17:26Z</time>
  <course>106.43</course>
  <speed>2.05</speed>
  <fix>3d</fix>
</trkpt>
<trkpt lat="40.0714599" lon="-105.2294674">
  <ele>1583.09</ele>
  <time>2026-08-27T17:17:26Z</time>
  <course>107.12</course>
  <speed>2.0164572894063486</speed>
  <fix>3d</fix>
</trkpt>
<trkpt lat="40.0714613" lon="-105.2294744">
  <ele>1583.0</ele>
  <time>2026-08-27T17:17:26Z</time>
  <course>106.43</course>
  <speed>2.05</speed>
  <fix>3d</fix>
</trkpt>
<trkpt lat="40.0714594" lon="-105.2294651">
  <ele>1583.09</ele>
  <time>2026-08-27T17:17:26Z</time>
  <course>107.1</course>
  <speed>2.0164572894063486</speed>
  <fix>3d</fix>
</trkpt>
<trkpt lat="40.0714603" lon="-105.2294698">
  <ele>1583.0</ele>
  <time>2026-08-27T17:17:26Z</time>
  <course>106.39</course>
  <speed>2.06</speed>
  <fix>3d</fix>
</trkpt>
<trkpt lat="40.0714589" lon="-105.2294628">
  <ele>1583.1</ele>
  <time>2026-08-27T17:17:26Z</time>
  <course>107.07</course>
  <speed>2.0164572894063486</speed>
  <fix>3d</fix>
</trkpt>
<trkpt lat="40.0714603" lon="-105.2294698">
  <ele>1583.0</ele>
  <time>2026-08-27T17:17:26Z</time>
  <course>106.39</course>
  <speed>2.06</speed>
  <fix>3d</fix>
</trkpt>
<trkpt lat="40.0714583" lon="-105.2294605">
  <ele>1583.1</ele>
  <time>2026-08-27T17:17:26Z</time>
  <course>107.04</course>
  <speed>2.0164572894063486</speed>
  <fix>3d</fix>
</trkpt>
<trkpt lat="40.0714593" lon="-105.2294651">
  <ele>1583.0</ele>
  <time>2026-08-27T17:17:26Z</time>
  <course>106.35</course>
  <speed>2.06</speed>
  <fix>3d</fix>
</trkpt>
<trkpt lat="40.0714578" lon="-105.2294581">
  <ele>1583.1</ele>
  <time>2026-08-27T17:17:26Z</time>
  <course>107.01</course>
  <speed>2.0164572894063486</speed>
  <fix>3d</fix>
</trkpt>
<trkpt lat="40.0714593" lon="-105.2294651">
  <ele>1583.0</ele>
  <time>2026-08-27T17:17:26Z</time>
  <course>106.35</course>
  <speed>2.06</speed>
  <fix>3d</fix>
</trkpt>
<trkpt lat="40.0714573" lon="-105.2294558">
  <ele>1583.09</ele>
  <time>2026-08-27T17:17:26Z</time>
  <course>106.99</course>
  <speed>2.0164572894063486</speed>
  <fix>3d</fix>
</trkpt>
<trkpt lat="40.0714582" lon="-105.2294605">
  <ele>1583.0</ele>
  <time>2026-08-27T17:17:26Z</time>
  <course>106.29</course>
  <speed>2.06</speed>
  <fix>3d</fix>
</trkpt>
<trkpt lat="40.0714568" lon="-105.2294535">
  <ele>1583.09</ele>
  <time>2026-08-27T17:17:26Z</time>
  <course>106.97</course>
  <speed>2.0164572894063486</speed>
  <fix>3d</fix>
</trkpt>
<trkpt lat="40.0714582" lon="-105.2294605">
  <ele>1583.0</ele>
  <time>2026-08-27T17:17:26Z</time>
  <course>106.29</course>
  <speed>2.06</speed>
  <fix>3d</fix>
</trkpt>
<trkpt lat="40.0714563" lon="-105.2294512">
  <ele>1583.08</ele>
  <time>2026-08-27T17:17:26Z</time>
  <course>106.95</course>
  <speed>2.0068383093812017</speed>
  <fix>3d</fix>
</trkpt>
<trkpt lat="40.0714572" lon="-105.2294559">
  <ele>1583.0</ele>
  <time>2026-08-27T17:17:26Z</time>
  <course>106.24</course>
  <speed>2.06</speed>
  <fix>3d</fix>
</trkpt>
<trkpt lat="40.0714558" lon="-105.229449">
  <ele>1583.08</ele>
  <time>2026-08-27T17:17:26Z</time>
  <course>106.93</course>
  <speed>2.0068383093812017</speed>
  <fix>3d</fix>
</trkpt>
<trkpt lat="40.0714572" lon="-105.2294559">
  <ele>1583.0</ele>
  <time>2026-08-27T17:17:26Z</time>
  <course>106.24</course>
  <speed>2.06</speed>
  <fix>3d</fix>
</trkpt>
<trkpt lat="40.0714552" lon="-105.2294467">
  <ele>1583.07</ele>
  <time>2026-08-27T17:17:26Z</time>
  <course>107.9</course>
  <speed>2.008606482116395</speed>
  <fix>3d</fix>
</trkpt>
<trkpt lat="40.0714562" lon="-105.2294512">
  <ele>1583.0</ele>
  <time>2026-08-27T17:17:26Z</time>
  <course>106.2</course>
  <speed>2.06</speed>
  <fix>3d</fix>
</trkpt>
<trkpt lat="40.0714547" lon="-105.2294444">
  <ele>1583.07</ele>
  <time>2026-08-27T17:17:26Z</time>
  <course>110.96</course>
  <speed>2.0026232796010337</speed>
  <fix>3d</fix>
</trkpt>
<trkpt lat="40.0714562" lon="-105.2294512">
  <ele>1583.0</ele>
  <time>2026-08-27T17:17:26Z</time>
  <course>106.2</course>
  <speed>2.06</speed>
  <fix>3d</fix>
</trkpt>
<trkpt lat="40.0714539" lon="-105.2294422">
  <ele>1583.06</ele>
  <time>2026-08-27T17:17:26Z</time>
  <course>115.82</course>
  <speed>1.9996499693696395</speed>
  <fix>3d</fix>
</trkpt>
<trkpt lat="40.0714551" lon="-105.2294465">
  <ele>1583.0</ele>
  <time>2026-08-27T17:17:26Z</time>
  <course>108.64</course>
  <speed>2.05</speed>
  <fix>3d</fix>
</trkpt>
<trkpt lat="40.0714533" lon="-105.2294405">
  <ele>1583.05</ele>
  <time>2026-08-27T17:17:26Z</time>
  <course>120.94</course>
  <speed>1.98600100704909</speed>
  <fix>3d</fix>
</trkpt>
<trkpt lat="40.0714551" lon="-105.2294465">
  <ele>1583.0</ele>
  <time>2026-08-27T17:17:26Z</time>
  <course>108.64</course>
  <speed>2.05</speed>
  <fix>3d</fix>
</trkpt>
<trkpt lat="40.0714522" lon="-105.2294386">
  <ele>1583.04</ele>
  <time>2026-08-27T17:17:26Z</time>
  <course>128.85</course>
  <speed>1.955326059765992</speed>
  <fix>3d</fix>
</trkpt>
<trkpt lat="40.0714537" lon="-105.2294421">
  <ele>1583.0</ele>
  <time>2026-08-27T17:17:26Z</time>
  <course>117.13</course>
  <speed>2.04</speed>
  <fix>3d</fix>
</trkpt>
<trkpt lat="40.071451" lon="-105.2294369">
  <ele>1583.04</ele>
  <time>2026-08-27T17:17:26Z</time>
  <course>138.3</course>
  <speed>1.9134262462922367</speed>
  <fix>3d</fix>
</trkpt>
<trkpt lat="40.0714537" lon="-105.2294421">
  <ele>1583.0</ele>
  <time>2026-08-27T17:17:26Z</time>
  <course>117.13</course>
  <speed>2.04</speed>
  <fix>3d</fix>
</trkpt>
<trkpt lat="40.0714495" lon="-105.2294356">
  <ele>1583.03</ele>
  <time>2026-08-27T17:17:26Z</time>
  <course>149.05</course>
  <speed>1.8456435192094924</speed>
  <fix>3d</fix>
</trkpt>
<trkpt lat="40.0714517" lon="-105.2294382">
  <ele>1583.0</ele>
  <time>2026-08-27T17:17:26Z</time>
  <course>132.31</course>
  <speed>1.97</speed>
  <fix>3d</fix>
</trkpt>
<trkpt lat="40.071448" lon="-105.2294348">
  <ele>1583.03</ele>
  <time>2026-08-27T17:17:26Z</time>
  <course>160.86</course>
  <speed>1.7711578134090706</speed>
  <fix>3d</fix>
</trkpt>
<trkpt lat="40.0714517" lon="-105.2294382">
  <ele>1583.0</ele>
  <time>2026-08-27T17:17:26Z</time>
  <course>132.31</course>
  <speed>1.97</speed>
  <fix>3d</fix>
</trkpt>
<trkpt lat="40.0714464" lon="-105.2294344">
  <ele>1583.02</ele>
  <time>2026-08-27T17:17:26Z</time>
  <course>172.29</course>
  <speed>1.687601848778319</speed>
  <fix>3d</fix>
</trkpt>
<trkpt lat="40.071449" lon="-105.2294354">
  <ele>1583.0</ele>
  <time>2026-08-27T17:17:26Z</time>
  <course>152.91</course>
  <speed>1.84</speed>
  <fix>3d</fix>
</trkpt>
<trkpt lat="40.0714449" lon="-105.2294344">
  <ele>1583.02</ele>
  <time>2026-08-27T17:17:26Z</time>
  <course>183.15</course>
  <speed>1.6079800993793425</speed>
  <fix>3d</fix>
</trkpt>
<trkpt lat="40.071449" lon="-105.2294354">
  <ele>1583.0</ele>
  <time>2026-08-27T17:17:26Z</time>
  <course>152.91</course>
  <speed>1.84</speed>
  <fix>3d</fix>
</trkpt>
<trkpt lat="40.0714434" lon="-105.2294347">
  <ele>1583.01</ele>
  <time>2026-08-27T17:17:26Z</time>
  <course>193.5</course>
  <speed>1.5316004700965586</speed>
  <fix>3d</fix>
</trkpt>
<trkpt lat="40.0714459" lon="-105.2294343">
  <ele>1583.0</ele>
  <time>2026-08-27T17:17:26Z</time>
  <course>175.25</course>
  <speed>1.68</speed>
  <fix>3d</fix>
</trkpt>
<trkpt lat="40.0714421" lon="-105.2294354">
  <ele>1583.0</ele>
  <time>2026-08-27T17:17:26Z</time>
  <course>203.32</course>
  <speed>1.4892279879185724</speed>
  <fix>3d</fix>
</trkpt>
<trkpt lat="40.0714459" lon="-105.2294343">
  <ele>1583.0</ele>
  <time>2026-08-27T17:17:26Z</time>
  <course>175.25</course>
  <speed>1.68</speed>
  <fix>3d</fix>
</trkpt>
<trkpt lat="40.0714407" lon="-105.2294365">
  <ele>1583.0</ele>
  <time>2026-08-27T17:17:26Z</time>
  <course>214.73</course>
  <speed>1.474347313220328</speed>
  <fix>3d</fix>
</trkpt>
<trkpt lat="40.071443" lon="-105.2294347">
  <ele>1583.0</ele>
  <time>2026-08-27T17:17:26Z</time>
  <course>196.24</course>
  <speed>1.53</speed>
  <fix>3d</fix>
</trkpt>
<trkpt lat="40.0714397" lon="-105.2294377">
  <ele>1582.99</ele>
  <time>2026-08-27T17:17:26Z</time>
  <course>224.09</course>
  <speed>1.4724808997063425</speed>
  <fix>3d</fix>
</trkpt>
<trkpt lat="40.071443" lon="-105.2294347">
  <ele>1583.0</ele>
  <time>2026-08-27T17:17:26Z</time>
  <course>196.24</course>
  <speed>1.53</speed>
  <fix>3d</fix>
</trkpt>
<trkpt lat="40.0714389" lon="-105.2294391">
  <ele>1582.98</ele>
  <time>2026-08-27T17:17:26Z</time>
  <course>233.34</course>
  <speed>1.4589036979869507</speed>
  <fix>3d</fix>
</trkpt>
<trkpt lat="40.0714406" lon="-105.2294362">
  <ele>1583.0</ele>
  <time>2026-08-27T17:17:26Z</time>
  <course>215.78</course>
  <speed>1.46</speed>
  <fix>3d</fix>
</trkpt>
<trkpt lat="40.0714383" lon="-105.2294405">
  <ele>1582.98</ele>
  <time>2026-08-27T17:17:26Z</time>
  <course>242.35</course>
  <speed>1.4276203977248294</speed>
  <fix>3d</fix>
</trkpt>
<trkpt lat="40.0714406" lon="-105.2294362">
  <ele>1583.0</ele>
  <time>2026-08-27T17:17:26Z</time>
  <course>215.78</course>
  <speed>1.46</speed>
  <fix>3d</fix>
</trkpt>
<trkpt lat="40.0714378" lon="-105.229442">
  <ele>1582.98</ele>
  <time>2026-08-27T17:17:26Z</time>
  <course>251.03</course>
  <speed>1.3832208789632983</speed>
  <fix>3d</fix>
</trkpt>
<trkpt lat="40.0714388" lon="-105.2294385">
  <ele>1583.0</ele>
  <time>2026-08-27T17:17:26Z</time>
  <course>234.12</course>
  <speed>1.4</speed>
  <fix>3d</fix>
</trkpt>
<trkpt lat="40.0714375" lon="-105.2294435">
  <ele>1582.98</ele>
  <time>2026-08-27T17:17:26Z</time>
  <course>259.48</course>
  <speed>1.3732079230764729</speed>
  <fix>3d</fix>
</trkpt>
<trkpt lat="40.0714388" lon="-105.2294385">
  <ele>1583.0</ele>
  <time>2026-08-27T17:17:26Z</time>
  <course>234.12</course>
  <speed>1.4</speed>
  <fix>3d</fix>
</trkpt>
<trkpt lat="40.0714374" lon="-105.2294451">
  <ele>1582.99</ele>
  <time>2026-08-27T17:17:26Z</time>
  <course>267.88</course>
  <speed>1.38</speed>
  <fix>3d</fix>
</trkpt>
<trkpt lat="40.0714378" lon="-105.2294413">
  <ele>1583.0</ele>
  <time>2026-08-27T17:17:26Z</time>
  <course>251.84</course>
  <speed>1.33</speed>
  <fix>3d</fix>
</trkpt>
<trkpt lat="40.0714375" lon="-105.2294467">
  <ele>1582.99</ele>
  <time>2026-08-27T17:17:26Z</time>
  <course>276.09</course>
  <speed>1.412834031300209</speed>
  <fix>3d</fix>
</trkpt>
<trkpt lat="40.0714378" lon="-105.2294413">
  <ele>1583.0</ele>
  <time>2026-08-27T17:17:26Z</time>
  <course>251.84</course>
  <speed>1.33</speed>
  <fix>3d</fix>
</trkpt>
<trkpt lat="40.0714391" lon="-105.2294527">
  <ele>1583.01</ele>
  <time>2026-08-27T17:17:26Z</time>
  <course>296.55</course>
  <speed>1.614465855941215</speed>
  <fix>3d</fix>
</trkpt>
<trkpt lat="40.0714375" lon="-105.2294475">
  <ele>1583.0</ele>
  <time>2026-08-27T17:17:26Z</time>
  <course>283.5</course>
  <speed>1.4</speed>
  <fix>3d</fix>
</trkpt>
<trkpt lat="40.0714408" lon="-105.2294568">
  <ele>1583.01</ele>
  <time>2026-08-27T17:17:27Z</time>
  <course>300.82</course>
  <speed>1.7715812146215595</speed>
  <fix>3d</fix>
</trkpt>
<trkpt lat="40.0714397" lon="-105.2294541">
  <ele>1583.0</ele>
  <time>2026-08-27T17:17:27Z</time>
  <course>298.62</course>
  <speed>1.65</speed>
  <fix>3d</fix>
</trkpt>
<trkpt lat="40.0714416" lon="-105.2294585">
  <ele>1583.01</ele>
  <time>2026-08-27T17:17:27Z</time>
  <course>301.99</course>
  <speed>1.8284966502567075</speed>
  <fix>3d</fix>
</trkpt>
<trkpt lat="40.0714397" lon="-105.2294541">
  <ele>1583.0</ele>
  <time>2026-08-27T17:17:27Z</time>
  <course>298.62</course>
  <speed>1.65</speed>
  <fix>3d</fix>
</trkpt>
<trkpt lat="40.0714425" lon="-105.2294603">
  <ele>1583.01</ele>
  <time>2026-08-27T17:17:27Z</time>
  <course>302.9</course>
  <speed>1.8806381895516213</speed>
  <fix>3d</fix>
</trkpt>
<trkpt lat="40.0714412" lon="-105.2294576">
  <ele>1583.0</ele>
  <time>2026-08-27T17:17:27Z</time>
  <course>301.24</course>
  <speed>1.78</speed>
  <fix>3d</fix>
</trkpt>
<trkpt lat="40.0714434" lon="-105.2294622">
  <ele>1583.02</ele>
  <time>2026-08-27T17:17:27Z</time>
  <course>303.6</course>
  <speed>1.9192706948213427</speed>
  <fix>3d</fix>
</trkpt>
<trkpt lat="40.0714412" lon="-105.2294576">
  <ele>1583.0</ele>
  <time>2026-08-27T17:17:27Z</time>
  <course>301.24</course>
  <speed>1.78</speed>
  <fix>3d</fix>
</trkpt>
<trkpt lat="40.0714444" lon="-105.229464">
  <ele>1583.02</ele>
  <time>2026-08-27T17:17:27Z</time>
  <course>304.13</course>
  <speed>1.9525624189766637</speed>
  <fix>3d</fix>
</trkpt>
<trkpt lat="40.071443" lon="-105.2294613">
  <ele>1583.0</ele>
  <time>2026-08-27T17:17:27Z</time>
  <course>302.89</course>
  <speed>1.87</speed>
  <fix>3d</fix>
</trkpt>
<trkpt lat="40.0714453" lon="-105.2294659">
  <ele>1583.02</ele>
  <time>2026-08-27T17:17:27Z</time>
  <course>304.25</course>
  <speed>1.908219064992277</speed>
  <fix>3d</fix>
</trkpt>
<trkpt lat="40.071443" lon="-105.2294613">
  <ele>1583.0</ele>
  <time>2026-08-27T17:17:27Z</time>
  <course>302.89</course>
  <speed>1.87</speed>
  <fix>3d</fix>
</trkpt>
<trkpt lat="40.0714471" lon="-105.2294694">
  <ele>1583.04</ele>
  <time>2026-08-27T17:17:27Z</time>
  <course>304.22</course>
  <speed>1.7445343218177165</speed>
  <fix>3d</fix>
</trkpt>
<trkpt lat="40.0714448" lon="-105.229465">
  <ele>1583.0</ele>
  <time>2026-08-27T17:17:27Z</time>
  <course>303.53</course>
  <speed>1.85</speed>
  <fix>3d</fix>
</trkpt>
<trkpt lat="40.0714481" lon="-105.2294714">
  <ele>1583.04</ele>
  <time>2026-08-27T17:17:27Z</time>
  <course>304.22</course>
  <speed>1.6585535867134351</speed>
  <fix>3d</fix>
</trkpt>
<trkpt lat="40.0714466" lon="-105.2294685">
  <ele>1583.0</ele>
  <time>2026-08-27T17:17:27Z</time>
  <course>303.57</course>
  <speed>1.71</speed>
  <fix>3d</fix>
</trkpt>
<trkpt lat="40.0714489" lon="-105.2294729">
  <ele>1583.05</ele>
  <time>2026-08-27T17:17:27Z</time>
  <course>304.23</course>
  <speed>1.6003124694883808</speed>
  <fix>3d</fix>
</trkpt>
<trkpt lat="40.0714466" lon="-105.2294685">
  <ele>1583.0</ele>
  <time>2026-08-27T17:17:27Z</time>
  <course>303.57</course>
  <speed>1.71</speed>
  <fix>3d</fix>
</trkpt>
<trkpt lat="40.0714497" lon="-105.2294744">
  <ele>1583.05</ele>
  <time>2026-08-27T17:17:27Z</time>
  <course>304.23</course>
  <speed>1.5503870484495155</speed>
  <fix>3d</fix>
</trkpt>
<trkpt lat="40.0714482" lon="-105.2294717">
  <ele>1583.0</ele>
  <time>2026-08-27T17:17:27Z</time>
  <course>303.57</course>
  <speed>1.59</speed>
  <fix>3d</fix>
</trkpt>
<trkpt lat="40.0714504" lon="-105.2294759">
  <ele>1583.05</ele>
  <time>2026-08-27T17:17:27Z</time>
  <course>304.23</course>
  <speed>1.5088074761214565</speed>
  <fix>3d</fix>
</trkpt>
<trkpt lat="40.0714482" lon="-105.2294717">
  <ele>1583.0</ele>
  <time>2026-08-27T17:17:27Z</time>
  <course>303.57</course>
  <speed>1.59</speed>
  <fix>3d</fix>
</trkpt>
<trkpt lat="40.0714511" lon="-105.2294773">
  <ele>1583.04</ele>
  <time>2026-08-27T17:17:27Z</time>
  <course>304.23</course>
  <speed>1.4811144452742335</speed>
  <fix>3d</fix>
</trkpt>
<trkpt lat="40.0714497" lon="-105.2294747">
  <ele>1583.0</ele>
  <time>2026-08-27T17:17:27Z</time>
  <course>303.57</course>
  <speed>1.5</speed>
  <fix>3d</fix>
</trkpt>
<trkpt lat="40.0714518" lon="-105.2294787">
  <ele>1583.04</ele>
  <time>2026-08-27T17:17:27Z</time>
  <course>304.24</course>
  <speed>1.436697602141801</speed>
  <fix>3d</fix>
</trkpt>
<trkpt lat="40.0714497" lon="-105.2294747">
  <ele>1583.0</ele>
  <time>2026-08-27T17:17:27Z</time>
  <course>303.57</course>
  <speed>1.5</speed>
  <fix>3d</fix>
</trkpt>
<trkpt lat="40.0714525" lon="-105.2294801">
  <ele>1583.03</ele>
  <time>2026-08-27T17:17:27Z</time>
  <course>304.24</course>
  <speed>1.3867948658687772</speed>
  <fix>3d</fix>
</trkpt>
<trkpt lat="40.0714512" lon="-105.2294776">
  <ele>1583.0</ele>
  <time>2026-08-27T17:17:27Z</time>
  <course>303.57</course>
  <speed>1.43</speed>
  <fix>3d</fix>
</trkpt>
<trkpt lat="40.0714549" lon="-105.2294851">
  <ele>1583.0</ele>
  <time>2026-08-27T17:17:27Z</time>
  <course>304.25</course>
  <speed>1.250959631642844</speed>
  <fix>3d</fix>
</trkpt>
<trkpt lat="40.0714539" lon="-105.2294829">
  <ele>1583.0</ele>
  <time>2026-08-27T17:17:27Z</time>
  <course>303.57</course>
  <speed>1.29</speed>
  <fix>3d</fix>
</trkpt>
<trkpt lat="40.0714559" lon="-105.229487">
  <ele>1582.99</ele>
  <time>2026-08-27T17:17:27Z</time>
  <course>304.25</course>
  <speed>1.2149074038789953</speed>
  <fix>3d</fix>
</trkpt>
<trkpt lat="40.0714539" lon="-105.2294829">
  <ele>1583.0</ele>
  <time>2026-08-27T17:17:27Z</time>
  <course>303.57</course>
  <speed>1.29</speed>
  <fix>3d</fix>
</trkpt>
<trkpt lat="40.071456" lon="-105.2294872">
  <ele>1582.99</ele>
  <time>2026-08-27T17:17:27Z</time>
  <course>304.25</course>
  <speed>1.2095040305844376</speed>
  <fix>3d</fix>
</trkpt>
<trkpt lat="40.0714551" lon="-105.2294855">
  <ele>1583.0</ele>
  <time>2026-08-27T17:17:27Z</time>
  <course>303.57</course>
  <speed>1.24</speed>
  <fix>3d</fix>
</trkpt>
<trkpt lat="40.0714566" lon="-105.2294884">
  <ele>1582.99</ele>
  <time>2026-08-27T17:17:27Z</time>
  <course>304.26</course>
  <speed>1.1872657663724664</speed>
  <fix>3d</fix>
</trkpt>
<trkpt lat="40.0714551" lon="-105.2294855">
  <ele>1583.0</ele>
  <time>2026-08-27T17:17:27Z</time>
  <course>303.57</course>
  <speed>1.24</speed>
  <fix>3d</fix>
</trkpt>
<trkpt lat="40.0714571" lon="-105.2294895">
  <ele>1583.0</ele>
  <time>2026-08-27T17:17:27Z</time>
  <course>304.26</course>
  <speed>1.1650321883965267</speed>
  <fix>3d</fix>
</trkpt>
<trkpt lat="40.0714563" lon="-105.2294878">
  <ele>1583.0</ele>
  <time>2026-08-27T17:17:27Z</time>
  <course>303.57</course>
  <speed>1.2</speed>
  <fix>3d</fix>
</trkpt>
<trkpt lat="40.0714577" lon="-105.2294906">
  <ele>1583.0</ele>
  <time>2026-08-27T17:17:27Z</time>
  <course>304.26</course>
  <speed>1.151216747619665</speed>
  <fix>3d</fix>
</trkpt>
<trkpt lat="40.0714563" lon="-105.2294878">
  <ele>1583.0</ele>
  <time>2026-08-27T17:17:27Z</time>
  <course>303.57</course>
  <speed>1.2</speed>
  <fix>3d</fix>
</trkpt>
<trkpt lat="40.0714582" lon="-105.2294917">
  <ele>1583.0</ele>
  <time>2026-08-27T17:17:27Z</time>
  <course>304.26</course>
  <speed>1.1289818421923357</speed>
  <fix>3d</fix>
</trkpt>
<trkpt lat="40.0714575" lon="-105.2294901">
  <ele>1583.0</ele>
  <time>2026-08-27T17:17:27Z</time>
  <course>303.57</course>
  <speed>1.16</speed>
  <fix>3d</fix>
</trkpt>
<trkpt lat="40.0714588" lon="-105.2294928">
  <ele>1583.0</ele>
  <time>2026-08-27T17:17:27Z</time>
  <course>304.26</course>
  <speed>1.1151681487560519</speed>
  <fix>3d</fix>
</trkpt>
<trkpt lat="40.0714575" lon="-105.2294901">
  <ele>1583.0</ele>
  <time>2026-08-27T17:17:27Z</time>
  <course>303.57</course>
  <speed>1.16</speed>
  <fix>3d</fix>
</trkpt>
<trkpt lat="40.0714593" lon="-105.2294939">
  <ele>1583.01</ele>
  <time>2026-08-27T17:17:27Z</time>
  <course>304.26</course>
  <speed>1.1013627921806692</speed>
  <fix>3d</fix>
</trkpt>
<trkpt lat="40.0714587" lon="-105.2294924">
  <ele>1583.0</ele>
  <time>2026-08-27T17:17:27Z</time>
  <course>303.57</course>
  <speed>1.13</speed>
  <fix>3d</fix>
</trkpt>
<trkpt lat="40.0714599" lon="-105.229495">
  <ele>1583.01</ele>
  <time>2026-08-27T17:17:27Z</time>
  <course>304.27</course>
  <speed>1.087566089945802</speed>
  <fix>3d</fix>
</trkpt>
<trkpt lat="40.0714587" lon="-105.2294924">
  <ele>1583.0</ele>
  <time>2026-08-27T17:17:27Z</time>
  <course>303.57</course>
  <speed>1.13</speed>
  <fix>3d</fix>
</trkpt>
<trkpt lat="40.0714604" lon="-105.2294961">
  <ele>1583.01</ele>
  <time>2026-08-27T17:17:27Z</time>
  <course>304.27</course>
  <speed>1.0653168542738822</speed>
  <fix>3d</fix>
</trkpt>
<trkpt lat="40.0714598" lon="-105.2294946">
  <ele>1583.0</ele>
  <time>2026-08-27T17:17:27Z</time>
  <course>303.57</course>
  <speed>1.11</speed>
  <fix>3d</fix>
</trkpt>
<trkpt lat="40.071461" lon="-105.2294973">
  <ele>1583.02</ele>
  <time>2026-08-27T17:17:27Z</time>
  <course>304.27</course>
  <speed>1.056882207249228</speed>
  <fix>3d</fix>
</trkpt>
<trkpt lat="40.0714598" lon="-105.2294946">
  <ele>1583.0</ele>
  <time>2026-08-27T17:17:27Z</time>
  <course>303.57</course>
  <speed>1.11</speed>
  <fix>3d</fix>
</trkpt>
<trkpt lat="40.0714615" lon="-105.2294984">
  <ele>1583.02</ele>
  <time>2026-08-27T17:17:27Z</time>
  <course>304.27</course>
  <speed>1.043072384832424</speed>
  <fix>3d</fix>
</trkpt>
<trkpt lat="40.0714609" lon="-105.2294967">
  <ele>1583.0</ele>
  <time>2026-08-27T17:17:27Z</time>
  <course>303.57</course>
  <speed>1.09</speed>
  <fix>3d</fix>
</trkpt>
<trkpt lat="40.0714621" lon="-105.2294994">
  <ele>1583.02</ele>
  <time>2026-08-27T17:17:27Z</time>
  <course>304.27</course>
  <speed>1.043072384832424</speed>
  <fix>3d</fix>
</trkpt>
<trkpt lat="40.0714609" lon="-105.2294967">
  <ele>1583.0</ele>
  <time>2026-08-27T17:17:27Z</time>
  <course>303.57</course>
  <speed>1.09</speed>
  <fix>3d</fix>
</trkpt>
<trkpt lat="40.0714626" lon="-105.2295005">
  <ele>1583.02</ele>
  <time>2026-08-27T17:17:27Z</time>
  <course>304.27</course>
  <speed>1.029271587094485</speed>
  <fix>3d</fix>
</trkpt>
<trkpt lat="40.071462" lon="-105.2294989">
  <ele>1583.0</ele>
  <time>2026-08-27T17:17:27Z</time>
  <course>303.57</course>
  <speed>1.07</speed>
  <fix>3d</fix>
</trkpt>
<trkpt lat="40.0714631" lon="-105.2295015">
  <ele>1583.02</ele>
  <time>2026-08-27T17:17:27Z</time>
  <course>304.27</course>
  <speed>1.0208329931972222</speed>
  <fix>3d</fix>
</trkpt>
<trkpt lat="40.071462" lon="-105.2294989">
  <ele>1583.0</ele>
  <time>2026-08-27T17:17:27Z</time>
  <course>303.57</course>
  <speed>1.07</speed>
  <fix>3d</fix>
</trkpt>
<trkpt lat="40.0714636" lon="-105.2295025">
  <ele>1583.02</ele>
  <time>2026-08-27T17:17:27Z</time>
  <course>304.27</course>
  <speed>1.0070253224224304</speed>
  <fix>3d</fix>
</trkpt>
<trkpt lat="40.0714631" lon="-105.229501">
  <ele>1583.0</ele>
  <time>2026-08-27T17:17:27Z</time>
  <course>303.57</course>
  <speed>1.06</speed>
  <fix>3d</fix>
</trkpt>
<trkpt lat="40.0714641" lon="-105.2295035">
  <ele>1583.02</ele>
  <time>2026-08-27T17:17:27Z</time>
  <course>304.27</course>
  <speed>1.0070253224224304</speed>
  <fix>3d</fix>
</trkpt>
<trkpt lat="40.0714631" lon="-105.229501">
  <ele>1583.0</ele>
  <time>2026-08-27T17:17:27Z</time>
  <course>303.57</course>
  <speed>1.06</speed>
  <fix>3d</fix>
</trkpt>
<trkpt lat="40.0714646" lon="-105.2295045">
  <ele>1583.01</ele>
  <time>2026-08-27T17:17:27Z</time>
  <course>304.27</course>
  <speed>0.9985990186255943</speed>
  <fix>3d</fix>
</trkpt>
<trkpt lat="40.0714641" lon="-105.229503">
  <ele>1583.0</ele>
  <time>2026-08-27T17:17:27Z</time>
  <course>303.57</course>
  <speed>1.04</speed>
  <fix>3d</fix>
</trkpt>
<trkpt lat="40.0714652" lon="-105.2295055">
  <ele>1583.01</ele>
  <time>2026-08-27T17:17:27Z</time>
  <course>304.27</course>
  <speed>0.9985990186255943</speed>
  <fix>3d</fix>
</trkpt>
<trkpt lat="40.0714641" lon="-105.229503">
  <ele>1583.0</ele>
  <time>2026-08-27T17:17:27Z</time>
  <course>303.57</course>
  <speed>1.04</speed>
  <fix>3d</fix>
</trkpt>
<trkpt lat="40.0714657" lon="-105.2295065">
  <ele>1583.01</ele>
  <time>2026-08-27T17:17:27Z</time>
  <course>304.28</course>
  <speed>0.9847842403288144</speed>
  <fix>3d</fix>
</trkpt>
<trkpt lat="40.0714652" lon="-105.2295051">
  <ele>1583.0</ele>
  <time>2026-08-27T17:17:27Z</time>
  <course>303.57</course>
  <speed>1.03</speed>
  <fix>3d</fix>
</trkpt>
<trkpt lat="40.0714662" lon="-105.2295074">
  <ele>1583.0</ele>
  <time>2026-08-27T17:17:27Z</time>
  <course>304.28</course>
  <speed>0.9763708311906906</speed>
  <fix>3d</fix>
</trkpt>
<trkpt lat="40.0714652" lon="-105.2295051">
  <ele>1583.0</ele>
  <time>2026-08-27T17:17:27Z</time>
  <course>303.57</course>
  <speed>1.03</speed>
  <fix>3d</fix>
</trkpt>
<trkpt lat="40.0714666" lon="-105.2295082">
  <ele>1583.0</ele>
  <time>2026-08-27T17:17:27Z</time>
  <course>304.28</course>
  <speed>0.9763708311906906</speed>
  <fix>3d</fix>
</trkpt>
<trkpt lat="40.0714661" lon="-105.229507">
  <ele>1583.0</ele>
  <time>2026-08-27T17:17:27Z</time>
  <course>303.57</course>
  <speed>1.02</speed>
  <fix>3d</fix>
</trkpt>
<trkpt lat="40.0714671" lon="-105.2295092">
  <ele>1582.99</ele>
  <time>2026-08-27T17:17:27Z</time>
  <course>304.28</course>
  <speed>0.9763708311906906</speed>
  <fix>3d</fix>
</trkpt>
<trkpt lat="40.0714661" lon="-105.229507">
  <ele>1583.0</ele>
  <time>2026-08-27T17:17:27Z</time>
  <course>303.57</course>
  <speed>1.02</speed>
  <fix>3d</fix>
</trkpt>
<trkpt lat="40.0714676" lon="-105.2295102">
  <ele>1582.99</ele>
  <time>2026-08-27T17:17:27Z</time>
  <course>304.28</course>
  <speed>0.9679876032264049</speed>
  <fix>3d</fix>
</trkpt>
<trkpt lat="40.0714672" lon="-105.2295091">
  <ele>1583.0</ele>
  <time>2026-08-27T17:17:27Z</time>
  <course>303.57</course>
  <speed>1.01</speed>
  <fix>3d</fix>
</trkpt>
<trkpt lat="40.0714681" lon="-105.2295111">
  <ele>1582.98</ele>
  <time>2026-08-27T17:17:27Z</time>
  <course>304.28</course>
  <speed>0.9679876032264049</speed>
  <fix>3d</fix>
</trkpt>
<trkpt lat="40.0714672" lon="-105.2295091">
  <ele>1583.0</ele>
  <time>2026-08-27T17:17:27Z</time>
  <course>303.57</course>
  <speed>1.01</speed>
  <fix>3d</fix>
</trkpt>
<trkpt lat="40.0714686" lon="-105.2295121">
  <ele>1582.98</ele>
  <time>2026-08-27T17:17:27Z</time>
  <course>304.28</course>
  <speed>0.9541488353501251</speed>
  <fix>3d</fix>
</trkpt>
<trkpt lat="40.0714682" lon="-105.2295111">
  <ele>1583.0</ele>
  <time>2026-08-27T17:17:27Z</time>
  <course>303.57</course>
  <speed>1.01</speed>
  <fix>3d</fix>
</trkpt>
<trkpt lat="40.0714691" lon="-105.2295131">
  <ele>1582.97</ele>
  <time>2026-08-27T17:17:27Z</time>
  <course>304.28</course>
  <speed>0.9541488353501251</speed>
  <fix>3d</fix>
</trkpt>
<trkpt lat="40.0714682" lon="-105.2295111">
  <ele>1583.0</ele>
  <time>2026-08-27T17:17:27Z</time>
  <course>303.57</course>
  <speed>1.01</speed>
  <fix>3d</fix>
</trkpt>
<trkpt lat="40.0714696" lon="-105.2295141">
  <ele>1582.97</ele>
  <time>2026-08-27T17:17:27Z</time>
  <course>304.28</course>
  <speed>0.9541488353501251</speed>
  <fix>3d</fix>
</trkpt>
<trkpt lat="40.0714691" lon="-105.229513">
  <ele>1583.0</ele>
  <time>2026-08-27T17:17:27Z</time>
  <course>303.57</course>
  <speed>1.0</speed>
  <fix>3d</fix>
</trkpt>
<trkpt lat="40.0714701" lon="-105.229515">
  <ele>1582.96</ele>
  <time>2026-08-27T17:17:27Z</time>
  <course>304.29</course>
  <speed>0.9457801012920498</speed>
  <fix>3d</fix>
</trkpt>
<trkpt lat="40.0714691" lon="-105.229513">
  <ele>1583.0</ele>
  <time>2026-08-27T17:17:27Z</time>
  <course>303.57</course>
  <speed>1.0</speed>
  <fix>3d</fix>
</trkpt>
<trkpt lat="40.0714706" lon="-105.229516">
  <ele>1582.95</ele>
  <time>2026-08-27T17:17:27Z</time>
  <course>304.29</course>
  <speed>0.9457801012920498</speed>
  <fix>3d</fix>
</trkpt>
<trkpt lat="40.0714702" lon="-105.229515">
  <ele>1583.0</ele>
  <time>2026-08-27T17:17:27Z</time>
  <course>303.57</course>
  <speed>1.0</speed>
  <fix>3d</fix>
</trkpt>
<trkpt lat="40.0714712" lon="-105.2295172">
  <ele>1582.95</ele>
  <time>2026-08-27T17:17:27Z</time>
  <course>304.29</course>
  <speed>0.9457801012920498</speed>
  <fix>3d</fix>
</trkpt>
<trkpt lat="40.0714702" lon="-105.229515">
  <ele>1583.0</ele>
  <time>2026-08-27T17:17:27Z</time>
  <course>303.57</course>
  <speed>1.0</speed>
  <fix>3d</fix>
</trkpt>
<trkpt lat="40.0714717" lon="-105.2295181">
  <ele>1582.95</ele>
  <time>2026-08-27T17:17:27Z</time>
  <course>304.29</course>
  <speed>0.9457801012920498</speed>
  <fix>3d</fix>
</trkpt>
<trkpt lat="40.0714712" lon="-105.2295169">
  <ele>1583.0</ele>
  <time>2026-08-27T17:17:27Z</time>
  <course>303.57</course>
  <speed>0.99</speed>
  <fix>3d</fix>
</trkpt>
<trkpt lat="40.0714722" lon="-105.2295191">
  <ele>1582.95</ele>
  <time>2026-08-27T17:17:27Z</time>
  <course>304.29</course>
  <speed>0.9374433316206372</speed>
  <fix>3d</fix>
</trkpt>
<trkpt lat="40.0714712" lon="-105.2295169">
  <ele>1583.0</ele>
  <time>2026-08-27T17:17:27Z</time>
  <course>303.57</course>
  <speed>0.99</speed>
  <fix>3d</fix>
</trkpt>
<trkpt lat="40.0714727" lon="-105.22952">
  <ele>1582.95</ele>
  <time>2026-08-27T17:17:27Z</time>
  <course>304.3</course>
  <speed>0.9374433316206372</speed>
  <fix>3d</fix>
</trkpt>
<trkpt lat="40.0714722" lon="-105.2295189">
  <ele>1583.0</ele>
  <time>2026-08-27T17:17:27Z</time>
  <course>303.57</course>
  <speed>0.99</speed>
  <fix>3d</fix>
</trkpt>
<trkpt lat="40.0714732" lon="-105.229521">
  <ele>1582.95</ele>
  <time>2026-08-27T17:17:27Z</time>
  <course>304.3</course>
  <speed>0.9374433316206372</speed>
  <fix>3d</fix>
</trkpt>
<trkpt lat="40.0714722" lon="-105.2295189">
  <ele>1583.0</ele>
  <time>2026-08-27T17:17:27Z</time>
  <course>303.57</course>
  <speed>0.99</speed>
  <fix>3d</fix>
</trkpt>
<trkpt lat="40.0714737" lon="-105.2295219">
  <ele>1582.96</ele>
  <time>2026-08-27T17:17:27Z</time>
  <course>304.3</course>
  <speed>0.9374433316206372</speed>
  <fix>3d</fix>
</trkpt>
<trkpt lat="40.0714732" lon="-105.2295209">
  <ele>1583.0</ele>
  <time>2026-08-27T17:17:27Z</time>
  <course>303.57</course>
  <speed>0.98</speed>
  <fix>3d</fix>
</trkpt>
<trkpt lat="40.0714742" lon="-105.2295229">
  <ele>1582.96</ele>
  <time>2026-08-27T17:17:27Z</time>
  <course>304.3</course>
  <speed>0.9430270409696638</speed>
  <fix>3d</fix>
</trkpt>
<trkpt lat="40.0714732" lon="-105.2295209">
  <ele>1583.0</ele>
  <time>2026-08-27T17:17:27Z</time>
  <course>303.57</course>
  <speed>0.98</speed>
  <fix>3d</fix>
</trkpt>
<trkpt lat="40.0714747" lon="-105.2295239">
  <ele>1582.96</ele>
  <time>2026-08-27T17:17:27Z</time>
  <course>303.54</course>
  <speed>1.045609869884557</speed>
  <fix>3d</fix>
</trkpt>
<trkpt lat="40.0714742" lon="-105.2295228">
  <ele>1583.0</ele>
  <time>2026-08-27T17:17:27Z</time>
  <course>303.3</course>
  <speed>1.03</speed>
  <fix>3d</fix>
</trkpt>
<trkpt lat="40.0714752" lon="-105.229525">
  <ele>1582.97</ele>
  <time>2026-08-27T17:17:27Z</time>
  <course>301.58</course>
  <speed>1.149086593777858</speed>
  <fix>3d</fix>
</trkpt>
<trkpt lat="40.0714742" lon="-105.2295228">
  <ele>1583.0</ele>
  <time>2026-08-27T17:17:27Z</time>
  <course>303.3</course>
  <speed>1.03</speed>
  <fix>3d</fix>
</trkpt>
<trkpt lat="40.0714758" lon="-105.2295263">
  <ele>1582.97</ele>
  <time>2026-08-27T17:17:27Z</time>
  <course>298.52</course>
  <speed>1.2258874336577563</speed>
  <fix>3d</fix>
</trkpt>
<trkpt lat="40.0714752" lon="-105.229525">
  <ele>1583.0</ele>
  <time>2026-08-27T17:17:27Z</time>
  <course>300.56</course>
  <speed>1.16</speed>
  <fix>3d</fix>
</trkpt>
<trkpt lat="40.0714763" lon="-105.2295277">
  <ele>1582.98</ele>
  <time>2026-08-27T17:17:27Z</time>
  <course>294.37</course>
  <speed>1.2803515142334936</speed>
  <fix>3d</fix>
</trkpt>
<trkpt lat="40.0714752" lon="-105.229525">
  <ele>1583.0</ele>
  <time>2026-08-27T17:17:27Z</time>
  <course>300.56</course>
  <speed>1.16</speed>
  <fix>3d</fix>
</trkpt>
<trkpt lat="40.0714768" lon="-105.2295291">
  <ele>1582.98</ele>
  <time>2026-08-27T17:17:27Z</time>
  <course>289.08</course>
  <speed>1.3186735759845953</speed>
  <fix>3d</fix>
</trkpt>
<trkpt lat="40.0714762" lon="-105.2295276">
  <ele>1583.0</ele>
  <time>2026-08-27T17:17:27Z</time>
  <course>293.76</course>
  <speed>1.3</speed>
  <fix>3d</fix>
</trkpt>
<trkpt lat="40.071477" lon="-105.2295304">
  <ele>1582.99</ele>
  <time>2026-08-27T17:17:27Z</time>
  <course>284.13</course>
  <speed>1.3461797799699713</speed>
  <fix>3d</fix>
</trkpt>
<trkpt lat="40.0714762" lon="-105.2295276">
  <ele>1583.0</ele>
  <time>2026-08-27T17:17:27Z</time>
  <course>293.76</course>
  <speed>1.3</speed>
  <fix>3d</fix>
</trkpt>
<trkpt lat="40.0714772" lon="-105.229532">
  <ele>1582.99</ele>
  <time>2026-08-27T17:17:27Z</time>
  <course>277.0</course>
  <speed>1.3572398461583715</speed>
  <fix>3d</fix>
</trkpt>
<trkpt lat="40.071477" lon="-105.2295306">
  <ele>1583.0</ele>
  <time>2026-08-27T17:17:27Z</time>
  <course>282.72</course>
  <speed>1.37</speed>
  <fix>3d</fix>
</trkpt>
<trkpt lat="40.0714773" lon="-105.2295337">
  <ele>1582.99</ele>
  <time>2026-08-27T17:17:27Z</time>
  <course>269.71</course>
  <speed>1.3703284277865655</speed>
  <fix>3d</fix>
</trkpt>
<trkpt lat="40.071477" lon="-105.2295306">
  <ele>1583.0</ele>
  <time>2026-08-27T17:17:27Z</time>
  <course>282.72</course>
  <speed>1.37</speed>
  <fix>3d</fix>
</trkpt>
<trkpt lat="40.0714772" lon="-105.2295354">
  <ele>1583.0</ele>
  <time>2026-08-27T17:17:27Z</time>
  <course>263.65</course>
  <speed>1.3718600511714012</speed>
  <fix>3d</fix>
</trkpt>
<trkpt lat="40.0714773" lon="-105.2295338">
  <ele>1583.0</ele>
  <time>2026-08-27T17:17:27Z</time>
  <course>269.49</course>
  <speed>1.39</speed>
  <fix>3d</fix>
</trkpt>
<trkpt lat="40.0714769" lon="-105.229537">
  <ele>1583.0</ele>
  <time>2026-08-27T17:17:27Z</time>
  <course>258.57</course>
  <speed>1.382931668593933</speed>
  <fix>3d</fix>
</trkpt>
<trkpt lat="40.0714773" lon="-105.2295338">
  <ele>1583.0</ele>
  <time>2026-08-27T17:17:27Z</time>
  <course>269.49</course>
  <speed>1.39</speed>
  <fix>3d</fix>
</trkpt>
<trkpt lat="40.0714766" lon="-105.2295387">
  <ele>1583.01</ele>
  <time>2026-08-27T17:17:27Z</time>
  <course>254.42</course>
  <speed>1.4013208055259867</speed>
  <fix>3d</fix>
</trkpt>
<trkpt lat="40.071477" lon="-105.229537">
  <ele>1583.0</ele>
  <time>2026-08-27T17:17:27Z</time>
  <course>258.16</course>
  <speed>1.41</speed>
  <fix>3d</fix>
</trkpt>
<trkpt lat="40.0714762" lon="-105.2295403">
  <ele>1583.02</ele>
  <time>2026-08-27T17:17:27Z</time>
  <course>250.93</course>
  <speed>1.4208800090085019</speed>
  <fix>3d</fix>
</trkpt>
<trkpt lat="40.071477" lon="-105.229537">
  <ele>1583.0</ele>
  <time>2026-08-27T17:17:27Z</time>
  <course>258.16</course>
  <speed>1.41</speed>
  <fix>3d</fix>
</trkpt>
<trkpt lat="40.0714758" lon="-105.2295419">
  <ele>1583.02</ele>
  <time>2026-08-27T17:17:27Z</time>
  <course>248.0</course>
  <speed>1.4509651959988565</speed>
  <fix>3d</fix>
</trkpt>
<trkpt lat="40.0714763" lon="-105.2295403">
  <ele>1583.0</ele>
  <time>2026-08-27T17:17:27Z</time>
  <course>250.34</course>
  <speed>1.45</speed>
  <fix>3d</fix>
</trkpt>
<trkpt lat="40.0714752" lon="-105.2295436">
  <ele>1583.03</ele>
  <time>2026-08-27T17:17:27Z</time>
  <course>245.59</course>
  <speed>1.46696966567138</speed>
  <fix>3d</fix>
</trkpt>
<trkpt lat="40.0714763" lon="-105.2295403">
  <ele>1583.0</ele>
  <time>2026-08-27T17:17:27Z</time>
  <course>250.34</course>
  <speed>1.45</speed>
  <fix>3d</fix>
</trkpt>
<trkpt lat="40.0714744" lon="-105.2295455">
  <ele>1583.03</ele>
  <time>2026-08-27T17:17:27Z</time>
  <course>243.21</course>
  <speed>1.5123822268196623</speed>
  <fix>3d</fix>
</trkpt>
<trkpt lat="40.0714753" lon="-105.2295435">
  <ele>1583.0</ele>
  <time>2026-08-27T17:17:27Z</time>
  <course>244.93</course>
  <speed>1.5</speed>
  <fix>3d</fix>
</trkpt>
<trkpt lat="40.0714738" lon="-105.2295471">
  <ele>1583.03</ele>
  <time>2026-08-27T17:17:27Z</time>
  <course>241.59</course>
  <speed>1.5368148880070103</speed>
  <fix>3d</fix>
</trkpt>
<trkpt lat="40.0714753" lon="-105.2295435">
  <ele>1583.0</ele>
  <time>2026-08-27T17:17:27Z</time>
  <course>244.93</course>
  <speed>1.5</speed>
  <fix>3d</fix>
</trkpt>
<trkpt lat="40.071473" lon="-105.2295487">
  <ele>1583.04</ele>
  <time>2026-08-27T17:17:27Z</time>
  <course>240.24</course>
  <speed>1.565790535161073</speed>
  <fix>3d</fix>
</trkpt>
<trkpt lat="40.071474" lon="-105.2295466">
  <ele>1583.0</ele>
  <time>2026-08-27T17:17:27Z</time>
  <course>241.18</course>
  <speed>1.55</speed>
  <fix>3d</fix>
</trkpt>
<trkpt lat="40.0714723" lon="-105.2295504">
  <ele>1583.04</ele>
  <time>2026-08-27T17:17:27Z</time>
  <course>239.11</course>
  <speed>1.5953056133543817</speed>
  <fix>3d</fix>
</trkpt>
<trkpt lat="40.071474" lon="-105.2295466">
  <ele>1583.0</ele>
  <time>2026-08-27T17:17:27Z</time>
  <course>241.18</course>
  <speed>1.55</speed>
  <fix>3d</fix>
</trkpt>
<trkpt lat="40.0714715" lon="-105.229552">
  <ele>1583.05</ele>
  <time>2026-08-27T17:17:27Z</time>
  <course>238.18</course>
  <speed>1.6169724796668619</speed>
  <fix>3d</fix>
</trkpt>
<trkpt lat="40.0714726" lon="-105.2295499">
  <ele>1583.0</ele>
  <time>2026-08-27T17:17:27Z</time>
  <course>238.57</course>
  <speed>1.61</speed>
  <fix>3d</fix>
</trkpt>
<trkpt lat="40.0714707" lon="-105.2295536">
  <ele>1583.05</ele>
  <time>2026-08-27T17:17:27Z</time>
  <course>237.39</course>
  <speed>1.6419500601419035</speed>
  <fix>3d</fix>
</trkpt>
<trkpt lat="40.0714726" lon="-105.2295499">
  <ele>1583.0</ele>
  <time>2026-08-27T17:17:27Z</time>
  <course>238.57</course>
  <speed>1.61</speed>
  <fix>3d</fix>
</trkpt>
<trkpt lat="40.0714698" lon="-105.2295553">
  <ele>1583.05</ele>
  <time>2026-08-27T17:17:27Z</time>
  <course>236.74</course>
  <speed>1.6614752480852673</speed>
  <fix>3d</fix>
</trkpt>
<trkpt lat="40.071471" lon="-105.2295532">
  <ele>1583.0</ele>
  <time>2026-08-27T17:17:27Z</time>
  <course>236.75</course>
  <speed>1.66</speed>
  <fix>3d</fix>
</trkpt>
<trkpt lat="40.071469" lon="-105.2295569">
  <ele>1583.05</ele>
  <time>2026-08-27T17:17:27Z</time>
  <course>236.19</course>
  <speed>1.6728717822953436</speed>
  <fix>3d</fix>
</trkpt>
<trkpt lat="40.071471" lon="-105.2295532">
  <ele>1583.0</ele>
  <time>2026-08-27T17:17:27Z</time>
  <course>236.75</course>
  <speed>1.66</speed>
  <fix>3d</fix>
</trkpt>
<trkpt lat="40.0714681" lon="-105.2295585">
  <ele>1583.05</ele>
  <time>2026-08-27T17:17:27Z</time>
  <course>235.75</course>
  <speed>1.6844286865284621</speed>
  <fix>3d</fix>
</trkpt>
<trkpt lat="40.0714694" lon="-105.2295564">
  <ele>1583.0</ele>
  <time>2026-08-27T17:17:27Z</time>
  <course>235.49</course>
  <speed>1.7</speed>
  <fix>3d</fix>
</trkpt>
<trkpt lat="40.0714672" lon="-105.2295602">
  <ele>1583.05</ele>
  <time>2026-08-27T17:17:27Z</time>
  <course>235.38</course>
  <speed>1.690266251216062</speed>
  <fix>3d</fix>
</trkpt>
<trkpt lat="40.0714694" lon="-105.2295564">
  <ele>1583.0</ele>
  <time>2026-08-27T17:17:27Z</time>
  <course>235.49</course>
  <speed>1.7</speed>
  <fix>3d</fix>
</trkpt>
<trkpt lat="40.0714663" lon="-105.2295618">
  <ele>1583.06</ele>
  <time>2026-08-27T17:17:27Z</time>
  <course>235.07</course>
  <speed>1.6961426826773742</speed>
  <fix>3d</fix>
</trkpt>
<trkpt lat="40.0714676" lon="-105.2295597">
  <ele>1583.0</ele>
  <time>2026-08-27T17:17:27Z</time>
  <course>234.61</course>
  <speed>1.72</speed>
  <fix>3d</fix>
</trkpt>
<trkpt lat="40.0714656" lon="-105.2295631">
  <ele>1583.06</ele>
  <time>2026-08-27T17:17:27Z</time>
  <course>234.85</course>
  <speed>1.7020575783445164</speed>
  <fix>3d</fix>
</trkpt>
<trkpt lat="40.0714676" lon="-105.2295597">
  <ele>1583.0</ele>
  <time>2026-08-27T17:17:27Z</time>
  <course>234.61</course>
  <speed>1.72</speed>
  <fix>3d</fix>
</trkpt>
<trkpt lat="40.0714647" lon="-105.2295648">
  <ele>1583.06</ele>
  <time>2026-08-27T17:17:27Z</time>
  <course>234.63</course>
  <speed>1.7020575783445164</speed>
  <fix>3d</fix>
</trkpt>
<trkpt lat="40.0714658" lon="-105.229563">
  <ele>1583.0</ele>
  <time>2026-08-27T17:17:27Z</time>
  <course>234.01</course>
  <speed>1.73</speed>
  <fix>3d</fix>
</trkpt>
<trkpt lat="40.0714638" lon="-105.2295664">
  <ele>1583.06</ele>
  <time>2026-08-27T17:17:27Z</time>
  <course>234.45</course>
  <speed>1.708010538609174</speed>
  <fix>3d</fix>
</trkpt>
<trkpt lat="40.0714658" lon="-105.229563">
  <ele>1583.0</ele>
  <time>2026-08-27T17:17:27Z</time>
  <course>234.01</course>
  <speed>1.73</speed>
  <fix>3d</fix>
</trkpt>
<trkpt lat="40.0714628" lon="-105.229568">
  <ele>1583.06</ele>
  <time>2026-08-27T17:17:27Z</time>
  <course>234.3</course>
  <speed>1.7</speed>
  <fix>3d</fix>
</trkpt>
<trkpt lat="40.0714639" lon="-105.2295663">
  <ele>1583.0</ele>
  <time>2026-08-27T17:17:27Z</time>
  <course>233.59</course>
  <speed>1.74</speed>
  <fix>3d</fix>
</trkpt>
<trkpt lat="40.0714619" lon="-105.2295697">
  <ele>1583.07</ele>
  <time>2026-08-27T17:17:27Z</time>
  <course>234.17</course>
  <speed>1.7</speed>
  <fix>3d</fix>
</trkpt>
<trkpt lat="40.0714639" lon="-105.2295663">
  <ele>1583.0</ele>
  <time>2026-08-27T17:17:27Z</time>
  <course>233.59</course>
  <speed>1.74</speed>
  <fix>3d</fix>
</trkpt>
<trkpt lat="40.071461" lon="-105.2295713">
  <ele>1583.07</ele>
  <time>2026-08-27T17:17:27Z</time>
  <course>234.07</course>
  <speed>1.7</speed>
  <fix>3d</fix>
</trkpt>
<trkpt lat="40.0714621" lon="-105.2295696">
  <ele>1583.0</ele>
  <time>2026-08-27T17:17:27Z</time>
  <course>233.3</course>
  <speed>1.74</speed>
  <fix>3d</fix>
</trkpt>
<trkpt lat="40.07146" lon="-105.229573">
  <ele>1583.08</ele>
  <time>2026-08-27T17:17:27Z</time>
  <course>233.99</course>
  <speed>1.7</speed>
  <fix>3d</fix>
</trkpt>
<trkpt lat="40.0714621" lon="-105.2295696">
  <ele>1583.0</ele>
  <time>2026-08-27T17:17:27Z</time>
  <course>233.3</course>
  <speed>1.74</speed>
  <fix>3d</fix>
</trkpt>
<trkpt lat="40.0714591" lon="-105.2295746">
  <ele>1583.08</ele>
  <time>2026-08-27T17:17:27Z</time>
  <course>233.92</course>
  <speed>1.7</speed>
  <fix>3d</fix>
</trkpt>
<trkpt lat="40.0714602" lon="-105.2295729">
  <ele>1583.0</ele>
  <time>2026-08-27T17:17:27Z</time>
  <course>233.11</course>
  <speed>1.74</speed>
  <fix>3d</fix>
</trkpt>
<trkpt lat="40.0714582" lon="-105.2295763">
  <ele>1583.08</ele>
  <time>2026-08-27T17:17:27Z</time>
  <course>233.87</course>
  <speed>1.7</speed>
  <fix>3d</fix>
</trkpt>
<trkpt lat="40.0714602" lon="-105.2295729">
  <ele>1583.0</ele>
  <time>2026-08-27T17:17:27Z</time>
  <course>233.11</course>
  <speed>1.74</speed>
  <fix>3d</fix>
</trkpt>
<trkpt lat="40.0714572" lon="-105.229578">
  <ele>1583.08</ele>
  <time>2026-08-27T17:17:27Z</time>
  <course>233.82</course>
  <speed>1.7</speed>
  <fix>3d</fix>
</trkpt>
<trkpt lat="40.0714583" lon="-105.2295762">
  <ele>1583.0</ele>
  <time>2026-08-27T17:17:27Z</time>
  <course>232.97</course>
  <speed>1.74</speed>
  <fix>3d</fix>
</trkpt>
<trkpt lat="40.0714561" lon="-105.2295799">
  <ele>1583.09</ele>
  <time>2026-08-27T17:17:27Z</time>
  <course>233.77</course>
  <speed>1.7</speed>
  <fix>3d</fix>
</trkpt>
<trkpt lat="40.0714583" lon="-105.2295762">
  <ele>1583.0</ele>
  <time>2026-08-27T17:17:27Z</time>
  <course>232.97</course>
  <speed>1.74</speed>
  <fix>3d</fix>
</trkpt>
<trkpt lat="40.0714552" lon="-105.2295816">
  <ele>1583.09</ele>
  <time>2026-08-27T17:17:27Z</time>
  <course>233.75</course>
  <speed>1.7</speed>
  <fix>3d</fix>
</trkpt>
<trkpt lat="40.0714564" lon="-105.2295794">
  <ele>1583.0</ele>
  <time>2026-08-27T17:17:27Z</time>
  <course>232.89</course>
  <speed>1.74</speed>
  <fix>3d</fix>
</trkpt>
<trkpt lat="40.0714542" lon="-105.2295832">
  <ele>1583.09</ele>
  <time>2026-08-27T17:17:27Z</time>
  <course>233.73</course>
  <speed>1.7</speed>
  <fix>3d</fix>
</trkpt>
<trkpt lat="40.0714564" lon="-105.2295794">
  <ele>1583.0</ele>
  <time>2026-08-27T17:17:27Z</time>
  <course>232.89</course>
  <speed>1.74</speed>
  <fix>3d</fix>
</trkpt>
<trkpt lat="40.0714533" lon="-105.2295849">
  <ele>1583.1</ele>
  <time>2026-08-27T17:17:27Z</time>
  <course>233.71</course>
  <speed>1.7</speed>
  <fix>3d</fix>
</trkpt>
<trkpt lat="40.0714545" lon="-105.2295827">
  <ele>1583.0</ele>
  <time>2026-08-27T17:17:27Z</time>
  <course>232.83</course>
  <speed>1.73</speed>
  <fix>3d</fix>
</trkpt>
<trkpt lat="40.0714523" lon="-105.2295865">
  <ele>1583.1</ele>
  <time>2026-08-27T17:17:27Z</time>
  <course>233.7</course>
  <speed>1.7</speed>
  <fix>3d</fix>
</trkpt>
<trkpt lat="40.0714545" lon="-105.2295827">
  <ele>1583.0</ele>
  <time>2026-08-27T17:17:27Z</time>
  <course>232.83</course>
  <speed>1.73</speed>
  <fix>3d</fix>
</trkpt>
<trkpt lat="40.0714514" lon="-105.2295881">
  <ele>1583.1</ele>
  <time>2026-08-27T17:17:27Z</time>
  <course>233.69</course>
  <speed>1.686001186239203</speed>
  <fix>3d</fix>
</trkpt>
<trkpt lat="40.0714527" lon="-105.2295859">
  <ele>1583.0</ele>
  <time>2026-08-27T17:17:27Z</time>
  <course>232.79</course>
  <speed>1.73</speed>
  <fix>3d</fix>
</trkpt>
<trkpt lat="40.0714505" lon="-105.2295897">
  <ele>1583.11</ele>
  <time>2026-08-27T17:17:27Z</time>
  <course>233.68</course>
  <speed>1.686001186239203</speed>
  <fix>3d</fix>
</trkpt>
<trkpt lat="40.0714527" lon="-105.2295859">
  <ele>1583.0</ele>
  <time>2026-08-27T17:17:27Z</time>
  <course>232.79</course>
  <speed>1.73</speed>
  <fix>3d</fix>
</trkpt>
<trkpt lat="40.0714495" lon="-105.2295914">
  <ele>1583.11</ele>
  <time>2026-08-27T17:17:27Z</time>
  <course>233.68</course>
  <speed>1.686001186239203</speed>
  <fix>3d</fix>
</trkpt>
<trkpt lat="40.0714508" lon="-105.2295891">
  <ele>1583.0</ele>
  <time>2026-08-27T17:17:27Z</time>
  <course>232.77</course>
  <speed>1.73</speed>
  <fix>3d</fix>
</trkpt>
<trkpt lat="40.0714486" lon="-105.229593">
  <ele>1583.11</ele>
  <time>2026-08-27T17:17:27Z</time>
  <course>233.68</course>
  <speed>1.686001186239203</speed>
  <fix>3d</fix>
</trkpt>
<trkpt lat="40.0714508" lon="-105.2295891">
  <ele>1583.0</ele>
  <time>2026-08-27T17:17:27Z</time>
  <course>232.77</course>
  <speed>1.73</speed>
  <fix>3d</fix>
</trkpt>
<trkpt lat="40.0714477" lon="-105.2295946">
  <ele>1583.11</ele>
  <time>2026-08-27T17:17:27Z</time>
  <course>233.68</course>
  <speed>1.6800297616411441</speed>
  <fix>3d</fix>
</trkpt>
<trkpt lat="40.0714489" lon="-105.2295924">
  <ele>1583.0</ele>
  <time>2026-08-27T17:17:27Z</time>
  <course>232.77</course>
  <speed>1.73</speed>
  <fix>3d</fix>
</trkpt>
<trkpt lat="40.0714468" lon="-105.2295962">
  <ele>1583.11</ele>
  <time>2026-08-27T17:17:27Z</time>
  <course>233.68</course>
  <speed>1.6800297616411441</speed>
  <fix>3d</fix>
</trkpt>
<trkpt lat="40.0714489" lon="-105.2295924">
  <ele>1583.0</ele>
  <time>2026-08-27T17:17:27Z</time>
  <course>232.77</course>
  <speed>1.73</speed>
  <fix>3d</fix>
</trkpt>
<trkpt lat="40.071446" lon="-105.2295975">
  <ele>1583.11</ele>
  <time>2026-08-27T17:17:27Z</time>
  <course>233.68</course>
  <speed>1.6800297616411441</speed>
  <fix>3d</fix>
</trkpt>
<trkpt lat="40.071447" lon="-105.2295957">
  <ele>1583.0</ele>
  <time>2026-08-27T17:17:27Z</time>
  <course>232.77</course>
  <speed>1.73</speed>
  <fix>3d</fix>
</trkpt>
<trkpt lat="40.0714451" lon="-105.2295991">
  <ele>1583.12</ele>
  <time>2026-08-27T17:17:27Z</time>
  <course>233.68</course>
  <speed>1.6800297616411441</speed>
  <fix>3d</fix>
</trkpt>
<trkpt lat="40.071447" lon="-105.2295957">
  <ele>1583.0</ele>
  <time>2026-08-27T17:17:27Z</time>
  <course>232.77</course>
  <speed>1.73</speed>
  <fix>3d</fix>
</trkpt>
<trkpt lat="40.0714442" lon="-105.2296007">
  <ele>1583.12</ele>
  <time>2026-08-27T17:17:27Z</time>
  <course>233.68</course>
  <speed>1.6800297616411441</speed>
  <fix>3d</fix>
</trkpt>
<trkpt lat="40.0714451" lon="-105.2295988">
  <ele>1583.0</ele>
  <time>2026-08-27T17:17:27Z</time>
  <course>232.77</course>
  <speed>1.72</speed>
  <fix>3d</fix>
</trkpt>
<trkpt lat="40.0714433" lon="-105.2296023">
  <ele>1583.12</ele>
  <time>2026-08-27T17:17:27Z</time>
  <course>233.68</course>
  <speed>1.6800297616411441</speed>
  <fix>3d</fix>
</trkpt>
<trkpt lat="40.0714451" lon="-105.2295988">
  <ele>1583.0</ele>
  <time>2026-08-27T17:17:27Z</time>
  <course>232.77</course>
  <speed>1.72</speed>
  <fix>3d</fix>
</trkpt>
<trkpt lat="40.0714423" lon="-105.2296039">
  <ele>1583.13</ele>
  <time>2026-08-27T17:17:27Z</time>
  <course>233.68</course>
  <speed>1.6800297616411441</speed>
  <fix>3d</fix>
</trkpt>
<trkpt lat="40.0714433" lon="-105.2296021">
  <ele>1583.0</ele>
  <time>2026-08-27T17:17:27Z</time>
  <course>232.77</course>
  <speed>1.72</speed>
  <fix>3d</fix>
</trkpt>
<trkpt lat="40.0714414" lon="-105.2296056">
  <ele>1583.13</ele>
  <time>2026-08-27T17:17:27Z</time>
  <course>233.68</course>
  <speed>1.6800297616411441</speed>
  <fix>3d</fix>
</trkpt>
<trkpt lat="40.0714433" lon="-105.2296021">
  <ele>1583.0</ele>
  <time>2026-08-27T17:17:27Z</time>
  <course>232.77</course>
  <speed>1.72</speed>
  <fix>3d</fix>
</trkpt>
<trkpt lat="40.0714405" lon="-105.2296072">
  <ele>1583.13</ele>
  <time>2026-08-27T17:17:27Z</time>
  <course>233.68</course>
  <speed>1.6740967713964445</speed>
  <fix>3d</fix>
</trkpt>
<trkpt lat="40.0714414" lon="-105.2296054">
  <ele>1583.0</ele>
  <time>2026-08-27T17:17:27Z</time>
  <course>232.77</course>
  <speed>1.72</speed>
  <fix>3d</fix>
</trkpt>
<trkpt lat="40.0714395" lon="-105.2296088">
  <ele>1583.13</ele>
  <time>2026-08-27T17:17:27Z</time>
  <course>233.68</course>
  <speed>1.6740967713964445</speed>
  <fix>3d</fix>
</trkpt>
<trkpt lat="40.0714414" lon="-105.2296054">
  <ele>1583.0</ele>
  <time>2026-08-27T17:17:27Z</time>
  <course>232.77</course>
  <speed>1.72</speed>
  <fix>3d</fix>
</trkpt>
<trkpt lat="40.0714386" lon="-105.2296105">
  <ele>1583.13</ele>
  <time>2026-08-27T17:17:27Z</time>
  <course>233.68</course>
  <speed>1.6821712160181557</speed>
  <fix>3d</fix>
</trkpt>
<trkpt lat="40.0714395" lon="-105.2296086">
  <ele>1583.0</ele>
  <time>2026-08-27T17:17:27Z</time>
  <course>232.77</course>
  <speed>1.72</speed>
  <fix>3d</fix>
</trkpt>
<trkpt lat="40.0714377" lon="-105.2296121">
  <ele>1583.13</ele>
  <time>2026-08-27T17:17:27Z</time>
  <course>233.68</course>
  <speed>1.6821712160181557</speed>
  <fix>3d</fix>
</trkpt>
<trkpt lat="40.0714395" lon="-105.2296086">
  <ele>1583.0</ele>
  <time>2026-08-27T17:17:27Z</time>
  <course>232.77</course>
  <speed>1.72</speed>
  <fix>3d</fix>
</trkpt>
<trkpt lat="40.0714365" lon="-105.2296141">
  <ele>1583.13</ele>
  <time>2026-08-27T17:17:27Z</time>
  <course>233.68</course>
  <speed>1.6821712160181557</speed>
  <fix>3d</fix>
</trkpt>
<trkpt lat="40.0714376" lon="-105.2296117">
  <ele>1583.0</ele>
  <time>2026-08-27T17:17:27Z</time>
  <course>232.77</course>
  <speed>1.72</speed>
  <fix>3d</fix>
</trkpt>
<trkpt lat="40.0714356" lon="-105.2296157">
  <ele>1583.13</ele>
  <time>2026-08-27T17:17:27Z</time>
  <course>233.68</course>
  <speed>1.6821712160181557</speed>
  <fix>3d</fix>
</trkpt>
<trkpt lat="40.0714376" lon="-105.2296117">
  <ele>1583.0</ele>
  <time>2026-08-27T17:17:27Z</time>
  <course>232.77</course>
  <speed>1.72</speed>
  <fix>3d</fix>
</trkpt>
<trkpt lat="40.0714347" lon="-105.2296173">
  <ele>1583.13</ele>
  <time>2026-08-27T17:17:27Z</time>
  <course>233.68</course>
  <speed>1.6821712160181557</speed>
  <fix>3d</fix>
</trkpt>
<trkpt lat="40.0714358" lon="-105.229615">
  <ele>1583.0</ele>
  <time>2026-08-27T17:17:27Z</time>
  <course>232.77</course>
  <speed>1.72</speed>
  <fix>3d</fix>
</trkpt>
<trkpt lat="40.0714337" lon="-105.2296189">
  <ele>1583.13</ele>
  <time>2026-08-27T17:17:27Z</time>
  <course>233.68</course>
  <speed>1.6821712160181557</speed>
  <fix>3d</fix>
</trkpt>
<trkpt lat="40.0714358" lon="-105.229615">
  <ele>1583.0</ele>
  <time>2026-08-27T17:17:27Z</time>
  <course>232.77</course>
  <speed>1.72</speed>
  <fix>3d</fix>
</trkpt>
<trkpt lat="40.0714328" lon="-105.2296206">
  <ele>1583.13</ele>
  <time>2026-08-27T17:17:27Z</time>
  <course>233.67</course>
  <speed>1.6821712160181557</speed>
  <fix>3d</fix>
</trkpt>
<trkpt lat="40.0714339" lon="-105.2296183">
  <ele>1583.0</ele>
  <time>2026-08-27T17:17:27Z</time>
  <course>232.77</course>
  <speed>1.72</speed>
  <fix>3d</fix>
</trkpt>
<trkpt lat="40.0714319" lon="-105.2296222">
  <ele>1583.13</ele>
  <time>2026-08-27T17:17:27Z</time>
  <course>233.67</course>
  <speed>1.6821712160181557</speed>
  <fix>3d</fix>
</trkpt>
<trkpt lat="40.0714339" lon="-105.2296183">
  <ele>1583.0</ele>
  <time>2026-08-27T17:17:27Z</time>
  <course>232.77</course>
  <speed>1.72</speed>
  <fix>3d</fix>
</trkpt>
<trkpt lat="40.071431" lon="-105.2296238">
  <ele>1583.14</ele>
  <time>2026-08-27T17:17:27Z</time>
  <course>233.67</course>
  <speed>1.6821712160181557</speed>
  <fix>3d</fix>
</trkpt>
<trkpt lat="40.071432" lon="-105.2296214">
  <ele>1583.0</ele>
  <time>2026-08-27T17:17:27Z</time>
  <course>232.77</course>
  <speed>1.72</speed>
  <fix>3d</fix>
</trkpt>
<trkpt lat="40.07143" lon="-105.2296254">
  <ele>1583.13</ele>
  <time>2026-08-27T17:17:27Z</time>
  <course>233.67</course>
  <speed>1.6821712160181557</speed>
  <fix>3d</fix>
</trkpt>
<trkpt lat="40.071432" lon="-105.2296214">
  <ele>1583.0</ele>
  <time>2026-08-27T17:17:27Z</time>
  <course>232.77</course>
  <speed>1.72</speed>
  <fix>3d</fix>
</trkpt>
<trkpt lat="40.0714291" lon="-105.229627">
  <ele>1583.13</ele>
  <time>2026-08-27T17:17:27Z</time>
  <course>233.68</course>
  <speed>1.6821712160181557</speed>
  <fix>3d</fix>
</trkpt>
<trkpt lat="40.0714301" lon="-105.2296247">
  <ele>1583.0</ele>
  <time>2026-08-27T17:17:27Z</time>
  <course>232.78</course>
  <speed>1.72</speed>
  <fix>3d</fix>
</trkpt>
<trkpt lat="40.0714282" lon="-105.2296286">
  <ele>1583.13</ele>
  <time>2026-08-27T17:17:27Z</time>
  <course>233.69</course>
  <speed>1.6821712160181557</speed>
  <fix>3d</fix>
</trkpt>
<trkpt lat="40.0714301" lon="-105.2296247">
  <ele>1583.0</ele>
  <time>2026-08-27T17:17:27Z</time>
  <course>232.78</course>
  <speed>1.72</speed>
  <fix>3d</fix>
</trkpt>
<trkpt lat="40.0714273" lon="-105.2296302">
  <ele>1583.13</ele>
  <time>2026-08-27T17:17:27Z</time>
  <course>233.69</course>
  <speed>1.6821712160181557</speed>
  <fix>3d</fix>
</trkpt>
<trkpt lat="40.0714282" lon="-105.2296279">
  <ele>1583.0</ele>
  <time>2026-08-27T17:17:27Z</time>
  <course>232.79</course>
  <speed>1.72</speed>
  <fix>3d</fix>
</trkpt>
<trkpt lat="40.0714265" lon="-105.2296315">
  <ele>1583.13</ele>
  <time>2026-08-27T17:17:27Z</time>
  <course>233.7</course>
  <speed>1.6821712160181557</speed>
  <fix>3d</fix>
</trkpt>
<trkpt lat="40.0714282" lon="-105.2296279">
  <ele>1583.0</ele>
  <time>2026-08-27T17:17:27Z</time>
  <course>232.79</course>
  <speed>1.72</speed>
  <fix>3d</fix>
</trkpt>
<trkpt lat="40.0714256" lon="-105.2296331">
  <ele>1583.13</ele>
  <time>2026-08-27T17:17:27Z</time>
  <course>233.71</course>
  <speed>1.676305461424021</speed>
  <fix>3d</fix>
</trkpt>
<trkpt lat="40.0714264" lon="-105.2296312">
  <ele>1583.0</ele>
  <time>2026-08-27T17:17:27Z</time>
  <course>232.8</course>
  <speed>1.72</speed>
  <fix>3d</fix>
</trkpt>
<trkpt lat="40.0714247" lon="-105.2296347">
  <ele>1583.14</ele>
  <time>2026-08-27T17:17:27Z</time>
  <course>233.71</course>
  <speed>1.676305461424021</speed>
  <fix>3d</fix>
</trkpt>
<trkpt lat="40.0714264" lon="-105.2296312">
  <ele>1583.0</ele>
  <time>2026-08-27T17:17:27Z</time>
  <course>232.8</course>
  <speed>1.72</speed>
  <fix>3d</fix>
</trkpt>
<trkpt lat="40.0714237" lon="-105.2296363">
  <ele>1583.14</ele>
  <time>2026-08-27T17:17:27Z</time>
  <course>233.72</course>
  <speed>1.676305461424021</speed>
  <fix>3d</fix>
</trkpt>
<trkpt lat="40.0714245" lon="-105.2296344">
  <ele>1583.0</ele>
  <time>2026-08-27T17:17:27Z</time>
  <course>232.82</course>
  <speed>1.72</speed>
  <fix>3d</fix>
</trkpt>
<trkpt lat="40.0714228" lon="-105.2296379">
  <ele>1583.14</ele>
  <time>2026-08-27T17:17:27Z</time>
  <course>233.73</course>
  <speed>1.676305461424021</speed>
  <fix>3d</fix>
</trkpt>
<trkpt lat="40.0714245" lon="-105.2296344">
  <ele>1583.0</ele>
  <time>2026-08-27T17:17:27Z</time>
  <course>232.82</course>
  <speed>1.72</speed>
  <fix>3d</fix>
</trkpt>
<trkpt lat="40.0714219" lon="-105.2296396">
  <ele>1583.14</ele>
  <time>2026-08-27T17:17:27Z</time>
  <course>233.74</course>
  <speed>1.676305461424021</speed>
  <fix>3d</fix>
</trkpt>
<trkpt lat="40.0714226" lon="-105.2296376">
  <ele>1583.0</ele>
  <time>2026-08-27T17:17:27Z</time>
  <course>232.84</course>
  <speed>1.72</speed>
  <fix>3d</fix>
</trkpt>
<trkpt lat="40.0714209" lon="-105.2296412">
  <ele>1583.14</ele>
  <time>2026-08-27T17:17:27Z</time>
  <course>233.75</course>
  <speed>1.6844286865284621</speed>
  <fix>3d</fix>
</trkpt>
<trkpt lat="40.0714226" lon="-105.2296376">
  <ele>1583.0</ele>
  <time>2026-08-27T17:17:27Z</time>
  <course>232.84</course>
  <speed>1.72</speed>
  <fix>3d</fix>
</trkpt>
<trkpt lat="40.07142" lon="-105.2296428">
  <ele>1583.14</ele>
  <time>2026-08-27T17:17:27Z</time>
  <course>233.76</course>
  <speed>1.6844286865284621</speed>
  <fix>3d</fix>
</trkpt>
<trkpt lat="40.0714208" lon="-105.2296408">
  <ele>1583.0</ele>
  <time>2026-08-27T17:17:27Z</time>
  <course>232.86</course>
  <speed>1.72</speed>
  <fix>3d</fix>
</trkpt>
<trkpt lat="40.071419" lon="-105.2296445">
  <ele>1583.14</ele>
  <time>2026-08-27T17:17:27Z</time>
  <course>233.77</course>
  <speed>1.6844286865284621</speed>
  <fix>3d</fix>
</trkpt>
<trkpt lat="40.0714208" lon="-105.2296408">
  <ele>1583.0</ele>
  <time>2026-08-27T17:17:27Z</time>
  <course>232.86</course>
  <speed>1.72</speed>
  <fix>3d</fix>
</trkpt>
<trkpt lat="40.0714181" lon="-105.2296461">
  <ele>1583.15</ele>
  <time>2026-08-27T17:17:27Z</time>
  <course>233.77</course>
  <speed>1.6844286865284621</speed>
  <fix>3d</fix>
</trkpt>
<trkpt lat="40.0714189" lon="-105.2296441">
  <ele>1583.0</ele>
  <time>2026-08-27T17:17:27Z</time>
  <course>232.88</course>
  <speed>1.72</speed>
  <fix>3d</fix>
</trkpt>
<trkpt lat="40.071417" lon="-105.2296481">
  <ele>1583.15</ele>
  <time>2026-08-27T17:17:27Z</time>
  <course>233.79</course>
  <speed>1.690266251216062</speed>
  <fix>3d</fix>
</trkpt>
<trkpt lat="40.0714189" lon="-105.2296441">
  <ele>1583.0</ele>
  <time>2026-08-27T17:17:27Z</time>
  <course>232.88</course>
  <speed>1.72</speed>
  <fix>3d</fix>
</trkpt>
<trkpt lat="40.071416" lon="-105.2296497">
  <ele>1583.15</ele>
  <time>2026-08-27T17:17:27Z</time>
  <course>233.79</course>
  <speed>1.690266251216062</speed>
  <fix>3d</fix>
</trkpt>
<trkpt lat="40.071417" lon="-105.2296473">
  <ele>1583.0</ele>
  <time>2026-08-27T17:17:27Z</time>
  <course>232.89</course>
  <speed>1.72</speed>
  <fix>3d</fix>
</trkpt>
<trkpt lat="40.0714151" lon="-105.2296513">
  <ele>1583.15</ele>
  <time>2026-08-27T17:17:27Z</time>
  <course>233.8</course>
  <speed>1.690266251216062</speed>
  <fix>3d</fix>
</trkpt>
<trkpt lat="40.071417" lon="-105.2296473">
  <ele>1583.0</ele>
  <time>2026-08-27T17:17:27Z</time>
  <course>232.89</course>
  <speed>1.72</speed>
  <fix>3d</fix>
</trkpt>
<trkpt lat="40.0714142" lon="-105.2296529">
  <ele>1583.15</ele>
  <time>2026-08-27T17:17:27Z</time>
  <course>233.81</course>
  <speed>1.690266251216062</speed>
  <fix>3d</fix>
</trkpt>
<trkpt lat="40.0714152" lon="-105.2296505">
  <ele>1583.0</ele>
  <time>2026-08-27T17:17:27Z</time>
  <course>232.92</course>
  <speed>1.72</speed>
  <fix>3d</fix>
</trkpt>
<trkpt lat="40.0714132" lon="-105.2296546">
  <ele>1583.15</ele>
  <time>2026-08-27T17:17:27Z</time>
  <course>233.81</course>
  <speed>1.690266251216062</speed>
  <fix>3d</fix>
</trkpt>
<trkpt lat="40.0714152" lon="-105.2296505">
  <ele>1583.0</ele>
  <time>2026-08-27T17:17:27Z</time>
  <course>232.92</course>
  <speed>1.72</speed>
  <fix>3d</fix>
</trkpt>
<trkpt lat="40.0714123" lon="-105.2296562">
  <ele>1583.15</ele>
  <time>2026-08-27T17:17:27Z</time>
  <course>233.83</course>
  <speed>1.690266251216062</speed>
  <fix>3d</fix>
</trkpt>
<trkpt lat="40.0714133" lon="-105.2296538">
  <ele>1583.0</ele>
  <time>2026-08-27T17:17:27Z</time>
  <course>232.94</course>
  <speed>1.72</speed>
  <fix>3d</fix>
</trkpt>
<trkpt lat="40.0714114" lon="-105.2296578">
  <ele>1583.15</ele>
  <time>2026-08-27T17:17:27Z</time>
  <course>233.84</course>
  <speed>1.690266251216062</speed>
  <fix>3d</fix>
</trkpt>
<trkpt lat="40.0714133" lon="-105.2296538">
  <ele>1583.0</ele>
  <time>2026-08-27T17:17:27Z</time>
  <course>232.94</course>
  <speed>1.72</speed>
  <fix>3d</fix>
</trkpt>
<trkpt lat="40.0714104" lon="-105.2296594">
  <ele>1583.15</ele>
  <time>2026-08-27T17:17:27Z</time>
  <course>233.84</course>
  <speed>1.6844286865284621</speed>
  <fix>3d</fix>
</trkpt>
<trkpt lat="40.0714114" lon="-105.229657">
  <ele>1583.0</ele>
  <time>2026-08-27T17:17:27Z</time>
  <course>232.96</course>
  <speed>1.72</speed>
  <fix>3d</fix>
</trkpt>
<trkpt lat="40.0714095" lon="-105.229661">
  <ele>1583.15</ele>
  <time>2026-08-27T17:17:27Z</time>
  <course>233.85</course>
  <speed>1.690266251216062</speed>
  <fix>3d</fix>
</trkpt>
<trkpt lat="40.0714114" lon="-105.229657">
  <ele>1583.0</ele>
  <time>2026-08-27T17:17:27Z</time>
  <course>232.96</course>
  <speed>1.72</speed>
  <fix>3d</fix>
</trkpt>
<trkpt lat="40.0714086" lon="-105.2296626">
  <ele>1583.15</ele>
  <time>2026-08-27T17:17:27Z</time>
  <course>233.85</course>
  <speed>1.6844286865284621</speed>
  <fix>3d</fix>
</trkpt>
<trkpt lat="40.0714095" lon="-105.2296603">
  <ele>1583.0</ele>
  <time>2026-08-27T17:17:27Z</time>
  <course>232.97</course>
  <speed>1.72</speed>
  <fix>3d</fix>
</trkpt>
<trkpt lat="40.0714076" lon="-105.2296643">
  <ele>1583.15</ele>
  <time>2026-08-27T17:17:27Z</time>
  <course>233.86</course>
  <speed>1.6844286865284621</speed>
  <fix>3d</fix>
</trkpt>
<trkpt lat="40.0714095" lon="-105.2296603">
  <ele>1583.0</ele>
  <time>2026-08-27T17:17:27Z</time>
  <course>232.97</course>
  <speed>1.72</speed>
  <fix>3d</fix>
</trkpt>
<trkpt lat="40.0714069" lon="-105.2296656">
  <ele>1583.16</ele>
  <time>2026-08-27T17:17:27Z</time>
  <course>233.87</course>
  <speed>1.6844286865284621</speed>
  <fix>3d</fix>
</trkpt>
<trkpt lat="40.0714077" lon="-105.2296634">
  <ele>1583.0</ele>
  <time>2026-08-27T17:17:27Z</time>
  <course>232.98</course>
  <speed>1.72</speed>
  <fix>3d</fix>
</trkpt>
<trkpt lat="40.071406" lon="-105.2296672">
  <ele>1583.16</ele>
  <time>2026-08-27T17:17:27Z</time>
  <course>233.88</course>
  <speed>1.6983815825661792</speed>
  <fix>3d</fix>
</trkpt>
<trkpt lat="40.0714077" lon="-105.2296634">
  <ele>1583.0</ele>
  <time>2026-08-27T17:17:27Z</time>
  <course>232.98</course>
  <speed>1.72</speed>
  <fix>3d</fix>
</trkpt>
<trkpt lat="40.071405" lon="-105.2296688">
  <ele>1583.16</ele>
  <time>2026-08-27T17:17:27Z</time>
  <course>233.88</course>
  <speed>1.6983815825661792</speed>
  <fix>3d</fix>
</trkpt>
<trkpt lat="40.0714058" lon="-105.2296667">
  <ele>1583.0</ele>
  <time>2026-08-27T17:17:27Z</time>
  <course>233.0</course>
  <speed>1.72</speed>
  <fix>3d</fix>
</trkpt>
<trkpt lat="40.0714041" lon="-105.2296704">
  <ele>1583.16</ele>
  <time>2026-08-27T17:17:27Z</time>
  <course>233.89</course>
  <speed>1.6983815825661792</speed>
  <fix>3d</fix>
</trkpt>
<trkpt lat="40.0714058" lon="-105.2296667">
  <ele>1583.0</ele>
  <time>2026-08-27T17:17:27Z</time>
  <course>233.0</course>
  <speed>1.72</speed>
  <fix>3d</fix>
</trkpt>
<trkpt lat="40.0714032" lon="-105.229672">
  <ele>1583.16</ele>
  <time>2026-08-27T17:17:27Z</time>
  <course>233.91</course>
  <speed>1.6983815825661792</speed>
  <fix>3d</fix>
</trkpt>
<trkpt lat="40.071404" lon="-105.22967">
  <ele>1583.0</ele>
  <time>2026-08-27T17:17:27Z</time>
  <course>233.02</course>
  <speed>1.72</speed>
  <fix>3d</fix>
</trkpt>
<trkpt lat="40.0714022" lon="-105.2296737">
  <ele>1583.16</ele>
  <time>2026-08-27T17:17:27Z</time>
  <course>233.91</course>
  <speed>1.6983815825661792</speed>
  <fix>3d</fix>
</trkpt>
<trkpt lat="40.071404" lon="-105.22967">
  <ele>1583.0</ele>
  <time>2026-08-27T17:17:27Z</time>
  <course>233.02</course>
  <speed>1.72</speed>
  <fix>3d</fix>
</trkpt>
<trkpt lat="40.0714013" lon="-105.2296753">
  <ele>1583.16</ele>
  <time>2026-08-27T17:17:27Z</time>
  <course>233.91</course>
  <speed>1.6983815825661792</speed>
  <fix>3d</fix>
</trkpt>
<trkpt lat="40.0714021" lon="-105.2296731">
  <ele>1583.0</ele>
  <time>2026-08-27T17:17:27Z</time>
  <course>233.04</course>
  <speed>1.72</speed>
  <fix>3d</fix>
</trkpt>
<trkpt lat="40.0714003" lon="-105.2296769">
  <ele>1583.16</ele>
  <time>2026-08-27T17:17:27Z</time>
  <course>233.92</course>
  <speed>1.6983815825661792</speed>
  <fix>3d</fix>
</trkpt>
<trkpt lat="40.0714021" lon="-105.2296731">
  <ele>1583.0</ele>
  <time>2026-08-27T17:17:27Z</time>
  <course>233.04</course>
  <speed>1.72</speed>
  <fix>3d</fix>
</trkpt>
<trkpt lat="40.0713994" lon="-105.2296786">
  <ele>1583.16</ele>
  <time>2026-08-27T17:17:27Z</time>
  <course>233.93</course>
  <speed>1.6983815825661792</speed>
  <fix>3d</fix>
</trkpt>
<trkpt lat="40.0714002" lon="-105.2296764">
  <ele>1583.0</ele>
  <time>2026-08-27T17:17:27Z</time>
  <course>233.05</course>
  <speed>1.72</speed>
  <fix>3d</fix>
</trkpt>
<trkpt lat="40.0713985" lon="-105.2296802">
  <ele>1583.15</ele>
  <time>2026-08-27T17:17:27Z</time>
  <course>233.93</course>
  <speed>1.6983815825661792</speed>
  <fix>3d</fix>
</trkpt>
<trkpt lat="40.0714002" lon="-105.2296764">
  <ele>1583.0</ele>
  <time>2026-08-27T17:17:27Z</time>
  <course>233.05</course>
  <speed>1.72</speed>
  <fix>3d</fix>
</trkpt>
<trkpt lat="40.0713973" lon="-105.2296822">
  <ele>1583.15</ele>
  <time>2026-08-27T17:17:27Z</time>
  <course>233.95</course>
  <speed>1.6983815825661792</speed>
  <fix>3d</fix>
</trkpt>
<trkpt lat="40.0713983" lon="-105.2296796">
  <ele>1583.0</ele>
  <time>2026-08-27T17:17:27Z</time>
  <course>233.07</course>
  <speed>1.72</speed>
  <fix>3d</fix>
</trkpt>
<trkpt lat="40.0713964" lon="-105.2296838">
  <ele>1583.14</ele>
  <time>2026-08-27T17:17:27Z</time>
  <course>233.95</course>
  <speed>1.6983815825661792</speed>
  <fix>3d</fix>
</trkpt>
<trkpt lat="40.0713983" lon="-105.2296796">
  <ele>1583.0</ele>
  <time>2026-08-27T17:17:27Z</time>
  <course>233.07</course>
  <speed>1.72</speed>
  <fix>3d</fix>
</trkpt>
<trkpt lat="40.0713954" lon="-105.2296854">
  <ele>1583.14</ele>
  <time>2026-08-27T17:17:27Z</time>
  <course>233.96</course>
  <speed>1.6983815825661792</speed>
  <fix>3d</fix>
</trkpt>
<trkpt lat="40.0713965" lon="-105.2296829">
  <ele>1583.0</ele>
  <time>2026-08-27T17:17:27Z</time>
  <course>233.08</course>
  <speed>1.72</speed>
  <fix>3d</fix>
</trkpt>
<trkpt lat="40.0713945" lon="-105.229687">
  <ele>1583.14</ele>
  <time>2026-08-27T17:17:27Z</time>
  <course>233.97</course>
  <speed>1.6983815825661792</speed>
  <fix>3d</fix>
</trkpt>
<trkpt lat="40.0713965" lon="-105.2296829">
  <ele>1583.0</ele>
  <time>2026-08-27T17:17:27Z</time>
  <course>233.08</course>
  <speed>1.72</speed>
  <fix>3d</fix>
</trkpt>
<trkpt lat="40.0713936" lon="-105.2296887">
  <ele>1583.14</ele>
  <time>2026-08-27T17:17:27Z</time>
  <course>233.98</course>
  <speed>1.6983815825661792</speed>
  <fix>3d</fix>
</trkpt>
<trkpt lat="40.0713946" lon="-105.2296862">
  <ele>1583.0</ele>
  <time>2026-08-27T17:17:27Z</time>
  <course>233.11</course>
  <speed>1.72</speed>
  <fix>3d</fix>
</trkpt>
<trkpt lat="40.0713926" lon="-105.2296903">
  <ele>1583.14</ele>
  <time>2026-08-27T17:17:27Z</time>
  <course>233.98</course>
  <speed>1.6983815825661792</speed>
  <fix>3d</fix>
</trkpt>
<trkpt lat="40.0713946" lon="-105.2296862">
  <ele>1583.0</ele>
  <time>2026-08-27T17:17:27Z</time>
  <course>233.11</course>
  <speed>1.72</speed>
  <fix>3d</fix>
</trkpt>
<trkpt lat="40.0713917" lon="-105.2296919">
  <ele>1583.14</ele>
  <time>2026-08-27T17:17:27Z</time>
  <course>233.99</course>
  <speed>1.6983815825661792</speed>
  <fix>3d</fix>
</trkpt>
<trkpt lat="40.0713928" lon="-105.2296894">
  <ele>1583.0</ele>
  <time>2026-08-27T17:17:27Z</time>
  <course>233.12</course>
  <speed>1.72</speed>
  <fix>3d</fix>
</trkpt>
<trkpt lat="40.0713908" lon="-105.2296935">
  <ele>1583.14</ele>
  <time>2026-08-27T17:17:27Z</time>
  <course>234.0</course>
  <speed>1.6983815825661792</speed>
  <fix>3d</fix>
</trkpt>
<trkpt lat="40.0713928" lon="-105.2296894">
  <ele>1583.0</ele>
  <time>2026-08-27T17:17:27Z</time>
  <course>233.12</course>
  <speed>1.72</speed>
  <fix>3d</fix>
</trkpt>
<trkpt lat="40.0713899" lon="-105.2296951">
  <ele>1583.14</ele>
  <time>2026-08-27T17:17:27Z</time>
  <course>234.0</course>
  <speed>1.6983815825661792</speed>
  <fix>3d</fix>
</trkpt>
<trkpt lat="40.0713909" lon="-105.2296926">
  <ele>1583.0</ele>
  <time>2026-08-27T17:17:27Z</time>
  <course>233.13</course>
  <speed>1.72</speed>
  <fix>3d</fix>
</trkpt>
<trkpt lat="40.0713889" lon="-105.2296967">
  <ele>1583.14</ele>
  <time>2026-08-27T17:17:27Z</time>
  <course>234.01</course>
  <speed>1.6983815825661792</speed>
  <fix>3d</fix>
</trkpt>
<trkpt lat="40.0713909" lon="-105.2296926">
  <ele>1583.0</ele>
  <time>2026-08-27T17:17:27Z</time>
  <course>233.13</course>
  <speed>1.72</speed>
  <fix>3d</fix>
</trkpt>
<trkpt lat="40.071388" lon="-105.2296983">
  <ele>1583.14</ele>
  <time>2026-08-27T17:17:27Z</time>
  <course>234.02</course>
  <speed>1.6983815825661792</speed>
  <fix>3d</fix>
</trkpt>
<trkpt lat="40.071389" lon="-105.2296959">
  <ele>1583.0</ele>
  <time>2026-08-27T17:17:27Z</time>
  <course>233.15</course>
  <speed>1.72</speed>
  <fix>3d</fix>
</trkpt>
<trkpt lat="40.0713873" lon="-105.2296996">
  <ele>1583.14</ele>
  <time>2026-08-27T17:17:27Z</time>
  <course>234.02</course>
  <speed>1.6983815825661792</speed>
  <fix>3d</fix>
</trkpt>
<trkpt lat="40.071389" lon="-105.2296959">
  <ele>1583.0</ele>
  <time>2026-08-27T17:17:27Z</time>
  <course>233.15</course>
  <speed>1.72</speed>
  <fix>3d</fix>
</trkpt>
<trkpt lat="40.0713863" lon="-105.2297012">
  <ele>1583.14</ele>
  <time>2026-08-27T17:17:27Z</time>
  <course>234.04</course>
  <speed>1.6983815825661792</speed>
  <fix>3d</fix>
</trkpt>
<trkpt lat="40.0713872" lon="-105.2296992">
  <ele>1583.0</ele>
  <time>2026-08-27T17:17:27Z</time>
  <course>233.16</course>
  <speed>1.72</speed>
  <fix>3d</fix>
</trkpt>
<trkpt lat="40.0713854" lon="-105.2297029">
  <ele>1583.14</ele>
  <time>2026-08-27T17:17:27Z</time>
  <course>234.04</course>
  <speed>1.6983815825661792</speed>
  <fix>3d</fix>
</trkpt>
<trkpt lat="40.0713872" lon="-105.2296992">
  <ele>1583.0</ele>
  <time>2026-08-27T17:17:27Z</time>
  <course>233.16</course>
  <speed>1.72</speed>
  <fix>3d</fix>
</trkpt>
<trkpt lat="40.0713845" lon="-105.2297045">
  <ele>1583.14</ele>
  <time>2026-08-27T17:17:27Z</time>
  <course>234.04</course>
  <speed>1.6983815825661792</speed>
  <fix>3d</fix>
</trkpt>
<trkpt lat="40.0713853" lon="-105.2297024">
  <ele>1583.0</ele>
  <time>2026-08-27T17:17:27Z</time>
  <course>233.18</course>
  <speed>1.73</speed>
  <fix>3d</fix>
</trkpt>
<trkpt lat="40.0713835" lon="-105.2297061">
  <ele>1583.14</ele>
  <time>2026-08-27T17:17:27Z</time>
  <course>234.05</course>
  <speed>1.6983815825661792</speed>
  <fix>3d</fix>
</trkpt>
<trkpt lat="40.0713853" lon="-105.2297024">
  <ele>1583.0</ele>
  <time>2026-08-27T17:17:27Z</time>
  <course>233.18</course>
  <speed>1.73</speed>
  <fix>3d</fix>
</trkpt>
<trkpt lat="40.0713826" lon="-105.2297077">
  <ele>1583.14</ele>
  <time>2026-08-27T17:17:27Z</time>
  <course>234.06</course>
  <speed>1.6983815825661792</speed>
  <fix>3d</fix>
</trkpt>
<trkpt lat="40.0713834" lon="-105.2297057">
  <ele>1583.0</ele>
  <time>2026-08-27T17:17:27Z</time>
  <course>233.19</course>
  <speed>1.73</speed>
  <fix>3d</fix>
</trkpt>
<trkpt lat="40.0713817" lon="-105.2297094">
  <ele>1583.14</ele>
  <time>2026-08-27T17:17:27Z</time>
  <course>234.07</course>
  <speed>1.6983815825661792</speed>
  <fix>3d</fix>
</trkpt>
<trkpt lat="40.0713834" lon="-105.2297057">
  <ele>1583.0</ele>
  <time>2026-08-27T17:17:27Z</time>
  <course>233.19</course>
  <speed>1.73</speed>
  <fix>3d</fix>
</trkpt>
<trkpt lat="40.0713807" lon="-105.229711">
  <ele>1583.14</ele>
  <time>2026-08-27T17:17:27Z</time>
  <course>234.07</course>
  <speed>1.6983815825661792</speed>
  <fix>3d</fix>
</trkpt>
<trkpt lat="40.0713815" lon="-105.2297089">
  <ele>1583.0</ele>
  <time>2026-08-27T17:17:27Z</time>
  <course>233.21</course>
  <speed>1.73</speed>
  <fix>3d</fix>
</trkpt>
<trkpt lat="40.0713798" lon="-105.2297127">
  <ele>1583.14</ele>
  <time>2026-08-27T17:17:27Z</time>
  <course>234.08</course>
  <speed>1.7065169205138284</speed>
  <fix>3d</fix>
</trkpt>
<trkpt lat="40.0713815" lon="-105.2297089">
  <ele>1583.0</ele>
  <time>2026-08-27T17:17:27Z</time>
  <course>233.21</course>
  <speed>1.73</speed>
  <fix>3d</fix>
</trkpt>
<trkpt lat="40.0713787" lon="-105.2297146">
  <ele>1583.14</ele>
  <time>2026-08-27T17:17:27Z</time>
  <course>234.09</course>
  <speed>1.7065169205138284</speed>
  <fix>3d</fix>
</trkpt>
<trkpt lat="40.0713797" lon="-105.2297122">
  <ele>1583.0</ele>
  <time>2026-08-27T17:17:27Z</time>
  <course>233.23</course>
  <speed>1.73</speed>
  <fix>3d</fix>
</trkpt>
<trkpt lat="40.0713777" lon="-105.2297163">
  <ele>1583.14</ele>
  <time>2026-08-27T17:17:27Z</time>
  <course>234.1</course>
  <speed>1.712337583538947</speed>
  <fix>3d</fix>
</trkpt>
<trkpt lat="40.0713797" lon="-105.2297122">
  <ele>1583.0</ele>
  <time>2026-08-27T17:17:27Z</time>
  <course>233.23</course>
  <speed>1.73</speed>
  <fix>3d</fix>
</trkpt>
<trkpt lat="40.0713768" lon="-105.2297179">
  <ele>1583.14</ele>
  <time>2026-08-27T17:17:27Z</time>
  <course>234.1</course>
  <speed>1.712337583538947</speed>
  <fix>3d</fix>
</trkpt>
<trkpt lat="40.0713779" lon="-105.2297154">
  <ele>1583.0</ele>
  <time>2026-08-27T17:17:27Z</time>
  <course>233.24</course>
  <speed>1.73</speed>
  <fix>3d</fix>
</trkpt>
<trkpt lat="40.0713758" lon="-105.2297196">
  <ele>1583.14</ele>
  <time>2026-08-27T17:17:27Z</time>
  <course>234.11</course>
  <speed>1.712337583538947</speed>
  <fix>3d</fix>
</trkpt>
<trkpt lat="40.0713779" lon="-105.2297154">
  <ele>1583.0</ele>
  <time>2026-08-27T17:17:27Z</time>
  <course>233.24</course>
  <speed>1.73</speed>
  <fix>3d</fix>
</trkpt>
<trkpt lat="40.0713749" lon="-105.2297212">
  <ele>1583.14</ele>
  <time>2026-08-27T17:17:27Z</time>
  <course>234.12</course>
  <speed>1.712337583538947</speed>
  <fix>3d</fix>
</trkpt>
<trkpt lat="40.071376" lon="-105.2297187">
  <ele>1583.0</ele>
  <time>2026-08-27T17:17:27Z</time>
  <course>233.26</course>
  <speed>1.73</speed>
  <fix>3d</fix>
</trkpt>
<trkpt lat="40.071374" lon="-105.2297228">
  <ele>1583.14</ele>
  <time>2026-08-27T17:17:27Z</time>
  <course>234.13</course>
  <speed>1.712337583538947</speed>
  <fix>3d</fix>
</trkpt>
<trkpt lat="40.071376" lon="-105.2297187">
  <ele>1583.0</ele>
  <time>2026-08-27T17:17:27Z</time>
  <course>233.26</course>
  <speed>1.73</speed>
  <fix>3d</fix>
</trkpt>
<trkpt lat="40.071373" lon="-105.2297245">
  <ele>1583.14</ele>
  <time>2026-08-27T17:17:27Z</time>
  <course>234.13</course>
  <speed>1.712337583538947</speed>
  <fix>3d</fix>
</trkpt>
<trkpt lat="40.0713741" lon="-105.2297219">
  <ele>1583.0</ele>
  <time>2026-08-27T17:17:27Z</time>
  <course>233.27</course>
  <speed>1.73</speed>
  <fix>3d</fix>
</trkpt>
<trkpt lat="40.0713721" lon="-105.2297261">
  <ele>1583.14</ele>
  <time>2026-08-27T17:17:27Z</time>
  <course>234.14</course>
  <speed>1.712337583538947</speed>
  <fix>3d</fix>
</trkpt>
<trkpt lat="40.0713741" lon="-105.2297219">
  <ele>1583.0</ele>
  <time>2026-08-27T17:17:27Z</time>
  <course>233.27</course>
  <speed>1.73</speed>
  <fix>3d</fix>
</trkpt>
<trkpt lat="40.0713712" lon="-105.2297277">
  <ele>1583.14</ele>
  <time>2026-08-27T17:17:27Z</time>
  <course>234.14</course>
  <speed>1.712337583538947</speed>
  <fix>3d</fix>
</trkpt>
<trkpt lat="40.0713722" lon="-105.2297252">
  <ele>1583.0</ele>
  <time>2026-08-27T17:17:27Z</time>
  <course>233.28</course>
  <speed>1.73</speed>
  <fix>3d</fix>
</trkpt>
<trkpt lat="40.0713702" lon="-105.2297293">
  <ele>1583.13</ele>
  <time>2026-08-27T17:17:27Z</time>
  <course>234.15</course>
  <speed>1.712337583538947</speed>
  <fix>3d</fix>
</trkpt>
<trkpt lat="40.0713722" lon="-105.2297252">
  <ele>1583.0</ele>
  <time>2026-08-27T17:17:27Z</time>
  <course>233.28</course>
  <speed>1.73</speed>
  <fix>3d</fix>
</trkpt>
<trkpt lat="40.0713693" lon="-105.229731">
  <ele>1583.13</ele>
  <time>2026-08-27T17:17:27Z</time>
  <course>234.16</course>
  <speed>1.712337583538947</speed>
  <fix>3d</fix>
</trkpt>
<trkpt lat="40.0713704" lon="-105.2297284">
  <ele>1583.0</ele>
  <time>2026-08-27T17:17:27Z</time>
  <course>233.3</course>
  <speed>1.73</speed>
  <fix>3d</fix>
</trkpt>
<trkpt lat="40.0713686" lon="-105.2297323">
  <ele>1583.13</ele>
  <time>2026-08-27T17:17:27Z</time>
  <course>234.16</course>
  <speed>1.712337583538947</speed>
  <fix>3d</fix>
</trkpt>
<trkpt lat="40.0713704" lon="-105.2297284">
  <ele>1583.0</ele>
  <time>2026-08-27T17:17:27Z</time>
  <course>233.3</course>
  <speed>1.73</speed>
  <fix>3d</fix>
</trkpt>
<trkpt lat="40.0713676" lon="-105.2297339">
  <ele>1583.13</ele>
  <time>2026-08-27T17:17:27Z</time>
  <course>234.18</course>
  <speed>1.712337583538947</speed>
  <fix>3d</fix>
</trkpt>
<trkpt lat="40.0713686" lon="-105.2297317">
  <ele>1583.0</ele>
  <time>2026-08-27T17:17:27Z</time>
  <course>233.31</course>
  <speed>1.73</speed>
  <fix>3d</fix>
</trkpt>
<trkpt lat="40.0713667" lon="-105.2297355">
  <ele>1583.13</ele>
  <time>2026-08-27T17:17:27Z</time>
  <course>234.18</course>
  <speed>1.712337583538947</speed>
  <fix>3d</fix>
</trkpt>
<trkpt lat="40.0713686" lon="-105.2297317">
  <ele>1583.0</ele>
  <time>2026-08-27T17:17:27Z</time>
  <course>233.31</course>
  <speed>1.73</speed>
  <fix>3d</fix>
</trkpt>
<trkpt lat="40.0713658" lon="-105.2297371">
  <ele>1583.14</ele>
  <time>2026-08-27T17:17:27Z</time>
  <course>234.19</course>
  <speed>1.712337583538947</speed>
  <fix>3d</fix>
</trkpt>
<trkpt lat="40.0713667" lon="-105.229735">
  <ele>1583.0</ele>
  <time>2026-08-27T17:17:27Z</time>
  <course>233.33</course>
  <speed>1.73</speed>
  <fix>3d</fix>
</trkpt>
<trkpt lat="40.0713649" lon="-105.2297387">
  <ele>1583.14</ele>
  <time>2026-08-27T17:17:27Z</time>
  <course>234.19</course>
  <speed>1.712337583538947</speed>
  <fix>3d</fix>
</trkpt>
<trkpt lat="40.0713667" lon="-105.229735">
  <ele>1583.0</ele>
  <time>2026-08-27T17:17:27Z</time>
  <course>233.33</course>
  <speed>1.73</speed>
  <fix>3d</fix>
</trkpt>
<trkpt lat="40.0713639" lon="-105.2297404">
  <ele>1583.14</ele>
  <time>2026-08-27T17:17:27Z</time>
  <course>234.2</course>
  <speed>1.712337583538947</speed>
  <fix>3d</fix>
</trkpt>
<trkpt lat="40.0713648" lon="-105.2297382">
  <ele>1583.0</ele>
  <time>2026-08-27T17:17:27Z</time>
  <course>233.34</course>
  <speed>1.73</speed>
  <fix>3d</fix>
</trkpt>
<trkpt lat="40.071363" lon="-105.229742">
  <ele>1583.14</ele>
  <time>2026-08-27T17:17:27Z</time>
  <course>234.2</course>
  <speed>1.712337583538947</speed>
  <fix>3d</fix>
</trkpt>
<trkpt lat="40.0713648" lon="-105.2297382">
  <ele>1583.0</ele>
  <time>2026-08-27T17:17:27Z</time>
  <course>233.34</course>
  <speed>1.73</speed>
  <fix>3d</fix>
</trkpt>
<trkpt lat="40.0713621" lon="-105.2297436">
  <ele>1583.14</ele>
  <time>2026-08-27T17:17:27Z</time>
  <course>234.21</course>
  <speed>1.712337583538947</speed>
  <fix>3d</fix>
</trkpt>
<trkpt lat="40.071363" lon="-105.2297415">
  <ele>1583.0</ele>
  <time>2026-08-27T17:17:27Z</time>
  <course>233.35</course>
  <speed>1.73</speed>
  <fix>3d</fix>
</trkpt>
<trkpt lat="40.0713611" lon="-105.2297453">
  <ele>1583.14</ele>
  <time>2026-08-27T17:17:27Z</time>
  <course>234.22</course>
  <speed>1.712337583538947</speed>
  <fix>3d</fix>
</trkpt>
<trkpt lat="40.071363" lon="-105.2297415">
  <ele>1583.0</ele>
  <time>2026-08-27T17:17:27Z</time>
  <course>233.35</course>
  <speed>1.73</speed>
  <fix>3d</fix>
</trkpt>
<trkpt lat="40.0713602" lon="-105.2297469">
  <ele>1583.14</ele>
  <time>2026-08-27T17:17:27Z</time>
  <course>234.22</course>
  <speed>1.712337583538947</speed>
  <fix>3d</fix>
</trkpt>
<trkpt lat="40.0713611" lon="-105.2297448">
  <ele>1583.0</ele>
  <time>2026-08-27T17:17:27Z</time>
  <course>233.37</course>
  <speed>1.73</speed>
  <fix>3d</fix>
</trkpt>
<trkpt lat="40.0713591" lon="-105.2297489">
  <ele>1583.13</ele>
  <time>2026-08-27T17:17:27Z</time>
  <course>234.23</course>
  <speed>1.712337583538947</speed>
  <fix>3d</fix>
</trkpt>
<trkpt lat="40.0713611" lon="-105.2297448">
  <ele>1583.0</ele>
  <time>2026-08-27T17:17:27Z</time>
  <course>233.37</course>
  <speed>1.73</speed>
  <fix>3d</fix>
</trkpt>
<trkpt lat="40.0713581" lon="-105.2297506">
  <ele>1583.13</ele>
  <time>2026-08-27T17:17:27Z</time>
  <course>234.24</course>
  <speed>1.712337583538947</speed>
  <fix>3d</fix>
</trkpt>
<trkpt lat="40.0713593" lon="-105.2297481">
  <ele>1583.0</ele>
  <time>2026-08-27T17:17:27Z</time>
  <course>233.38</course>
  <speed>1.73</speed>
  <fix>3d</fix>
</trkpt>
<trkpt lat="40.0713572" lon="-105.2297522">
  <ele>1583.13</ele>
  <time>2026-08-27T17:17:27Z</time>
  <course>234.25</course>
  <speed>1.712337583538947</speed>
  <fix>3d</fix>
</trkpt>
<trkpt lat="40.0713593" lon="-105.2297481">
  <ele>1583.0</ele>
  <time>2026-08-27T17:17:27Z</time>
  <course>233.38</course>
  <speed>1.73</speed>
  <fix>3d</fix>
</trkpt>
<trkpt lat="40.0713563" lon="-105.2297538">
  <ele>1583.12</ele>
  <time>2026-08-27T17:17:27Z</time>
  <course>234.26</course>
  <speed>1.712337583538947</speed>
  <fix>3d</fix>
</trkpt>
<trkpt lat="40.0713574" lon="-105.2297513">
  <ele>1583.0</ele>
  <time>2026-08-27T17:17:27Z</time>
  <course>233.39</course>
  <speed>1.73</speed>
  <fix>3d</fix>
</trkpt>
<trkpt lat="40.0713553" lon="-105.2297555">
  <ele>1583.12</ele>
  <time>2026-08-27T17:17:27Z</time>
  <course>234.26</course>
  <speed>1.712337583538947</speed>
  <fix>3d</fix>
</trkpt>
<trkpt lat="40.0713574" lon="-105.2297513">
  <ele>1583.0</ele>
  <time>2026-08-27T17:17:27Z</time>
  <course>233.39</course>
  <speed>1.73</speed>
  <fix>3d</fix>
</trkpt>
<trkpt lat="40.0713544" lon="-105.2297571">
  <ele>1583.12</ele>
  <time>2026-08-27T17:17:27Z</time>
  <course>234.26</course>
  <speed>1.712337583538947</speed>
  <fix>3d</fix>
</trkpt>
<trkpt lat="40.0713555" lon="-105.2297546">
  <ele>1583.0</ele>
  <time>2026-08-27T17:17:27Z</time>
  <course>233.41</course>
  <speed>1.73</speed>
  <fix>3d</fix>
</trkpt>
<trkpt lat="40.0713535" lon="-105.2297588">
  <ele>1583.11</ele>
  <time>2026-08-27T17:17:27Z</time>
  <course>234.27</course>
  <speed>1.712337583538947</speed>
  <fix>3d</fix>
</trkpt>
<trkpt lat="40.0713555" lon="-105.2297546">
  <ele>1583.0</ele>
  <time>2026-08-27T17:17:27Z</time>
  <course>233.41</course>
  <speed>1.73</speed>
  <fix>3d</fix>
</trkpt>
<trkpt lat="40.0713525" lon="-105.2297604">
  <ele>1583.11</ele>
  <time>2026-08-27T17:17:27Z</time>
  <course>234.27</course>
  <speed>1.712337583538947</speed>
  <fix>3d</fix>
</trkpt>
<trkpt lat="40.0713537" lon="-105.2297579">
  <ele>1583.0</ele>
  <time>2026-08-27T17:17:27Z</time>
  <course>233.42</course>
  <speed>1.73</speed>
  <fix>3d</fix>
</trkpt>
<trkpt lat="40.0713516" lon="-105.229762">
  <ele>1583.11</ele>
  <time>2026-08-27T17:17:27Z</time>
  <course>234.28</course>
  <speed>1.712337583538947</speed>
  <fix>3d</fix>
</trkpt>
<trkpt lat="40.0713537" lon="-105.2297579">
  <ele>1583.0</ele>
  <time>2026-08-27T17:17:27Z</time>
  <course>233.42</course>
  <speed>1.73</speed>
  <fix>3d</fix>
</trkpt>
<trkpt lat="40.0713507" lon="-105.2297636">
  <ele>1583.11</ele>
  <time>2026-08-27T17:17:27Z</time>
  <course>234.29</course>
  <speed>1.712337583538947</speed>
  <fix>3d</fix>
</trkpt>
<trkpt lat="40.0713518" lon="-105.2297611">
  <ele>1583.0</ele>
  <time>2026-08-27T17:17:27Z</time>
  <course>233.43</course>
  <speed>1.73</speed>
  <fix>3d</fix>
</trkpt>
<trkpt lat="40.0713498" lon="-105.2297652">
  <ele>1583.11</ele>
  <time>2026-08-27T17:17:27Z</time>
  <course>234.29</course>
  <speed>1.712337583538947</speed>
  <fix>3d</fix>
</trkpt>
<trkpt lat="40.0713518" lon="-105.2297611">
  <ele>1583.0</ele>
  <time>2026-08-27T17:17:27Z</time>
  <course>233.43</course>
  <speed>1.73</speed>
  <fix>3d</fix>
</trkpt>
<trkpt lat="40.071349" lon="-105.2297666">
  <ele>1583.11</ele>
  <time>2026-08-27T17:17:27Z</time>
  <course>234.3</course>
  <speed>1.712337583538947</speed>
  <fix>3d</fix>
</trkpt>
<trkpt lat="40.0713499" lon="-105.2297644">
  <ele>1583.0</ele>
  <time>2026-08-27T17:17:27Z</time>
  <course>233.44</course>
  <speed>1.73</speed>
  <fix>3d</fix>
</trkpt>
<trkpt lat="40.0713481" lon="-105.2297682">
  <ele>1583.11</ele>
  <time>2026-08-27T17:17:27Z</time>
  <course>234.3</course>
  <speed>1.712337583538947</speed>
  <fix>3d</fix>
</trkpt>
<trkpt lat="40.0713499" lon="-105.2297644">
  <ele>1583.0</ele>
  <time>2026-08-27T17:17:27Z</time>
  <course>233.44</course>
  <speed>1.73</speed>
  <fix>3d</fix>
</trkpt>
<trkpt lat="40.0713472" lon="-105.2297698">
  <ele>1583.11</ele>
  <time>2026-08-27T17:17:27Z</time>
  <course>234.32</course>
  <speed>1.712337583538947</speed>
  <fix>3d</fix>
</trkpt>
<trkpt lat="40.0713481" lon="-105.2297677">
  <ele>1583.0</ele>
  <time>2026-08-27T17:17:27Z</time>
  <course>233.46</course>
  <speed>1.73</speed>
  <fix>3d</fix>
</trkpt>
<trkpt lat="40.0713462" lon="-105.2297714">
  <ele>1583.11</ele>
  <time>2026-08-27T17:17:27Z</time>
  <course>234.32</course>
  <speed>1.712337583538947</speed>
  <fix>3d</fix>
</trkpt>
<trkpt lat="40.0713481" lon="-105.2297677">
  <ele>1583.0</ele>
  <time>2026-08-27T17:17:27Z</time>
  <course>233.46</course>
  <speed>1.73</speed>
  <fix>3d</fix>
</trkpt>
<trkpt lat="40.0713453" lon="-105.2297731">
  <ele>1583.11</ele>
  <time>2026-08-27T17:17:27Z</time>
  <course>234.33</course>
  <speed>1.712337583538947</speed>
  <fix>3d</fix>
</trkpt>
<trkpt lat="40.0713462" lon="-105.229771">
  <ele>1583.0</ele>
  <time>2026-08-27T17:17:27Z</time>
  <course>233.47</course>
  <speed>1.73</speed>
  <fix>3d</fix>
</trkpt>
<trkpt lat="40.0713444" lon="-105.2297747">
  <ele>1583.11</ele>
  <time>2026-08-27T17:17:27Z</time>
  <course>234.33</course>
  <speed>1.712337583538947</speed>
  <fix>3d</fix>
</trkpt>
<trkpt lat="40.0713462" lon="-105.229771">
  <ele>1583.0</ele>
  <time>2026-08-27T17:17:27Z</time>
  <course>233.47</course>
  <speed>1.73</speed>
  <fix>3d</fix>
</trkpt>
<trkpt lat="40.0713435" lon="-105.2297764">
  <ele>1583.11</ele>
  <time>2026-08-27T17:17:27Z</time>
  <course>234.34</course>
  <speed>1.712337583538947</speed>
  <fix>3d</fix>
</trkpt>
<trkpt lat="40.0713444" lon="-105.2297742">
  <ele>1583.0</ele>
  <time>2026-08-27T17:17:27Z</time>
  <course>233.48</course>
  <speed>1.73</speed>
  <fix>3d</fix>
</trkpt>
<trkpt lat="40.0713425" lon="-105.229778">
  <ele>1583.12</ele>
  <time>2026-08-27T17:17:27Z</time>
  <course>234.35</course>
  <speed>1.712337583538947</speed>
  <fix>3d</fix>
</trkpt>
<trkpt lat="40.0713444" lon="-105.2297742">
  <ele>1583.0</ele>
  <time>2026-08-27T17:17:27Z</time>
  <course>233.48</course>
  <speed>1.73</speed>
  <fix>3d</fix>
</trkpt>
<trkpt lat="40.0713416" lon="-105.2297797">
  <ele>1583.12</ele>
  <time>2026-08-27T17:17:27Z</time>
  <course>234.36</course>
  <speed>1.712337583538947</speed>
  <fix>3d</fix>
</trkpt>
<trkpt lat="40.0713425" lon="-105.2297775">
  <ele>1583.0</ele>
  <time>2026-08-27T17:17:27Z</time>
  <course>233.5</course>
  <speed>1.73</speed>
  <fix>3d</fix>
</trkpt>
<trkpt lat="40.0713406" lon="-105.2297813">
  <ele>1583.12</ele>
  <time>2026-08-27T17:17:27Z</time>
  <course>234.36</course>
  <speed>1.712337583538947</speed>
  <fix>3d</fix>
</trkpt>
<trkpt lat="40.0713425" lon="-105.2297775">
  <ele>1583.0</ele>
  <time>2026-08-27T17:17:27Z</time>
  <course>233.5</course>
  <speed>1.73</speed>
  <fix>3d</fix>
</trkpt>
<trkpt lat="40.0713395" lon="-105.2297833">
  <ele>1583.12</ele>
  <time>2026-08-27T17:17:27Z</time>
  <course>234.37</course>
  <speed>1.712337583538947</speed>
  <fix>3d</fix>
</trkpt>
<trkpt lat="40.0713406" lon="-105.2297808">
  <ele>1583.0</ele>
  <time>2026-08-27T17:17:27Z</time>
  <course>233.51</course>
  <speed>1.73</speed>
  <fix>3d</fix>
</trkpt>
<trkpt lat="40.0713386" lon="-105.229785">
  <ele>1583.12</ele>
  <time>2026-08-27T17:17:27Z</time>
  <course>234.37</course>
  <speed>1.712337583538947</speed>
  <fix>3d</fix>
</trkpt>
<trkpt lat="40.0713406" lon="-105.2297808">
  <ele>1583.0</ele>
  <time>2026-08-27T17:17:27Z</time>
  <course>233.51</course>
  <speed>1.73</speed>
  <fix>3d</fix>
</trkpt>
<trkpt lat="40.0713376" lon="-105.2297866">
  <ele>1583.12</ele>
  <time>2026-08-27T17:17:27Z</time>
  <course>234.39</course>
  <speed>1.7204650534085255</speed>
  <fix>3d</fix>
</trkpt>
<trkpt lat="40.0713388" lon="-105.2297841">
  <ele>1583.0</ele>
  <time>2026-08-27T17:17:27Z</time>
  <course>233.52</course>
  <speed>1.73</speed>
  <fix>3d</fix>
</trkpt>
<trkpt lat="40.0713367" lon="-105.2297883">
  <ele>1583.12</ele>
  <time>2026-08-27T17:17:27Z</time>
  <course>234.39</course>
  <speed>1.7204650534085255</speed>
  <fix>3d</fix>
</trkpt>
<trkpt lat="40.0713388" lon="-105.2297841">
  <ele>1583.0</ele>
  <time>2026-08-27T17:17:27Z</time>
  <course>233.52</course>
  <speed>1.73</speed>
  <fix>3d</fix>
</trkpt>
<trkpt lat="40.0713358" lon="-105.2297899">
  <ele>1583.13</ele>
  <time>2026-08-27T17:17:27Z</time>
  <course>234.4</course>
  <speed>1.7204650534085255</speed>
  <fix>3d</fix>
</trkpt>
<trkpt lat="40.071337" lon="-105.2297874">
  <ele>1583.0</ele>
  <time>2026-08-27T17:17:27Z</time>
  <course>233.54</course>
  <speed>1.73</speed>
  <fix>3d</fix>
</trkpt>
<trkpt lat="40.0713349" lon="-105.2297915">
  <ele>1583.13</ele>
  <time>2026-08-27T17:17:27Z</time>
  <course>234.41</course>
  <speed>1.7204650534085255</speed>
  <fix>3d</fix>
</trkpt>
<trkpt lat="40.071337" lon="-105.2297874">
  <ele>1583.0</ele>
  <time>2026-08-27T17:17:27Z</time>
  <course>233.54</course>
  <speed>1.73</speed>
  <fix>3d</fix>
</trkpt>
<trkpt lat="40.0713339" lon="-105.2297932">
  <ele>1583.13</ele>
  <time>2026-08-27T17:17:27Z</time>
  <course>234.41</course>
  <speed>1.7204650534085255</speed>
  <fix>3d</fix>
</trkpt>
<trkpt lat="40.0713351" lon="-105.2297907">
  <ele>1583.0</ele>
  <time>2026-08-27T17:17:27Z</time>
  <course>233.55</course>
  <speed>1.73</speed>
  <fix>3d</fix>
</trkpt>
<trkpt lat="40.071333" lon="-105.2297948">
  <ele>1583.13</ele>
  <time>2026-08-27T17:17:27Z</time>
  <course>234.41</course>
  <speed>1.7204650534085255</speed>
  <fix>3d</fix>
</trkpt>
<trkpt lat="40.0713351" lon="-105.2297907">
  <ele>1583.0</ele>
  <time>2026-08-27T17:17:27Z</time>
  <course>233.55</course>
  <speed>1.73</speed>
  <fix>3d</fix>
</trkpt>
<trkpt lat="40.0713321" lon="-105.2297964">
  <ele>1583.13</ele>
  <time>2026-08-27T17:17:27Z</time>
  <course>234.42</course>
  <speed>1.7204650534085255</speed>
  <fix>3d</fix>
</trkpt>
<trkpt lat="40.0713332" lon="-105.2297939">
  <ele>1583.0</ele>
  <time>2026-08-27T17:17:27Z</time>
  <course>233.56</course>
  <speed>1.73</speed>
  <fix>3d</fix>
</trkpt>
<trkpt lat="40.0713312" lon="-105.229798">
  <ele>1583.13</ele>
  <time>2026-08-27T17:17:27Z</time>
  <course>234.43</course>
  <speed>1.712337583538947</speed>
  <fix>3d</fix>
</trkpt>
<trkpt lat="40.0713332" lon="-105.2297939">
  <ele>1583.0</ele>
  <time>2026-08-27T17:17:27Z</time>
  <course>233.56</course>
  <speed>1.73</speed>
  <fix>3d</fix>
</trkpt>
<trkpt lat="40.0713303" lon="-105.2297997">
  <ele>1583.13</ele>
  <time>2026-08-27T17:17:27Z</time>
  <course>234.43</course>
  <speed>1.712337583538947</speed>
  <fix>3d</fix>
</trkpt>
<trkpt lat="40.0713314" lon="-105.2297972">
  <ele>1583.0</ele>
  <time>2026-08-27T17:17:27Z</time>
  <course>233.58</course>
  <speed>1.73</speed>
  <fix>3d</fix>
</trkpt>
<trkpt lat="40.0713295" lon="-105.229801">
  <ele>1583.13</ele>
  <time>2026-08-27T17:17:27Z</time>
  <course>234.44</course>
  <speed>1.712337583538947</speed>
  <fix>3d</fix>
</trkpt>
<trkpt lat="40.0713314" lon="-105.2297972">
  <ele>1583.0</ele>
  <time>2026-08-27T17:17:27Z</time>
  <course>233.58</course>
  <speed>1.73</speed>
  <fix>3d</fix>
</trkpt>
<trkpt lat="40.0713286" lon="-105.2298026">
  <ele>1583.13</ele>
  <time>2026-08-27T17:17:27Z</time>
  <course>234.44</course>
  <speed>1.712337583538947</speed>
  <fix>3d</fix>
</trkpt>
<trkpt lat="40.0713295" lon="-105.2298005">
  <ele>1583.0</ele>
  <time>2026-08-27T17:17:27Z</time>
  <course>233.59</course>
  <speed>1.73</speed>
  <fix>3d</fix>
</trkpt>
<trkpt lat="40.0713277" lon="-105.2298042">
  <ele>1583.13</ele>
  <time>2026-08-27T17:17:27Z</time>
  <course>234.45</course>
  <speed>1.712337583538947</speed>
  <fix>3d</fix>
</trkpt>
<trkpt lat="40.0713295" lon="-105.2298005">
  <ele>1583.0</ele>
  <time>2026-08-27T17:17:27Z</time>
  <course>233.59</course>
  <speed>1.73</speed>
  <fix>3d</fix>
</trkpt>
<trkpt lat="40.0713268" lon="-105.2298059">
  <ele>1583.13</ele>
  <time>2026-08-27T17:17:27Z</time>
  <course>234.46</course>
  <speed>1.712337583538947</speed>
  <fix>3d</fix>
</trkpt>
<trkpt lat="40.0713277" lon="-105.2298038">
  <ele>1583.0</ele>
  <time>2026-08-27T17:17:27Z</time>
  <course>233.6</course>
  <speed>1.73</speed>
  <fix>3d</fix>
</trkpt>
<trkpt lat="40.0713258" lon="-105.2298075">
  <ele>1583.13</ele>
  <time>2026-08-27T17:17:27Z</time>
  <course>234.46</course>
  <speed>1.712337583538947</speed>
  <fix>3d</fix>
</trkpt>
<trkpt lat="40.0713277" lon="-105.2298038">
  <ele>1583.0</ele>
  <time>2026-08-27T17:17:27Z</time>
  <course>233.6</course>
  <speed>1.73</speed>
  <fix>3d</fix>
</trkpt>
<trkpt lat="40.0713249" lon="-105.2298092">
  <ele>1583.13</ele>
  <time>2026-08-27T17:17:27Z</time>
  <course>234.47</course>
  <speed>1.712337583538947</speed>
  <fix>3d</fix>
</trkpt>
<trkpt lat="40.0713258" lon="-105.2298071">
  <ele>1583.0</ele>
  <time>2026-08-27T17:17:27Z</time>
  <course>233.62</course>
  <speed>1.74</speed>
  <fix>3d</fix>
</trkpt>
<trkpt lat="40.071324" lon="-105.2298108">
  <ele>1583.13</ele>
  <time>2026-08-27T17:17:27Z</time>
  <course>234.48</course>
  <speed>1.7204650534085255</speed>
  <fix>3d</fix>
</trkpt>
<trkpt lat="40.0713258" lon="-105.2298071">
  <ele>1583.0</ele>
  <time>2026-08-27T17:17:27Z</time>
  <course>233.62</course>
  <speed>1.74</speed>
  <fix>3d</fix>
</trkpt>
<trkpt lat="40.071323" lon="-105.2298125">
  <ele>1583.12</ele>
  <time>2026-08-27T17:17:27Z</time>
  <course>234.49</course>
  <speed>1.7204650534085255</speed>
  <fix>3d</fix>
</trkpt>
<trkpt lat="40.071324" lon="-105.2298104">
  <ele>1583.0</ele>
  <time>2026-08-27T17:17:27Z</time>
  <course>233.63</course>
  <speed>1.74</speed>
  <fix>3d</fix>
</trkpt>
<trkpt lat="40.0713221" lon="-105.2298141">
  <ele>1583.12</ele>
  <time>2026-08-27T17:17:27Z</time>
  <course>234.49</course>
  <speed>1.7204650534085255</speed>
  <fix>3d</fix>
</trkpt>
<trkpt lat="40.071324" lon="-105.2298104">
  <ele>1583.0</ele>
  <time>2026-08-27T17:17:27Z</time>
  <course>233.63</course>
  <speed>1.74</speed>
  <fix>3d</fix>
</trkpt>
<trkpt lat="40.0713212" lon="-105.2298158">
  <ele>1583.13</ele>
  <time>2026-08-27T17:17:27Z</time>
  <course>234.5</course>
  <speed>1.7204650534085255</speed>
  <fix>3d</fix>
</trkpt>
<trkpt lat="40.0713221" lon="-105.2298136">
  <ele>1583.0</ele>
  <time>2026-08-27T17:17:27Z</time>
  <course>233.64</course>
  <speed>1.74</speed>
  <fix>3d</fix>
</trkpt>
<trkpt lat="40.07132" lon="-105.2298178">
  <ele>1583.13</ele>
  <time>2026-08-27T17:17:27Z</time>
  <course>234.51</course>
  <speed>1.7204650534085255</speed>
  <fix>3d</fix>
</trkpt>
<trkpt lat="40.0713221" lon="-105.2298136">
  <ele>1583.0</ele>
  <time>2026-08-27T17:17:27Z</time>
  <course>233.64</course>
  <speed>1.74</speed>
  <fix>3d</fix>
</trkpt>
<trkpt lat="40.0713191" lon="-105.2298194">
  <ele>1583.13</ele>
  <time>2026-08-27T17:17:27Z</time>
  <course>234.51</course>
  <speed>1.7204650534085255</speed>
  <fix>3d</fix>
</trkpt>
<trkpt lat="40.0713202" lon="-105.2298169">
  <ele>1583.0</ele>
  <time>2026-08-27T17:17:27Z</time>
  <course>233.65</course>
  <speed>1.74</speed>
  <fix>3d</fix>
</trkpt>
<trkpt lat="40.0713182" lon="-105.2298211">
  <ele>1583.13</ele>
  <time>2026-08-27T17:17:27Z</time>
  <course>234.52</course>
  <speed>1.7204650534085255</speed>
  <fix>3d</fix>
</trkpt>
<trkpt lat="40.0713202" lon="-105.2298169">
  <ele>1583.0</ele>
  <time>2026-08-27T17:17:27Z</time>
  <course>233.65</course>
  <speed>1.74</speed>
  <fix>3d</fix>
</trkpt>
<trkpt lat="40.0713172" lon="-105.2298227">
  <ele>1583.13</ele>
  <time>2026-08-27T17:17:27Z</time>
  <course>234.53</course>
  <speed>1.7204650534085255</speed>
  <fix>3d</fix>
</trkpt>
<trkpt lat="40.0713184" lon="-105.2298202">
  <ele>1583.0</ele>
  <time>2026-08-27T17:17:27Z</time>
  <course>233.66</course>
  <speed>1.74</speed>
  <fix>3d</fix>
</trkpt>
<trkpt lat="40.0713163" lon="-105.2298244">
  <ele>1583.13</ele>
  <time>2026-08-27T17:17:27Z</time>
  <course>234.54</course>
  <speed>1.7204650534085255</speed>
  <fix>3d</fix>
</trkpt>
<trkpt lat="40.0713184" lon="-105.2298202">
  <ele>1583.0</ele>
  <time>2026-08-27T17:17:27Z</time>
  <course>233.66</course>
  <speed>1.74</speed>
  <fix>3d</fix>
</trkpt>
<trkpt lat="40.0713154" lon="-105.229826">
  <ele>1583.13</ele>
  <time>2026-08-27T17:17:27Z</time>
  <course>234.54</course>
  <speed>1.7204650534085255</speed>
  <fix>3d</fix>
</trkpt>
<trkpt lat="40.0713166" lon="-105.2298235">
  <ele>1583.0</ele>
  <time>2026-08-27T17:17:27Z</time>
  <course>233.68</course>
  <speed>1.74</speed>
  <fix>3d</fix>
</trkpt>
<trkpt lat="40.0713145" lon="-105.2298277">
  <ele>1583.13</ele>
  <time>2026-08-27T17:17:27Z</time>
  <course>234.55</course>
  <speed>1.7204650534085255</speed>
  <fix>3d</fix>
</trkpt>
<trkpt lat="40.0713166" lon="-105.2298235">
  <ele>1583.0</ele>
  <time>2026-08-27T17:17:27Z</time>
  <course>233.68</course>
  <speed>1.74</speed>
  <fix>3d</fix>
</trkpt>
<trkpt lat="40.0713135" lon="-105.2298293">
  <ele>1583.13</ele>
  <time>2026-08-27T17:17:27Z</time>
  <course>234.56</course>
  <speed>1.7204650534085255</speed>
  <fix>3d</fix>
</trkpt>
<trkpt lat="40.0713147" lon="-105.2298268">
  <ele>1583.0</ele>
  <time>2026-08-27T17:17:27Z</time>
  <course>233.69</course>
  <speed>1.74</speed>
  <fix>3d</fix>
</trkpt>
<trkpt lat="40.0713126" lon="-105.2298309">
  <ele>1583.13</ele>
  <time>2026-08-27T17:17:27Z</time>
  <course>234.57</course>
  <speed>1.7204650534085255</speed>
  <fix>3d</fix>
</trkpt>
<trkpt lat="40.0713147" lon="-105.2298268">
  <ele>1583.0</ele>
  <time>2026-08-27T17:17:27Z</time>
  <course>233.69</course>
  <speed>1.74</speed>
  <fix>3d</fix>
</trkpt>
<trkpt lat="40.0713117" lon="-105.2298326">
  <ele>1583.12</ele>
  <time>2026-08-27T17:17:27Z</time>
  <course>234.57</course>
  <speed>1.7204650534085255</speed>
  <fix>3d</fix>
</trkpt>
<trkpt lat="40.0713128" lon="-105.2298301">
  <ele>1583.0</ele>
  <time>2026-08-27T17:17:27Z</time>
  <course>233.71</course>
  <speed>1.74</speed>
  <fix>3d</fix>
</trkpt>
<trkpt lat="40.0713108" lon="-105.2298342">
  <ele>1583.12</ele>
  <time>2026-08-27T17:17:27Z</time>
  <course>234.58</course>
  <speed>1.7204650534085255</speed>
  <fix>3d</fix>
</trkpt>
<trkpt lat="40.0713128" lon="-105.2298301">
  <ele>1583.0</ele>
  <time>2026-08-27T17:17:27Z</time>
  <course>233.71</course>
  <speed>1.74</speed>
  <fix>3d</fix>
</trkpt>
<trkpt lat="40.0713101" lon="-105.2298355">
  <ele>1583.12</ele>
  <time>2026-08-27T17:17:27Z</time>
  <course>234.58</course>
  <speed>1.7204650534085255</speed>
  <fix>3d</fix>
</trkpt>
<trkpt lat="40.071311" lon="-105.2298334">
  <ele>1583.0</ele>
  <time>2026-08-27T17:17:27Z</time>
  <course>233.72</course>
  <speed>1.74</speed>
  <fix>3d</fix>
</trkpt>
<trkpt lat="40.0713091" lon="-105.2298372">
  <ele>1583.12</ele>
  <time>2026-08-27T17:17:27Z</time>
  <course>234.59</course>
  <speed>1.7204650534085255</speed>
  <fix>3d</fix>
</trkpt>
<trkpt lat="40.071311" lon="-105.2298334">
  <ele>1583.0</ele>
  <time>2026-08-27T17:17:27Z</time>
  <course>233.72</course>
  <speed>1.74</speed>
  <fix>3d</fix>
</trkpt>
<trkpt lat="40.0713082" lon="-105.2298388">
  <ele>1583.12</ele>
  <time>2026-08-27T17:17:27Z</time>
  <course>234.59</course>
  <speed>1.7204650534085255</speed>
  <fix>3d</fix>
</trkpt>
<trkpt lat="40.0713092" lon="-105.2298367">
  <ele>1583.0</ele>
  <time>2026-08-27T17:17:27Z</time>
  <course>233.73</course>
  <speed>1.74</speed>
  <fix>3d</fix>
</trkpt>
<trkpt lat="40.0713073" lon="-105.2298404">
  <ele>1583.12</ele>
  <time>2026-08-27T17:17:27Z</time>
  <course>234.61</course>
  <speed>1.7204650534085255</speed>
  <fix>3d</fix>
</trkpt>
<trkpt lat="40.0713092" lon="-105.2298367">
  <ele>1583.0</ele>
  <time>2026-08-27T17:17:27Z</time>
  <course>233.73</course>
  <speed>1.74</speed>
  <fix>3d</fix>
</trkpt>
<trkpt lat="40.0713064" lon="-105.2298421">
  <ele>1583.12</ele>
  <time>2026-08-27T17:17:27Z</time>
  <course>234.62</course>
  <speed>1.7204650534085255</speed>
  <fix>3d</fix>
</trkpt>
<trkpt lat="40.0713073" lon="-105.22984">
  <ele>1583.0</ele>
  <time>2026-08-27T17:17:27Z</time>
  <course>233.75</course>
  <speed>1.74</speed>
  <fix>3d</fix>
</trkpt>
<trkpt lat="40.0713054" lon="-105.2298438">
  <ele>1583.12</ele>
  <time>2026-08-27T17:17:27Z</time>
  <course>234.62</course>
  <speed>1.7204650534085255</speed>
  <fix>3d</fix>
</trkpt>
<trkpt lat="40.0713073" lon="-105.22984">
  <ele>1583.0</ele>
  <time>2026-08-27T17:17:27Z</time>
  <course>233.75</course>
  <speed>1.74</speed>
  <fix>3d</fix>
</trkpt>
<trkpt lat="40.0713045" lon="-105.2298454">
  <ele>1583.13</ele>
  <time>2026-08-27T17:17:27Z</time>
  <course>234.63</course>
  <speed>1.7204650534085255</speed>
  <fix>3d</fix>
</trkpt>
<trkpt lat="40.0713054" lon="-105.2298433">
  <ele>1583.0</ele>
  <time>2026-08-27T17:17:27Z</time>
  <course>233.77</course>
  <speed>1.74</speed>
  <fix>3d</fix>
</trkpt>
<trkpt lat="40.0713036" lon="-105.2298471">
  <ele>1583.13</ele>
  <time>2026-08-27T17:17:27Z</time>
  <course>234.64</course>
  <speed>1.7204650534085255</speed>
  <fix>3d</fix>
</trkpt>
<trkpt lat="40.0713054" lon="-105.2298433">
  <ele>1583.0</ele>
  <time>2026-08-27T17:17:27Z</time>
  <course>233.77</course>
  <speed>1.74</speed>
  <fix>3d</fix>
</trkpt>
<trkpt lat="40.0713026" lon="-105.2298487">
  <ele>1583.13</ele>
  <time>2026-08-27T17:17:27Z</time>
  <course>234.64</course>
  <speed>1.7204650534085255</speed>
  <fix>3d</fix>
</trkpt>
<trkpt lat="40.0713036" lon="-105.2298466">
  <ele>1583.0</ele>
  <time>2026-08-27T17:17:27Z</time>
  <course>233.78</course>
  <speed>1.74</speed>
  <fix>3d</fix>
</trkpt>
<trkpt lat="40.0713017" lon="-105.2298504">
  <ele>1583.14</ele>
  <time>2026-08-27T17:17:27Z</time>
  <course>234.65</course>
  <speed>1.7204650534085255</speed>
  <fix>3d</fix>
</trkpt>
<trkpt lat="40.0713036" lon="-105.2298466">
  <ele>1583.0</ele>
  <time>2026-08-27T17:17:27Z</time>
  <course>233.78</course>
  <speed>1.74</speed>
  <fix>3d</fix>
</trkpt>
<trkpt lat="40.0713006" lon="-105.2298524">
  <ele>1583.14</ele>
  <time>2026-08-27T17:17:27Z</time>
  <course>234.66</course>
  <speed>1.7204650534085255</speed>
  <fix>3d</fix>
</trkpt>
<trkpt lat="40.0713018" lon="-105.2298499">
  <ele>1583.0</ele>
  <time>2026-08-27T17:17:27Z</time>
  <course>233.79</course>
  <speed>1.74</speed>
  <fix>3d</fix>
</trkpt>
<trkpt lat="40.0712997" lon="-105.2298541">
  <ele>1583.14</ele>
  <time>2026-08-27T17:17:27Z</time>
  <course>234.67</course>
  <speed>1.7204650534085255</speed>
  <fix>3d</fix>
</trkpt>
<trkpt lat="40.0713018" lon="-105.2298499">
  <ele>1583.0</ele>
  <time>2026-08-27T17:17:27Z</time>
  <course>233.79</course>
  <speed>1.74</speed>
  <fix>3d</fix>
</trkpt>
<trkpt lat="40.0712987" lon="-105.2298557">
  <ele>1583.14</ele>
  <time>2026-08-27T17:17:27Z</time>
  <course>234.67</course>
  <speed>1.7204650534085255</speed>
  <fix>3d</fix>
</trkpt>
<trkpt lat="40.0712999" lon="-105.2298532">
  <ele>1583.0</ele>
  <time>2026-08-27T17:17:27Z</time>
  <course>233.81</course>
  <speed>1.74</speed>
  <fix>3d</fix>
</trkpt>
<trkpt lat="40.0712978" lon="-105.2298574">
  <ele>1583.14</ele>
  <time>2026-08-27T17:17:27Z</time>
  <course>234.68</course>
  <speed>1.7204650534085255</speed>
  <fix>3d</fix>
</trkpt>
<trkpt lat="40.0712999" lon="-105.2298532">
  <ele>1583.0</ele>
  <time>2026-08-27T17:17:27Z</time>
  <course>233.81</course>
  <speed>1.74</speed>
  <fix>3d</fix>
</trkpt>
<trkpt lat="40.0712969" lon="-105.229859">
  <ele>1583.14</ele>
  <time>2026-08-27T17:17:27Z</time>
  <course>234.69</course>
  <speed>1.7204650534085255</speed>
  <fix>3d</fix>
</trkpt>
<trkpt lat="40.071298" lon="-105.2298565">
  <ele>1583.0</ele>
  <time>2026-08-27T17:17:27Z</time>
  <course>233.82</course>
  <speed>1.74</speed>
  <fix>3d</fix>
</trkpt>
<trkpt lat="40.071296" lon="-105.2298607">
  <ele>1583.14</ele>
  <time>2026-08-27T17:17:27Z</time>
  <course>234.7</course>
  <speed>1.7204650534085255</speed>
  <fix>3d</fix>
</trkpt>
<trkpt lat="40.071298" lon="-105.2298565">
  <ele>1583.0</ele>
  <time>2026-08-27T17:17:27Z</time>
  <course>233.82</course>
  <speed>1.74</speed>
  <fix>3d</fix>
</trkpt>
<trkpt lat="40.071295" lon="-105.2298623">
  <ele>1583.14</ele>
  <time>2026-08-27T17:17:27Z</time>
  <course>234.71</course>
  <speed>1.7204650534085255</speed>
  <fix>3d</fix>
</trkpt>
<trkpt lat="40.0712962" lon="-105.2298598">
  <ele>1583.0</ele>
  <time>2026-08-27T17:17:27Z</time>
  <course>233.84</course>
  <speed>1.74</speed>
  <fix>3d</fix>
</trkpt>
<trkpt lat="40.0712941" lon="-105.229864">
  <ele>1583.14</ele>
  <time>2026-08-27T17:17:27Z</time>
  <course>234.71</course>
  <speed>1.7204650534085255</speed>
  <fix>3d</fix>
</trkpt>
<trkpt lat="40.0712962" lon="-105.2298598">
  <ele>1583.0</ele>
  <time>2026-08-27T17:17:27Z</time>
  <course>233.84</course>
  <speed>1.74</speed>
  <fix>3d</fix>
</trkpt>
<trkpt lat="40.0712932" lon="-105.2298656">
  <ele>1583.14</ele>
  <time>2026-08-27T17:17:27Z</time>
  <course>234.72</course>
  <speed>1.7146719802924406</speed>
  <fix>3d</fix>
</trkpt>
<trkpt lat="40.0712944" lon="-105.2298632">
  <ele>1583.0</ele>
  <time>2026-08-27T17:17:27Z</time>
  <course>233.85</course>
  <speed>1.74</speed>
  <fix>3d</fix>
</trkpt>
<trkpt lat="40.0712923" lon="-105.2298672">
  <ele>1583.14</ele>
  <time>2026-08-27T17:17:27Z</time>
  <course>234.72</course>
  <speed>1.7146719802924406</speed>
  <fix>3d</fix>
</trkpt>
<trkpt lat="40.0712944" lon="-105.2298632">
  <ele>1583.0</ele>
  <time>2026-08-27T17:17:27Z</time>
  <course>233.85</course>
  <speed>1.74</speed>
  <fix>3d</fix>
</trkpt>
<trkpt lat="40.0712914" lon="-105.2298689">
  <ele>1583.14</ele>
  <time>2026-08-27T17:17:27Z</time>
  <course>234.73</course>
  <speed>1.7146719802924406</speed>
  <fix>3d</fix>
</trkpt>
<trkpt lat="40.0712925" lon="-105.2298665">
  <ele>1583.0</ele>
  <time>2026-08-27T17:17:27Z</time>
  <course>233.86</course>
  <speed>1.74</speed>
  <fix>3d</fix>
</trkpt>
<trkpt lat="40.0712906" lon="-105.2298702">
  <ele>1583.14</ele>
  <time>2026-08-27T17:17:27Z</time>
  <course>234.73</course>
  <speed>1.7146719802924406</speed>
  <fix>3d</fix>
</trkpt>
<trkpt lat="40.0712925" lon="-105.2298665">
  <ele>1583.0</ele>
  <time>2026-08-27T17:17:27Z</time>
  <course>233.86</course>
  <speed>1.74</speed>
  <fix>3d</fix>
</trkpt>
<trkpt lat="40.0712897" lon="-105.2298718">
  <ele>1583.14</ele>
  <time>2026-08-27T17:17:27Z</time>
  <course>234.74</course>
  <speed>1.7146719802924406</speed>
  <fix>3d</fix>
</trkpt>
<trkpt lat="40.0712906" lon="-105.2298698">
  <ele>1583.0</ele>
  <time>2026-08-27T17:17:27Z</time>
  <course>233.88</course>
  <speed>1.74</speed>
  <fix>3d</fix>
</trkpt>
<trkpt lat="40.0712888" lon="-105.2298735">
  <ele>1583.14</ele>
  <time>2026-08-27T17:17:27Z</time>
  <course>234.75</course>
  <speed>1.7146719802924406</speed>
  <fix>3d</fix>
</trkpt>
<trkpt lat="40.0712906" lon="-105.2298698">
  <ele>1583.0</ele>
  <time>2026-08-27T17:17:27Z</time>
  <course>233.88</course>
  <speed>1.74</speed>
  <fix>3d</fix>
</trkpt>
<trkpt lat="40.0712879" lon="-105.2298751">
  <ele>1583.14</ele>
  <time>2026-08-27T17:17:27Z</time>
  <course>234.76</course>
  <speed>1.7146719802924406</speed>
  <fix>3d</fix>
</trkpt>
<trkpt lat="40.0712888" lon="-105.2298731">
  <ele>1583.0</ele>
  <time>2026-08-27T17:17:27Z</time>
  <course>233.89</course>
  <speed>1.74</speed>
  <fix>3d</fix>
</trkpt>
<trkpt lat="40.071287" lon="-105.2298768">
  <ele>1583.14</ele>
  <time>2026-08-27T17:17:27Z</time>
  <course>234.77</course>
  <speed>1.7146719802924406</speed>
  <fix>3d</fix>
</trkpt>
<trkpt lat="40.0712888" lon="-105.2298731">
  <ele>1583.0</ele>
  <time>2026-08-27T17:17:27Z</time>
  <course>233.89</course>
  <speed>1.74</speed>
  <fix>3d</fix>
</trkpt>
<trkpt lat="40.071286" lon="-105.2298785">
  <ele>1583.14</ele>
  <time>2026-08-27T17:17:27Z</time>
  <course>234.78</course>
  <speed>1.7146719802924406</speed>
  <fix>3d</fix>
</trkpt>
<trkpt lat="40.071287" lon="-105.2298764">
  <ele>1583.0</ele>
  <time>2026-08-27T17:17:27Z</time>
  <course>233.91</course>
  <speed>1.74</speed>
  <fix>3d</fix>
</trkpt>
<trkpt lat="40.0712851" lon="-105.2298801">
  <ele>1583.14</ele>
  <time>2026-08-27T17:17:27Z</time>
  <course>234.79</course>
  <speed>1.7146719802924406</speed>
  <fix>3d</fix>
</trkpt>
<trkpt lat="40.071287" lon="-105.2298764">
  <ele>1583.0</ele>
  <time>2026-08-27T17:17:27Z</time>
  <course>233.91</course>
  <speed>1.74</speed>
  <fix>3d</fix>
</trkpt>
<trkpt lat="40.0712842" lon="-105.2298818">
  <ele>1583.14</ele>
  <time>2026-08-27T17:17:27Z</time>
  <course>234.79</course>
  <speed>1.7146719802924406</speed>
  <fix>3d</fix>
</trkpt>
<trkpt lat="40.0712851" lon="-105.2298797">
  <ele>1583.0</ele>
  <time>2026-08-27T17:17:27Z</time>
  <course>233.93</course>
  <speed>1.74</speed>
  <fix>3d</fix>
</trkpt>
<trkpt lat="40.0712832" lon="-105.2298835">
  <ele>1583.15</ele>
  <time>2026-08-27T17:17:27Z</time>
  <course>234.8</course>
  <speed>1.7228464818433473</speed>
  <fix>3d</fix>
</trkpt>
<trkpt lat="40.0712851" lon="-105.2298797">
  <ele>1583.0</ele>
  <time>2026-08-27T17:17:27Z</time>
  <course>233.93</course>
  <speed>1.74</speed>
  <fix>3d</fix>
</trkpt>
<trkpt lat="40.0712821" lon="-105.2298855">
  <ele>1583.15</ele>
  <time>2026-08-27T17:17:27Z</time>
  <course>234.81</course>
  <speed>1.7228464818433473</speed>
  <fix>3d</fix>
</trkpt>
<trkpt lat="40.0712833" lon="-105.229883">
  <ele>1583.0</ele>
  <time>2026-08-27T17:17:27Z</time>
  <course>233.94</course>
  <speed>1.74</speed>
  <fix>3d</fix>
</trkpt>
<trkpt lat="40.0712812" lon="-105.2298872">
  <ele>1583.15</ele>
  <time>2026-08-27T17:17:27Z</time>
  <course>234.82</course>
  <speed>1.7228464818433473</speed>
  <fix>3d</fix>
</trkpt>
<trkpt lat="40.0712833" lon="-105.229883">
  <ele>1583.0</ele>
  <time>2026-08-27T17:17:27Z</time>
  <course>233.94</course>
  <speed>1.74</speed>
  <fix>3d</fix>
</trkpt>
<trkpt lat="40.0712803" lon="-105.2298888">
  <ele>1583.14</ele>
  <time>2026-08-27T17:17:27Z</time>
  <course>234.83</course>
  <speed>1.7228464818433473</speed>
  <fix>3d</fix>
</trkpt>
<trkpt lat="40.0712814" lon="-105.2298863">
  <ele>1583.0</ele>
  <time>2026-08-27T17:17:27Z</time>
  <course>233.96</course>
  <speed>1.74</speed>
  <fix>3d</fix>
</trkpt>
<trkpt lat="40.0712793" lon="-105.2298905">
  <ele>1583.14</ele>
  <time>2026-08-27T17:17:27Z</time>
  <course>234.84</course>
  <speed>1.7228464818433473</speed>
  <fix>3d</fix>
</trkpt>
<trkpt lat="40.0712814" lon="-105.2298863">
  <ele>1583.0</ele>
  <time>2026-08-27T17:17:27Z</time>
  <course>233.96</course>
  <speed>1.74</speed>
  <fix>3d</fix>
</trkpt>
<trkpt lat="40.0712784" lon="-105.2298922">
  <ele>1583.14</ele>
  <time>2026-08-27T17:17:27Z</time>
  <course>234.85</course>
  <speed>1.7228464818433473</speed>
  <fix>3d</fix>
</trkpt>
<trkpt lat="40.0712795" lon="-105.2298897">
  <ele>1583.0</ele>
  <time>2026-08-27T17:17:27Z</time>
  <course>233.97</course>
  <speed>1.74</speed>
  <fix>3d</fix>
</trkpt>
<trkpt lat="40.0712775" lon="-105.2298938">
  <ele>1583.14</ele>
  <time>2026-08-27T17:17:27Z</time>
  <course>234.86</course>
  <speed>1.7228464818433473</speed>
  <fix>3d</fix>
</trkpt>
<trkpt lat="40.0712795" lon="-105.2298897">
  <ele>1583.0</ele>
  <time>2026-08-27T17:17:27Z</time>
  <course>233.97</course>
  <speed>1.74</speed>
  <fix>3d</fix>
</trkpt>
<trkpt lat="40.0712766" lon="-105.2298955">
  <ele>1583.14</ele>
  <time>2026-08-27T17:17:27Z</time>
  <course>234.87</course>
  <speed>1.7228464818433473</speed>
  <fix>3d</fix>
</trkpt>
<trkpt lat="40.0712777" lon="-105.229893">
  <ele>1583.0</ele>
  <time>2026-08-27T17:17:27Z</time>
  <course>234.0</course>
  <speed>1.74</speed>
  <fix>3d</fix>
</trkpt>
<trkpt lat="40.0712756" lon="-105.2298972">
  <ele>1583.14</ele>
  <time>2026-08-27T17:17:27Z</time>
  <course>234.87</course>
  <speed>1.7228464818433473</speed>
  <fix>3d</fix>
</trkpt>
<trkpt lat="40.0712777" lon="-105.229893">
  <ele>1583.0</ele>
  <time>2026-08-27T17:17:27Z</time>
  <course>234.0</course>
  <speed>1.74</speed>
  <fix>3d</fix>
</trkpt>
<trkpt lat="40.0712747" lon="-105.2298988">
  <ele>1583.14</ele>
  <time>2026-08-27T17:17:27Z</time>
  <course>234.88</course>
  <speed>1.7228464818433473</speed>
  <fix>3d</fix>
</trkpt>
<trkpt lat="40.0712759" lon="-105.2298963">
  <ele>1583.0</ele>
  <time>2026-08-27T17:17:27Z</time>
  <course>234.01</course>
  <speed>1.74</speed>
  <fix>3d</fix>
</trkpt>
<trkpt lat="40.0712738" lon="-105.2299005">
  <ele>1583.14</ele>
  <time>2026-08-27T17:17:27Z</time>
  <course>234.89</course>
  <speed>1.7228464818433473</speed>
  <fix>3d</fix>
</trkpt>
<trkpt lat="40.0712759" lon="-105.2298963">
  <ele>1583.0</ele>
  <time>2026-08-27T17:17:27Z</time>
  <course>234.01</course>
  <speed>1.74</speed>
  <fix>3d</fix>
</trkpt>
<trkpt lat="40.0712729" lon="-105.2299021">
  <ele>1583.14</ele>
  <time>2026-08-27T17:17:27Z</time>
  <course>234.9</course>
  <speed>1.7228464818433473</speed>
  <fix>3d</fix>
</trkpt>
<trkpt lat="40.071274" lon="-105.2298996">
  <ele>1583.0</ele>
  <time>2026-08-27T17:17:27Z</time>
  <course>234.03</course>
  <speed>1.74</speed>
  <fix>3d</fix>
</trkpt>
<trkpt lat="40.071272" lon="-105.2299038">
  <ele>1583.14</ele>
  <time>2026-08-27T17:17:27Z</time>
  <course>234.91</course>
  <speed>1.7228464818433473</speed>
  <fix>3d</fix>
</trkpt>
<trkpt lat="40.071274" lon="-105.2298996">
  <ele>1583.0</ele>
  <time>2026-08-27T17:17:27Z</time>
  <course>234.03</course>
  <speed>1.74</speed>
  <fix>3d</fix>
</trkpt>
<trkpt lat="40.0712712" lon="-105.2299051">
  <ele>1583.14</ele>
  <time>2026-08-27T17:17:27Z</time>
  <course>234.92</course>
  <speed>1.7228464818433473</speed>
  <fix>3d</fix>
</trkpt>
<trkpt lat="40.0712721" lon="-105.2299029">
  <ele>1583.0</ele>
  <time>2026-08-27T17:17:27Z</time>
  <course>234.05</course>
  <speed>1.74</speed>
  <fix>3d</fix>
</trkpt>
<trkpt lat="40.0712703" lon="-105.2299067">
  <ele>1583.15</ele>
  <time>2026-08-27T17:17:27Z</time>
  <course>234.93</course>
  <speed>1.7228464818433473</speed>
  <fix>3d</fix>
</trkpt>
<trkpt lat="40.0712721" lon="-105.2299029">
  <ele>1583.0</ele>
  <time>2026-08-27T17:17:27Z</time>
  <course>234.05</course>
  <speed>1.74</speed>
  <fix>3d</fix>
</trkpt>
<trkpt lat="40.0712694" lon="-105.2299084">
  <ele>1583.15</ele>
  <time>2026-08-27T17:17:27Z</time>
  <course>234.94</course>
  <speed>1.7228464818433473</speed>
  <fix>3d</fix>
</trkpt>
<trkpt lat="40.0712703" lon="-105.2299063">
  <ele>1583.0</ele>
  <time>2026-08-27T17:17:27Z</time>
  <course>234.07</course>
  <speed>1.74</speed>
  <fix>3d</fix>
</trkpt>
<trkpt lat="40.0712685" lon="-105.22991">
  <ele>1583.15</ele>
  <time>2026-08-27T17:17:27Z</time>
  <course>234.95</course>
  <speed>1.7228464818433473</speed>
  <fix>3d</fix>
</trkpt>
<trkpt lat="40.0712703" lon="-105.2299063">
  <ele>1583.0</ele>
  <time>2026-08-27T17:17:27Z</time>
  <course>234.07</course>
  <speed>1.74</speed>
  <fix>3d</fix>
</trkpt>
<trkpt lat="40.0712675" lon="-105.2299117">
  <ele>1583.15</ele>
  <time>2026-08-27T17:17:27Z</time>
  <course>234.95</course>
  <speed>1.7228464818433473</speed>
  <fix>3d</fix>
</trkpt>
<trkpt lat="40.0712685" lon="-105.2299096">
  <ele>1583.0</ele>
  <time>2026-08-27T17:17:27Z</time>
  <course>234.08</course>
  <speed>1.74</speed>
  <fix>3d</fix>
</trkpt>
<trkpt lat="40.0712666" lon="-105.2299134">
  <ele>1583.15</ele>
  <time>2026-08-27T17:17:27Z</time>
  <course>234.95</course>
  <speed>1.7228464818433473</speed>
  <fix>3d</fix>
</trkpt>
<trkpt lat="40.0712685" lon="-105.2299096">
  <ele>1583.0</ele>
  <time>2026-08-27T17:17:27Z</time>
  <course>234.08</course>
  <speed>1.74</speed>
  <fix>3d</fix>
</trkpt>
<trkpt lat="40.0712657" lon="-105.229915">
  <ele>1583.16</ele>
  <time>2026-08-27T17:17:27Z</time>
  <course>234.95</course>
  <speed>1.7228464818433473</speed>
  <fix>3d</fix>
</trkpt>
<trkpt lat="40.0712666" lon="-105.2299129">
  <ele>1583.0</ele>
  <time>2026-08-27T17:17:27Z</time>
  <course>234.09</course>
  <speed>1.75</speed>
  <fix>3d</fix>
</trkpt>
<trkpt lat="40.0712648" lon="-105.2299167">
  <ele>1583.16</ele>
  <time>2026-08-27T17:17:27Z</time>
  <course>234.95</course>
  <speed>1.7228464818433473</speed>
  <fix>3d</fix>
</trkpt>
<trkpt lat="40.0712666" lon="-105.2299129">
  <ele>1583.0</ele>
  <time>2026-08-27T17:17:27Z</time>
  <course>234.09</course>
  <speed>1.75</speed>
  <fix>3d</fix>
</trkpt>
<trkpt lat="40.0712638" lon="-105.2299184">
  <ele>1583.16</ele>
  <time>2026-08-27T17:17:27Z</time>
  <course>234.95</course>
  <speed>1.7228464818433473</speed>
  <fix>3d</fix>
</trkpt>
<trkpt lat="40.0712648" lon="-105.2299163">
  <ele>1583.0</ele>
  <time>2026-08-27T17:17:27Z</time>
  <course>234.09</course>
  <speed>1.75</speed>
  <fix>3d</fix>
</trkpt>
<trkpt lat="40.0712627" lon="-105.2299204">
  <ele>1583.15</ele>
  <time>2026-08-27T17:17:27Z</time>
  <course>234.95</course>
  <speed>1.7286121600868136</speed>
  <fix>3d</fix>
</trkpt>
<trkpt lat="40.0712648" lon="-105.2299163">
  <ele>1583.0</ele>
  <time>2026-08-27T17:17:27Z</time>
  <course>234.09</course>
  <speed>1.75</speed>
  <fix>3d</fix>
</trkpt>
<trkpt lat="40.0712618" lon="-105.2299221">
  <ele>1583.15</ele>
  <time>2026-08-27T17:17:27Z</time>
  <course>234.95</course>
  <speed>1.7286121600868136</speed>
  <fix>3d</fix>
</trkpt>
<trkpt lat="40.071263" lon="-105.2299196">
  <ele>1583.0</ele>
  <time>2026-08-27T17:17:27Z</time>
  <course>234.09</course>
  <speed>1.75</speed>
  <fix>3d</fix>
</trkpt>
<trkpt lat="40.0712609" lon="-105.2299238">
  <ele>1583.15</ele>
  <time>2026-08-27T17:17:27Z</time>
  <course>234.95</course>
  <speed>1.7286121600868136</speed>
  <fix>3d</fix>
</trkpt>
<trkpt lat="40.071263" lon="-105.2299196">
  <ele>1583.0</ele>
  <time>2026-08-27T17:17:27Z</time>
  <course>234.09</course>
  <speed>1.75</speed>
  <fix>3d</fix>
</trkpt>
<trkpt lat="40.0712599" lon="-105.2299254">
  <ele>1583.15</ele>
  <time>2026-08-27T17:17:27Z</time>
  <course>234.95</course>
  <speed>1.7286121600868136</speed>
  <fix>3d</fix>
</trkpt>
<trkpt lat="40.0712611" lon="-105.2299229">
  <ele>1583.0</ele>
  <time>2026-08-27T17:17:27Z</time>
  <course>234.09</course>
  <speed>1.75</speed>
  <fix>3d</fix>
</trkpt>
<trkpt lat="40.071259" lon="-105.2299271">
  <ele>1583.16</ele>
  <time>2026-08-27T17:17:27Z</time>
  <course>234.95</course>
  <speed>1.7286121600868136</speed>
  <fix>3d</fix>
</trkpt>
<trkpt lat="40.0712611" lon="-105.2299229">
  <ele>1583.0</ele>
  <time>2026-08-27T17:17:27Z</time>
  <course>234.09</course>
  <speed>1.75</speed>
  <fix>3d</fix>
</trkpt>
<trkpt lat="40.0712581" lon="-105.2299288">
  <ele>1583.16</ele>
  <time>2026-08-27T17:17:27Z</time>
  <course>234.95</course>
  <speed>1.7286121600868136</speed>
  <fix>3d</fix>
</trkpt>
<trkpt lat="40.0712592" lon="-105.2299262">
  <ele>1583.0</ele>
  <time>2026-08-27T17:17:27Z</time>
  <course>234.09</course>
  <speed>1.75</speed>
  <fix>3d</fix>
</trkpt>
<trkpt lat="40.0712572" lon="-105.2299304">
  <ele>1583.16</ele>
  <time>2026-08-27T17:17:27Z</time>
  <course>234.95</course>
  <speed>1.7286121600868136</speed>
  <fix>3d</fix>
</trkpt>
<trkpt lat="40.0712592" lon="-105.2299262">
  <ele>1583.0</ele>
  <time>2026-08-27T17:17:27Z</time>
  <course>234.09</course>
  <speed>1.75</speed>
  <fix>3d</fix>
</trkpt>
<trkpt lat="40.0712562" lon="-105.2299321">
  <ele>1583.16</ele>
  <time>2026-08-27T17:17:27Z</time>
  <course>234.96</course>
  <speed>1.7286121600868136</speed>
  <fix>3d</fix>
</trkpt>
<trkpt lat="40.0712574" lon="-105.2299296">
  <ele>1583.0</ele>
  <time>2026-08-27T17:17:27Z</time>
  <course>234.09</course>
  <speed>1.75</speed>
  <fix>3d</fix>
</trkpt>
<trkpt lat="40.0712553" lon="-105.2299337">
  <ele>1583.16</ele>
  <time>2026-08-27T17:17:27Z</time>
  <course>234.96</course>
  <speed>1.7286121600868136</speed>
  <fix>3d</fix>
</trkpt>
<trkpt lat="40.0712574" lon="-105.2299296">
  <ele>1583.0</ele>
  <time>2026-08-27T17:17:27Z</time>
  <course>234.09</course>
  <speed>1.75</speed>
  <fix>3d</fix>
</trkpt>
<trkpt lat="40.0712544" lon="-105.2299354">
  <ele>1583.16</ele>
  <time>2026-08-27T17:17:27Z</time>
  <course>234.96</course>
  <speed>1.7228464818433473</speed>
  <fix>3d</fix>
</trkpt>
<trkpt lat="40.0712556" lon="-105.2299329">
  <ele>1583.0</ele>
  <time>2026-08-27T17:17:27Z</time>
  <course>234.09</course>
  <speed>1.75</speed>
  <fix>3d</fix>
</trkpt>
<trkpt lat="40.0712535" lon="-105.229937">
  <ele>1583.16</ele>
  <time>2026-08-27T17:17:27Z</time>
  <course>234.96</course>
  <speed>1.7228464818433473</speed>
  <fix>3d</fix>
</trkpt>
<trkpt lat="40.0712556" lon="-105.2299329">
  <ele>1583.0</ele>
  <time>2026-08-27T17:17:27Z</time>
  <course>234.09</course>
  <speed>1.75</speed>
  <fix>3d</fix>
</trkpt>
<trkpt lat="40.0712528" lon="-105.2299384">
  <ele>1583.16</ele>
  <time>2026-08-27T17:17:27Z</time>
  <course>234.96</course>
  <speed>1.7228464818433473</speed>
  <fix>3d</fix>
</trkpt>
<trkpt lat="40.0712537" lon="-105.2299362">
  <ele>1583.0</ele>
  <time>2026-08-27T17:17:27Z</time>
  <course>234.09</course>
  <speed>1.75</speed>
  <fix>3d</fix>
</trkpt>
<trkpt lat="40.0712518" lon="-105.22994">
  <ele>1583.16</ele>
  <time>2026-08-27T17:17:27Z</time>
  <course>234.97</course>
  <speed>1.7228464818433473</speed>
  <fix>3d</fix>
</trkpt>
<trkpt lat="40.0712537" lon="-105.2299362">
  <ele>1583.0</ele>
  <time>2026-08-27T17:17:27Z</time>
  <course>234.09</course>
  <speed>1.75</speed>
  <fix>3d</fix>
</trkpt>
<trkpt lat="40.0712509" lon="-105.2299417">
  <ele>1583.16</ele>
  <time>2026-08-27T17:17:27Z</time>
  <course>234.98</course>
  <speed>1.7228464818433473</speed>
  <fix>3d</fix>
</trkpt>
<trkpt lat="40.0712518" lon="-105.2299396">
  <ele>1583.0</ele>
  <time>2026-08-27T17:17:27Z</time>
  <course>234.1</course>
  <speed>1.75</speed>
  <fix>3d</fix>
</trkpt>
<trkpt lat="40.07125" lon="-105.2299433">
  <ele>1583.16</ele>
  <time>2026-08-27T17:17:27Z</time>
  <course>234.98</course>
  <speed>1.7228464818433473</speed>
  <fix>3d</fix>
</trkpt>
<trkpt lat="40.0712518" lon="-105.2299396">
  <ele>1583.0</ele>
  <time>2026-08-27T17:17:27Z</time>
  <course>234.1</course>
  <speed>1.75</speed>
  <fix>3d</fix>
</trkpt>
<trkpt lat="40.0712491" lon="-105.229945">
  <ele>1583.16</ele>
  <time>2026-08-27T17:17:27Z</time>
  <course>234.99</course>
  <speed>1.7228464818433473</speed>
  <fix>3d</fix>
</trkpt>
<trkpt lat="40.07125" lon="-105.2299429">
  <ele>1583.0</ele>
  <time>2026-08-27T17:17:27Z</time>
  <course>234.12</course>
  <speed>1.75</speed>
  <fix>3d</fix>
</trkpt>
<trkpt lat="40.0712481" lon="-105.2299467">
  <ele>1583.15</ele>
  <time>2026-08-27T17:17:27Z</time>
  <course>235.01</course>
  <speed>1.7228464818433473</speed>
  <fix>3d</fix>
</trkpt>
<trkpt lat="40.07125" lon="-105.2299429">
  <ele>1583.0</ele>
  <time>2026-08-27T17:17:27Z</time>
  <course>234.12</course>
  <speed>1.75</speed>
  <fix>3d</fix>
</trkpt>
<trkpt lat="40.0712472" lon="-105.2299484">
  <ele>1583.15</ele>
  <time>2026-08-27T17:17:27Z</time>
  <course>235.01</course>
  <speed>1.7228464818433473</speed>
  <fix>3d</fix>
</trkpt>
<trkpt lat="40.0712482" lon="-105.2299463">
  <ele>1583.0</ele>
  <time>2026-08-27T17:17:27Z</time>
  <course>234.14</course>
  <speed>1.75</speed>
  <fix>3d</fix>
</trkpt>
<trkpt lat="40.0712463" lon="-105.22995">
  <ele>1583.15</ele>
  <time>2026-08-27T17:17:27Z</time>
  <course>235.02</course>
  <speed>1.7228464818433473</speed>
  <fix>3d</fix>
</trkpt>
<trkpt lat="40.0712482" lon="-105.2299463">
  <ele>1583.0</ele>
  <time>2026-08-27T17:17:27Z</time>
  <course>234.14</course>
  <speed>1.75</speed>
  <fix>3d</fix>
</trkpt>
<trkpt lat="40.0712454" lon="-105.2299517">
  <ele>1583.15</ele>
  <time>2026-08-27T17:17:27Z</time>
  <course>235.04</course>
  <speed>1.7228464818433473</speed>
  <fix>3d</fix>
</trkpt>
<trkpt lat="40.0712463" lon="-105.2299496">
  <ele>1583.0</ele>
  <time>2026-08-27T17:17:27Z</time>
  <course>234.16</course>
  <speed>1.75</speed>
  <fix>3d</fix>
</trkpt>
<trkpt lat="40.0712444" lon="-105.2299534">
  <ele>1583.15</ele>
  <time>2026-08-27T17:17:27Z</time>
  <course>235.05</course>
  <speed>1.7228464818433473</speed>
  <fix>3d</fix>
</trkpt>
<trkpt lat="40.0712463" lon="-105.2299496">
  <ele>1583.0</ele>
  <time>2026-08-27T17:17:27Z</time>
  <course>234.16</course>
  <speed>1.75</speed>
  <fix>3d</fix>
</trkpt>
<trkpt lat="40.0712433" lon="-105.2299554">
  <ele>1583.15</ele>
  <time>2026-08-27T17:17:27Z</time>
  <course>235.06</course>
  <speed>1.731040149736568</speed>
  <fix>3d</fix>
</trkpt>
<trkpt lat="40.0712445" lon="-105.2299529">
  <ele>1583.0</ele>
  <time>2026-08-27T17:17:27Z</time>
  <course>234.18</course>
  <speed>1.75</speed>
  <fix>3d</fix>
</trkpt>
<trkpt lat="40.0712424" lon="-105.2299571">
  <ele>1583.15</ele>
  <time>2026-08-27T17:17:27Z</time>
  <course>235.07</course>
  <speed>1.731040149736568</speed>
  <fix>3d</fix>
</trkpt>
<trkpt lat="40.0712445" lon="-105.2299529">
  <ele>1583.0</ele>
  <time>2026-08-27T17:17:27Z</time>
  <course>234.18</course>
  <speed>1.75</speed>
  <fix>3d</fix>
</trkpt>
<trkpt lat="40.0712415" lon="-105.2299588">
  <ele>1583.15</ele>
  <time>2026-08-27T17:17:27Z</time>
  <course>235.08</course>
  <speed>1.731040149736568</speed>
  <fix>3d</fix>
</trkpt>
<trkpt lat="40.0712427" lon="-105.2299563">
  <ele>1583.0</ele>
  <time>2026-08-27T17:17:27Z</time>
  <course>234.2</course>
  <speed>1.75</speed>
  <fix>3d</fix>
</trkpt>
<trkpt lat="40.0712405" lon="-105.2299605">
  <ele>1583.15</ele>
  <time>2026-08-27T17:17:27Z</time>
  <course>235.09</course>
  <speed>1.731040149736568</speed>
  <fix>3d</fix>
</trkpt>
<trkpt lat="40.0712427" lon="-105.2299563">
  <ele>1583.0</ele>
  <time>2026-08-27T17:17:27Z</time>
  <course>234.2</course>
  <speed>1.75</speed>
  <fix>3d</fix>
</trkpt>
<trkpt lat="40.0712396" lon="-105.2299621">
  <ele>1583.15</ele>
  <time>2026-08-27T17:17:27Z</time>
  <course>235.1</course>
  <speed>1.731040149736568</speed>
  <fix>3d</fix>
</trkpt>
<trkpt lat="40.0712408" lon="-105.2299596">
  <ele>1583.0</ele>
  <time>2026-08-27T17:17:27Z</time>
  <course>234.22</course>
  <speed>1.75</speed>
  <fix>3d</fix>
</trkpt>
<trkpt lat="40.0712387" lon="-105.2299638">
  <ele>1583.15</ele>
  <time>2026-08-27T17:17:27Z</time>
  <course>235.11</course>
  <speed>1.731040149736568</speed>
  <fix>3d</fix>
</trkpt>
<trkpt lat="40.0712408" lon="-105.2299596">
  <ele>1583.0</ele>
  <time>2026-08-27T17:17:27Z</time>
  <course>234.22</course>
  <speed>1.75</speed>
  <fix>3d</fix>
</trkpt>
<trkpt lat="40.0712378" lon="-105.2299655">
  <ele>1583.15</ele>
  <time>2026-08-27T17:17:27Z</time>
  <course>235.12</course>
  <speed>1.731040149736568</speed>
  <fix>3d</fix>
</trkpt>
<trkpt lat="40.0712389" lon="-105.229963">
  <ele>1583.0</ele>
  <time>2026-08-27T17:17:27Z</time>
  <course>234.23</course>
  <speed>1.75</speed>
  <fix>3d</fix>
</trkpt>
<trkpt lat="40.0712369" lon="-105.2299671">
  <ele>1583.15</ele>
  <time>2026-08-27T17:17:27Z</time>
  <course>235.13</course>
  <speed>1.731040149736568</speed>
  <fix>3d</fix>
</trkpt>
<trkpt lat="40.0712389" lon="-105.229963">
  <ele>1583.0</ele>
  <time>2026-08-27T17:17:27Z</time>
  <course>234.23</course>
  <speed>1.75</speed>
  <fix>3d</fix>
</trkpt>
<trkpt lat="40.071236" lon="-105.2299688">
  <ele>1583.15</ele>
  <time>2026-08-27T17:17:27Z</time>
  <course>235.13</course>
  <speed>1.731040149736568</speed>
  <fix>3d</fix>
</trkpt>
<trkpt lat="40.0712371" lon="-105.2299663">
  <ele>1583.0</ele>
  <time>2026-08-27T17:17:27Z</time>
  <course>234.25</course>
  <speed>1.75</speed>
  <fix>3d</fix>
</trkpt>
<trkpt lat="40.0712351" lon="-105.2299704">
  <ele>1583.15</ele>
  <time>2026-08-27T17:17:27Z</time>
  <course>235.15</course>
  <speed>1.731040149736568</speed>
  <fix>3d</fix>
</trkpt>
<trkpt lat="40.0712371" lon="-105.2299663">
  <ele>1583.0</ele>
  <time>2026-08-27T17:17:27Z</time>
  <course>234.25</course>
  <speed>1.75</speed>
  <fix>3d</fix>
</trkpt>
<trkpt lat="40.0712342" lon="-105.2299721">
  <ele>1583.15</ele>
  <time>2026-08-27T17:17:27Z</time>
  <course>235.16</course>
  <speed>1.731040149736568</speed>
  <fix>3d</fix>
</trkpt>
<trkpt lat="40.0712353" lon="-105.2299696">
  <ele>1583.0</ele>
  <time>2026-08-27T17:17:27Z</time>
  <course>234.27</course>
  <speed>1.75</speed>
  <fix>3d</fix>
</trkpt>
<trkpt lat="40.0712334" lon="-105.2299734">
  <ele>1583.15</ele>
  <time>2026-08-27T17:17:28Z</time>
  <course>235.16</course>
  <speed>1.731040149736568</speed>
  <fix>3d</fix>
</trkpt>
<trkpt lat="40.0712353" lon="-105.2299696">
  <ele>1583.0</ele>
  <time>2026-08-27T17:17:28Z</time>
  <course>234.27</course>
  <speed>1.75</speed>
  <fix>3d</fix>
</trkpt>
<trkpt lat="40.0712325" lon="-105.2299751">
  <ele>1583.16</ele>
  <time>2026-08-27T17:17:28Z</time>
  <course>235.17</course>
  <speed>1.7228464818433473</speed>
  <fix>3d</fix>
</trkpt>
<trkpt lat="40.0712335" lon="-105.229973">
  <ele>1583.0</ele>
  <time>2026-08-27T17:17:28Z</time>
  <course>234.29</course>
  <speed>1.75</speed>
  <fix>3d</fix>
</trkpt>
<trkpt lat="40.0712316" lon="-105.2299767">
  <ele>1583.16</ele>
  <time>2026-08-27T17:17:28Z</time>
  <course>235.19</course>
  <speed>1.731040149736568</speed>
  <fix>3d</fix>
</trkpt>
<trkpt lat="40.0712335" lon="-105.229973">
  <ele>1583.0</ele>
  <time>2026-08-27T17:17:28Z</time>
  <course>234.29</course>
  <speed>1.75</speed>
  <fix>3d</fix>
</trkpt>
<trkpt lat="40.0712307" lon="-105.2299784">
  <ele>1583.16</ele>
  <time>2026-08-27T17:17:28Z</time>
  <course>235.19</course>
  <speed>1.731040149736568</speed>
  <fix>3d</fix>
</trkpt>
<trkpt lat="40.0712316" lon="-105.2299763">
  <ele>1583.0</ele>
  <time>2026-08-27T17:17:28Z</time>
  <course>234.31</course>
  <speed>1.75</speed>
  <fix>3d</fix>
</trkpt>
<trkpt lat="40.0712298" lon="-105.2299801">
  <ele>1583.16</ele>
  <time>2026-08-27T17:17:28Z</time>
  <course>235.21</course>
  <speed>1.731040149736568</speed>
  <fix>3d</fix>
</trkpt>
<trkpt lat="40.0712316" lon="-105.2299763">
  <ele>1583.0</ele>
  <time>2026-08-27T17:17:28Z</time>
  <course>234.31</course>
  <speed>1.75</speed>
  <fix>3d</fix>
</trkpt>
<trkpt lat="40.0712288" lon="-105.2299818">
  <ele>1583.16</ele>
  <time>2026-08-27T17:17:28Z</time>
  <course>235.22</course>
  <speed>1.731040149736568</speed>
  <fix>3d</fix>
</trkpt>
<trkpt lat="40.0712298" lon="-105.2299797">
  <ele>1583.0</ele>
  <time>2026-08-27T17:17:28Z</time>
  <course>234.33</course>
  <speed>1.75</speed>
  <fix>3d</fix>
</trkpt>
<trkpt lat="40.0712279" lon="-105.2299834">
  <ele>1583.16</ele>
  <time>2026-08-27T17:17:28Z</time>
  <course>235.23</course>
  <speed>1.731040149736568</speed>
  <fix>3d</fix>
</trkpt>
<trkpt lat="40.0712298" lon="-105.2299797">
  <ele>1583.0</ele>
  <time>2026-08-27T17:17:28Z</time>
  <course>234.33</course>
  <speed>1.75</speed>
  <fix>3d</fix>
</trkpt>
<trkpt lat="40.071227" lon="-105.2299851">
  <ele>1583.16</ele>
  <time>2026-08-27T17:17:28Z</time>
  <course>235.24</course>
  <speed>1.731040149736568</speed>
  <fix>3d</fix>
</trkpt>
<trkpt lat="40.071228" lon="-105.229983">
  <ele>1583.0</ele>
  <time>2026-08-27T17:17:28Z</time>
  <course>234.36</course>
  <speed>1.75</speed>
  <fix>3d</fix>
</trkpt>
<trkpt lat="40.0712261" lon="-105.2299868">
  <ele>1583.15</ele>
  <time>2026-08-27T17:17:28Z</time>
  <course>235.26</course>
  <speed>1.731040149736568</speed>
  <fix>3d</fix>
</trkpt>
<trkpt lat="40.071228" lon="-105.229983">
  <ele>1583.0</ele>
  <time>2026-08-27T17:17:28Z</time>
  <course>234.36</course>
  <speed>1.75</speed>
  <fix>3d</fix>
</trkpt>
<trkpt lat="40.0712252" lon="-105.2299885">
  <ele>1583.15</ele>
  <time>2026-08-27T17:17:28Z</time>
  <course>235.27</course>
  <speed>1.731040149736568</speed>
  <fix>3d</fix>
</trkpt>
<trkpt lat="40.0712261" lon="-105.2299864">
  <ele>1583.0</ele>
  <time>2026-08-27T17:17:28Z</time>
  <course>234.38</course>
  <speed>1.75</speed>
  <fix>3d</fix>
</trkpt>
<trkpt lat="40.071224" lon="-105.2299905">
  <ele>1583.15</ele>
  <time>2026-08-27T17:17:28Z</time>
  <course>235.28</course>
  <speed>1.731040149736568</speed>
  <fix>3d</fix>
</trkpt>
<trkpt lat="40.0712261" lon="-105.2299864">
  <ele>1583.0</ele>
  <time>2026-08-27T17:17:28Z</time>
  <course>234.38</course>
  <speed>1.75</speed>
  <fix>3d</fix>
</trkpt>
<trkpt lat="40.0712231" lon="-105.2299922">
  <ele>1583.15</ele>
  <time>2026-08-27T17:17:28Z</time>
  <course>235.29</course>
  <speed>1.731040149736568</speed>
  <fix>3d</fix>
</trkpt>
<trkpt lat="40.0712243" lon="-105.2299897">
  <ele>1583.0</ele>
  <time>2026-08-27T17:17:28Z</time>
  <course>234.41</course>
  <speed>1.75</speed>
  <fix>3d</fix>
</trkpt>
<trkpt lat="40.0712222" lon="-105.2299939">
  <ele>1583.15</ele>
  <time>2026-08-27T17:17:28Z</time>
  <course>235.31</course>
  <speed>1.731040149736568</speed>
  <fix>3d</fix>
</trkpt>
<trkpt lat="40.0712243" lon="-105.2299897">
  <ele>1583.0</ele>
  <time>2026-08-27T17:17:28Z</time>
  <course>234.41</course>
  <speed>1.75</speed>
  <fix>3d</fix>
</trkpt>
<trkpt lat="40.0712213" lon="-105.2299956">
  <ele>1583.15</ele>
  <time>2026-08-27T17:17:28Z</time>
  <course>235.31</course>
  <speed>1.731040149736568</speed>
  <fix>3d</fix>
</trkpt>
<trkpt lat="40.0712224" lon="-105.2299931">
  <ele>1583.0</ele>
  <time>2026-08-27T17:17:28Z</time>
  <course>234.42</course>
  <speed>1.75</speed>
  <fix>3d</fix>
</trkpt>
<trkpt lat="40.0712204" lon="-105.2299973">
  <ele>1583.15</ele>
  <time>2026-08-27T17:17:28Z</time>
  <course>235.33</course>
  <speed>1.731040149736568</speed>
  <fix>3d</fix>
</trkpt>
<trkpt lat="40.0712224" lon="-105.2299931">
  <ele>1583.0</ele>
  <time>2026-08-27T17:17:28Z</time>
  <course>234.42</course>
  <speed>1.75</speed>
  <fix>3d</fix>
</trkpt>
<trkpt lat="40.0712195" lon="-105.229999">
  <ele>1583.15</ele>
  <time>2026-08-27T17:17:28Z</time>
  <course>235.33</course>
  <speed>1.731040149736568</speed>
  <fix>3d</fix>
</trkpt>
<trkpt lat="40.0712206" lon="-105.2299965">
  <ele>1583.0</ele>
  <time>2026-08-27T17:17:28Z</time>
  <course>234.44</course>
  <speed>1.75</speed>
  <fix>3d</fix>
</trkpt>
<trkpt lat="40.0712185" lon="-105.2300006">
  <ele>1583.15</ele>
  <time>2026-08-27T17:17:28Z</time>
  <course>235.3</course>
  <speed>1.731040149736568</speed>
  <fix>3d</fix>
</trkpt>
<trkpt lat="40.0712206" lon="-105.2299965">
  <ele>1583.0</ele>
  <time>2026-08-27T17:17:28Z</time>
  <course>234.44</course>
  <speed>1.75</speed>
  <fix>3d</fix>
</trkpt>
<trkpt lat="40.0712176" lon="-105.2300023">
  <ele>1583.15</ele>
  <time>2026-08-27T17:17:28Z</time>
  <course>235.2</course>
  <speed>1.731040149736568</speed>
  <fix>3d</fix>
</trkpt>
<trkpt lat="40.0712187" lon="-105.2299998">
  <ele>1583.0</ele>
  <time>2026-08-27T17:17:28Z</time>
  <course>234.4</course>
  <speed>1.75</speed>
  <fix>3d</fix>
</trkpt>
<trkpt lat="40.0712167" lon="-105.230004">
  <ele>1583.15</ele>
  <time>2026-08-27T17:17:28Z</time>
  <course>235.03</course>
  <speed>1.7367786272291585</speed>
  <fix>3d</fix>
</trkpt>
<trkpt lat="40.0712187" lon="-105.2299998">
  <ele>1583.0</ele>
  <time>2026-08-27T17:17:28Z</time>
  <course>234.4</course>
  <speed>1.75</speed>
  <fix>3d</fix>
</trkpt>
<trkpt lat="40.0712158" lon="-105.2300056">
  <ele>1583.15</ele>
  <time>2026-08-27T17:17:28Z</time>
  <course>234.8</course>
  <speed>1.7286121600868136</speed>
  <fix>3d</fix>
</trkpt>
<trkpt lat="40.0712169" lon="-105.2300032">
  <ele>1583.0</ele>
  <time>2026-08-27T17:17:28Z</time>
  <course>234.16</course>
  <speed>1.75</speed>
  <fix>3d</fix>
</trkpt>
<trkpt lat="40.0712149" lon="-105.2300073">
  <ele>1583.14</ele>
  <time>2026-08-27T17:17:28Z</time>
  <course>234.49</course>
  <speed>1.7344163283364233</speed>
  <fix>3d</fix>
</trkpt>
<trkpt lat="40.0712169" lon="-105.2300032">
  <ele>1583.0</ele>
  <time>2026-08-27T17:17:28Z</time>
  <course>234.16</course>
  <speed>1.75</speed>
  <fix>3d</fix>
</trkpt>
<trkpt lat="40.0712141" lon="-105.2300086">
  <ele>1583.14</ele>
  <time>2026-08-27T17:17:28Z</time>
  <course>234.18</course>
  <speed>1.73216627377397</speed>
  <fix>3d</fix>
</trkpt>
<trkpt lat="40.0712151" lon="-105.2300065">
  <ele>1583.0</ele>
  <time>2026-08-27T17:17:28Z</time>
  <course>233.64</course>
  <speed>1.75</speed>
  <fix>3d</fix>
</trkpt>
<trkpt lat="40.0712132" lon="-105.2300103">
  <ele>1583.14</ele>
  <time>2026-08-27T17:17:28Z</time>
  <course>233.74</course>
  <speed>1.7300289014926888</speed>
  <fix>3d</fix>
</trkpt>
<trkpt lat="40.0712151" lon="-105.2300065">
  <ele>1583.0</ele>
  <time>2026-08-27T17:17:28Z</time>
  <course>233.64</course>
  <speed>1.75</speed>
  <fix>3d</fix>
</trkpt>
<trkpt lat="40.0712122" lon="-105.2300119">
  <ele>1583.14</ele>
  <time>2026-08-27T17:17:28Z</time>
  <course>233.21</course>
  <speed>1.7280046296234277</speed>
  <fix>3d</fix>
</trkpt>
<trkpt lat="40.0712132" lon="-105.2300098">
  <ele>1583.0</ele>
  <time>2026-08-27T17:17:28Z</time>
  <course>232.82</course>
  <speed>1.75</speed>
  <fix>3d</fix>
</trkpt>
<trkpt lat="40.0712112" lon="-105.2300135">
  <ele>1583.14</ele>
  <time>2026-08-27T17:17:28Z</time>
  <course>232.61</course>
  <speed>1.7260938560808332</speed>
  <fix>3d</fix>
</trkpt>
<trkpt lat="40.0712132" lon="-105.2300098">
  <ele>1583.0</ele>
  <time>2026-08-27T17:17:28Z</time>
  <course>232.82</course>
  <speed>1.75</speed>
  <fix>3d</fix>
</trkpt>
<trkpt lat="40.0712103" lon="-105.2300151">
  <ele>1583.15</ele>
  <time>2026-08-27T17:17:28Z</time>
  <course>231.92</course>
  <speed>1.722614292289484</speed>
  <fix>3d</fix>
</trkpt>
<trkpt lat="40.0712112" lon="-105.230013">
  <ele>1583.0</ele>
  <time>2026-08-27T17:17:28Z</time>
  <course>231.68</course>
  <speed>1.75</speed>
  <fix>3d</fix>
</trkpt>
<trkpt lat="40.0712092" lon="-105.2300167">
  <ele>1583.14</ele>
  <time>2026-08-27T17:17:28Z</time>
  <course>231.13</course>
  <speed>1.7132717239247253</speed>
  <fix>3d</fix>
</trkpt>
<trkpt lat="40.0712112" lon="-105.230013">
  <ele>1583.0</ele>
  <time>2026-08-27T17:17:28Z</time>
  <course>231.68</course>
  <speed>1.75</speed>
  <fix>3d</fix>
</trkpt>
<trkpt lat="40.0712082" lon="-105.2300183">
  <ele>1583.14</ele>
  <time>2026-08-27T17:17:28Z</time>
  <course>230.26</course>
  <speed>1.7105846953600397</speed>
  <fix>3d</fix>
</trkpt>
<trkpt lat="40.0712092" lon="-105.2300162">
  <ele>1583.0</ele>
  <time>2026-08-27T17:17:28Z</time>
  <course>230.2</course>
  <speed>1.74</speed>
  <fix>3d</fix>
</trkpt>
<trkpt lat="40.0712072" lon="-105.2300198">
  <ele>1583.14</ele>
  <time>2026-08-27T17:17:28Z</time>
  <course>229.29</course>
  <speed>1.7083617883809037</speed>
  <fix>3d</fix>
</trkpt>
<trkpt lat="40.0712092" lon="-105.2300162">
  <ele>1583.0</ele>
  <time>2026-08-27T17:17:28Z</time>
  <course>230.2</course>
  <speed>1.74</speed>
  <fix>3d</fix>
</trkpt>
<trkpt lat="40.0712061" lon="-105.2300213">
  <ele>1583.14</ele>
  <time>2026-08-27T17:17:28Z</time>
  <course>228.23</course>
  <speed>1.6991762710207556</speed>
  <fix>3d</fix>
</trkpt>
<trkpt lat="40.0712072" lon="-105.2300193">
  <ele>1583.0</ele>
  <time>2026-08-27T17:17:28Z</time>
  <course>228.37</course>
  <speed>1.72</speed>
  <fix>3d</fix>
</trkpt>
<trkpt lat="40.0712051" lon="-105.2300228">
  <ele>1583.13</ele>
  <time>2026-08-27T17:17:28Z</time>
  <course>227.07</course>
  <speed>1.6907099100673657</speed>
  <fix>3d</fix>
</trkpt>
<trkpt lat="40.0712072" lon="-105.2300193">
  <ele>1583.0</ele>
  <time>2026-08-27T17:17:28Z</time>
  <course>228.37</course>
  <speed>1.72</speed>
  <fix>3d</fix>
</trkpt>
<trkpt lat="40.0712037" lon="-105.2300245">
  <ele>1583.13</ele>
  <time>2026-08-27T17:17:28Z</time>
  <course>225.54</course>
  <speed>1.675857989210303</speed>
  <fix>3d</fix>
</trkpt>
<trkpt lat="40.0712051" lon="-105.2300223">
  <ele>1583.0</ele>
  <time>2026-08-27T17:17:28Z</time>
  <course>226.14</course>
  <speed>1.71</speed>
  <fix>3d</fix>
</trkpt>
<trkpt lat="40.0712026" lon="-105.2300259">
  <ele>1583.13</ele>
  <time>2026-08-27T17:17:28Z</time>
  <course>224.15</course>
  <speed>1.6620770138594663</speed>
  <fix>3d</fix>
</trkpt>
<trkpt lat="40.0712051" lon="-105.2300223">
  <ele>1583.0</ele>
  <time>2026-08-27T17:17:28Z</time>
  <course>226.14</course>
  <speed>1.71</speed>
  <fix>3d</fix>
</trkpt>
<trkpt lat="40.0712015" lon="-105.2300272">
  <ele>1583.13</ele>
  <time>2026-08-27T17:17:28Z</time>
  <course>222.66</course>
  <speed>1.6493938280471405</speed>
  <fix>3d</fix>
</trkpt>
<trkpt lat="40.0712029" lon="-105.2300251">
  <ele>1583.0</ele>
  <time>2026-08-27T17:17:28Z</time>
  <course>223.51</course>
  <speed>1.69</speed>
  <fix>3d</fix>
</trkpt>
<trkpt lat="40.0712004" lon="-105.2300285">
  <ele>1583.13</ele>
  <time>2026-08-27T17:17:28Z</time>
  <course>221.06</course>
  <speed>1.631318485152424</speed>
  <fix>3d</fix>
</trkpt>
<trkpt lat="40.0712029" lon="-105.2300251">
  <ele>1583.0</ele>
  <time>2026-08-27T17:17:28Z</time>
  <course>223.51</course>
  <speed>1.69</speed>
  <fix>3d</fix>
</trkpt>
<trkpt lat="40.0711992" lon="-105.2300297">
  <ele>1583.14</ele>
  <time>2026-08-27T17:17:28Z</time>
  <course>219.43</course>
  <speed>1.6148374531202823</speed>
  <fix>3d</fix>
</trkpt>
<trkpt lat="40.0712007" lon="-105.2300277">
  <ele>1583.0</ele>
  <time>2026-08-27T17:17:28Z</time>
  <course>220.48</course>
  <speed>1.66</speed>
  <fix>3d</fix>
</trkpt>
<trkpt lat="40.071198" lon="-105.2300308">
  <ele>1583.14</ele>
  <time>2026-08-27T17:17:28Z</time>
  <course>217.79</course>
  <speed>1.5920113064925134</speed>
  <fix>3d</fix>
</trkpt>
<trkpt lat="40.0712007" lon="-105.2300277">
  <ele>1583.0</ele>
  <time>2026-08-27T17:17:28Z</time>
  <course>220.48</course>
  <speed>1.66</speed>
  <fix>3d</fix>
</trkpt>
<trkpt lat="40.0711969" lon="-105.2300319">
  <ele>1583.14</ele>
  <time>2026-08-27T17:17:28Z</time>
  <course>216.14</course>
  <speed>1.5705094714773293</speed>
  <fix>3d</fix>
</trkpt>
<trkpt lat="40.0711984" lon="-105.2300302">
  <ele>1583.0</ele>
  <time>2026-08-27T17:17:28Z</time>
  <course>217.23</course>
  <speed>1.62</speed>
  <fix>3d</fix>
</trkpt>
<trkpt lat="40.0711957" lon="-105.230033">
  <ele>1583.14</ele>
  <time>2026-08-27T17:17:28Z</time>
  <course>214.47</course>
  <speed>1.5503870484495155</speed>
  <fix>3d</fix>
</trkpt>
<trkpt lat="40.0711984" lon="-105.2300302">
  <ele>1583.0</ele>
  <time>2026-08-27T17:17:28Z</time>
  <course>217.23</course>
  <speed>1.62</speed>
  <fix>3d</fix>
</trkpt>
<trkpt lat="40.0711945" lon="-105.2300339">
  <ele>1583.14</ele>
  <time>2026-08-27T17:17:28Z</time>
  <course>212.8</course>
  <speed>1.5232202729743323</speed>
  <fix>3d</fix>
</trkpt>
<trkpt lat="40.071196" lon="-105.2300324">
  <ele>1583.0</ele>
  <time>2026-08-27T17:17:28Z</time>
  <course>213.92</course>
  <speed>1.57</speed>
  <fix>3d</fix>
</trkpt>
<trkpt lat="40.0711933" lon="-105.2300348">
  <ele>1583.13</ele>
  <time>2026-08-27T17:17:28Z</time>
  <course>211.11</course>
  <speed>1.5008331019803633</speed>
  <fix>3d</fix>
</trkpt>
<trkpt lat="40.071196" lon="-105.2300324">
  <ele>1583.0</ele>
  <time>2026-08-27T17:17:28Z</time>
  <course>213.92</course>
  <speed>1.57</speed>
  <fix>3d</fix>
</trkpt>
<trkpt lat="40.0711921" lon="-105.2300357">
  <ele>1583.13</ele>
  <time>2026-08-27T17:17:28Z</time>
  <course>209.42</course>
  <speed>1.4764823060233399</speed>
  <fix>3d</fix>
</trkpt>
<trkpt lat="40.0711937" lon="-105.2300343">
  <ele>1583.0</ele>
  <time>2026-08-27T17:17:28Z</time>
  <course>210.56</course>
  <speed>1.53</speed>
  <fix>3d</fix>
</trkpt>
<trkpt lat="40.0711912" lon="-105.2300363">
  <ele>1583.13</ele>
  <time>2026-08-27T17:17:28Z</time>
  <course>208.05</course>
  <speed>1.4490341610879987</speed>
  <fix>3d</fix>
</trkpt>
<trkpt lat="40.0711937" lon="-105.2300343">
  <ele>1583.0</ele>
  <time>2026-08-27T17:17:28Z</time>
  <course>210.56</course>
  <speed>1.53</speed>
  <fix>3d</fix>
</trkpt>
<trkpt lat="40.07119" lon="-105.230037">
  <ele>1583.13</ele>
  <time>2026-08-27T17:17:28Z</time>
  <course>206.34</course>
  <speed>1.4136477637657834</speed>
  <fix>3d</fix>
</trkpt>
<trkpt lat="40.0711913" lon="-105.2300359">
  <ele>1583.0</ele>
  <time>2026-08-27T17:17:28Z</time>
  <course>207.18</course>
  <speed>1.47</speed>
  <fix>3d</fix>
</trkpt>
<trkpt lat="40.0711888" lon="-105.2300377">
  <ele>1583.13</ele>
  <time>2026-08-27T17:17:28Z</time>
  <course>204.63</course>
  <speed>1.383979768638256</speed>
  <fix>3d</fix>
</trkpt>
<trkpt lat="40.0711913" lon="-105.2300359">
  <ele>1583.0</ele>
  <time>2026-08-27T17:17:28Z</time>
  <course>207.18</course>
  <speed>1.47</speed>
  <fix>3d</fix>
</trkpt>
<trkpt lat="40.0711877" lon="-105.2300383">
  <ele>1583.14</ele>
  <time>2026-08-27T17:17:28Z</time>
  <course>202.94</course>
  <speed>1.346291201783626</speed>
  <fix>3d</fix>
</trkpt>
<trkpt lat="40.071189" lon="-105.2300375">
  <ele>1583.0</ele>
  <time>2026-08-27T17:17:28Z</time>
  <course>203.77</course>
  <speed>1.41</speed>
  <fix>3d</fix>
</trkpt>
<trkpt lat="40.0711866" lon="-105.2300389">
  <ele>1583.14</ele>
  <time>2026-08-27T17:17:28Z</time>
  <course>201.23</course>
  <speed>1.3097327971765844</speed>
  <fix>3d</fix>
</trkpt>
<trkpt lat="40.071189" lon="-105.2300375">
  <ele>1583.0</ele>
  <time>2026-08-27T17:17:28Z</time>
  <course>203.77</course>
  <speed>1.41</speed>
  <fix>3d</fix>
</trkpt>
<trkpt lat="40.0711854" lon="-105.2300393">
  <ele>1583.14</ele>
  <time>2026-08-27T17:17:28Z</time>
  <course>199.53</course>
  <speed>1.274401820463232</speed>
  <fix>3d</fix>
</trkpt>
<trkpt lat="40.0711867" lon="-105.2300387">
  <ele>1583.0</ele>
  <time>2026-08-27T17:17:28Z</time>
  <course>200.36</course>
  <speed>1.33</speed>
  <fix>3d</fix>
</trkpt>
<trkpt lat="40.0711843" lon="-105.2300398">
  <ele>1583.14</ele>
  <time>2026-08-27T17:17:28Z</time>
  <course>197.84</course>
  <speed>1.2404031602668546</speed>
  <fix>3d</fix>
</trkpt>
<trkpt lat="40.0711867" lon="-105.2300387">
  <ele>1583.0</ele>
  <time>2026-08-27T17:17:28Z</time>
  <course>200.36</course>
  <speed>1.33</speed>
  <fix>3d</fix>
</trkpt>
<trkpt lat="40.0711832" lon="-105.2300402">
  <ele>1583.14</ele>
  <time>2026-08-27T17:17:28Z</time>
  <course>196.15</course>
  <speed>1.1981652640600127</speed>
  <fix>3d</fix>
</trkpt>
<trkpt lat="40.0711845" lon="-105.2300396">
  <ele>1583.0</ele>
  <time>2026-08-27T17:17:28Z</time>
  <course>196.97</course>
  <speed>1.26</speed>
  <fix>3d</fix>
</trkpt>
<trkpt lat="40.0711822" lon="-105.2300405">
  <ele>1583.14</ele>
  <time>2026-08-27T17:17:28Z</time>
  <course>194.49</course>
  <speed>1.1595257651298656</speed>
  <fix>3d</fix>
</trkpt>
<trkpt lat="40.0711845" lon="-105.2300396">
  <ele>1583.0</ele>
  <time>2026-08-27T17:17:28Z</time>
  <course>196.97</course>
  <speed>1.26</speed>
  <fix>3d</fix>
</trkpt>
<trkpt lat="40.0711812" lon="-105.2300408">
  <ele>1583.13</ele>
  <time>2026-08-27T17:17:28Z</time>
  <course>193.0</course>
  <speed>1.1217842929904127</speed>
  <fix>3d</fix>
</trkpt>
<trkpt lat="40.0711824" lon="-105.2300404">
  <ele>1583.0</ele>
  <time>2026-08-27T17:17:28Z</time>
  <course>193.71</course>
  <speed>1.18</speed>
  <fix>3d</fix>
</trkpt>
<trkpt lat="40.07118" lon="-105.2300411">
  <ele>1583.13</ele>
  <time>2026-08-27T17:17:28Z</time>
  <course>192.65</course>
  <speed>1.0688779163215976</speed>
  <fix>3d</fix>
</trkpt>
<trkpt lat="40.0711824" lon="-105.2300404">
  <ele>1583.0</ele>
  <time>2026-08-27T17:17:28Z</time>
  <course>193.71</course>
  <speed>1.18</speed>
  <fix>3d</fix>
</trkpt>
<trkpt lat="40.071179" lon="-105.2300413">
  <ele>1583.13</ele>
  <time>2026-08-27T17:17:28Z</time>
  <course>193.59</course>
  <speed>1.0316006979447037</speed>
  <fix>3d</fix>
</trkpt>
<trkpt lat="40.0711804" lon="-105.230041">
  <ele>1583.0</ele>
  <time>2026-08-27T17:17:28Z</time>
  <course>192.23</course>
  <speed>1.11</speed>
  <fix>3d</fix>
</trkpt>
<trkpt lat="40.0711781" lon="-105.2300416">
  <ele>1583.13</ele>
  <time>2026-08-27T17:17:28Z</time>
  <course>195.65</course>
  <speed>0.9992497185388645</speed>
  <fix>3d</fix>
</trkpt>
<trkpt lat="40.0711804" lon="-105.230041">
  <ele>1583.0</ele>
  <time>2026-08-27T17:17:28Z</time>
  <course>192.23</course>
  <speed>1.11</speed>
  <fix>3d</fix>
</trkpt>
<trkpt lat="40.0711773" lon="-105.2300419">
  <ele>1583.13</ele>
  <time>2026-08-27T17:17:28Z</time>
  <course>198.8</course>
  <speed>0.9712363255150623</speed>
  <fix>3d</fix>
</trkpt>
<trkpt lat="40.0711785" lon="-105.2300415">
  <ele>1583.0</ele>
  <time>2026-08-27T17:17:28Z</time>
  <course>194.73</course>
  <speed>1.04</speed>
  <fix>3d</fix>
</trkpt>
<trkpt lat="40.0711764" lon="-105.2300423">
  <ele>1583.13</ele>
  <time>2026-08-27T17:17:28Z</time>
  <course>202.88</course>
  <speed>0.9563472172804185</speed>
  <fix>3d</fix>
</trkpt>
<trkpt lat="40.0711785" lon="-105.2300415">
  <ele>1583.0</ele>
  <time>2026-08-27T17:17:28Z</time>
  <course>194.73</course>
  <speed>1.04</speed>
  <fix>3d</fix>
</trkpt>
<trkpt lat="40.0711756" lon="-105.2300427">
  <ele>1583.13</ele>
  <time>2026-08-27T17:17:28Z</time>
  <course>206.53</course>
  <speed>0.94847245611035</speed>
  <fix>3d</fix>
</trkpt>
<trkpt lat="40.0711768" lon="-105.2300423">
  <ele>1583.0</ele>
  <time>2026-08-27T17:17:28Z</time>
  <course>201.03</course>
  <speed>1.0</speed>
  <fix>3d</fix>
</trkpt>
<trkpt lat="40.0711749" lon="-105.2300433">
  <ele>1583.13</ele>
  <time>2026-08-27T17:17:28Z</time>
  <course>209.56</course>
  <speed>0.9441398201537736</speed>
  <fix>3d</fix>
</trkpt>
<trkpt lat="40.0711768" lon="-105.2300423">
  <ele>1583.0</ele>
  <time>2026-08-27T17:17:28Z</time>
  <course>201.03</course>
  <speed>1.0</speed>
  <fix>3d</fix>
</trkpt>
<trkpt lat="40.0711741" lon="-105.2300439">
  <ele>1583.13</ele>
  <time>2026-08-27T17:17:28Z</time>
  <course>212.14</course>
  <speed>0.951892851112981</speed>
  <fix>3d</fix>
</trkpt>
<trkpt lat="40.0711752" lon="-105.2300433">
  <ele>1583.0</ele>
  <time>2026-08-27T17:17:28Z</time>
  <course>207.89</course>
  <speed>0.99</speed>
  <fix>3d</fix>
</trkpt>
<trkpt lat="40.0711734" lon="-105.2300445">
  <ele>1583.13</ele>
  <time>2026-08-27T17:17:28Z</time>
  <course>214.3</course>
  <speed>0.9596353474106714</speed>
  <fix>3d</fix>
</trkpt>
<trkpt lat="40.0711752" lon="-105.2300433">
  <ele>1583.0</ele>
  <time>2026-08-27T17:17:28Z</time>
  <course>207.89</course>
  <speed>0.99</speed>
  <fix>3d</fix>
</trkpt>
<trkpt lat="40.0711727" lon="-105.2300452">
  <ele>1583.13</ele>
  <time>2026-08-27T17:17:28Z</time>
  <course>216.12</course>
  <speed>0.9741663102366043</speed>
  <fix>3d</fix>
</trkpt>
<trkpt lat="40.0711736" lon="-105.2300445">
  <ele>1583.0</ele>
  <time>2026-08-27T17:17:28Z</time>
  <course>212.84</course>
  <speed>1.0</speed>
  <fix>3d</fix>
</trkpt>
<trkpt lat="40.071172" lon="-105.2300459">
  <ele>1583.13</ele>
  <time>2026-08-27T17:17:28Z</time>
  <course>217.65</course>
  <speed>0.9840731680114035</speed>
  <fix>3d</fix>
</trkpt>
<trkpt lat="40.0711736" lon="-105.2300445">
  <ele>1583.0</ele>
  <time>2026-08-27T17:17:28Z</time>
  <course>212.84</course>
  <speed>1.0</speed>
  <fix>3d</fix>
</trkpt>
<trkpt lat="40.0711714" lon="-105.2300465">
  <ele>1583.13</ele>
  <time>2026-08-27T17:17:28Z</time>
  <course>218.7</course>
  <speed>0.9885848471426213</speed>
  <fix>3d</fix>
</trkpt>
<trkpt lat="40.0711721" lon="-105.2300458">
  <ele>1583.0</ele>
  <time>2026-08-27T17:17:28Z</time>
  <course>216.36</course>
  <speed>1.02</speed>
  <fix>3d</fix>
</trkpt>
<trkpt lat="40.0711707" lon="-105.2300473">
  <ele>1583.13</ele>
  <time>2026-08-27T17:17:28Z</time>
  <course>219.82</course>
  <speed>1.0012492197250393</speed>
  <fix>3d</fix>
</trkpt>
<trkpt lat="40.0711721" lon="-105.2300458">
  <ele>1583.0</ele>
  <time>2026-08-27T17:17:28Z</time>
  <course>216.36</course>
  <speed>1.02</speed>
  <fix>3d</fix>
</trkpt>
<trkpt lat="40.0711699" lon="-105.2300481">
  <ele>1583.13</ele>
  <time>2026-08-27T17:17:28Z</time>
  <course>220.74</course>
  <speed>1.0206860437960343</speed>
  <fix>3d</fix>
</trkpt>
<trkpt lat="40.0711706" lon="-105.2300473">
  <ele>1583.0</ele>
  <time>2026-08-27T17:17:28Z</time>
  <course>218.83</course>
  <speed>1.05</speed>
  <fix>3d</fix>
</trkpt>
<trkpt lat="40.0711692" lon="-105.2300489">
  <ele>1583.13</ele>
  <time>2026-08-27T17:17:28Z</time>
  <course>221.49</course>
  <speed>1.0339245620450266</speed>
  <fix>3d</fix>
</trkpt>
<trkpt lat="40.0711706" lon="-105.2300473">
  <ele>1583.0</ele>
  <time>2026-08-27T17:17:28Z</time>
  <course>218.83</course>
  <speed>1.05</speed>
  <fix>3d</fix>
</trkpt>
<trkpt lat="40.0711685" lon="-105.2300498">
  <ele>1583.13</ele>
  <time>2026-08-27T17:17:28Z</time>
  <course>222.12</course>
  <speed>1.061508360777248</speed>
  <fix>3d</fix>
</trkpt>
<trkpt lat="40.0711691" lon="-105.2300489">
  <ele>1583.0</ele>
  <time>2026-08-27T17:17:28Z</time>
  <course>220.54</course>
  <speed>1.08</speed>
  <fix>3d</fix>
</trkpt>
<trkpt lat="40.0711678" lon="-105.2300506">
  <ele>1583.13</ele>
  <time>2026-08-27T17:17:28Z</time>
  <course>222.65</course>
  <speed>1.082450922675019</speed>
  <fix>3d</fix>
</trkpt>
<trkpt lat="40.0711691" lon="-105.2300489">
  <ele>1583.0</ele>
  <time>2026-08-27T17:17:28Z</time>
  <course>220.54</course>
  <speed>1.08</speed>
  <fix>3d</fix>
</trkpt>
<trkpt lat="40.071167" lon="-105.2300516">
  <ele>1583.13</ele>
  <time>2026-08-27T17:17:28Z</time>
  <course>223.08</course>
  <speed>1.1034491379306979</speed>
  <fix>3d</fix>
</trkpt>
<trkpt lat="40.0711676" lon="-105.2300506">
  <ele>1583.0</ele>
  <time>2026-08-27T17:17:28Z</time>
  <course>221.72</course>
  <speed>1.12</speed>
  <fix>3d</fix>
</trkpt>
<trkpt lat="40.0711662" lon="-105.2300525">
  <ele>1583.13</ele>
  <time>2026-08-27T17:17:28Z</time>
  <course>223.44</course>
  <speed>1.1244998888394786</speed>
  <fix>3d</fix>
</trkpt>
<trkpt lat="40.0711676" lon="-105.2300506">
  <ele>1583.0</ele>
  <time>2026-08-27T17:17:28Z</time>
  <course>221.72</course>
  <speed>1.12</speed>
  <fix>3d</fix>
</trkpt>
<trkpt lat="40.0711655" lon="-105.2300535">
  <ele>1583.13</ele>
  <time>2026-08-27T17:17:28Z</time>
  <course>223.73</course>
  <speed>1.1456002793295748</speed>
  <fix>3d</fix>
</trkpt>
<trkpt lat="40.0711661" lon="-105.2300524">
  <ele>1583.0</ele>
  <time>2026-08-27T17:17:28Z</time>
  <course>222.52</course>
  <speed>1.16</speed>
  <fix>3d</fix>
</trkpt>
<trkpt lat="40.0711645" lon="-105.2300546">
  <ele>1583.13</ele>
  <time>2026-08-27T17:17:28Z</time>
  <course>224.01</course>
  <speed>1.180889495253472</speed>
  <fix>3d</fix>
</trkpt>
<trkpt lat="40.0711661" lon="-105.2300524">
  <ele>1583.0</ele>
  <time>2026-08-27T17:17:28Z</time>
  <course>222.52</course>
  <speed>1.16</speed>
  <fix>3d</fix>
</trkpt>
<trkpt lat="40.0711637" lon="-105.2300557">
  <ele>1583.13</ele>
  <time>2026-08-27T17:17:28Z</time>
  <course>224.19</course>
  <speed>1.2020815280171309</speed>
  <fix>3d</fix>
</trkpt>
<trkpt lat="40.0711646" lon="-105.2300543">
  <ele>1583.0</ele>
  <time>2026-08-27T17:17:28Z</time>
  <course>223.06</course>
  <speed>1.2</speed>
  <fix>3d</fix>
</trkpt>
<trkpt lat="40.0711629" lon="-105.2300567">
  <ele>1583.13</ele>
  <time>2026-08-27T17:17:28Z</time>
  <course>224.35</course>
  <speed>1.2162236636408617</speed>
  <fix>3d</fix>
</trkpt>
<trkpt lat="40.0711646" lon="-105.2300543">
  <ele>1583.0</ele>
  <time>2026-08-27T17:17:28Z</time>
  <course>223.06</course>
  <speed>1.2</speed>
  <fix>3d</fix>
</trkpt>
<trkpt lat="40.0711621" lon="-105.2300577">
  <ele>1583.13</ele>
  <time>2026-08-27T17:17:28Z</time>
  <course>224.47</course>
  <speed>1.237457069962429</speed>
  <fix>3d</fix>
</trkpt>
<trkpt lat="40.071163" lon="-105.2300563">
  <ele>1583.0</ele>
  <time>2026-08-27T17:17:28Z</time>
  <course>223.42</course>
  <speed>1.24</speed>
  <fix>3d</fix>
</trkpt>
<trkpt lat="40.0711612" lon="-105.2300588">
  <ele>1583.13</ele>
  <time>2026-08-27T17:17:28Z</time>
  <course>224.57</course>
  <speed>1.2586500705120545</speed>
  <fix>3d</fix>
</trkpt>
<trkpt lat="40.071163" lon="-105.2300563">
  <ele>1583.0</ele>
  <time>2026-08-27T17:17:28Z</time>
  <course>223.42</course>
  <speed>1.24</speed>
  <fix>3d</fix>
</trkpt>
<trkpt lat="40.0711604" lon="-105.2300599">
  <ele>1583.13</ele>
  <time>2026-08-27T17:17:28Z</time>
  <course>224.65</course>
  <speed>1.279882807135091</speed>
  <fix>3d</fix>
</trkpt>
<trkpt lat="40.0711613" lon="-105.2300583">
  <ele>1583.0</ele>
  <time>2026-08-27T17:17:28Z</time>
  <course>223.67</course>
  <speed>1.28</speed>
  <fix>3d</fix>
</trkpt>
<trkpt lat="40.0711595" lon="-105.2300609">
  <ele>1583.13</ele>
  <time>2026-08-27T17:17:28Z</time>
  <course>224.71</course>
  <speed>1.2940247292845684</speed>
  <fix>3d</fix>
</trkpt>
<trkpt lat="40.0711613" lon="-105.2300583">
  <ele>1583.0</ele>
  <time>2026-08-27T17:17:28Z</time>
  <course>223.67</course>
  <speed>1.28</speed>
  <fix>3d</fix>
</trkpt>
<trkpt lat="40.0711587" lon="-105.230062">
  <ele>1583.13</ele>
  <time>2026-08-27T17:17:28Z</time>
  <course>224.76</course>
  <speed>1.308166656049603</speed>
  <fix>3d</fix>
</trkpt>
<trkpt lat="40.0711596" lon="-105.2300605">
  <ele>1583.0</ele>
  <time>2026-08-27T17:17:28Z</time>
  <course>223.83</course>
  <speed>1.31</speed>
  <fix>3d</fix>
</trkpt>
<trkpt lat="40.0711578" lon="-105.2300631">
  <ele>1583.13</ele>
  <time>2026-08-27T17:17:28Z</time>
  <course>224.8</course>
  <speed>1.3223085872821065</speed>
  <fix>3d</fix>
</trkpt>
<trkpt lat="40.0711596" lon="-105.2300605">
  <ele>1583.0</ele>
  <time>2026-08-27T17:17:28Z</time>
  <course>223.83</course>
  <speed>1.31</speed>
  <fix>3d</fix>
</trkpt>
<trkpt lat="40.0711569" lon="-105.2300643">
  <ele>1583.12</ele>
  <time>2026-08-27T17:17:28Z</time>
  <course>224.83</course>
  <speed>1.3364505228402583</speed>
  <fix>3d</fix>
</trkpt>
<trkpt lat="40.0711579" lon="-105.2300626">
  <ele>1583.0</ele>
  <time>2026-08-27T17:17:28Z</time>
  <course>223.93</course>
  <speed>1.34</speed>
  <fix>3d</fix>
</trkpt>
<trkpt lat="40.0711561" lon="-105.2300654">
  <ele>1583.12</ele>
  <time>2026-08-27T17:17:28Z</time>
  <course>224.85</course>
  <speed>1.3435773144854748</speed>
  <fix>3d</fix>
</trkpt>
<trkpt lat="40.0711579" lon="-105.2300626">
  <ele>1583.0</ele>
  <time>2026-08-27T17:17:28Z</time>
  <course>223.93</course>
  <speed>1.34</speed>
  <fix>3d</fix>
</trkpt>
<trkpt lat="40.0711552" lon="-105.2300665">
  <ele>1583.12</ele>
  <time>2026-08-27T17:17:28Z</time>
  <course>224.86</course>
  <speed>1.3577186748365804</speed>
  <fix>3d</fix>
</trkpt>
<trkpt lat="40.0711561" lon="-105.2300649">
  <ele>1583.0</ele>
  <time>2026-08-27T17:17:28Z</time>
  <course>223.99</course>
  <speed>1.37</speed>
  <fix>3d</fix>
</trkpt>
<trkpt lat="40.0711545" lon="-105.2300674">
  <ele>1583.12</ele>
  <time>2026-08-27T17:17:28Z</time>
  <course>224.88</course>
  <speed>1.3718600511714012</speed>
  <fix>3d</fix>
</trkpt>
<trkpt lat="40.0711561" lon="-105.2300649">
  <ele>1583.0</ele>
  <time>2026-08-27T17:17:28Z</time>
  <course>223.99</course>
  <speed>1.37</speed>
  <fix>3d</fix>
</trkpt>
<trkpt lat="40.0711536" lon="-105.2300686">
  <ele>1583.12</ele>
  <time>2026-08-27T17:17:28Z</time>
  <course>224.88</course>
  <speed>1.3788763541376725</speed>
  <fix>3d</fix>
</trkpt>
<trkpt lat="40.0711543" lon="-105.2300671">
  <ele>1583.0</ele>
  <time>2026-08-27T17:17:28Z</time>
  <course>224.02</course>
  <speed>1.39</speed>
  <fix>3d</fix>
</trkpt>
<trkpt lat="40.0711526" lon="-105.2300697">
  <ele>1583.12</ele>
  <time>2026-08-27T17:17:28Z</time>
  <course>224.88</course>
  <speed>1.386001443000692</speed>
  <fix>3d</fix>
</trkpt>
<trkpt lat="40.0711543" lon="-105.2300671">
  <ele>1583.0</ele>
  <time>2026-08-27T17:17:28Z</time>
  <course>224.02</course>
  <speed>1.39</speed>
  <fix>3d</fix>
</trkpt>
<trkpt lat="40.0711517" lon="-105.2300709">
  <ele>1583.11</ele>
  <time>2026-08-27T17:17:28Z</time>
  <course>224.87</course>
  <speed>1.400142849854971</speed>
  <fix>3d</fix>
</trkpt>
<trkpt lat="40.0711524" lon="-105.2300694">
  <ele>1583.0</ele>
  <time>2026-08-27T17:17:28Z</time>
  <course>224.03</course>
  <speed>1.41</speed>
  <fix>3d</fix>
</trkpt>
<trkpt lat="40.0711508" lon="-105.2300721">
  <ele>1583.11</ele>
  <time>2026-08-27T17:17:28Z</time>
  <course>224.87</course>
  <speed>1.4071602609511116</speed>
  <fix>3d</fix>
</trkpt>
<trkpt lat="40.0711524" lon="-105.2300694">
  <ele>1583.0</ele>
  <time>2026-08-27T17:17:28Z</time>
  <course>224.03</course>
  <speed>1.41</speed>
  <fix>3d</fix>
</trkpt>
<trkpt lat="40.0711498" lon="-105.2300733">
  <ele>1583.11</ele>
  <time>2026-08-27T17:17:28Z</time>
  <course>224.87</course>
  <speed>1.4142842712835353</speed>
  <fix>3d</fix>
</trkpt>
<trkpt lat="40.0711507" lon="-105.2300717">
  <ele>1583.0</ele>
  <time>2026-08-27T17:17:28Z</time>
  <course>224.03</course>
  <speed>1.42</speed>
  <fix>3d</fix>
</trkpt>
<trkpt lat="40.0711489" lon="-105.2300744">
  <ele>1583.11</ele>
  <time>2026-08-27T17:17:28Z</time>
  <course>224.86</course>
  <speed>1.4213022197970424</speed>
  <fix>3d</fix>
</trkpt>
<trkpt lat="40.0711507" lon="-105.2300717">
  <ele>1583.0</ele>
  <time>2026-08-27T17:17:28Z</time>
  <course>224.03</course>
  <speed>1.42</speed>
  <fix>3d</fix>
</trkpt>
<trkpt lat="40.0711479" lon="-105.2300756">
  <ele>1583.11</ele>
  <time>2026-08-27T17:17:28Z</time>
  <course>224.86</course>
  <speed>1.4284257068535278</speed>
  <fix>3d</fix>
</trkpt>
<trkpt lat="40.0711488" lon="-105.2300741">
  <ele>1583.0</ele>
  <time>2026-08-27T17:17:28Z</time>
  <course>224.03</course>
  <speed>1.44</speed>
  <fix>3d</fix>
</trkpt>
<trkpt lat="40.071147" lon="-105.2300768">
  <ele>1583.1</ele>
  <time>2026-08-27T17:17:28Z</time>
  <course>224.86</course>
  <speed>1.4354441821262156</speed>
  <fix>3d</fix>
</trkpt>
<trkpt lat="40.0711488" lon="-105.2300741">
  <ele>1583.0</ele>
  <time>2026-08-27T17:17:28Z</time>
  <course>224.03</course>
  <speed>1.44</speed>
  <fix>3d</fix>
</trkpt>
<trkpt lat="40.0711458" lon="-105.2300783">
  <ele>1583.1</ele>
  <time>2026-08-27T17:17:28Z</time>
  <course>224.85</course>
  <speed>1.4354441821262156</speed>
  <fix>3d</fix>
</trkpt>
<trkpt lat="40.0711469" lon="-105.2300765">
  <ele>1583.0</ele>
  <time>2026-08-27T17:17:28Z</time>
  <course>224.03</course>
  <speed>1.45</speed>
  <fix>3d</fix>
</trkpt>
<trkpt lat="40.0711449" lon="-105.2300795">
  <ele>1583.1</ele>
  <time>2026-08-27T17:17:28Z</time>
  <course>224.85</course>
  <speed>1.4495861478366852</speed>
  <fix>3d</fix>
</trkpt>
<trkpt lat="40.0711469" lon="-105.2300765">
  <ele>1583.0</ele>
  <time>2026-08-27T17:17:28Z</time>
  <course>224.03</course>
  <speed>1.45</speed>
  <fix>3d</fix>
</trkpt>
<trkpt lat="40.0711439" lon="-105.2300807">
  <ele>1583.1</ele>
  <time>2026-08-27T17:17:28Z</time>
  <course>224.85</course>
  <speed>1.4495861478366852</speed>
  <fix>3d</fix>
</trkpt>
<trkpt lat="40.071145" lon="-105.2300788">
  <ele>1583.0</ele>
  <time>2026-08-27T17:17:28Z</time>
  <course>224.03</course>
  <speed>1.46</speed>
  <fix>3d</fix>
</trkpt>
<trkpt lat="40.071143" lon="-105.2300819">
  <ele>1583.1</ele>
  <time>2026-08-27T17:17:28Z</time>
  <course>224.84</course>
  <speed>1.456639969244288</speed>
  <fix>3d</fix>
</trkpt>
<trkpt lat="40.071145" lon="-105.2300788">
  <ele>1583.0</ele>
  <time>2026-08-27T17:17:28Z</time>
  <course>224.03</course>
  <speed>1.46</speed>
  <fix>3d</fix>
</trkpt>
<trkpt lat="40.071142" lon="-105.2300831">
  <ele>1583.1</ele>
  <time>2026-08-27T17:17:28Z</time>
  <course>224.84</course>
  <speed>1.4637281168304446</speed>
  <fix>3d</fix>
</trkpt>
<trkpt lat="40.0711431" lon="-105.2300812">
  <ele>1583.0</ele>
  <time>2026-08-27T17:17:28Z</time>
  <course>224.03</course>
  <speed>1.46</speed>
  <fix>3d</fix>
</trkpt>
<trkpt lat="40.071141" lon="-105.2300843">
  <ele>1583.1</ele>
  <time>2026-08-27T17:17:28Z</time>
  <course>224.84</course>
  <speed>1.4637281168304446</speed>
  <fix>3d</fix>
</trkpt>
<trkpt lat="40.0711431" lon="-105.2300812">
  <ele>1583.0</ele>
  <time>2026-08-27T17:17:28Z</time>
  <course>224.03</course>
  <speed>1.46</speed>
  <fix>3d</fix>
</trkpt>
<trkpt lat="40.0711401" lon="-105.2300856">
  <ele>1583.1</ele>
  <time>2026-08-27T17:17:28Z</time>
  <course>224.84</course>
  <speed>1.4637281168304446</speed>
  <fix>3d</fix>
</trkpt>
<trkpt lat="40.0711412" lon="-105.2300837">
  <ele>1583.0</ele>
  <time>2026-08-27T17:17:28Z</time>
  <course>224.03</course>
  <speed>1.47</speed>
  <fix>3d</fix>
</trkpt>
<trkpt lat="40.0711391" lon="-105.2300868">
  <ele>1583.1</ele>
  <time>2026-08-27T17:17:28Z</time>
  <course>224.84</course>
  <speed>1.4707821048680187</speed>
  <fix>3d</fix>
</trkpt>
<trkpt lat="40.0711412" lon="-105.2300837">
  <ele>1583.0</ele>
  <time>2026-08-27T17:17:28Z</time>
  <course>224.03</course>
  <speed>1.47</speed>
  <fix>3d</fix>
</trkpt>
<trkpt lat="40.0711382" lon="-105.230088">
  <ele>1583.1</ele>
  <time>2026-08-27T17:17:28Z</time>
  <course>224.83</course>
  <speed>1.4707821048680187</speed>
  <fix>3d</fix>
</trkpt>
<trkpt lat="40.0711393" lon="-105.2300861">
  <ele>1583.0</ele>
  <time>2026-08-27T17:17:28Z</time>
  <course>224.03</course>
  <speed>1.48</speed>
  <fix>3d</fix>
</trkpt>
<trkpt lat="40.0711372" lon="-105.2300892">
  <ele>1583.1</ele>
  <time>2026-08-27T17:17:28Z</time>
  <course>224.83</course>
  <speed>1.4707821048680187</speed>
  <fix>3d</fix>
</trkpt>
<trkpt lat="40.0711393" lon="-105.2300861">
  <ele>1583.0</ele>
  <time>2026-08-27T17:17:28Z</time>
  <course>224.03</course>
  <speed>1.48</speed>
  <fix>3d</fix>
</trkpt>
<trkpt lat="40.0711363" lon="-105.2300904">
  <ele>1583.11</ele>
  <time>2026-08-27T17:17:28Z</time>
  <course>224.83</course>
  <speed>1.4707821048680187</speed>
  <fix>3d</fix>
</trkpt>
<trkpt lat="40.0711374" lon="-105.2300884">
  <ele>1583.0</ele>
  <time>2026-08-27T17:17:28Z</time>
  <course>224.03</course>
  <speed>1.48</speed>
  <fix>3d</fix>
</trkpt>
<trkpt lat="40.0711355" lon="-105.2300913">
  <ele>1583.11</ele>
  <time>2026-08-27T17:17:28Z</time>
  <course>224.83</course>
  <speed>1.4707821048680187</speed>
  <fix>3d</fix>
</trkpt>
<trkpt lat="40.0711374" lon="-105.2300884">
  <ele>1583.0</ele>
  <time>2026-08-27T17:17:28Z</time>
  <course>224.03</course>
  <speed>1.48</speed>
  <fix>3d</fix>
</trkpt>
<trkpt lat="40.0711345" lon="-105.2300925">
  <ele>1583.11</ele>
  <time>2026-08-27T17:17:28Z</time>
  <course>224.83</course>
  <speed>1.4707821048680187</speed>
  <fix>3d</fix>
</trkpt>
<trkpt lat="40.0711355" lon="-105.2300908">
  <ele>1583.0</ele>
  <time>2026-08-27T17:17:28Z</time>
  <course>224.03</course>
  <speed>1.48</speed>
  <fix>3d</fix>
</trkpt>
<trkpt lat="40.0711335" lon="-105.2300937">
  <ele>1583.11</ele>
  <time>2026-08-27T17:17:28Z</time>
  <course>224.68</course>
  <speed>1.4778700890132392</speed>
  <fix>3d</fix>
</trkpt>
<trkpt lat="40.0711355" lon="-105.2300908">
  <ele>1583.0</ele>
  <time>2026-08-27T17:17:28Z</time>
  <course>224.03</course>
  <speed>1.48</speed>
  <fix>3d</fix>
</trkpt>
<trkpt lat="40.0711326" lon="-105.2300949">
  <ele>1583.11</ele>
  <time>2026-08-27T17:17:28Z</time>
  <course>223.47</course>
  <speed>1.4782760229402356</speed>
  <fix>3d</fix>
</trkpt>
<trkpt lat="40.0711336" lon="-105.2300932">
  <ele>1583.0</ele>
  <time>2026-08-27T17:17:28Z</time>
  <course>223.34</course>
  <speed>1.49</speed>
  <fix>3d</fix>
</trkpt>
<trkpt lat="40.0711316" lon="-105.2300961">
  <ele>1583.11</ele>
  <time>2026-08-27T17:17:28Z</time>
  <course>221.12</course>
  <speed>1.4741099009232657</speed>
  <fix>3d</fix>
</trkpt>
<trkpt lat="40.0711336" lon="-105.2300932">
  <ele>1583.0</ele>
  <time>2026-08-27T17:17:28Z</time>
  <course>223.34</course>
  <speed>1.49</speed>
  <fix>3d</fix>
</trkpt>
<trkpt lat="40.0711305" lon="-105.2300972">
  <ele>1583.11</ele>
  <time>2026-08-27T17:17:28Z</time>
  <course>217.68</course>
  <speed>1.4681961721786363</speed>
  <fix>3d</fix>
</trkpt>
<trkpt lat="40.0711316" lon="-105.2300956">
  <ele>1583.0</ele>
  <time>2026-08-27T17:17:28Z</time>
  <course>219.75</course>
  <speed>1.48</speed>
  <fix>3d</fix>
</trkpt>
<trkpt lat="40.0711294" lon="-105.2300982">
  <ele>1583.11</ele>
  <time>2026-08-27T17:17:28Z</time>
  <course>213.17</course>
  <speed>1.4534441853748632</speed>
  <fix>3d</fix>
</trkpt>
<trkpt lat="40.0711316" lon="-105.2300956">
  <ele>1583.0</ele>
  <time>2026-08-27T17:17:28Z</time>
  <course>219.75</course>
  <speed>1.48</speed>
  <fix>3d</fix>
</trkpt>
<trkpt lat="40.0711282" lon="-105.230099">
  <ele>1583.11</ele>
  <time>2026-08-27T17:17:28Z</time>
  <course>207.73</course>
  <speed>1.431258187749506</speed>
  <fix>3d</fix>
</trkpt>
<trkpt lat="40.0711295" lon="-105.2300976">
  <ele>1583.0</ele>
  <time>2026-08-27T17:17:28Z</time>
  <course>211.92</course>
  <speed>1.46</speed>
  <fix>3d</fix>
</trkpt>
<trkpt lat="40.071127" lon="-105.2300997">
  <ele>1583.11</ele>
  <time>2026-08-27T17:17:28Z</time>
  <course>202.2</course>
  <speed>1.400142849854971</speed>
  <fix>3d</fix>
</trkpt>
<trkpt lat="40.0711295" lon="-105.2300976">
  <ele>1583.0</ele>
  <time>2026-08-27T17:17:28Z</time>
  <course>211.92</course>
  <speed>1.46</speed>
  <fix>3d</fix>
</trkpt>
<trkpt lat="40.0711258" lon="-105.2301002">
  <ele>1583.11</ele>
  <time>2026-08-27T17:17:28Z</time>
  <course>196.73</course>
  <speed>1.354400236266961</speed>
  <fix>3d</fix>
</trkpt>
<trkpt lat="40.0711272" lon="-105.2300991">
  <ele>1583.0</ele>
  <time>2026-08-27T17:17:28Z</time>
  <course>201.56</course>
  <speed>1.4</speed>
  <fix>3d</fix>
</trkpt>
<trkpt lat="40.0711244" lon="-105.2301005">
  <ele>1583.11</ele>
  <time>2026-08-27T17:17:28Z</time>
  <course>190.16</course>
  <speed>1.287245120402482</speed>
  <fix>3d</fix>
</trkpt>
<trkpt lat="40.0711272" lon="-105.2300991">
  <ele>1583.0</ele>
  <time>2026-08-27T17:17:28Z</time>
  <course>201.56</course>
  <speed>1.4</speed>
  <fix>3d</fix>
</trkpt>
<trkpt lat="40.0711232" lon="-105.2301006">
  <ele>1583.11</ele>
  <time>2026-08-27T17:17:28Z</time>
  <course>184.67</course>
  <speed>1.2325988804148738</speed>
  <fix>3d</fix>
</trkpt>
<trkpt lat="40.0711248" lon="-105.2301">
  <ele>1583.0</ele>
  <time>2026-08-27T17:17:28Z</time>
  <course>190.67</course>
  <speed>1.31</speed>
  <fix>3d</fix>
</trkpt>
<trkpt lat="40.0711221" lon="-105.2301006">
  <ele>1583.11</ele>
  <time>2026-08-27T17:17:28Z</time>
  <course>179.18</course>
  <speed>1.1703845521878697</speed>
  <fix>3d</fix>
</trkpt>
<trkpt lat="40.0711248" lon="-105.2301">
  <ele>1583.0</ele>
  <time>2026-08-27T17:17:28Z</time>
  <course>190.67</course>
  <speed>1.31</speed>
  <fix>3d</fix>
</trkpt>
<trkpt lat="40.0711211" lon="-105.2301005">
  <ele>1583.11</ele>
  <time>2026-08-27T17:17:28Z</time>
  <course>173.71</course>
  <speed>1.1187939935484101</speed>
  <fix>3d</fix>
</trkpt>
<trkpt lat="40.0711225" lon="-105.2301004">
  <ele>1583.0</ele>
  <time>2026-08-27T17:17:28Z</time>
  <course>179.74</course>
  <speed>1.2</speed>
  <fix>3d</fix>
</trkpt>
<trkpt lat="40.0711201" lon="-105.2301002">
  <ele>1583.11</ele>
  <time>2026-08-27T17:17:28Z</time>
  <course>168.23</course>
  <speed>1.0770793842609745</speed>
  <fix>3d</fix>
</trkpt>
<trkpt lat="40.0711225" lon="-105.2301004">
  <ele>1583.0</ele>
  <time>2026-08-27T17:17:28Z</time>
  <course>179.74</course>
  <speed>1.2</speed>
  <fix>3d</fix>
</trkpt>
<trkpt lat="40.0711192" lon="-105.2300998">
  <ele>1583.11</ele>
  <time>2026-08-27T17:17:28Z</time>
  <course>162.79</course>
  <speed>1.0562196741208714</speed>
  <fix>3d</fix>
</trkpt>
<trkpt lat="40.0711205" lon="-105.2301001">
  <ele>1583.0</ele>
  <time>2026-08-27T17:17:28Z</time>
  <course>168.7</course>
  <speed>1.1</speed>
  <fix>3d</fix>
</trkpt>
<trkpt lat="40.0711183" lon="-105.2300993">
  <ele>1583.11</ele>
  <time>2026-08-27T17:17:28Z</time>
  <course>158.06</course>
  <speed>1.0346980235798269</speed>
  <fix>3d</fix>
</trkpt>
<trkpt lat="40.0711205" lon="-105.2301001">
  <ele>1583.0</ele>
  <time>2026-08-27T17:17:28Z</time>
  <course>168.7</course>
  <speed>1.1</speed>
  <fix>3d</fix>
</trkpt>
<trkpt lat="40.0711174" lon="-105.2300989">
  <ele>1583.11</ele>
  <time>2026-08-27T17:17:28Z</time>
  <course>154.1</course>
  <speed>1.0288342918079665</speed>
  <fix>3d</fix>
</trkpt>
<trkpt lat="40.0711187" lon="-105.2300994">
  <ele>1583.0</ele>
  <time>2026-08-27T17:17:28Z</time>
  <course>158.57</course>
  <speed>1.05</speed>
  <fix>3d</fix>
</trkpt>
<trkpt lat="40.0711166" lon="-105.2300982">
  <ele>1583.11</ele>
  <time>2026-08-27T17:17:28Z</time>
  <course>150.78</course>
  <speed>1.0410091258005378</speed>
  <fix>3d</fix>
</trkpt>
<trkpt lat="40.0711187" lon="-105.2300994">
  <ele>1583.0</ele>
  <time>2026-08-27T17:17:28Z</time>
  <course>158.57</course>
  <speed>1.05</speed>
  <fix>3d</fix>
</trkpt>
<trkpt lat="40.0711158" lon="-105.2300976">
  <ele>1583.11</ele>
  <time>2026-08-27T17:17:28Z</time>
  <course>148.0</course>
  <speed>1.0373041983911953</speed>
  <fix>3d</fix>
</trkpt>
<trkpt lat="40.071117" lon="-105.2300984">
  <ele>1583.0</ele>
  <time>2026-08-27T17:17:28Z</time>
  <course>150.84</course>
  <speed>1.04</speed>
  <fix>3d</fix>
</trkpt>
<trkpt lat="40.0711151" lon="-105.2300968">
  <ele>1583.11</ele>
  <time>2026-08-27T17:17:28Z</time>
  <course>145.68</course>
  <speed>1.044030650891055</speed>
  <fix>3d</fix>
</trkpt>
<trkpt lat="40.071117" lon="-105.2300984">
  <ele>1583.0</ele>
  <time>2026-08-27T17:17:28Z</time>
  <course>150.84</course>
  <speed>1.04</speed>
  <fix>3d</fix>
</trkpt>
<trkpt lat="40.0711145" lon="-105.2300962">
  <ele>1583.11</ele>
  <time>2026-08-27T17:17:28Z</time>
  <course>144.08</course>
  <speed>1.054229576515476</speed>
  <fix>3d</fix>
</trkpt>
<trkpt lat="40.0711153" lon="-105.2300971">
  <ele>1583.0</ele>
  <time>2026-08-27T17:17:28Z</time>
  <course>145.47</course>
  <speed>1.06</speed>
  <fix>3d</fix>
</trkpt>
<trkpt lat="40.0711137" lon="-105.2300954">
  <ele>1583.11</ele>
  <time>2026-08-27T17:17:28Z</time>
  <course>142.93</course>
  <speed>1.0589145385724006</speed>
  <fix>3d</fix>
</trkpt>
<trkpt lat="40.0711153" lon="-105.2300971">
  <ele>1583.0</ele>
  <time>2026-08-27T17:17:28Z</time>
  <course>145.47</course>
  <speed>1.06</speed>
  <fix>3d</fix>
</trkpt>
<trkpt lat="40.071113" lon="-105.2300946">
  <ele>1583.11</ele>
  <time>2026-08-27T17:17:28Z</time>
  <course>142.81</course>
  <speed>1.065269918846862</speed>
  <fix>3d</fix>
</trkpt>
<trkpt lat="40.0711138" lon="-105.2300956">
  <ele>1583.0</ele>
  <time>2026-08-27T17:17:28Z</time>
  <course>142.64</course>
  <speed>1.07</speed>
  <fix>3d</fix>
</trkpt>
<trkpt lat="40.0711122" lon="-105.2300938">
  <ele>1583.11</ele>
  <time>2026-08-27T17:17:28Z</time>
  <course>142.73</course>
  <speed>1.0729864864013898</speed>
  <fix>3d</fix>
</trkpt>
<trkpt lat="40.0711138" lon="-105.2300956">
  <ele>1583.0</ele>
  <time>2026-08-27T17:17:28Z</time>
  <course>142.64</course>
  <speed>1.07</speed>
  <fix>3d</fix>
</trkpt>
<trkpt lat="40.0711114" lon="-105.230093">
  <ele>1583.11</ele>
  <time>2026-08-27T17:17:28Z</time>
  <course>142.65</course>
  <speed>1.0793516572461452</speed>
  <fix>3d</fix>
</trkpt>
<trkpt lat="40.0711122" lon="-105.2300941">
  <ele>1583.0</ele>
  <time>2026-08-27T17:17:28Z</time>
  <course>141.92</course>
  <speed>1.09</speed>
  <fix>3d</fix>
</trkpt>
<trkpt lat="40.0711106" lon="-105.2300922">
  <ele>1583.11</ele>
  <time>2026-08-27T17:17:28Z</time>
  <course>142.59</course>
  <speed>1.0870602559196063</speed>
  <fix>3d</fix>
</trkpt>
<trkpt lat="40.0711122" lon="-105.2300941">
  <ele>1583.0</ele>
  <time>2026-08-27T17:17:28Z</time>
  <course>141.92</course>
  <speed>1.09</speed>
  <fix>3d</fix>
</trkpt>
<trkpt lat="40.0711099" lon="-105.2300914">
  <ele>1583.12</ele>
  <time>2026-08-27T17:17:28Z</time>
  <course>142.53</course>
  <speed>1.101135777277262</speed>
  <fix>3d</fix>
</trkpt>
<trkpt lat="40.0711107" lon="-105.2300924">
  <ele>1583.0</ele>
  <time>2026-08-27T17:17:28Z</time>
  <course>141.77</course>
  <speed>1.1</speed>
  <fix>3d</fix>
</trkpt>
<trkpt lat="40.0711091" lon="-105.2300906">
  <ele>1583.12</ele>
  <time>2026-08-27T17:17:28Z</time>
  <course>142.48</course>
  <speed>1.101135777277262</speed>
  <fix>3d</fix>
</trkpt>
<trkpt lat="40.0711107" lon="-105.2300924">
  <ele>1583.0</ele>
  <time>2026-08-27T17:17:28Z</time>
  <course>141.77</course>
  <speed>1.1</speed>
  <fix>3d</fix>
</trkpt>
<trkpt lat="40.0711083" lon="-105.2300897">
  <ele>1583.12</ele>
  <time>2026-08-27T17:17:28Z</time>
  <course>142.44</course>
  <speed>1.115212984142491</speed>
  <fix>3d</fix>
</trkpt>
<trkpt lat="40.0711091" lon="-105.2300908">
  <ele>1583.0</ele>
  <time>2026-08-27T17:17:28Z</time>
  <course>141.66</course>
  <speed>1.12</speed>
  <fix>3d</fix>
</trkpt>
<trkpt lat="40.0711075" lon="-105.2300889">
  <ele>1583.12</ele>
  <time>2026-08-27T17:17:28Z</time>
  <course>142.41</course>
  <speed>1.1229425630903835</speed>
  <fix>3d</fix>
</trkpt>
<trkpt lat="40.0711091" lon="-105.2300908">
  <ele>1583.0</ele>
  <time>2026-08-27T17:17:28Z</time>
  <course>141.66</course>
  <speed>1.12</speed>
  <fix>3d</fix>
</trkpt>
<trkpt lat="40.0711065" lon="-105.2300879">
  <ele>1583.13</ele>
  <time>2026-08-27T17:17:28Z</time>
  <course>142.37</course>
  <speed>1.1370136322841515</speed>
  <fix>3d</fix>
</trkpt>
<trkpt lat="40.0711076" lon="-105.2300892">
  <ele>1583.0</ele>
  <time>2026-08-27T17:17:28Z</time>
  <course>141.58</course>
  <speed>1.14</speed>
  <fix>3d</fix>
</trkpt>
<trkpt lat="40.0711057" lon="-105.230087">
  <ele>1583.13</ele>
  <time>2026-08-27T17:17:28Z</time>
  <course>142.35</course>
  <speed>1.1370136322841515</speed>
  <fix>3d</fix>
</trkpt>
<trkpt lat="40.0711076" lon="-105.2300892">
  <ele>1583.0</ele>
  <time>2026-08-27T17:17:28Z</time>
  <course>141.58</course>
  <speed>1.14</speed>
  <fix>3d</fix>
</trkpt>
<trkpt lat="40.0711048" lon="-105.2300862">
  <ele>1583.13</ele>
  <time>2026-08-27T17:17:28Z</time>
  <course>142.34</course>
  <speed>1.151086443322134</speed>
  <fix>3d</fix>
</trkpt>
<trkpt lat="40.0711059" lon="-105.2300875">
  <ele>1583.0</ele>
  <time>2026-08-27T17:17:28Z</time>
  <course>141.52</course>
  <speed>1.16</speed>
  <fix>3d</fix>
</trkpt>
<trkpt lat="40.071104" lon="-105.2300853">
  <ele>1583.13</ele>
  <time>2026-08-27T17:17:28Z</time>
  <course>142.32</course>
  <speed>1.158835622510803</speed>
  <fix>3d</fix>
</trkpt>
<trkpt lat="40.0711059" lon="-105.2300875">
  <ele>1583.0</ele>
  <time>2026-08-27T17:17:28Z</time>
  <course>141.52</course>
  <speed>1.16</speed>
  <fix>3d</fix>
</trkpt>
<trkpt lat="40.0711032" lon="-105.2300844">
  <ele>1583.14</ele>
  <time>2026-08-27T17:17:28Z</time>
  <course>142.32</course>
  <speed>1.1651609330903607</speed>
  <fix>3d</fix>
</trkpt>
<trkpt lat="40.0711042" lon="-105.2300858">
  <ele>1583.0</ele>
  <time>2026-08-27T17:17:28Z</time>
  <course>141.48</course>
  <speed>1.18</speed>
  <fix>3d</fix>
</trkpt>
<trkpt lat="40.0711023" lon="-105.2300836">
  <ele>1583.14</ele>
  <time>2026-08-27T17:17:28Z</time>
  <course>142.32</course>
  <speed>1.1729023829799308</speed>
  <fix>3d</fix>
</trkpt>
<trkpt lat="40.0711042" lon="-105.2300858">
  <ele>1583.0</ele>
  <time>2026-08-27T17:17:28Z</time>
  <course>141.48</course>
  <speed>1.18</speed>
  <fix>3d</fix>
</trkpt>
<trkpt lat="40.0711015" lon="-105.2300827">
  <ele>1583.14</ele>
  <time>2026-08-27T17:17:28Z</time>
  <course>142.34</course>
  <speed>1.1729023829799308</speed>
  <fix>3d</fix>
</trkpt>
<trkpt lat="40.0711026" lon="-105.230084">
  <ele>1583.0</ele>
  <time>2026-08-27T17:17:28Z</time>
  <course>141.48</course>
  <speed>1.19</speed>
  <fix>3d</fix>
</trkpt>
<trkpt lat="40.0711007" lon="-105.2300818">
  <ele>1583.14</ele>
  <time>2026-08-27T17:17:28Z</time>
  <course>142.4</course>
  <speed>1.1806777714516352</speed>
  <fix>3d</fix>
</trkpt>
<trkpt lat="40.0711026" lon="-105.230084">
  <ele>1583.0</ele>
  <time>2026-08-27T17:17:28Z</time>
  <course>141.48</course>
  <speed>1.19</speed>
  <fix>3d</fix>
</trkpt>
<trkpt lat="40.0710998" lon="-105.230081">
  <ele>1583.14</ele>
  <time>2026-08-27T17:17:28Z</time>
  <course>142.48</course>
  <speed>1.1806777714516352</speed>
  <fix>3d</fix>
</trkpt>
<trkpt lat="40.0711009" lon="-105.2300822">
  <ele>1583.0</ele>
  <time>2026-08-27T17:17:28Z</time>
  <course>141.55</course>
  <speed>1.21</speed>
  <fix>3d</fix>
</trkpt>
<trkpt lat="40.071099" lon="-105.2300801">
  <ele>1583.14</ele>
  <time>2026-08-27T17:17:28Z</time>
  <course>142.6</course>
  <speed>1.1884864324004711</speed>
  <fix>3d</fix>
</trkpt>
<trkpt lat="40.0711009" lon="-105.2300822">
  <ele>1583.0</ele>
  <time>2026-08-27T17:17:28Z</time>
  <course>141.55</course>
  <speed>1.21</speed>
  <fix>3d</fix>
</trkpt>
<trkpt lat="40.0710981" lon="-105.2300792">
  <ele>1583.14</ele>
  <time>2026-08-27T17:17:28Z</time>
  <course>142.75</course>
  <speed>1.1884864324004711</speed>
  <fix>3d</fix>
</trkpt>
<trkpt lat="40.0710991" lon="-105.2300804">
  <ele>1583.0</ele>
  <time>2026-08-27T17:17:28Z</time>
  <course>141.74</course>
  <speed>1.22</speed>
  <fix>3d</fix>
</trkpt>
<trkpt lat="40.0710974" lon="-105.2300785">
  <ele>1583.14</ele>
  <time>2026-08-27T17:17:28Z</time>
  <course>142.89</course>
  <speed>1.1963277142990545</speed>
  <fix>3d</fix>
</trkpt>
<trkpt lat="40.0710991" lon="-105.2300804">
  <ele>1583.0</ele>
  <time>2026-08-27T17:17:28Z</time>
  <course>141.74</course>
  <speed>1.22</speed>
  <fix>3d</fix>
</trkpt>
<trkpt lat="40.0710966" lon="-105.2300777">
  <ele>1583.14</ele>
  <time>2026-08-27T17:17:28Z</time>
  <course>143.09</course>
  <speed>1.1963277142990545</speed>
  <fix>3d</fix>
</trkpt>
<trkpt lat="40.0710974" lon="-105.2300787">
  <ele>1583.0</ele>
  <time>2026-08-27T17:17:28Z</time>
  <course>142.05</course>
  <speed>1.23</speed>
  <fix>3d</fix>
</trkpt>
<trkpt lat="40.0710957" lon="-105.2300768">
  <ele>1583.14</ele>
  <time>2026-08-27T17:17:28Z</time>
  <course>143.32</course>
  <speed>1.1980818002123228</speed>
  <fix>3d</fix>
</trkpt>
<trkpt lat="40.0710974" lon="-105.2300787">
  <ele>1583.0</ele>
  <time>2026-08-27T17:17:28Z</time>
  <course>142.05</course>
  <speed>1.23</speed>
  <fix>3d</fix>
</trkpt>
<trkpt lat="40.0710948" lon="-105.2300759">
  <ele>1583.14</ele>
  <time>2026-08-27T17:17:28Z</time>
  <course>143.58</course>
  <speed>1.1980818002123228</speed>
  <fix>3d</fix>
</trkpt>
<trkpt lat="40.0710957" lon="-105.230077">
  <ele>1583.0</ele>
  <time>2026-08-27T17:17:28Z</time>
  <course>142.48</course>
  <speed>1.23</speed>
  <fix>3d</fix>
</trkpt>
<trkpt lat="40.0710939" lon="-105.230075">
  <ele>1583.14</ele>
  <time>2026-08-27T17:17:28Z</time>
  <course>143.86</course>
  <speed>1.2</speed>
  <fix>3d</fix>
</trkpt>
<trkpt lat="40.0710957" lon="-105.230077">
  <ele>1583.0</ele>
  <time>2026-08-27T17:17:28Z</time>
  <course>142.48</course>
  <speed>1.23</speed>
  <fix>3d</fix>
</trkpt>
<trkpt lat="40.071093" lon="-105.2300742">
  <ele>1583.14</ele>
  <time>2026-08-27T17:17:28Z</time>
  <course>144.17</course>
  <speed>1.2</speed>
  <fix>3d</fix>
</trkpt>
<trkpt lat="40.0710939" lon="-105.2300751">
  <ele>1583.0</ele>
  <time>2026-08-27T17:17:28Z</time>
  <course>143.02</course>
  <speed>1.23</speed>
  <fix>3d</fix>
</trkpt>
<trkpt lat="40.0710921" lon="-105.2300733">
  <ele>1583.14</ele>
  <time>2026-08-27T17:17:28Z</time>
  <course>144.5</course>
  <speed>1.2020815280171309</speed>
  <fix>3d</fix>
</trkpt>
<trkpt lat="40.0710939" lon="-105.2300751">
  <ele>1583.0</ele>
  <time>2026-08-27T17:17:28Z</time>
  <course>143.02</course>
  <speed>1.23</speed>
  <fix>3d</fix>
</trkpt>
<trkpt lat="40.0710912" lon="-105.2300725">
  <ele>1583.14</ele>
  <time>2026-08-27T17:17:28Z</time>
  <course>144.85</course>
  <speed>1.196202324023825</speed>
  <fix>3d</fix>
</trkpt>
<trkpt lat="40.0710921" lon="-105.2300734">
  <ele>1583.0</ele>
  <time>2026-08-27T17:17:28Z</time>
  <course>143.65</course>
  <speed>1.23</speed>
  <fix>3d</fix>
</trkpt>
<trkpt lat="40.0710903" lon="-105.2300716">
  <ele>1583.13</ele>
  <time>2026-08-27T17:17:28Z</time>
  <course>145.19</course>
  <speed>1.1985407794480754</speed>
  <fix>3d</fix>
</trkpt>
<trkpt lat="40.0710921" lon="-105.2300734">
  <ele>1583.0</ele>
  <time>2026-08-27T17:17:28Z</time>
  <course>143.65</course>
  <speed>1.23</speed>
  <fix>3d</fix>
</trkpt>
<trkpt lat="40.0710894" lon="-105.2300708">
  <ele>1583.13</ele>
  <time>2026-08-27T17:17:28Z</time>
  <course>145.53</course>
  <speed>1.1985407794480754</speed>
  <fix>3d</fix>
</trkpt>
<trkpt lat="40.0710904" lon="-105.2300717">
  <ele>1583.0</ele>
  <time>2026-08-27T17:17:28Z</time>
  <course>144.33</course>
  <speed>1.23</speed>
  <fix>3d</fix>
</trkpt>
<trkpt lat="40.0710883" lon="-105.2300698">
  <ele>1583.13</ele>
  <time>2026-08-27T17:17:28Z</time>
  <course>145.91</course>
  <speed>1.1928118040998756</speed>
  <fix>3d</fix>
</trkpt>
<trkpt lat="40.0710904" lon="-105.2300717">
  <ele>1583.0</ele>
  <time>2026-08-27T17:17:28Z</time>
  <course>144.33</course>
  <speed>1.23</speed>
  <fix>3d</fix>
</trkpt>
<trkpt lat="40.0710874" lon="-105.230069">
  <ele>1583.13</ele>
  <time>2026-08-27T17:17:28Z</time>
  <course>146.22</course>
  <speed>1.1871394189394942</speed>
  <fix>3d</fix>
</trkpt>
<trkpt lat="40.0710885" lon="-105.2300701">
  <ele>1583.0</ele>
  <time>2026-08-27T17:17:28Z</time>
  <course>144.99</course>
  <speed>1.23</speed>
  <fix>3d</fix>
</trkpt>
<trkpt lat="40.0710864" lon="-105.2300682">
  <ele>1583.13</ele>
  <time>2026-08-27T17:17:28Z</time>
  <course>146.51</course>
  <speed>1.1898319209031165</speed>
  <fix>3d</fix>
</trkpt>
<trkpt lat="40.0710885" lon="-105.2300701">
  <ele>1583.0</ele>
  <time>2026-08-27T17:17:28Z</time>
  <course>144.99</course>
  <speed>1.23</speed>
  <fix>3d</fix>
</trkpt>
<trkpt lat="40.0710855" lon="-105.2300674">
  <ele>1583.13</ele>
  <time>2026-08-27T17:17:28Z</time>
  <course>146.81</course>
  <speed>1.1843141475132348</speed>
  <fix>3d</fix>
</trkpt>
<trkpt lat="40.0710866" lon="-105.2300684">
  <ele>1583.0</ele>
  <time>2026-08-27T17:17:28Z</time>
  <course>145.6</course>
  <speed>1.22</speed>
  <fix>3d</fix>
</trkpt>
<trkpt lat="40.0710846" lon="-105.2300666">
  <ele>1583.13</ele>
  <time>2026-08-27T17:17:28Z</time>
  <course>147.08</course>
  <speed>1.1843141475132348</speed>
  <fix>3d</fix>
</trkpt>
<trkpt lat="40.0710866" lon="-105.2300684">
  <ele>1583.0</ele>
  <time>2026-08-27T17:17:28Z</time>
  <course>145.6</course>
  <speed>1.22</speed>
  <fix>3d</fix>
</trkpt>
<trkpt lat="40.0710837" lon="-105.2300658">
  <ele>1583.13</ele>
  <time>2026-08-27T17:17:28Z</time>
  <course>147.36</course>
  <speed>1.1788553770501282</speed>
  <fix>3d</fix>
</trkpt>
<trkpt lat="40.0710849" lon="-105.2300668">
  <ele>1583.0</ele>
  <time>2026-08-27T17:17:28Z</time>
  <course>146.18</course>
  <speed>1.21</speed>
  <fix>3d</fix>
</trkpt>
<trkpt lat="40.0710828" lon="-105.230065">
  <ele>1583.13</ele>
  <time>2026-08-27T17:17:28Z</time>
  <course>147.62</course>
  <speed>1.1734564329364767</speed>
  <fix>3d</fix>
</trkpt>
<trkpt lat="40.0710849" lon="-105.2300668">
  <ele>1583.0</ele>
  <time>2026-08-27T17:17:28Z</time>
  <course>146.18</course>
  <speed>1.21</speed>
  <fix>3d</fix>
</trkpt>
<trkpt lat="40.0710819" lon="-105.2300643">
  <ele>1583.13</ele>
  <time>2026-08-27T17:17:28Z</time>
  <course>147.88</course>
  <speed>1.1681181447096864</speed>
  <fix>3d</fix>
</trkpt>
<trkpt lat="40.071083" lon="-105.2300653">
  <ele>1583.0</ele>
  <time>2026-08-27T17:17:28Z</time>
  <course>146.73</course>
  <speed>1.21</speed>
  <fix>3d</fix>
</trkpt>
<trkpt lat="40.071081" lon="-105.2300635">
  <ele>1583.13</ele>
  <time>2026-08-27T17:17:28Z</time>
  <course>148.14</course>
  <speed>1.1681181447096864</speed>
  <fix>3d</fix>
</trkpt>
<trkpt lat="40.071083" lon="-105.2300653">
  <ele>1583.0</ele>
  <time>2026-08-27T17:17:28Z</time>
  <course>146.73</course>
  <speed>1.21</speed>
  <fix>3d</fix>
</trkpt>
<trkpt lat="40.07108" lon="-105.2300628">
  <ele>1583.13</ele>
  <time>2026-08-27T17:17:28Z</time>
  <course>148.38</course>
  <speed>1.162841347734075</speed>
  <fix>3d</fix>
</trkpt>
<trkpt lat="40.0710813" lon="-105.2300637">
  <ele>1583.0</ele>
  <time>2026-08-27T17:17:28Z</time>
  <course>147.24</course>
  <speed>1.2</speed>
  <fix>3d</fix>
</trkpt>
<trkpt lat="40.0710791" lon="-105.2300621">
  <ele>1583.14</ele>
  <time>2026-08-27T17:17:28Z</time>
  <course>148.63</course>
  <speed>1.1576268828944842</speed>
  <fix>3d</fix>
</trkpt>
<trkpt lat="40.0710813" lon="-105.2300637">
  <ele>1583.0</ele>
  <time>2026-08-27T17:17:28Z</time>
  <course>147.24</course>
  <speed>1.2</speed>
  <fix>3d</fix>
</trkpt>
<trkpt lat="40.0710784" lon="-105.2300615">
  <ele>1583.14</ele>
  <time>2026-08-27T17:17:28Z</time>
  <course>148.82</course>
  <speed>1.1576268828944842</speed>
  <fix>3d</fix>
</trkpt>
<trkpt lat="40.0710794" lon="-105.2300621">
  <ele>1583.0</ele>
  <time>2026-08-27T17:17:28Z</time>
  <course>147.74</course>
  <speed>1.2</speed>
  <fix>3d</fix>
</trkpt>
<trkpt lat="40.0710775" lon="-105.2300607">
  <ele>1583.14</ele>
  <time>2026-08-27T17:17:28Z</time>
  <course>148.77</course>
  <speed>1.1576268828944842</speed>
  <fix>3d</fix>
</trkpt>
<trkpt lat="40.0710794" lon="-105.2300621">
  <ele>1583.0</ele>
  <time>2026-08-27T17:17:28Z</time>
  <course>147.74</course>
  <speed>1.2</speed>
  <fix>3d</fix>
</trkpt>
<trkpt lat="40.0710766" lon="-105.23006">
  <ele>1583.15</ele>
  <time>2026-08-27T17:17:28Z</time>
  <course>147.53</course>
  <speed>1.1596551211459378</speed>
  <fix>3d</fix>
</trkpt>
<trkpt lat="40.0710775" lon="-105.2300607">
  <ele>1583.0</ele>
  <time>2026-08-27T17:17:28Z</time>
  <course>147.33</course>
  <speed>1.19</speed>
  <fix>3d</fix>
</trkpt>
<trkpt lat="40.0710757" lon="-105.2300592">
  <ele>1583.15</ele>
  <time>2026-08-27T17:17:28Z</time>
  <course>145.35</course>
  <speed>1.151086443322134</speed>
  <fix>3d</fix>
</trkpt>
<trkpt lat="40.0710775" lon="-105.2300607">
  <ele>1583.0</ele>
  <time>2026-08-27T17:17:28Z</time>
  <course>147.33</course>
  <speed>1.19</speed>
  <fix>3d</fix>
</trkpt>
<trkpt lat="40.0710748" lon="-105.2300584">
  <ele>1583.15</ele>
  <time>2026-08-27T17:17:28Z</time>
  <course>143.49</course>
  <speed>1.1520850663036997</speed>
  <fix>3d</fix>
</trkpt>
<trkpt lat="40.0710758" lon="-105.2300591">
  <ele>1583.0</ele>
  <time>2026-08-27T17:17:28Z</time>
  <course>144.65</course>
  <speed>1.19</speed>
  <fix>3d</fix>
</trkpt>
<trkpt lat="40.071074" lon="-105.2300575">
  <ele>1583.15</ele>
  <time>2026-08-27T17:17:28Z</time>
  <course>141.95</course>
  <speed>1.1542096863222038</speed>
  <fix>3d</fix>
</trkpt>
<trkpt lat="40.0710758" lon="-105.2300591">
  <ele>1583.0</ele>
  <time>2026-08-27T17:17:28Z</time>
  <course>144.65</course>
  <speed>1.19</speed>
  <fix>3d</fix>
</trkpt>
<trkpt lat="40.0710732" lon="-105.2300566">
  <ele>1583.16</ele>
  <time>2026-08-27T17:17:28Z</time>
  <course>140.65</course>
  <speed>1.158835622510803</speed>
  <fix>3d</fix>
</trkpt>
<trkpt lat="40.0710741" lon="-105.2300574">
  <ele>1583.0</ele>
  <time>2026-08-27T17:17:28Z</time>
  <course>141.21</course>
  <speed>1.19</speed>
  <fix>3d</fix>
</trkpt>
<trkpt lat="40.0710723" lon="-105.2300557">
  <ele>1583.16</ele>
  <time>2026-08-27T17:17:28Z</time>
  <course>139.57</course>
  <speed>1.170341830406826</speed>
  <fix>3d</fix>
</trkpt>
<trkpt lat="40.0710741" lon="-105.2300574">
  <ele>1583.0</ele>
  <time>2026-08-27T17:17:28Z</time>
  <course>141.21</course>
  <speed>1.19</speed>
  <fix>3d</fix>
</trkpt>
<trkpt lat="40.0710715" lon="-105.2300547">
  <ele>1583.16</ele>
  <time>2026-08-27T17:17:28Z</time>
  <course>138.68</course>
  <speed>1.175925167687128</speed>
  <fix>3d</fix>
</trkpt>
<trkpt lat="40.0710725" lon="-105.2300556">
  <ele>1583.0</ele>
  <time>2026-08-27T17:17:28Z</time>
  <course>138.81</course>
  <speed>1.2</speed>
  <fix>3d</fix>
</trkpt>
<trkpt lat="40.0710707" lon="-105.2300538">
  <ele>1583.16</ele>
  <time>2026-08-27T17:17:28Z</time>
  <course>137.94</course>
  <speed>1.1892854997854805</speed>
  <fix>3d</fix>
</trkpt>
<trkpt lat="40.0710725" lon="-105.2300556">
  <ele>1583.0</ele>
  <time>2026-08-27T17:17:28Z</time>
  <course>138.81</course>
  <speed>1.2</speed>
  <fix>3d</fix>
</trkpt>
<trkpt lat="40.0710697" lon="-105.2300526">
  <ele>1583.16</ele>
  <time>2026-08-27T17:17:28Z</time>
  <course>137.21</course>
  <speed>1.2028299963003917</speed>
  <fix>3d</fix>
</trkpt>
<trkpt lat="40.0710708" lon="-105.2300537">
  <ele>1583.0</ele>
  <time>2026-08-27T17:17:28Z</time>
  <course>137.15</course>
  <speed>1.22</speed>
  <fix>3d</fix>
</trkpt>
<trkpt lat="40.0710689" lon="-105.2300515">
  <ele>1583.17</ele>
  <time>2026-08-27T17:17:28Z</time>
  <course>136.72</course>
  <speed>1.2096693763173474</speed>
  <fix>3d</fix>
</trkpt>
<trkpt lat="40.0710708" lon="-105.2300537">
  <ele>1583.0</ele>
  <time>2026-08-27T17:17:28Z</time>
  <course>137.15</course>
  <speed>1.22</speed>
  <fix>3d</fix>
</trkpt>
<trkpt lat="40.0710681" lon="-105.2300505">
  <ele>1583.17</ele>
  <time>2026-08-27T17:17:28Z</time>
  <course>136.31</course>
  <speed>1.230690862889621</speed>
  <fix>3d</fix>
</trkpt>
<trkpt lat="40.0710693" lon="-105.2300516">
  <ele>1583.0</ele>
  <time>2026-08-27T17:17:28Z</time>
  <course>136.0</course>
  <speed>1.24</speed>
  <fix>3d</fix>
</trkpt>
<trkpt lat="40.0710673" lon="-105.2300494">
  <ele>1583.17</ele>
  <time>2026-08-27T17:17:28Z</time>
  <course>135.96</course>
  <speed>1.2445882853377659</speed>
  <fix>3d</fix>
</trkpt>
<trkpt lat="40.0710693" lon="-105.2300516">
  <ele>1583.0</ele>
  <time>2026-08-27T17:17:28Z</time>
  <course>136.0</course>
  <speed>1.24</speed>
  <fix>3d</fix>
</trkpt>
<trkpt lat="40.0710665" lon="-105.2300484">
  <ele>1583.17</ele>
  <time>2026-08-27T17:17:28Z</time>
  <course>135.68</course>
  <speed>1.258729518204765</speed>
  <fix>3d</fix>
</trkpt>
<trkpt lat="40.0710676" lon="-105.2300496">
  <ele>1583.0</ele>
  <time>2026-08-27T17:17:28Z</time>
  <course>135.21</course>
  <speed>1.27</speed>
  <fix>3d</fix>
</trkpt>
<trkpt lat="40.0710657" lon="-105.2300473">
  <ele>1583.17</ele>
  <time>2026-08-27T17:17:28Z</time>
  <course>135.45</course>
  <speed>1.2727922061357857</speed>
  <fix>3d</fix>
</trkpt>
<trkpt lat="40.0710676" lon="-105.2300496">
  <ele>1583.0</ele>
  <time>2026-08-27T17:17:28Z</time>
  <course>135.21</course>
  <speed>1.27</speed>
  <fix>3d</fix>
</trkpt>
<trkpt lat="40.0710648" lon="-105.2300462">
  <ele>1583.17</ele>
  <time>2026-08-27T17:17:28Z</time>
  <course>135.25</course>
  <speed>1.2869343417595163</speed>
  <fix>3d</fix>
</trkpt>
<trkpt lat="40.071066" lon="-105.2300474">
  <ele>1583.0</ele>
  <time>2026-08-27T17:17:28Z</time>
  <course>134.67</course>
  <speed>1.3</speed>
  <fix>3d</fix>
</trkpt>
<trkpt lat="40.071064" lon="-105.2300451">
  <ele>1583.17</ele>
  <time>2026-08-27T17:17:28Z</time>
  <course>135.09</course>
  <speed>1.3010764773832475</speed>
  <fix>3d</fix>
</trkpt>
<trkpt lat="40.071066" lon="-105.2300474">
  <ele>1583.0</ele>
  <time>2026-08-27T17:17:28Z</time>
  <course>134.67</course>
  <speed>1.3</speed>
  <fix>3d</fix>
</trkpt>
<trkpt lat="40.0710632" lon="-105.2300439">
  <ele>1583.17</ele>
  <time>2026-08-27T17:17:28Z</time>
  <course>134.95</course>
  <speed>1.3152186130069785</speed>
  <fix>3d</fix>
</trkpt>
<trkpt lat="40.0710643" lon="-105.2300453">
  <ele>1583.0</ele>
  <time>2026-08-27T17:17:28Z</time>
  <course>134.3</course>
  <speed>1.33</speed>
  <fix>3d</fix>
</trkpt>
<trkpt lat="40.0710623" lon="-105.2300428">
  <ele>1583.17</ele>
  <time>2026-08-27T17:17:28Z</time>
  <course>134.84</course>
  <speed>1.3223085872821065</speed>
  <fix>3d</fix>
</trkpt>
<trkpt lat="40.0710643" lon="-105.2300453">
  <ele>1583.0</ele>
  <time>2026-08-27T17:17:28Z</time>
  <course>134.3</course>
  <speed>1.33</speed>
  <fix>3d</fix>
</trkpt>
<trkpt lat="40.0710615" lon="-105.2300417">
  <ele>1583.17</ele>
  <time>2026-08-27T17:17:28Z</time>
  <course>134.75</course>
  <speed>1.3364505228402583</speed>
  <fix>3d</fix>
</trkpt>
<trkpt lat="40.0710626" lon="-105.230043">
  <ele>1583.0</ele>
  <time>2026-08-27T17:17:28Z</time>
  <course>134.04</course>
  <speed>1.36</speed>
  <fix>3d</fix>
</trkpt>
<trkpt lat="40.0710608" lon="-105.2300407">
  <ele>1583.17</ele>
  <time>2026-08-27T17:17:28Z</time>
  <course>134.69</course>
  <speed>1.3435773144854748</speed>
  <fix>3d</fix>
</trkpt>
<trkpt lat="40.0710626" lon="-105.230043">
  <ele>1583.0</ele>
  <time>2026-08-27T17:17:28Z</time>
  <course>134.04</course>
  <speed>1.36</speed>
  <fix>3d</fix>
</trkpt>
<trkpt lat="40.0710599" lon="-105.2300396">
  <ele>1583.17</ele>
  <time>2026-08-27T17:17:28Z</time>
  <course>134.62</course>
  <speed>1.3577186748365804</speed>
  <fix>3d</fix>
</trkpt>
<trkpt lat="40.0710609" lon="-105.2300406">
  <ele>1583.0</ele>
  <time>2026-08-27T17:17:28Z</time>
  <course>133.86</course>
  <speed>1.38</speed>
  <fix>3d</fix>
</trkpt>
<trkpt lat="40.0710591" lon="-105.2300384">
  <ele>1583.16</ele>
  <time>2026-08-27T17:17:28Z</time>
  <course>134.57</course>
  <speed>1.3718600511714012</speed>
  <fix>3d</fix>
</trkpt>
<trkpt lat="40.0710609" lon="-105.2300406">
  <ele>1583.0</ele>
  <time>2026-08-27T17:17:28Z</time>
  <course>133.86</course>
  <speed>1.38</speed>
  <fix>3d</fix>
</trkpt>
<trkpt lat="40.0710582" lon="-105.2300372">
  <ele>1583.16</ele>
  <time>2026-08-27T17:17:28Z</time>
  <course>134.53</course>
  <speed>1.3718600511714012</speed>
  <fix>3d</fix>
</trkpt>
<trkpt lat="40.0710591" lon="-105.2300382">
  <ele>1583.0</ele>
  <time>2026-08-27T17:17:28Z</time>
  <course>133.74</course>
  <speed>1.4</speed>
  <fix>3d</fix>
</trkpt>
<trkpt lat="40.0710573" lon="-105.2300359">
  <ele>1583.16</ele>
  <time>2026-08-27T17:17:28Z</time>
  <course>134.49</course>
  <speed>1.386001443000692</speed>
  <fix>3d</fix>
</trkpt>
<trkpt lat="40.0710591" lon="-105.2300382">
  <ele>1583.0</ele>
  <time>2026-08-27T17:17:28Z</time>
  <course>133.74</course>
  <speed>1.4</speed>
  <fix>3d</fix>
</trkpt>
<trkpt lat="40.0710564" lon="-105.2300347">
  <ele>1583.17</ele>
  <time>2026-08-27T17:17:28Z</time>
  <course>134.46</course>
  <speed>1.400142849854971</speed>
  <fix>3d</fix>
</trkpt>
<trkpt lat="40.0710574" lon="-105.2300358">
  <ele>1583.0</ele>
  <time>2026-08-27T17:17:28Z</time>
  <course>133.66</course>
  <speed>1.42</speed>
  <fix>3d</fix>
</trkpt>
<trkpt lat="40.0710555" lon="-105.2300335">
  <ele>1583.17</ele>
  <time>2026-08-27T17:17:28Z</time>
  <course>134.44</course>
  <speed>1.4073023839957068</speed>
  <fix>3d</fix>
</trkpt>
<trkpt lat="40.0710574" lon="-105.2300358">
  <ele>1583.0</ele>
  <time>2026-08-27T17:17:28Z</time>
  <course>133.66</course>
  <speed>1.42</speed>
  <fix>3d</fix>
</trkpt>
<trkpt lat="40.0710546" lon="-105.2300322">
  <ele>1583.17</ele>
  <time>2026-08-27T17:17:28Z</time>
  <course>134.42</course>
  <speed>1.4142842712835353</speed>
  <fix>3d</fix>
</trkpt>
<trkpt lat="40.0710557" lon="-105.2300334">
  <ele>1583.0</ele>
  <time>2026-08-27T17:17:28Z</time>
  <course>133.61</course>
  <speed>1.44</speed>
  <fix>3d</fix>
</trkpt>
<trkpt lat="40.0710537" lon="-105.230031">
  <ele>1583.17</ele>
  <time>2026-08-27T17:17:28Z</time>
  <course>134.39</course>
  <speed>1.421442928857856</speed>
  <fix>3d</fix>
</trkpt>
<trkpt lat="40.0710557" lon="-105.2300334">
  <ele>1583.0</ele>
  <time>2026-08-27T17:17:28Z</time>
  <course>133.61</course>
  <speed>1.44</speed>
  <fix>3d</fix>
</trkpt>
<trkpt lat="40.0710526" lon="-105.2300295">
  <ele>1583.17</ele>
  <time>2026-08-27T17:17:28Z</time>
  <course>134.38</course>
  <speed>1.4284257068535278</speed>
  <fix>3d</fix>
</trkpt>
<trkpt lat="40.0710538" lon="-105.230031">
  <ele>1583.0</ele>
  <time>2026-08-27T17:17:28Z</time>
  <course>133.57</course>
  <speed>1.45</speed>
  <fix>3d</fix>
</trkpt>
<trkpt lat="40.0710517" lon="-105.2300282">
  <ele>1583.16</ele>
  <time>2026-08-27T17:17:28Z</time>
  <course>134.37</course>
  <speed>1.4355835050598764</speed>
  <fix>3d</fix>
</trkpt>
<trkpt lat="40.0710538" lon="-105.230031">
  <ele>1583.0</ele>
  <time>2026-08-27T17:17:28Z</time>
  <course>133.57</course>
  <speed>1.45</speed>
  <fix>3d</fix>
</trkpt>
<trkpt lat="40.0710507" lon="-105.230027">
  <ele>1583.16</ele>
  <time>2026-08-27T17:17:28Z</time>
  <course>134.37</course>
  <speed>1.4425671561490647</speed>
  <fix>3d</fix>
</trkpt>
<trkpt lat="40.071052" lon="-105.2300285">
  <ele>1583.0</ele>
  <time>2026-08-27T17:17:28Z</time>
  <course>133.55</course>
  <speed>1.46</speed>
  <fix>3d</fix>
</trkpt>
<trkpt lat="40.0710498" lon="-105.2300257">
  <ele>1583.16</ele>
  <time>2026-08-27T17:17:28Z</time>
  <course>134.37</course>
  <speed>1.4497241116847024</speed>
  <fix>3d</fix>
</trkpt>
<trkpt lat="40.071052" lon="-105.2300285">
  <ele>1583.0</ele>
  <time>2026-08-27T17:17:28Z</time>
  <course>133.55</course>
  <speed>1.46</speed>
  <fix>3d</fix>
</trkpt>
<trkpt lat="40.0710489" lon="-105.2300244">
  <ele>1583.15</ele>
  <time>2026-08-27T17:17:28Z</time>
  <course>134.37</course>
  <speed>1.4497241116847024</speed>
  <fix>3d</fix>
</trkpt>
<trkpt lat="40.0710502" lon="-105.230026">
  <ele>1583.0</ele>
  <time>2026-08-27T17:17:28Z</time>
  <course>133.55</course>
  <speed>1.47</speed>
  <fix>3d</fix>
</trkpt>
<trkpt lat="40.071048" lon="-105.2300231">
  <ele>1583.15</ele>
  <time>2026-08-27T17:17:28Z</time>
  <course>134.36</course>
  <speed>1.4567086187704115</speed>
  <fix>3d</fix>
</trkpt>
<trkpt lat="40.0710502" lon="-105.230026">
  <ele>1583.0</ele>
  <time>2026-08-27T17:17:28Z</time>
  <course>133.55</course>
  <speed>1.47</speed>
  <fix>3d</fix>
</trkpt>
<trkpt lat="40.071047" lon="-105.2300219">
  <ele>1583.14</ele>
  <time>2026-08-27T17:17:28Z</time>
  <course>134.36</course>
  <speed>1.4567086187704115</speed>
  <fix>3d</fix>
</trkpt>
<trkpt lat="40.0710483" lon="-105.2300234">
  <ele>1583.0</ele>
  <time>2026-08-27T17:17:28Z</time>
  <course>133.55</course>
  <speed>1.48</speed>
  <fix>3d</fix>
</trkpt>
<trkpt lat="40.0710461" lon="-105.2300206">
  <ele>1583.14</ele>
  <time>2026-08-27T17:17:28Z</time>
  <course>134.36</course>
  <speed>1.4638647478507023</speed>
  <fix>3d</fix>
</trkpt>
<trkpt lat="40.0710483" lon="-105.2300234">
  <ele>1583.0</ele>
  <time>2026-08-27T17:17:28Z</time>
  <course>133.55</course>
  <speed>1.48</speed>
  <fix>3d</fix>
</trkpt>
<trkpt lat="40.0710452" lon="-105.2300194">
  <ele>1583.13</ele>
  <time>2026-08-27T17:17:28Z</time>
  <course>134.36</course>
  <speed>1.4638647478507023</speed>
  <fix>3d</fix>
</trkpt>
<trkpt lat="40.0710465" lon="-105.2300209">
  <ele>1583.0</ele>
  <time>2026-08-27T17:17:28Z</time>
  <course>133.55</course>
  <speed>1.49</speed>
  <fix>3d</fix>
</trkpt>
<trkpt lat="40.0710443" lon="-105.2300181">
  <ele>1583.13</ele>
  <time>2026-08-27T17:17:28Z</time>
  <course>134.36</course>
  <speed>1.4638647478507023</speed>
  <fix>3d</fix>
</trkpt>
<trkpt lat="40.0710465" lon="-105.2300209">
  <ele>1583.0</ele>
  <time>2026-08-27T17:17:28Z</time>
  <course>133.55</course>
  <speed>1.49</speed>
  <fix>3d</fix>
</trkpt>
<trkpt lat="40.0710433" lon="-105.2300168">
  <ele>1583.13</ele>
  <time>2026-08-27T17:17:28Z</time>
  <course>134.36</course>
  <speed>1.4708500943332057</speed>
  <fix>3d</fix>
</trkpt>
<trkpt lat="40.0710447" lon="-105.2300184">
  <ele>1583.0</ele>
  <time>2026-08-27T17:17:28Z</time>
  <course>133.55</course>
  <speed>1.49</speed>
  <fix>3d</fix>
</trkpt>
<trkpt lat="40.0710426" lon="-105.2300158">
  <ele>1583.12</ele>
  <time>2026-08-27T17:17:28Z</time>
  <course>134.36</course>
  <speed>1.4708500943332057</speed>
  <fix>3d</fix>
</trkpt>
<trkpt lat="40.0710447" lon="-105.2300184">
  <ele>1583.0</ele>
  <time>2026-08-27T17:17:28Z</time>
  <course>133.55</course>
  <speed>1.49</speed>
  <fix>3d</fix>
</trkpt>
<trkpt lat="40.0710417" lon="-105.2300145">
  <ele>1583.12</ele>
  <time>2026-08-27T17:17:28Z</time>
  <course>134.36</course>
  <speed>1.4708500943332057</speed>
  <fix>3d</fix>
</trkpt>
<trkpt lat="40.0710428" lon="-105.2300158">
  <ele>1583.0</ele>
  <time>2026-08-27T17:17:28Z</time>
  <course>133.55</course>
  <speed>1.5</speed>
  <fix>3d</fix>
</trkpt>
<trkpt lat="40.0710407" lon="-105.2300132">
  <ele>1583.12</ele>
  <time>2026-08-27T17:17:28Z</time>
  <course>134.36</course>
  <speed>1.4708500943332057</speed>
  <fix>3d</fix>
</trkpt>
<trkpt lat="40.0710428" lon="-105.2300158">
  <ele>1583.0</ele>
  <time>2026-08-27T17:17:28Z</time>
  <course>133.55</course>
  <speed>1.5</speed>
  <fix>3d</fix>
</trkpt>
<trkpt lat="40.0710398" lon="-105.230012">
  <ele>1583.12</ele>
  <time>2026-08-27T17:17:28Z</time>
  <course>134.36</course>
  <speed>1.4780054127099804</speed>
  <fix>3d</fix>
</trkpt>
<trkpt lat="40.0710409" lon="-105.2300133">
  <ele>1583.0</ele>
  <time>2026-08-27T17:17:28Z</time>
  <course>133.55</course>
  <speed>1.5</speed>
  <fix>3d</fix>
</trkpt>
<trkpt lat="40.0710389" lon="-105.2300107">
  <ele>1583.11</ele>
  <time>2026-08-27T17:17:28Z</time>
  <course>134.36</course>
  <speed>1.4780054127099804</speed>
  <fix>3d</fix>
</trkpt>
<trkpt lat="40.0710409" lon="-105.2300133">
  <ele>1583.0</ele>
  <time>2026-08-27T17:17:28Z</time>
  <course>133.55</course>
  <speed>1.5</speed>
  <fix>3d</fix>
</trkpt>
<trkpt lat="40.0710379" lon="-105.2300094">
  <ele>1583.11</ele>
  <time>2026-08-27T17:17:28Z</time>
  <course>134.36</course>
  <speed>1.4780054127099804</speed>
  <fix>3d</fix>
</trkpt>
<trkpt lat="40.071039" lon="-105.2300107">
  <ele>1583.0</ele>
  <time>2026-08-27T17:17:28Z</time>
  <course>133.55</course>
  <speed>1.51</speed>
  <fix>3d</fix>
</trkpt>
<trkpt lat="40.071037" lon="-105.2300081">
  <ele>1583.11</ele>
  <time>2026-08-27T17:17:28Z</time>
  <course>134.35</course>
  <speed>1.4780054127099804</speed>
  <fix>3d</fix>
</trkpt>
<trkpt lat="40.071039" lon="-105.2300107">
  <ele>1583.0</ele>
  <time>2026-08-27T17:17:28Z</time>
  <course>133.55</course>
  <speed>1.51</speed>
  <fix>3d</fix>
</trkpt>
<trkpt lat="40.071036" lon="-105.2300068">
  <ele>1583.11</ele>
  <time>2026-08-27T17:17:28Z</time>
  <course>134.35</course>
  <speed>1.4780054127099804</speed>
  <fix>3d</fix>
</trkpt>
<trkpt lat="40.0710372" lon="-105.2300081">
  <ele>1583.0</ele>
  <time>2026-08-27T17:17:28Z</time>
  <course>133.55</course>
  <speed>1.51</speed>
  <fix>3d</fix>
</trkpt>
<trkpt lat="40.0710351" lon="-105.2300055">
  <ele>1583.11</ele>
  <time>2026-08-27T17:17:28Z</time>
  <course>134.35</course>
  <speed>1.4849915824677256</speed>
  <fix>3d</fix>
</trkpt>
<trkpt lat="40.0710372" lon="-105.2300081">
  <ele>1583.0</ele>
  <time>2026-08-27T17:17:28Z</time>
  <course>133.55</course>
  <speed>1.51</speed>
  <fix>3d</fix>
</trkpt>
<trkpt lat="40.0710341" lon="-105.2300042">
  <ele>1583.11</ele>
  <time>2026-08-27T17:17:28Z</time>
  <course>134.35</course>
  <speed>1.4849915824677256</speed>
  <fix>3d</fix>
</trkpt>
<trkpt lat="40.0710353" lon="-105.2300056">
  <ele>1583.0</ele>
  <time>2026-08-27T17:17:28Z</time>
  <course>133.55</course>
  <speed>1.51</speed>
  <fix>3d</fix>
</trkpt>
<trkpt lat="40.071033" lon="-105.2300026">
  <ele>1583.1</ele>
  <time>2026-08-27T17:17:28Z</time>
  <course>134.35</course>
  <speed>1.4849915824677256</speed>
  <fix>3d</fix>
</trkpt>
<trkpt lat="40.0710353" lon="-105.2300056">
  <ele>1583.0</ele>
  <time>2026-08-27T17:17:28Z</time>
  <course>133.55</course>
  <speed>1.51</speed>
  <fix>3d</fix>
</trkpt>
<trkpt lat="40.0710321" lon="-105.2300014">
  <ele>1583.1</ele>
  <time>2026-08-27T17:17:28Z</time>
  <course>134.35</course>
  <speed>1.4849915824677256</speed>
  <fix>3d</fix>
</trkpt>
<trkpt lat="40.0710335" lon="-105.2300029">
  <ele>1583.0</ele>
  <time>2026-08-27T17:17:28Z</time>
  <course>133.55</course>
  <speed>1.51</speed>
  <fix>3d</fix>
</trkpt>
<trkpt lat="40.0710311" lon="-105.2300001">
  <ele>1583.1</ele>
  <time>2026-08-27T17:17:28Z</time>
  <course>134.35</course>
  <speed>1.4849915824677256</speed>
  <fix>3d</fix>
</trkpt>
<trkpt lat="40.0710335" lon="-105.2300029">
  <ele>1583.0</ele>
  <time>2026-08-27T17:17:28Z</time>
  <course>133.55</course>
  <speed>1.51</speed>
  <fix>3d</fix>
</trkpt>
<trkpt lat="40.0710302" lon="-105.2299988">
  <ele>1583.1</ele>
  <time>2026-08-27T17:17:28Z</time>
  <course>134.35</course>
  <speed>1.4921461054467824</speed>
  <fix>3d</fix>
</trkpt>
<trkpt lat="40.0710316" lon="-105.2300004">
  <ele>1583.0</ele>
  <time>2026-08-27T17:17:28Z</time>
  <course>133.55</course>
  <speed>1.51</speed>
  <fix>3d</fix>
</trkpt>
<trkpt lat="40.0710292" lon="-105.2299975">
  <ele>1583.11</ele>
  <time>2026-08-27T17:17:28Z</time>
  <course>134.35</course>
  <speed>1.4921461054467824</speed>
  <fix>3d</fix>
</trkpt>
<trkpt lat="40.0710316" lon="-105.2300004">
  <ele>1583.0</ele>
  <time>2026-08-27T17:17:28Z</time>
  <course>133.55</course>
  <speed>1.51</speed>
  <fix>3d</fix>
</trkpt>
<trkpt lat="40.0710283" lon="-105.2299962">
  <ele>1583.11</ele>
  <time>2026-08-27T17:17:28Z</time>
  <course>134.35</course>
  <speed>1.4921461054467824</speed>
  <fix>3d</fix>
</trkpt>
<trkpt lat="40.0710297" lon="-105.2299979">
  <ele>1583.0</ele>
  <time>2026-08-27T17:17:28Z</time>
  <course>133.55</course>
  <speed>1.51</speed>
  <fix>3d</fix>
</trkpt>
<trkpt lat="40.0710274" lon="-105.2299949">
  <ele>1583.11</ele>
  <time>2026-08-27T17:17:28Z</time>
  <course>134.35</course>
  <speed>1.4921461054467824</speed>
  <fix>3d</fix>
</trkpt>
<trkpt lat="40.0710297" lon="-105.2299979">
  <ele>1583.0</ele>
  <time>2026-08-27T17:17:28Z</time>
  <course>133.55</course>
  <speed>1.51</speed>
  <fix>3d</fix>
</trkpt>
<trkpt lat="40.0710264" lon="-105.2299936">
  <ele>1583.11</ele>
  <time>2026-08-27T17:17:28Z</time>
  <course>134.35</course>
  <speed>1.4921461054467824</speed>
  <fix>3d</fix>
</trkpt>
<trkpt lat="40.0710278" lon="-105.2299952">
  <ele>1583.0</ele>
  <time>2026-08-27T17:17:28Z</time>
  <course>133.55</course>
  <speed>1.52</speed>
  <fix>3d</fix>
</trkpt>
<trkpt lat="40.0710255" lon="-105.2299923">
  <ele>1583.11</ele>
  <time>2026-08-27T17:17:28Z</time>
  <course>134.35</course>
  <speed>1.4921461054467824</speed>
  <fix>3d</fix>
</trkpt>
<trkpt lat="40.0710278" lon="-105.2299952">
  <ele>1583.0</ele>
  <time>2026-08-27T17:17:28Z</time>
  <course>133.55</course>
  <speed>1.52</speed>
  <fix>3d</fix>
</trkpt>
<trkpt lat="40.0710246" lon="-105.229991">
  <ele>1583.11</ele>
  <time>2026-08-27T17:17:28Z</time>
  <course>134.35</course>
  <speed>1.4921461054467824</speed>
  <fix>3d</fix>
</trkpt>
<trkpt lat="40.0710259" lon="-105.2299927">
  <ele>1583.0</ele>
  <time>2026-08-27T17:17:28Z</time>
  <course>133.55</course>
  <speed>1.52</speed>
  <fix>3d</fix>
</trkpt>
<trkpt lat="40.0710236" lon="-105.2299898">
  <ele>1583.11</ele>
  <time>2026-08-27T17:17:28Z</time>
  <course>134.35</course>
  <speed>1.4921461054467824</speed>
  <fix>3d</fix>
</trkpt>
<trkpt lat="40.0710259" lon="-105.2299927">
  <ele>1583.0</ele>
  <time>2026-08-27T17:17:28Z</time>
  <course>133.55</course>
  <speed>1.52</speed>
  <fix>3d</fix>
</trkpt>
<trkpt lat="40.0710229" lon="-105.2299887">
  <ele>1583.11</ele>
  <time>2026-08-27T17:17:28Z</time>
  <course>134.35</course>
  <speed>1.4921461054467824</speed>
  <fix>3d</fix>
</trkpt>
<trkpt lat="40.071024" lon="-105.2299901">
  <ele>1583.0</ele>
  <time>2026-08-27T17:17:28Z</time>
  <course>133.55</course>
  <speed>1.52</speed>
  <fix>3d</fix>
</trkpt>
<trkpt lat="40.0710219" lon="-105.2299874">
  <ele>1583.12</ele>
  <time>2026-08-27T17:17:28Z</time>
  <course>134.63</course>
  <speed>1.4849915824677256</speed>
  <fix>3d</fix>
</trkpt>
<trkpt lat="40.071024" lon="-105.2299901">
  <ele>1583.0</ele>
  <time>2026-08-27T17:17:28Z</time>
  <course>133.55</course>
  <speed>1.52</speed>
  <fix>3d</fix>
</trkpt>
<trkpt lat="40.071021" lon="-105.2299862">
  <ele>1583.12</ele>
  <time>2026-08-27T17:17:28Z</time>
  <course>136.09</course>
  <speed>1.4851935900750448</speed>
  <fix>3d</fix>
</trkpt>
<trkpt lat="40.0710221" lon="-105.2299874">
  <ele>1583.0</ele>
  <time>2026-08-27T17:17:28Z</time>
  <course>134.43</course>
  <speed>1.52</speed>
  <fix>3d</fix>
</trkpt>
<trkpt lat="40.07102" lon="-105.2299849">
  <ele>1583.12</ele>
  <time>2026-08-27T17:17:28Z</time>
  <course>138.63</course>
  <speed>1.488220413782851</speed>
  <fix>3d</fix>
</trkpt>
<trkpt lat="40.0710221" lon="-105.2299874">
  <ele>1583.0</ele>
  <time>2026-08-27T17:17:28Z</time>
  <course>134.43</course>
  <speed>1.52</speed>
  <fix>3d</fix>
</trkpt>
<trkpt lat="40.0710189" lon="-105.2299838">
  <ele>1583.12</ele>
  <time>2026-08-27T17:17:28Z</time>
  <course>142.3</course>
  <speed>1.4761097520171051</speed>
  <fix>3d</fix>
</trkpt>
<trkpt lat="40.0710201" lon="-105.229985">
  <ele>1583.0</ele>
  <time>2026-08-27T17:17:28Z</time>
  <course>138.42</course>
  <speed>1.51</speed>
  <fix>3d</fix>
</trkpt>
<trkpt lat="40.0710178" lon="-105.2299828">
  <ele>1583.12</ele>
  <time>2026-08-27T17:17:28Z</time>
  <course>147.06</course>
  <speed>1.4702720836634284</speed>
  <fix>3d</fix>
</trkpt>
<trkpt lat="40.0710201" lon="-105.229985">
  <ele>1583.0</ele>
  <time>2026-08-27T17:17:28Z</time>
  <course>138.42</course>
  <speed>1.51</speed>
  <fix>3d</fix>
</trkpt>
<trkpt lat="40.0710167" lon="-105.2299819">
  <ele>1583.12</ele>
  <time>2026-08-27T17:17:28Z</time>
  <course>152.59</course>
  <speed>1.4445068362593512</speed>
  <fix>3d</fix>
</trkpt>
<trkpt lat="40.071018" lon="-105.2299829">
  <ele>1583.0</ele>
  <time>2026-08-27T17:17:28Z</time>
  <course>146.66</course>
  <speed>1.49</speed>
  <fix>3d</fix>
</trkpt>
<trkpt lat="40.0710155" lon="-105.2299812">
  <ele>1583.12</ele>
  <time>2026-08-27T17:17:28Z</time>
  <course>158.07</course>
  <speed>1.4150971698084904</speed>
  <fix>3d</fix>
</trkpt>
<trkpt lat="40.071018" lon="-105.2299829">
  <ele>1583.0</ele>
  <time>2026-08-27T17:17:28Z</time>
  <course>146.66</course>
  <speed>1.49</speed>
  <fix>3d</fix>
</trkpt>
<trkpt lat="40.0710142" lon="-105.2299806">
  <ele>1583.12</ele>
  <time>2026-08-27T17:17:28Z</time>
  <course>163.6</course>
  <speed>1.3682105101189657</speed>
  <fix>3d</fix>
</trkpt>
<trkpt lat="40.0710158" lon="-105.2299812">
  <ele>1583.0</ele>
  <time>2026-08-27T17:17:28Z</time>
  <course>157.2</course>
  <speed>1.43</speed>
  <fix>3d</fix>
</trkpt>
<trkpt lat="40.071013" lon="-105.2299803">
  <ele>1583.13</ele>
  <time>2026-08-27T17:17:28Z</time>
  <course>169.09</course>
  <speed>1.3184839779079607</speed>
  <fix>3d</fix>
</trkpt>
<trkpt lat="40.0710158" lon="-105.2299812">
  <ele>1583.0</ele>
  <time>2026-08-27T17:17:28Z</time>
  <course>157.2</course>
  <speed>1.43</speed>
  <fix>3d</fix>
</trkpt>
<trkpt lat="40.0710116" lon="-105.2299801">
  <ele>1583.13</ele>
  <time>2026-08-27T17:17:28Z</time>
  <course>175.66</course>
  <speed>1.251439171514141</speed>
  <fix>3d</fix>
</trkpt>
<trkpt lat="40.0710134" lon="-105.2299802">
  <ele>1583.0</ele>
  <time>2026-08-27T17:17:28Z</time>
  <course>168.1</course>
  <speed>1.34</speed>
  <fix>3d</fix>
</trkpt>
<trkpt lat="40.0710105" lon="-105.22998">
  <ele>1583.13</ele>
  <time>2026-08-27T17:17:28Z</time>
  <course>181.15</course>
  <speed>1.2010412149464313</speed>
  <fix>3d</fix>
</trkpt>
<trkpt lat="40.0710134" lon="-105.2299802">
  <ele>1583.0</ele>
  <time>2026-08-27T17:17:28Z</time>
  <course>168.1</course>
  <speed>1.34</speed>
  <fix>3d</fix>
</trkpt>
<trkpt lat="40.0710095" lon="-105.2299802">
  <ele>1583.13</ele>
  <time>2026-08-27T17:17:28Z</time>
  <course>186.62</course>
  <speed>1.1412712210513327</speed>
  <fix>3d</fix>
</trkpt>
<trkpt lat="40.0710111" lon="-105.2299799">
  <ele>1583.0</ele>
  <time>2026-08-27T17:17:28Z</time>
  <course>179.03</course>
  <speed>1.22</speed>
  <fix>3d</fix>
</trkpt>
<trkpt lat="40.0710085" lon="-105.2299804">
  <ele>1583.12</ele>
  <time>2026-08-27T17:17:28Z</time>
  <course>192.08</course>
  <speed>1.101135777277262</speed>
  <fix>3d</fix>
</trkpt>
<trkpt lat="40.0710111" lon="-105.2299799">
  <ele>1583.0</ele>
  <time>2026-08-27T17:17:28Z</time>
  <course>179.03</course>
  <speed>1.22</speed>
  <fix>3d</fix>
</trkpt>
<trkpt lat="40.0710075" lon="-105.2299808">
  <ele>1583.12</ele>
  <time>2026-08-27T17:17:28Z</time>
  <course>197.44</course>
  <speed>1.0689246933250256</speed>
  <fix>3d</fix>
</trkpt>
<trkpt lat="40.071009" lon="-105.22998">
  <ele>1583.0</ele>
  <time>2026-08-27T17:17:28Z</time>
  <course>190.03</course>
  <speed>1.12</speed>
  <fix>3d</fix>
</trkpt>
<trkpt lat="40.0710066" lon="-105.2299811">
  <ele>1583.12</ele>
  <time>2026-08-27T17:17:28Z</time>
  <course>201.97</course>
  <speed>1.0519030373565805</speed>
  <fix>3d</fix>
</trkpt>
<trkpt lat="40.071009" lon="-105.22998">
  <ele>1583.0</ele>
  <time>2026-08-27T17:17:28Z</time>
  <course>190.03</course>
  <speed>1.12</speed>
  <fix>3d</fix>
</trkpt>
<trkpt lat="40.0710058" lon="-105.2299816">
  <ele>1583.12</ele>
  <time>2026-08-27T17:17:28Z</time>
  <course>205.76</course>
  <speed>1.0423531071570709</speed>
  <fix>3d</fix>
</trkpt>
<trkpt lat="40.0710071" lon="-105.2299807">
  <ele>1583.0</ele>
  <time>2026-08-27T17:17:28Z</time>
  <course>199.94</course>
  <speed>1.07</speed>
  <fix>3d</fix>
</trkpt>
<trkpt lat="40.071005" lon="-105.2299822">
  <ele>1583.12</ele>
  <time>2026-08-27T17:17:28Z</time>
  <course>208.96</course>
  <speed>1.0410091258005378</speed>
  <fix>3d</fix>
</trkpt>
<trkpt lat="40.0710071" lon="-105.2299807">
  <ele>1583.0</ele>
  <time>2026-08-27T17:17:28Z</time>
  <course>199.94</course>
  <speed>1.07</speed>
  <fix>3d</fix>
</trkpt>
<trkpt lat="40.0710042" lon="-105.2299829">
  <ele>1583.12</ele>
  <time>2026-08-27T17:17:28Z</time>
  <course>211.62</course>
  <speed>1.0511898020814319</speed>
  <fix>3d</fix>
</trkpt>
<trkpt lat="40.0710053" lon="-105.2299817">
  <ele>1583.0</ele>
  <time>2026-08-27T17:17:28Z</time>
  <course>207.37</course>
  <speed>1.05</speed>
  <fix>3d</fix>
</trkpt>
<trkpt lat="40.0710034" lon="-105.2299835">
  <ele>1583.12</ele>
  <time>2026-08-27T17:17:28Z</time>
  <course>213.84</course>
  <speed>1.0520931517693668</speed>
  <fix>3d</fix>
</trkpt>
<trkpt lat="40.0710053" lon="-105.2299817">
  <ele>1583.0</ele>
  <time>2026-08-27T17:17:28Z</time>
  <course>207.37</course>
  <speed>1.05</speed>
  <fix>3d</fix>
</trkpt>
<trkpt lat="40.0710026" lon="-105.2299843">
  <ele>1583.12</ele>
  <time>2026-08-27T17:17:28Z</time>
  <course>215.59</course>
  <speed>1.0621205204683695</speed>
  <fix>3d</fix>
</trkpt>
<trkpt lat="40.0710037" lon="-105.2299829">
  <ele>1583.0</ele>
  <time>2026-08-27T17:17:28Z</time>
  <course>212.5</course>
  <speed>1.06</speed>
  <fix>3d</fix>
</trkpt>
<trkpt lat="40.071002" lon="-105.2299848">
  <ele>1583.12</ele>
  <time>2026-08-27T17:17:28Z</time>
  <course>216.22</course>
  <speed>1.0682696288858913</speed>
  <fix>3d</fix>
</trkpt>
<trkpt lat="40.0710037" lon="-105.2299829">
  <ele>1583.0</ele>
  <time>2026-08-27T17:17:28Z</time>
  <course>212.5</course>
  <speed>1.06</speed>
  <fix>3d</fix>
</trkpt>
<trkpt lat="40.0710013" lon="-105.2299856">
  <ele>1583.12</ele>
  <time>2026-08-27T17:17:28Z</time>
  <course>216.02</course>
  <speed>1.0761505470890214</speed>
  <fix>3d</fix>
</trkpt>
<trkpt lat="40.0710021" lon="-105.2299843">
  <ele>1583.0</ele>
  <time>2026-08-27T17:17:28Z</time>
  <course>214.93</course>
  <speed>1.07</speed>
  <fix>3d</fix>
</trkpt>
<trkpt lat="40.0710005" lon="-105.2299863">
  <ele>1583.12</ele>
  <time>2026-08-27T17:17:28Z</time>
  <course>214.72</course>
  <speed>1.0800462953040486</speed>
  <fix>3d</fix>
</trkpt>
<trkpt lat="40.0710021" lon="-105.2299843">
  <ele>1583.0</ele>
  <time>2026-08-27T17:17:28Z</time>
  <course>214.93</course>
  <speed>1.07</speed>
  <fix>3d</fix>
</trkpt>
<trkpt lat="40.0709997" lon="-105.229987">
  <ele>1583.12</ele>
  <time>2026-08-27T17:17:28Z</time>
  <course>212.34</course>
  <speed>1.0789810007595129</speed>
  <fix>3d</fix>
</trkpt>
<trkpt lat="40.0710004" lon="-105.2299858">
  <ele>1583.0</ele>
  <time>2026-08-27T17:17:28Z</time>
  <course>213.41</course>
  <speed>1.08</speed>
  <fix>3d</fix>
</trkpt>
<trkpt lat="40.0709988" lon="-105.2299876">
  <ele>1583.12</ele>
  <time>2026-08-27T17:17:28Z</time>
  <course>208.86</course>
  <speed>1.0804628637764464</speed>
  <fix>3d</fix>
</trkpt>
<trkpt lat="40.0710004" lon="-105.2299858">
  <ele>1583.0</ele>
  <time>2026-08-27T17:17:28Z</time>
  <course>213.41</course>
  <speed>1.08</speed>
  <fix>3d</fix>
</trkpt>
<trkpt lat="40.0709979" lon="-105.2299882">
  <ele>1583.12</ele>
  <time>2026-08-27T17:17:28Z</time>
  <course>204.33</course>
  <speed>1.0778682665335315</speed>
  <fix>3d</fix>
</trkpt>
<trkpt lat="40.0709988" lon="-105.229987">
  <ele>1583.0</ele>
  <time>2026-08-27T17:17:28Z</time>
  <course>207.55</course>
  <speed>1.08</speed>
  <fix>3d</fix>
</trkpt>
<trkpt lat="40.070997" lon="-105.2299886">
  <ele>1583.12</ele>
  <time>2026-08-27T17:17:28Z</time>
  <course>199.41</course>
  <speed>1.056882207249228</speed>
  <fix>3d</fix>
</trkpt>
<trkpt lat="40.0709988" lon="-105.229987">
  <ele>1583.0</ele>
  <time>2026-08-27T17:17:28Z</time>
  <course>207.55</course>
  <speed>1.08</speed>
  <fix>3d</fix>
</trkpt>
<trkpt lat="40.0709961" lon="-105.229989">
  <ele>1583.12</ele>
  <time>2026-08-27T17:17:28Z</time>
  <course>194.35</course>
  <speed>1.0288342918079665</speed>
  <fix>3d</fix>
</trkpt>
<trkpt lat="40.0709971" lon="-105.229988">
  <ele>1583.0</ele>
  <time>2026-08-27T17:17:28Z</time>
  <course>198.67</course>
  <speed>1.06</speed>
  <fix>3d</fix>
</trkpt>
<trkpt lat="40.0709951" lon="-105.2299892">
  <ele>1583.12</ele>
  <time>2026-08-27T17:17:28Z</time>
  <course>189.21</course>
  <speed>0.996393496566492</speed>
  <fix>3d</fix>
</trkpt>
<trkpt lat="40.0709971" lon="-105.229988">
  <ele>1583.0</ele>
  <time>2026-08-27T17:17:28Z</time>
  <course>198.67</course>
  <speed>1.06</speed>
  <fix>3d</fix>
</trkpt>
<trkpt lat="40.0709943" lon="-105.2299893">
  <ele>1583.12</ele>
  <time>2026-08-27T17:17:28Z</time>
  <course>184.1</course>
  <speed>0.9533624704172071</speed>
  <fix>3d</fix>
</trkpt>
<trkpt lat="40.0709952" lon="-105.2299886">
  <ele>1583.0</ele>
  <time>2026-08-27T17:17:28Z</time>
  <course>188.67</course>
  <speed>1.0</speed>
  <fix>3d</fix>
</trkpt>
<trkpt lat="40.0709932" lon="-105.2299892">
  <ele>1583.12</ele>
  <time>2026-08-27T17:17:28Z</time>
  <course>178.15</course>
  <speed>0.9000555538409837</speed>
  <fix>3d</fix>
</trkpt>
<trkpt lat="40.0709952" lon="-105.2299886">
  <ele>1583.0</ele>
  <time>2026-08-27T17:17:28Z</time>
  <course>188.67</course>
  <speed>1.0</speed>
  <fix>3d</fix>
</trkpt>
<trkpt lat="40.0709924" lon="-105.2299891">
  <ele>1583.11</ele>
  <time>2026-08-27T17:17:28Z</time>
  <course>173.39</course>
  <speed>0.8646964785403025</speed>
  <fix>3d</fix>
</trkpt>
<trkpt lat="40.0709935" lon="-105.2299888">
  <ele>1583.0</ele>
  <time>2026-08-27T17:17:28Z</time>
  <course>178.68</course>
  <speed>0.92</speed>
  <fix>3d</fix>
</trkpt>
<trkpt lat="40.0709916" lon="-105.2299889">
  <ele>1583.11</ele>
  <time>2026-08-27T17:17:28Z</time>
  <course>168.79</course>
  <speed>0.833606621854697</speed>
  <fix>3d</fix>
</trkpt>
<trkpt lat="40.0709935" lon="-105.2299888">
  <ele>1583.0</ele>
  <time>2026-08-27T17:17:28Z</time>
  <course>178.68</course>
  <speed>0.92</speed>
  <fix>3d</fix>
</trkpt>
<trkpt lat="40.0709909" lon="-105.2299886">
  <ele>1583.11</ele>
  <time>2026-08-27T17:17:28Z</time>
  <course>164.31</course>
  <speed>0.8077747210701756</speed>
  <fix>3d</fix>
</trkpt>
<trkpt lat="40.0709919" lon="-105.2299886">
  <ele>1583.0</ele>
  <time>2026-08-27T17:17:28Z</time>
  <course>169.16</course>
  <speed>0.86</speed>
  <fix>3d</fix>
</trkpt>
<trkpt lat="40.0709902" lon="-105.2299883">
  <ele>1583.11</ele>
  <time>2026-08-27T17:17:28Z</time>
  <course>159.92</course>
  <speed>0.8065358020571685</speed>
  <fix>3d</fix>
</trkpt>
<trkpt lat="40.0709919" lon="-105.2299886">
  <ele>1583.0</ele>
  <time>2026-08-27T17:17:28Z</time>
  <course>169.16</course>
  <speed>0.86</speed>
  <fix>3d</fix>
</trkpt>
<trkpt lat="40.0709895" lon="-105.2299879">
  <ele>1583.11</ele>
  <time>2026-08-27T17:17:28Z</time>
  <course>155.6</course>
  <speed>0.8102468759581859</speed>
  <fix>3d</fix>
</trkpt>
<trkpt lat="40.0709905" lon="-105.2299881">
  <ele>1583.0</ele>
  <time>2026-08-27T17:17:28Z</time>
  <course>160.09</course>
  <speed>0.83</speed>
  <fix>3d</fix>
</trkpt>
<trkpt lat="40.0709888" lon="-105.2299875">
  <ele>1583.11</ele>
  <time>2026-08-27T17:17:28Z</time>
  <course>151.29</course>
  <speed>0.8236504112789601</speed>
  <fix>3d</fix>
</trkpt>
<trkpt lat="40.0709905" lon="-105.2299881">
  <ele>1583.0</ele>
  <time>2026-08-27T17:17:28Z</time>
  <course>160.09</course>
  <speed>0.83</speed>
  <fix>3d</fix>
</trkpt>
<trkpt lat="40.0709882" lon="-105.2299869">
  <ele>1583.11</ele>
  <time>2026-08-27T17:17:28Z</time>
  <course>147.01</course>
  <speed>0.8376156636548769</speed>
  <fix>3d</fix>
</trkpt>
<trkpt lat="40.0709891" lon="-105.2299874">
  <ele>1583.0</ele>
  <time>2026-08-27T17:17:28Z</time>
  <course>151.31</course>
  <speed>0.83</speed>
  <fix>3d</fix>
</trkpt>
<trkpt lat="40.0709876" lon="-105.2299863">
  <ele>1583.1</ele>
  <time>2026-08-27T17:17:28Z</time>
  <course>142.75</course>
  <speed>0.8481155581640983</speed>
  <fix>3d</fix>
</trkpt>
<trkpt lat="40.0709891" lon="-105.2299874">
  <ele>1583.0</ele>
  <time>2026-08-27T17:17:28Z</time>
  <course>151.31</course>
  <speed>0.83</speed>
  <fix>3d</fix>
</trkpt>
<trkpt lat="40.070987" lon="-105.2299856">
  <ele>1583.1</ele>
  <time>2026-08-27T17:17:28Z</time>
  <course>138.54</course>
  <speed>0.8637129152675673</speed>
  <fix>3d</fix>
</trkpt>
<trkpt lat="40.0709878" lon="-105.2299863">
  <ele>1583.0</ele>
  <time>2026-08-27T17:17:28Z</time>
  <course>142.74</course>
  <speed>0.86</speed>
  <fix>3d</fix>
</trkpt>
<trkpt lat="40.0709864" lon="-105.2299849">
  <ele>1583.1</ele>
  <time>2026-08-27T17:17:28Z</time>
  <course>134.43</course>
  <speed>0.87</speed>
  <fix>3d</fix>
</trkpt>
<trkpt lat="40.0709878" lon="-105.2299863">
  <ele>1583.0</ele>
  <time>2026-08-27T17:17:28Z</time>
  <course>142.74</course>
  <speed>0.86</speed>
  <fix>3d</fix>
</trkpt>
<trkpt lat="40.070986" lon="-105.2299842">
  <ele>1583.1</ele>
  <time>2026-08-27T17:17:28Z</time>
  <course>131.22</course>
  <speed>0.8655634003352961</speed>
  <fix>3d</fix>
</trkpt>
<trkpt lat="40.0709866" lon="-105.2299849">
  <ele>1583.0</ele>
  <time>2026-08-27T17:17:28Z</time>
  <course>134.5</course>
  <speed>0.88</speed>
  <fix>3d</fix>
</trkpt>
<trkpt lat="40.0709855" lon="-105.2299834">
  <ele>1583.1</ele>
  <time>2026-08-27T17:17:28Z</time>
  <course>127.33</course>
  <speed>0.880056816347672</speed>
  <fix>3d</fix>
</trkpt>
<trkpt lat="40.0709866" lon="-105.2299849">
  <ele>1583.0</ele>
  <time>2026-08-27T17:17:28Z</time>
  <course>134.5</course>
  <speed>0.88</speed>
  <fix>3d</fix>
</trkpt>
<trkpt lat="40.0709851" lon="-105.2299825">
  <ele>1583.1</ele>
  <time>2026-08-27T17:17:28Z</time>
  <course>123.53</course>
  <speed>0.9126883367283708</speed>
  <fix>3d</fix>
</trkpt>
<trkpt lat="40.0709856" lon="-105.2299833">
  <ele>1583.0</ele>
  <time>2026-08-27T17:17:28Z</time>
  <course>126.51</course>
  <speed>0.9</speed>
  <fix>3d</fix>
</trkpt>
<trkpt lat="40.0709846" lon="-105.2299815">
  <ele>1583.11</ele>
  <time>2026-08-27T17:17:28Z</time>
  <course>119.83</course>
  <speed>0.9529428104561154</speed>
  <fix>3d</fix>
</trkpt>
<trkpt lat="40.0709856" lon="-105.2299833">
  <ele>1583.0</ele>
  <time>2026-08-27T17:17:28Z</time>
  <course>126.51</course>
  <speed>0.9</speed>
  <fix>3d</fix>
</trkpt>
<trkpt lat="40.0709842" lon="-105.2299804">
  <ele>1583.11</ele>
  <time>2026-08-27T17:17:28Z</time>
  <course>116.15</course>
  <speed>1.0022474744293448</speed>
  <fix>3d</fix>
</trkpt>
<trkpt lat="40.0709846" lon="-105.2299814">
  <ele>1583.0</ele>
  <time>2026-08-27T17:17:28Z</time>
  <course>118.88</course>
  <speed>0.97</speed>
  <fix>3d</fix>
</trkpt>
<trkpt lat="40.0709839" lon="-105.2299793">
  <ele>1583.11</ele>
  <time>2026-08-27T17:17:28Z</time>
  <course>112.61</course>
  <speed>1.0604244433244643</speed>
  <fix>3d</fix>
</trkpt>
<trkpt lat="40.0709846" lon="-105.2299814">
  <ele>1583.0</ele>
  <time>2026-08-27T17:17:28Z</time>
  <course>118.88</course>
  <speed>0.97</speed>
  <fix>3d</fix>
</trkpt>
<trkpt lat="40.0709835" lon="-105.229978">
  <ele>1583.11</ele>
  <time>2026-08-27T17:17:28Z</time>
  <course>109.29</course>
  <speed>1.1227199116431488</speed>
  <fix>3d</fix>
</trkpt>
<trkpt lat="40.0709839" lon="-105.2299793">
  <ele>1583.0</ele>
  <time>2026-08-27T17:17:28Z</time>
  <course>111.71</course>
  <speed>1.07</speed>
  <fix>3d</fix>
</trkpt>
<trkpt lat="40.0709832" lon="-105.2299766">
  <ele>1583.12</ele>
  <time>2026-08-27T17:17:28Z</time>
  <course>106.14</course>
  <speed>1.1884864324004711</speed>
  <fix>3d</fix>
</trkpt>
<trkpt lat="40.0709839" lon="-105.2299793">
  <ele>1583.0</ele>
  <time>2026-08-27T17:17:28Z</time>
  <course>111.71</course>
  <speed>1.07</speed>
  <fix>3d</fix>
</trkpt>
<trkpt lat="40.070983" lon="-105.2299752">
  <ele>1583.12</ele>
  <time>2026-08-27T17:17:28Z</time>
  <course>103.22</course>
  <speed>1.2669648771769484</speed>
  <fix>3d</fix>
</trkpt>
<trkpt lat="40.0709832" lon="-105.2299768">
  <ele>1583.0</ele>
  <time>2026-08-27T17:17:28Z</time>
  <course>105.26</course>
  <speed>1.2</speed>
  <fix>3d</fix>
</trkpt>
<trkpt lat="40.0709827" lon="-105.2299736">
  <ele>1583.13</ele>
  <time>2026-08-27T17:17:28Z</time>
  <course>100.49</course>
  <speed>1.3366001645967278</speed>
  <fix>3d</fix>
</trkpt>
<trkpt lat="40.0709832" lon="-105.2299768">
  <ele>1583.0</ele>
  <time>2026-08-27T17:17:28Z</time>
  <course>105.26</course>
  <speed>1.2</speed>
  <fix>3d</fix>
</trkpt>
<trkpt lat="40.0709825" lon="-105.2299717">
  <ele>1583.13</ele>
  <time>2026-08-27T17:17:28Z</time>
  <course>97.47</course>
  <speed>1.438923208513922</speed>
  <fix>3d</fix>
</trkpt>
<trkpt lat="40.0709827" lon="-105.2299739">
  <ele>1583.0</ele>
  <time>2026-08-27T17:17:28Z</time>
  <course>99.63</course>
  <speed>1.34</speed>
  <fix>3d</fix>
</trkpt>
<trkpt lat="40.0709824" lon="-105.2299699">
  <ele>1583.13</ele>
  <time>2026-08-27T17:17:28Z</time>
  <course>95.16</course>
  <speed>1.5133076356114774</speed>
  <fix>3d</fix>
</trkpt>
<trkpt lat="40.0709827" lon="-105.2299739">
  <ele>1583.0</ele>
  <time>2026-08-27T17:17:28Z</time>
  <course>99.63</course>
  <speed>1.34</speed>
  <fix>3d</fix>
</trkpt>
<trkpt lat="40.0709823" lon="-105.229968">
  <ele>1583.13</ele>
  <time>2026-08-27T17:17:28Z</time>
  <course>93.02</course>
  <speed>1.5807909412695913</speed>
  <fix>3d</fix>
</trkpt>
<trkpt lat="40.0709825" lon="-105.2299705">
  <ele>1583.0</ele>
  <time>2026-08-27T17:17:28Z</time>
  <course>94.77</course>
  <speed>1.49</speed>
  <fix>3d</fix>
</trkpt>
<trkpt lat="40.0709823" lon="-105.2299661">
  <ele>1583.14</ele>
  <time>2026-08-27T17:17:28Z</time>
  <course>91.05</course>
  <speed>1.65</speed>
  <fix>3d</fix>
</trkpt>
<trkpt lat="40.0709825" lon="-105.2299705">
  <ele>1583.0</ele>
  <time>2026-08-27T17:17:28Z</time>
  <course>94.77</course>
  <speed>1.49</speed>
  <fix>3d</fix>
</trkpt>
<trkpt lat="40.0709823" lon="-105.2299641">
  <ele>1583.14</ele>
  <time>2026-08-27T17:17:28Z</time>
  <course>89.27</course>
  <speed>1.710730837975396</speed>
  <fix>3d</fix>
</trkpt>
<trkpt lat="40.0709823" lon="-105.2299668">
  <ele>1583.0</ele>
  <time>2026-08-27T17:17:28Z</time>
  <course>90.62</course>
  <speed>1.63</speed>
  <fix>3d</fix>
</trkpt>
<trkpt lat="40.0709824" lon="-105.229962">
  <ele>1583.14</ele>
  <time>2026-08-27T17:17:28Z</time>
  <course>87.66</course>
  <speed>1.7728226081590903</speed>
  <fix>3d</fix>
</trkpt>
<trkpt lat="40.0709823" lon="-105.2299668">
  <ele>1583.0</ele>
  <time>2026-08-27T17:17:28Z</time>
  <course>90.62</course>
  <speed>1.63</speed>
  <fix>3d</fix>
</trkpt>
<trkpt lat="40.0709824" lon="-105.2299599">
  <ele>1583.14</ele>
  <time>2026-08-27T17:17:28Z</time>
  <course>86.22</course>
  <speed>1.8261708572858126</speed>
  <fix>3d</fix>
</trkpt>
<trkpt lat="40.0709823" lon="-105.2299629">
  <ele>1583.0</ele>
  <time>2026-08-27T17:17:28Z</time>
  <course>87.17</course>
  <speed>1.75</speed>
  <fix>3d</fix>
</trkpt>
<trkpt lat="40.0709826" lon="-105.2299577">
  <ele>1583.14</ele>
  <time>2026-08-27T17:17:28Z</time>
  <course>84.94</course>
  <speed>1.8696791168540126</speed>
  <fix>3d</fix>
</trkpt>
<trkpt lat="40.0709823" lon="-105.2299629">
  <ele>1583.0</ele>
  <time>2026-08-27T17:17:28Z</time>
  <course>87.17</course>
  <speed>1.75</speed>
  <fix>3d</fix>
</trkpt>
<trkpt lat="40.0709828" lon="-105.2299555">
  <ele>1583.13</ele>
  <time>2026-08-27T17:17:28Z</time>
  <course>83.8</course>
  <speed>1.9138704240360684</speed>
  <fix>3d</fix>
</trkpt>
<trkpt lat="40.0709825" lon="-105.2299587">
  <ele>1583.0</ele>
  <time>2026-08-27T17:17:28Z</time>
  <course>84.4</course>
  <speed>1.85</speed>
  <fix>3d</fix>
</trkpt>
<trkpt lat="40.070983" lon="-105.2299533">
  <ele>1583.13</ele>
  <time>2026-08-27T17:17:28Z</time>
  <course>82.81</course>
  <speed>1.9487944991712183</speed>
  <fix>3d</fix>
</trkpt>
<trkpt lat="40.0709825" lon="-105.2299587">
  <ele>1583.0</ele>
  <time>2026-08-27T17:17:28Z</time>
  <course>84.4</course>
  <speed>1.85</speed>
  <fix>3d</fix>
</trkpt>
<trkpt lat="40.0709833" lon="-105.229951">
  <ele>1583.13</ele>
  <time>2026-08-27T17:17:28Z</time>
  <course>81.96</course>
  <speed>1.982826265712657</speed>
  <fix>3d</fix>
</trkpt>
<trkpt lat="40.0709829" lon="-105.2299542">
  <ele>1583.0</ele>
  <time>2026-08-27T17:17:28Z</time>
  <course>82.23</course>
  <speed>1.94</speed>
  <fix>3d</fix>
</trkpt>
<trkpt lat="40.0709835" lon="-105.2299491">
  <ele>1583.13</ele>
  <time>2026-08-27T17:17:28Z</time>
  <course>81.36</course>
  <speed>2.0073116349984126</speed>
  <fix>3d</fix>
</trkpt>
<trkpt lat="40.0709829" lon="-105.2299542">
  <ele>1583.0</ele>
  <time>2026-08-27T17:17:28Z</time>
  <course>82.23</course>
  <speed>1.94</speed>
  <fix>3d</fix>
</trkpt>
<trkpt lat="40.0709838" lon="-105.2299468">
  <ele>1583.13</ele>
  <time>2026-08-27T17:17:28Z</time>
  <course>80.73</course>
  <speed>2.040245083317198</speed>
  <fix>3d</fix>
</trkpt>
<trkpt lat="40.0709834" lon="-105.2299496">
  <ele>1583.0</ele>
  <time>2026-08-27T17:17:28Z</time>
  <course>80.59</course>
  <speed>2.01</speed>
  <fix>3d</fix>
</trkpt>
<trkpt lat="40.0709841" lon="-105.2299444">
  <ele>1583.13</ele>
  <time>2026-08-27T17:17:28Z</time>
  <course>80.21</course>
  <speed>2.065260274154326</speed>
  <fix>3d</fix>
</trkpt>
<trkpt lat="40.0709834" lon="-105.2299496">
  <ele>1583.0</ele>
  <time>2026-08-27T17:17:28Z</time>
  <course>80.59</course>
  <speed>2.01</speed>
  <fix>3d</fix>
</trkpt>
<trkpt lat="40.0709845" lon="-105.229942">
  <ele>1583.13</ele>
  <time>2026-08-27T17:17:28Z</time>
  <course>79.81</course>
  <speed>2.0867678356731494</speed>
  <fix>3d</fix>
</trkpt>
<trkpt lat="40.0709841" lon="-105.2299449">
  <ele>1583.0</ele>
  <time>2026-08-27T17:17:28Z</time>
  <course>79.44</course>
  <speed>2.06</speed>
  <fix>3d</fix>
</trkpt>
<trkpt lat="40.0709849" lon="-105.2299395">
  <ele>1583.13</ele>
  <time>2026-08-27T17:17:28Z</time>
  <course>79.51</course>
  <speed>2.110213259365034</speed>
  <fix>3d</fix>
</trkpt>
<trkpt lat="40.0709841" lon="-105.2299449">
  <ele>1583.0</ele>
  <time>2026-08-27T17:17:28Z</time>
  <course>79.44</course>
  <speed>2.06</speed>
  <fix>3d</fix>
</trkpt>
<trkpt lat="40.0709852" lon="-105.2299371">
  <ele>1583.13</ele>
  <time>2026-08-27T17:17:28Z</time>
  <course>79.3</course>
  <speed>2.1219802072592477</speed>
  <fix>3d</fix>
</trkpt>
<trkpt lat="40.0709848" lon="-105.2299401">
  <ele>1583.0</ele>
  <time>2026-08-27T17:17:28Z</time>
  <course>78.72</course>
  <speed>2.11</speed>
  <fix>3d</fix>
</trkpt>
<trkpt lat="40.0709856" lon="-105.2299346">
  <ele>1583.14</ele>
  <time>2026-08-27T17:17:28Z</time>
  <course>79.18</course>
  <speed>2.143571785595248</speed>
  <fix>3d</fix>
</trkpt>
<trkpt lat="40.0709848" lon="-105.2299401">
  <ele>1583.0</ele>
  <time>2026-08-27T17:17:28Z</time>
  <course>78.72</course>
  <speed>2.11</speed>
  <fix>3d</fix>
</trkpt>
<trkpt lat="40.070986" lon="-105.2299321">
  <ele>1583.13</ele>
  <time>2026-08-27T17:17:28Z</time>
  <course>79.15</course>
  <speed>2.153369452741447</speed>
  <fix>3d</fix>
</trkpt>
<trkpt lat="40.0709856" lon="-105.2299352">
  <ele>1583.0</ele>
  <time>2026-08-27T17:17:28Z</time>
  <course>78.39</course>
  <speed>2.14</speed>
  <fix>3d</fix>
</trkpt>
<trkpt lat="40.0709864" lon="-105.2299295">
  <ele>1583.14</ele>
  <time>2026-08-27T17:17:28Z</time>
  <course>79.18</course>
  <speed>2.1631689716709603</speed>
  <fix>3d</fix>
</trkpt>
<trkpt lat="40.0709856" lon="-105.2299352">
  <ele>1583.0</ele>
  <time>2026-08-27T17:17:28Z</time>
  <course>78.39</course>
  <speed>2.14</speed>
  <fix>3d</fix>
</trkpt>
<trkpt lat="40.0709869" lon="-105.2299265">
  <ele>1583.14</ele>
  <time>2026-08-27T17:17:28Z</time>
  <course>79.33</course>
  <speed>2.1827734651126764</speed>
  <fix>3d</fix>
</trkpt>
<trkpt lat="40.0709863" lon="-105.2299303">
  <ele>1583.0</ele>
  <time>2026-08-27T17:17:28Z</time>
  <course>78.39</course>
  <speed>2.17</speed>
  <fix>3d</fix>
</trkpt>
<trkpt lat="40.0709873" lon="-105.229924">
  <ele>1583.14</ele>
  <time>2026-08-27T17:17:28Z</time>
  <course>79.53</course>
  <speed>2.1906391761310213</speed>
  <fix>3d</fix>
</trkpt>
<trkpt lat="40.0709863" lon="-105.2299303">
  <ele>1583.0</ele>
  <time>2026-08-27T17:17:28Z</time>
  <course>78.39</course>
  <speed>2.17</speed>
  <fix>3d</fix>
</trkpt>
<trkpt lat="40.0709877" lon="-105.2299214">
  <ele>1583.15</ele>
  <time>2026-08-27T17:17:28Z</time>
  <course>79.79</course>
  <speed>2.198567715582124</speed>
  <fix>3d</fix>
</trkpt>
<trkpt lat="40.0709872" lon="-105.2299252">
  <ele>1583.0</ele>
  <time>2026-08-27T17:17:28Z</time>
  <course>78.68</course>
  <speed>2.19</speed>
  <fix>3d</fix>
</trkpt>
<trkpt lat="40.070988" lon="-105.2299189">
  <ele>1583.15</ele>
  <time>2026-08-27T17:17:28Z</time>
  <course>80.2</course>
  <speed>2.206558406206371</speed>
  <fix>3d</fix>
</trkpt>
<trkpt lat="40.0709872" lon="-105.2299252">
  <ele>1583.0</ele>
  <time>2026-08-27T17:17:28Z</time>
  <course>78.68</course>
  <speed>2.19</speed>
  <fix>3d</fix>
</trkpt>
<trkpt lat="40.0709884" lon="-105.2299163">
  <ele>1583.14</ele>
  <time>2026-08-27T17:17:28Z</time>
  <course>81.32</course>
  <speed>2.2095248357961492</speed>
  <fix>3d</fix>
</trkpt>
<trkpt lat="40.0709879" lon="-105.2299201">
  <ele>1583.0</ele>
  <time>2026-08-27T17:17:28Z</time>
  <course>79.55</course>
  <speed>2.21</speed>
  <fix>3d</fix>
</trkpt>
<trkpt lat="40.0709887" lon="-105.2299137">
  <ele>1583.14</ele>
  <time>2026-08-27T17:17:28Z</time>
  <course>83.41</course>
  <speed>2.207826985975124</speed>
  <fix>3d</fix>
</trkpt>
<trkpt lat="40.0709879" lon="-105.2299201">
  <ele>1583.0</ele>
  <time>2026-08-27T17:17:28Z</time>
  <course>79.55</course>
  <speed>2.21</speed>
  <fix>3d</fix>
</trkpt>
<trkpt lat="40.0709889" lon="-105.2299111">
  <ele>1583.14</ele>
  <time>2026-08-27T17:17:29Z</time>
  <course>86.6</course>
  <speed>2.2150846484954023</speed>
  <fix>3d</fix>
</trkpt>
<trkpt lat="40.0709885" lon="-105.2299149">
  <ele>1583.0</ele>
  <time>2026-08-27T17:17:29Z</time>
  <course>82.64</course>
  <speed>2.22</speed>
  <fix>3d</fix>
</trkpt>
<trkpt lat="40.0709889" lon="-105.2299085">
  <ele>1583.14</ele>
  <time>2026-08-27T17:17:29Z</time>
  <course>90.9</course>
  <speed>2.210022624318584</speed>
  <fix>3d</fix>
</trkpt>
<trkpt lat="40.0709885" lon="-105.2299149">
  <ele>1583.0</ele>
  <time>2026-08-27T17:17:29Z</time>
  <course>82.64</course>
  <speed>2.22</speed>
  <fix>3d</fix>
</trkpt>
<trkpt lat="40.0709888" lon="-105.2299059">
  <ele>1583.14</ele>
  <time>2026-08-27T17:17:29Z</time>
  <course>96.31</course>
  <speed>2.201022489662475</speed>
  <fix>3d</fix>
</trkpt>
<trkpt lat="40.0709888" lon="-105.2299097">
  <ele>1583.0</ele>
  <time>2026-08-27T17:17:29Z</time>
  <course>89.73</course>
  <speed>2.22</speed>
  <fix>3d</fix>
</trkpt>
<trkpt lat="40.0709885" lon="-105.2299033">
  <ele>1583.13</ele>
  <time>2026-08-27T17:17:29Z</time>
  <course>102.64</course>
  <speed>2.188880992653552</speed>
  <fix>3d</fix>
</trkpt>
<trkpt lat="40.0709888" lon="-105.2299097">
  <ele>1583.0</ele>
  <time>2026-08-27T17:17:29Z</time>
  <course>89.73</course>
  <speed>2.22</speed>
  <fix>3d</fix>
</trkpt>
<trkpt lat="40.070988" lon="-105.2299009">
  <ele>1583.13</ele>
  <time>2026-08-27T17:17:29Z</time>
  <course>108.13</course>
  <speed>2.1631458573105977</speed>
  <fix>3d</fix>
</trkpt>
<trkpt lat="40.0709885" lon="-105.2299045">
  <ele>1583.0</ele>
  <time>2026-08-27T17:17:29Z</time>
  <course>100.32</course>
  <speed>2.2</speed>
  <fix>3d</fix>
</trkpt>
<trkpt lat="40.0709874" lon="-105.2298985">
  <ele>1583.13</ele>
  <time>2026-08-27T17:17:29Z</time>
  <course>112.74</course>
  <speed>2.133846292496252</speed>
  <fix>3d</fix>
</trkpt>
<trkpt lat="40.0709885" lon="-105.2299045">
  <ele>1583.0</ele>
  <time>2026-08-27T17:17:29Z</time>
  <course>100.32</course>
  <speed>2.2</speed>
  <fix>3d</fix>
</trkpt>
<trkpt lat="40.0709867" lon="-105.2298967">
  <ele>1583.13</ele>
  <time>2026-08-27T17:17:29Z</time>
  <course>115.87</course>
  <speed>2.1110187114282053</speed>
  <fix>3d</fix>
</trkpt>
<trkpt lat="40.0709874" lon="-105.2298996">
  <ele>1583.0</ele>
  <time>2026-08-27T17:17:29Z</time>
  <course>110.64</course>
  <speed>2.17</speed>
  <fix>3d</fix>
</trkpt>
<trkpt lat="40.0709858" lon="-105.2298945">
  <ele>1583.13</ele>
  <time>2026-08-27T17:17:29Z</time>
  <course>119.19</course>
  <speed>2.086336502101231</speed>
  <fix>3d</fix>
</trkpt>
<trkpt lat="40.0709874" lon="-105.2298996">
  <ele>1583.0</ele>
  <time>2026-08-27T17:17:29Z</time>
  <course>110.64</course>
  <speed>2.17</speed>
  <fix>3d</fix>
</trkpt>
<trkpt lat="40.0709848" lon="-105.2298924">
  <ele>1583.13</ele>
  <time>2026-08-27T17:17:29Z</time>
  <course>121.96</course>
  <speed>2.0670026608594387</speed>
  <fix>3d</fix>
</trkpt>
<trkpt lat="40.0709858" lon="-105.229895">
  <ele>1583.0</ele>
  <time>2026-08-27T17:17:29Z</time>
  <course>118.05</course>
  <speed>2.13</speed>
  <fix>3d</fix>
</trkpt>
<trkpt lat="40.0709838" lon="-105.2298904">
  <ele>1583.14</ele>
  <time>2026-08-27T17:17:29Z</time>
  <course>124.26</course>
  <speed>2.047266470198738</speed>
  <fix>3d</fix>
</trkpt>
<trkpt lat="40.0709858" lon="-105.229895">
  <ele>1583.0</ele>
  <time>2026-08-27T17:17:29Z</time>
  <course>118.05</course>
  <speed>2.13</speed>
  <fix>3d</fix>
</trkpt>
<trkpt lat="40.0709827" lon="-105.2298884">
  <ele>1583.14</ele>
  <time>2026-08-27T17:17:29Z</time>
  <course>126.18</course>
  <speed>2.022003956474863</speed>
  <fix>3d</fix>
</trkpt>
<trkpt lat="40.0709839" lon="-105.2298907">
  <ele>1583.0</ele>
  <time>2026-08-27T17:17:29Z</time>
  <course>123.23</course>
  <speed>2.08</speed>
  <fix>3d</fix>
</trkpt>
<trkpt lat="40.0709815" lon="-105.2298865">
  <ele>1583.14</ele>
  <time>2026-08-27T17:17:29Z</time>
  <course>127.78</course>
  <speed>2.000624902374256</speed>
  <fix>3d</fix>
</trkpt>
<trkpt lat="40.0709839" lon="-105.2298907">
  <ele>1583.0</ele>
  <time>2026-08-27T17:17:29Z</time>
  <course>123.23</course>
  <speed>2.08</speed>
  <fix>3d</fix>
</trkpt>
<trkpt lat="40.0709804" lon="-105.2298846">
  <ele>1583.14</ele>
  <time>2026-08-27T17:17:29Z</time>
  <course>129.1</course>
  <speed>1.9743353311937666</speed>
  <fix>3d</fix>
</trkpt>
<trkpt lat="40.0709819" lon="-105.2298868">
  <ele>1583.0</ele>
  <time>2026-08-27T17:17:29Z</time>
  <course>126.81</course>
  <speed>2.03</speed>
  <fix>3d</fix>
</trkpt>
<trkpt lat="40.0709792" lon="-105.2298828">
  <ele>1583.14</ele>
  <time>2026-08-27T17:17:29Z</time>
  <course>130.2</course>
  <speed>1.9426270872197782</speed>
  <fix>3d</fix>
</trkpt>
<trkpt lat="40.0709819" lon="-105.2298868">
  <ele>1583.0</ele>
  <time>2026-08-27T17:17:29Z</time>
  <course>126.81</course>
  <speed>2.03</speed>
  <fix>3d</fix>
</trkpt>
<trkpt lat="40.0709781" lon="-105.2298811">
  <ele>1583.14</ele>
  <time>2026-08-27T17:17:29Z</time>
  <course>131.1</course>
  <speed>1.9191925385432282</speed>
  <fix>3d</fix>
</trkpt>
<trkpt lat="40.0709796" lon="-105.2298831">
  <ele>1583.0</ele>
  <time>2026-08-27T17:17:29Z</time>
  <course>129.28</course>
  <speed>1.98</speed>
  <fix>3d</fix>
</trkpt>
<trkpt lat="40.0709767" lon="-105.229879">
  <ele>1583.14</ele>
  <time>2026-08-27T17:17:29Z</time>
  <course>131.96</course>
  <speed>1.8822327167489146</speed>
  <fix>3d</fix>
</trkpt>
<trkpt lat="40.0709796" lon="-105.2298831">
  <ele>1583.0</ele>
  <time>2026-08-27T17:17:29Z</time>
  <course>129.28</course>
  <speed>1.98</speed>
  <fix>3d</fix>
</trkpt>
<trkpt lat="40.0709755" lon="-105.2298774">
  <ele>1583.14</ele>
  <time>2026-08-27T17:17:29Z</time>
  <course>132.54</course>
  <speed>1.8534832073693033</speed>
  <fix>3d</fix>
</trkpt>
<trkpt lat="40.0709773" lon="-105.2298795">
  <ele>1583.0</ele>
  <time>2026-08-27T17:17:29Z</time>
  <course>130.95</course>
  <speed>1.92</speed>
  <fix>3d</fix>
</trkpt>
<trkpt lat="40.0709744" lon="-105.2298758">
  <ele>1583.13</ele>
  <time>2026-08-27T17:17:29Z</time>
  <course>133.02</course>
  <speed>1.8317477992343814</speed>
  <fix>3d</fix>
</trkpt>
<trkpt lat="40.0709773" lon="-105.2298795">
  <ele>1583.0</ele>
  <time>2026-08-27T17:17:29Z</time>
  <course>130.95</course>
  <speed>1.92</speed>
  <fix>3d</fix>
</trkpt>
<trkpt lat="40.0709733" lon="-105.2298742">
  <ele>1583.13</ele>
  <time>2026-08-27T17:17:29Z</time>
  <course>133.4</course>
  <speed>1.8032470712578461</speed>
  <fix>3d</fix>
</trkpt>
<trkpt lat="40.0709751" lon="-105.2298763">
  <ele>1583.0</ele>
  <time>2026-08-27T17:17:29Z</time>
  <course>132.08</course>
  <speed>1.86</speed>
  <fix>3d</fix>
</trkpt>
<trkpt lat="40.0709721" lon="-105.2298726">
  <ele>1583.13</ele>
  <time>2026-08-27T17:17:29Z</time>
  <course>133.71</course>
  <speed>1.7748521065147935</speed>
  <fix>3d</fix>
</trkpt>
<trkpt lat="40.0709751" lon="-105.2298763">
  <ele>1583.0</ele>
  <time>2026-08-27T17:17:29Z</time>
  <course>132.08</course>
  <speed>1.86</speed>
  <fix>3d</fix>
</trkpt>
<trkpt lat="40.070971" lon="-105.2298711">
  <ele>1583.13</ele>
  <time>2026-08-27T17:17:29Z</time>
  <course>133.96</course>
  <speed>1.7536248173426379</speed>
  <fix>3d</fix>
</trkpt>
<trkpt lat="40.0709729" lon="-105.229873">
  <ele>1583.0</ele>
  <time>2026-08-27T17:17:29Z</time>
  <course>132.84</course>
  <speed>1.81</speed>
  <fix>3d</fix>
</trkpt>
<trkpt lat="40.0709699" lon="-105.2298696">
  <ele>1583.14</ele>
  <time>2026-08-27T17:17:29Z</time>
  <course>134.17</course>
  <speed>1.725340546095176</speed>
  <fix>3d</fix>
</trkpt>
<trkpt lat="40.0709729" lon="-105.229873">
  <ele>1583.0</ele>
  <time>2026-08-27T17:17:29Z</time>
  <course>132.84</course>
  <speed>1.81</speed>
  <fix>3d</fix>
</trkpt>
<trkpt lat="40.0709689" lon="-105.2298682">
  <ele>1583.14</ele>
  <time>2026-08-27T17:17:29Z</time>
  <course>134.33</course>
  <speed>1.7041420128616043</speed>
  <fix>3d</fix>
</trkpt>
<trkpt lat="40.0709706" lon="-105.22987">
  <ele>1583.0</ele>
  <time>2026-08-27T17:17:29Z</time>
  <course>133.33</course>
  <speed>1.76</speed>
  <fix>3d</fix>
</trkpt>
<trkpt lat="40.0709678" lon="-105.2298667">
  <ele>1583.14</ele>
  <time>2026-08-27T17:17:29Z</time>
  <course>134.45</course>
  <speed>1.69</speed>
  <fix>3d</fix>
</trkpt>
<trkpt lat="40.0709706" lon="-105.22987">
  <ele>1583.0</ele>
  <time>2026-08-27T17:17:29Z</time>
  <course>133.33</course>
  <speed>1.76</speed>
  <fix>3d</fix>
</trkpt>
<trkpt lat="40.0709667" lon="-105.2298653">
  <ele>1583.14</ele>
  <time>2026-08-27T17:17:29Z</time>
  <course>134.55</course>
  <speed>1.6688319268278635</speed>
  <fix>3d</fix>
</trkpt>
<trkpt lat="40.0709685" lon="-105.229867">
  <ele>1583.0</ele>
  <time>2026-08-27T17:17:29Z</time>
  <course>133.64</course>
  <speed>1.72</speed>
  <fix>3d</fix>
</trkpt>
<trkpt lat="40.0709657" lon="-105.2298639">
  <ele>1583.14</ele>
  <time>2026-08-27T17:17:29Z</time>
  <course>134.67</course>
  <speed>1.6546903033498443</speed>
  <fix>3d</fix>
</trkpt>
<trkpt lat="40.0709685" lon="-105.229867">
  <ele>1583.0</ele>
  <time>2026-08-27T17:17:29Z</time>
  <course>133.64</course>
  <speed>1.72</speed>
  <fix>3d</fix>
</trkpt>
<trkpt lat="40.0709649" lon="-105.2298628">
  <ele>1583.14</ele>
  <time>2026-08-27T17:17:29Z</time>
  <course>135.44</course>
  <speed>1.6410362579784763</speed>
  <fix>3d</fix>
</trkpt>
<trkpt lat="40.0709664" lon="-105.2298641">
  <ele>1583.0</ele>
  <time>2026-08-27T17:17:29Z</time>
  <course>134.21</course>
  <speed>1.68</speed>
  <fix>3d</fix>
</trkpt>
<trkpt lat="40.0709638" lon="-105.2298614">
  <ele>1583.14</ele>
  <time>2026-08-27T17:17:29Z</time>
  <course>137.43</course>
  <speed>1.6218816233005415</speed>
  <fix>3d</fix>
</trkpt>
<trkpt lat="40.0709664" lon="-105.2298641">
  <ele>1583.0</ele>
  <time>2026-08-27T17:17:29Z</time>
  <course>134.21</course>
  <speed>1.68</speed>
  <fix>3d</fix>
</trkpt>
<trkpt lat="40.0709627" lon="-105.2298601">
  <ele>1583.13</ele>
  <time>2026-08-27T17:17:29Z</time>
  <course>140.52</course>
  <speed>1.6086018774078314</speed>
  <fix>3d</fix>
</trkpt>
<trkpt lat="40.0709643" lon="-105.2298614">
  <ele>1583.0</ele>
  <time>2026-08-27T17:17:29Z</time>
  <course>137.2</course>
  <speed>1.65</speed>
  <fix>3d</fix>
</trkpt>
<trkpt lat="40.0709616" lon="-105.2298589">
  <ele>1583.13</ele>
  <time>2026-08-27T17:17:29Z</time>
  <course>144.66</course>
  <speed>1.5893709447451214</speed>
  <fix>3d</fix>
</trkpt>
<trkpt lat="40.0709643" lon="-105.2298614">
  <ele>1583.0</ele>
  <time>2026-08-27T17:17:29Z</time>
  <course>137.2</course>
  <speed>1.65</speed>
  <fix>3d</fix>
</trkpt>
<trkpt lat="40.0709604" lon="-105.2298579">
  <ele>1583.13</ele>
  <time>2026-08-27T17:17:29Z</time>
  <course>149.92</course>
  <speed>1.5666843970627906</speed>
  <fix>3d</fix>
</trkpt>
<trkpt lat="40.070962" lon="-105.229859">
  <ele>1583.0</ele>
  <time>2026-08-27T17:17:29Z</time>
  <course>144.44</course>
  <speed>1.61</speed>
  <fix>3d</fix>
</trkpt>
<trkpt lat="40.0709591" lon="-105.2298571">
  <ele>1583.12</ele>
  <time>2026-08-27T17:17:29Z</time>
  <course>155.49</course>
  <speed>1.5362942426501507</speed>
  <fix>3d</fix>
</trkpt>
<trkpt lat="40.070962" lon="-105.229859">
  <ele>1583.0</ele>
  <time>2026-08-27T17:17:29Z</time>
  <course>144.44</course>
  <speed>1.61</speed>
  <fix>3d</fix>
</trkpt>
<trkpt lat="40.0709579" lon="-105.2298564">
  <ele>1583.12</ele>
  <time>2026-08-27T17:17:29Z</time>
  <course>161.0</course>
  <speed>1.4895972610071488</speed>
  <fix>3d</fix>
</trkpt>
<trkpt lat="40.0709595" lon="-105.2298571">
  <ele>1583.0</ele>
  <time>2026-08-27T17:17:29Z</time>
  <course>154.63</course>
  <speed>1.54</speed>
  <fix>3d</fix>
</trkpt>
<trkpt lat="40.0709566" lon="-105.229856">
  <ele>1583.12</ele>
  <time>2026-08-27T17:17:29Z</time>
  <course>166.53</course>
  <speed>1.4317821063276353</speed>
  <fix>3d</fix>
</trkpt>
<trkpt lat="40.0709595" lon="-105.2298571">
  <ele>1583.0</ele>
  <time>2026-08-27T17:17:29Z</time>
  <course>154.63</course>
  <speed>1.54</speed>
  <fix>3d</fix>
</trkpt>
<trkpt lat="40.0709553" lon="-105.2298557">
  <ele>1583.12</ele>
  <time>2026-08-27T17:17:29Z</time>
  <course>172.09</course>
  <speed>1.3781872151489436</speed>
  <fix>3d</fix>
</trkpt>
<trkpt lat="40.070957" lon="-105.2298558">
  <ele>1583.0</ele>
  <time>2026-08-27T17:17:29Z</time>
  <course>165.63</course>
  <speed>1.44</speed>
  <fix>3d</fix>
</trkpt>
<trkpt lat="40.0709541" lon="-105.2298556">
  <ele>1583.13</ele>
  <time>2026-08-27T17:17:29Z</time>
  <course>177.61</course>
  <speed>1.3100381673829202</speed>
  <fix>3d</fix>
</trkpt>
<trkpt lat="40.070957" lon="-105.2298558">
  <ele>1583.0</ele>
  <time>2026-08-27T17:17:29Z</time>
  <course>165.63</course>
  <speed>1.44</speed>
  <fix>3d</fix>
</trkpt>
<trkpt lat="40.0709527" lon="-105.2298556">
  <ele>1583.13</ele>
  <time>2026-08-27T17:17:29Z</time>
  <course>184.22</course>
  <speed>1.2467958934805647</speed>
  <fix>3d</fix>
</trkpt>
<trkpt lat="40.0709546" lon="-105.2298553">
  <ele>1583.0</ele>
  <time>2026-08-27T17:17:29Z</time>
  <course>176.62</course>
  <speed>1.32</speed>
  <fix>3d</fix>
</trkpt>
<trkpt lat="40.0709517" lon="-105.2298558">
  <ele>1583.13</ele>
  <time>2026-08-27T17:17:29Z</time>
  <course>189.71</course>
  <speed>1.1943617542436629</speed>
  <fix>3d</fix>
</trkpt>
<trkpt lat="40.0709546" lon="-105.2298553">
  <ele>1583.0</ele>
  <time>2026-08-27T17:17:29Z</time>
  <course>176.62</course>
  <speed>1.32</speed>
  <fix>3d</fix>
</trkpt>
<trkpt lat="40.0709506" lon="-105.229856">
  <ele>1583.13</ele>
  <time>2026-08-27T17:17:29Z</time>
  <course>195.19</course>
  <speed>1.1513470371699404</speed>
  <fix>3d</fix>
</trkpt>
<trkpt lat="40.0709523" lon="-105.2298554">
  <ele>1583.0</ele>
  <time>2026-08-27T17:17:29Z</time>
  <course>187.65</course>
  <speed>1.2</speed>
  <fix>3d</fix>
</trkpt>
<trkpt lat="40.0709497" lon="-105.2298565">
  <ele>1583.13</ele>
  <time>2026-08-27T17:17:29Z</time>
  <course>200.21</course>
  <speed>1.1216059914247962</speed>
  <fix>3d</fix>
</trkpt>
<trkpt lat="40.0709523" lon="-105.2298554">
  <ele>1583.0</ele>
  <time>2026-08-27T17:17:29Z</time>
  <course>187.65</course>
  <speed>1.2</speed>
  <fix>3d</fix>
</trkpt>
<trkpt lat="40.0709488" lon="-105.229857">
  <ele>1583.13</ele>
  <time>2026-08-27T17:17:29Z</time>
  <course>204.37</course>
  <speed>1.1046266337545914</speed>
  <fix>3d</fix>
</trkpt>
<trkpt lat="40.0709502" lon="-105.2298559">
  <ele>1583.0</ele>
  <time>2026-08-27T17:17:29Z</time>
  <course>198.02</course>
  <speed>1.13</speed>
  <fix>3d</fix>
</trkpt>
<trkpt lat="40.0709479" lon="-105.2298576">
  <ele>1583.13</ele>
  <time>2026-08-27T17:17:29Z</time>
  <course>207.88</course>
  <speed>1.1063905277974861</speed>
  <fix>3d</fix>
</trkpt>
<trkpt lat="40.0709502" lon="-105.2298559">
  <ele>1583.0</ele>
  <time>2026-08-27T17:17:29Z</time>
  <course>198.02</course>
  <speed>1.13</speed>
  <fix>3d</fix>
</trkpt>
<trkpt lat="40.0709471" lon="-105.2298582">
  <ele>1583.13</ele>
  <time>2026-08-27T17:17:29Z</time>
  <course>210.81</course>
  <speed>1.106752004741803</speed>
  <fix>3d</fix>
</trkpt>
<trkpt lat="40.0709483" lon="-105.2298569">
  <ele>1583.0</ele>
  <time>2026-08-27T17:17:29Z</time>
  <course>206.22</course>
  <speed>1.1</speed>
  <fix>3d</fix>
</trkpt>
<trkpt lat="40.0709462" lon="-105.2298589">
  <ele>1583.13</ele>
  <time>2026-08-27T17:17:29Z</time>
  <course>213.26</course>
  <speed>1.1043550153822819</speed>
  <fix>3d</fix>
</trkpt>
<trkpt lat="40.0709483" lon="-105.2298569">
  <ele>1583.0</ele>
  <time>2026-08-27T17:17:29Z</time>
  <course>206.22</course>
  <speed>1.1</speed>
  <fix>3d</fix>
</trkpt>
<trkpt lat="40.0709454" lon="-105.2298596">
  <ele>1583.13</ele>
  <time>2026-08-27T17:17:29Z</time>
  <course>215.32</course>
  <speed>1.1140017953306898</speed>
  <fix>3d</fix>
</trkpt>
<trkpt lat="40.0709466" lon="-105.2298582">
  <ele>1583.0</ele>
  <time>2026-08-27T17:17:29Z</time>
  <course>211.89</course>
  <speed>1.1</speed>
  <fix>3d</fix>
</trkpt>
<trkpt lat="40.0709446" lon="-105.2298604">
  <ele>1583.13</ele>
  <time>2026-08-27T17:17:29Z</time>
  <course>217.09</course>
  <speed>1.1166467659918242</speed>
  <fix>3d</fix>
</trkpt>
<trkpt lat="40.0709466" lon="-105.2298582">
  <ele>1583.0</ele>
  <time>2026-08-27T17:17:29Z</time>
  <course>211.89</course>
  <speed>1.1</speed>
  <fix>3d</fix>
</trkpt>
<trkpt lat="40.0709439" lon="-105.2298612">
  <ele>1583.13</ele>
  <time>2026-08-27T17:17:29Z</time>
  <course>218.75</course>
  <speed>1.1139569111954015</speed>
  <fix>3d</fix>
</trkpt>
<trkpt lat="40.070945" lon="-105.2298597">
  <ele>1583.0</ele>
  <time>2026-08-27T17:17:29Z</time>
  <course>215.97</course>
  <speed>1.11</speed>
  <fix>3d</fix>
</trkpt>
<trkpt lat="40.0709433" lon="-105.2298618">
  <ele>1583.13</ele>
  <time>2026-08-27T17:17:29Z</time>
  <course>219.98</course>
  <speed>1.1260994627474077</speed>
  <fix>3d</fix>
</trkpt>
<trkpt lat="40.070945" lon="-105.2298597">
  <ele>1583.0</ele>
  <time>2026-08-27T17:17:29Z</time>
  <course>215.97</course>
  <speed>1.11</speed>
  <fix>3d</fix>
</trkpt>
<trkpt lat="40.0709425" lon="-105.2298627">
  <ele>1583.13</ele>
  <time>2026-08-27T17:17:29Z</time>
  <course>221.39</course>
  <speed>1.1321660655575223</speed>
  <fix>3d</fix>
</trkpt>
<trkpt lat="40.0709434" lon="-105.2298613">
  <ele>1583.0</ele>
  <time>2026-08-27T17:17:29Z</time>
  <course>219.2</course>
  <speed>1.12</speed>
  <fix>3d</fix>
</trkpt>
<trkpt lat="40.0709417" lon="-105.2298636">
  <ele>1583.13</ele>
  <time>2026-08-27T17:17:29Z</time>
  <course>222.69</course>
  <speed>1.1527792503337315</speed>
  <fix>3d</fix>
</trkpt>
<trkpt lat="40.0709434" lon="-105.2298613">
  <ele>1583.0</ele>
  <time>2026-08-27T17:17:29Z</time>
  <course>219.2</course>
  <speed>1.12</speed>
  <fix>3d</fix>
</trkpt>
<trkpt lat="40.070941" lon="-105.2298645">
  <ele>1583.13</ele>
  <time>2026-08-27T17:17:29Z</time>
  <course>223.87</course>
  <speed>1.1596551211459378</speed>
  <fix>3d</fix>
</trkpt>
<trkpt lat="40.0709419" lon="-105.229863">
  <ele>1583.0</ele>
  <time>2026-08-27T17:17:29Z</time>
  <course>221.92</course>
  <speed>1.14</speed>
  <fix>3d</fix>
</trkpt>
<trkpt lat="40.0709402" lon="-105.2298654">
  <ele>1583.13</ele>
  <time>2026-08-27T17:17:29Z</time>
  <course>224.96</course>
  <speed>1.181058846967415</speed>
  <fix>3d</fix>
</trkpt>
<trkpt lat="40.0709419" lon="-105.229863">
  <ele>1583.0</ele>
  <time>2026-08-27T17:17:29Z</time>
  <course>221.92</course>
  <speed>1.14</speed>
  <fix>3d</fix>
</trkpt>
<trkpt lat="40.0709395" lon="-105.2298664">
  <ele>1583.13</ele>
  <time>2026-08-27T17:17:29Z</time>
  <course>225.96</course>
  <speed>1.2028299963003917</speed>
  <fix>3d</fix>
</trkpt>
<trkpt lat="40.0709404" lon="-105.2298649">
  <ele>1583.0</ele>
  <time>2026-08-27T17:17:29Z</time>
  <course>224.21</course>
  <speed>1.18</speed>
  <fix>3d</fix>
</trkpt>
<trkpt lat="40.0709387" lon="-105.2298674">
  <ele>1583.13</ele>
  <time>2026-08-27T17:17:29Z</time>
  <course>226.88</course>
  <speed>1.22494897852931</speed>
  <fix>3d</fix>
</trkpt>
<trkpt lat="40.0709404" lon="-105.2298649">
  <ele>1583.0</ele>
  <time>2026-08-27T17:17:29Z</time>
  <course>224.21</course>
  <speed>1.18</speed>
  <fix>3d</fix>
</trkpt>
<trkpt lat="40.070938" lon="-105.2298685">
  <ele>1583.13</ele>
  <time>2026-08-27T17:17:29Z</time>
  <course>227.72</course>
  <speed>1.2539936203984452</speed>
  <fix>3d</fix>
</trkpt>
<trkpt lat="40.0709388" lon="-105.2298669">
  <ele>1583.0</ele>
  <time>2026-08-27T17:17:29Z</time>
  <course>226.14</course>
  <speed>1.22</speed>
  <fix>3d</fix>
</trkpt>
<trkpt lat="40.0709372" lon="-105.2298696">
  <ele>1583.13</ele>
  <time>2026-08-27T17:17:29Z</time>
  <course>228.49</course>
  <speed>1.2766362050325848</speed>
  <fix>3d</fix>
</trkpt>
<trkpt lat="40.0709388" lon="-105.2298669">
  <ele>1583.0</ele>
  <time>2026-08-27T17:17:29Z</time>
  <course>226.14</course>
  <speed>1.22</speed>
  <fix>3d</fix>
</trkpt>
<trkpt lat="40.0709364" lon="-105.2298708">
  <ele>1583.13</ele>
  <time>2026-08-27T17:17:29Z</time>
  <course>229.2</course>
  <speed>1.3059862173851606</speed>
  <fix>3d</fix>
</trkpt>
<trkpt lat="40.0709373" lon="-105.2298691">
  <ele>1583.0</ele>
  <time>2026-08-27T17:17:29Z</time>
  <course>227.75</course>
  <speed>1.27</speed>
  <fix>3d</fix>
</trkpt>
<trkpt lat="40.0709355" lon="-105.2298722">
  <ele>1583.13</ele>
  <time>2026-08-27T17:17:29Z</time>
  <course>229.98</course>
  <speed>1.335440002396214</speed>
  <fix>3d</fix>
</trkpt>
<trkpt lat="40.0709373" lon="-105.2298691">
  <ele>1583.0</ele>
  <time>2026-08-27T17:17:29Z</time>
  <course>227.75</course>
  <speed>1.27</speed>
  <fix>3d</fix>
</trkpt>
<trkpt lat="40.0709347" lon="-105.2298734">
  <ele>1583.13</ele>
  <time>2026-08-27T17:17:29Z</time>
  <course>230.57</course>
  <speed>1.3587126259809321</speed>
  <fix>3d</fix>
</trkpt>
<trkpt lat="40.0709358" lon="-105.2298713">
  <ele>1583.0</ele>
  <time>2026-08-27T17:17:29Z</time>
  <course>229.12</course>
  <speed>1.32</speed>
  <fix>3d</fix>
</trkpt>
<trkpt lat="40.0709339" lon="-105.2298746">
  <ele>1583.13</ele>
  <time>2026-08-27T17:17:29Z</time>
  <course>231.12</course>
  <speed>1.3805795884337855</speed>
  <fix>3d</fix>
</trkpt>
<trkpt lat="40.0709358" lon="-105.2298713">
  <ele>1583.0</ele>
  <time>2026-08-27T17:17:29Z</time>
  <course>229.12</course>
  <speed>1.32</speed>
  <fix>3d</fix>
</trkpt>
<trkpt lat="40.0709331" lon="-105.2298759">
  <ele>1583.13</ele>
  <time>2026-08-27T17:17:29Z</time>
  <course>231.63</course>
  <speed>1.4041723540933284</speed>
  <fix>3d</fix>
</trkpt>
<trkpt lat="40.0709341" lon="-105.2298737">
  <ele>1583.0</ele>
  <time>2026-08-27T17:17:29Z</time>
  <course>230.28</course>
  <speed>1.37</speed>
  <fix>3d</fix>
</trkpt>
<trkpt lat="40.0709323" lon="-105.2298772">
  <ele>1583.13</ele>
  <time>2026-08-27T17:17:29Z</time>
  <course>232.09</course>
  <speed>1.4261135999632006</speed>
  <fix>3d</fix>
</trkpt>
<trkpt lat="40.0709341" lon="-105.2298737">
  <ele>1583.0</ele>
  <time>2026-08-27T17:17:29Z</time>
  <course>230.28</course>
  <speed>1.37</speed>
  <fix>3d</fix>
</trkpt>
<trkpt lat="40.0709315" lon="-105.2298785">
  <ele>1583.12</ele>
  <time>2026-08-27T17:17:29Z</time>
  <course>232.53</course>
  <speed>1.4560219778561037</speed>
  <fix>3d</fix>
</trkpt>
<trkpt lat="40.0709326" lon="-105.2298763">
  <ele>1583.0</ele>
  <time>2026-08-27T17:17:29Z</time>
  <course>231.27</course>
  <speed>1.41</speed>
  <fix>3d</fix>
</trkpt>
<trkpt lat="40.0709307" lon="-105.2298798">
  <ele>1583.12</ele>
  <time>2026-08-27T17:17:29Z</time>
  <course>232.93</course>
  <speed>1.4720054347725757</speed>
  <fix>3d</fix>
</trkpt>
<trkpt lat="40.0709326" lon="-105.2298763">
  <ele>1583.0</ele>
  <time>2026-08-27T17:17:29Z</time>
  <course>231.27</course>
  <speed>1.41</speed>
  <fix>3d</fix>
</trkpt>
<trkpt lat="40.0709299" lon="-105.2298812">
  <ele>1583.13</ele>
  <time>2026-08-27T17:17:29Z</time>
  <course>233.31</course>
  <speed>1.4940214188558343</speed>
  <fix>3d</fix>
</trkpt>
<trkpt lat="40.070931" lon="-105.2298789">
  <ele>1583.0</ele>
  <time>2026-08-27T17:17:29Z</time>
  <course>232.12</course>
  <speed>1.46</speed>
  <fix>3d</fix>
</trkpt>
<trkpt lat="40.0709291" lon="-105.2298826">
  <ele>1583.13</ele>
  <time>2026-08-27T17:17:29Z</time>
  <course>233.62</course>
  <speed>1.516047492659778</speed>
  <fix>3d</fix>
</trkpt>
<trkpt lat="40.070931" lon="-105.2298789">
  <ele>1583.0</ele>
  <time>2026-08-27T17:17:29Z</time>
  <course>232.12</course>
  <speed>1.46</speed>
  <fix>3d</fix>
</trkpt>
<trkpt lat="40.0709283" lon="-105.229884">
  <ele>1583.13</ele>
  <time>2026-08-27T17:17:29Z</time>
  <course>233.87</course>
  <speed>1.5321879780235843</speed>
  <fix>3d</fix>
</trkpt>
<trkpt lat="40.0709294" lon="-105.2298816">
  <ele>1583.0</ele>
  <time>2026-08-27T17:17:29Z</time>
  <course>232.81</course>
  <speed>1.5</speed>
  <fix>3d</fix>
</trkpt>
<trkpt lat="40.0709275" lon="-105.2298854">
  <ele>1583.13</ele>
  <time>2026-08-27T17:17:29Z</time>
  <course>234.05</course>
  <speed>1.546156525064652</speed>
  <fix>3d</fix>
</trkpt>
<trkpt lat="40.0709294" lon="-105.2298816">
  <ele>1583.0</ele>
  <time>2026-08-27T17:17:29Z</time>
  <course>232.81</course>
  <speed>1.5</speed>
  <fix>3d</fix>
</trkpt>
<trkpt lat="40.0709268" lon="-105.2298866">
  <ele>1583.13</ele>
  <time>2026-08-27T17:17:29Z</time>
  <course>234.16</course>
  <speed>1.554252231782216</speed>
  <fix>3d</fix>
</trkpt>
<trkpt lat="40.0709277" lon="-105.2298845">
  <ele>1583.0</ele>
  <time>2026-08-27T17:17:29Z</time>
  <course>233.26</course>
  <speed>1.54</speed>
  <fix>3d</fix>
</trkpt>
<trkpt lat="40.0709259" lon="-105.2298881">
  <ele>1583.13</ele>
  <time>2026-08-27T17:17:29Z</time>
  <course>234.24</course>
  <speed>1.5682155464093577</speed>
  <fix>3d</fix>
</trkpt>
<trkpt lat="40.0709277" lon="-105.2298845">
  <ele>1583.0</ele>
  <time>2026-08-27T17:17:29Z</time>
  <course>233.26</course>
  <speed>1.54</speed>
  <fix>3d</fix>
</trkpt>
<trkpt lat="40.0709251" lon="-105.2298895">
  <ele>1583.13</ele>
  <time>2026-08-27T17:17:29Z</time>
  <course>234.27</course>
  <speed>1.5902829936838285</speed>
  <fix>3d</fix>
</trkpt>
<trkpt lat="40.070926" lon="-105.2298875">
  <ele>1583.0</ele>
  <time>2026-08-27T17:17:29Z</time>
  <course>233.48</course>
  <speed>1.57</speed>
  <fix>3d</fix>
</trkpt>
<trkpt lat="40.0709242" lon="-105.229891">
  <ele>1583.13</ele>
  <time>2026-08-27T17:17:29Z</time>
  <course>234.26</course>
  <speed>1.604244370412438</speed>
  <fix>3d</fix>
</trkpt>
<trkpt lat="40.070926" lon="-105.2298875">
  <ele>1583.0</ele>
  <time>2026-08-27T17:17:29Z</time>
  <course>233.48</course>
  <speed>1.57</speed>
  <fix>3d</fix>
</trkpt>
<trkpt lat="40.0709234" lon="-105.2298926">
  <ele>1583.13</ele>
  <time>2026-08-27T17:17:29Z</time>
  <course>234.21</course>
  <speed>1.6101242188104619</speed>
  <fix>3d</fix>
</trkpt>
<trkpt lat="40.0709243" lon="-105.2298905">
  <ele>1583.0</ele>
  <time>2026-08-27T17:17:29Z</time>
  <course>233.5</course>
  <speed>1.6</speed>
  <fix>3d</fix>
</trkpt>
<trkpt lat="40.0709225" lon="-105.2298941">
  <ele>1583.13</ele>
  <time>2026-08-27T17:17:29Z</time>
  <course>234.11</course>
  <speed>1.6240997506310995</speed>
  <fix>3d</fix>
</trkpt>
<trkpt lat="40.0709243" lon="-105.2298905">
  <ele>1583.0</ele>
  <time>2026-08-27T17:17:29Z</time>
  <course>233.5</course>
  <speed>1.6</speed>
  <fix>3d</fix>
</trkpt>
<trkpt lat="40.0709216" lon="-105.2298956">
  <ele>1583.13</ele>
  <time>2026-08-27T17:17:29Z</time>
  <course>233.96</course>
  <speed>1.638078142214223</speed>
  <fix>3d</fix>
</trkpt>
<trkpt lat="40.0709226" lon="-105.2298936">
  <ele>1583.0</ele>
  <time>2026-08-27T17:17:29Z</time>
  <course>233.35</course>
  <speed>1.62</speed>
  <fix>3d</fix>
</trkpt>
<trkpt lat="40.0709207" lon="-105.2298972">
  <ele>1583.13</ele>
  <time>2026-08-27T17:17:29Z</time>
  <course>233.77</course>
  <speed>1.6440194646049662</speed>
  <fix>3d</fix>
</trkpt>
<trkpt lat="40.0709226" lon="-105.2298936">
  <ele>1583.0</ele>
  <time>2026-08-27T17:17:29Z</time>
  <course>233.35</course>
  <speed>1.62</speed>
  <fix>3d</fix>
</trkpt>
<trkpt lat="40.0709198" lon="-105.2298987">
  <ele>1583.13</ele>
  <time>2026-08-27T17:17:29Z</time>
  <course>233.54</course>
  <speed>1.65</speed>
  <fix>3d</fix>
</trkpt>
<trkpt lat="40.0709209" lon="-105.2298966">
  <ele>1583.0</ele>
  <time>2026-08-27T17:17:29Z</time>
  <course>233.01</course>
  <speed>1.64</speed>
  <fix>3d</fix>
</trkpt>
<trkpt lat="40.0709189" lon="-105.2299003">
  <ele>1583.13</ele>
  <time>2026-08-27T17:17:29Z</time>
  <course>233.27</course>
  <speed>1.6620770138594663</speed>
  <fix>3d</fix>
</trkpt>
<trkpt lat="40.0709209" lon="-105.2298966">
  <ele>1583.0</ele>
  <time>2026-08-27T17:17:29Z</time>
  <course>233.01</course>
  <speed>1.64</speed>
  <fix>3d</fix>
</trkpt>
<trkpt lat="40.0709177" lon="-105.2299022">
  <ele>1583.13</ele>
  <time>2026-08-27T17:17:29Z</time>
  <course>232.9</course>
  <speed>1.6681726529349412</speed>
  <fix>3d</fix>
</trkpt>
<trkpt lat="40.0709191" lon="-105.2298997">
  <ele>1583.0</ele>
  <time>2026-08-27T17:17:29Z</time>
  <course>232.51</course>
  <speed>1.66</speed>
  <fix>3d</fix>
</trkpt>
<trkpt lat="40.0709168" lon="-105.2299037">
  <ele>1583.13</ele>
  <time>2026-08-27T17:17:29Z</time>
  <course>232.54</course>
  <speed>1.6743058263053379</speed>
  <fix>3d</fix>
</trkpt>
<trkpt lat="40.0709191" lon="-105.2298997">
  <ele>1583.0</ele>
  <time>2026-08-27T17:17:29Z</time>
  <course>232.51</course>
  <speed>1.66</speed>
  <fix>3d</fix>
</trkpt>
<trkpt lat="40.0709159" lon="-105.2299053">
  <ele>1583.13</ele>
  <time>2026-08-27T17:17:29Z</time>
  <course>232.16</course>
  <speed>1.6726326554267679</speed>
  <fix>3d</fix>
</trkpt>
<trkpt lat="40.0709172" lon="-105.2299028">
  <ele>1583.0</ele>
  <time>2026-08-27T17:17:29Z</time>
  <course>231.86</course>
  <speed>1.67</speed>
  <fix>3d</fix>
</trkpt>
<trkpt lat="40.0709149" lon="-105.2299068">
  <ele>1583.13</ele>
  <time>2026-08-27T17:17:29Z</time>
  <course>231.74</course>
  <speed>1.6788686666919483</speed>
  <fix>3d</fix>
</trkpt>
<trkpt lat="40.0709172" lon="-105.2299028">
  <ele>1583.0</ele>
  <time>2026-08-27T17:17:29Z</time>
  <course>231.86</course>
  <speed>1.67</speed>
  <fix>3d</fix>
</trkpt>
<trkpt lat="40.070914" lon="-105.2299083">
  <ele>1583.13</ele>
  <time>2026-08-27T17:17:29Z</time>
  <course>231.3</course>
  <speed>1.6773789077009404</speed>
  <fix>3d</fix>
</trkpt>
<trkpt lat="40.0709153" lon="-105.2299059">
  <ele>1583.0</ele>
  <time>2026-08-27T17:17:29Z</time>
  <course>231.06</course>
  <speed>1.67</speed>
  <fix>3d</fix>
</trkpt>
<trkpt lat="40.070913" lon="-105.2299098">
  <ele>1583.13</ele>
  <time>2026-08-27T17:17:29Z</time>
  <course>230.82</course>
  <speed>1.676007159889241</speed>
  <fix>3d</fix>
</trkpt>
<trkpt lat="40.0709153" lon="-105.2299059">
  <ele>1583.0</ele>
  <time>2026-08-27T17:17:29Z</time>
  <course>231.06</course>
  <speed>1.67</speed>
  <fix>3d</fix>
</trkpt>
<trkpt lat="40.070912" lon="-105.2299113">
  <ele>1583.14</ele>
  <time>2026-08-27T17:17:29Z</time>
  <course>230.32</course>
  <speed>1.6747537132366657</speed>
  <fix>3d</fix>
</trkpt>
<trkpt lat="40.0709134" lon="-105.2299089">
  <ele>1583.0</ele>
  <time>2026-08-27T17:17:29Z</time>
  <course>230.15</course>
  <speed>1.68</speed>
  <fix>3d</fix>
</trkpt>
<trkpt lat="40.070911" lon="-105.2299128">
  <ele>1583.14</ele>
  <time>2026-08-27T17:17:29Z</time>
  <course>229.79</course>
  <speed>1.672602762164406</speed>
  <fix>3d</fix>
</trkpt>
<trkpt lat="40.0709134" lon="-105.2299089">
  <ele>1583.0</ele>
  <time>2026-08-27T17:17:29Z</time>
  <course>230.15</course>
  <speed>1.68</speed>
  <fix>3d</fix>
</trkpt>
<trkpt lat="40.07091" lon="-105.2299142">
  <ele>1583.14</ele>
  <time>2026-08-27T17:17:29Z</time>
  <course>229.25</course>
  <speed>1.6650825805346714</speed>
  <fix>3d</fix>
</trkpt>
<trkpt lat="40.0709114" lon="-105.2299119">
  <ele>1583.0</ele>
  <time>2026-08-27T17:17:29Z</time>
  <course>229.13</course>
  <speed>1.67</speed>
  <fix>3d</fix>
</trkpt>
<trkpt lat="40.070909" lon="-105.2299157">
  <ele>1583.14</ele>
  <time>2026-08-27T17:17:29Z</time>
  <course>228.68</course>
  <speed>1.656804152578089</speed>
  <fix>3d</fix>
</trkpt>
<trkpt lat="40.0709114" lon="-105.2299119">
  <ele>1583.0</ele>
  <time>2026-08-27T17:17:29Z</time>
  <course>229.13</course>
  <speed>1.67</speed>
  <fix>3d</fix>
</trkpt>
<trkpt lat="40.070908" lon="-105.2299171">
  <ele>1583.14</ele>
  <time>2026-08-27T17:17:29Z</time>
  <course>228.09</course>
  <speed>1.6561400906928134</speed>
  <fix>3d</fix>
</trkpt>
<trkpt lat="40.0709095" lon="-105.2299149">
  <ele>1583.0</ele>
  <time>2026-08-27T17:17:29Z</time>
  <course>228.03</course>
  <speed>1.67</speed>
  <fix>3d</fix>
</trkpt>
<trkpt lat="40.0709072" lon="-105.2299182">
  <ele>1583.14</ele>
  <time>2026-08-27T17:17:29Z</time>
  <course>227.6</course>
  <speed>1.6483021567661678</speed>
  <fix>3d</fix>
</trkpt>
<trkpt lat="40.0709095" lon="-105.2299149">
  <ele>1583.0</ele>
  <time>2026-08-27T17:17:29Z</time>
  <course>228.03</course>
  <speed>1.67</speed>
  <fix>3d</fix>
</trkpt>
<trkpt lat="40.0709062" lon="-105.2299196">
  <ele>1583.13</ele>
  <time>2026-08-27T17:17:29Z</time>
  <course>226.98</course>
  <speed>1.647938105633825</speed>
  <fix>3d</fix>
</trkpt>
<trkpt lat="40.0709075" lon="-105.2299178">
  <ele>1583.0</ele>
  <time>2026-08-27T17:17:29Z</time>
  <course>226.84</course>
  <speed>1.66</speed>
  <fix>3d</fix>
</trkpt>
<trkpt lat="40.0709052" lon="-105.229921">
  <ele>1583.13</ele>
  <time>2026-08-27T17:17:29Z</time>
  <course>226.33</course>
  <speed>1.6405486887014356</speed>
  <fix>3d</fix>
</trkpt>
<trkpt lat="40.0709075" lon="-105.2299178">
  <ele>1583.0</ele>
  <time>2026-08-27T17:17:29Z</time>
  <course>226.84</course>
  <speed>1.66</speed>
  <fix>3d</fix>
</trkpt>
<trkpt lat="40.0709041" lon="-105.2299223">
  <ele>1583.13</ele>
  <time>2026-08-27T17:17:29Z</time>
  <course>225.42</course>
  <speed>1.6264070831129578</speed>
  <fix>3d</fix>
</trkpt>
<trkpt lat="40.0709054" lon="-105.2299206">
  <ele>1583.0</ele>
  <time>2026-08-27T17:17:29Z</time>
  <course>225.44</course>
  <speed>1.65</speed>
  <fix>3d</fix>
</trkpt>
<trkpt lat="40.0709031" lon="-105.2299237">
  <ele>1583.13</ele>
  <time>2026-08-27T17:17:29Z</time>
  <course>224.1</course>
  <speed>1.6200308639035246</speed>
  <fix>3d</fix>
</trkpt>
<trkpt lat="40.0709054" lon="-105.2299206">
  <ele>1583.0</ele>
  <time>2026-08-27T17:17:29Z</time>
  <course>225.44</course>
  <speed>1.65</speed>
  <fix>3d</fix>
</trkpt>
<trkpt lat="40.070902" lon="-105.229925">
  <ele>1583.13</ele>
  <time>2026-08-27T17:17:29Z</time>
  <course>222.33</course>
  <speed>1.6086329600005091</speed>
  <fix>3d</fix>
</trkpt>
<trkpt lat="40.0709033" lon="-105.2299233">
  <ele>1583.0</ele>
  <time>2026-08-27T17:17:29Z</time>
  <course>223.11</course>
  <speed>1.63</speed>
  <fix>3d</fix>
</trkpt>
<trkpt lat="40.0709009" lon="-105.2299262">
  <ele>1583.13</ele>
  <time>2026-08-27T17:17:29Z</time>
  <course>220.03</course>
  <speed>1.59928108848945</speed>
  <fix>3d</fix>
</trkpt>
<trkpt lat="40.0709033" lon="-105.2299233">
  <ele>1583.0</ele>
  <time>2026-08-27T17:17:29Z</time>
  <course>223.11</course>
  <speed>1.63</speed>
  <fix>3d</fix>
</trkpt>
<trkpt lat="40.0708997" lon="-105.2299273">
  <ele>1583.13</ele>
  <time>2026-08-27T17:17:29Z</time>
  <course>217.07</course>
  <speed>1.5821820375671063</speed>
  <fix>3d</fix>
</trkpt>
<trkpt lat="40.0709011" lon="-105.2299258">
  <ele>1583.0</ele>
  <time>2026-08-27T17:17:29Z</time>
  <course>218.95</course>
  <speed>1.6</speed>
  <fix>3d</fix>
</trkpt>
<trkpt lat="40.0708985" lon="-105.2299284">
  <ele>1583.13</ele>
  <time>2026-08-27T17:17:29Z</time>
  <course>213.39</course>
  <speed>1.5592626462530292</speed>
  <fix>3d</fix>
</trkpt>
<trkpt lat="40.0709011" lon="-105.2299258">
  <ele>1583.0</ele>
  <time>2026-08-27T17:17:29Z</time>
  <course>218.95</course>
  <speed>1.6</speed>
  <fix>3d</fix>
</trkpt>
<trkpt lat="40.0708973" lon="-105.2299293">
  <ele>1583.13</ele>
  <time>2026-08-27T17:17:29Z</time>
  <course>208.8</course>
  <speed>1.534177303964571</speed>
  <fix>3d</fix>
</trkpt>
<trkpt lat="40.0708987" lon="-105.229928">
  <ele>1583.0</ele>
  <time>2026-08-27T17:17:29Z</time>
  <course>212.22</course>
  <speed>1.56</speed>
  <fix>3d</fix>
</trkpt>
<trkpt lat="40.0708958" lon="-105.2299302">
  <ele>1583.13</ele>
  <time>2026-08-27T17:17:29Z</time>
  <course>202.38</course>
  <speed>1.487615541731129</speed>
  <fix>3d</fix>
</trkpt>
<trkpt lat="40.0708987" lon="-105.229928">
  <ele>1583.0</ele>
  <time>2026-08-27T17:17:29Z</time>
  <course>212.22</course>
  <speed>1.56</speed>
  <fix>3d</fix>
</trkpt>
<trkpt lat="40.0708945" lon="-105.2299307">
  <ele>1583.13</ele>
  <time>2026-08-27T17:17:29Z</time>
  <course>196.97</course>
  <speed>1.4410065926289164</speed>
  <fix>3d</fix>
</trkpt>
<trkpt lat="40.0708963" lon="-105.2299297">
  <ele>1583.0</ele>
  <time>2026-08-27T17:17:29Z</time>
  <course>202.79</course>
  <speed>1.49</speed>
  <fix>3d</fix>
</trkpt>
<trkpt lat="40.0708933" lon="-105.229931">
  <ele>1583.13</ele>
  <time>2026-08-27T17:17:29Z</time>
  <course>191.56</course>
  <speed>1.3810141201305655</speed>
  <fix>3d</fix>
</trkpt>
<trkpt lat="40.0708963" lon="-105.2299297">
  <ele>1583.0</ele>
  <time>2026-08-27T17:17:29Z</time>
  <course>202.79</course>
  <speed>1.49</speed>
  <fix>3d</fix>
</trkpt>
<trkpt lat="40.070892" lon="-105.2299312">
  <ele>1583.13</ele>
  <time>2026-08-27T17:17:29Z</time>
  <course>186.15</course>
  <speed>1.323782459469833</speed>
  <fix>3d</fix>
</trkpt>
<trkpt lat="40.0708939" lon="-105.2299307">
  <ele>1583.0</ele>
  <time>2026-08-27T17:17:29Z</time>
  <course>192.07</course>
  <speed>1.39</speed>
  <fix>3d</fix>
</trkpt>
<trkpt lat="40.0708909" lon="-105.2299312">
  <ele>1583.13</ele>
  <time>2026-08-27T17:17:29Z</time>
  <course>180.74</course>
  <speed>1.2601587201618691</speed>
  <fix>3d</fix>
</trkpt>
<trkpt lat="40.0708939" lon="-105.2299307">
  <ele>1583.0</ele>
  <time>2026-08-27T17:17:29Z</time>
  <course>192.07</course>
  <speed>1.39</speed>
  <fix>3d</fix>
</trkpt>
<trkpt lat="40.0708898" lon="-105.2299311">
  <ele>1583.13</ele>
  <time>2026-08-27T17:17:29Z</time>
  <course>175.33</course>
  <speed>1.20702112657567</speed>
  <fix>3d</fix>
</trkpt>
<trkpt lat="40.0708915" lon="-105.2299311">
  <ele>1583.0</ele>
  <time>2026-08-27T17:17:29Z</time>
  <course>181.27</course>
  <speed>1.27</speed>
  <fix>3d</fix>
</trkpt>
<trkpt lat="40.0708887" lon="-105.2299309">
  <ele>1583.13</ele>
  <time>2026-08-27T17:17:29Z</time>
  <course>169.92</course>
  <speed>1.1552056094046634</speed>
  <fix>3d</fix>
</trkpt>
<trkpt lat="40.0708915" lon="-105.2299311">
  <ele>1583.0</ele>
  <time>2026-08-27T17:17:29Z</time>
  <course>181.27</course>
  <speed>1.27</speed>
  <fix>3d</fix>
</trkpt>
<trkpt lat="40.0708877" lon="-105.2299305">
  <ele>1583.14</ele>
  <time>2026-08-27T17:17:29Z</time>
  <course>164.52</course>
  <speed>1.1227199116431488</speed>
  <fix>3d</fix>
</trkpt>
<trkpt lat="40.0708893" lon="-105.2299309">
  <ele>1583.0</ele>
  <time>2026-08-27T17:17:29Z</time>
  <course>170.38</course>
  <speed>1.16</speed>
  <fix>3d</fix>
</trkpt>
<trkpt lat="40.0708868" lon="-105.22993">
  <ele>1583.14</ele>
  <time>2026-08-27T17:17:29Z</time>
  <course>159.53</course>
  <speed>1.0938464243210744</speed>
  <fix>3d</fix>
</trkpt>
<trkpt lat="40.0708893" lon="-105.2299309">
  <ele>1583.0</ele>
  <time>2026-08-27T17:17:29Z</time>
  <course>170.38</course>
  <speed>1.16</speed>
  <fix>3d</fix>
</trkpt>
<trkpt lat="40.0708859" lon="-105.2299295">
  <ele>1583.14</ele>
  <time>2026-08-27T17:17:29Z</time>
  <course>155.39</course>
  <speed>1.0778218776773831</speed>
  <fix>3d</fix>
</trkpt>
<trkpt lat="40.0708873" lon="-105.2299303">
  <ele>1583.0</ele>
  <time>2026-08-27T17:17:29Z</time>
  <course>160.14</course>
  <speed>1.1</speed>
  <fix>3d</fix>
</trkpt>
<trkpt lat="40.0708851" lon="-105.229929">
  <ele>1583.14</ele>
  <time>2026-08-27T17:17:29Z</time>
  <course>151.9</course>
  <speed>1.0804628637764464</speed>
  <fix>3d</fix>
</trkpt>
<trkpt lat="40.0708873" lon="-105.2299303">
  <ele>1583.0</ele>
  <time>2026-08-27T17:17:29Z</time>
  <course>160.14</course>
  <speed>1.1</speed>
  <fix>3d</fix>
</trkpt>
<trkpt lat="40.0708844" lon="-105.2299284">
  <ele>1583.14</ele>
  <time>2026-08-27T17:17:29Z</time>
  <course>149.49</course>
  <speed>1.0845275469069469</speed>
  <fix>3d</fix>
</trkpt>
<trkpt lat="40.0708855" lon="-105.2299293">
  <ele>1583.0</ele>
  <time>2026-08-27T17:17:29Z</time>
  <course>152.03</course>
  <speed>1.08</speed>
  <fix>3d</fix>
</trkpt>
<trkpt lat="40.0708836" lon="-105.2299277">
  <ele>1583.14</ele>
  <time>2026-08-27T17:17:29Z</time>
  <course>146.96</course>
  <speed>1.082266141020775</speed>
  <fix>3d</fix>
</trkpt>
<trkpt lat="40.0708855" lon="-105.2299293">
  <ele>1583.0</ele>
  <time>2026-08-27T17:17:29Z</time>
  <course>152.03</course>
  <speed>1.08</speed>
  <fix>3d</fix>
</trkpt>
<trkpt lat="40.0708828" lon="-105.229927">
  <ele>1583.14</ele>
  <time>2026-08-27T17:17:29Z</time>
  <course>144.84</course>
  <speed>1.0840664186294122</speed>
  <fix>3d</fix>
</trkpt>
<trkpt lat="40.0708839" lon="-105.2299279">
  <ele>1583.0</ele>
  <time>2026-08-27T17:17:29Z</time>
  <course>146.37</course>
  <speed>1.09</speed>
  <fix>3d</fix>
</trkpt>
<trkpt lat="40.0708821" lon="-105.2299262">
  <ele>1583.14</ele>
  <time>2026-08-27T17:17:29Z</time>
  <course>143.29</course>
  <speed>1.094805918873295</speed>
  <fix>3d</fix>
</trkpt>
<trkpt lat="40.0708839" lon="-105.2299279">
  <ele>1583.0</ele>
  <time>2026-08-27T17:17:29Z</time>
  <course>146.37</course>
  <speed>1.09</speed>
  <fix>3d</fix>
</trkpt>
<trkpt lat="40.0708813" lon="-105.2299253">
  <ele>1583.14</ele>
  <time>2026-08-27T17:17:29Z</time>
  <course>142.57</course>
  <speed>1.099863627910297</speed>
  <fix>3d</fix>
</trkpt>
<trkpt lat="40.0708822" lon="-105.2299264">
  <ele>1583.0</ele>
  <time>2026-08-27T17:17:29Z</time>
  <course>142.91</course>
  <speed>1.1</speed>
  <fix>3d</fix>
</trkpt>
<trkpt lat="40.0708805" lon="-105.2299245">
  <ele>1583.14</ele>
  <time>2026-08-27T17:17:29Z</time>
  <course>140.8</course>
  <speed>1.1119802156513396</speed>
  <fix>3d</fix>
</trkpt>
<trkpt lat="40.0708822" lon="-105.2299264">
  <ele>1583.0</ele>
  <time>2026-08-27T17:17:29Z</time>
  <course>142.91</course>
  <speed>1.1</speed>
  <fix>3d</fix>
</trkpt>
<trkpt lat="40.0708798" lon="-105.2299236">
  <ele>1583.15</ele>
  <time>2026-08-27T17:17:29Z</time>
  <course>138.23</course>
  <speed>1.1173182178770737</speed>
  <fix>3d</fix>
</trkpt>
<trkpt lat="40.0708807" lon="-105.2299248">
  <ele>1583.0</ele>
  <time>2026-08-27T17:17:29Z</time>
  <course>139.57</course>
  <speed>1.11</speed>
  <fix>3d</fix>
</trkpt>
<trkpt lat="40.0708791" lon="-105.2299227">
  <ele>1583.15</ele>
  <time>2026-08-27T17:17:29Z</time>
  <course>136.11</course>
  <speed>1.1317243480636088</speed>
  <fix>3d</fix>
</trkpt>
<trkpt lat="40.0708807" lon="-105.2299248">
  <ele>1583.0</ele>
  <time>2026-08-27T17:17:29Z</time>
  <course>139.57</course>
  <speed>1.11</speed>
  <fix>3d</fix>
</trkpt>
<trkpt lat="40.0708784" lon="-105.2299217">
  <ele>1583.15</ele>
  <time>2026-08-27T17:17:29Z</time>
  <course>134.32</course>
  <speed>1.1402192771568107</speed>
  <fix>3d</fix>
</trkpt>
<trkpt lat="40.0708792" lon="-105.229923">
  <ele>1583.0</ele>
  <time>2026-08-27T17:17:29Z</time>
  <course>135.44</course>
  <speed>1.13</speed>
  <fix>3d</fix>
</trkpt>
<trkpt lat="40.0708775" lon="-105.2299204">
  <ele>1583.15</ele>
  <time>2026-08-27T17:17:29Z</time>
  <course>132.54</course>
  <speed>1.1779643458101778</speed>
  <fix>3d</fix>
</trkpt>
<trkpt lat="40.0708792" lon="-105.229923">
  <ele>1583.0</ele>
  <time>2026-08-27T17:17:29Z</time>
  <course>135.44</course>
  <speed>1.13</speed>
  <fix>3d</fix>
</trkpt>
<trkpt lat="40.0708768" lon="-105.2299194">
  <ele>1583.15</ele>
  <time>2026-08-27T17:17:29Z</time>
  <course>131.3</course>
  <speed>1.1947384651043926</speed>
  <fix>3d</fix>
</trkpt>
<trkpt lat="40.0708778" lon="-105.229921">
  <ele>1583.0</ele>
  <time>2026-08-27T17:17:29Z</time>
  <course>132.09</course>
  <speed>1.17</speed>
  <fix>3d</fix>
</trkpt>
<trkpt lat="40.0708761" lon="-105.2299183">
  <ele>1583.15</ele>
  <time>2026-08-27T17:17:29Z</time>
  <course>130.27</course>
  <speed>1.226132129910965</speed>
  <fix>3d</fix>
</trkpt>
<trkpt lat="40.0708778" lon="-105.229921">
  <ele>1583.0</ele>
  <time>2026-08-27T17:17:29Z</time>
  <course>132.09</course>
  <speed>1.17</speed>
  <fix>3d</fix>
</trkpt>
<trkpt lat="40.0708754" lon="-105.2299171">
  <ele>1583.15</ele>
  <time>2026-08-27T17:17:29Z</time>
  <course>129.39</course>
  <speed>1.2560254774486066</speed>
  <fix>3d</fix>
</trkpt>
<trkpt lat="40.0708763" lon="-105.2299189">
  <ele>1583.0</ele>
  <time>2026-08-27T17:17:29Z</time>
  <course>129.7</course>
  <speed>1.23</speed>
  <fix>3d</fix>
</trkpt>
<trkpt lat="40.0708747" lon="-105.2299159">
  <ele>1583.15</ele>
  <time>2026-08-27T17:17:29Z</time>
  <course>128.66</course>
  <speed>1.2800390619039717</speed>
  <fix>3d</fix>
</trkpt>
<trkpt lat="40.0708763" lon="-105.2299189">
  <ele>1583.0</ele>
  <time>2026-08-27T17:17:29Z</time>
  <course>129.7</course>
  <speed>1.23</speed>
  <fix>3d</fix>
</trkpt>
<trkpt lat="40.070874" lon="-105.2299147">
  <ele>1583.15</ele>
  <time>2026-08-27T17:17:29Z</time>
  <course>128.04</course>
  <speed>1.3101526628603246</speed>
  <fix>3d</fix>
</trkpt>
<trkpt lat="40.070875" lon="-105.2299166">
  <ele>1583.0</ele>
  <time>2026-08-27T17:17:29Z</time>
  <course>128.01</course>
  <speed>1.29</speed>
  <fix>3d</fix>
</trkpt>
<trkpt lat="40.0708733" lon="-105.2299134">
  <ele>1583.14</ele>
  <time>2026-08-27T17:17:29Z</time>
  <course>127.52</course>
  <speed>1.3403357788255896</speed>
  <fix>3d</fix>
</trkpt>
<trkpt lat="40.070875" lon="-105.2299166">
  <ele>1583.0</ele>
  <time>2026-08-27T17:17:29Z</time>
  <course>128.01</course>
  <speed>1.29</speed>
  <fix>3d</fix>
</trkpt>
<trkpt lat="40.0708726" lon="-105.2299121">
  <ele>1583.14</ele>
  <time>2026-08-27T17:17:29Z</time>
  <course>127.09</course>
  <speed>1.3705838172107534</speed>
  <fix>3d</fix>
</trkpt>
<trkpt lat="40.0708735" lon="-105.2299141">
  <ele>1583.0</ele>
  <time>2026-08-27T17:17:29Z</time>
  <course>126.82</course>
  <speed>1.35</speed>
  <fix>3d</fix>
</trkpt>
<trkpt lat="40.0708719" lon="-105.2299108">
  <ele>1583.14</ele>
  <time>2026-08-27T17:17:29Z</time>
  <course>126.73</course>
  <speed>1.3869751259485514</speed>
  <fix>3d</fix>
</trkpt>
<trkpt lat="40.0708735" lon="-105.2299141">
  <ele>1583.0</ele>
  <time>2026-08-27T17:17:29Z</time>
  <course>126.82</course>
  <speed>1.35</speed>
  <fix>3d</fix>
</trkpt>
<trkpt lat="40.0708711" lon="-105.2299095">
  <ele>1583.14</ele>
  <time>2026-08-27T17:17:29Z</time>
  <course>126.43</course>
  <speed>1.4173566946961518</speed>
  <fix>3d</fix>
</trkpt>
<trkpt lat="40.070872" lon="-105.2299115">
  <ele>1583.0</ele>
  <time>2026-08-27T17:17:29Z</time>
  <course>125.98</course>
  <speed>1.4</speed>
  <fix>3d</fix>
</trkpt>
<trkpt lat="40.0708704" lon="-105.2299081">
  <ele>1583.14</ele>
  <time>2026-08-27T17:17:29Z</time>
  <course>126.18</course>
  <speed>1.4395138068111746</speed>
  <fix>3d</fix>
</trkpt>
<trkpt lat="40.070872" lon="-105.2299115">
  <ele>1583.0</ele>
  <time>2026-08-27T17:17:29Z</time>
  <course>125.98</course>
  <speed>1.4</speed>
  <fix>3d</fix>
</trkpt>
<trkpt lat="40.0708696" lon="-105.2299067">
  <ele>1583.14</ele>
  <time>2026-08-27T17:17:29Z</time>
  <course>125.98</course>
  <speed>1.4616771189288007</speed>
  <fix>3d</fix>
</trkpt>
<trkpt lat="40.0708705" lon="-105.2299088">
  <ele>1583.0</ele>
  <time>2026-08-27T17:17:29Z</time>
  <course>125.4</course>
  <speed>1.46</speed>
  <fix>3d</fix>
</trkpt>
<trkpt lat="40.070869" lon="-105.2299056">
  <ele>1583.14</ele>
  <time>2026-08-27T17:17:29Z</time>
  <course>125.85</course>
  <speed>1.475567687366459</speed>
  <fix>3d</fix>
</trkpt>
<trkpt lat="40.0708705" lon="-105.2299088">
  <ele>1583.0</ele>
  <time>2026-08-27T17:17:29Z</time>
  <course>125.4</course>
  <speed>1.46</speed>
  <fix>3d</fix>
</trkpt>
<trkpt lat="40.0708682" lon="-105.2299041">
  <ele>1583.14</ele>
  <time>2026-08-27T17:17:29Z</time>
  <course>125.7</course>
  <speed>1.4977316181479245</speed>
  <fix>3d</fix>
</trkpt>
<trkpt lat="40.070869" lon="-105.2299059">
  <ele>1583.0</ele>
  <time>2026-08-27T17:17:29Z</time>
  <course>125.0</course>
  <speed>1.5</speed>
  <fix>3d</fix>
</trkpt>
<trkpt lat="40.0708674" lon="-105.2299026">
  <ele>1583.14</ele>
  <time>2026-08-27T17:17:29Z</time>
  <course>125.59</course>
  <speed>1.5199013125857876</speed>
  <fix>3d</fix>
</trkpt>
<trkpt lat="40.070869" lon="-105.2299059">
  <ele>1583.0</ele>
  <time>2026-08-27T17:17:29Z</time>
  <course>125.0</course>
  <speed>1.5</speed>
  <fix>3d</fix>
</trkpt>
<trkpt lat="40.0708667" lon="-105.2299012">
  <ele>1583.14</ele>
  <time>2026-08-27T17:17:29Z</time>
  <course>125.49</course>
  <speed>1.5337861650177969</speed>
  <fix>3d</fix>
</trkpt>
<trkpt lat="40.0708674" lon="-105.2299029">
  <ele>1583.0</ele>
  <time>2026-08-27T17:17:29Z</time>
  <course>124.74</course>
  <speed>1.54</speed>
  <fix>3d</fix>
</trkpt>
<trkpt lat="40.0708658" lon="-105.2298996">
  <ele>1583.14</ele>
  <time>2026-08-27T17:17:29Z</time>
  <course>125.43</course>
  <speed>1.5476756766196202</speed>
  <fix>3d</fix>
</trkpt>
<trkpt lat="40.0708674" lon="-105.2299029">
  <ele>1583.0</ele>
  <time>2026-08-27T17:17:29Z</time>
  <course>124.74</course>
  <speed>1.54</speed>
  <fix>3d</fix>
</trkpt>
<trkpt lat="40.070865" lon="-105.2298981">
  <ele>1583.14</ele>
  <time>2026-08-27T17:17:29Z</time>
  <course>125.38</course>
  <speed>1.5698407562552326</speed>
  <fix>3d</fix>
</trkpt>
<trkpt lat="40.0708658" lon="-105.2298999">
  <ele>1583.0</ele>
  <time>2026-08-27T17:17:29Z</time>
  <course>124.57</course>
  <speed>1.58</speed>
  <fix>3d</fix>
</trkpt>
<trkpt lat="40.0708642" lon="-105.2298965">
  <ele>1583.13</ele>
  <time>2026-08-27T17:17:29Z</time>
  <course>125.34</course>
  <speed>1.578131806916013</speed>
  <fix>3d</fix>
</trkpt>
<trkpt lat="40.0708658" lon="-105.2298999">
  <ele>1583.0</ele>
  <time>2026-08-27T17:17:29Z</time>
  <course>124.57</course>
  <speed>1.58</speed>
  <fix>3d</fix>
</trkpt>
<trkpt lat="40.0708634" lon="-105.229895">
  <ele>1583.13</ele>
  <time>2026-08-27T17:17:29Z</time>
  <course>125.32</course>
  <speed>1.5920113064925134</speed>
  <fix>3d</fix>
</trkpt>
<trkpt lat="40.0708642" lon="-105.2298969">
  <ele>1583.0</ele>
  <time>2026-08-27T17:17:29Z</time>
  <course>124.48</course>
  <speed>1.61</speed>
  <fix>3d</fix>
</trkpt>
<trkpt lat="40.0708625" lon="-105.2298934">
  <ele>1583.13</ele>
  <time>2026-08-27T17:17:29Z</time>
  <course>125.31</course>
  <speed>1.6058953888718903</speed>
  <fix>3d</fix>
</trkpt>
<trkpt lat="40.0708642" lon="-105.2298969">
  <ele>1583.0</ele>
  <time>2026-08-27T17:17:29Z</time>
  <course>124.48</course>
  <speed>1.61</speed>
  <fix>3d</fix>
</trkpt>
<trkpt lat="40.0708615" lon="-105.2298915">
  <ele>1583.13</ele>
  <time>2026-08-27T17:17:29Z</time>
  <course>125.31</course>
  <speed>1.6197839362087771</speed>
  <fix>3d</fix>
</trkpt>
<trkpt lat="40.0708625" lon="-105.2298937">
  <ele>1583.0</ele>
  <time>2026-08-27T17:17:29Z</time>
  <course>124.44</course>
  <speed>1.63</speed>
  <fix>3d</fix>
</trkpt>
<trkpt lat="40.0708607" lon="-105.2298899">
  <ele>1583.13</ele>
  <time>2026-08-27T17:17:29Z</time>
  <course>125.31</course>
  <speed>1.6197839362087771</speed>
  <fix>3d</fix>
</trkpt>
<trkpt lat="40.0708625" lon="-105.2298937">
  <ele>1583.0</ele>
  <time>2026-08-27T17:17:29Z</time>
  <course>124.44</course>
  <speed>1.63</speed>
  <fix>3d</fix>
</trkpt>
<trkpt lat="40.0708598" lon="-105.2298882">
  <ele>1583.13</ele>
  <time>2026-08-27T17:17:29Z</time>
  <course>125.31</course>
  <speed>1.6336768346279504</speed>
  <fix>3d</fix>
</trkpt>
<trkpt lat="40.0708609" lon="-105.2298906">
  <ele>1583.0</ele>
  <time>2026-08-27T17:17:29Z</time>
  <course>124.43</course>
  <speed>1.65</speed>
  <fix>3d</fix>
</trkpt>
<trkpt lat="40.0708589" lon="-105.2298866">
  <ele>1583.12</ele>
  <time>2026-08-27T17:17:29Z</time>
  <course>125.33</course>
  <speed>1.63932913107771</speed>
  <fix>3d</fix>
</trkpt>
<trkpt lat="40.0708609" lon="-105.2298906">
  <ele>1583.0</ele>
  <time>2026-08-27T17:17:29Z</time>
  <course>124.43</course>
  <speed>1.65</speed>
  <fix>3d</fix>
</trkpt>
<trkpt lat="40.0708581" lon="-105.229885">
  <ele>1583.13</ele>
  <time>2026-08-27T17:17:29Z</time>
  <course>125.35</course>
  <speed>1.647573974060042</speed>
  <fix>3d</fix>
</trkpt>
<trkpt lat="40.0708592" lon="-105.2298873">
  <ele>1583.0</ele>
  <time>2026-08-27T17:17:29Z</time>
  <course>124.44</course>
  <speed>1.67</speed>
  <fix>3d</fix>
</trkpt>
<trkpt lat="40.0708572" lon="-105.2298834">
  <ele>1583.13</ele>
  <time>2026-08-27T17:17:29Z</time>
  <course>125.39</course>
  <speed>1.6532392446346051</speed>
  <fix>3d</fix>
</trkpt>
<trkpt lat="40.0708592" lon="-105.2298873">
  <ele>1583.0</ele>
  <time>2026-08-27T17:17:29Z</time>
  <course>124.44</course>
  <speed>1.67</speed>
  <fix>3d</fix>
</trkpt>
<trkpt lat="40.0708564" lon="-105.2298818">
  <ele>1583.13</ele>
  <time>2026-08-27T17:17:29Z</time>
  <course>125.43</course>
  <speed>1.6532392446346051</speed>
  <fix>3d</fix>
</trkpt>
<trkpt lat="40.0708574" lon="-105.229884">
  <ele>1583.0</ele>
  <time>2026-08-27T17:17:29Z</time>
  <course>124.5</course>
  <speed>1.68</speed>
  <fix>3d</fix>
</trkpt>
<trkpt lat="40.0708555" lon="-105.2298802">
  <ele>1583.13</ele>
  <time>2026-08-27T17:17:29Z</time>
  <course>125.47</course>
  <speed>1.6614752480852673</speed>
  <fix>3d</fix>
</trkpt>
<trkpt lat="40.0708574" lon="-105.229884">
  <ele>1583.0</ele>
  <time>2026-08-27T17:17:29Z</time>
  <course>124.5</course>
  <speed>1.68</speed>
  <fix>3d</fix>
</trkpt>
<trkpt lat="40.0708546" lon="-105.2298785">
  <ele>1583.13</ele>
  <time>2026-08-27T17:17:29Z</time>
  <course>125.53</course>
  <speed>1.66715326230074</speed>
  <fix>3d</fix>
</trkpt>
<trkpt lat="40.0708557" lon="-105.2298807">
  <ele>1583.0</ele>
  <time>2026-08-27T17:17:29Z</time>
  <course>124.59</course>
  <speed>1.7</speed>
  <fix>3d</fix>
</trkpt>
<trkpt lat="40.0708538" lon="-105.2298769">
  <ele>1583.14</ele>
  <time>2026-08-27T17:17:29Z</time>
  <course>125.6</course>
  <speed>1.66715326230074</speed>
  <fix>3d</fix>
</trkpt>
<trkpt lat="40.0708557" lon="-105.2298807">
  <ele>1583.0</ele>
  <time>2026-08-27T17:17:29Z</time>
  <course>124.59</course>
  <speed>1.7</speed>
  <fix>3d</fix>
</trkpt>
<trkpt lat="40.0708529" lon="-105.2298753">
  <ele>1583.14</ele>
  <time>2026-08-27T17:17:29Z</time>
  <course>125.68</course>
  <speed>1.6728717822953436</speed>
  <fix>3d</fix>
</trkpt>
<trkpt lat="40.070854" lon="-105.2298774">
  <ele>1583.0</ele>
  <time>2026-08-27T17:17:29Z</time>
  <course>124.71</course>
  <speed>1.7</speed>
  <fix>3d</fix>
</trkpt>
<trkpt lat="40.0708522" lon="-105.229874">
  <ele>1583.14</ele>
  <time>2026-08-27T17:17:29Z</time>
  <course>125.74</course>
  <speed>1.6728717822953436</speed>
  <fix>3d</fix>
</trkpt>
<trkpt lat="40.070854" lon="-105.2298774">
  <ele>1583.0</ele>
  <time>2026-08-27T17:17:29Z</time>
  <course>124.71</course>
  <speed>1.7</speed>
  <fix>3d</fix>
</trkpt>
<trkpt lat="40.0708513" lon="-105.2298724">
  <ele>1583.14</ele>
  <time>2026-08-27T17:17:29Z</time>
  <course>125.83</course>
  <speed>1.6646921637347851</speed>
  <fix>3d</fix>
</trkpt>
<trkpt lat="40.0708522" lon="-105.2298742">
  <ele>1583.0</ele>
  <time>2026-08-27T17:17:29Z</time>
  <course>124.87</course>
  <speed>1.71</speed>
  <fix>3d</fix>
</trkpt>
<trkpt lat="40.0708504" lon="-105.2298707">
  <ele>1583.14</ele>
  <time>2026-08-27T17:17:29Z</time>
  <course>125.93</course>
  <speed>1.6704789732289358</speed>
  <fix>3d</fix>
</trkpt>
<trkpt lat="40.0708522" lon="-105.2298742">
  <ele>1583.0</ele>
  <time>2026-08-27T17:17:29Z</time>
  <course>124.87</course>
  <speed>1.71</speed>
  <fix>3d</fix>
</trkpt>
<trkpt lat="40.0708495" lon="-105.2298691">
  <ele>1583.15</ele>
  <time>2026-08-27T17:17:29Z</time>
  <course>126.07</course>
  <speed>1.6704789732289358</speed>
  <fix>3d</fix>
</trkpt>
<trkpt lat="40.0708504" lon="-105.2298708">
  <ele>1583.0</ele>
  <time>2026-08-27T17:17:29Z</time>
  <course>125.07</course>
  <speed>1.71</speed>
  <fix>3d</fix>
</trkpt>
<trkpt lat="40.0708486" lon="-105.2298674">
  <ele>1583.15</ele>
  <time>2026-08-27T17:17:29Z</time>
  <course>126.17</course>
  <speed>1.676305461424021</speed>
  <fix>3d</fix>
</trkpt>
<trkpt lat="40.0708504" lon="-105.2298708">
  <ele>1583.0</ele>
  <time>2026-08-27T17:17:29Z</time>
  <course>125.07</course>
  <speed>1.71</speed>
  <fix>3d</fix>
</trkpt>
<trkpt lat="40.0708477" lon="-105.2298658">
  <ele>1583.15</ele>
  <time>2026-08-27T17:17:29Z</time>
  <course>126.35</course>
  <speed>1.676305461424021</speed>
  <fix>3d</fix>
</trkpt>
<trkpt lat="40.0708487" lon="-105.2298675">
  <ele>1583.0</ele>
  <time>2026-08-27T17:17:29Z</time>
  <course>125.33</course>
  <speed>1.72</speed>
  <fix>3d</fix>
</trkpt>
<trkpt lat="40.0708468" lon="-105.2298641">
  <ele>1583.15</ele>
  <time>2026-08-27T17:17:29Z</time>
  <course>126.53</course>
  <speed>1.6821712160181557</speed>
  <fix>3d</fix>
</trkpt>
<trkpt lat="40.0708487" lon="-105.2298675">
  <ele>1583.0</ele>
  <time>2026-08-27T17:17:29Z</time>
  <course>125.33</course>
  <speed>1.72</speed>
  <fix>3d</fix>
</trkpt>
<trkpt lat="40.0708459" lon="-105.2298625">
  <ele>1583.15</ele>
  <time>2026-08-27T17:17:29Z</time>
  <course>126.8</course>
  <speed>1.6800297616411441</speed>
  <fix>3d</fix>
</trkpt>
<trkpt lat="40.0708468" lon="-105.2298643">
  <ele>1583.0</ele>
  <time>2026-08-27T17:17:29Z</time>
  <course>125.7</course>
  <speed>1.72</speed>
  <fix>3d</fix>
</trkpt>
<trkpt lat="40.0708449" lon="-105.2298608">
  <ele>1583.14</ele>
  <time>2026-08-27T17:17:29Z</time>
  <course>127.21</course>
  <speed>1.6780047675736802</speed>
  <fix>3d</fix>
</trkpt>
<trkpt lat="40.0708468" lon="-105.2298643">
  <ele>1583.0</ele>
  <time>2026-08-27T17:17:29Z</time>
  <course>125.7</course>
  <speed>1.72</speed>
  <fix>3d</fix>
</trkpt>
<trkpt lat="40.070844" lon="-105.2298592">
  <ele>1583.14</ele>
  <time>2026-08-27T17:17:29Z</time>
  <course>127.88</course>
  <speed>1.6760966559241146</speed>
  <fix>3d</fix>
</trkpt>
<trkpt lat="40.0708451" lon="-105.229861">
  <ele>1583.0</ele>
  <time>2026-08-27T17:17:29Z</time>
  <course>126.47</course>
  <speed>1.72</speed>
  <fix>3d</fix>
</trkpt>
<trkpt lat="40.0708428" lon="-105.2298573">
  <ele>1583.14</ele>
  <time>2026-08-27T17:17:29Z</time>
  <course>129.25</course>
  <speed>1.6773789077009404</speed>
  <fix>3d</fix>
</trkpt>
<trkpt lat="40.0708451" lon="-105.229861">
  <ele>1583.0</ele>
  <time>2026-08-27T17:17:29Z</time>
  <course>126.47</course>
  <speed>1.72</speed>
  <fix>3d</fix>
</trkpt>
<trkpt lat="40.0708419" lon="-105.2298557">
  <ele>1583.14</ele>
  <time>2026-08-27T17:17:29Z</time>
  <course>130.38</course>
  <speed>1.6747537132366657</speed>
  <fix>3d</fix>
</trkpt>
<trkpt lat="40.0708432" lon="-105.2298577">
  <ele>1583.0</ele>
  <time>2026-08-27T17:17:29Z</time>
  <course>128.13</course>
  <speed>1.71</speed>
  <fix>3d</fix>
</trkpt>
<trkpt lat="40.0708408" lon="-105.2298542">
  <ele>1583.14</ele>
  <time>2026-08-27T17:17:29Z</time>
  <course>131.93</course>
  <speed>1.6642415690037309</speed>
  <fix>3d</fix>
</trkpt>
<trkpt lat="40.0708432" lon="-105.2298577">
  <ele>1583.0</ele>
  <time>2026-08-27T17:17:29Z</time>
  <course>128.13</course>
  <speed>1.71</speed>
  <fix>3d</fix>
</trkpt>
<trkpt lat="40.0708398" lon="-105.2298527">
  <ele>1583.14</ele>
  <time>2026-08-27T17:17:29Z</time>
  <course>133.8</course>
  <speed>1.6620770138594663</speed>
  <fix>3d</fix>
</trkpt>
<trkpt lat="40.0708413" lon="-105.2298547">
  <ele>1583.0</ele>
  <time>2026-08-27T17:17:29Z</time>
  <course>130.9</course>
  <speed>1.7</speed>
  <fix>3d</fix>
</trkpt>
<trkpt lat="40.0708388" lon="-105.2298513">
  <ele>1583.14</ele>
  <time>2026-08-27T17:17:29Z</time>
  <course>134.95</course>
  <speed>1.647573974060042</speed>
  <fix>3d</fix>
</trkpt>
<trkpt lat="40.0708413" lon="-105.2298547">
  <ele>1583.0</ele>
  <time>2026-08-27T17:17:29Z</time>
  <course>130.9</course>
  <speed>1.7</speed>
  <fix>3d</fix>
</trkpt>
<trkpt lat="40.0708377" lon="-105.2298499">
  <ele>1583.14</ele>
  <time>2026-08-27T17:17:29Z</time>
  <course>134.97</course>
  <speed>1.633431969810803</speed>
  <fix>3d</fix>
</trkpt>
<trkpt lat="40.0708392" lon="-105.2298517">
  <ele>1583.0</ele>
  <time>2026-08-27T17:17:29Z</time>
  <course>133.35</course>
  <speed>1.69</speed>
  <fix>3d</fix>
</trkpt>
<trkpt lat="40.0708366" lon="-105.2298485">
  <ele>1583.13</ele>
  <time>2026-08-27T17:17:29Z</time>
  <course>134.88</course>
  <speed>1.6263455967290594</speed>
  <fix>3d</fix>
</trkpt>
<trkpt lat="40.0708392" lon="-105.2298517">
  <ele>1583.0</ele>
  <time>2026-08-27T17:17:29Z</time>
  <course>133.35</course>
  <speed>1.69</speed>
  <fix>3d</fix>
</trkpt>
<trkpt lat="40.0708356" lon="-105.2298471">
  <ele>1583.13</ele>
  <time>2026-08-27T17:17:29Z</time>
  <course>134.82</course>
  <speed>1.6122034611053282</speed>
  <fix>3d</fix>
</trkpt>
<trkpt lat="40.0708371" lon="-105.2298488">
  <ele>1583.0</ele>
  <time>2026-08-27T17:17:29Z</time>
  <course>134.06</course>
  <speed>1.66</speed>
  <fix>3d</fix>
</trkpt>
<trkpt lat="40.0708346" lon="-105.2298457">
  <ele>1583.14</ele>
  <time>2026-08-27T17:17:29Z</time>
  <course>134.75</course>
  <speed>1.5980613254815976</speed>
  <fix>3d</fix>
</trkpt>
<trkpt lat="40.0708371" lon="-105.2298488">
  <ele>1583.0</ele>
  <time>2026-08-27T17:17:29Z</time>
  <course>134.06</course>
  <speed>1.66</speed>
  <fix>3d</fix>
</trkpt>
<trkpt lat="40.0708336" lon="-105.2298444">
  <ele>1583.14</ele>
  <time>2026-08-27T17:17:29Z</time>
  <course>134.71</course>
  <speed>1.5839191898578664</speed>
  <fix>3d</fix>
</trkpt>
<trkpt lat="40.070835" lon="-105.2298461">
  <ele>1583.0</ele>
  <time>2026-08-27T17:17:29Z</time>
  <course>133.92</course>
  <speed>1.64</speed>
  <fix>3d</fix>
</trkpt>
<trkpt lat="40.0708326" lon="-105.229843">
  <ele>1583.14</ele>
  <time>2026-08-27T17:17:29Z</time>
  <course>134.66</course>
  <speed>1.5768639763784318</speed>
  <fix>3d</fix>
</trkpt>
<trkpt lat="40.070835" lon="-105.2298461">
  <ele>1583.0</ele>
  <time>2026-08-27T17:17:29Z</time>
  <course>133.92</course>
  <speed>1.64</speed>
  <fix>3d</fix>
</trkpt>
<trkpt lat="40.0708318" lon="-105.2298419">
  <ele>1583.14</ele>
  <time>2026-08-27T17:17:29Z</time>
  <course>134.62</course>
  <speed>1.5627219842313604</speed>
  <fix>3d</fix>
</trkpt>
<trkpt lat="40.0708329" lon="-105.2298433">
  <ele>1583.0</ele>
  <time>2026-08-27T17:17:29Z</time>
  <course>133.82</course>
  <speed>1.62</speed>
  <fix>3d</fix>
</trkpt>
<trkpt lat="40.0708308" lon="-105.2298406">
  <ele>1583.13</ele>
  <time>2026-08-27T17:17:29Z</time>
  <course>134.58</course>
  <speed>1.5627219842313604</speed>
  <fix>3d</fix>
</trkpt>
<trkpt lat="40.0708329" lon="-105.2298433">
  <ele>1583.0</ele>
  <time>2026-08-27T17:17:29Z</time>
  <course>133.82</course>
  <speed>1.62</speed>
  <fix>3d</fix>
</trkpt>
<trkpt lat="40.0708298" lon="-105.2298392">
  <ele>1583.13</ele>
  <time>2026-08-27T17:17:29Z</time>
  <course>134.54</course>
  <speed>1.5485799947048264</speed>
  <fix>3d</fix>
</trkpt>
<trkpt lat="40.070831" lon="-105.2298406">
  <ele>1583.0</ele>
  <time>2026-08-27T17:17:29Z</time>
  <course>133.73</course>
  <speed>1.6</speed>
  <fix>3d</fix>
</trkpt>
<trkpt lat="40.0708288" lon="-105.2298379">
  <ele>1583.13</ele>
  <time>2026-08-27T17:17:29Z</time>
  <course>134.51</course>
  <speed>1.5485799947048264</speed>
  <fix>3d</fix>
</trkpt>
<trkpt lat="40.070831" lon="-105.2298406">
  <ele>1583.0</ele>
  <time>2026-08-27T17:17:29Z</time>
  <course>133.73</course>
  <speed>1.6</speed>
  <fix>3d</fix>
</trkpt>
<trkpt lat="40.0708278" lon="-105.2298366">
  <ele>1583.13</ele>
  <time>2026-08-27T17:17:29Z</time>
  <course>134.48</course>
  <speed>1.5344380078712856</speed>
  <fix>3d</fix>
</trkpt>
<trkpt lat="40.070829" lon="-105.2298379">
  <ele>1583.0</ele>
  <time>2026-08-27T17:17:29Z</time>
  <course>133.66</course>
  <speed>1.58</speed>
  <fix>3d</fix>
</trkpt>
<trkpt lat="40.0708268" lon="-105.2298352">
  <ele>1583.13</ele>
  <time>2026-08-27T17:17:29Z</time>
  <course>134.46</course>
  <speed>1.5344380078712856</speed>
  <fix>3d</fix>
</trkpt>
<trkpt lat="40.070829" lon="-105.2298379">
  <ele>1583.0</ele>
  <time>2026-08-27T17:17:29Z</time>
  <course>133.66</course>
  <speed>1.58</speed>
  <fix>3d</fix>
</trkpt>
<trkpt lat="40.0708258" lon="-105.2298339">
  <ele>1583.12</ele>
  <time>2026-08-27T17:17:29Z</time>
  <course>134.44</course>
  <speed>1.5274161188098023</speed>
  <fix>3d</fix>
</trkpt>
<trkpt lat="40.070827" lon="-105.2298352">
  <ele>1583.0</ele>
  <time>2026-08-27T17:17:29Z</time>
  <course>133.62</course>
  <speed>1.57</speed>
  <fix>3d</fix>
</trkpt>
<trkpt lat="40.0708248" lon="-105.2298325">
  <ele>1583.12</ele>
  <time>2026-08-27T17:17:29Z</time>
  <course>134.41</course>
  <speed>1.52029602380589</speed>
  <fix>3d</fix>
</trkpt>
<trkpt lat="40.070827" lon="-105.2298352">
  <ele>1583.0</ele>
  <time>2026-08-27T17:17:29Z</time>
  <course>133.62</course>
  <speed>1.57</speed>
  <fix>3d</fix>
</trkpt>
<trkpt lat="40.0708239" lon="-105.2298312">
  <ele>1583.12</ele>
  <time>2026-08-27T17:17:29Z</time>
  <course>134.39</course>
  <speed>1.52029602380589</speed>
  <fix>3d</fix>
</trkpt>
<trkpt lat="40.0708251" lon="-105.2298325">
  <ele>1583.0</ele>
  <time>2026-08-27T17:17:29Z</time>
  <course>133.57</course>
  <speed>1.56</speed>
  <fix>3d</fix>
</trkpt>
<trkpt lat="40.0708229" lon="-105.2298299">
  <ele>1583.12</ele>
  <time>2026-08-27T17:17:29Z</time>
  <course>134.37</course>
  <speed>1.52029602380589</speed>
  <fix>3d</fix>
</trkpt>
<trkpt lat="40.0708251" lon="-105.2298325">
  <ele>1583.0</ele>
  <time>2026-08-27T17:17:29Z</time>
  <course>133.57</course>
  <speed>1.56</speed>
  <fix>3d</fix>
</trkpt>
<trkpt lat="40.0708217" lon="-105.2298283">
  <ele>1583.12</ele>
  <time>2026-08-27T17:17:29Z</time>
  <course>134.34</course>
  <speed>1.5132745950421558</speed>
  <fix>3d</fix>
</trkpt>
<trkpt lat="40.0708231" lon="-105.2298299">
  <ele>1583.0</ele>
  <time>2026-08-27T17:17:29Z</time>
  <course>133.53</course>
  <speed>1.55</speed>
  <fix>3d</fix>
</trkpt>
<trkpt lat="40.0708208" lon="-105.229827">
  <ele>1583.12</ele>
  <time>2026-08-27T17:17:29Z</time>
  <course>134.32</course>
  <speed>1.5132745950421558</speed>
  <fix>3d</fix>
</trkpt>
<trkpt lat="40.0708231" lon="-105.2298299">
  <ele>1583.0</ele>
  <time>2026-08-27T17:17:29Z</time>
  <course>133.53</course>
  <speed>1.55</speed>
  <fix>3d</fix>
</trkpt>
<trkpt lat="40.0708198" lon="-105.2298257">
  <ele>1583.12</ele>
  <time>2026-08-27T17:17:29Z</time>
  <course>134.3</course>
  <speed>1.5132745950421558</speed>
  <fix>3d</fix>
</trkpt>
<trkpt lat="40.0708212" lon="-105.2298272">
  <ele>1583.0</ele>
  <time>2026-08-27T17:17:29Z</time>
  <course>133.49</course>
  <speed>1.55</speed>
  <fix>3d</fix>
</trkpt>
<trkpt lat="40.0708188" lon="-105.2298243">
  <ele>1583.12</ele>
  <time>2026-08-27T17:17:29Z</time>
  <course>134.28</course>
  <speed>1.5061540425866142</speed>
  <fix>3d</fix>
</trkpt>
<trkpt lat="40.0708212" lon="-105.2298272">
  <ele>1583.0</ele>
  <time>2026-08-27T17:17:29Z</time>
  <course>133.49</course>
  <speed>1.55</speed>
  <fix>3d</fix>
</trkpt>
<trkpt lat="40.0708179" lon="-105.229823">
  <ele>1583.12</ele>
  <time>2026-08-27T17:17:29Z</time>
  <course>134.27</course>
  <speed>1.5061540425866142</speed>
  <fix>3d</fix>
</trkpt>
<trkpt lat="40.0708193" lon="-105.2298246">
  <ele>1583.0</ele>
  <time>2026-08-27T17:17:29Z</time>
  <course>133.46</course>
  <speed>1.54</speed>
  <fix>3d</fix>
</trkpt>
<trkpt lat="40.0708169" lon="-105.2298217">
  <ele>1583.12</ele>
  <time>2026-08-27T17:17:29Z</time>
  <course>134.26</course>
  <speed>1.5061540425866142</speed>
  <fix>3d</fix>
</trkpt>
<trkpt lat="40.0708193" lon="-105.2298246">
  <ele>1583.0</ele>
  <time>2026-08-27T17:17:29Z</time>
  <course>133.46</course>
  <speed>1.54</speed>
  <fix>3d</fix>
</trkpt>
<trkpt lat="40.070816" lon="-105.2298204">
  <ele>1583.12</ele>
  <time>2026-08-27T17:17:29Z</time>
  <course>134.26</course>
  <speed>1.4991330828182001</speed>
  <fix>3d</fix>
</trkpt>
<trkpt lat="40.0708174" lon="-105.2298219">
  <ele>1583.0</ele>
  <time>2026-08-27T17:17:29Z</time>
  <course>133.44</course>
  <speed>1.54</speed>
  <fix>3d</fix>
</trkpt>
<trkpt lat="40.070815" lon="-105.2298191">
  <ele>1583.11</ele>
  <time>2026-08-27T17:17:29Z</time>
  <course>134.25</course>
  <speed>1.4991330828182001</speed>
  <fix>3d</fix>
</trkpt>
<trkpt lat="40.0708174" lon="-105.2298219">
  <ele>1583.0</ele>
  <time>2026-08-27T17:17:29Z</time>
  <course>133.44</course>
  <speed>1.54</speed>
  <fix>3d</fix>
</trkpt>
<trkpt lat="40.0708141" lon="-105.2298178">
  <ele>1583.11</ele>
  <time>2026-08-27T17:17:29Z</time>
  <course>134.25</course>
  <speed>1.4991330828182001</speed>
  <fix>3d</fix>
</trkpt>
<trkpt lat="40.0708155" lon="-105.2298193">
  <ele>1583.0</ele>
  <time>2026-08-27T17:17:29Z</time>
  <course>133.43</course>
  <speed>1.54</speed>
  <fix>3d</fix>
</trkpt>
<trkpt lat="40.0708131" lon="-105.2298165">
  <ele>1583.11</ele>
  <time>2026-08-27T17:17:29Z</time>
  <course>134.24</course>
  <speed>1.4991330828182001</speed>
  <fix>3d</fix>
</trkpt>
<trkpt lat="40.0708155" lon="-105.2298193">
  <ele>1583.0</ele>
  <time>2026-08-27T17:17:29Z</time>
  <course>133.43</course>
  <speed>1.54</speed>
  <fix>3d</fix>
</trkpt>
<trkpt lat="40.0708122" lon="-105.2298152">
  <ele>1583.11</ele>
  <time>2026-08-27T17:17:29Z</time>
  <course>134.24</course>
  <speed>1.4991330828182001</speed>
  <fix>3d</fix>
</trkpt>
<trkpt lat="40.0708136" lon="-105.2298166">
  <ele>1583.0</ele>
  <time>2026-08-27T17:17:29Z</time>
  <course>133.41</course>
  <speed>1.53</speed>
  <fix>3d</fix>
</trkpt>
<trkpt lat="40.0708115" lon="-105.2298142">
  <ele>1583.11</ele>
  <time>2026-08-27T17:17:29Z</time>
  <course>134.23</course>
  <speed>1.4991330828182001</speed>
  <fix>3d</fix>
</trkpt>
<trkpt lat="40.0708136" lon="-105.2298166">
  <ele>1583.0</ele>
  <time>2026-08-27T17:17:29Z</time>
  <course>133.41</course>
  <speed>1.53</speed>
  <fix>3d</fix>
</trkpt>
<trkpt lat="40.0708105" lon="-105.2298129">
  <ele>1583.11</ele>
  <time>2026-08-27T17:17:29Z</time>
  <course>134.23</course>
  <speed>1.4991330828182001</speed>
  <fix>3d</fix>
</trkpt>
<trkpt lat="40.0708117" lon="-105.2298141">
  <ele>1583.0</ele>
  <time>2026-08-27T17:17:29Z</time>
  <course>133.41</course>
  <speed>1.53</speed>
  <fix>3d</fix>
</trkpt>
<trkpt lat="40.0708096" lon="-105.2298115">
  <ele>1583.11</ele>
  <time>2026-08-27T17:17:29Z</time>
  <course>134.22</course>
  <speed>1.4991330828182001</speed>
  <fix>3d</fix>
</trkpt>
<trkpt lat="40.0708117" lon="-105.2298141">
  <ele>1583.0</ele>
  <time>2026-08-27T17:17:29Z</time>
  <course>133.41</course>
  <speed>1.53</speed>
  <fix>3d</fix>
</trkpt>
<trkpt lat="40.0708086" lon="-105.2298102">
  <ele>1583.12</ele>
  <time>2026-08-27T17:17:29Z</time>
  <course>134.22</course>
  <speed>1.4991330828182001</speed>
  <fix>3d</fix>
</trkpt>
<trkpt lat="40.0708098" lon="-105.2298114">
  <ele>1583.0</ele>
  <time>2026-08-27T17:17:29Z</time>
  <course>133.4</course>
  <speed>1.53</speed>
  <fix>3d</fix>
</trkpt>
<trkpt lat="40.0708077" lon="-105.2298089">
  <ele>1583.12</ele>
  <time>2026-08-27T17:17:29Z</time>
  <course>134.95</course>
  <speed>1.4920120642943877</speed>
  <fix>3d</fix>
</trkpt>
<trkpt lat="40.0708098" lon="-105.2298114">
  <ele>1583.0</ele>
  <time>2026-08-27T17:17:29Z</time>
  <course>133.4</course>
  <speed>1.53</speed>
  <fix>3d</fix>
</trkpt>
<trkpt lat="40.0708067" lon="-105.2298077">
  <ele>1583.12</ele>
  <time>2026-08-27T17:17:29Z</time>
  <course>136.86</course>
  <speed>1.4928161306738348</speed>
  <fix>3d</fix>
</trkpt>
<trkpt lat="40.0708079" lon="-105.2298089">
  <ele>1583.0</ele>
  <time>2026-08-27T17:17:29Z</time>
  <course>134.72</course>
  <speed>1.53</speed>
  <fix>3d</fix>
</trkpt>
<trkpt lat="40.0708057" lon="-105.2298064">
  <ele>1583.13</ele>
  <time>2026-08-27T17:17:29Z</time>
  <course>139.86</course>
  <speed>1.4839474384222644</speed>
  <fix>3d</fix>
</trkpt>
<trkpt lat="40.0708079" lon="-105.2298089">
  <ele>1583.0</ele>
  <time>2026-08-27T17:17:29Z</time>
  <course>134.72</course>
  <speed>1.53</speed>
  <fix>3d</fix>
</trkpt>
<trkpt lat="40.0708046" lon="-105.2298053">
  <ele>1583.13</ele>
  <time>2026-08-27T17:17:29Z</time>
  <course>144.01</course>
  <speed>1.4844864431849825</speed>
  <fix>3d</fix>
</trkpt>
<trkpt lat="40.0708059" lon="-105.2298064">
  <ele>1583.0</ele>
  <time>2026-08-27T17:17:29Z</time>
  <course>139.6</course>
  <speed>1.52</speed>
  <fix>3d</fix>
</trkpt>
<trkpt lat="40.0708035" lon="-105.2298043">
  <ele>1583.13</ele>
  <time>2026-08-27T17:17:29Z</time>
  <course>149.2</course>
  <speed>1.469863939281456</speed>
  <fix>3d</fix>
</trkpt>
<trkpt lat="40.0708059" lon="-105.2298064">
  <ele>1583.0</ele>
  <time>2026-08-27T17:17:29Z</time>
  <course>139.6</course>
  <speed>1.52</speed>
  <fix>3d</fix>
</trkpt>
<trkpt lat="40.0708023" lon="-105.2298035">
  <ele>1583.14</ele>
  <time>2026-08-27T17:17:29Z</time>
  <course>154.74</course>
  <speed>1.4408677940741128</speed>
  <fix>3d</fix>
</trkpt>
<trkpt lat="40.0708037" lon="-105.2298043">
  <ele>1583.0</ele>
  <time>2026-08-27T17:17:29Z</time>
  <course>148.48</course>
  <speed>1.49</speed>
  <fix>3d</fix>
</trkpt>
<trkpt lat="40.0708008" lon="-105.2298027">
  <ele>1583.14</ele>
  <time>2026-08-27T17:17:29Z</time>
  <course>161.33</course>
  <speed>1.3947401191619893</speed>
  <fix>3d</fix>
</trkpt>
<trkpt lat="40.0708037" lon="-105.2298043">
  <ele>1583.0</ele>
  <time>2026-08-27T17:17:29Z</time>
  <course>148.48</course>
  <speed>1.49</speed>
  <fix>3d</fix>
</trkpt>
<trkpt lat="40.0707996" lon="-105.2298023">
  <ele>1583.14</ele>
  <time>2026-08-27T17:17:29Z</time>
  <course>166.82</course>
  <speed>1.3493702234746399</speed>
  <fix>3d</fix>
</trkpt>
<trkpt lat="40.0708014" lon="-105.2298027">
  <ele>1583.0</ele>
  <time>2026-08-27T17:17:29Z</time>
  <course>159.25</course>
  <speed>1.42</speed>
  <fix>3d</fix>
</trkpt>
<trkpt lat="40.0707984" lon="-105.229802">
  <ele>1583.14</ele>
  <time>2026-08-27T17:17:29Z</time>
  <course>172.31</course>
  <speed>1.2975746606650425</speed>
  <fix>3d</fix>
</trkpt>
<trkpt lat="40.0708014" lon="-105.2298027">
  <ele>1583.0</ele>
  <time>2026-08-27T17:17:29Z</time>
  <course>159.25</course>
  <speed>1.42</speed>
  <fix>3d</fix>
</trkpt>
<trkpt lat="40.0707973" lon="-105.2298019">
  <ele>1583.14</ele>
  <time>2026-08-27T17:17:29Z</time>
  <course>177.79</course>
  <speed>1.2400403219250575</speed>
  <fix>3d</fix>
</trkpt>
<trkpt lat="40.070799" lon="-105.2298019">
  <ele>1583.0</ele>
  <time>2026-08-27T17:17:29Z</time>
  <course>170.17</course>
  <speed>1.32</speed>
  <fix>3d</fix>
</trkpt>
<trkpt lat="40.0707962" lon="-105.2298019">
  <ele>1583.14</ele>
  <time>2026-08-27T17:17:29Z</time>
  <course>183.27</course>
  <speed>1.184229707446997</speed>
  <fix>3d</fix>
</trkpt>
<trkpt lat="40.070799" lon="-105.2298019">
  <ele>1583.0</ele>
  <time>2026-08-27T17:17:29Z</time>
  <course>170.17</course>
  <speed>1.32</speed>
  <fix>3d</fix>
</trkpt>
<trkpt lat="40.0707951" lon="-105.2298021">
  <ele>1583.14</ele>
  <time>2026-08-27T17:17:29Z</time>
  <course>188.74</course>
  <speed>1.1278741064498288</speed>
  <fix>3d</fix>
</trkpt>
<trkpt lat="40.0707967" lon="-105.2298017">
  <ele>1583.0</ele>
  <time>2026-08-27T17:17:29Z</time>
  <course>181.12</course>
  <speed>1.21</speed>
  <fix>3d</fix>
</trkpt>
<trkpt lat="40.0707942" lon="-105.2298024">
  <ele>1583.14</ele>
  <time>2026-08-27T17:17:29Z</time>
  <course>194.2</course>
  <speed>1.0920164833920778</speed>
  <fix>3d</fix>
</trkpt>
<trkpt lat="40.0707967" lon="-105.2298017">
  <ele>1583.0</ele>
  <time>2026-08-27T17:17:29Z</time>
  <course>181.12</course>
  <speed>1.21</speed>
  <fix>3d</fix>
</trkpt>
<trkpt lat="40.0707932" lon="-105.2298027">
  <ele>1583.14</ele>
  <time>2026-08-27T17:17:29Z</time>
  <course>199.27</course>
  <speed>1.064048871058092</speed>
  <fix>3d</fix>
</trkpt>
<trkpt lat="40.0707946" lon="-105.2298019">
  <ele>1583.0</ele>
  <time>2026-08-27T17:17:29Z</time>
  <course>192.04</course>
  <speed>1.11</speed>
  <fix>3d</fix>
</trkpt>
<trkpt lat="40.0707924" lon="-105.2298031">
  <ele>1583.14</ele>
  <time>2026-08-27T17:17:29Z</time>
  <course>203.46</course>
  <speed>1.0511898020814319</speed>
  <fix>3d</fix>
</trkpt>
<trkpt lat="40.0707946" lon="-105.2298019">
  <ele>1583.0</ele>
  <time>2026-08-27T17:17:29Z</time>
  <course>192.04</course>
  <speed>1.11</speed>
  <fix>3d</fix>
</trkpt>
<trkpt lat="40.0707915" lon="-105.2298037">
  <ele>1583.14</ele>
  <time>2026-08-27T17:17:29Z</time>
  <course>206.99</course>
  <speed>1.0519030373565805</speed>
  <fix>3d</fix>
</trkpt>
<trkpt lat="40.0707927" lon="-105.2298026">
  <ele>1583.0</ele>
  <time>2026-08-27T17:17:29Z</time>
  <course>201.51</course>
  <speed>1.06</speed>
  <fix>3d</fix>
</trkpt>
<trkpt lat="40.0707907" lon="-105.2298043">
  <ele>1583.14</ele>
  <time>2026-08-27T17:17:29Z</time>
  <course>209.95</course>
  <speed>1.05152270541344</speed>
  <fix>3d</fix>
</trkpt>
<trkpt lat="40.0707927" lon="-105.2298026">
  <ele>1583.0</ele>
  <time>2026-08-27T17:17:29Z</time>
  <course>201.51</course>
  <speed>1.06</speed>
  <fix>3d</fix>
</trkpt>
<trkpt lat="40.0707901" lon="-105.2298048">
  <ele>1583.14</ele>
  <time>2026-08-27T17:17:29Z</time>
  <course>211.98</course>
  <speed>1.0594810050208545</speed>
  <fix>3d</fix>
</trkpt>
<trkpt lat="40.070791" lon="-105.2298037">
  <ele>1583.0</ele>
  <time>2026-08-27T17:17:29Z</time>
  <course>208.37</course>
  <speed>1.05</speed>
  <fix>3d</fix>
</trkpt>
<trkpt lat="40.0707893" lon="-105.2298055">
  <ele>1583.14</ele>
  <time>2026-08-27T17:17:29Z</time>
  <course>214.12</course>
  <speed>1.0660675400742676</speed>
  <fix>3d</fix>
</trkpt>
<trkpt lat="40.070791" lon="-105.2298037">
  <ele>1583.0</ele>
  <time>2026-08-27T17:17:29Z</time>
  <course>208.37</course>
  <speed>1.05</speed>
  <fix>3d</fix>
</trkpt>
<trkpt lat="40.0707885" lon="-105.2298062">
  <ele>1583.14</ele>
  <time>2026-08-27T17:17:29Z</time>
  <course>215.69</course>
  <speed>1.0700467279516348</speed>
  <fix>3d</fix>
</trkpt>
<trkpt lat="40.0707893" lon="-105.229805">
  <ele>1583.0</ele>
  <time>2026-08-27T17:17:29Z</time>
  <course>213.04</course>
  <speed>1.06</speed>
  <fix>3d</fix>
</trkpt>
<trkpt lat="40.0707877" lon="-105.2298069">
  <ele>1583.14</ele>
  <time>2026-08-27T17:17:29Z</time>
  <course>216.22</course>
  <speed>1.0761505470890214</speed>
  <fix>3d</fix>
</trkpt>
<trkpt lat="40.0707893" lon="-105.229805">
  <ele>1583.0</ele>
  <time>2026-08-27T17:17:29Z</time>
  <course>213.04</course>
  <speed>1.06</speed>
  <fix>3d</fix>
</trkpt>
<trkpt lat="40.0707869" lon="-105.2298077">
  <ele>1583.14</ele>
  <time>2026-08-27T17:17:29Z</time>
  <course>217.47</course>
  <speed>1.0870602559196063</speed>
  <fix>3d</fix>
</trkpt>
<trkpt lat="40.0707878" lon="-105.2298064">
  <ele>1583.0</ele>
  <time>2026-08-27T17:17:29Z</time>
  <course>215.79</course>
  <speed>1.07</speed>
  <fix>3d</fix>
</trkpt>
<trkpt lat="40.0707861" lon="-105.2298085">
  <ele>1583.14</ele>
  <time>2026-08-27T17:17:29Z</time>
  <course>218.73</course>
  <speed>1.0922453936730518</speed>
  <fix>3d</fix>
</trkpt>
<trkpt lat="40.0707878" lon="-105.2298064">
  <ele>1583.0</ele>
  <time>2026-08-27T17:17:29Z</time>
  <course>215.79</course>
  <speed>1.07</speed>
  <fix>3d</fix>
</trkpt>
<trkpt lat="40.0707854" lon="-105.2298093">
  <ele>1583.14</ele>
  <time>2026-08-27T17:17:29Z</time>
  <course>219.73</course>
  <speed>1.105350623105628</speed>
  <fix>3d</fix>
</trkpt>
<trkpt lat="40.0707862" lon="-105.2298079">
  <ele>1583.0</ele>
  <time>2026-08-27T17:17:29Z</time>
  <course>217.81</course>
  <speed>1.09</speed>
  <fix>3d</fix>
</trkpt>
<trkpt lat="40.0707846" lon="-105.2298101">
  <ele>1583.14</ele>
  <time>2026-08-27T17:17:29Z</time>
  <course>220.58</course>
  <speed>1.118659912573969</speed>
  <fix>3d</fix>
</trkpt>
<trkpt lat="40.0707862" lon="-105.2298079">
  <ele>1583.0</ele>
  <time>2026-08-27T17:17:29Z</time>
  <course>217.81</course>
  <speed>1.09</speed>
  <fix>3d</fix>
</trkpt>
<trkpt lat="40.0707838" lon="-105.229811">
  <ele>1583.13</ele>
  <time>2026-08-27T17:17:29Z</time>
  <course>221.28</course>
  <speed>1.1321660655575223</speed>
  <fix>3d</fix>
</trkpt>
<trkpt lat="40.0707847" lon="-105.2298096">
  <ele>1583.0</ele>
  <time>2026-08-27T17:17:29Z</time>
  <course>219.72</course>
  <speed>1.11</speed>
  <fix>3d</fix>
</trkpt>
<trkpt lat="40.0707831" lon="-105.2298119">
  <ele>1583.13</ele>
  <time>2026-08-27T17:17:29Z</time>
  <course>221.87</course>
  <speed>1.153126185636247</speed>
  <fix>3d</fix>
</trkpt>
<trkpt lat="40.0707847" lon="-105.2298096">
  <ele>1583.0</ele>
  <time>2026-08-27T17:17:29Z</time>
  <course>219.72</course>
  <speed>1.11</speed>
  <fix>3d</fix>
</trkpt>
<trkpt lat="40.0707821" lon="-105.229813">
  <ele>1583.13</ele>
  <time>2026-08-27T17:17:29Z</time>
  <course>222.44</course>
  <speed>1.1741379816699569</speed>
  <fix>3d</fix>
</trkpt>
<trkpt lat="40.0707831" lon="-105.2298113">
  <ele>1583.0</ele>
  <time>2026-08-27T17:17:29Z</time>
  <course>221.03</course>
  <speed>1.14</speed>
  <fix>3d</fix>
</trkpt>
<trkpt lat="40.0707813" lon="-105.2298139">
  <ele>1583.13</ele>
  <time>2026-08-27T17:17:29Z</time>
  <course>222.83</course>
  <speed>1.188276062201036</speed>
  <fix>3d</fix>
</trkpt>
<trkpt lat="40.0707831" lon="-105.2298113">
  <ele>1583.0</ele>
  <time>2026-08-27T17:17:29Z</time>
  <course>221.03</course>
  <speed>1.14</speed>
  <fix>3d</fix>
</trkpt>
<trkpt lat="40.0707805" lon="-105.2298148">
  <ele>1583.13</ele>
  <time>2026-08-27T17:17:29Z</time>
  <course>223.16</course>
  <speed>1.2093386622447826</speed>
  <fix>3d</fix>
</trkpt>
<trkpt lat="40.0707816" lon="-105.2298131">
  <ele>1583.0</ele>
  <time>2026-08-27T17:17:29Z</time>
  <course>221.94</course>
  <speed>1.18</speed>
  <fix>3d</fix>
</trkpt>
<trkpt lat="40.0707797" lon="-105.2298158">
  <ele>1583.13</ele>
  <time>2026-08-27T17:17:29Z</time>
  <course>223.42</course>
  <speed>1.2304470732217618</speed>
  <fix>3d</fix>
</trkpt>
<trkpt lat="40.0707816" lon="-105.2298131">
  <ele>1583.0</ele>
  <time>2026-08-27T17:17:29Z</time>
  <course>221.94</course>
  <speed>1.18</speed>
  <fix>3d</fix>
</trkpt>
<trkpt lat="40.0707789" lon="-105.2298168">
  <ele>1583.12</ele>
  <time>2026-08-27T17:17:29Z</time>
  <course>223.64</course>
  <speed>1.2445882853377659</speed>
  <fix>3d</fix>
</trkpt>
<trkpt lat="40.07078" lon="-105.229815">
  <ele>1583.0</ele>
  <time>2026-08-27T17:17:29Z</time>
  <course>222.56</course>
  <speed>1.21</speed>
  <fix>3d</fix>
</trkpt>
<trkpt lat="40.0707781" lon="-105.2298178">
  <ele>1583.12</ele>
  <time>2026-08-27T17:17:29Z</time>
  <course>223.82</course>
  <speed>1.2657408897558773</speed>
  <fix>3d</fix>
</trkpt>
<trkpt lat="40.07078" lon="-105.229815">
  <ele>1583.0</ele>
  <time>2026-08-27T17:17:29Z</time>
  <course>222.56</course>
  <speed>1.21</speed>
  <fix>3d</fix>
</trkpt>
<trkpt lat="40.0707773" lon="-105.2298188">
  <ele>1583.12</ele>
  <time>2026-08-27T17:17:29Z</time>
  <course>223.98</course>
  <speed>1.279882807135091</speed>
  <fix>3d</fix>
</trkpt>
<trkpt lat="40.0707783" lon="-105.229817">
  <ele>1583.0</ele>
  <time>2026-08-27T17:17:29Z</time>
  <course>222.99</course>
  <speed>1.25</speed>
  <fix>3d</fix>
</trkpt>
<trkpt lat="40.0707764" lon="-105.2298198">
  <ele>1583.12</ele>
  <time>2026-08-27T17:17:29Z</time>
  <course>224.1</course>
  <speed>1.2940247292845684</speed>
  <fix>3d</fix>
</trkpt>
<trkpt lat="40.0707783" lon="-105.229817">
  <ele>1583.0</ele>
  <time>2026-08-27T17:17:29Z</time>
  <course>222.99</course>
  <speed>1.25</speed>
  <fix>3d</fix>
</trkpt>
<trkpt lat="40.0707756" lon="-105.2298209">
  <ele>1583.12</ele>
  <time>2026-08-27T17:17:29Z</time>
  <course>224.21</course>
  <speed>1.308166656049603</speed>
  <fix>3d</fix>
</trkpt>
<trkpt lat="40.0707767" lon="-105.229819">
  <ele>1583.0</ele>
  <time>2026-08-27T17:17:29Z</time>
  <course>223.28</course>
  <speed>1.28</speed>
  <fix>3d</fix>
</trkpt>
<trkpt lat="40.0707747" lon="-105.2298219">
  <ele>1583.12</ele>
  <time>2026-08-27T17:17:29Z</time>
  <course>224.29</course>
  <speed>1.3223085872821065</speed>
  <fix>3d</fix>
</trkpt>
<trkpt lat="40.0707767" lon="-105.229819">
  <ele>1583.0</ele>
  <time>2026-08-27T17:17:29Z</time>
  <course>223.28</course>
  <speed>1.28</speed>
  <fix>3d</fix>
</trkpt>
<trkpt lat="40.0707739" lon="-105.229823">
  <ele>1583.12</ele>
  <time>2026-08-27T17:17:29Z</time>
  <course>224.36</course>
  <speed>1.3364505228402583</speed>
  <fix>3d</fix>
</trkpt>
<trkpt lat="40.070775" lon="-105.2298211">
  <ele>1583.0</ele>
  <time>2026-08-27T17:17:29Z</time>
  <course>223.48</course>
  <speed>1.31</speed>
  <fix>3d</fix>
</trkpt>
<trkpt lat="40.0707732" lon="-105.2298238">
  <ele>1583.12</ele>
  <time>2026-08-27T17:17:29Z</time>
  <course>224.41</course>
  <speed>1.3505924625881784</speed>
  <fix>3d</fix>
</trkpt>
<trkpt lat="40.070775" lon="-105.2298211">
  <ele>1583.0</ele>
  <time>2026-08-27T17:17:29Z</time>
  <course>223.48</course>
  <speed>1.31</speed>
  <fix>3d</fix>
</trkpt>
<trkpt lat="40.0707723" lon="-105.2298249">
  <ele>1583.12</ele>
  <time>2026-08-27T17:17:29Z</time>
  <course>224.46</course>
  <speed>1.3577186748365804</speed>
  <fix>3d</fix>
</trkpt>
<trkpt lat="40.0707733" lon="-105.2298232">
  <ele>1583.0</ele>
  <time>2026-08-27T17:17:29Z</time>
  <course>223.62</course>
  <speed>1.34</speed>
  <fix>3d</fix>
</trkpt>
<trkpt lat="40.0707714" lon="-105.229826">
  <ele>1583.12</ele>
  <time>2026-08-27T17:17:29Z</time>
  <course>224.49</course>
  <speed>1.364734406395618</speed>
  <fix>3d</fix>
</trkpt>
<trkpt lat="40.0707733" lon="-105.2298232">
  <ele>1583.0</ele>
  <time>2026-08-27T17:17:29Z</time>
  <course>223.62</course>
  <speed>1.34</speed>
  <fix>3d</fix>
</trkpt>
<trkpt lat="40.0707705" lon="-105.2298271">
  <ele>1583.12</ele>
  <time>2026-08-27T17:17:29Z</time>
  <course>224.53</course>
  <speed>1.3788763541376725</speed>
  <fix>3d</fix>
</trkpt>
<trkpt lat="40.0707714" lon="-105.2298255">
  <ele>1583.0</ele>
  <time>2026-08-27T17:17:29Z</time>
  <course>223.71</course>
  <speed>1.36</speed>
  <fix>3d</fix>
</trkpt>
<trkpt lat="40.0707696" lon="-105.2298282">
  <ele>1583.12</ele>
  <time>2026-08-27T17:17:29Z</time>
  <course>224.55</course>
  <speed>1.386001443000692</speed>
  <fix>3d</fix>
</trkpt>
<trkpt lat="40.0707714" lon="-105.2298255">
  <ele>1583.0</ele>
  <time>2026-08-27T17:17:29Z</time>
  <course>223.71</course>
  <speed>1.36</speed>
  <fix>3d</fix>
</trkpt>
<trkpt lat="40.0707687" lon="-105.2298293">
  <ele>1583.12</ele>
  <time>2026-08-27T17:17:29Z</time>
  <course>224.29</course>
  <speed>1.400142849854971</speed>
  <fix>3d</fix>
</trkpt>
<trkpt lat="40.0707697" lon="-105.2298277">
  <ele>1583.0</ele>
  <time>2026-08-27T17:17:29Z</time>
  <course>223.62</course>
  <speed>1.38</speed>
  <fix>3d</fix>
</trkpt>
<trkpt lat="40.0707677" lon="-105.2298305">
  <ele>1583.12</ele>
  <time>2026-08-27T17:17:29Z</time>
  <course>222.88</course>
  <speed>1.4012137595670404</speed>
  <fix>3d</fix>
</trkpt>
<trkpt lat="40.0707697" lon="-105.2298277">
  <ele>1583.0</ele>
  <time>2026-08-27T17:17:29Z</time>
  <course>223.62</course>
  <speed>1.38</speed>
  <fix>3d</fix>
</trkpt>
<trkpt lat="40.0707668" lon="-105.2298316">
  <ele>1583.11</ele>
  <time>2026-08-27T17:17:29Z</time>
  <course>220.36</course>
  <speed>1.4122676800097071</speed>
  <fix>3d</fix>
</trkpt>
<trkpt lat="40.0707678" lon="-105.2298299">
  <ele>1583.0</ele>
  <time>2026-08-27T17:17:29Z</time>
  <course>221.52</course>
  <speed>1.4</speed>
  <fix>3d</fix>
</trkpt>
<trkpt lat="40.0707657" lon="-105.2298326">
  <ele>1583.11</ele>
  <time>2026-08-27T17:17:29Z</time>
  <course>216.77</course>
  <speed>1.4160508465447137</speed>
  <fix>3d</fix>
</trkpt>
<trkpt lat="40.0707678" lon="-105.2298299">
  <ele>1583.0</ele>
  <time>2026-08-27T17:17:29Z</time>
  <course>221.52</course>
  <speed>1.4</speed>
  <fix>3d</fix>
</trkpt>
<trkpt lat="40.0707644" lon="-105.2298336">
  <ele>1583.11</ele>
  <time>2026-08-27T17:17:29Z</time>
  <course>211.92</course>
  <speed>1.4045995870709915</speed>
  <fix>3d</fix>
</trkpt>
<trkpt lat="40.0707659" lon="-105.229832">
  <ele>1583.0</ele>
  <time>2026-08-27T17:17:29Z</time>
  <course>215.76</course>
  <speed>1.4</speed>
  <fix>3d</fix>
</trkpt>
<trkpt lat="40.0707633" lon="-105.2298344">
  <ele>1583.1</ele>
  <time>2026-08-27T17:17:29Z</time>
  <course>207.85</course>
  <speed>1.3865424623862048</speed>
  <fix>3d</fix>
</trkpt>
<trkpt lat="40.0707659" lon="-105.229832">
  <ele>1583.0</ele>
  <time>2026-08-27T17:17:29Z</time>
  <course>215.76</course>
  <speed>1.4</speed>
  <fix>3d</fix>
</trkpt>
<trkpt lat="40.0707622" lon="-105.2298351">
  <ele>1583.1</ele>
  <time>2026-08-27T17:17:29Z</time>
  <course>203.74</course>
  <speed>1.3577186748365804</speed>
  <fix>3d</fix>
</trkpt>
<trkpt lat="40.0707637" lon="-105.2298337">
  <ele>1583.0</ele>
  <time>2026-08-27T17:17:29Z</time>
  <course>207.91</course>
  <speed>1.38</speed>
  <fix>3d</fix>
</trkpt>
<trkpt lat="40.070761" lon="-105.2298356">
  <ele>1583.1</ele>
  <time>2026-08-27T17:17:29Z</time>
  <course>199.58</course>
  <speed>1.3218925826253811</speed>
  <fix>3d</fix>
</trkpt>
<trkpt lat="40.0707637" lon="-105.2298337">
  <ele>1583.0</ele>
  <time>2026-08-27T17:17:29Z</time>
  <course>207.91</course>
  <speed>1.38</speed>
  <fix>3d</fix>
</trkpt>
<trkpt lat="40.0707599" lon="-105.229836">
  <ele>1583.11</ele>
  <time>2026-08-27T17:17:29Z</time>
  <course>195.4</course>
  <speed>1.2806248474865698</speed>
  <fix>3d</fix>
</trkpt>
<trkpt lat="40.0707615" lon="-105.229835">
  <ele>1583.0</ele>
  <time>2026-08-27T17:17:29Z</time>
  <course>199.73</course>
  <speed>1.32</speed>
  <fix>3d</fix>
</trkpt>
<trkpt lat="40.0707588" lon="-105.2298363">
  <ele>1583.11</ele>
  <time>2026-08-27T17:17:29Z</time>
  <course>191.21</course>
  <speed>1.2298373876248843</speed>
  <fix>3d</fix>
</trkpt>
<trkpt lat="40.0707615" lon="-105.229835">
  <ele>1583.0</ele>
  <time>2026-08-27T17:17:29Z</time>
  <course>199.73</course>
  <speed>1.32</speed>
  <fix>3d</fix>
</trkpt>
<trkpt lat="40.0707577" lon="-105.2298365">
  <ele>1583.11</ele>
  <time>2026-08-27T17:17:29Z</time>
  <course>187.03</course>
  <speed>1.186086000254619</speed>
  <fix>3d</fix>
</trkpt>
<trkpt lat="40.0707593" lon="-105.2298359">
  <ele>1583.0</ele>
  <time>2026-08-27T17:17:29Z</time>
  <course>191.4</course>
  <speed>1.23</speed>
  <fix>3d</fix>
</trkpt>
<trkpt lat="40.0707566" lon="-105.2298365">
  <ele>1583.11</ele>
  <time>2026-08-27T17:17:29Z</time>
  <course>182.86</course>
  <speed>1.1303981599418853</speed>
  <fix>3d</fix>
</trkpt>
<trkpt lat="40.0707593" lon="-105.2298359">
  <ele>1583.0</ele>
  <time>2026-08-27T17:17:29Z</time>
  <course>191.4</course>
  <speed>1.23</speed>
  <fix>3d</fix>
</trkpt>
<trkpt lat="40.0707557" lon="-105.2298365">
  <ele>1583.11</ele>
  <time>2026-08-27T17:17:29Z</time>
  <course>178.71</course>
  <speed>1.0807404868885038</speed>
  <fix>3d</fix>
</trkpt>
<trkpt lat="40.0707572" lon="-105.2298362">
  <ele>1583.0</ele>
  <time>2026-08-27T17:17:29Z</time>
  <course>183.07</course>
  <speed>1.13</speed>
  <fix>3d</fix>
</trkpt>
<trkpt lat="40.0707547" lon="-105.2298363">
  <ele>1583.11</ele>
  <time>2026-08-27T17:17:29Z</time>
  <course>174.62</course>
  <speed>1.035857133006285</speed>
  <fix>3d</fix>
</trkpt>
<trkpt lat="40.0707572" lon="-105.2298362">
  <ele>1583.0</ele>
  <time>2026-08-27T17:17:29Z</time>
  <course>183.07</course>
  <speed>1.13</speed>
  <fix>3d</fix>
</trkpt>
<trkpt lat="40.0707538" lon="-105.2298361">
  <ele>1583.12</ele>
  <time>2026-08-27T17:17:29Z</time>
  <course>170.6</course>
  <speed>0.996393496566492</speed>
  <fix>3d</fix>
</trkpt>
<trkpt lat="40.0707552" lon="-105.2298362">
  <ele>1583.0</ele>
  <time>2026-08-27T17:17:29Z</time>
  <course>174.83</course>
  <speed>1.04</speed>
  <fix>3d</fix>
</trkpt>
<trkpt lat="40.070753" lon="-105.229836">
  <ele>1583.12</ele>
  <time>2026-08-27T17:17:29Z</time>
  <course>166.69</course>
  <speed>0.9604686356149272</speed>
  <fix>3d</fix>
</trkpt>
<trkpt lat="40.0707552" lon="-105.2298362">
  <ele>1583.0</ele>
  <time>2026-08-27T17:17:29Z</time>
  <course>174.83</course>
  <speed>1.04</speed>
  <fix>3d</fix>
</trkpt>
<trkpt lat="40.0707523" lon="-105.2298357">
  <ele>1583.12</ele>
  <time>2026-08-27T17:17:29Z</time>
  <course>163.72</course>
  <speed>0.9425497334358544</speed>
  <fix>3d</fix>
</trkpt>
<trkpt lat="40.0707534" lon="-105.2298358">
  <ele>1583.0</ele>
  <time>2026-08-27T17:17:29Z</time>
  <course>166.87</course>
  <speed>0.97</speed>
  <fix>3d</fix>
</trkpt>
<trkpt lat="40.0707515" lon="-105.2298353">
  <ele>1583.12</ele>
  <time>2026-08-27T17:17:29Z</time>
  <course>160.14</course>
  <speed>0.9304837451562494</speed>
  <fix>3d</fix>
</trkpt>
<trkpt lat="40.0707534" lon="-105.2298358">
  <ele>1583.0</ele>
  <time>2026-08-27T17:17:29Z</time>
  <course>166.87</course>
  <speed>0.97</speed>
  <fix>3d</fix>
</trkpt>
<trkpt lat="40.0707508" lon="-105.2298348">
  <ele>1583.13</ele>
  <time>2026-08-27T17:17:29Z</time>
  <course>156.7</course>
  <speed>0.9219544457292888</speed>
  <fix>3d</fix>
</trkpt>
<trkpt lat="40.0707518" lon="-105.2298352">
  <ele>1583.0</ele>
  <time>2026-08-27T17:17:29Z</time>
  <course>159.47</course>
  <speed>0.93</speed>
  <fix>3d</fix>
</trkpt>
<trkpt lat="40.07075" lon="-105.2298343">
  <ele>1583.13</ele>
  <time>2026-08-27T17:17:29Z</time>
  <course>153.39</course>
  <speed>0.9305912099305473</speed>
  <fix>3d</fix>
</trkpt>
<trkpt lat="40.0707518" lon="-105.2298352">
  <ele>1583.0</ele>
  <time>2026-08-27T17:17:29Z</time>
  <course>159.47</course>
  <speed>0.93</speed>
  <fix>3d</fix>
</trkpt>
<trkpt lat="40.0707493" lon="-105.2298338">
  <ele>1583.13</ele>
  <time>2026-08-27T17:17:29Z</time>
  <course>150.15</course>
  <speed>0.9381364506296512</speed>
  <fix>3d</fix>
</trkpt>
<trkpt lat="40.0707503" lon="-105.2298343">
  <ele>1583.0</ele>
  <time>2026-08-27T17:17:29Z</time>
  <course>152.61</course>
  <speed>0.93</speed>
  <fix>3d</fix>
</trkpt>
<trkpt lat="40.0707486" lon="-105.2298331">
  <ele>1583.13</ele>
  <time>2026-08-27T17:17:29Z</time>
  <course>147.01</course>
  <speed>0.9486832980505138</speed>
  <fix>3d</fix>
</trkpt>
<trkpt lat="40.0707503" lon="-105.2298343">
  <ele>1583.0</ele>
  <time>2026-08-27T17:17:29Z</time>
  <course>152.61</course>
  <speed>0.93</speed>
  <fix>3d</fix>
</trkpt>
<trkpt lat="40.0707479" lon="-105.2298325">
  <ele>1583.13</ele>
  <time>2026-08-27T17:17:29Z</time>
  <course>143.98</course>
  <speed>0.9621330469326995</speed>
  <fix>3d</fix>
</trkpt>
<trkpt lat="40.0707489" lon="-105.2298332">
  <ele>1583.0</ele>
  <time>2026-08-27T17:17:29Z</time>
  <course>146.22</course>
  <speed>0.95</speed>
  <fix>3d</fix>
</trkpt>
<trkpt lat="40.0707472" lon="-105.2298317">
  <ele>1583.13</ele>
  <time>2026-08-27T17:17:29Z</time>
  <course>141.02</course>
  <speed>0.9718538984847466</speed>
  <fix>3d</fix>
</trkpt>
<trkpt lat="40.0707489" lon="-105.2298332">
  <ele>1583.0</ele>
  <time>2026-08-27T17:17:29Z</time>
  <course>146.22</course>
  <speed>0.95</speed>
  <fix>3d</fix>
</trkpt>
<trkpt lat="40.0707466" lon="-105.2298309">
  <ele>1583.14</ele>
  <time>2026-08-27T17:17:29Z</time>
  <course>138.2</course>
  <speed>0.9831073186585481</speed>
  <fix>3d</fix>
</trkpt>
<trkpt lat="40.0707474" lon="-105.2298318">
  <ele>1583.0</ele>
  <time>2026-08-27T17:17:29Z</time>
  <course>140.26</course>
  <speed>0.97</speed>
  <fix>3d</fix>
</trkpt>
<trkpt lat="40.0707458" lon="-105.2298299">
  <ele>1583.14</ele>
  <time>2026-08-27T17:17:29Z</time>
  <course>134.98</course>
  <speed>0.9903534722511957</speed>
  <fix>3d</fix>
</trkpt>
<trkpt lat="40.0707474" lon="-105.2298318">
  <ele>1583.0</ele>
  <time>2026-08-27T17:17:29Z</time>
  <course>140.26</course>
  <speed>0.97</speed>
  <fix>3d</fix>
</trkpt>
<trkpt lat="40.0707452" lon="-105.229829">
  <ele>1583.14</ele>
  <time>2026-08-27T17:17:29Z</time>
  <course>132.45</course>
  <speed>1.0141498903022177</speed>
  <fix>3d</fix>
</trkpt>
<trkpt lat="40.0707461" lon="-105.2298303">
  <ele>1583.0</ele>
  <time>2026-08-27T17:17:29Z</time>
  <course>134.75</course>
  <speed>0.99</speed>
  <fix>3d</fix>
</trkpt>
<trkpt lat="40.0707446" lon="-105.2298281">
  <ele>1583.14</ele>
  <time>2026-08-27T17:17:29Z</time>
  <course>130.04</course>
  <speed>1.0323274674249445</speed>
  <fix>3d</fix>
</trkpt>
<trkpt lat="40.0707461" lon="-105.2298303">
  <ele>1583.0</ele>
  <time>2026-08-27T17:17:29Z</time>
  <course>134.75</course>
  <speed>0.99</speed>
  <fix>3d</fix>
</trkpt>
<trkpt lat="40.070744" lon="-105.2298271">
  <ele>1583.15</ele>
  <time>2026-08-27T17:17:29Z</time>
  <course>127.77</course>
  <speed>1.0660675400742676</speed>
  <fix>3d</fix>
</trkpt>
<trkpt lat="40.0707449" lon="-105.2298285">
  <ele>1583.0</ele>
  <time>2026-08-27T17:17:29Z</time>
  <course>129.72</course>
  <speed>1.03</speed>
  <fix>3d</fix>
</trkpt>
<trkpt lat="40.0707435" lon="-105.229826">
  <ele>1583.15</ele>
  <time>2026-08-27T17:17:29Z</time>
  <course>125.64</course>
  <speed>1.1094142598686931</speed>
  <fix>3d</fix>
</trkpt>
<trkpt lat="40.0707449" lon="-105.2298285">
  <ele>1583.0</ele>
  <time>2026-08-27T17:17:29Z</time>
  <course>129.72</course>
  <speed>1.03</speed>
  <fix>3d</fix>
</trkpt>
<trkpt lat="40.0707429" lon="-105.2298249">
  <ele>1583.15</ele>
  <time>2026-08-27T17:17:29Z</time>
  <course>123.62</course>
  <speed>1.1543396380615194</speed>
  <fix>3d</fix>
</trkpt>
<trkpt lat="40.0707437" lon="-105.2298265">
  <ele>1583.0</ele>
  <time>2026-08-27T17:17:29Z</time>
  <course>125.23</course>
  <speed>1.1</speed>
  <fix>3d</fix>
</trkpt>
<trkpt lat="40.0707424" lon="-105.2298237">
  <ele>1583.15</ele>
  <time>2026-08-27T17:17:29Z</time>
  <course>121.73</course>
  <speed>1.2006664815842907</speed>
  <fix>3d</fix>
</trkpt>
<trkpt lat="40.0707437" lon="-105.2298265">
  <ele>1583.0</ele>
  <time>2026-08-27T17:17:29Z</time>
  <course>125.23</course>
  <speed>1.1</speed>
  <fix>3d</fix>
</trkpt>
<trkpt lat="40.0707418" lon="-105.2298224">
  <ele>1583.15</ele>
  <time>2026-08-27T17:17:29Z</time>
  <course>119.94</course>
  <speed>1.2529964086141667</speed>
  <fix>3d</fix>
</trkpt>
<trkpt lat="40.0707426" lon="-105.2298242">
  <ele>1583.0</ele>
  <time>2026-08-27T17:17:29Z</time>
  <course>121.26</course>
  <speed>1.2</speed>
  <fix>3d</fix>
</trkpt>
<trkpt lat="40.0707413" lon="-105.2298211">
  <ele>1583.15</ele>
  <time>2026-08-27T17:17:29Z</time>
  <course>118.27</course>
  <speed>1.3014222988715076</speed>
  <fix>3d</fix>
</trkpt>
<trkpt lat="40.0707426" lon="-105.2298242">
  <ele>1583.0</ele>
  <time>2026-08-27T17:17:29Z</time>
  <course>121.26</course>
  <speed>1.2</speed>
  <fix>3d</fix>
</trkpt>
<trkpt lat="40.0707408" lon="-105.2298197">
  <ele>1583.15</ele>
  <time>2026-08-27T17:17:29Z</time>
  <course>116.69</course>
  <speed>1.3508515832614625</speed>
  <fix>3d</fix>
</trkpt>
<trkpt lat="40.0707415" lon="-105.2298217">
  <ele>1583.0</ele>
  <time>2026-08-27T17:17:29Z</time>
  <course>117.76</course>
  <speed>1.3</speed>
  <fix>3d</fix>
</trkpt>
<trkpt lat="40.0707402" lon="-105.2298182">
  <ele>1583.15</ele>
  <time>2026-08-27T17:17:29Z</time>
  <course>115.22</course>
  <speed>1.4011780757633914</speed>
  <fix>3d</fix>
</trkpt>
<trkpt lat="40.0707415" lon="-105.2298217">
  <ele>1583.0</ele>
  <time>2026-08-27T17:17:29Z</time>
  <course>117.76</course>
  <speed>1.3</speed>
  <fix>3d</fix>
</trkpt>
<trkpt lat="40.0707398" lon="-105.229817">
  <ele>1583.14</ele>
  <time>2026-08-27T17:17:29Z</time>
  <course>114.09</course>
  <speed>1.4430869689661814</speed>
  <fix>3d</fix>
</trkpt>
<trkpt lat="40.0707404" lon="-105.2298189">
  <ele>1583.0</ele>
  <time>2026-08-27T17:17:29Z</time>
  <course>114.68</course>
  <speed>1.4</speed>
  <fix>3d</fix>
</trkpt>
<trkpt lat="40.0707393" lon="-105.2298154">
  <ele>1583.14</ele>
  <time>2026-08-27T17:17:29Z</time>
  <course>112.77</course>
  <speed>1.4912075643584968</speed>
  <fix>3d</fix>
</trkpt>
<trkpt lat="40.0707404" lon="-105.2298189">
  <ele>1583.0</ele>
  <time>2026-08-27T17:17:29Z</time>
  <course>114.68</course>
  <speed>1.4</speed>
  <fix>3d</fix>
</trkpt>
<trkpt lat="40.0707388" lon="-105.2298137">
  <ele>1583.14</ele>
  <time>2026-08-27T17:17:29Z</time>
  <course>111.54</course>
  <speed>1.5344380078712856</speed>
  <fix>3d</fix>
</trkpt>
<trkpt lat="40.0707393" lon="-105.2298157">
  <ele>1583.0</ele>
  <time>2026-08-27T17:17:29Z</time>
  <course>111.96</course>
  <speed>1.49</speed>
  <fix>3d</fix>
</trkpt>
<trkpt lat="40.0707384" lon="-105.229812">
  <ele>1583.14</ele>
  <time>2026-08-27T17:17:29Z</time>
  <course>110.44</course>
  <speed>1.578131806916013</speed>
  <fix>3d</fix>
</trkpt>
<trkpt lat="40.0707393" lon="-105.2298157">
  <ele>1583.0</ele>
  <time>2026-08-27T17:17:29Z</time>
  <course>111.96</course>
  <speed>1.49</speed>
  <fix>3d</fix>
</trkpt>
<trkpt lat="40.0707379" lon="-105.2298102">
  <ele>1583.14</ele>
  <time>2026-08-27T17:17:29Z</time>
  <course>109.44</course>
  <speed>1.6191355718407276</speed>
  <fix>3d</fix>
</trkpt>
<trkpt lat="40.0707384" lon="-105.2298123">
  <ele>1583.0</ele>
  <time>2026-08-27T17:17:29Z</time>
  <course>109.64</course>
  <speed>1.59</speed>
  <fix>3d</fix>
</trkpt>
<trkpt lat="40.0707374" lon="-105.2298083">
  <ele>1583.14</ele>
  <time>2026-08-27T17:17:29Z</time>
  <course>108.55</course>
  <speed>1.6542369842317033</speed>
  <fix>3d</fix>
</trkpt>
<trkpt lat="40.0707384" lon="-105.2298123">
  <ele>1583.0</ele>
  <time>2026-08-27T17:17:29Z</time>
  <course>109.64</course>
  <speed>1.59</speed>
  <fix>3d</fix>
</trkpt>
<trkpt lat="40.070737" lon="-105.2298064">
  <ele>1583.14</ele>
  <time>2026-08-27T17:17:29Z</time>
  <course>107.77</course>
  <speed>1.6992056967889437</speed>
  <fix>3d</fix>
</trkpt>
<trkpt lat="40.0707375" lon="-105.2298086">
  <ele>1583.0</ele>
  <time>2026-08-27T17:17:29Z</time>
  <course>107.75</course>
  <speed>1.67</speed>
  <fix>3d</fix>
</trkpt>
<trkpt lat="40.0707365" lon="-105.2298044">
  <ele>1583.14</ele>
  <time>2026-08-27T17:17:29Z</time>
  <course>107.09</course>
  <speed>1.734877517290486</speed>
  <fix>3d</fix>
</trkpt>
<trkpt lat="40.0707375" lon="-105.2298086">
  <ele>1583.0</ele>
  <time>2026-08-27T17:17:29Z</time>
  <course>107.75</course>
  <speed>1.67</speed>
  <fix>3d</fix>
</trkpt>
<trkpt lat="40.0707361" lon="-105.2298024">
  <ele>1583.14</ele>
  <time>2026-08-27T17:17:29Z</time>
  <course>106.52</course>
  <speed>1.7637743619862492</speed>
  <fix>3d</fix>
</trkpt>
<trkpt lat="40.0707366" lon="-105.2298048">
  <ele>1583.0</ele>
  <time>2026-08-27T17:17:29Z</time>
  <course>106.29</course>
  <speed>1.74</speed>
  <fix>3d</fix>
</trkpt>
<trkpt lat="40.0707357" lon="-105.2298003">
  <ele>1583.14</ele>
  <time>2026-08-27T17:17:29Z</time>
  <course>106.04</course>
  <speed>1.7997777640586627</speed>
  <fix>3d</fix>
</trkpt>
<trkpt lat="40.0707366" lon="-105.2298048">
  <ele>1583.0</ele>
  <time>2026-08-27T17:17:29Z</time>
  <course>106.29</course>
  <speed>1.74</speed>
  <fix>3d</fix>
</trkpt>
<trkpt lat="40.0707352" lon="-105.2297978">
  <ele>1583.14</ele>
  <time>2026-08-27T17:17:29Z</time>
  <course>105.59</course>
  <speed>1.8287974190707947</speed>
  <fix>3d</fix>
</trkpt>
<trkpt lat="40.0707357" lon="-105.2298008">
  <ele>1583.0</ele>
  <time>2026-08-27T17:17:29Z</time>
  <course>105.24</course>
  <speed>1.8</speed>
  <fix>3d</fix>
</trkpt>
<trkpt lat="40.0707347" lon="-105.2297957">
  <ele>1583.14</ele>
  <time>2026-08-27T17:17:29Z</time>
  <course>105.33</course>
  <speed>1.8553975315279474</speed>
  <fix>3d</fix>
</trkpt>
<trkpt lat="40.0707357" lon="-105.2298008">
  <ele>1583.0</ele>
  <time>2026-08-27T17:17:29Z</time>
  <course>105.24</course>
  <speed>1.8</speed>
  <fix>3d</fix>
</trkpt>
<trkpt lat="40.0707343" lon="-105.2297935">
  <ele>1583.14</ele>
  <time>2026-08-27T17:17:29Z</time>
  <course>105.15</course>
  <speed>1.8748066566982313</speed>
  <fix>3d</fix>
</trkpt>
<trkpt lat="40.0707349" lon="-105.2297967">
  <ele>1583.0</ele>
  <time>2026-08-27T17:17:29Z</time>
  <course>104.57</course>
  <speed>1.86</speed>
  <fix>3d</fix>
</trkpt>
<trkpt lat="40.0707339" lon="-105.2297913">
  <ele>1583.14</ele>
  <time>2026-08-27T17:17:29Z</time>
  <course>105.07</course>
  <speed>1.8966285877841238</speed>
  <fix>3d</fix>
</trkpt>
<trkpt lat="40.0707349" lon="-105.2297967">
  <ele>1583.0</ele>
  <time>2026-08-27T17:17:29Z</time>
  <course>104.57</course>
  <speed>1.86</speed>
  <fix>3d</fix>
</trkpt>
<trkpt lat="40.0707335" lon="-105.2297891">
  <ele>1583.14</ele>
  <time>2026-08-27T17:17:29Z</time>
  <course>105.06</course>
  <speed>1.9160375779195982</speed>
  <fix>3d</fix>
</trkpt>
<trkpt lat="40.070734" lon="-105.2297923">
  <ele>1583.0</ele>
  <time>2026-08-27T17:17:29Z</time>
  <course>104.28</course>
  <speed>1.91</speed>
  <fix>3d</fix>
</trkpt>
<trkpt lat="40.070733" lon="-105.2297869">
  <ele>1583.14</ele>
  <time>2026-08-27T17:17:29Z</time>
  <course>105.12</course>
  <speed>1.9281597444195333</speed>
  <fix>3d</fix>
</trkpt>
<trkpt lat="40.070734" lon="-105.2297923">
  <ele>1583.0</ele>
  <time>2026-08-27T17:17:29Z</time>
  <course>104.28</course>
  <speed>1.91</speed>
  <fix>3d</fix>
</trkpt>
<trkpt lat="40.0707326" lon="-105.2297847">
  <ele>1583.15</ele>
  <time>2026-08-27T17:17:29Z</time>
  <course>105.27</course>
  <speed>1.95</speed>
  <fix>3d</fix>
</trkpt>
<trkpt lat="40.0707331" lon="-105.229788">
  <ele>1583.0</ele>
  <time>2026-08-27T17:17:29Z</time>
  <course>104.3</course>
  <speed>1.94</speed>
  <fix>3d</fix>
</trkpt>
<trkpt lat="40.0707322" lon="-105.2297825">
  <ele>1583.15</ele>
  <time>2026-08-27T17:17:29Z</time>
  <course>105.5</course>
  <speed>1.9621671692289624</speed>
  <fix>3d</fix>
</trkpt>
<trkpt lat="40.0707331" lon="-105.229788">
  <ele>1583.0</ele>
  <time>2026-08-27T17:17:29Z</time>
  <course>104.3</course>
  <speed>1.94</speed>
  <fix>3d</fix>
</trkpt>
<trkpt lat="40.0707317" lon="-105.2297803">
  <ele>1583.15</ele>
  <time>2026-08-27T17:17:29Z</time>
  <course>105.8</course>
  <speed>1.96468827043885</speed>
  <fix>3d</fix>
</trkpt>
<trkpt lat="40.0707323" lon="-105.2297835">
  <ele>1583.0</ele>
  <time>2026-08-27T17:17:29Z</time>
  <course>104.64</course>
  <speed>1.97</speed>
  <fix>3d</fix>
</trkpt>
<trkpt lat="40.0707312" lon="-105.229778">
  <ele>1583.15</ele>
  <time>2026-08-27T17:17:29Z</time>
  <course>106.18</course>
  <speed>1.979520143873257</speed>
  <fix>3d</fix>
</trkpt>
<trkpt lat="40.0707323" lon="-105.2297835">
  <ele>1583.0</ele>
  <time>2026-08-27T17:17:29Z</time>
  <course>104.64</course>
  <speed>1.97</speed>
  <fix>3d</fix>
</trkpt>
<trkpt lat="40.0707308" lon="-105.2297758">
  <ele>1583.15</ele>
  <time>2026-08-27T17:17:29Z</time>
  <course>106.62</course>
  <speed>1.9848677537810926</speed>
  <fix>3d</fix>
</trkpt>
<trkpt lat="40.0707314" lon="-105.229779">
  <ele>1583.0</ele>
  <time>2026-08-27T17:17:29Z</time>
  <course>105.29</course>
  <speed>2.0</speed>
  <fix>3d</fix>
</trkpt>
<trkpt lat="40.0707304" lon="-105.229774">
  <ele>1583.15</ele>
  <time>2026-08-27T17:17:29Z</time>
  <course>107.03</course>
  <speed>1.9876116320851014</speed>
  <fix>3d</fix>
</trkpt>
<trkpt lat="40.0707314" lon="-105.229779">
  <ele>1583.0</ele>
  <time>2026-08-27T17:17:29Z</time>
  <course>105.29</course>
  <speed>2.0</speed>
  <fix>3d</fix>
</trkpt>
<trkpt lat="40.0707299" lon="-105.2297717">
  <ele>1583.15</ele>
  <time>2026-08-27T17:17:29Z</time>
  <course>107.59</course>
  <speed>1.9932385707686877</speed>
  <fix>3d</fix>
</trkpt>
<trkpt lat="40.0707304" lon="-105.2297744">
  <ele>1583.0</ele>
  <time>2026-08-27T17:17:29Z</time>
  <course>106.21</course>
  <speed>2.01</speed>
  <fix>3d</fix>
</trkpt>
<trkpt lat="40.0707293" lon="-105.2297695">
  <ele>1583.16</ele>
  <time>2026-08-27T17:17:29Z</time>
  <course>108.21</course>
  <speed>1.9894974239742056</speed>
  <fix>3d</fix>
</trkpt>
<trkpt lat="40.0707304" lon="-105.2297744">
  <ele>1583.0</ele>
  <time>2026-08-27T17:17:29Z</time>
  <course>106.21</course>
  <speed>2.01</speed>
  <fix>3d</fix>
</trkpt>
<trkpt lat="40.0707288" lon="-105.2297672">
  <ele>1583.16</ele>
  <time>2026-08-27T17:17:29Z</time>
  <course>108.87</course>
  <speed>1.9985995096566995</speed>
  <fix>3d</fix>
</trkpt>
<trkpt lat="40.0707293" lon="-105.2297698">
  <ele>1583.0</ele>
  <time>2026-08-27T17:17:29Z</time>
  <course>107.39</course>
  <speed>2.02</speed>
  <fix>3d</fix>
</trkpt>
<trkpt lat="40.0707282" lon="-105.229765">
  <ele>1583.16</ele>
  <time>2026-08-27T17:17:29Z</time>
  <course>109.59</course>
  <speed>1.995419755339713</speed>
  <fix>3d</fix>
</trkpt>
<trkpt lat="40.0707293" lon="-105.2297698">
  <ele>1583.0</ele>
  <time>2026-08-27T17:17:29Z</time>
  <course>107.39</course>
  <speed>2.02</speed>
  <fix>3d</fix>
</trkpt>
<trkpt lat="40.0707276" lon="-105.2297627">
  <ele>1583.15</ele>
  <time>2026-08-27T17:17:29Z</time>
  <course>110.34</course>
  <speed>1.9958206332233366</speed>
  <fix>3d</fix>
</trkpt>
<trkpt lat="40.0707282" lon="-105.2297653">
  <ele>1583.0</ele>
  <time>2026-08-27T17:17:29Z</time>
  <course>108.76</course>
  <speed>2.03</speed>
  <fix>3d</fix>
</trkpt>
<trkpt lat="40.0707269" lon="-105.2297604">
  <ele>1583.15</ele>
  <time>2026-08-27T17:17:29Z</time>
  <course>111.14</course>
  <speed>1.9967223141939392</speed>
  <fix>3d</fix>
</trkpt>
<trkpt lat="40.0707282" lon="-105.2297653">
  <ele>1583.0</ele>
  <time>2026-08-27T17:17:29Z</time>
  <course>108.76</course>
  <speed>2.03</speed>
  <fix>3d</fix>
</trkpt>
<trkpt lat="40.0707263" lon="-105.2297582">
  <ele>1583.15</ele>
  <time>2026-08-27T17:17:29Z</time>
  <course>111.97</course>
  <speed>1.9981241202688085</speed>
  <fix>3d</fix>
</trkpt>
<trkpt lat="40.070727" lon="-105.2297609">
  <ele>1583.0</ele>
  <time>2026-08-27T17:17:29Z</time>
  <course>110.31</course>
  <speed>2.03</speed>
  <fix>3d</fix>
</trkpt>
<trkpt lat="40.0707256" lon="-105.229756">
  <ele>1583.15</ele>
  <time>2026-08-27T17:17:29Z</time>
  <course>112.84</course>
  <speed>1.986982637065558</speed>
  <fix>3d</fix>
</trkpt>
<trkpt lat="40.070727" lon="-105.2297609">
  <ele>1583.0</ele>
  <time>2026-08-27T17:17:29Z</time>
  <course>110.31</course>
  <speed>2.03</speed>
  <fix>3d</fix>
</trkpt>
<trkpt lat="40.0707249" lon="-105.2297538">
  <ele>1583.15</ele>
  <time>2026-08-27T17:17:29Z</time>
  <course>113.73</course>
  <speed>1.9892963580120486</speed>
  <fix>3d</fix>
</trkpt>
<trkpt lat="40.0707256" lon="-105.2297564">
  <ele>1583.0</ele>
  <time>2026-08-27T17:17:29Z</time>
  <course>112.0</course>
  <speed>2.02</speed>
  <fix>3d</fix>
</trkpt>
<trkpt lat="40.070724" lon="-105.2297512">
  <ele>1583.14</ele>
  <time>2026-08-27T17:17:29Z</time>
  <course>114.83</course>
  <speed>1.977978766316767</speed>
  <fix>3d</fix>
</trkpt>
<trkpt lat="40.0707256" lon="-105.2297564">
  <ele>1583.0</ele>
  <time>2026-08-27T17:17:29Z</time>
  <course>112.0</course>
  <speed>2.02</speed>
  <fix>3d</fix>
</trkpt>
<trkpt lat="40.0707232" lon="-105.229749">
  <ele>1583.14</ele>
  <time>2026-08-27T17:17:29Z</time>
  <course>115.77</course>
  <speed>1.972536438193221</speed>
  <fix>3d</fix>
</trkpt>
<trkpt lat="40.0707242" lon="-105.229752">
  <ele>1583.0</ele>
  <time>2026-08-27T17:17:30Z</time>
  <course>113.8</course>
  <speed>2.02</speed>
  <fix>3d</fix>
</trkpt>
<trkpt lat="40.0707224" lon="-105.2297469">
  <ele>1583.15</ele>
  <time>2026-08-27T17:17:30Z</time>
  <course>116.72</course>
  <speed>1.9632880583347927</speed>
  <fix>3d</fix>
</trkpt>
<trkpt lat="40.0707242" lon="-105.229752">
  <ele>1583.0</ele>
  <time>2026-08-27T17:17:30Z</time>
  <course>113.8</course>
  <speed>2.02</speed>
  <fix>3d</fix>
</trkpt>
<trkpt lat="40.0707216" lon="-105.2297448">
  <ele>1583.15</ele>
  <time>2026-08-27T17:17:30Z</time>
  <course>117.69</course>
  <speed>1.958979326077741</speed>
  <fix>3d</fix>
</trkpt>
<trkpt lat="40.0707228" lon="-105.2297477">
  <ele>1583.0</ele>
  <time>2026-08-27T17:17:30Z</time>
  <course>115.69</course>
  <speed>2.0</speed>
  <fix>3d</fix>
</trkpt>
<trkpt lat="40.0707208" lon="-105.2297427">
  <ele>1583.15</ele>
  <time>2026-08-27T17:17:30Z</time>
  <course>118.67</course>
  <speed>1.955326059765992</speed>
  <fix>3d</fix>
</trkpt>
<trkpt lat="40.0707228" lon="-105.2297477">
  <ele>1583.0</ele>
  <time>2026-08-27T17:17:30Z</time>
  <course>115.69</course>
  <speed>2.0</speed>
  <fix>3d</fix>
</trkpt>
<trkpt lat="40.0707199" lon="-105.2297407">
  <ele>1583.15</ele>
  <time>2026-08-27T17:17:30Z</time>
  <course>119.66</course>
  <speed>1.9387109119205987</speed>
  <fix>3d</fix>
</trkpt>
<trkpt lat="40.0707211" lon="-105.2297435">
  <ele>1583.0</ele>
  <time>2026-08-27T17:17:30Z</time>
  <course>117.64</course>
  <speed>1.99</speed>
  <fix>3d</fix>
</trkpt>
<trkpt lat="40.070719" lon="-105.2297387">
  <ele>1583.15</ele>
  <time>2026-08-27T17:17:30Z</time>
  <course>119.88</course>
  <speed>1.9349418595916519</speed>
  <fix>3d</fix>
</trkpt>
<trkpt lat="40.0707211" lon="-105.2297435">
  <ele>1583.0</ele>
  <time>2026-08-27T17:17:30Z</time>
  <course>117.64</course>
  <speed>1.99</speed>
  <fix>3d</fix>
</trkpt>
<trkpt lat="40.0707182" lon="-105.2297367">
  <ele>1583.15</ele>
  <time>2026-08-27T17:17:30Z</time>
  <course>118.94</course>
  <speed>1.9154111830100606</speed>
  <fix>3d</fix>
</trkpt>
<trkpt lat="40.0707194" lon="-105.2297394">
  <ele>1583.0</ele>
  <time>2026-08-27T17:17:30Z</time>
  <course>118.5</course>
  <speed>1.97</speed>
  <fix>3d</fix>
</trkpt>
<trkpt lat="40.0707174" lon="-105.2297347">
  <ele>1583.15</ele>
  <time>2026-08-27T17:17:30Z</time>
  <course>116.9</course>
  <speed>1.9140794131905812</speed>
  <fix>3d</fix>
</trkpt>
<trkpt lat="40.0707194" lon="-105.2297394">
  <ele>1583.0</ele>
  <time>2026-08-27T17:17:30Z</time>
  <course>118.5</course>
  <speed>1.97</speed>
  <fix>3d</fix>
</trkpt>
<trkpt lat="40.0707167" lon="-105.2297326">
  <ele>1583.15</ele>
  <time>2026-08-27T17:17:30Z</time>
  <course>113.74</course>
  <speed>1.9079046097748178</speed>
  <fix>3d</fix>
</trkpt>
<trkpt lat="40.0707178" lon="-105.2297353">
  <ele>1583.0</ele>
  <time>2026-08-27T17:17:30Z</time>
  <course>115.98</course>
  <speed>1.95</speed>
  <fix>3d</fix>
</trkpt>
<trkpt lat="40.0707161" lon="-105.2297305">
  <ele>1583.15</ele>
  <time>2026-08-27T17:17:30Z</time>
  <course>109.46</course>
  <speed>1.903785702225962</speed>
  <fix>3d</fix>
</trkpt>
<trkpt lat="40.0707178" lon="-105.2297353">
  <ele>1583.0</ele>
  <time>2026-08-27T17:17:30Z</time>
  <course>115.98</course>
  <speed>1.95</speed>
  <fix>3d</fix>
</trkpt>
<trkpt lat="40.0707157" lon="-105.2297287">
  <ele>1583.15</ele>
  <time>2026-08-27T17:17:30Z</time>
  <course>105.21</course>
  <speed>1.901578291840754</speed>
  <fix>3d</fix>
</trkpt>
<trkpt lat="40.0707164" lon="-105.2297311">
  <ele>1583.0</ele>
  <time>2026-08-27T17:17:30Z</time>
  <course>108.96</course>
  <speed>1.94</speed>
  <fix>3d</fix>
</trkpt>
<trkpt lat="40.0707153" lon="-105.2297265">
  <ele>1583.15</ele>
  <time>2026-08-27T17:17:30Z</time>
  <course>99.66</course>
  <speed>1.902235526952433</speed>
  <fix>3d</fix>
</trkpt>
<trkpt lat="40.0707164" lon="-105.2297311">
  <ele>1583.0</ele>
  <time>2026-08-27T17:17:30Z</time>
  <course>108.96</course>
  <speed>1.94</speed>
  <fix>3d</fix>
</trkpt>
<trkpt lat="40.0707152" lon="-105.2297242">
  <ele>1583.15</ele>
  <time>2026-08-27T17:17:30Z</time>
  <course>95.33</course>
  <speed>1.8959430371189954</speed>
  <fix>3d</fix>
</trkpt>
<trkpt lat="40.0707156" lon="-105.2297267">
  <ele>1583.0</ele>
  <time>2026-08-27T17:17:30Z</time>
  <course>99.42</course>
  <speed>1.93</speed>
  <fix>3d</fix>
</trkpt>
<trkpt lat="40.0707151" lon="-105.2297219">
  <ele>1583.15</ele>
  <time>2026-08-27T17:17:30Z</time>
  <course>91.92</course>
  <speed>1.9102355875650523</speed>
  <fix>3d</fix>
</trkpt>
<trkpt lat="40.0707156" lon="-105.2297267">
  <ele>1583.0</ele>
  <time>2026-08-27T17:17:30Z</time>
  <course>99.42</course>
  <speed>1.93</speed>
  <fix>3d</fix>
</trkpt>
<trkpt lat="40.0707152" lon="-105.2297196">
  <ele>1583.14</ele>
  <time>2026-08-27T17:17:30Z</time>
  <course>88.58</course>
  <speed>1.9216659439142902</speed>
  <fix>3d</fix>
</trkpt>
<trkpt lat="40.0707153" lon="-105.2297222">
  <ele>1583.0</ele>
  <time>2026-08-27T17:17:30Z</time>
  <course>91.08</course>
  <speed>1.94</speed>
  <fix>3d</fix>
</trkpt>
<trkpt lat="40.0707153" lon="-105.2297173">
  <ele>1583.14</ele>
  <time>2026-08-27T17:17:30Z</time>
  <course>85.36</course>
  <speed>1.9393297811357408</speed>
  <fix>3d</fix>
</trkpt>
<trkpt lat="40.0707153" lon="-105.2297222">
  <ele>1583.0</ele>
  <time>2026-08-27T17:17:30Z</time>
  <course>91.08</course>
  <speed>1.94</speed>
  <fix>3d</fix>
</trkpt>
<trkpt lat="40.0707155" lon="-105.229715">
  <ele>1583.14</ele>
  <time>2026-08-27T17:17:30Z</time>
  <course>82.28</course>
  <speed>1.9531768993104541</speed>
  <fix>3d</fix>
</trkpt>
<trkpt lat="40.0707154" lon="-105.2297175">
  <ele>1583.0</ele>
  <time>2026-08-27T17:17:30Z</time>
  <course>84.52</course>
  <speed>1.97</speed>
  <fix>3d</fix>
</trkpt>
<trkpt lat="40.0707158" lon="-105.2297126">
  <ele>1583.14</ele>
  <time>2026-08-27T17:17:30Z</time>
  <course>79.3</course>
  <speed>1.9828514820833152</speed>
  <fix>3d</fix>
</trkpt>
<trkpt lat="40.0707154" lon="-105.2297175">
  <ele>1583.0</ele>
  <time>2026-08-27T17:17:30Z</time>
  <course>84.52</course>
  <speed>1.97</speed>
  <fix>3d</fix>
</trkpt>
<trkpt lat="40.0707163" lon="-105.2297103">
  <ele>1583.14</ele>
  <time>2026-08-27T17:17:30Z</time>
  <course>76.48</course>
  <speed>2.0059162494979694</speed>
  <fix>3d</fix>
</trkpt>
<trkpt lat="40.0707159" lon="-105.229713">
  <ele>1583.0</ele>
  <time>2026-08-27T17:17:30Z</time>
  <course>78.47</course>
  <speed>2.01</speed>
  <fix>3d</fix>
</trkpt>
<trkpt lat="40.0707168" lon="-105.2297079">
  <ele>1583.14</ele>
  <time>2026-08-27T17:17:30Z</time>
  <course>73.79</course>
  <speed>2.0241047403728887</speed>
  <fix>3d</fix>
</trkpt>
<trkpt lat="40.0707159" lon="-105.229713">
  <ele>1583.0</ele>
  <time>2026-08-27T17:17:30Z</time>
  <course>78.47</course>
  <speed>2.01</speed>
  <fix>3d</fix>
</trkpt>
<trkpt lat="40.0707176" lon="-105.2297052">
  <ele>1583.14</ele>
  <time>2026-08-27T17:17:30Z</time>
  <course>70.72</course>
  <speed>2.054093474017188</speed>
  <fix>3d</fix>
</trkpt>
<trkpt lat="40.0707168" lon="-105.2297083">
  <ele>1583.0</ele>
  <time>2026-08-27T17:17:30Z</time>
  <course>72.95</course>
  <speed>2.05</speed>
  <fix>3d</fix>
</trkpt>
<trkpt lat="40.0707183" lon="-105.2297028">
  <ele>1583.14</ele>
  <time>2026-08-27T17:17:30Z</time>
  <course>68.31</course>
  <speed>2.0785812469085734</speed>
  <fix>3d</fix>
</trkpt>
<trkpt lat="40.0707168" lon="-105.2297083">
  <ele>1583.0</ele>
  <time>2026-08-27T17:17:30Z</time>
  <course>72.95</course>
  <speed>2.05</speed>
  <fix>3d</fix>
</trkpt>
<trkpt lat="40.0707191" lon="-105.2297006">
  <ele>1583.14</ele>
  <time>2026-08-27T17:17:30Z</time>
  <course>66.03</course>
  <speed>2.1023796041628637</speed>
  <fix>3d</fix>
</trkpt>
<trkpt lat="40.070718" lon="-105.2297038">
  <ele>1583.0</ele>
  <time>2026-08-27T17:17:30Z</time>
  <course>67.94</course>
  <speed>2.09</speed>
  <fix>3d</fix>
</trkpt>
<trkpt lat="40.0707199" lon="-105.2296983">
  <ele>1583.14</ele>
  <time>2026-08-27T17:17:30Z</time>
  <course>63.87</course>
  <speed>2.1200943375236867</speed>
  <fix>3d</fix>
</trkpt>
<trkpt lat="40.070718" lon="-105.2297038">
  <ele>1583.0</ele>
  <time>2026-08-27T17:17:30Z</time>
  <course>67.94</course>
  <speed>2.09</speed>
  <fix>3d</fix>
</trkpt>
<trkpt lat="40.0707209" lon="-105.2296961">
  <ele>1583.14</ele>
  <time>2026-08-27T17:17:30Z</time>
  <course>61.81</course>
  <speed>2.1321585306913744</speed>
  <fix>3d</fix>
</trkpt>
<trkpt lat="40.0707196" lon="-105.2296992">
  <ele>1583.0</ele>
  <time>2026-08-27T17:17:30Z</time>
  <course>63.43</course>
  <speed>2.13</speed>
  <fix>3d</fix>
</trkpt>
<trkpt lat="40.0707219" lon="-105.2296939">
  <ele>1583.15</ele>
  <time>2026-08-27T17:17:30Z</time>
  <course>59.88</course>
  <speed>2.1507673049402625</speed>
  <fix>3d</fix>
</trkpt>
<trkpt lat="40.0707196" lon="-105.2296992">
  <ele>1583.0</ele>
  <time>2026-08-27T17:17:30Z</time>
  <course>63.43</course>
  <speed>2.13</speed>
  <fix>3d</fix>
</trkpt>
<trkpt lat="40.0707229" lon="-105.2296917">
  <ele>1583.14</ele>
  <time>2026-08-27T17:17:30Z</time>
  <course>58.07</course>
  <speed>2.1577998053572993</speed>
  <fix>3d</fix>
</trkpt>
<trkpt lat="40.0707215" lon="-105.2296948">
  <ele>1583.0</ele>
  <time>2026-08-27T17:17:30Z</time>
  <course>59.39</course>
  <speed>2.16</speed>
  <fix>3d</fix>
</trkpt>
<trkpt lat="40.070724" lon="-105.2296896">
  <ele>1583.14</ele>
  <time>2026-08-27T17:17:30Z</time>
  <course>56.37</course>
  <speed>2.166887168266959</speed>
  <fix>3d</fix>
</trkpt>
<trkpt lat="40.0707215" lon="-105.2296948">
  <ele>1583.0</ele>
  <time>2026-08-27T17:17:30Z</time>
  <course>59.39</course>
  <speed>2.16</speed>
  <fix>3d</fix>
</trkpt>
<trkpt lat="40.0707252" lon="-105.2296876">
  <ele>1583.14</ele>
  <time>2026-08-27T17:17:30Z</time>
  <course>54.79</course>
  <speed>2.1720036832381293</speed>
  <fix>3d</fix>
</trkpt>
<trkpt lat="40.0707235" lon="-105.2296905">
  <ele>1583.0</ele>
  <time>2026-08-27T17:17:30Z</time>
  <course>55.84</course>
  <speed>2.18</speed>
  <fix>3d</fix>
</trkpt>
<trkpt lat="40.0707264" lon="-105.2296855">
  <ele>1583.14</ele>
  <time>2026-08-27T17:17:30Z</time>
  <course>53.32</course>
  <speed>2.170829334609241</speed>
  <fix>3d</fix>
</trkpt>
<trkpt lat="40.0707235" lon="-105.2296905">
  <ele>1583.0</ele>
  <time>2026-08-27T17:17:30Z</time>
  <course>55.84</course>
  <speed>2.18</speed>
  <fix>3d</fix>
</trkpt>
<trkpt lat="40.0707276" lon="-105.2296835">
  <ele>1583.14</ele>
  <time>2026-08-27T17:17:30Z</time>
  <course>51.96</course>
  <speed>2.1727862297059968</speed>
  <fix>3d</fix>
</trkpt>
<trkpt lat="40.0707259" lon="-105.2296863">
  <ele>1583.0</ele>
  <time>2026-08-27T17:17:30Z</time>
  <course>52.74</course>
  <speed>2.19</speed>
  <fix>3d</fix>
</trkpt>
<trkpt lat="40.0707286" lon="-105.229682">
  <ele>1583.14</ele>
  <time>2026-08-27T17:17:30Z</time>
  <course>50.95</course>
  <speed>2.1769014676829084</speed>
  <fix>3d</fix>
</trkpt>
<trkpt lat="40.0707259" lon="-105.2296863">
  <ele>1583.0</ele>
  <time>2026-08-27T17:17:30Z</time>
  <course>52.74</course>
  <speed>2.19</speed>
  <fix>3d</fix>
</trkpt>
<trkpt lat="40.0707299" lon="-105.22968">
  <ele>1583.14</ele>
  <time>2026-08-27T17:17:30Z</time>
  <course>49.78</course>
  <speed>2.174143509522773</speed>
  <fix>3d</fix>
</trkpt>
<trkpt lat="40.0707283" lon="-105.2296823">
  <ele>1583.0</ele>
  <time>2026-08-27T17:17:30Z</time>
  <course>50.09</course>
  <speed>2.19</speed>
  <fix>3d</fix>
</trkpt>
<trkpt lat="40.0707312" lon="-105.2296781">
  <ele>1583.15</ele>
  <time>2026-08-27T17:17:30Z</time>
  <course>48.73</course>
  <speed>2.172210855326895</speed>
  <fix>3d</fix>
</trkpt>
<trkpt lat="40.0707283" lon="-105.2296823">
  <ele>1583.0</ele>
  <time>2026-08-27T17:17:30Z</time>
  <course>50.09</course>
  <speed>2.19</speed>
  <fix>3d</fix>
</trkpt>
<trkpt lat="40.0707326" lon="-105.2296763">
  <ele>1583.15</ele>
  <time>2026-08-27T17:17:30Z</time>
  <course>47.78</course>
  <speed>2.171105709080053</speed>
  <fix>3d</fix>
</trkpt>
<trkpt lat="40.0707309" lon="-105.2296784">
  <ele>1583.0</ele>
  <time>2026-08-27T17:17:30Z</time>
  <course>47.87</course>
  <speed>2.19</speed>
  <fix>3d</fix>
</trkpt>
<trkpt lat="40.0707339" lon="-105.2296744">
  <ele>1583.15</ele>
  <time>2026-08-27T17:17:30Z</time>
  <course>46.93</course>
  <speed>2.170829334609241</speed>
  <fix>3d</fix>
</trkpt>
<trkpt lat="40.0707309" lon="-105.2296784">
  <ele>1583.0</ele>
  <time>2026-08-27T17:17:30Z</time>
  <course>47.87</course>
  <speed>2.19</speed>
  <fix>3d</fix>
</trkpt>
<trkpt lat="40.0707353" lon="-105.2296726">
  <ele>1583.15</ele>
  <time>2026-08-27T17:17:30Z</time>
  <course>46.17</course>
  <speed>2.1567800073257355</speed>
  <fix>3d</fix>
</trkpt>
<trkpt lat="40.0707335" lon="-105.2296747">
  <ele>1583.0</ele>
  <time>2026-08-27T17:17:30Z</time>
  <course>46.05</course>
  <speed>2.18</speed>
  <fix>3d</fix>
</trkpt>
<trkpt lat="40.0707367" lon="-105.2296708">
  <ele>1583.15</ele>
  <time>2026-08-27T17:17:30Z</time>
  <course>45.51</course>
  <speed>2.1572436116489024</speed>
  <fix>3d</fix>
</trkpt>
<trkpt lat="40.0707335" lon="-105.2296747">
  <ele>1583.0</ele>
  <time>2026-08-27T17:17:30Z</time>
  <course>46.05</course>
  <speed>2.18</speed>
  <fix>3d</fix>
</trkpt>
<trkpt lat="40.0707381" lon="-105.229669">
  <ele>1583.15</ele>
  <time>2026-08-27T17:17:30Z</time>
  <course>44.92</course>
  <speed>2.1507673049402625</speed>
  <fix>3d</fix>
</trkpt>
<trkpt lat="40.0707363" lon="-105.229671">
  <ele>1583.0</ele>
  <time>2026-08-27T17:17:30Z</time>
  <course>44.62</course>
  <speed>2.17</speed>
  <fix>3d</fix>
</trkpt>
<trkpt lat="40.0707396" lon="-105.2296672">
  <ele>1583.16</ele>
  <time>2026-08-27T17:17:30Z</time>
  <course>44.43</course>
  <speed>2.1445046047980405</speed>
  <fix>3d</fix>
</trkpt>
<trkpt lat="40.0707363" lon="-105.229671">
  <ele>1583.0</ele>
  <time>2026-08-27T17:17:30Z</time>
  <course>44.62</course>
  <speed>2.17</speed>
  <fix>3d</fix>
</trkpt>
<trkpt lat="40.070741" lon="-105.2296655">
  <ele>1583.16</ele>
  <time>2026-08-27T17:17:30Z</time>
  <course>44.02</course>
  <speed>2.137755832643195</speed>
  <fix>3d</fix>
</trkpt>
<trkpt lat="40.0707391" lon="-105.2296675">
  <ele>1583.0</ele>
  <time>2026-08-27T17:17:30Z</time>
  <course>43.53</course>
  <speed>2.16</speed>
  <fix>3d</fix>
</trkpt>
<trkpt lat="40.0707427" lon="-105.2296634">
  <ele>1583.16</ele>
  <time>2026-08-27T17:17:30Z</time>
  <course>43.62</course>
  <speed>2.131783291050007</speed>
  <fix>3d</fix>
</trkpt>
<trkpt lat="40.0707391" lon="-105.2296675">
  <ele>1583.0</ele>
  <time>2026-08-27T17:17:30Z</time>
  <course>43.53</course>
  <speed>2.16</speed>
  <fix>3d</fix>
</trkpt>
<trkpt lat="40.0707441" lon="-105.2296617">
  <ele>1583.16</ele>
  <time>2026-08-27T17:17:30Z</time>
  <course>43.36</course>
  <speed>2.1251352898109803</speed>
  <fix>3d</fix>
</trkpt>
<trkpt lat="40.0707419" lon="-105.229664">
  <ele>1583.0</ele>
  <time>2026-08-27T17:17:30Z</time>
  <course>42.77</course>
  <speed>2.15</speed>
  <fix>3d</fix>
</trkpt>
<trkpt lat="40.0707456" lon="-105.22966">
  <ele>1583.16</ele>
  <time>2026-08-27T17:17:30Z</time>
  <course>43.17</course>
  <speed>2.1185136298829894</speed>
  <fix>3d</fix>
</trkpt>
<trkpt lat="40.0707419" lon="-105.229664">
  <ele>1583.0</ele>
  <time>2026-08-27T17:17:30Z</time>
  <course>42.77</course>
  <speed>2.15</speed>
  <fix>3d</fix>
</trkpt>
<trkpt lat="40.070747" lon="-105.2296583">
  <ele>1583.16</ele>
  <time>2026-08-27T17:17:30Z</time>
  <course>43.04</course>
  <speed>2.1119185590358356</speed>
  <fix>3d</fix>
</trkpt>
<trkpt lat="40.0707448" lon="-105.2296606">
  <ele>1583.0</ele>
  <time>2026-08-27T17:17:30Z</time>
  <course>42.29</course>
  <speed>2.14</speed>
  <fix>3d</fix>
</trkpt>
<trkpt lat="40.0707484" lon="-105.2296566">
  <ele>1583.17</ele>
  <time>2026-08-27T17:17:30Z</time>
  <course>42.96</course>
  <speed>2.10440015206234</speed>
  <fix>3d</fix>
</trkpt>
<trkpt lat="40.0707448" lon="-105.2296606">
  <ele>1583.0</ele>
  <time>2026-08-27T17:17:30Z</time>
  <course>42.29</course>
  <speed>2.14</speed>
  <fix>3d</fix>
</trkpt>
<trkpt lat="40.0707498" lon="-105.229655">
  <ele>1583.17</ele>
  <time>2026-08-27T17:17:30Z</time>
  <course>42.94</course>
  <speed>2.10440015206234</speed>
  <fix>3d</fix>
</trkpt>
<trkpt lat="40.0707477" lon="-105.2296573">
  <ele>1583.0</ele>
  <time>2026-08-27T17:17:30Z</time>
  <course>42.05</course>
  <speed>2.13</speed>
  <fix>3d</fix>
</trkpt>
<trkpt lat="40.0707513" lon="-105.2296533">
  <ele>1583.17</ele>
  <time>2026-08-27T17:17:30Z</time>
  <course>42.95</course>
  <speed>2.090287061625747</speed>
  <fix>3d</fix>
</trkpt>
<trkpt lat="40.0707477" lon="-105.2296573">
  <ele>1583.0</ele>
  <time>2026-08-27T17:17:30Z</time>
  <course>42.05</course>
  <speed>2.13</speed>
  <fix>3d</fix>
</trkpt>
<trkpt lat="40.0707527" lon="-105.2296517">
  <ele>1583.17</ele>
  <time>2026-08-27T17:17:30Z</time>
  <course>43.0</course>
  <speed>2.090287061625747</speed>
  <fix>3d</fix>
</trkpt>
<trkpt lat="40.0707505" lon="-105.2296538">
  <ele>1583.0</ele>
  <time>2026-08-27T17:17:30Z</time>
  <course>42.01</course>
  <speed>2.12</speed>
  <fix>3d</fix>
</trkpt>
<trkpt lat="40.070754" lon="-105.22965">
  <ele>1583.17</ele>
  <time>2026-08-27T17:17:30Z</time>
  <course>43.09</course>
  <speed>2.082786594925174</speed>
  <fix>3d</fix>
</trkpt>
<trkpt lat="40.0707505" lon="-105.2296538">
  <ele>1583.0</ele>
  <time>2026-08-27T17:17:30Z</time>
  <course>42.01</course>
  <speed>2.12</speed>
  <fix>3d</fix>
</trkpt>
<trkpt lat="40.0707554" lon="-105.2296484">
  <ele>1583.16</ele>
  <time>2026-08-27T17:17:30Z</time>
  <course>43.23</course>
  <speed>2.0753072061745463</speed>
  <fix>3d</fix>
</trkpt>
<trkpt lat="40.0707534" lon="-105.2296505">
  <ele>1583.0</ele>
  <time>2026-08-27T17:17:30Z</time>
  <course>42.13</course>
  <speed>2.11</speed>
  <fix>3d</fix>
</trkpt>
<trkpt lat="40.0707568" lon="-105.2296467">
  <ele>1583.16</ele>
  <time>2026-08-27T17:17:30Z</time>
  <course>43.39</course>
  <speed>2.067849124090053</speed>
  <fix>3d</fix>
</trkpt>
<trkpt lat="40.0707534" lon="-105.2296505">
  <ele>1583.0</ele>
  <time>2026-08-27T17:17:30Z</time>
  <course>42.13</course>
  <speed>2.11</speed>
  <fix>3d</fix>
</trkpt>
<trkpt lat="40.0707579" lon="-105.2296454">
  <ele>1583.16</ele>
  <time>2026-08-27T17:17:30Z</time>
  <course>43.55</course>
  <speed>2.0671236053995417</speed>
  <fix>3d</fix>
</trkpt>
<trkpt lat="40.0707562" lon="-105.2296472">
  <ele>1583.0</ele>
  <time>2026-08-27T17:17:30Z</time>
  <course>42.42</course>
  <speed>2.11</speed>
  <fix>3d</fix>
</trkpt>
<trkpt lat="40.0707593" lon="-105.2296437">
  <ele>1583.16</ele>
  <time>2026-08-27T17:17:30Z</time>
  <course>43.77</course>
  <speed>2.0671236053995417</speed>
  <fix>3d</fix>
</trkpt>
<trkpt lat="40.0707562" lon="-105.2296472">
  <ele>1583.0</ele>
  <time>2026-08-27T17:17:30Z</time>
  <course>42.42</course>
  <speed>2.11</speed>
  <fix>3d</fix>
</trkpt>
<trkpt lat="40.0707607" lon="-105.229642">
  <ele>1583.15</ele>
  <time>2026-08-27T17:17:30Z</time>
  <course>44.02</course>
  <speed>2.0664946164943183</speed>
  <fix>3d</fix>
</trkpt>
<trkpt lat="40.0707589" lon="-105.2296439">
  <ele>1583.0</ele>
  <time>2026-08-27T17:17:30Z</time>
  <course>42.82</course>
  <speed>2.1</speed>
  <fix>3d</fix>
</trkpt>
<trkpt lat="40.070762" lon="-105.2296403">
  <ele>1583.15</ele>
  <time>2026-08-27T17:17:30Z</time>
  <course>44.28</course>
  <speed>2.065962245540804</speed>
  <fix>3d</fix>
</trkpt>
<trkpt lat="40.0707589" lon="-105.2296439">
  <ele>1583.0</ele>
  <time>2026-08-27T17:17:30Z</time>
  <course>42.82</course>
  <speed>2.1</speed>
  <fix>3d</fix>
</trkpt>
<trkpt lat="40.0707634" lon="-105.2296386">
  <ele>1583.15</ele>
  <time>2026-08-27T17:17:30Z</time>
  <course>44.57</course>
  <speed>2.058664615715731</speed>
  <fix>3d</fix>
</trkpt>
<trkpt lat="40.0707617" lon="-105.2296404">
  <ele>1583.0</ele>
  <time>2026-08-27T17:17:30Z</time>
  <course>43.34</course>
  <speed>2.1</speed>
  <fix>3d</fix>
</trkpt>
<trkpt lat="40.0707648" lon="-105.2296369">
  <ele>1583.15</ele>
  <time>2026-08-27T17:17:30Z</time>
  <course>44.88</course>
  <speed>2.058275977608445</speed>
  <fix>3d</fix>
</trkpt>
<trkpt lat="40.0707617" lon="-105.2296404">
  <ele>1583.0</ele>
  <time>2026-08-27T17:17:30Z</time>
  <course>43.34</course>
  <speed>2.1</speed>
  <fix>3d</fix>
</trkpt>
<trkpt lat="40.0707661" lon="-105.2296352">
  <ele>1583.15</ele>
  <time>2026-08-27T17:17:30Z</time>
  <course>45.19</course>
  <speed>2.057984450864486</speed>
  <fix>3d</fix>
</trkpt>
<trkpt lat="40.0707644" lon="-105.229637">
  <ele>1583.0</ele>
  <time>2026-08-27T17:17:30Z</time>
  <course>43.92</course>
  <speed>2.1</speed>
  <fix>3d</fix>
</trkpt>
<trkpt lat="40.0707675" lon="-105.2296334">
  <ele>1583.15</ele>
  <time>2026-08-27T17:17:30Z</time>
  <course>45.53</course>
  <speed>2.0577900767571022</speed>
  <fix>3d</fix>
</trkpt>
<trkpt lat="40.0707644" lon="-105.229637">
  <ele>1583.0</ele>
  <time>2026-08-27T17:17:30Z</time>
  <course>43.92</course>
  <speed>2.1</speed>
  <fix>3d</fix>
</trkpt>
<trkpt lat="40.0707688" lon="-105.2296317">
  <ele>1583.15</ele>
  <time>2026-08-27T17:17:30Z</time>
  <course>45.87</course>
  <speed>2.057692882818036</speed>
  <fix>3d</fix>
</trkpt>
<trkpt lat="40.0707671" lon="-105.2296336">
  <ele>1583.0</ele>
  <time>2026-08-27T17:17:30Z</time>
  <course>44.57</course>
  <speed>2.1</speed>
  <fix>3d</fix>
</trkpt>
<trkpt lat="40.0707704" lon="-105.2296295">
  <ele>1583.15</ele>
  <time>2026-08-27T17:17:30Z</time>
  <course>46.28</course>
  <speed>2.0648002324680226</speed>
  <fix>3d</fix>
</trkpt>
<trkpt lat="40.0707671" lon="-105.2296336">
  <ele>1583.0</ele>
  <time>2026-08-27T17:17:30Z</time>
  <course>44.57</course>
  <speed>2.1</speed>
  <fix>3d</fix>
</trkpt>
<trkpt lat="40.0707717" lon="-105.2296278">
  <ele>1583.15</ele>
  <time>2026-08-27T17:17:30Z</time>
  <course>46.62</course>
  <speed>2.0649455198624493</speed>
  <fix>3d</fix>
</trkpt>
<trkpt lat="40.0707698" lon="-105.2296301">
  <ele>1583.0</ele>
  <time>2026-08-27T17:17:30Z</time>
  <course>45.26</course>
  <speed>2.1</speed>
  <fix>3d</fix>
</trkpt>
<trkpt lat="40.070773" lon="-105.229626">
  <ele>1583.15</ele>
  <time>2026-08-27T17:17:30Z</time>
  <course>46.97</course>
  <speed>2.0651876428063383</speed>
  <fix>3d</fix>
</trkpt>
<trkpt lat="40.0707698" lon="-105.2296301">
  <ele>1583.0</ele>
  <time>2026-08-27T17:17:30Z</time>
  <course>45.26</course>
  <speed>2.1</speed>
  <fix>3d</fix>
</trkpt>
<trkpt lat="40.0707743" lon="-105.2296242">
  <ele>1583.14</ele>
  <time>2026-08-27T17:17:30Z</time>
  <course>47.32</course>
  <speed>2.065526567246231</speed>
  <fix>3d</fix>
</trkpt>
<trkpt lat="40.0707724" lon="-105.2296266">
  <ele>1583.0</ele>
  <time>2026-08-27T17:17:30Z</time>
  <course>45.95</course>
  <speed>2.1</speed>
  <fix>3d</fix>
</trkpt>
<trkpt lat="40.0707756" lon="-105.2296223">
  <ele>1583.14</ele>
  <time>2026-08-27T17:17:30Z</time>
  <course>47.67</course>
  <speed>2.065962245540804</speed>
  <fix>3d</fix>
</trkpt>
<trkpt lat="40.0707724" lon="-105.2296266">
  <ele>1583.0</ele>
  <time>2026-08-27T17:17:30Z</time>
  <course>45.95</course>
  <speed>2.1</speed>
  <fix>3d</fix>
</trkpt>
<trkpt lat="40.0707769" lon="-105.2296205">
  <ele>1583.14</ele>
  <time>2026-08-27T17:17:30Z</time>
  <course>48.01</course>
  <speed>2.0664946164943183</speed>
  <fix>3d</fix>
</trkpt>
<trkpt lat="40.0707751" lon="-105.229623">
  <ele>1583.0</ele>
  <time>2026-08-27T17:17:30Z</time>
  <course>46.64</course>
  <speed>2.11</speed>
  <fix>3d</fix>
</trkpt>
<trkpt lat="40.0707782" lon="-105.2296187">
  <ele>1583.14</ele>
  <time>2026-08-27T17:17:30Z</time>
  <course>48.36</course>
  <speed>2.0671236053995417</speed>
  <fix>3d</fix>
</trkpt>
<trkpt lat="40.0707751" lon="-105.229623">
  <ele>1583.0</ele>
  <time>2026-08-27T17:17:30Z</time>
  <course>46.64</course>
  <speed>2.11</speed>
  <fix>3d</fix>
</trkpt>
<trkpt lat="40.0707794" lon="-105.2296169">
  <ele>1583.14</ele>
  <time>2026-08-27T17:17:30Z</time>
  <course>48.71</course>
  <speed>2.067849124090053</speed>
  <fix>3d</fix>
</trkpt>
<trkpt lat="40.0707777" lon="-105.2296193">
  <ele>1583.0</ele>
  <time>2026-08-27T17:17:30Z</time>
  <course>47.34</course>
  <speed>2.11</speed>
  <fix>3d</fix>
</trkpt>
<trkpt lat="40.0707807" lon="-105.229615">
  <ele>1583.14</ele>
  <time>2026-08-27T17:17:30Z</time>
  <course>49.05</course>
  <speed>2.0753072061745463</speed>
  <fix>3d</fix>
</trkpt>
<trkpt lat="40.0707777" lon="-105.2296193">
  <ele>1583.0</ele>
  <time>2026-08-27T17:17:30Z</time>
  <course>47.34</course>
  <speed>2.11</speed>
  <fix>3d</fix>
</trkpt>
<trkpt lat="40.0707819" lon="-105.2296132">
  <ele>1583.14</ele>
  <time>2026-08-27T17:17:30Z</time>
  <course>49.4</course>
  <speed>2.076174366473105</speed>
  <fix>3d</fix>
</trkpt>
<trkpt lat="40.0707802" lon="-105.2296157">
  <ele>1583.0</ele>
  <time>2026-08-27T17:17:30Z</time>
  <course>48.04</course>
  <speed>2.12</speed>
  <fix>3d</fix>
</trkpt>
<trkpt lat="40.0707832" lon="-105.2296113">
  <ele>1583.14</ele>
  <time>2026-08-27T17:17:30Z</time>
  <course>49.74</course>
  <speed>2.0847062143141417</speed>
  <fix>3d</fix>
</trkpt>
<trkpt lat="40.0707802" lon="-105.2296157">
  <ele>1583.0</ele>
  <time>2026-08-27T17:17:30Z</time>
  <course>48.04</course>
  <speed>2.12</speed>
  <fix>3d</fix>
</trkpt>
<trkpt lat="40.0707842" lon="-105.2296098">
  <ele>1583.13</ele>
  <time>2026-08-27T17:17:30Z</time>
  <course>50.02</course>
  <speed>2.0781963333621776</speed>
  <fix>3d</fix>
</trkpt>
<trkpt lat="40.0707828" lon="-105.229612">
  <ele>1583.0</ele>
  <time>2026-08-27T17:17:30Z</time>
  <course>48.73</course>
  <speed>2.12</speed>
  <fix>3d</fix>
</trkpt>
<trkpt lat="40.0707854" lon="-105.2296079">
  <ele>1583.13</ele>
  <time>2026-08-27T17:17:30Z</time>
  <course>50.36</course>
  <speed>2.0870074269153904</speed>
  <fix>3d</fix>
</trkpt>
<trkpt lat="40.0707828" lon="-105.229612">
  <ele>1583.0</ele>
  <time>2026-08-27T17:17:30Z</time>
  <course>48.73</course>
  <speed>2.12</speed>
  <fix>3d</fix>
</trkpt>
<trkpt lat="40.0707866" lon="-105.229606">
  <ele>1583.13</ele>
  <time>2026-08-27T17:17:30Z</time>
  <course>50.67</course>
  <speed>2.0883007446246817</speed>
  <fix>3d</fix>
</trkpt>
<trkpt lat="40.0707853" lon="-105.2296082">
  <ele>1583.0</ele>
  <time>2026-08-27T17:17:30Z</time>
  <course>49.4</course>
  <speed>2.13</speed>
  <fix>3d</fix>
</trkpt>
<trkpt lat="40.0707879" lon="-105.229604">
  <ele>1583.13</ele>
  <time>2026-08-27T17:17:30Z</time>
  <course>50.99</course>
  <speed>2.0960200380721554</speed>
  <fix>3d</fix>
</trkpt>
<trkpt lat="40.0707853" lon="-105.2296082">
  <ele>1583.0</ele>
  <time>2026-08-27T17:17:30Z</time>
  <course>49.4</course>
  <speed>2.13</speed>
  <fix>3d</fix>
</trkpt>
<trkpt lat="40.0707891" lon="-105.2296021">
  <ele>1583.13</ele>
  <time>2026-08-27T17:17:30Z</time>
  <course>51.3</course>
  <speed>2.097450833750341</speed>
  <fix>3d</fix>
</trkpt>
<trkpt lat="40.0707878" lon="-105.2296044">
  <ele>1583.0</ele>
  <time>2026-08-27T17:17:30Z</time>
  <course>50.05</course>
  <speed>2.13</speed>
  <fix>3d</fix>
</trkpt>
<trkpt lat="40.0707903" lon="-105.2296002">
  <ele>1583.13</ele>
  <time>2026-08-27T17:17:30Z</time>
  <course>51.62</course>
  <speed>2.0989759407863637</speed>
  <fix>3d</fix>
</trkpt>
<trkpt lat="40.0707878" lon="-105.2296044">
  <ele>1583.0</ele>
  <time>2026-08-27T17:17:30Z</time>
  <course>50.05</course>
  <speed>2.13</speed>
  <fix>3d</fix>
</trkpt>
<trkpt lat="40.0707915" lon="-105.2295982">
  <ele>1583.13</ele>
  <time>2026-08-27T17:17:30Z</time>
  <course>51.92</course>
  <speed>2.1005951537600005</speed>
  <fix>3d</fix>
</trkpt>
<trkpt lat="40.0707902" lon="-105.2296005">
  <ele>1583.0</ele>
  <time>2026-08-27T17:17:30Z</time>
  <course>50.69</course>
  <speed>2.14</speed>
  <fix>3d</fix>
</trkpt>
<trkpt lat="40.0707927" lon="-105.2295962">
  <ele>1583.13</ele>
  <time>2026-08-27T17:17:30Z</time>
  <course>52.21</course>
  <speed>2.108459153030952</speed>
  <fix>3d</fix>
</trkpt>
<trkpt lat="40.0707902" lon="-105.2296005">
  <ele>1583.0</ele>
  <time>2026-08-27T17:17:30Z</time>
  <course>50.69</course>
  <speed>2.14</speed>
  <fix>3d</fix>
</trkpt>
<trkpt lat="40.0707939" lon="-105.2295942">
  <ele>1583.13</ele>
  <time>2026-08-27T17:17:30Z</time>
  <course>52.5</course>
  <speed>2.110213259365034</speed>
  <fix>3d</fix>
</trkpt>
<trkpt lat="40.0707927" lon="-105.2295965">
  <ele>1583.0</ele>
  <time>2026-08-27T17:17:30Z</time>
  <course>51.29</course>
  <speed>2.15</speed>
  <fix>3d</fix>
</trkpt>
<trkpt lat="40.0707951" lon="-105.2295922">
  <ele>1583.13</ele>
  <time>2026-08-27T17:17:30Z</time>
  <course>52.79</course>
  <speed>2.1181359729724623</speed>
  <fix>3d</fix>
</trkpt>
<trkpt lat="40.0707927" lon="-105.2295965">
  <ele>1583.0</ele>
  <time>2026-08-27T17:17:30Z</time>
  <course>51.29</course>
  <speed>2.15</speed>
  <fix>3d</fix>
</trkpt>
<trkpt lat="40.0707966" lon="-105.2295898">
  <ele>1583.13</ele>
  <time>2026-08-27T17:17:30Z</time>
  <course>53.12</course>
  <speed>2.1200235847744713</speed>
  <fix>3d</fix>
</trkpt>
<trkpt lat="40.0707951" lon="-105.2295925">
  <ele>1583.0</ele>
  <time>2026-08-27T17:17:30Z</time>
  <course>51.87</course>
  <speed>2.15</speed>
  <fix>3d</fix>
</trkpt>
<trkpt lat="40.0707978" lon="-105.2295877">
  <ele>1583.13</ele>
  <time>2026-08-27T17:17:30Z</time>
  <course>53.38</course>
  <speed>2.1220037700249264</speed>
  <fix>3d</fix>
</trkpt>
<trkpt lat="40.0707951" lon="-105.2295925">
  <ele>1583.0</ele>
  <time>2026-08-27T17:17:30Z</time>
  <course>51.87</course>
  <speed>2.15</speed>
  <fix>3d</fix>
</trkpt>
<trkpt lat="40.0707989" lon="-105.2295857">
  <ele>1583.13</ele>
  <time>2026-08-27T17:17:30Z</time>
  <course>53.64</course>
  <speed>2.130023474049054</speed>
  <fix>3d</fix>
</trkpt>
<trkpt lat="40.0707975" lon="-105.2295886">
  <ele>1583.0</ele>
  <time>2026-08-27T17:17:30Z</time>
  <course>52.41</course>
  <speed>2.16</speed>
  <fix>3d</fix>
</trkpt>
<trkpt lat="40.0708001" lon="-105.2295836">
  <ele>1583.13</ele>
  <time>2026-08-27T17:17:30Z</time>
  <course>53.89</course>
  <speed>2.1321350801485353</speed>
  <fix>3d</fix>
</trkpt>
<trkpt lat="40.0707975" lon="-105.2295886">
  <ele>1583.0</ele>
  <time>2026-08-27T17:17:30Z</time>
  <course>52.41</course>
  <speed>2.16</speed>
  <fix>3d</fix>
</trkpt>
<trkpt lat="40.0708013" lon="-105.2295816">
  <ele>1583.13</ele>
  <time>2026-08-27T17:17:30Z</time>
  <course>54.12</course>
  <speed>2.1402102700435766</speed>
  <fix>3d</fix>
</trkpt>
<trkpt lat="40.0707998" lon="-105.2295845">
  <ele>1583.0</ele>
  <time>2026-08-27T17:17:30Z</time>
  <course>52.93</course>
  <speed>2.16</speed>
  <fix>3d</fix>
</trkpt>
<trkpt lat="40.0708025" lon="-105.2295795">
  <ele>1583.13</ele>
  <time>2026-08-27T17:17:30Z</time>
  <course>54.35</course>
  <speed>2.1424518664371437</speed>
  <fix>3d</fix>
</trkpt>
<trkpt lat="40.0707998" lon="-105.2295845">
  <ele>1583.0</ele>
  <time>2026-08-27T17:17:30Z</time>
  <course>52.93</course>
  <speed>2.16</speed>
  <fix>3d</fix>
</trkpt>
<trkpt lat="40.0708036" lon="-105.2295775">
  <ele>1583.13</ele>
  <time>2026-08-27T17:17:30Z</time>
  <course>54.59</course>
  <speed>2.1366328650472455</speed>
  <fix>3d</fix>
</trkpt>
<trkpt lat="40.0708021" lon="-105.2295804">
  <ele>1583.0</ele>
  <time>2026-08-27T17:17:30Z</time>
  <course>53.41</course>
  <speed>2.17</speed>
  <fix>3d</fix>
</trkpt>
<trkpt lat="40.0708047" lon="-105.2295754">
  <ele>1583.13</ele>
  <time>2026-08-27T17:17:30Z</time>
  <course>54.8</course>
  <speed>2.14478437144623</speed>
  <fix>3d</fix>
</trkpt>
<trkpt lat="40.0708021" lon="-105.2295804">
  <ele>1583.0</ele>
  <time>2026-08-27T17:17:30Z</time>
  <course>53.41</course>
  <speed>2.17</speed>
  <fix>3d</fix>
</trkpt>
<trkpt lat="40.0708059" lon="-105.2295733">
  <ele>1583.13</ele>
  <time>2026-08-27T17:17:30Z</time>
  <course>55.01</course>
  <speed>2.1472074888095936</speed>
  <fix>3d</fix>
</trkpt>
<trkpt lat="40.0708045" lon="-105.2295763">
  <ele>1583.0</ele>
  <time>2026-08-27T17:17:30Z</time>
  <course>53.86</course>
  <speed>2.17</speed>
  <fix>3d</fix>
</trkpt>
<trkpt lat="40.070807" lon="-105.2295713">
  <ele>1583.13</ele>
  <time>2026-08-27T17:17:30Z</time>
  <course>55.21</course>
  <speed>2.1472074888095936</speed>
  <fix>3d</fix>
</trkpt>
<trkpt lat="40.0708045" lon="-105.2295763">
  <ele>1583.0</ele>
  <time>2026-08-27T17:17:30Z</time>
  <course>53.86</course>
  <speed>2.17</speed>
  <fix>3d</fix>
</trkpt>
<trkpt lat="40.0708081" lon="-105.2295692">
  <ele>1583.13</ele>
  <time>2026-08-27T17:17:30Z</time>
  <course>55.4</course>
  <speed>2.1497209121185943</speed>
  <fix>3d</fix>
</trkpt>
<trkpt lat="40.0708068" lon="-105.2295722">
  <ele>1583.0</ele>
  <time>2026-08-27T17:17:30Z</time>
  <course>54.27</course>
  <speed>2.18</speed>
  <fix>3d</fix>
</trkpt>
<trkpt lat="40.0708091" lon="-105.2295675">
  <ele>1583.13</ele>
  <time>2026-08-27T17:17:30Z</time>
  <course>55.54</course>
  <speed>2.1497209121185943</speed>
  <fix>3d</fix>
</trkpt>
<trkpt lat="40.0708068" lon="-105.2295722">
  <ele>1583.0</ele>
  <time>2026-08-27T17:17:30Z</time>
  <course>54.27</course>
  <speed>2.18</speed>
  <fix>3d</fix>
</trkpt>
<trkpt lat="40.0708102" lon="-105.2295654">
  <ele>1583.13</ele>
  <time>2026-08-27T17:17:30Z</time>
  <course>55.72</course>
  <speed>2.1523243250030886</speed>
  <fix>3d</fix>
</trkpt>
<trkpt lat="40.070809" lon="-105.2295681">
  <ele>1583.0</ele>
  <time>2026-08-27T17:17:30Z</time>
  <course>54.65</course>
  <speed>2.18</speed>
  <fix>3d</fix>
</trkpt>
<trkpt lat="40.0708113" lon="-105.2295633">
  <ele>1583.13</ele>
  <time>2026-08-27T17:17:30Z</time>
  <course>55.9</course>
  <speed>2.1523243250030886</speed>
  <fix>3d</fix>
</trkpt>
<trkpt lat="40.070809" lon="-105.2295681">
  <ele>1583.0</ele>
  <time>2026-08-27T17:17:30Z</time>
  <course>54.65</course>
  <speed>2.18</speed>
  <fix>3d</fix>
</trkpt>
<trkpt lat="40.0708124" lon="-105.2295612">
  <ele>1583.13</ele>
  <time>2026-08-27T17:17:30Z</time>
  <course>56.05</course>
  <speed>2.1606017680266763</speed>
  <fix>3d</fix>
</trkpt>
<trkpt lat="40.0708113" lon="-105.2295638">
  <ele>1583.0</ele>
  <time>2026-08-27T17:17:30Z</time>
  <course>55.0</course>
  <speed>2.19</speed>
  <fix>3d</fix>
</trkpt>
<trkpt lat="40.0708135" lon="-105.2295591">
  <ele>1583.14</ele>
  <time>2026-08-27T17:17:30Z</time>
  <course>56.2</course>
  <speed>2.155017401321855</speed>
  <fix>3d</fix>
</trkpt>
<trkpt lat="40.0708113" lon="-105.2295638">
  <ele>1583.0</ele>
  <time>2026-08-27T17:17:30Z</time>
  <course>55.0</course>
  <speed>2.19</speed>
  <fix>3d</fix>
</trkpt>
<trkpt lat="40.0708147" lon="-105.229557">
  <ele>1583.14</ele>
  <time>2026-08-27T17:17:30Z</time>
  <course>56.35</course>
  <speed>2.1633307652783937</speed>
  <fix>3d</fix>
</trkpt>
<trkpt lat="40.0708135" lon="-105.2295596">
  <ele>1583.0</ele>
  <time>2026-08-27T17:17:30Z</time>
  <course>55.32</course>
  <speed>2.19</speed>
  <fix>3d</fix>
</trkpt>
<trkpt lat="40.0708158" lon="-105.2295548">
  <ele>1583.14</ele>
  <time>2026-08-27T17:17:30Z</time>
  <course>56.49</course>
  <speed>2.1633307652783937</speed>
  <fix>3d</fix>
</trkpt>
<trkpt lat="40.0708135" lon="-105.2295596">
  <ele>1583.0</ele>
  <time>2026-08-27T17:17:30Z</time>
  <course>55.32</course>
  <speed>2.19</speed>
  <fix>3d</fix>
</trkpt>
<trkpt lat="40.0708169" lon="-105.2295527">
  <ele>1583.14</ele>
  <time>2026-08-27T17:17:30Z</time>
  <course>56.62</course>
  <speed>2.171658352503911</speed>
  <fix>3d</fix>
</trkpt>
<trkpt lat="40.0708158" lon="-105.2295554">
  <ele>1583.0</ele>
  <time>2026-08-27T17:17:30Z</time>
  <course>55.6</course>
  <speed>2.19</speed>
  <fix>3d</fix>
</trkpt>
<trkpt lat="40.070818" lon="-105.2295505">
  <ele>1583.14</ele>
  <time>2026-08-27T17:17:30Z</time>
  <course>56.73</course>
  <speed>2.1661486560252508</speed>
  <fix>3d</fix>
</trkpt>
<trkpt lat="40.0708158" lon="-105.2295554">
  <ele>1583.0</ele>
  <time>2026-08-27T17:17:30Z</time>
  <course>55.6</course>
  <speed>2.19</speed>
  <fix>3d</fix>
</trkpt>
<trkpt lat="40.0708191" lon="-105.2295484">
  <ele>1583.14</ele>
  <time>2026-08-27T17:17:30Z</time>
  <course>56.85</course>
  <speed>2.1745114393812695</speed>
  <fix>3d</fix>
</trkpt>
<trkpt lat="40.070818" lon="-105.2295511">
  <ele>1583.0</ele>
  <time>2026-08-27T17:17:30Z</time>
  <course>55.86</course>
  <speed>2.2</speed>
  <fix>3d</fix>
</trkpt>
<trkpt lat="40.0708205" lon="-105.2295458">
  <ele>1583.14</ele>
  <time>2026-08-27T17:17:30Z</time>
  <course>56.99</course>
  <speed>2.1745114393812695</speed>
  <fix>3d</fix>
</trkpt>
<trkpt lat="40.070818" lon="-105.2295511">
  <ele>1583.0</ele>
  <time>2026-08-27T17:17:30Z</time>
  <course>55.86</course>
  <speed>2.2</speed>
  <fix>3d</fix>
</trkpt>
<trkpt lat="40.0708216" lon="-105.2295436">
  <ele>1583.14</ele>
  <time>2026-08-27T17:17:30Z</time>
  <course>57.09</course>
  <speed>2.1828879952943074</speed>
  <fix>3d</fix>
</trkpt>
<trkpt lat="40.0708202" lon="-105.2295468">
  <ele>1583.0</ele>
  <time>2026-08-27T17:17:30Z</time>
  <course>56.09</course>
  <speed>2.2</speed>
  <fix>3d</fix>
</trkpt>
<trkpt lat="40.0708227" lon="-105.2295414">
  <ele>1583.14</ele>
  <time>2026-08-27T17:17:30Z</time>
  <course>57.18</course>
  <speed>2.1828879952943074</speed>
  <fix>3d</fix>
</trkpt>
<trkpt lat="40.0708202" lon="-105.2295468">
  <ele>1583.0</ele>
  <time>2026-08-27T17:17:30Z</time>
  <course>56.09</course>
  <speed>2.2</speed>
  <fix>3d</fix>
</trkpt>
<trkpt lat="40.0708238" lon="-105.2295392">
  <ele>1583.14</ele>
  <time>2026-08-27T17:17:30Z</time>
  <course>57.26</course>
  <speed>2.1774526401279086</speed>
  <fix>3d</fix>
</trkpt>
<trkpt lat="40.0708225" lon="-105.2295425">
  <ele>1583.0</ele>
  <time>2026-08-27T17:17:30Z</time>
  <course>56.29</course>
  <speed>2.2</speed>
  <fix>3d</fix>
</trkpt>
<trkpt lat="40.0708249" lon="-105.2295371">
  <ele>1583.14</ele>
  <time>2026-08-27T17:17:30Z</time>
  <course>57.35</course>
  <speed>2.185863673699712</speed>
  <fix>3d</fix>
</trkpt>
<trkpt lat="40.0708225" lon="-105.2295425">
  <ele>1583.0</ele>
  <time>2026-08-27T17:17:30Z</time>
  <course>56.29</course>
  <speed>2.2</speed>
  <fix>3d</fix>
</trkpt>
<trkpt lat="40.070826" lon="-105.2295349">
  <ele>1583.14</ele>
  <time>2026-08-27T17:17:30Z</time>
  <course>57.51</course>
  <speed>2.185863673699712</speed>
  <fix>3d</fix>
</trkpt>
<trkpt lat="40.0708247" lon="-105.2295381">
  <ele>1583.0</ele>
  <time>2026-08-27T17:17:30Z</time>
  <course>56.49</course>
  <speed>2.21</speed>
  <fix>3d</fix>
</trkpt>
<trkpt lat="40.0708271" lon="-105.2295327">
  <ele>1583.14</ele>
  <time>2026-08-27T17:17:30Z</time>
  <course>57.76</course>
  <speed>2.1889266776207923</speed>
  <fix>3d</fix>
</trkpt>
<trkpt lat="40.0708247" lon="-105.2295381">
  <ele>1583.0</ele>
  <time>2026-08-27T17:17:30Z</time>
  <course>56.49</course>
  <speed>2.21</speed>
  <fix>3d</fix>
</trkpt>
<trkpt lat="40.0708282" lon="-105.2295306">
  <ele>1583.14</ele>
  <time>2026-08-27T17:17:30Z</time>
  <course>58.25</course>
  <speed>2.1920766409959302</speed>
  <fix>3d</fix>
</trkpt>
<trkpt lat="40.0708269" lon="-105.2295338">
  <ele>1583.0</ele>
  <time>2026-08-27T17:17:30Z</time>
  <course>56.92</course>
  <speed>2.21</speed>
  <fix>3d</fix>
</trkpt>
<trkpt lat="40.0708292" lon="-105.2295284">
  <ele>1583.14</ele>
  <time>2026-08-27T17:17:30Z</time>
  <course>58.88</course>
  <speed>2.190091322296858</speed>
  <fix>3d</fix>
</trkpt>
<trkpt lat="40.0708269" lon="-105.2295338">
  <ele>1583.0</ele>
  <time>2026-08-27T17:17:30Z</time>
  <course>56.92</course>
  <speed>2.21</speed>
  <fix>3d</fix>
</trkpt>
<trkpt lat="40.0708303" lon="-105.2295262">
  <ele>1583.15</ele>
  <time>2026-08-27T17:17:30Z</time>
  <course>59.13</course>
  <speed>2.1934675744127152</speed>
  <fix>3d</fix>
</trkpt>
<trkpt lat="40.070829" lon="-105.2295295">
  <ele>1583.0</ele>
  <time>2026-08-27T17:17:30Z</time>
  <course>57.72</course>
  <speed>2.21</speed>
  <fix>3d</fix>
</trkpt>
<trkpt lat="40.0708313" lon="-105.229524">
  <ele>1583.15</ele>
  <time>2026-08-27T17:17:30Z</time>
  <course>59.36</course>
  <speed>2.188332698654389</speed>
  <fix>3d</fix>
</trkpt>
<trkpt lat="40.070829" lon="-105.2295295">
  <ele>1583.0</ele>
  <time>2026-08-27T17:17:30Z</time>
  <course>57.72</course>
  <speed>2.21</speed>
  <fix>3d</fix>
</trkpt>
<trkpt lat="40.0708322" lon="-105.2295222">
  <ele>1583.15</ele>
  <time>2026-08-27T17:17:30Z</time>
  <course>59.51</course>
  <speed>2.188332698654389</speed>
  <fix>3d</fix>
</trkpt>
<trkpt lat="40.0708311" lon="-105.229525">
  <ele>1583.0</ele>
  <time>2026-08-27T17:17:30Z</time>
  <course>58.43</course>
  <speed>2.21</speed>
  <fix>3d</fix>
</trkpt>
<trkpt lat="40.0708332" lon="-105.22952">
  <ele>1583.15</ele>
  <time>2026-08-27T17:17:30Z</time>
  <course>59.69</course>
  <speed>2.19184853491294</speed>
  <fix>3d</fix>
</trkpt>
<trkpt lat="40.0708311" lon="-105.229525">
  <ele>1583.0</ele>
  <time>2026-08-27T17:17:30Z</time>
  <course>58.43</course>
  <speed>2.21</speed>
  <fix>3d</fix>
</trkpt>
<trkpt lat="40.0708342" lon="-105.2295177">
  <ele>1583.15</ele>
  <time>2026-08-27T17:17:30Z</time>
  <course>59.86</course>
  <speed>2.19184853491294</speed>
  <fix>3d</fix>
</trkpt>
<trkpt lat="40.0708331" lon="-105.2295206">
  <ele>1583.0</ele>
  <time>2026-08-27T17:17:30Z</time>
  <course>58.82</course>
  <speed>2.22</speed>
  <fix>3d</fix>
</trkpt>
<trkpt lat="40.0708353" lon="-105.2295155">
  <ele>1583.14</ele>
  <time>2026-08-27T17:17:30Z</time>
  <course>60.01</course>
  <speed>2.2004772209682155</speed>
  <fix>3d</fix>
</trkpt>
<trkpt lat="40.0708331" lon="-105.2295206">
  <ele>1583.0</ele>
  <time>2026-08-27T17:17:30Z</time>
  <course>58.82</course>
  <speed>2.22</speed>
  <fix>3d</fix>
</trkpt>
<trkpt lat="40.0708363" lon="-105.2295133">
  <ele>1583.14</ele>
  <time>2026-08-27T17:17:30Z</time>
  <course>60.16</course>
  <speed>2.195449840010015</speed>
  <fix>3d</fix>
</trkpt>
<trkpt lat="40.0708352" lon="-105.2295161">
  <ele>1583.0</ele>
  <time>2026-08-27T17:17:30Z</time>
  <course>59.15</course>
  <speed>2.22</speed>
  <fix>3d</fix>
</trkpt>
<trkpt lat="40.0708373" lon="-105.229511">
  <ele>1583.14</ele>
  <time>2026-08-27T17:17:30Z</time>
  <course>60.3</course>
  <speed>2.204109797628058</speed>
  <fix>3d</fix>
</trkpt>
<trkpt lat="40.0708352" lon="-105.2295161">
  <ele>1583.0</ele>
  <time>2026-08-27T17:17:30Z</time>
  <course>59.15</course>
  <speed>2.22</speed>
  <fix>3d</fix>
</trkpt>
<trkpt lat="40.0708383" lon="-105.2295087">
  <ele>1583.14</ele>
  <time>2026-08-27T17:17:30Z</time>
  <course>60.42</course>
  <speed>2.204109797628058</speed>
  <fix>3d</fix>
</trkpt>
<trkpt lat="40.0708372" lon="-105.2295116">
  <ele>1583.0</ele>
  <time>2026-08-27T17:17:30Z</time>
  <course>59.43</course>
  <speed>2.22</speed>
  <fix>3d</fix>
</trkpt>
<trkpt lat="40.0708393" lon="-105.2295065">
  <ele>1583.14</ele>
  <time>2026-08-27T17:17:30Z</time>
  <course>60.54</course>
  <speed>2.199136194054384</speed>
  <fix>3d</fix>
</trkpt>
<trkpt lat="40.0708372" lon="-105.2295116">
  <ele>1583.0</ele>
  <time>2026-08-27T17:17:30Z</time>
  <course>59.43</course>
  <speed>2.22</speed>
  <fix>3d</fix>
</trkpt>
<trkpt lat="40.0708404" lon="-105.2295042">
  <ele>1583.14</ele>
  <time>2026-08-27T17:17:30Z</time>
  <course>60.65</course>
  <speed>2.207826985975124</speed>
  <fix>3d</fix>
</trkpt>
<trkpt lat="40.0708393" lon="-105.2295071">
  <ele>1583.0</ele>
  <time>2026-08-27T17:17:30Z</time>
  <course>59.67</course>
  <speed>2.22</speed>
  <fix>3d</fix>
</trkpt>
<trkpt lat="40.0708414" lon="-105.2295019">
  <ele>1583.13</ele>
  <time>2026-08-27T17:17:30Z</time>
  <course>60.74</course>
  <speed>2.207826985975124</speed>
  <fix>3d</fix>
</trkpt>
<trkpt lat="40.0708393" lon="-105.2295071">
  <ele>1583.0</ele>
  <time>2026-08-27T17:17:30Z</time>
  <course>59.67</course>
  <speed>2.22</speed>
  <fix>3d</fix>
</trkpt>
<trkpt lat="40.0708426" lon="-105.2294992">
  <ele>1583.14</ele>
  <time>2026-08-27T17:17:30Z</time>
  <course>60.85</course>
  <speed>2.216528817768901</speed>
  <fix>3d</fix>
</trkpt>
<trkpt lat="40.0708413" lon="-105.2295025">
  <ele>1583.0</ele>
  <time>2026-08-27T17:17:30Z</time>
  <course>59.88</course>
  <speed>2.23</speed>
  <fix>3d</fix>
</trkpt>
<trkpt lat="40.0708436" lon="-105.2294969">
  <ele>1583.14</ele>
  <time>2026-08-27T17:17:30Z</time>
  <course>60.92</course>
  <speed>2.2116283593768644</speed>
  <fix>3d</fix>
</trkpt>
<trkpt lat="40.0708413" lon="-105.2295025">
  <ele>1583.0</ele>
  <time>2026-08-27T17:17:30Z</time>
  <course>59.88</course>
  <speed>2.23</speed>
  <fix>3d</fix>
</trkpt>
<trkpt lat="40.0708446" lon="-105.2294946">
  <ele>1583.14</ele>
  <time>2026-08-27T17:17:30Z</time>
  <course>60.99</course>
  <speed>2.2116283593768644</speed>
  <fix>3d</fix>
</trkpt>
<trkpt lat="40.0708432" lon="-105.229498">
  <ele>1583.0</ele>
  <time>2026-08-27T17:17:30Z</time>
  <course>60.04</course>
  <speed>2.23</speed>
  <fix>3d</fix>
</trkpt>
<trkpt lat="40.0708456" lon="-105.2294923">
  <ele>1583.15</ele>
  <time>2026-08-27T17:17:30Z</time>
  <course>61.05</course>
  <speed>2.2116283593768644</speed>
  <fix>3d</fix>
</trkpt>
<trkpt lat="40.0708432" lon="-105.229498">
  <ele>1583.0</ele>
  <time>2026-08-27T17:17:30Z</time>
  <course>60.04</course>
  <speed>2.23</speed>
  <fix>3d</fix>
</trkpt>
<trkpt lat="40.0708466" lon="-105.22949">
  <ele>1583.15</ele>
  <time>2026-08-27T17:17:30Z</time>
  <course>61.11</course>
  <speed>2.2116283593768644</speed>
  <fix>3d</fix>
</trkpt>
<trkpt lat="40.0708453" lon="-105.2294934">
  <ele>1583.0</ele>
  <time>2026-08-27T17:17:30Z</time>
  <course>60.17</course>
  <speed>2.23</speed>
  <fix>3d</fix>
</trkpt>
<trkpt lat="40.0708476" lon="-105.2294877">
  <ele>1583.15</ele>
  <time>2026-08-27T17:17:30Z</time>
  <course>61.14</course>
  <speed>2.220360331117452</speed>
  <fix>3d</fix>
</trkpt>
<trkpt lat="40.0708453" lon="-105.2294934">
  <ele>1583.0</ele>
  <time>2026-08-27T17:17:30Z</time>
  <course>60.17</course>
  <speed>2.23</speed>
  <fix>3d</fix>
</trkpt>
<trkpt lat="40.0708486" lon="-105.2294855">
  <ele>1583.15</ele>
  <time>2026-08-27T17:17:30Z</time>
  <course>61.18</course>
  <speed>2.220360331117452</speed>
  <fix>3d</fix>
</trkpt>
<trkpt lat="40.0708472" lon="-105.2294889">
  <ele>1583.0</ele>
  <time>2026-08-27T17:17:30Z</time>
  <course>60.27</course>
  <speed>2.23</speed>
  <fix>3d</fix>
</trkpt>
<trkpt lat="40.0708496" lon="-105.2294832">
  <ele>1583.15</ele>
  <time>2026-08-27T17:17:30Z</time>
  <course>61.21</course>
  <speed>2.220360331117452</speed>
  <fix>3d</fix>
</trkpt>
<trkpt lat="40.0708472" lon="-105.2294889">
  <ele>1583.0</ele>
  <time>2026-08-27T17:17:30Z</time>
  <course>60.27</course>
  <speed>2.23</speed>
  <fix>3d</fix>
</trkpt>
<trkpt lat="40.0708505" lon="-105.2294809">
  <ele>1583.15</ele>
  <time>2026-08-27T17:17:30Z</time>
  <course>61.24</course>
  <speed>2.220360331117452</speed>
  <fix>3d</fix>
</trkpt>
<trkpt lat="40.0708493" lon="-105.2294843">
  <ele>1583.0</ele>
  <time>2026-08-27T17:17:30Z</time>
  <course>60.34</course>
  <speed>2.23</speed>
  <fix>3d</fix>
</trkpt>
<trkpt lat="40.0708515" lon="-105.2294787">
  <ele>1583.15</ele>
  <time>2026-08-27T17:17:30Z</time>
  <course>61.24</course>
  <speed>2.220360331117452</speed>
  <fix>3d</fix>
</trkpt>
<trkpt lat="40.0708493" lon="-105.2294843">
  <ele>1583.0</ele>
  <time>2026-08-27T17:17:30Z</time>
  <course>60.34</course>
  <speed>2.23</speed>
  <fix>3d</fix>
</trkpt>
<trkpt lat="40.0708525" lon="-105.2294764">
  <ele>1583.15</ele>
  <time>2026-08-27T17:17:30Z</time>
  <course>61.24</course>
  <speed>2.220360331117452</speed>
  <fix>3d</fix>
</trkpt>
<trkpt lat="40.0708513" lon="-105.2294798">
  <ele>1583.0</ele>
  <time>2026-08-27T17:17:30Z</time>
  <course>60.37</course>
  <speed>2.24</speed>
  <fix>3d</fix>
</trkpt>
<trkpt lat="40.0708533" lon="-105.2294746">
  <ele>1583.15</ele>
  <time>2026-08-27T17:17:30Z</time>
  <course>61.24</course>
  <speed>2.2116283593768644</speed>
  <fix>3d</fix>
</trkpt>
<trkpt lat="40.0708513" lon="-105.2294798">
  <ele>1583.0</ele>
  <time>2026-08-27T17:17:30Z</time>
  <course>60.37</course>
  <speed>2.24</speed>
  <fix>3d</fix>
</trkpt>
<trkpt lat="40.0708543" lon="-105.2294723">
  <ele>1583.15</ele>
  <time>2026-08-27T17:17:30Z</time>
  <course>61.24</course>
  <speed>2.2116283593768644</speed>
  <fix>3d</fix>
</trkpt>
<trkpt lat="40.0708532" lon="-105.2294752">
  <ele>1583.0</ele>
  <time>2026-08-27T17:17:30Z</time>
  <course>60.37</course>
  <speed>2.24</speed>
  <fix>3d</fix>
</trkpt>
<trkpt lat="40.0708553" lon="-105.22947">
  <ele>1583.14</ele>
  <time>2026-08-27T17:17:30Z</time>
  <course>61.24</course>
  <speed>2.2116283593768644</speed>
  <fix>3d</fix>
</trkpt>
<trkpt lat="40.0708532" lon="-105.2294752">
  <ele>1583.0</ele>
  <time>2026-08-27T17:17:30Z</time>
  <course>60.37</course>
  <speed>2.24</speed>
  <fix>3d</fix>
</trkpt>
<trkpt lat="40.0708563" lon="-105.2294678">
  <ele>1583.14</ele>
  <time>2026-08-27T17:17:30Z</time>
  <course>61.24</course>
  <speed>2.2116283593768644</speed>
  <fix>3d</fix>
</trkpt>
<trkpt lat="40.0708553" lon="-105.2294706">
  <ele>1583.0</ele>
  <time>2026-08-27T17:17:30Z</time>
  <course>60.37</course>
  <speed>2.24</speed>
  <fix>3d</fix>
</trkpt>
<trkpt lat="40.0708573" lon="-105.2294655">
  <ele>1583.14</ele>
  <time>2026-08-27T17:17:30Z</time>
  <course>61.24</course>
  <speed>2.220360331117452</speed>
  <fix>3d</fix>
</trkpt>
<trkpt lat="40.0708553" lon="-105.2294706">
  <ele>1583.0</ele>
  <time>2026-08-27T17:17:30Z</time>
  <course>60.37</course>
  <speed>2.24</speed>
  <fix>3d</fix>
</trkpt>
<trkpt lat="40.0708583" lon="-105.2294632">
  <ele>1583.14</ele>
  <time>2026-08-27T17:17:30Z</time>
  <course>61.24</course>
  <speed>2.220360331117452</speed>
  <fix>3d</fix>
</trkpt>
<trkpt lat="40.0708573" lon="-105.2294661">
  <ele>1583.0</ele>
  <time>2026-08-27T17:17:30Z</time>
  <course>60.37</course>
  <speed>2.24</speed>
  <fix>3d</fix>
</trkpt>
<trkpt lat="40.0708593" lon="-105.2294609">
  <ele>1583.14</ele>
  <time>2026-08-27T17:17:30Z</time>
  <course>61.24</course>
  <speed>2.220360331117452</speed>
  <fix>3d</fix>
</trkpt>
<trkpt lat="40.0708573" lon="-105.2294661">
  <ele>1583.0</ele>
  <time>2026-08-27T17:17:30Z</time>
  <course>60.37</course>
  <speed>2.24</speed>
  <fix>3d</fix>
</trkpt>
<trkpt lat="40.0708603" lon="-105.2294586">
  <ele>1583.14</ele>
  <time>2026-08-27T17:17:30Z</time>
  <course>61.24</course>
  <speed>2.220360331117452</speed>
  <fix>3d</fix>
</trkpt>
<trkpt lat="40.0708592" lon="-105.2294614">
  <ele>1583.0</ele>
  <time>2026-08-27T17:17:30Z</time>
  <course>60.37</course>
  <speed>2.24</speed>
  <fix>3d</fix>
</trkpt>
<trkpt lat="40.0708613" lon="-105.2294563">
  <ele>1583.14</ele>
  <time>2026-08-27T17:17:30Z</time>
  <course>61.24</course>
  <speed>2.220360331117452</speed>
  <fix>3d</fix>
</trkpt>
<trkpt lat="40.0708592" lon="-105.2294614">
  <ele>1583.0</ele>
  <time>2026-08-27T17:17:30Z</time>
  <course>60.37</course>
  <speed>2.24</speed>
  <fix>3d</fix>
</trkpt>
<trkpt lat="40.0708623" lon="-105.229454">
  <ele>1583.13</ele>
  <time>2026-08-27T17:17:30Z</time>
  <course>61.25</course>
  <speed>2.220360331117452</speed>
  <fix>3d</fix>
</trkpt>
<trkpt lat="40.0708613" lon="-105.2294569">
  <ele>1583.0</ele>
  <time>2026-08-27T17:17:30Z</time>
  <course>60.37</course>
  <speed>2.24</speed>
  <fix>3d</fix>
</trkpt>
<trkpt lat="40.0708635" lon="-105.2294512">
  <ele>1583.13</ele>
  <time>2026-08-27T17:17:30Z</time>
  <course>61.25</course>
  <speed>2.220360331117452</speed>
  <fix>3d</fix>
</trkpt>
<trkpt lat="40.0708613" lon="-105.2294569">
  <ele>1583.0</ele>
  <time>2026-08-27T17:17:30Z</time>
  <course>60.37</course>
  <speed>2.24</speed>
  <fix>3d</fix>
</trkpt>
<trkpt lat="40.0708645" lon="-105.2294489">
  <ele>1583.13</ele>
  <time>2026-08-27T17:17:30Z</time>
  <course>61.25</course>
  <speed>2.220360331117452</speed>
  <fix>3d</fix>
</trkpt>
<trkpt lat="40.0708633" lon="-105.2294523">
  <ele>1583.0</ele>
  <time>2026-08-27T17:17:30Z</time>
  <course>60.37</course>
  <speed>2.24</speed>
  <fix>3d</fix>
</trkpt>
<trkpt lat="40.0708655" lon="-105.2294466">
  <ele>1583.14</ele>
  <time>2026-08-27T17:17:30Z</time>
  <course>61.25</course>
  <speed>2.220360331117452</speed>
  <fix>3d</fix>
</trkpt>
<trkpt lat="40.0708633" lon="-105.2294523">
  <ele>1583.0</ele>
  <time>2026-08-27T17:17:30Z</time>
  <course>60.37</course>
  <speed>2.24</speed>
  <fix>3d</fix>
</trkpt>
<trkpt lat="40.0708665" lon="-105.2294443">
  <ele>1583.14</ele>
  <time>2026-08-27T17:17:30Z</time>
  <course>61.25</course>
  <speed>2.2252415599210797</speed>
  <fix>3d</fix>
</trkpt>
<trkpt lat="40.0708652" lon="-105.2294478">
  <ele>1583.0</ele>
  <time>2026-08-27T17:17:30Z</time>
  <course>60.37</course>
  <speed>2.24</speed>
  <fix>3d</fix>
</trkpt>
<trkpt lat="40.0708675" lon="-105.229442">
  <ele>1583.14</ele>
  <time>2026-08-27T17:17:30Z</time>
  <course>61.25</course>
  <speed>2.2252415599210797</speed>
  <fix>3d</fix>
</trkpt>
<trkpt lat="40.0708652" lon="-105.2294478">
  <ele>1583.0</ele>
  <time>2026-08-27T17:17:30Z</time>
  <course>60.37</course>
  <speed>2.24</speed>
  <fix>3d</fix>
</trkpt>
<trkpt lat="40.0708685" lon="-105.2294397">
  <ele>1583.14</ele>
  <time>2026-08-27T17:17:30Z</time>
  <course>61.23</course>
  <speed>2.2252415599210797</speed>
  <fix>3d</fix>
</trkpt>
<trkpt lat="40.0708673" lon="-105.2294431">
  <ele>1583.0</ele>
  <time>2026-08-27T17:17:30Z</time>
  <course>60.37</course>
  <speed>2.24</speed>
  <fix>3d</fix>
</trkpt>
<trkpt lat="40.0708695" lon="-105.2294374">
  <ele>1583.14</ele>
  <time>2026-08-27T17:17:30Z</time>
  <course>61.22</course>
  <speed>2.2252415599210797</speed>
  <fix>3d</fix>
</trkpt>
<trkpt lat="40.0708673" lon="-105.2294431">
  <ele>1583.0</ele>
  <time>2026-08-27T17:17:30Z</time>
  <course>60.37</course>
  <speed>2.24</speed>
  <fix>3d</fix>
</trkpt>
<trkpt lat="40.0708705" lon="-105.2294351">
  <ele>1583.14</ele>
  <time>2026-08-27T17:17:30Z</time>
  <course>61.19</course>
  <speed>2.2252415599210797</speed>
  <fix>3d</fix>
</trkpt>
<trkpt lat="40.0708692" lon="-105.2294386">
  <ele>1583.0</ele>
  <time>2026-08-27T17:17:30Z</time>
  <course>60.34</course>
  <speed>2.24</speed>
  <fix>3d</fix>
</trkpt>
<trkpt lat="40.0708715" lon="-105.2294329">
  <ele>1583.14</ele>
  <time>2026-08-27T17:17:30Z</time>
  <course>61.16</course>
  <speed>2.2252415599210797</speed>
  <fix>3d</fix>
</trkpt>
<trkpt lat="40.0708692" lon="-105.2294386">
  <ele>1583.0</ele>
  <time>2026-08-27T17:17:30Z</time>
  <course>60.34</course>
  <speed>2.24</speed>
  <fix>3d</fix>
</trkpt>
<trkpt lat="40.0708725" lon="-105.2294306">
  <ele>1583.14</ele>
  <time>2026-08-27T17:17:30Z</time>
  <course>61.13</course>
  <speed>2.216528817768901</speed>
  <fix>3d</fix>
</trkpt>
<trkpt lat="40.0708712" lon="-105.229434">
  <ele>1583.0</ele>
  <time>2026-08-27T17:17:30Z</time>
  <course>60.28</course>
  <speed>2.24</speed>
  <fix>3d</fix>
</trkpt>
<trkpt lat="40.0708735" lon="-105.2294284">
  <ele>1583.14</ele>
  <time>2026-08-27T17:17:30Z</time>
  <course>61.1</course>
  <speed>2.216528817768901</speed>
  <fix>3d</fix>
</trkpt>
<trkpt lat="40.0708712" lon="-105.229434">
  <ele>1583.0</ele>
  <time>2026-08-27T17:17:30Z</time>
  <course>60.28</course>
  <speed>2.24</speed>
  <fix>3d</fix>
</trkpt>
<trkpt lat="40.0708743" lon="-105.2294265">
  <ele>1583.14</ele>
  <time>2026-08-27T17:17:30Z</time>
  <course>61.07</course>
  <speed>2.216528817768901</speed>
  <fix>3d</fix>
</trkpt>
<trkpt lat="40.0708731" lon="-105.2294294">
  <ele>1583.0</ele>
  <time>2026-08-27T17:17:30Z</time>
  <course>60.22</course>
  <speed>2.24</speed>
  <fix>3d</fix>
</trkpt>
<trkpt lat="40.0708753" lon="-105.2294243">
  <ele>1583.14</ele>
  <time>2026-08-27T17:17:30Z</time>
  <course>61.04</course>
  <speed>2.216528817768901</speed>
  <fix>3d</fix>
</trkpt>
<trkpt lat="40.0708731" lon="-105.2294294">
  <ele>1583.0</ele>
  <time>2026-08-27T17:17:30Z</time>
  <course>60.22</course>
  <speed>2.24</speed>
  <fix>3d</fix>
</trkpt>
<trkpt lat="40.0708763" lon="-105.229422">
  <ele>1583.14</ele>
  <time>2026-08-27T17:17:30Z</time>
  <course>61.01</course>
  <speed>2.216528817768901</speed>
  <fix>3d</fix>
</trkpt>
<trkpt lat="40.0708752" lon="-105.2294249">
  <ele>1583.0</ele>
  <time>2026-08-27T17:17:30Z</time>
  <course>60.16</course>
  <speed>2.24</speed>
  <fix>3d</fix>
</trkpt>
<trkpt lat="40.0708773" lon="-105.2294197">
  <ele>1583.14</ele>
  <time>2026-08-27T17:17:30Z</time>
  <course>60.99</course>
  <speed>2.216528817768901</speed>
  <fix>3d</fix>
</trkpt>
<trkpt lat="40.0708752" lon="-105.2294249">
  <ele>1583.0</ele>
  <time>2026-08-27T17:17:30Z</time>
  <course>60.16</course>
  <speed>2.24</speed>
  <fix>3d</fix>
</trkpt>
<trkpt lat="40.0708783" lon="-105.2294174">
  <ele>1583.14</ele>
  <time>2026-08-27T17:17:30Z</time>
  <course>60.96</course>
  <speed>2.216528817768901</speed>
  <fix>3d</fix>
</trkpt>
<trkpt lat="40.0708772" lon="-105.2294202">
  <ele>1583.0</ele>
  <time>2026-08-27T17:17:30Z</time>
  <course>60.1</course>
  <speed>2.24</speed>
  <fix>3d</fix>
</trkpt>
<trkpt lat="40.0708793" lon="-105.2294151">
  <ele>1583.14</ele>
  <time>2026-08-27T17:17:30Z</time>
  <course>60.93</course>
  <speed>2.221463481581455</speed>
  <fix>3d</fix>
</trkpt>
<trkpt lat="40.0708772" lon="-105.2294202">
  <ele>1583.0</ele>
  <time>2026-08-27T17:17:30Z</time>
  <course>60.1</course>
  <speed>2.24</speed>
  <fix>3d</fix>
</trkpt>
<trkpt lat="40.0708803" lon="-105.2294128">
  <ele>1583.14</ele>
  <time>2026-08-27T17:17:30Z</time>
  <course>60.9</course>
  <speed>2.221463481581455</speed>
  <fix>3d</fix>
</trkpt>
<trkpt lat="40.0708793" lon="-105.2294157">
  <ele>1583.0</ele>
  <time>2026-08-27T17:17:30Z</time>
  <course>60.04</course>
  <speed>2.24</speed>
  <fix>3d</fix>
</trkpt>
<trkpt lat="40.0708814" lon="-105.2294105">
  <ele>1583.14</ele>
  <time>2026-08-27T17:17:30Z</time>
  <course>60.86</course>
  <speed>2.221463481581455</speed>
  <fix>3d</fix>
</trkpt>
<trkpt lat="40.0708793" lon="-105.2294157">
  <ele>1583.0</ele>
  <time>2026-08-27T17:17:30Z</time>
  <course>60.04</course>
  <speed>2.24</speed>
  <fix>3d</fix>
</trkpt>
<trkpt lat="40.0708824" lon="-105.2294082">
  <ele>1583.14</ele>
  <time>2026-08-27T17:17:30Z</time>
  <course>60.83</course>
  <speed>2.221463481581455</speed>
  <fix>3d</fix>
</trkpt>
<trkpt lat="40.0708812" lon="-105.2294111">
  <ele>1583.0</ele>
  <time>2026-08-27T17:17:30Z</time>
  <course>59.97</course>
  <speed>2.24</speed>
  <fix>3d</fix>
</trkpt>
<trkpt lat="40.0708836" lon="-105.2294055">
  <ele>1583.14</ele>
  <time>2026-08-27T17:17:30Z</time>
  <course>60.77</course>
  <speed>2.221463481581455</speed>
  <fix>3d</fix>
</trkpt>
<trkpt lat="40.0708812" lon="-105.2294111">
  <ele>1583.0</ele>
  <time>2026-08-27T17:17:30Z</time>
  <course>59.97</course>
  <speed>2.24</speed>
  <fix>3d</fix>
</trkpt>
<trkpt lat="40.0708846" lon="-105.2294032">
  <ele>1583.13</ele>
  <time>2026-08-27T17:17:30Z</time>
  <course>60.73</course>
  <speed>2.221463481581455</speed>
  <fix>3d</fix>
</trkpt>
<trkpt lat="40.0708833" lon="-105.2294066">
  <ele>1583.0</ele>
  <time>2026-08-27T17:17:30Z</time>
  <course>59.89</course>
  <speed>2.24</speed>
  <fix>3d</fix>
</trkpt>
<trkpt lat="40.0708856" lon="-105.2294009">
  <ele>1583.13</ele>
  <time>2026-08-27T17:17:30Z</time>
  <course>60.69</course>
  <speed>2.2264321233758735</speed>
  <fix>3d</fix>
</trkpt>
<trkpt lat="40.0708833" lon="-105.2294066">
  <ele>1583.0</ele>
  <time>2026-08-27T17:17:30Z</time>
  <course>59.89</course>
  <speed>2.24</speed>
  <fix>3d</fix>
</trkpt>
<trkpt lat="40.0708867" lon="-105.2293986">
  <ele>1583.14</ele>
  <time>2026-08-27T17:17:30Z</time>
  <course>60.65</course>
  <speed>2.2264321233758735</speed>
  <fix>3d</fix>
</trkpt>
<trkpt lat="40.0708853" lon="-105.229402">
  <ele>1583.0</ele>
  <time>2026-08-27T17:17:30Z</time>
  <course>59.81</course>
  <speed>2.24</speed>
  <fix>3d</fix>
</trkpt>
<trkpt lat="40.0708877" lon="-105.2293963">
  <ele>1583.14</ele>
  <time>2026-08-27T17:17:30Z</time>
  <course>60.61</course>
  <speed>2.2264321233758735</speed>
  <fix>3d</fix>
</trkpt>
<trkpt lat="40.0708853" lon="-105.229402">
  <ele>1583.0</ele>
  <time>2026-08-27T17:17:30Z</time>
  <course>59.81</course>
  <speed>2.24</speed>
  <fix>3d</fix>
</trkpt>
<trkpt lat="40.0708887" lon="-105.229394">
  <ele>1583.14</ele>
  <time>2026-08-27T17:17:30Z</time>
  <course>60.57</course>
  <speed>2.2177691493931464</speed>
  <fix>3d</fix>
</trkpt>
<trkpt lat="40.0708873" lon="-105.2293975">
  <ele>1583.0</ele>
  <time>2026-08-27T17:17:30Z</time>
  <course>59.73</course>
  <speed>2.24</speed>
  <fix>3d</fix>
</trkpt>
<trkpt lat="40.0708897" lon="-105.2293918">
  <ele>1583.15</ele>
  <time>2026-08-27T17:17:30Z</time>
  <course>60.54</course>
  <speed>2.2177691493931464</speed>
  <fix>3d</fix>
</trkpt>
<trkpt lat="40.0708873" lon="-105.2293975">
  <ele>1583.0</ele>
  <time>2026-08-27T17:17:30Z</time>
  <course>59.73</course>
  <speed>2.24</speed>
  <fix>3d</fix>
</trkpt>
<trkpt lat="40.0708907" lon="-105.2293895">
  <ele>1583.15</ele>
  <time>2026-08-27T17:17:30Z</time>
  <course>60.5</course>
  <speed>2.2177691493931464</speed>
  <fix>3d</fix>
</trkpt>
<trkpt lat="40.0708894" lon="-105.2293929">
  <ele>1583.0</ele>
  <time>2026-08-27T17:17:30Z</time>
  <course>59.65</course>
  <speed>2.24</speed>
  <fix>3d</fix>
</trkpt>
<trkpt lat="40.0708917" lon="-105.2293873">
  <ele>1583.15</ele>
  <time>2026-08-27T17:17:30Z</time>
  <course>60.46</course>
  <speed>2.2177691493931464</speed>
  <fix>3d</fix>
</trkpt>
<trkpt lat="40.0708894" lon="-105.2293929">
  <ele>1583.0</ele>
  <time>2026-08-27T17:17:30Z</time>
  <course>59.65</course>
  <speed>2.24</speed>
  <fix>3d</fix>
</trkpt>
<trkpt lat="40.0708927" lon="-105.229385">
  <ele>1583.15</ele>
  <time>2026-08-27T17:17:30Z</time>
  <course>60.43</course>
  <speed>2.2177691493931464</speed>
  <fix>3d</fix>
</trkpt>
<trkpt lat="40.0708914" lon="-105.2293884">
  <ele>1583.0</ele>
  <time>2026-08-27T17:17:30Z</time>
  <course>59.57</course>
  <speed>2.24</speed>
  <fix>3d</fix>
</trkpt>
<trkpt lat="40.0708938" lon="-105.2293828">
  <ele>1583.15</ele>
  <time>2026-08-27T17:17:30Z</time>
  <course>60.4</course>
  <speed>2.2177691493931464</speed>
  <fix>3d</fix>
</trkpt>
<trkpt lat="40.0708914" lon="-105.2293884">
  <ele>1583.0</ele>
  <time>2026-08-27T17:17:30Z</time>
  <course>59.57</course>
  <speed>2.24</speed>
  <fix>3d</fix>
</trkpt>
<trkpt lat="40.0708948" lon="-105.2293805">
  <ele>1583.15</ele>
  <time>2026-08-27T17:17:30Z</time>
  <course>60.37</course>
  <speed>2.2091174708466728</speed>
  <fix>3d</fix>
</trkpt>
<trkpt lat="40.0708934" lon="-105.2293838">
  <ele>1583.0</ele>
  <time>2026-08-27T17:17:30Z</time>
  <course>59.5</course>
  <speed>2.24</speed>
  <fix>3d</fix>
</trkpt>
<trkpt lat="40.0708956" lon="-105.2293787">
  <ele>1583.15</ele>
  <time>2026-08-27T17:17:30Z</time>
  <course>60.35</course>
  <speed>2.2091174708466728</speed>
  <fix>3d</fix>
</trkpt>
<trkpt lat="40.0708934" lon="-105.2293838">
  <ele>1583.0</ele>
  <time>2026-08-27T17:17:30Z</time>
  <course>59.5</course>
  <speed>2.24</speed>
  <fix>3d</fix>
</trkpt>
<trkpt lat="40.0708966" lon="-105.2293765">
  <ele>1583.15</ele>
  <time>2026-08-27T17:17:30Z</time>
  <course>60.32</course>
  <speed>2.2091174708466728</speed>
  <fix>3d</fix>
</trkpt>
<trkpt lat="40.0708955" lon="-105.2293793">
  <ele>1583.0</ele>
  <time>2026-08-27T17:17:30Z</time>
  <course>59.44</course>
  <speed>2.24</speed>
  <fix>3d</fix>
</trkpt>
<trkpt lat="40.0708976" lon="-105.2293742">
  <ele>1583.15</ele>
  <time>2026-08-27T17:17:30Z</time>
  <course>60.29</course>
  <speed>2.2091174708466728</speed>
  <fix>3d</fix>
</trkpt>
<trkpt lat="40.0708955" lon="-105.2293793">
  <ele>1583.0</ele>
  <time>2026-08-27T17:17:30Z</time>
  <course>59.44</course>
  <speed>2.24</speed>
  <fix>3d</fix>
</trkpt>
<trkpt lat="40.0708986" lon="-105.229372">
  <ele>1583.15</ele>
  <time>2026-08-27T17:17:30Z</time>
  <course>60.26</course>
  <speed>2.2141589825484527</speed>
  <fix>3d</fix>
</trkpt>
<trkpt lat="40.0708975" lon="-105.2293748">
  <ele>1583.0</ele>
  <time>2026-08-27T17:17:30Z</time>
  <course>59.38</course>
  <speed>2.24</speed>
  <fix>3d</fix>
</trkpt>
<trkpt lat="40.0708997" lon="-105.2293697">
  <ele>1583.15</ele>
  <time>2026-08-27T17:17:30Z</time>
  <course>60.23</course>
  <speed>2.2141589825484527</speed>
  <fix>3d</fix>
</trkpt>
<trkpt lat="40.0708975" lon="-105.2293748">
  <ele>1583.0</ele>
  <time>2026-08-27T17:17:30Z</time>
  <course>59.38</course>
  <speed>2.24</speed>
  <fix>3d</fix>
</trkpt>
<trkpt lat="40.0709007" lon="-105.2293675">
  <ele>1583.15</ele>
  <time>2026-08-27T17:17:30Z</time>
  <course>60.27</course>
  <speed>2.2091174708466728</speed>
  <fix>3d</fix>
</trkpt>
<trkpt lat="40.0708996" lon="-105.2293703">
  <ele>1583.0</ele>
  <time>2026-08-27T17:17:30Z</time>
  <course>59.35</course>
  <speed>2.24</speed>
  <fix>3d</fix>
</trkpt>
<trkpt lat="40.0709017" lon="-105.2293652">
  <ele>1583.15</ele>
  <time>2026-08-27T17:17:30Z</time>
  <course>60.46</course>
  <speed>2.2177691493931464</speed>
  <fix>3d</fix>
</trkpt>
<trkpt lat="40.0708996" lon="-105.2293703">
  <ele>1583.0</ele>
  <time>2026-08-27T17:17:30Z</time>
  <course>59.35</course>
  <speed>2.24</speed>
  <fix>3d</fix>
</trkpt>
<trkpt lat="40.0709028" lon="-105.2293629">
  <ele>1583.15</ele>
  <time>2026-08-27T17:17:30Z</time>
  <course>60.85</course>
  <speed>2.2127810555949723</speed>
  <fix>3d</fix>
</trkpt>
<trkpt lat="40.0709016" lon="-105.2293657">
  <ele>1583.0</ele>
  <time>2026-08-27T17:17:30Z</time>
  <course>59.65</course>
  <speed>2.24</speed>
  <fix>3d</fix>
</trkpt>
<trkpt lat="40.0709038" lon="-105.2293606">
  <ele>1583.15</ele>
  <time>2026-08-27T17:17:30Z</time>
  <course>61.31</course>
  <speed>2.2116283593768644</speed>
  <fix>3d</fix>
</trkpt>
<trkpt lat="40.0709016" lon="-105.2293657">
  <ele>1583.0</ele>
  <time>2026-08-27T17:17:30Z</time>
  <course>59.65</course>
  <speed>2.24</speed>
  <fix>3d</fix>
</trkpt>
<trkpt lat="40.0709049" lon="-105.2293578">
  <ele>1583.15</ele>
  <time>2026-08-27T17:17:30Z</time>
  <course>61.76</course>
  <speed>2.210701246211256</speed>
  <fix>3d</fix>
</trkpt>
<trkpt lat="40.0709037" lon="-105.2293612">
  <ele>1583.0</ele>
  <time>2026-08-27T17:17:30Z</time>
  <course>60.36</course>
  <speed>2.24</speed>
  <fix>3d</fix>
</trkpt>
<trkpt lat="40.0709059" lon="-105.2293555">
  <ele>1583.15</ele>
  <time>2026-08-27T17:17:30Z</time>
  <course>62.03</course>
  <speed>2.219481921530338</speed>
  <fix>3d</fix>
</trkpt>
<trkpt lat="40.0709037" lon="-105.2293612">
  <ele>1583.0</ele>
  <time>2026-08-27T17:17:30Z</time>
  <course>60.36</course>
  <speed>2.24</speed>
  <fix>3d</fix>
</trkpt>
<trkpt lat="40.0709069" lon="-105.2293532">
  <ele>1583.15</ele>
  <time>2026-08-27T17:17:30Z</time>
  <course>62.24</course>
  <speed>2.2147234590350102</speed>
  <fix>3d</fix>
</trkpt>
<trkpt lat="40.0709056" lon="-105.2293565">
  <ele>1583.0</ele>
  <time>2026-08-27T17:17:30Z</time>
  <course>61.03</course>
  <speed>2.24</speed>
  <fix>3d</fix>
</trkpt>
<trkpt lat="40.0709079" lon="-105.2293509">
  <ele>1583.15</ele>
  <time>2026-08-27T17:17:30Z</time>
  <course>62.49</course>
  <speed>2.2188285197373863</speed>
  <fix>3d</fix>
</trkpt>
<trkpt lat="40.0709056" lon="-105.2293565">
  <ele>1583.0</ele>
  <time>2026-08-27T17:17:30Z</time>
  <course>61.03</course>
  <speed>2.24</speed>
  <fix>3d</fix>
</trkpt>
<trkpt lat="40.0709088" lon="-105.2293485">
  <ele>1583.15</ele>
  <time>2026-08-27T17:17:30Z</time>
  <course>62.77</course>
  <speed>2.2141589825484527</speed>
  <fix>3d</fix>
</trkpt>
<trkpt lat="40.0709075" lon="-105.229352">
  <ele>1583.0</ele>
  <time>2026-08-27T17:17:30Z</time>
  <course>61.54</course>
  <speed>2.24</speed>
  <fix>3d</fix>
</trkpt>
<trkpt lat="40.0709098" lon="-105.2293462">
  <ele>1583.15</ele>
  <time>2026-08-27T17:17:30Z</time>
  <course>62.98</course>
  <speed>2.2184003245582162</speed>
  <fix>3d</fix>
</trkpt>
<trkpt lat="40.0709075" lon="-105.229352">
  <ele>1583.0</ele>
  <time>2026-08-27T17:17:30Z</time>
  <course>61.54</course>
  <speed>2.24</speed>
  <fix>3d</fix>
</trkpt>
<trkpt lat="40.0709107" lon="-105.2293439">
  <ele>1583.15</ele>
  <time>2026-08-27T17:17:30Z</time>
  <course>63.15</course>
  <speed>2.2184003245582162</speed>
  <fix>3d</fix>
</trkpt>
<trkpt lat="40.0709094" lon="-105.2293473">
  <ele>1583.0</ele>
  <time>2026-08-27T17:17:30Z</time>
  <course>62.0</course>
  <speed>2.24</speed>
  <fix>3d</fix>
</trkpt>
<trkpt lat="40.0709116" lon="-105.2293416">
  <ele>1583.15</ele>
  <time>2026-08-27T17:17:30Z</time>
  <course>63.3</course>
  <speed>2.213820227570432</speed>
  <fix>3d</fix>
</trkpt>
<trkpt lat="40.0709094" lon="-105.2293473">
  <ele>1583.0</ele>
  <time>2026-08-27T17:17:30Z</time>
  <course>62.0</course>
  <speed>2.24</speed>
  <fix>3d</fix>
</trkpt>
<trkpt lat="40.0709125" lon="-105.2293393">
  <ele>1583.15</ele>
  <time>2026-08-27T17:17:30Z</time>
  <course>63.45</course>
  <speed>2.2227235545609356</speed>
  <fix>3d</fix>
</trkpt>
<trkpt lat="40.0709113" lon="-105.2293426">
  <ele>1583.0</ele>
  <time>2026-08-27T17:17:30Z</time>
  <course>62.35</course>
  <speed>2.24</speed>
  <fix>3d</fix>
</trkpt>
<trkpt lat="40.0709134" lon="-105.2293369">
  <ele>1583.15</ele>
  <time>2026-08-27T17:17:30Z</time>
  <course>63.57</course>
  <speed>2.2181974664127626</speed>
  <fix>3d</fix>
</trkpt>
<trkpt lat="40.0709113" lon="-105.2293426">
  <ele>1583.0</ele>
  <time>2026-08-27T17:17:30Z</time>
  <course>62.35</course>
  <speed>2.24</speed>
  <fix>3d</fix>
</trkpt>
<trkpt lat="40.0709144" lon="-105.2293346">
  <ele>1583.15</ele>
  <time>2026-08-27T17:17:30Z</time>
  <course>63.69</course>
  <speed>2.2181974664127626</speed>
  <fix>3d</fix>
</trkpt>
<trkpt lat="40.0709132" lon="-105.229338">
  <ele>1583.0</ele>
  <time>2026-08-27T17:17:30Z</time>
  <course>62.62</course>
  <speed>2.24</speed>
  <fix>3d</fix>
</trkpt>
<trkpt lat="40.0709151" lon="-105.2293327">
  <ele>1583.15</ele>
  <time>2026-08-27T17:17:30Z</time>
  <course>63.79</course>
  <speed>2.213707297724792</speed>
  <fix>3d</fix>
</trkpt>
<trkpt lat="40.0709132" lon="-105.229338">
  <ele>1583.0</ele>
  <time>2026-08-27T17:17:30Z</time>
  <course>62.62</course>
  <speed>2.24</speed>
  <fix>3d</fix>
</trkpt>
<trkpt lat="40.070916" lon="-105.2293304">
  <ele>1583.14</ele>
  <time>2026-08-27T17:17:30Z</time>
  <course>63.89</course>
  <speed>2.2226560687609767</speed>
  <fix>3d</fix>
</trkpt>
<trkpt lat="40.070915" lon="-105.2293333">
  <ele>1583.0</ele>
  <time>2026-08-27T17:17:30Z</time>
  <course>62.85</course>
  <speed>2.24</speed>
  <fix>3d</fix>
</trkpt>
<trkpt lat="40.0709169" lon="-105.2293281">
  <ele>1583.14</ele>
  <time>2026-08-27T17:17:30Z</time>
  <course>63.98</course>
  <speed>2.2226560687609767</speed>
  <fix>3d</fix>
</trkpt>
<trkpt lat="40.070915" lon="-105.2293333">
  <ele>1583.0</ele>
  <time>2026-08-27T17:17:30Z</time>
  <course>62.85</course>
  <speed>2.24</speed>
  <fix>3d</fix>
</trkpt>
<trkpt lat="40.0709178" lon="-105.2293257">
  <ele>1583.14</ele>
  <time>2026-08-27T17:17:30Z</time>
  <course>64.07</course>
  <speed>2.218220007122828</speed>
  <fix>3d</fix>
</trkpt>
<trkpt lat="40.0709169" lon="-105.2293286">
  <ele>1583.0</ele>
  <time>2026-08-27T17:17:30Z</time>
  <course>63.06</course>
  <speed>2.25</speed>
  <fix>3d</fix>
</trkpt>
<trkpt lat="40.0709187" lon="-105.2293234">
  <ele>1583.14</ele>
  <time>2026-08-27T17:17:30Z</time>
  <course>64.16</course>
  <speed>2.218220007122828</speed>
  <fix>3d</fix>
</trkpt>
<trkpt lat="40.0709169" lon="-105.2293286">
  <ele>1583.0</ele>
  <time>2026-08-27T17:17:30Z</time>
  <course>63.06</course>
  <speed>2.25</speed>
  <fix>3d</fix>
</trkpt>
<trkpt lat="40.0709196" lon="-105.229321">
  <ele>1583.14</ele>
  <time>2026-08-27T17:17:30Z</time>
  <course>64.25</course>
  <speed>2.227195545972558</speed>
  <fix>3d</fix>
</trkpt>
<trkpt lat="40.0709187" lon="-105.2293239">
  <ele>1583.0</ele>
  <time>2026-08-27T17:17:30Z</time>
  <course>63.24</course>
  <speed>2.25</speed>
  <fix>3d</fix>
</trkpt>
<trkpt lat="40.0709205" lon="-105.2293186">
  <ele>1583.14</ele>
  <time>2026-08-27T17:17:30Z</time>
  <course>64.31</course>
  <speed>2.227195545972558</speed>
  <fix>3d</fix>
</trkpt>
<trkpt lat="40.0709187" lon="-105.2293239">
  <ele>1583.0</ele>
  <time>2026-08-27T17:17:30Z</time>
  <course>63.24</course>
  <speed>2.25</speed>
  <fix>3d</fix>
</trkpt>
<trkpt lat="40.0709215" lon="-105.2293162">
  <ele>1583.14</ele>
  <time>2026-08-27T17:17:30Z</time>
  <course>64.37</course>
  <speed>2.227195545972558</speed>
  <fix>3d</fix>
</trkpt>
<trkpt lat="40.0709205" lon="-105.2293191">
  <ele>1583.0</ele>
  <time>2026-08-27T17:17:30Z</time>
  <course>63.39</course>
  <speed>2.25</speed>
  <fix>3d</fix>
</trkpt>
<trkpt lat="40.0709224" lon="-105.2293138">
  <ele>1583.14</ele>
  <time>2026-08-27T17:17:30Z</time>
  <course>64.43</course>
  <speed>2.222813532440362</speed>
  <fix>3d</fix>
</trkpt>
<trkpt lat="40.0709205" lon="-105.2293191">
  <ele>1583.0</ele>
  <time>2026-08-27T17:17:30Z</time>
  <course>63.39</course>
  <speed>2.25</speed>
  <fix>3d</fix>
</trkpt>
<trkpt lat="40.0709233" lon="-105.2293114">
  <ele>1583.14</ele>
  <time>2026-08-27T17:17:30Z</time>
  <course>64.5</course>
  <speed>2.222813532440362</speed>
  <fix>3d</fix>
</trkpt>
<trkpt lat="40.0709224" lon="-105.2293144">
  <ele>1583.0</ele>
  <time>2026-08-27T17:17:30Z</time>
  <course>63.51</course>
  <speed>2.25</speed>
  <fix>3d</fix>
</trkpt>
<trkpt lat="40.0709244" lon="-105.2293086">
  <ele>1583.14</ele>
  <time>2026-08-27T17:17:30Z</time>
  <course>64.57</course>
  <speed>2.231815404552984</speed>
  <fix>3d</fix>
</trkpt>
<trkpt lat="40.0709224" lon="-105.2293144">
  <ele>1583.0</ele>
  <time>2026-08-27T17:17:30Z</time>
  <course>63.51</course>
  <speed>2.25</speed>
  <fix>3d</fix>
</trkpt>
<trkpt lat="40.0709253" lon="-105.2293062">
  <ele>1583.14</ele>
  <time>2026-08-27T17:17:30Z</time>
  <course>64.63</course>
  <speed>2.231815404552984</speed>
  <fix>3d</fix>
</trkpt>
<trkpt lat="40.0709241" lon="-105.2293097">
  <ele>1583.0</ele>
  <time>2026-08-27T17:17:30Z</time>
  <course>63.63</course>
  <speed>2.25</speed>
  <fix>3d</fix>
</trkpt>
<trkpt lat="40.0709262" lon="-105.2293038">
  <ele>1583.14</ele>
  <time>2026-08-27T17:17:30Z</time>
  <course>64.69</course>
  <speed>2.231815404552984</speed>
  <fix>3d</fix>
</trkpt>
<trkpt lat="40.0709241" lon="-105.2293097">
  <ele>1583.0</ele>
  <time>2026-08-27T17:17:30Z</time>
  <course>63.63</course>
  <speed>2.25</speed>
  <fix>3d</fix>
</trkpt>
<trkpt lat="40.0709271" lon="-105.2293014">
  <ele>1583.14</ele>
  <time>2026-08-27T17:17:30Z</time>
  <course>64.72</course>
  <speed>2.231815404552984</speed>
  <fix>3d</fix>
</trkpt>
<trkpt lat="40.070926" lon="-105.2293049">
  <ele>1583.0</ele>
  <time>2026-08-27T17:17:30Z</time>
  <course>63.74</course>
  <speed>2.25</speed>
  <fix>3d</fix>
</trkpt>
<trkpt lat="40.070928" lon="-105.229299">
  <ele>1583.14</ele>
  <time>2026-08-27T17:17:30Z</time>
  <course>64.77</course>
  <speed>2.231815404552984</speed>
  <fix>3d</fix>
</trkpt>
<trkpt lat="40.070926" lon="-105.2293049">
  <ele>1583.0</ele>
  <time>2026-08-27T17:17:30Z</time>
  <course>63.74</course>
  <speed>2.25</speed>
  <fix>3d</fix>
</trkpt>
<trkpt lat="40.0709289" lon="-105.2292966">
  <ele>1583.14</ele>
  <time>2026-08-27T17:17:30Z</time>
  <course>64.8</course>
  <speed>2.2408257406590097</speed>
  <fix>3d</fix>
</trkpt>
<trkpt lat="40.0709277" lon="-105.2293002">
  <ele>1583.0</ele>
  <time>2026-08-27T17:17:30Z</time>
  <course>63.83</course>
  <speed>2.25</speed>
  <fix>3d</fix>
</trkpt>
<trkpt lat="40.0709298" lon="-105.2292942">
  <ele>1583.14</ele>
  <time>2026-08-27T17:17:30Z</time>
  <course>64.83</course>
  <speed>2.2365151463828723</speed>
  <fix>3d</fix>
</trkpt>
<trkpt lat="40.0709277" lon="-105.2293002">
  <ele>1583.0</ele>
  <time>2026-08-27T17:17:30Z</time>
  <course>63.83</course>
  <speed>2.25</speed>
  <fix>3d</fix>
</trkpt>
<trkpt lat="40.0709306" lon="-105.2292919">
  <ele>1583.14</ele>
  <time>2026-08-27T17:17:30Z</time>
  <course>64.86</course>
  <speed>2.2365151463828723</speed>
  <fix>3d</fix>
</trkpt>
<trkpt lat="40.0709295" lon="-105.2292954">
  <ele>1583.0</ele>
  <time>2026-08-27T17:17:30Z</time>
  <course>63.89</course>
  <speed>2.25</speed>
  <fix>3d</fix>
</trkpt>
<trkpt lat="40.0709315" lon="-105.2292895">
  <ele>1583.14</ele>
  <time>2026-08-27T17:17:30Z</time>
  <course>64.89</course>
  <speed>2.2365151463828723</speed>
  <fix>3d</fix>
</trkpt>
<trkpt lat="40.0709295" lon="-105.2292954">
  <ele>1583.0</ele>
  <time>2026-08-27T17:17:30Z</time>
  <course>63.89</course>
  <speed>2.25</speed>
  <fix>3d</fix>
</trkpt>
<trkpt lat="40.0709324" lon="-105.2292872">
  <ele>1583.14</ele>
  <time>2026-08-27T17:17:30Z</time>
  <course>64.92</course>
  <speed>2.2365151463828723</speed>
  <fix>3d</fix>
</trkpt>
<trkpt lat="40.0709313" lon="-105.2292906">
  <ele>1583.0</ele>
  <time>2026-08-27T17:17:30Z</time>
  <course>63.95</course>
  <speed>2.25</speed>
  <fix>3d</fix>
</trkpt>
<trkpt lat="40.0709333" lon="-105.2292848">
  <ele>1583.14</ele>
  <time>2026-08-27T17:17:30Z</time>
  <course>64.95</course>
  <speed>2.2365151463828723</speed>
  <fix>3d</fix>
</trkpt>
<trkpt lat="40.0709313" lon="-105.2292906">
  <ele>1583.0</ele>
  <time>2026-08-27T17:17:30Z</time>
  <course>63.95</course>
  <speed>2.25</speed>
  <fix>3d</fix>
</trkpt>
<trkpt lat="40.070934" lon="-105.2292829">
  <ele>1583.14</ele>
  <time>2026-08-27T17:17:30Z</time>
  <course>64.98</course>
  <speed>2.2365151463828723</speed>
  <fix>3d</fix>
</trkpt>
<trkpt lat="40.0709331" lon="-105.2292858">
  <ele>1583.0</ele>
  <time>2026-08-27T17:17:30Z</time>
  <course>64.02</course>
  <speed>2.25</speed>
  <fix>3d</fix>
</trkpt>
<trkpt lat="40.0709349" lon="-105.2292805">
  <ele>1583.15</ele>
  <time>2026-08-27T17:17:30Z</time>
  <course>65.01</course>
  <speed>2.2365151463828723</speed>
  <fix>3d</fix>
</trkpt>
<trkpt lat="40.0709331" lon="-105.2292858">
  <ele>1583.0</ele>
  <time>2026-08-27T17:17:30Z</time>
  <course>64.02</course>
  <speed>2.25</speed>
  <fix>3d</fix>
</trkpt>
<trkpt lat="40.0709358" lon="-105.2292781">
  <ele>1583.15</ele>
  <time>2026-08-27T17:17:30Z</time>
  <course>65.04</course>
  <speed>2.2365151463828723</speed>
  <fix>3d</fix>
</trkpt>
<trkpt lat="40.0709349" lon="-105.2292811">
  <ele>1583.0</ele>
  <time>2026-08-27T17:17:30Z</time>
  <course>64.08</course>
  <speed>2.25</speed>
  <fix>3d</fix>
</trkpt>
<trkpt lat="40.0709367" lon="-105.2292757">
  <ele>1583.15</ele>
  <time>2026-08-27T17:17:30Z</time>
  <course>65.07</course>
  <speed>2.2365151463828723</speed>
  <fix>3d</fix>
</trkpt>
<trkpt lat="40.0709349" lon="-105.2292811">
  <ele>1583.0</ele>
  <time>2026-08-27T17:17:30Z</time>
  <course>64.08</course>
  <speed>2.25</speed>
  <fix>3d</fix>
</trkpt>
<trkpt lat="40.0709375" lon="-105.2292733">
  <ele>1583.15</ele>
  <time>2026-08-27T17:17:30Z</time>
  <course>65.09</course>
  <speed>2.2365151463828723</speed>
  <fix>3d</fix>
</trkpt>
<trkpt lat="40.0709366" lon="-105.2292763">
  <ele>1583.0</ele>
  <time>2026-08-27T17:17:30Z</time>
  <course>64.13</course>
  <speed>2.25</speed>
  <fix>3d</fix>
</trkpt>
<trkpt lat="40.0709384" lon="-105.2292709">
  <ele>1583.15</ele>
  <time>2026-08-27T17:17:30Z</time>
  <course>65.11</course>
  <speed>2.2365151463828723</speed>
  <fix>3d</fix>
</trkpt>
<trkpt lat="40.0709366" lon="-105.2292763">
  <ele>1583.0</ele>
  <time>2026-08-27T17:17:30Z</time>
  <course>64.13</course>
  <speed>2.25</speed>
  <fix>3d</fix>
</trkpt>
<trkpt lat="40.0709393" lon="-105.2292685">
  <ele>1583.15</ele>
  <time>2026-08-27T17:17:30Z</time>
  <course>65.11</course>
  <speed>2.2365151463828723</speed>
  <fix>3d</fix>
</trkpt>
<trkpt lat="40.0709384" lon="-105.2292715">
  <ele>1583.0</ele>
  <time>2026-08-27T17:17:30Z</time>
  <course>64.17</course>
  <speed>2.25</speed>
  <fix>3d</fix>
</trkpt>
<trkpt lat="40.0709402" lon="-105.2292661">
  <ele>1583.15</ele>
  <time>2026-08-27T17:17:30Z</time>
  <course>65.13</course>
  <speed>2.2365151463828723</speed>
  <fix>3d</fix>
</trkpt>
<trkpt lat="40.0709384" lon="-105.2292715">
  <ele>1583.0</ele>
  <time>2026-08-27T17:17:30Z</time>
  <course>64.17</course>
  <speed>2.25</speed>
  <fix>3d</fix>
</trkpt>
<trkpt lat="40.0709411" lon="-105.2292637">
  <ele>1583.15</ele>
  <time>2026-08-27T17:17:30Z</time>
  <course>65.13</course>
  <speed>2.2365151463828723</speed>
  <fix>3d</fix>
</trkpt>
<trkpt lat="40.0709401" lon="-105.2292668">
  <ele>1583.0</ele>
  <time>2026-08-27T17:17:30Z</time>
  <course>64.19</course>
  <speed>2.26</speed>
  <fix>3d</fix>
</trkpt>
<trkpt lat="40.070942" lon="-105.2292613">
  <ele>1583.15</ele>
  <time>2026-08-27T17:17:30Z</time>
  <course>65.13</course>
  <speed>2.2365151463828723</speed>
  <fix>3d</fix>
</trkpt>
<trkpt lat="40.0709401" lon="-105.2292668">
  <ele>1583.0</ele>
  <time>2026-08-27T17:17:30Z</time>
  <course>64.19</course>
  <speed>2.26</speed>
  <fix>3d</fix>
</trkpt>
<trkpt lat="40.0709431" lon="-105.2292584">
  <ele>1583.15</ele>
  <time>2026-08-27T17:17:30Z</time>
  <course>65.13</course>
  <speed>2.2365151463828723</speed>
  <fix>3d</fix>
</trkpt>
<trkpt lat="40.0709419" lon="-105.2292621">
  <ele>1583.0</ele>
  <time>2026-08-27T17:17:30Z</time>
  <course>64.19</course>
  <speed>2.26</speed>
  <fix>3d</fix>
</trkpt>
<trkpt lat="40.0709439" lon="-105.229256">
  <ele>1583.15</ele>
  <time>2026-08-27T17:17:30Z</time>
  <course>65.13</course>
  <speed>2.2365151463828723</speed>
  <fix>3d</fix>
</trkpt>
<trkpt lat="40.0709419" lon="-105.2292621">
  <ele>1583.0</ele>
  <time>2026-08-27T17:17:30Z</time>
  <course>64.19</course>
  <speed>2.26</speed>
  <fix>3d</fix>
</trkpt>
<trkpt lat="40.0709448" lon="-105.2292536">
  <ele>1583.15</ele>
  <time>2026-08-27T17:17:30Z</time>
  <course>65.13</course>
  <speed>2.2365151463828723</speed>
  <fix>3d</fix>
</trkpt>
<trkpt lat="40.0709437" lon="-105.2292573">
  <ele>1583.0</ele>
  <time>2026-08-27T17:17:30Z</time>
  <course>64.19</course>
  <speed>2.26</speed>
  <fix>3d</fix>
</trkpt>
<trkpt lat="40.0709457" lon="-105.2292512">
  <ele>1583.16</ele>
  <time>2026-08-27T17:17:30Z</time>
  <course>65.13</course>
  <speed>2.2365151463828723</speed>
  <fix>3d</fix>
</trkpt>
<trkpt lat="40.0709437" lon="-105.2292573">
  <ele>1583.0</ele>
  <time>2026-08-27T17:17:30Z</time>
  <course>64.19</course>
  <speed>2.26</speed>
  <fix>3d</fix>
</trkpt>
<trkpt lat="40.0709466" lon="-105.2292488">
  <ele>1583.16</ele>
  <time>2026-08-27T17:17:30Z</time>
  <course>65.13</course>
  <speed>2.2365151463828723</speed>
  <fix>3d</fix>
</trkpt>
<trkpt lat="40.0709454" lon="-105.2292525">
  <ele>1583.0</ele>
  <time>2026-08-27T17:17:30Z</time>
  <course>64.19</course>
  <speed>2.26</speed>
  <fix>3d</fix>
</trkpt>
<trkpt lat="40.0709475" lon="-105.2292465">
  <ele>1583.15</ele>
  <time>2026-08-27T17:17:30Z</time>
  <course>65.13</course>
  <speed>2.2365151463828723</speed>
  <fix>3d</fix>
</trkpt>
<trkpt lat="40.0709454" lon="-105.2292525">
  <ele>1583.0</ele>
  <time>2026-08-27T17:17:30Z</time>
  <course>64.19</course>
  <speed>2.26</speed>
  <fix>3d</fix>
</trkpt>
<trkpt lat="40.0709483" lon="-105.2292441">
  <ele>1583.15</ele>
  <time>2026-08-27T17:17:30Z</time>
  <course>65.13</course>
  <speed>2.2365151463828723</speed>
  <fix>3d</fix>
</trkpt>
<trkpt lat="40.0709473" lon="-105.2292477">
  <ele>1583.0</ele>
  <time>2026-08-27T17:17:30Z</time>
  <course>64.19</course>
  <speed>2.26</speed>
  <fix>3d</fix>
</trkpt>
<trkpt lat="40.0709492" lon="-105.2292417">
  <ele>1583.15</ele>
  <time>2026-08-27T17:17:30Z</time>
  <course>65.13</course>
  <speed>2.2365151463828723</speed>
  <fix>3d</fix>
</trkpt>
<trkpt lat="40.0709473" lon="-105.2292477">
  <ele>1583.0</ele>
  <time>2026-08-27T17:17:30Z</time>
  <course>64.19</course>
  <speed>2.26</speed>
  <fix>3d</fix>
</trkpt>
<trkpt lat="40.0709501" lon="-105.2292394">
  <ele>1583.15</ele>
  <time>2026-08-27T17:17:30Z</time>
  <course>65.13</course>
  <speed>2.2365151463828723</speed>
  <fix>3d</fix>
</trkpt>
<trkpt lat="40.070949" lon="-105.2292429">
  <ele>1583.0</ele>
  <time>2026-08-27T17:17:30Z</time>
  <course>64.19</course>
  <speed>2.26</speed>
  <fix>3d</fix>
</trkpt>
<trkpt lat="40.070951" lon="-105.229237">
  <ele>1583.15</ele>
  <time>2026-08-27T17:17:30Z</time>
  <course>65.13</course>
  <speed>2.2365151463828723</speed>
  <fix>3d</fix>
</trkpt>
<trkpt lat="40.070949" lon="-105.2292429">
  <ele>1583.0</ele>
  <time>2026-08-27T17:17:30Z</time>
  <course>64.19</course>
  <speed>2.26</speed>
  <fix>3d</fix>
</trkpt>
<trkpt lat="40.0709519" lon="-105.2292347">
  <ele>1583.15</ele>
  <time>2026-08-27T17:17:30Z</time>
  <course>65.13</course>
  <speed>2.2322410264126944</speed>
  <fix>3d</fix>
</trkpt>
<trkpt lat="40.0709507" lon="-105.2292381">
  <ele>1583.0</ele>
  <time>2026-08-27T17:17:30Z</time>
  <course>64.19</course>
  <speed>2.26</speed>
  <fix>3d</fix>
</trkpt>
<trkpt lat="40.0709526" lon="-105.2292327">
  <ele>1583.15</ele>
  <time>2026-08-27T17:17:30Z</time>
  <course>65.13</course>
  <speed>2.2322410264126944</speed>
  <fix>3d</fix>
</trkpt>
<trkpt lat="40.0709507" lon="-105.2292381">
  <ele>1583.0</ele>
  <time>2026-08-27T17:17:30Z</time>
  <course>64.19</course>
  <speed>2.26</speed>
  <fix>3d</fix>
</trkpt>
<trkpt lat="40.0709534" lon="-105.2292304">
  <ele>1583.15</ele>
  <time>2026-08-27T17:17:30Z</time>
  <course>65.14</course>
  <speed>2.2322410264126944</speed>
  <fix>3d</fix>
</trkpt>
<trkpt lat="40.0709526" lon="-105.2292334">
  <ele>1583.0</ele>
  <time>2026-08-27T17:17:30Z</time>
  <course>64.19</course>
  <speed>2.26</speed>
  <fix>3d</fix>
</trkpt>
<trkpt lat="40.0709543" lon="-105.229228">
  <ele>1583.15</ele>
  <time>2026-08-27T17:17:30Z</time>
  <course>65.14</course>
  <speed>2.2322410264126944</speed>
  <fix>3d</fix>
</trkpt>
<trkpt lat="40.0709526" lon="-105.2292334">
  <ele>1583.0</ele>
  <time>2026-08-27T17:17:30Z</time>
  <course>64.19</course>
  <speed>2.26</speed>
  <fix>3d</fix>
</trkpt>
<trkpt lat="40.0709552" lon="-105.2292256">
  <ele>1583.15</ele>
  <time>2026-08-27T17:17:30Z</time>
  <course>65.15</course>
  <speed>2.2322410264126944</speed>
  <fix>3d</fix>
</trkpt>
<trkpt lat="40.0709543" lon="-105.2292286">
  <ele>1583.0</ele>
  <time>2026-08-27T17:17:30Z</time>
  <course>64.2</course>
  <speed>2.26</speed>
  <fix>3d</fix>
</trkpt>
<trkpt lat="40.0709561" lon="-105.2292232">
  <ele>1583.15</ele>
  <time>2026-08-27T17:17:30Z</time>
  <course>65.16</course>
  <speed>2.2322410264126944</speed>
  <fix>3d</fix>
</trkpt>
<trkpt lat="40.0709543" lon="-105.2292286">
  <ele>1583.0</ele>
  <time>2026-08-27T17:17:30Z</time>
  <course>64.2</course>
  <speed>2.26</speed>
  <fix>3d</fix>
</trkpt>
<trkpt lat="40.070957" lon="-105.2292209">
  <ele>1583.14</ele>
  <time>2026-08-27T17:17:30Z</time>
  <course>65.16</course>
  <speed>2.2322410264126944</speed>
  <fix>3d</fix>
</trkpt>
<trkpt lat="40.0709561" lon="-105.2292238">
  <ele>1583.0</ele>
  <time>2026-08-27T17:17:30Z</time>
  <course>64.21</course>
  <speed>2.26</speed>
  <fix>3d</fix>
</trkpt>
<trkpt lat="40.0709579" lon="-105.2292185">
  <ele>1583.14</ele>
  <time>2026-08-27T17:17:30Z</time>
  <course>65.17</course>
  <speed>2.2322410264126944</speed>
  <fix>3d</fix>
</trkpt>
<trkpt lat="40.0709561" lon="-105.2292238">
  <ele>1583.0</ele>
  <time>2026-08-27T17:17:30Z</time>
  <course>64.21</course>
  <speed>2.26</speed>
  <fix>3d</fix>
</trkpt>
<trkpt lat="40.0709588" lon="-105.229216">
  <ele>1583.14</ele>
  <time>2026-08-27T17:17:30Z</time>
  <course>65.18</course>
  <speed>2.2322410264126944</speed>
  <fix>3d</fix>
</trkpt>
<trkpt lat="40.0709578" lon="-105.229219">
  <ele>1583.0</ele>
  <time>2026-08-27T17:17:30Z</time>
  <course>64.22</course>
  <speed>2.26</speed>
  <fix>3d</fix>
</trkpt>
<trkpt lat="40.0709597" lon="-105.2292136">
  <ele>1583.14</ele>
  <time>2026-08-27T17:17:30Z</time>
  <course>65.18</course>
  <speed>2.2365151463828723</speed>
  <fix>3d</fix>
</trkpt>
<trkpt lat="40.0709578" lon="-105.229219">
  <ele>1583.0</ele>
  <time>2026-08-27T17:17:30Z</time>
  <course>64.22</course>
  <speed>2.26</speed>
  <fix>3d</fix>
</trkpt>
<trkpt lat="40.0709605" lon="-105.2292112">
  <ele>1583.14</ele>
  <time>2026-08-27T17:17:30Z</time>
  <course>65.18</course>
  <speed>2.2365151463828723</speed>
  <fix>3d</fix>
</trkpt>
<trkpt lat="40.0709596" lon="-105.2292143">
  <ele>1583.0</ele>
  <time>2026-08-27T17:17:30Z</time>
  <course>64.23</course>
  <speed>2.26</speed>
  <fix>3d</fix>
</trkpt>
<trkpt lat="40.0709616" lon="-105.2292083">
  <ele>1583.14</ele>
  <time>2026-08-27T17:17:30Z</time>
  <course>65.18</course>
  <speed>2.2365151463828723</speed>
  <fix>3d</fix>
</trkpt>
<trkpt lat="40.0709596" lon="-105.2292143">
  <ele>1583.0</ele>
  <time>2026-08-27T17:17:30Z</time>
  <course>64.23</course>
  <speed>2.26</speed>
  <fix>3d</fix>
</trkpt>
<trkpt lat="40.0709625" lon="-105.2292059">
  <ele>1583.14</ele>
  <time>2026-08-27T17:17:30Z</time>
  <course>65.18</course>
  <speed>2.2365151463828723</speed>
  <fix>3d</fix>
</trkpt>
<trkpt lat="40.0709614" lon="-105.2292095">
  <ele>1583.0</ele>
  <time>2026-08-27T17:17:30Z</time>
  <course>64.23</course>
  <speed>2.26</speed>
  <fix>3d</fix>
</trkpt>
<trkpt lat="40.0709634" lon="-105.2292035">
  <ele>1583.14</ele>
  <time>2026-08-27T17:17:30Z</time>
  <course>65.18</course>
  <speed>2.2365151463828723</speed>
  <fix>3d</fix>
</trkpt>
<trkpt lat="40.0709614" lon="-105.2292095">
  <ele>1583.0</ele>
  <time>2026-08-27T17:17:30Z</time>
  <course>64.23</course>
  <speed>2.26</speed>
  <fix>3d</fix>
</trkpt>
<trkpt lat="40.0709643" lon="-105.2292011">
  <ele>1583.14</ele>
  <time>2026-08-27T17:17:30Z</time>
  <course>65.18</course>
  <speed>2.2365151463828723</speed>
  <fix>3d</fix>
</trkpt>
<trkpt lat="40.0709631" lon="-105.2292047">
  <ele>1583.0</ele>
  <time>2026-08-27T17:17:30Z</time>
  <course>64.23</course>
  <speed>2.26</speed>
  <fix>3d</fix>
</trkpt>
<trkpt lat="40.0709652" lon="-105.2291987">
  <ele>1583.14</ele>
  <time>2026-08-27T17:17:30Z</time>
  <course>65.18</course>
  <speed>2.2365151463828723</speed>
  <fix>3d</fix>
</trkpt>
<trkpt lat="40.0709631" lon="-105.2292047">
  <ele>1583.0</ele>
  <time>2026-08-27T17:17:30Z</time>
  <course>64.23</course>
  <speed>2.26</speed>
  <fix>3d</fix>
</trkpt>
<trkpt lat="40.070966" lon="-105.2291963">
  <ele>1583.14</ele>
  <time>2026-08-27T17:17:30Z</time>
  <course>65.18</course>
  <speed>2.2365151463828723</speed>
  <fix>3d</fix>
</trkpt>
<trkpt lat="40.0709649" lon="-105.2291999">
  <ele>1583.0</ele>
  <time>2026-08-27T17:17:30Z</time>
  <course>64.23</course>
  <speed>2.26</speed>
  <fix>3d</fix>
</trkpt>
<trkpt lat="40.0709669" lon="-105.229194">
  <ele>1583.14</ele>
  <time>2026-08-27T17:17:30Z</time>
  <course>65.18</course>
  <speed>2.2365151463828723</speed>
  <fix>3d</fix>
</trkpt>
<trkpt lat="40.0709649" lon="-105.2291999">
  <ele>1583.0</ele>
  <time>2026-08-27T17:17:30Z</time>
  <course>64.23</course>
  <speed>2.26</speed>
  <fix>3d</fix>
</trkpt>
<trkpt lat="40.0709678" lon="-105.2291916">
  <ele>1583.14</ele>
  <time>2026-08-27T17:17:30Z</time>
  <course>65.18</course>
  <speed>2.2365151463828723</speed>
  <fix>3d</fix>
</trkpt>
<trkpt lat="40.0709667" lon="-105.2291951">
  <ele>1583.0</ele>
  <time>2026-08-27T17:17:30Z</time>
  <course>64.23</course>
  <speed>2.26</speed>
  <fix>3d</fix>
</trkpt>
<trkpt lat="40.0709687" lon="-105.2291892">
  <ele>1583.14</ele>
  <time>2026-08-27T17:17:30Z</time>
  <course>65.18</course>
  <speed>2.2365151463828723</speed>
  <fix>3d</fix>
</trkpt>
<trkpt lat="40.0709667" lon="-105.2291951">
  <ele>1583.0</ele>
  <time>2026-08-27T17:17:30Z</time>
  <course>64.23</course>
  <speed>2.26</speed>
  <fix>3d</fix>
</trkpt>
<trkpt lat="40.0709695" lon="-105.2291868">
  <ele>1583.14</ele>
  <time>2026-08-27T17:17:30Z</time>
  <course>65.18</course>
  <speed>2.2322410264126944</speed>
  <fix>3d</fix>
</trkpt>
<trkpt lat="40.0709684" lon="-105.2291903">
  <ele>1583.0</ele>
  <time>2026-08-27T17:17:30Z</time>
  <course>64.23</course>
  <speed>2.26</speed>
  <fix>3d</fix>
</trkpt>
<trkpt lat="40.0709704" lon="-105.2291845">
  <ele>1583.14</ele>
  <time>2026-08-27T17:17:30Z</time>
  <course>65.18</course>
  <speed>2.2322410264126944</speed>
  <fix>3d</fix>
</trkpt>
<trkpt lat="40.0709684" lon="-105.2291903">
  <ele>1583.0</ele>
  <time>2026-08-27T17:17:30Z</time>
  <course>64.23</course>
  <speed>2.26</speed>
  <fix>3d</fix>
</trkpt>
<trkpt lat="40.0709711" lon="-105.2291826">
  <ele>1583.14</ele>
  <time>2026-08-27T17:17:30Z</time>
  <course>65.18</course>
  <speed>2.2322410264126944</speed>
  <fix>3d</fix>
</trkpt>
<trkpt lat="40.0709702" lon="-105.2291855">
  <ele>1583.0</ele>
  <time>2026-08-27T17:17:30Z</time>
  <course>64.23</course>
  <speed>2.26</speed>
  <fix>3d</fix>
</trkpt>
<trkpt lat="40.070972" lon="-105.2291802">
  <ele>1583.13</ele>
  <time>2026-08-27T17:17:30Z</time>
  <course>65.18</course>
  <speed>2.2322410264126944</speed>
  <fix>3d</fix>
</trkpt>
<trkpt lat="40.0709702" lon="-105.2291855">
  <ele>1583.0</ele>
  <time>2026-08-27T17:17:30Z</time>
  <course>64.23</course>
  <speed>2.26</speed>
  <fix>3d</fix>
</trkpt>
<trkpt lat="40.0709729" lon="-105.2291778">
  <ele>1583.13</ele>
  <time>2026-08-27T17:17:30Z</time>
  <course>65.18</course>
  <speed>2.2322410264126944</speed>
  <fix>3d</fix>
</trkpt>
<trkpt lat="40.070972" lon="-105.2291808">
  <ele>1583.0</ele>
  <time>2026-08-27T17:17:30Z</time>
  <course>64.23</course>
  <speed>2.26</speed>
  <fix>3d</fix>
</trkpt>
<trkpt lat="40.0709738" lon="-105.2291754">
  <ele>1583.13</ele>
  <time>2026-08-27T17:17:30Z</time>
  <course>65.18</course>
  <speed>2.2322410264126944</speed>
  <fix>3d</fix>
</trkpt>
<trkpt lat="40.070972" lon="-105.2291808">
  <ele>1583.0</ele>
  <time>2026-08-27T17:17:30Z</time>
  <course>64.23</course>
  <speed>2.26</speed>
  <fix>3d</fix>
</trkpt>
<trkpt lat="40.0709747" lon="-105.229173">
  <ele>1583.13</ele>
  <time>2026-08-27T17:17:30Z</time>
  <course>65.18</course>
  <speed>2.2322410264126944</speed>
  <fix>3d</fix>
</trkpt>
<trkpt lat="40.0709738" lon="-105.229176">
  <ele>1583.0</ele>
  <time>2026-08-27T17:17:30Z</time>
  <course>64.23</course>
  <speed>2.26</speed>
  <fix>3d</fix>
</trkpt>
<trkpt lat="40.0709756" lon="-105.2291706">
  <ele>1583.13</ele>
  <time>2026-08-27T17:17:30Z</time>
  <course>65.19</course>
  <speed>2.2365151463828723</speed>
  <fix>3d</fix>
</trkpt>
<trkpt lat="40.0709738" lon="-105.229176">
  <ele>1583.0</ele>
  <time>2026-08-27T17:17:30Z</time>
  <course>64.23</course>
  <speed>2.26</speed>
  <fix>3d</fix>
</trkpt>
<trkpt lat="40.0709764" lon="-105.2291682">
  <ele>1583.13</ele>
  <time>2026-08-27T17:17:30Z</time>
  <course>65.19</course>
  <speed>2.2365151463828723</speed>
  <fix>3d</fix>
</trkpt>
<trkpt lat="40.0709755" lon="-105.2291712">
  <ele>1583.0</ele>
  <time>2026-08-27T17:17:30Z</time>
  <course>64.23</course>
  <speed>2.26</speed>
  <fix>3d</fix>
</trkpt>
<trkpt lat="40.0709773" lon="-105.2291658">
  <ele>1583.13</ele>
  <time>2026-08-27T17:17:30Z</time>
  <course>65.19</course>
  <speed>2.2365151463828723</speed>
  <fix>3d</fix>
</trkpt>
<trkpt lat="40.0709755" lon="-105.2291712">
  <ele>1583.0</ele>
  <time>2026-08-27T17:17:30Z</time>
  <course>64.23</course>
  <speed>2.26</speed>
  <fix>3d</fix>
</trkpt>
<trkpt lat="40.0709782" lon="-105.2291634">
  <ele>1583.13</ele>
  <time>2026-08-27T17:17:30Z</time>
  <course>65.19</course>
  <speed>2.2365151463828723</speed>
  <fix>3d</fix>
</trkpt>
<trkpt lat="40.0709772" lon="-105.2291664">
  <ele>1583.0</ele>
  <time>2026-08-27T17:17:30Z</time>
  <course>64.23</course>
  <speed>2.26</speed>
  <fix>3d</fix>
</trkpt>
<trkpt lat="40.0709791" lon="-105.229161">
  <ele>1583.13</ele>
  <time>2026-08-27T17:17:30Z</time>
  <course>65.19</course>
  <speed>2.2365151463828723</speed>
  <fix>3d</fix>
</trkpt>
<trkpt lat="40.0709772" lon="-105.2291664">
  <ele>1583.0</ele>
  <time>2026-08-27T17:17:30Z</time>
  <course>64.23</course>
  <speed>2.26</speed>
  <fix>3d</fix>
</trkpt>
<trkpt lat="40.0709802" lon="-105.2291581">
  <ele>1583.13</ele>
  <time>2026-08-27T17:17:30Z</time>
  <course>65.19</course>
  <speed>2.2365151463828723</speed>
  <fix>3d</fix>
</trkpt>
<trkpt lat="40.0709791" lon="-105.2291616">
  <ele>1583.0</ele>
  <time>2026-08-27T17:17:30Z</time>
  <course>64.23</course>
  <speed>2.26</speed>
  <fix>3d</fix>
</trkpt>
<trkpt lat="40.0709811" lon="-105.2291557">
  <ele>1583.13</ele>
  <time>2026-08-27T17:17:30Z</time>
  <course>65.19</course>
  <speed>2.2365151463828723</speed>
  <fix>3d</fix>
</trkpt>
<trkpt lat="40.0709791" lon="-105.2291616">
  <ele>1583.0</ele>
  <time>2026-08-27T17:17:30Z</time>
  <course>64.23</course>
  <speed>2.26</speed>
  <fix>3d</fix>
</trkpt>
<trkpt lat="40.070982" lon="-105.2291533">
  <ele>1583.13</ele>
  <time>2026-08-27T17:17:30Z</time>
  <course>65.19</course>
  <speed>2.2365151463828723</speed>
  <fix>3d</fix>
</trkpt>
<trkpt lat="40.0709808" lon="-105.2291568">
  <ele>1583.0</ele>
  <time>2026-08-27T17:17:30Z</time>
  <course>64.23</course>
  <speed>2.26</speed>
  <fix>3d</fix>
</trkpt>
<trkpt lat="40.0709828" lon="-105.2291509">
  <ele>1583.13</ele>
  <time>2026-08-27T17:17:30Z</time>
  <course>65.19</course>
  <speed>2.2365151463828723</speed>
  <fix>3d</fix>
</trkpt>
<trkpt lat="40.0709808" lon="-105.2291568">
  <ele>1583.0</ele>
  <time>2026-08-27T17:17:30Z</time>
  <course>64.23</course>
  <speed>2.26</speed>
  <fix>3d</fix>
</trkpt>
<trkpt lat="40.0709837" lon="-105.2291485">
  <ele>1583.13</ele>
  <time>2026-08-27T17:17:30Z</time>
  <course>65.19</course>
  <speed>2.2365151463828723</speed>
  <fix>3d</fix>
</trkpt>
<trkpt lat="40.0709825" lon="-105.229152">
  <ele>1583.0</ele>
  <time>2026-08-27T17:17:30Z</time>
  <course>64.23</course>
  <speed>2.26</speed>
  <fix>3d</fix>
</trkpt>
<trkpt lat="40.0709846" lon="-105.2291461">
  <ele>1583.13</ele>
  <time>2026-08-27T17:17:30Z</time>
  <course>65.19</course>
  <speed>2.2365151463828723</speed>
  <fix>3d</fix>
</trkpt>
<trkpt lat="40.0709825" lon="-105.229152">
  <ele>1583.0</ele>
  <time>2026-08-27T17:17:30Z</time>
  <course>64.23</course>
  <speed>2.26</speed>
  <fix>3d</fix>
</trkpt>
<trkpt lat="40.0709855" lon="-105.2291437">
  <ele>1583.13</ele>
  <time>2026-08-27T17:17:30Z</time>
  <course>65.19</course>
  <speed>2.2365151463828723</speed>
  <fix>3d</fix>
</trkpt>
<trkpt lat="40.0709844" lon="-105.2291472">
  <ele>1583.0</ele>
  <time>2026-08-27T17:17:30Z</time>
  <course>64.23</course>
  <speed>2.26</speed>
  <fix>3d</fix>
</trkpt>
<trkpt lat="40.0709864" lon="-105.2291413">
  <ele>1583.13</ele>
  <time>2026-08-27T17:17:30Z</time>
  <course>65.19</course>
  <speed>2.2365151463828723</speed>
  <fix>3d</fix>
</trkpt>
<trkpt lat="40.0709844" lon="-105.2291472">
  <ele>1583.0</ele>
  <time>2026-08-27T17:17:30Z</time>
  <course>64.23</course>
  <speed>2.26</speed>
  <fix>3d</fix>
</trkpt>
<trkpt lat="40.0709872" lon="-105.229139">
  <ele>1583.13</ele>
  <time>2026-08-27T17:17:30Z</time>
  <course>65.19</course>
  <speed>2.2322410264126944</speed>
  <fix>3d</fix>
</trkpt>
<trkpt lat="40.0709861" lon="-105.2291425">
  <ele>1583.0</ele>
  <time>2026-08-27T17:17:30Z</time>
  <course>64.23</course>
  <speed>2.26</speed>
  <fix>3d</fix>
</trkpt>
<trkpt lat="40.0709881" lon="-105.2291366">
  <ele>1583.13</ele>
  <time>2026-08-27T17:17:30Z</time>
  <course>65.19</course>
  <speed>2.2322410264126944</speed>
  <fix>3d</fix>
</trkpt>
<trkpt lat="40.0709861" lon="-105.2291425">
  <ele>1583.0</ele>
  <time>2026-08-27T17:17:30Z</time>
  <course>64.23</course>
  <speed>2.26</speed>
  <fix>3d</fix>
</trkpt>
<trkpt lat="40.070989" lon="-105.2291342">
  <ele>1583.14</ele>
  <time>2026-08-27T17:17:30Z</time>
  <course>64.73</course>
  <speed>2.231815404552984</speed>
  <fix>3d</fix>
</trkpt>
<trkpt lat="40.0709878" lon="-105.2291377">
  <ele>1583.0</ele>
  <time>2026-08-27T17:17:30Z</time>
  <course>64.07</course>
  <speed>2.26</speed>
  <fix>3d</fix>
</trkpt>
<trkpt lat="40.0709897" lon="-105.2291323">
  <ele>1583.13</ele>
  <time>2026-08-27T17:17:30Z</time>
  <course>63.67</course>
  <speed>2.2316361710637334</speed>
  <fix>3d</fix>
</trkpt>
<trkpt lat="40.0709878" lon="-105.2291377">
  <ele>1583.0</ele>
  <time>2026-08-27T17:17:30Z</time>
  <course>64.07</course>
  <speed>2.26</speed>
  <fix>3d</fix>
</trkpt>
<trkpt lat="40.0709907" lon="-105.22913">
  <ele>1583.13</ele>
  <time>2026-08-27T17:17:30Z</time>
  <course>61.43</course>
  <speed>2.233965084776394</speed>
  <fix>3d</fix>
</trkpt>
<trkpt lat="40.0709897" lon="-105.229133">
  <ele>1583.0</ele>
  <time>2026-08-27T17:17:30Z</time>
  <course>62.18</course>
  <speed>2.26</speed>
  <fix>3d</fix>
</trkpt>
<trkpt lat="40.0709917" lon="-105.2291278">
  <ele>1583.13</ele>
  <time>2026-08-27T17:17:30Z</time>
  <course>58.08</course>
  <speed>2.2303362975121037</speed>
  <fix>3d</fix>
</trkpt>
<trkpt lat="40.0709897" lon="-105.229133">
  <ele>1583.0</ele>
  <time>2026-08-27T17:17:30Z</time>
  <course>62.18</course>
  <speed>2.26</speed>
  <fix>3d</fix>
</trkpt>
<trkpt lat="40.0709929" lon="-105.2291256">
  <ele>1583.13</ele>
  <time>2026-08-27T17:17:30Z</time>
  <course>53.66</course>
  <speed>2.2280035906613795</speed>
  <fix>3d</fix>
</trkpt>
<trkpt lat="40.0709918" lon="-105.2291284">
  <ele>1583.0</ele>
  <time>2026-08-27T17:17:30Z</time>
  <course>56.54</course>
  <speed>2.25</speed>
  <fix>3d</fix>
</trkpt>
<trkpt lat="40.0709942" lon="-105.2291236">
  <ele>1583.13</ele>
  <time>2026-08-27T17:17:30Z</time>
  <course>48.12</course>
  <speed>2.2151523649627354</speed>
  <fix>3d</fix>
</trkpt>
<trkpt lat="40.0709918" lon="-105.2291284">
  <ele>1583.0</ele>
  <time>2026-08-27T17:17:30Z</time>
  <course>56.54</course>
  <speed>2.25</speed>
  <fix>3d</fix>
</trkpt>
<trkpt lat="40.0709957" lon="-105.2291218">
  <ele>1583.13</ele>
  <time>2026-08-27T17:17:30Z</time>
  <course>41.5</course>
  <speed>2.1920994502987314</speed>
  <fix>3d</fix>
</trkpt>
<trkpt lat="40.0709942" lon="-105.2291243">
  <ele>1583.0</ele>
  <time>2026-08-27T17:17:30Z</time>
  <course>46.58</course>
  <speed>2.22</speed>
  <fix>3d</fix>
</trkpt>
<trkpt lat="40.0709973" lon="-105.2291203">
  <ele>1583.13</ele>
  <time>2026-08-27T17:17:30Z</time>
  <course>33.8</course>
  <speed>2.163631207022121</speed>
  <fix>3d</fix>
</trkpt>
<trkpt lat="40.0709942" lon="-105.2291243">
  <ele>1583.0</ele>
  <time>2026-08-27T17:17:30Z</time>
  <course>46.58</course>
  <speed>2.22</speed>
  <fix>3d</fix>
</trkpt>
<trkpt lat="40.0709991" lon="-105.2291191">
  <ele>1583.13</ele>
  <time>2026-08-27T17:17:30Z</time>
  <course>25.38</course>
  <speed>2.1352751579129094</speed>
  <fix>3d</fix>
</trkpt>
<trkpt lat="40.0709972" lon="-105.2291209">
  <ele>1583.0</ele>
  <time>2026-08-27T17:17:30Z</time>
  <course>32.53</course>
  <speed>2.16</speed>
  <fix>3d</fix>
</trkpt>
<trkpt lat="40.0710009" lon="-105.2291183">
  <ele>1583.13</ele>
  <time>2026-08-27T17:17:30Z</time>
  <course>18.1</course>
  <speed>2.107225664232476</speed>
  <fix>3d</fix>
</trkpt>
<trkpt lat="40.0709972" lon="-105.2291209">
  <ele>1583.0</ele>
  <time>2026-08-27T17:17:30Z</time>
  <course>32.53</course>
  <speed>2.16</speed>
  <fix>3d</fix>
</trkpt>
<trkpt lat="40.0710032" lon="-105.2291177">
  <ele>1583.14</ele>
  <time>2026-08-27T17:17:30Z</time>
  <course>10.78</course>
  <speed>2.0763910999616617</speed>
  <fix>3d</fix>
</trkpt>
<trkpt lat="40.0710007" lon="-105.2291189">
  <ele>1583.0</ele>
  <time>2026-08-27T17:17:30Z</time>
  <course>17.74</course>
  <speed>2.1</speed>
  <fix>3d</fix>
</trkpt>
<trkpt lat="40.0710051" lon="-105.2291175">
  <ele>1583.14</ele>
  <time>2026-08-27T17:17:30Z</time>
  <course>5.87</course>
  <speed>2.0547749268472204</speed>
  <fix>3d</fix>
</trkpt>
<trkpt lat="40.0710007" lon="-105.2291189">
  <ele>1583.0</ele>
  <time>2026-08-27T17:17:30Z</time>
  <course>17.74</course>
  <speed>2.1</speed>
  <fix>3d</fix>
</trkpt>
<trkpt lat="40.071007" lon="-105.2291174">
  <ele>1583.14</ele>
  <time>2026-08-27T17:17:30Z</time>
  <course>2.03</course>
  <speed>2.05</speed>
  <fix>3d</fix>
</trkpt>
<trkpt lat="40.0710043" lon="-105.2291179">
  <ele>1583.0</ele>
  <time>2026-08-27T17:17:30Z</time>
  <course>6.36</course>
  <speed>2.06</speed>
  <fix>3d</fix>
</trkpt>
<trkpt lat="40.0710088" lon="-105.2291175">
  <ele>1583.14</ele>
  <time>2026-08-27T17:17:30Z</time>
  <course>358.76</course>
  <speed>2.0329781110479277</speed>
  <fix>3d</fix>
</trkpt>
<trkpt lat="40.0710043" lon="-105.2291179">
  <ele>1583.0</ele>
  <time>2026-08-27T17:17:30Z</time>
  <course>6.36</course>
  <speed>2.06</speed>
  <fix>3d</fix>
</trkpt>
<trkpt lat="40.0710107" lon="-105.2291178">
  <ele>1583.14</ele>
  <time>2026-08-27T17:17:30Z</time>
  <course>355.63</course>
  <speed>2.0319448811422025</speed>
  <fix>3d</fix>
</trkpt>
<trkpt lat="40.071008" lon="-105.2291177">
  <ele>1583.0</ele>
  <time>2026-08-27T17:17:30Z</time>
  <course>358.51</course>
  <speed>2.03</speed>
  <fix>3d</fix>
</trkpt>
<trkpt lat="40.0710125" lon="-105.2291181">
  <ele>1583.14</ele>
  <time>2026-08-27T17:17:30Z</time>
  <course>352.69</course>
  <speed>2.0155644370746373</speed>
  <fix>3d</fix>
</trkpt>
<trkpt lat="40.071008" lon="-105.2291177">
  <ele>1583.0</ele>
  <time>2026-08-27T17:17:30Z</time>
  <course>358.51</course>
  <speed>2.03</speed>
  <fix>3d</fix>
</trkpt>
<trkpt lat="40.0710143" lon="-105.2291185">
  <ele>1583.14</ele>
  <time>2026-08-27T17:17:30Z</time>
  <course>349.93</course>
  <speed>2.0044949488586896</speed>
  <fix>3d</fix>
</trkpt>
<trkpt lat="40.0710117" lon="-105.229118">
  <ele>1583.0</ele>
  <time>2026-08-27T17:17:30Z</time>
  <course>352.38</course>
  <speed>2.01</speed>
  <fix>3d</fix>
</trkpt>
<trkpt lat="40.0710161" lon="-105.2291191">
  <ele>1583.13</ele>
  <time>2026-08-27T17:17:30Z</time>
  <course>347.35</course>
  <speed>1.9937151250868315</speed>
  <fix>3d</fix>
</trkpt>
<trkpt lat="40.0710117" lon="-105.229118">
  <ele>1583.0</ele>
  <time>2026-08-27T17:17:30Z</time>
  <course>352.38</course>
  <speed>2.01</speed>
  <fix>3d</fix>
</trkpt>
<trkpt lat="40.0710178" lon="-105.2291197">
  <ele>1583.13</ele>
  <time>2026-08-27T17:17:30Z</time>
  <course>344.93</course>
  <speed>1.9769926656414283</speed>
  <fix>3d</fix>
</trkpt>
<trkpt lat="40.0710152" lon="-105.2291189">
  <ele>1583.0</ele>
  <time>2026-08-27T17:17:30Z</time>
  <course>346.95</course>
  <speed>1.98</speed>
  <fix>3d</fix>
</trkpt>
<trkpt lat="40.0710194" lon="-105.2291204">
  <ele>1583.13</ele>
  <time>2026-08-27T17:17:30Z</time>
  <course>342.67</course>
  <speed>1.9703045449879062</speed>
  <fix>3d</fix>
</trkpt>
<trkpt lat="40.0710152" lon="-105.2291189">
  <ele>1583.0</ele>
  <time>2026-08-27T17:17:30Z</time>
  <course>346.95</course>
  <speed>1.98</speed>
  <fix>3d</fix>
</trkpt>
<trkpt lat="40.0710211" lon="-105.2291212">
  <ele>1583.13</ele>
  <time>2026-08-27T17:17:30Z</time>
  <course>340.56</course>
  <speed>1.9572429588581997</speed>
  <fix>3d</fix>
</trkpt>
<trkpt lat="40.0710186" lon="-105.22912">
  <ele>1583.0</ele>
  <time>2026-08-27T17:17:30Z</time>
  <course>342.2</course>
  <speed>1.95</speed>
  <fix>3d</fix>
</trkpt>
<trkpt lat="40.0710227" lon="-105.2291221">
  <ele>1583.13</ele>
  <time>2026-08-27T17:17:30Z</time>
  <course>338.57</course>
  <speed>1.9433990840792326</speed>
  <fix>3d</fix>
</trkpt>
<trkpt lat="40.0710186" lon="-105.22912">
  <ele>1583.0</ele>
  <time>2026-08-27T17:17:30Z</time>
  <course>342.2</course>
  <speed>1.95</speed>
  <fix>3d</fix>
</trkpt>
<trkpt lat="40.071024" lon="-105.2291229">
  <ele>1583.14</ele>
  <time>2026-08-27T17:17:30Z</time>
  <course>337.1</course>
  <speed>1.94164878389476</speed>
  <fix>3d</fix>
</trkpt>
<trkpt lat="40.0710219" lon="-105.2291216">
  <ele>1583.0</ele>
  <time>2026-08-27T17:17:30Z</time>
  <course>338.05</course>
  <speed>1.93</speed>
  <fix>3d</fix>
</trkpt>
<trkpt lat="40.0710255" lon="-105.2291238">
  <ele>1583.14</ele>
  <time>2026-08-27T17:17:30Z</time>
  <course>335.38</course>
  <speed>1.9364400326372104</speed>
  <fix>3d</fix>
</trkpt>
<trkpt lat="40.0710219" lon="-105.2291216">
  <ele>1583.0</ele>
  <time>2026-08-27T17:17:30Z</time>
  <course>338.05</course>
  <speed>1.93</speed>
  <fix>3d</fix>
</trkpt>
<trkpt lat="40.0710271" lon="-105.2291249">
  <ele>1583.14</ele>
  <time>2026-08-27T17:17:30Z</time>
  <course>333.8</course>
  <speed>1.928237537234456</speed>
  <fix>3d</fix>
</trkpt>
<trkpt lat="40.071025" lon="-105.2291234">
  <ele>1583.0</ele>
  <time>2026-08-27T17:17:30Z</time>
  <course>334.47</course>
  <speed>1.92</speed>
  <fix>3d</fix>
</trkpt>
<trkpt lat="40.0710286" lon="-105.229126">
  <ele>1583.14</ele>
  <time>2026-08-27T17:17:30Z</time>
  <course>332.36</course>
  <speed>1.9213016421166145</speed>
  <fix>3d</fix>
</trkpt>
<trkpt lat="40.071025" lon="-105.2291234">
  <ele>1583.0</ele>
  <time>2026-08-27T17:17:30Z</time>
  <course>334.47</course>
  <speed>1.92</speed>
  <fix>3d</fix>
</trkpt>
<trkpt lat="40.0710301" lon="-105.2291271">
  <ele>1583.14</ele>
  <time>2026-08-27T17:17:30Z</time>
  <course>331.01</course>
  <speed>1.9156461051039673</speed>
  <fix>3d</fix>
</trkpt>
<trkpt lat="40.0710281" lon="-105.2291255">
  <ele>1583.0</ele>
  <time>2026-08-27T17:17:30Z</time>
  <course>331.42</course>
  <speed>1.91</speed>
  <fix>3d</fix>
</trkpt>
<trkpt lat="40.0710315" lon="-105.2291283">
  <ele>1583.14</ele>
  <time>2026-08-27T17:17:31Z</time>
  <course>329.79</course>
  <speed>1.914366736025258</speed>
  <fix>3d</fix>
</trkpt>
<trkpt lat="40.0710281" lon="-105.2291255">
  <ele>1583.0</ele>
  <time>2026-08-27T17:17:31Z</time>
  <course>331.42</course>
  <speed>1.91</speed>
  <fix>3d</fix>
</trkpt>
<trkpt lat="40.071033" lon="-105.2291295">
  <ele>1583.14</ele>
  <time>2026-08-27T17:17:31Z</time>
  <course>328.66</course>
  <speed>1.9137659209004638</speed>
  <fix>3d</fix>
</trkpt>
<trkpt lat="40.0710311" lon="-105.2291277">
  <ele>1583.0</ele>
  <time>2026-08-27T17:17:31Z</time>
  <course>328.84</course>
  <speed>1.9</speed>
  <fix>3d</fix>
</trkpt>
<trkpt lat="40.0710344" lon="-105.2291307">
  <ele>1583.14</ele>
  <time>2026-08-27T17:17:31Z</time>
  <course>327.63</course>
  <speed>1.9055970193091718</speed>
  <fix>3d</fix>
</trkpt>
<trkpt lat="40.0710311" lon="-105.2291277">
  <ele>1583.0</ele>
  <time>2026-08-27T17:17:31Z</time>
  <course>328.84</course>
  <speed>1.9</speed>
  <fix>3d</fix>
</trkpt>
<trkpt lat="40.0710358" lon="-105.229132">
  <ele>1583.14</ele>
  <time>2026-08-27T17:17:31Z</time>
  <course>326.7</course>
  <speed>1.9006577808748213</speed>
  <fix>3d</fix>
</trkpt>
<trkpt lat="40.071034" lon="-105.2291301">
  <ele>1583.0</ele>
  <time>2026-08-27T17:17:31Z</time>
  <course>326.68</course>
  <speed>1.9</speed>
  <fix>3d</fix>
</trkpt>
<trkpt lat="40.0710375" lon="-105.2291335">
  <ele>1583.14</ele>
  <time>2026-08-27T17:17:31Z</time>
  <course>325.69</course>
  <speed>1.9020515240129539</speed>
  <fix>3d</fix>
</trkpt>
<trkpt lat="40.071034" lon="-105.2291301">
  <ele>1583.0</ele>
  <time>2026-08-27T17:17:31Z</time>
  <course>326.68</course>
  <speed>1.9</speed>
  <fix>3d</fix>
</trkpt>
<trkpt lat="40.0710389" lon="-105.2291348">
  <ele>1583.14</ele>
  <time>2026-08-27T17:17:31Z</time>
  <course>324.94</course>
  <speed>1.9060167890131503</speed>
  <fix>3d</fix>
</trkpt>
<trkpt lat="40.0710368" lon="-105.2291326">
  <ele>1583.0</ele>
  <time>2026-08-27T17:17:31Z</time>
  <course>324.89</course>
  <speed>1.9</speed>
  <fix>3d</fix>
</trkpt>
<trkpt lat="40.0710403" lon="-105.2291362">
  <ele>1583.14</ele>
  <time>2026-08-27T17:17:31Z</time>
  <course>324.27</course>
  <speed>1.9102355875650523</speed>
  <fix>3d</fix>
</trkpt>
<trkpt lat="40.0710368" lon="-105.2291326">
  <ele>1583.0</ele>
  <time>2026-08-27T17:17:31Z</time>
  <course>324.89</course>
  <speed>1.9</speed>
  <fix>3d</fix>
</trkpt>
<trkpt lat="40.0710416" lon="-105.2291375">
  <ele>1583.15</ele>
  <time>2026-08-27T17:17:31Z</time>
  <course>323.66</course>
  <speed>1.9085072700935672</speed>
  <fix>3d</fix>
</trkpt>
<trkpt lat="40.0710396" lon="-105.2291352">
  <ele>1583.0</ele>
  <time>2026-08-27T17:17:31Z</time>
  <course>323.42</course>
  <speed>1.9</speed>
  <fix>3d</fix>
</trkpt>
<trkpt lat="40.071043" lon="-105.2291389">
  <ele>1583.15</ele>
  <time>2026-08-27T17:17:31Z</time>
  <course>323.11</course>
  <speed>1.9131387822110555</speed>
  <fix>3d</fix>
</trkpt>
<trkpt lat="40.0710396" lon="-105.2291352">
  <ele>1583.0</ele>
  <time>2026-08-27T17:17:31Z</time>
  <course>323.42</course>
  <speed>1.9</speed>
  <fix>3d</fix>
</trkpt>
<trkpt lat="40.0710443" lon="-105.2291403">
  <ele>1583.15</ele>
  <time>2026-08-27T17:17:31Z</time>
  <course>322.62</course>
  <speed>1.911674658512792</speed>
  <fix>3d</fix>
</trkpt>
<trkpt lat="40.0710423" lon="-105.2291379">
  <ele>1583.0</ele>
  <time>2026-08-27T17:17:31Z</time>
  <course>322.23</course>
  <speed>1.91</speed>
  <fix>3d</fix>
</trkpt>
<trkpt lat="40.0710457" lon="-105.2291417">
  <ele>1583.15</ele>
  <time>2026-08-27T17:17:31Z</time>
  <course>322.2</course>
  <speed>1.9243960091415695</speed>
  <fix>3d</fix>
</trkpt>
<trkpt lat="40.0710423" lon="-105.2291379">
  <ele>1583.0</ele>
  <time>2026-08-27T17:17:31Z</time>
  <course>322.23</course>
  <speed>1.91</speed>
  <fix>3d</fix>
</trkpt>
<trkpt lat="40.071047" lon="-105.2291431">
  <ele>1583.15</ele>
  <time>2026-08-27T17:17:31Z</time>
  <course>321.82</course>
  <speed>1.9231484602078956</speed>
  <fix>3d</fix>
</trkpt>
<trkpt lat="40.071045" lon="-105.2291408">
  <ele>1583.0</ele>
  <time>2026-08-27T17:17:31Z</time>
  <course>321.29</course>
  <speed>1.92</speed>
  <fix>3d</fix>
</trkpt>
<trkpt lat="40.0710483" lon="-105.2291446">
  <ele>1583.15</ele>
  <time>2026-08-27T17:17:31Z</time>
  <course>321.48</course>
  <speed>1.9296113598338913</speed>
  <fix>3d</fix>
</trkpt>
<trkpt lat="40.071045" lon="-105.2291408">
  <ele>1583.0</ele>
  <time>2026-08-27T17:17:31Z</time>
  <course>321.29</course>
  <speed>1.92</speed>
  <fix>3d</fix>
</trkpt>
<trkpt lat="40.0710496" lon="-105.229146">
  <ele>1583.15</ele>
  <time>2026-08-27T17:17:31Z</time>
  <course>321.19</course>
  <speed>1.9361043360315062</speed>
  <fix>3d</fix>
</trkpt>
<trkpt lat="40.0710477" lon="-105.2291436">
  <ele>1583.0</ele>
  <time>2026-08-27T17:17:31Z</time>
  <course>320.55</course>
  <speed>1.94</speed>
  <fix>3d</fix>
</trkpt>
<trkpt lat="40.071051" lon="-105.2291474">
  <ele>1583.15</ele>
  <time>2026-08-27T17:17:31Z</time>
  <course>320.95</course>
  <speed>1.9426270872197782</speed>
  <fix>3d</fix>
</trkpt>
<trkpt lat="40.0710477" lon="-105.2291436">
  <ele>1583.0</ele>
  <time>2026-08-27T17:17:31Z</time>
  <course>320.55</course>
  <speed>1.94</speed>
  <fix>3d</fix>
</trkpt>
<trkpt lat="40.071052" lon="-105.2291486">
  <ele>1583.16</ele>
  <time>2026-08-27T17:17:31Z</time>
  <course>320.77</course>
  <speed>1.9426270872197782</speed>
  <fix>3d</fix>
</trkpt>
<trkpt lat="40.0710504" lon="-105.2291465">
  <ele>1583.0</ele>
  <time>2026-08-27T17:17:31Z</time>
  <course>319.99</course>
  <speed>1.95</speed>
  <fix>3d</fix>
</trkpt>
<trkpt lat="40.0710534" lon="-105.2291501">
  <ele>1583.16</ele>
  <time>2026-08-27T17:17:31Z</time>
  <course>320.59</course>
  <speed>1.9491793144808407</speed>
  <fix>3d</fix>
</trkpt>
<trkpt lat="40.0710504" lon="-105.2291465">
  <ele>1583.0</ele>
  <time>2026-08-27T17:17:31Z</time>
  <course>319.99</course>
  <speed>1.95</speed>
  <fix>3d</fix>
</trkpt>
<trkpt lat="40.0710547" lon="-105.2291516">
  <ele>1583.16</ele>
  <time>2026-08-27T17:17:31Z</time>
  <course>320.43</course>
  <speed>1.9491793144808407</speed>
  <fix>3d</fix>
</trkpt>
<trkpt lat="40.0710531" lon="-105.2291496">
  <ele>1583.0</ele>
  <time>2026-08-27T17:17:31Z</time>
  <course>319.58</course>
  <speed>1.97</speed>
  <fix>3d</fix>
</trkpt>
<trkpt lat="40.071056" lon="-105.2291531">
  <ele>1583.16</ele>
  <time>2026-08-27T17:17:31Z</time>
  <course>320.31</course>
  <speed>1.9557607215607944</speed>
  <fix>3d</fix>
</trkpt>
<trkpt lat="40.0710531" lon="-105.2291496">
  <ele>1583.0</ele>
  <time>2026-08-27T17:17:31Z</time>
  <course>319.58</course>
  <speed>1.97</speed>
  <fix>3d</fix>
</trkpt>
<trkpt lat="40.0710574" lon="-105.2291546">
  <ele>1583.16</ele>
  <time>2026-08-27T17:17:31Z</time>
  <course>320.22</course>
  <speed>1.9557607215607944</speed>
  <fix>3d</fix>
</trkpt>
<trkpt lat="40.0710558" lon="-105.2291525">
  <ele>1583.0</ele>
  <time>2026-08-27T17:17:31Z</time>
  <course>319.31</course>
  <speed>1.98</speed>
  <fix>3d</fix>
</trkpt>
<trkpt lat="40.0710587" lon="-105.2291561">
  <ele>1583.16</ele>
  <time>2026-08-27T17:17:31Z</time>
  <course>320.15</course>
  <speed>1.9698730923589978</speed>
  <fix>3d</fix>
</trkpt>
<trkpt lat="40.0710558" lon="-105.2291525">
  <ele>1583.0</ele>
  <time>2026-08-27T17:17:31Z</time>
  <course>319.31</course>
  <speed>1.98</speed>
  <fix>3d</fix>
</trkpt>
<trkpt lat="40.0710601" lon="-105.2291576">
  <ele>1583.16</ele>
  <time>2026-08-27T17:17:31Z</time>
  <course>320.1</course>
  <speed>1.9698730923589978</speed>
  <fix>3d</fix>
</trkpt>
<trkpt lat="40.0710585" lon="-105.2291556">
  <ele>1583.0</ele>
  <time>2026-08-27T17:17:31Z</time>
  <course>319.14</course>
  <speed>1.99</speed>
  <fix>3d</fix>
</trkpt>
<trkpt lat="40.0710614" lon="-105.2291592">
  <ele>1583.15</ele>
  <time>2026-08-27T17:17:31Z</time>
  <course>320.08</course>
  <speed>1.9698730923589978</speed>
  <fix>3d</fix>
</trkpt>
<trkpt lat="40.0710585" lon="-105.2291556">
  <ele>1583.0</ele>
  <time>2026-08-27T17:17:31Z</time>
  <course>319.14</course>
  <speed>1.99</speed>
  <fix>3d</fix>
</trkpt>
<trkpt lat="40.0710628" lon="-105.2291607">
  <ele>1583.15</ele>
  <time>2026-08-27T17:17:31Z</time>
  <course>320.07</course>
  <speed>1.9773972792537162</speed>
  <fix>3d</fix>
</trkpt>
<trkpt lat="40.0710612" lon="-105.2291587">
  <ele>1583.0</ele>
  <time>2026-08-27T17:17:31Z</time>
  <course>319.06</course>
  <speed>2.0</speed>
  <fix>3d</fix>
</trkpt>
<trkpt lat="40.0710642" lon="-105.2291623">
  <ele>1583.15</ele>
  <time>2026-08-27T17:17:31Z</time>
  <course>320.07</course>
  <speed>1.9773972792537162</speed>
  <fix>3d</fix>
</trkpt>
<trkpt lat="40.0710612" lon="-105.2291587">
  <ele>1583.0</ele>
  <time>2026-08-27T17:17:31Z</time>
  <course>319.06</course>
  <speed>2.0</speed>
  <fix>3d</fix>
</trkpt>
<trkpt lat="40.0710658" lon="-105.2291641">
  <ele>1583.14</ele>
  <time>2026-08-27T17:17:31Z</time>
  <course>320.08</course>
  <speed>1.9773972792537162</speed>
  <fix>3d</fix>
</trkpt>
<trkpt lat="40.0710639" lon="-105.2291617">
  <ele>1583.0</ele>
  <time>2026-08-27T17:17:31Z</time>
  <course>319.05</course>
  <speed>2.01</speed>
  <fix>3d</fix>
</trkpt>
<trkpt lat="40.0710672" lon="-105.2291656">
  <ele>1583.14</ele>
  <time>2026-08-27T17:17:31Z</time>
  <course>320.11</course>
  <speed>1.9849433241279208</speed>
  <fix>3d</fix>
</trkpt>
<trkpt lat="40.0710639" lon="-105.2291617">
  <ele>1583.0</ele>
  <time>2026-08-27T17:17:31Z</time>
  <course>319.05</course>
  <speed>2.01</speed>
  <fix>3d</fix>
</trkpt>
<trkpt lat="40.0710686" lon="-105.2291672">
  <ele>1583.14</ele>
  <time>2026-08-27T17:17:31Z</time>
  <course>320.16</course>
  <speed>1.9849433241279208</speed>
  <fix>3d</fix>
</trkpt>
<trkpt lat="40.0710667" lon="-105.2291648">
  <ele>1583.0</ele>
  <time>2026-08-27T17:17:31Z</time>
  <course>319.08</course>
  <speed>2.01</speed>
  <fix>3d</fix>
</trkpt>
<trkpt lat="40.07107" lon="-105.2291687">
  <ele>1583.14</ele>
  <time>2026-08-27T17:17:31Z</time>
  <course>320.21</course>
  <speed>1.9925109786397663</speed>
  <fix>3d</fix>
</trkpt>
<trkpt lat="40.0710667" lon="-105.2291648">
  <ele>1583.0</ele>
  <time>2026-08-27T17:17:31Z</time>
  <course>319.08</course>
  <speed>2.01</speed>
  <fix>3d</fix>
</trkpt>
<trkpt lat="40.0710713" lon="-105.2291703">
  <ele>1583.14</ele>
  <time>2026-08-27T17:17:31Z</time>
  <course>320.28</course>
  <speed>1.9925109786397663</speed>
  <fix>3d</fix>
</trkpt>
<trkpt lat="40.0710694" lon="-105.2291679">
  <ele>1583.0</ele>
  <time>2026-08-27T17:17:31Z</time>
  <course>319.17</course>
  <speed>2.02</speed>
  <fix>3d</fix>
</trkpt>
<trkpt lat="40.0710727" lon="-105.2291718">
  <ele>1583.14</ele>
  <time>2026-08-27T17:17:31Z</time>
  <course>320.36</course>
  <speed>1.9925109786397663</speed>
  <fix>3d</fix>
</trkpt>
<trkpt lat="40.0710694" lon="-105.2291679">
  <ele>1583.0</ele>
  <time>2026-08-27T17:17:31Z</time>
  <course>319.17</course>
  <speed>2.02</speed>
  <fix>3d</fix>
</trkpt>
<trkpt lat="40.0710741" lon="-105.2291733">
  <ele>1583.14</ele>
  <time>2026-08-27T17:17:31Z</time>
  <course>320.44</course>
  <speed>1.9936148073286373</speed>
  <fix>3d</fix>
</trkpt>
<trkpt lat="40.0710722" lon="-105.2291711">
  <ele>1583.0</ele>
  <time>2026-08-27T17:17:31Z</time>
  <course>319.31</course>
  <speed>2.02</speed>
  <fix>3d</fix>
</trkpt>
<trkpt lat="40.0710755" lon="-105.2291748">
  <ele>1583.14</ele>
  <time>2026-08-27T17:17:31Z</time>
  <course>320.54</course>
  <speed>1.9936148073286373</speed>
  <fix>3d</fix>
</trkpt>
<trkpt lat="40.0710722" lon="-105.2291711">
  <ele>1583.0</ele>
  <time>2026-08-27T17:17:31Z</time>
  <course>319.31</course>
  <speed>2.02</speed>
  <fix>3d</fix>
</trkpt>
<trkpt lat="40.0710768" lon="-105.2291764">
  <ele>1583.14</ele>
  <time>2026-08-27T17:17:31Z</time>
  <course>320.65</course>
  <speed>1.9936148073286373</speed>
  <fix>3d</fix>
</trkpt>
<trkpt lat="40.0710749" lon="-105.2291742">
  <ele>1583.0</ele>
  <time>2026-08-27T17:17:31Z</time>
  <course>319.5</course>
  <speed>2.03</speed>
  <fix>3d</fix>
</trkpt>
<trkpt lat="40.0710782" lon="-105.2291779">
  <ele>1583.14</ele>
  <time>2026-08-27T17:17:31Z</time>
  <course>320.76</course>
  <speed>1.9948182874637979</speed>
  <fix>3d</fix>
</trkpt>
<trkpt lat="40.0710749" lon="-105.2291742">
  <ele>1583.0</ele>
  <time>2026-08-27T17:17:31Z</time>
  <course>319.5</course>
  <speed>2.03</speed>
  <fix>3d</fix>
</trkpt>
<trkpt lat="40.0710796" lon="-105.2291794">
  <ele>1583.14</ele>
  <time>2026-08-27T17:17:31Z</time>
  <course>320.87</course>
  <speed>1.9948182874637979</speed>
  <fix>3d</fix>
</trkpt>
<trkpt lat="40.0710778" lon="-105.2291773">
  <ele>1583.0</ele>
  <time>2026-08-27T17:17:31Z</time>
  <course>319.71</course>
  <speed>2.03</speed>
  <fix>3d</fix>
</trkpt>
<trkpt lat="40.0710807" lon="-105.2291806">
  <ele>1583.14</ele>
  <time>2026-08-27T17:17:31Z</time>
  <course>320.97</course>
  <speed>1.9884164553734711</speed>
  <fix>3d</fix>
</trkpt>
<trkpt lat="40.0710778" lon="-105.2291773">
  <ele>1583.0</ele>
  <time>2026-08-27T17:17:31Z</time>
  <course>319.71</course>
  <speed>2.03</speed>
  <fix>3d</fix>
</trkpt>
<trkpt lat="40.0710821" lon="-105.2291821">
  <ele>1583.14</ele>
  <time>2026-08-27T17:17:31Z</time>
  <course>321.11</course>
  <speed>1.9884164553734711</speed>
  <fix>3d</fix>
</trkpt>
<trkpt lat="40.0710806" lon="-105.2291803">
  <ele>1583.0</ele>
  <time>2026-08-27T17:17:31Z</time>
  <course>319.95</course>
  <speed>2.03</speed>
  <fix>3d</fix>
</trkpt>
<trkpt lat="40.0710835" lon="-105.2291836">
  <ele>1583.14</ele>
  <time>2026-08-27T17:17:31Z</time>
  <course>321.25</course>
  <speed>1.996121238802894</speed>
  <fix>3d</fix>
</trkpt>
<trkpt lat="40.0710806" lon="-105.2291803">
  <ele>1583.0</ele>
  <time>2026-08-27T17:17:31Z</time>
  <course>319.95</course>
  <speed>2.03</speed>
  <fix>3d</fix>
</trkpt>
<trkpt lat="40.0710849" lon="-105.2291851">
  <ele>1583.14</ele>
  <time>2026-08-27T17:17:31Z</time>
  <course>321.38</course>
  <speed>1.9897738564972653</speed>
  <fix>3d</fix>
</trkpt>
<trkpt lat="40.0710834" lon="-105.2291834">
  <ele>1583.0</ele>
  <time>2026-08-27T17:17:31Z</time>
  <course>320.23</course>
  <speed>2.03</speed>
  <fix>3d</fix>
</trkpt>
<trkpt lat="40.0710864" lon="-105.2291866">
  <ele>1583.13</ele>
  <time>2026-08-27T17:17:31Z</time>
  <course>321.52</course>
  <speed>1.9975234666956982</speed>
  <fix>3d</fix>
</trkpt>
<trkpt lat="40.0710834" lon="-105.2291834">
  <ele>1583.0</ele>
  <time>2026-08-27T17:17:31Z</time>
  <course>320.23</course>
  <speed>2.03</speed>
  <fix>3d</fix>
</trkpt>
<trkpt lat="40.0710878" lon="-105.2291881">
  <ele>1583.13</ele>
  <time>2026-08-27T17:17:31Z</time>
  <course>321.66</course>
  <speed>1.9912307751739877</speed>
  <fix>3d</fix>
</trkpt>
<trkpt lat="40.0710861" lon="-105.2291865">
  <ele>1583.0</ele>
  <time>2026-08-27T17:17:31Z</time>
  <course>320.5</course>
  <speed>2.03</speed>
  <fix>3d</fix>
</trkpt>
<trkpt lat="40.0710892" lon="-105.2291897">
  <ele>1583.13</ele>
  <time>2026-08-27T17:17:31Z</time>
  <course>321.79</course>
  <speed>1.9912307751739877</speed>
  <fix>3d</fix>
</trkpt>
<trkpt lat="40.0710861" lon="-105.2291865">
  <ele>1583.0</ele>
  <time>2026-08-27T17:17:31Z</time>
  <course>320.5</course>
  <speed>2.03</speed>
  <fix>3d</fix>
</trkpt>
<trkpt lat="40.0710907" lon="-105.2291912">
  <ele>1583.14</ele>
  <time>2026-08-27T17:17:31Z</time>
  <course>321.93</course>
  <speed>1.992786993132984</speed>
  <fix>3d</fix>
</trkpt>
<trkpt lat="40.071089" lon="-105.2291895">
  <ele>1583.0</ele>
  <time>2026-08-27T17:17:31Z</time>
  <course>320.78</course>
  <speed>2.03</speed>
  <fix>3d</fix>
</trkpt>
<trkpt lat="40.0710921" lon="-105.2291927">
  <ele>1583.14</ele>
  <time>2026-08-27T17:17:31Z</time>
  <course>322.07</course>
  <speed>1.992786993132984</speed>
  <fix>3d</fix>
</trkpt>
<trkpt lat="40.071089" lon="-105.2291895">
  <ele>1583.0</ele>
  <time>2026-08-27T17:17:31Z</time>
  <course>320.78</course>
  <speed>2.03</speed>
  <fix>3d</fix>
</trkpt>
<trkpt lat="40.0710935" lon="-105.2291942">
  <ele>1583.14</ele>
  <time>2026-08-27T17:17:31Z</time>
  <course>322.2</course>
  <speed>1.9865799757371965</speed>
  <fix>3d</fix>
</trkpt>
<trkpt lat="40.0710919" lon="-105.2291926">
  <ele>1583.0</ele>
  <time>2026-08-27T17:17:31Z</time>
  <course>321.05</course>
  <speed>2.03</speed>
  <fix>3d</fix>
</trkpt>
<trkpt lat="40.0710953" lon="-105.229196">
  <ele>1583.14</ele>
  <time>2026-08-27T17:17:31Z</time>
  <course>322.38</course>
  <speed>1.9944422779313518</speed>
  <fix>3d</fix>
</trkpt>
<trkpt lat="40.0710919" lon="-105.2291926">
  <ele>1583.0</ele>
  <time>2026-08-27T17:17:31Z</time>
  <course>321.05</course>
  <speed>2.03</speed>
  <fix>3d</fix>
</trkpt>
<trkpt lat="40.0710967" lon="-105.2291974">
  <ele>1583.14</ele>
  <time>2026-08-27T17:17:31Z</time>
  <course>322.53</course>
  <speed>1.9882907232092595</speed>
  <fix>3d</fix>
</trkpt>
<trkpt lat="40.0710947" lon="-105.2291955">
  <ele>1583.0</ele>
  <time>2026-08-27T17:17:31Z</time>
  <course>321.34</course>
  <speed>2.03</speed>
  <fix>3d</fix>
</trkpt>
<trkpt lat="40.0710981" lon="-105.2291989">
  <ele>1583.14</ele>
  <time>2026-08-27T17:17:31Z</time>
  <course>322.68</course>
  <speed>1.9961963831246663</speed>
  <fix>3d</fix>
</trkpt>
<trkpt lat="40.0710947" lon="-105.2291955">
  <ele>1583.0</ele>
  <time>2026-08-27T17:17:31Z</time>
  <course>321.34</course>
  <speed>2.03</speed>
  <fix>3d</fix>
</trkpt>
<trkpt lat="40.0710996" lon="-105.2292004">
  <ele>1583.14</ele>
  <time>2026-08-27T17:17:31Z</time>
  <course>322.83</course>
  <speed>1.9901004999748126</speed>
  <fix>3d</fix>
</trkpt>
<trkpt lat="40.0710976" lon="-105.2291985">
  <ele>1583.0</ele>
  <time>2026-08-27T17:17:31Z</time>
  <course>321.65</course>
  <speed>2.03</speed>
  <fix>3d</fix>
</trkpt>
<trkpt lat="40.071101" lon="-105.2292019">
  <ele>1583.15</ele>
  <time>2026-08-27T17:17:31Z</time>
  <course>322.99</course>
  <speed>1.9901004999748126</speed>
  <fix>3d</fix>
</trkpt>
<trkpt lat="40.0710976" lon="-105.2291985">
  <ele>1583.0</ele>
  <time>2026-08-27T17:17:31Z</time>
  <course>321.65</course>
  <speed>2.03</speed>
  <fix>3d</fix>
</trkpt>
<trkpt lat="40.0711025" lon="-105.2292033">
  <ele>1583.15</ele>
  <time>2026-08-27T17:17:31Z</time>
  <course>323.13</course>
  <speed>1.9920090361240836</speed>
  <fix>3d</fix>
</trkpt>
<trkpt lat="40.0711004" lon="-105.2292014">
  <ele>1583.0</ele>
  <time>2026-08-27T17:17:31Z</time>
  <course>321.95</course>
  <speed>2.02</speed>
  <fix>3d</fix>
</trkpt>
<trkpt lat="40.0711039" lon="-105.2292048">
  <ele>1583.15</ele>
  <time>2026-08-27T17:17:31Z</time>
  <course>323.28</course>
  <speed>1.9920090361240836</speed>
  <fix>3d</fix>
</trkpt>
<trkpt lat="40.0711004" lon="-105.2292014">
  <ele>1583.0</ele>
  <time>2026-08-27T17:17:31Z</time>
  <course>321.95</course>
  <speed>2.02</speed>
  <fix>3d</fix>
</trkpt>
<trkpt lat="40.0711054" lon="-105.2292062">
  <ele>1583.15</ele>
  <time>2026-08-27T17:17:31Z</time>
  <course>323.44</course>
  <speed>1.98600100704909</speed>
  <fix>3d</fix>
</trkpt>
<trkpt lat="40.0711033" lon="-105.2292043">
  <ele>1583.0</ele>
  <time>2026-08-27T17:17:31Z</time>
  <course>322.26</course>
  <speed>2.02</speed>
  <fix>3d</fix>
</trkpt>
<trkpt lat="40.0711068" lon="-105.2292076">
  <ele>1583.15</ele>
  <time>2026-08-27T17:17:31Z</time>
  <course>323.57</course>
  <speed>1.98600100704909</speed>
  <fix>3d</fix>
</trkpt>
<trkpt lat="40.0711033" lon="-105.2292043">
  <ele>1583.0</ele>
  <time>2026-08-27T17:17:31Z</time>
  <course>322.26</course>
  <speed>2.02</speed>
  <fix>3d</fix>
</trkpt>
<trkpt lat="40.0711082" lon="-105.229209">
  <ele>1583.15</ele>
  <time>2026-08-27T17:17:31Z</time>
  <course>323.72</course>
  <speed>1.9800252523642217</speed>
  <fix>3d</fix>
</trkpt>
<trkpt lat="40.0711062" lon="-105.2292073">
  <ele>1583.0</ele>
  <time>2026-08-27T17:17:31Z</time>
  <course>322.55</course>
  <speed>2.02</speed>
  <fix>3d</fix>
</trkpt>
<trkpt lat="40.0711097" lon="-105.2292105">
  <ele>1583.15</ele>
  <time>2026-08-27T17:17:31Z</time>
  <course>323.86</course>
  <speed>1.974082065163452</speed>
  <fix>3d</fix>
</trkpt>
<trkpt lat="40.0711062" lon="-105.2292073">
  <ele>1583.0</ele>
  <time>2026-08-27T17:17:31Z</time>
  <course>322.55</course>
  <speed>2.02</speed>
  <fix>3d</fix>
</trkpt>
<trkpt lat="40.0711108" lon="-105.2292116">
  <ele>1583.15</ele>
  <time>2026-08-27T17:17:31Z</time>
  <course>323.97</course>
  <speed>1.982145302443794</speed>
  <fix>3d</fix>
</trkpt>
<trkpt lat="40.0711091" lon="-105.2292101">
  <ele>1583.0</ele>
  <time>2026-08-27T17:17:31Z</time>
  <course>322.83</course>
  <speed>2.02</speed>
  <fix>3d</fix>
</trkpt>
<trkpt lat="40.0711123" lon="-105.229213">
  <ele>1583.15</ele>
  <time>2026-08-27T17:17:31Z</time>
  <course>324.11</course>
  <speed>1.9762590923257</speed>
  <fix>3d</fix>
</trkpt>
<trkpt lat="40.0711091" lon="-105.2292101">
  <ele>1583.0</ele>
  <time>2026-08-27T17:17:31Z</time>
  <course>322.83</course>
  <speed>2.02</speed>
  <fix>3d</fix>
</trkpt>
<trkpt lat="40.0711137" lon="-105.2292144">
  <ele>1583.15</ele>
  <time>2026-08-27T17:17:31Z</time>
  <course>324.24</course>
  <speed>1.9762590923257</speed>
  <fix>3d</fix>
</trkpt>
<trkpt lat="40.071112" lon="-105.2292129">
  <ele>1583.0</ele>
  <time>2026-08-27T17:17:31Z</time>
  <course>323.11</course>
  <speed>2.01</speed>
  <fix>3d</fix>
</trkpt>
<trkpt lat="40.0711152" lon="-105.2292158">
  <ele>1583.15</ele>
  <time>2026-08-27T17:17:31Z</time>
  <course>324.37</course>
  <speed>1.9762590923257</speed>
  <fix>3d</fix>
</trkpt>
<trkpt lat="40.071112" lon="-105.2292129">
  <ele>1583.0</ele>
  <time>2026-08-27T17:17:31Z</time>
  <course>323.11</course>
  <speed>2.01</speed>
  <fix>3d</fix>
</trkpt>
<trkpt lat="40.0711166" lon="-105.2292172">
  <ele>1583.16</ele>
  <time>2026-08-27T17:17:31Z</time>
  <course>324.51</course>
  <speed>1.9704060495238032</speed>
  <fix>3d</fix>
</trkpt>
<trkpt lat="40.0711149" lon="-105.2292158">
  <ele>1583.0</ele>
  <time>2026-08-27T17:17:31Z</time>
  <course>323.38</course>
  <speed>2.01</speed>
  <fix>3d</fix>
</trkpt>
<trkpt lat="40.0711181" lon="-105.2292186">
  <ele>1583.16</ele>
  <time>2026-08-27T17:17:31Z</time>
  <course>324.64</course>
  <speed>1.978534811419804</speed>
  <fix>3d</fix>
</trkpt>
<trkpt lat="40.0711149" lon="-105.2292158">
  <ele>1583.0</ele>
  <time>2026-08-27T17:17:31Z</time>
  <course>323.38</course>
  <speed>2.01</speed>
  <fix>3d</fix>
</trkpt>
<trkpt lat="40.0711196" lon="-105.22922">
  <ele>1583.16</ele>
  <time>2026-08-27T17:17:31Z</time>
  <course>324.78</course>
  <speed>1.9727392123643712</speed>
  <fix>3d</fix>
</trkpt>
<trkpt lat="40.0711178" lon="-105.2292186">
  <ele>1583.0</ele>
  <time>2026-08-27T17:17:31Z</time>
  <course>323.65</course>
  <speed>2.0</speed>
  <fix>3d</fix>
</trkpt>
<trkpt lat="40.0711211" lon="-105.2292214">
  <ele>1583.16</ele>
  <time>2026-08-27T17:17:31Z</time>
  <course>324.91</course>
  <speed>1.9727392123643712</speed>
  <fix>3d</fix>
</trkpt>
<trkpt lat="40.0711178" lon="-105.2292186">
  <ele>1583.0</ele>
  <time>2026-08-27T17:17:31Z</time>
  <course>323.65</course>
  <speed>2.0</speed>
  <fix>3d</fix>
</trkpt>
<trkpt lat="40.0711225" lon="-105.2292228">
  <ele>1583.16</ele>
  <time>2026-08-27T17:17:31Z</time>
  <course>325.03</course>
  <speed>1.9669773765857095</speed>
  <fix>3d</fix>
</trkpt>
<trkpt lat="40.0711207" lon="-105.2292214">
  <ele>1583.0</ele>
  <time>2026-08-27T17:17:31Z</time>
  <course>323.91</course>
  <speed>2.0</speed>
  <fix>3d</fix>
</trkpt>
<trkpt lat="40.071124" lon="-105.2292242">
  <ele>1583.16</ele>
  <time>2026-08-27T17:17:31Z</time>
  <course>325.06</course>
  <speed>1.9669773765857095</speed>
  <fix>3d</fix>
</trkpt>
<trkpt lat="40.0711207" lon="-105.2292214">
  <ele>1583.0</ele>
  <time>2026-08-27T17:17:31Z</time>
  <course>323.91</course>
  <speed>2.0</speed>
  <fix>3d</fix>
</trkpt>
<trkpt lat="40.0711258" lon="-105.2292258">
  <ele>1583.16</ele>
  <time>2026-08-27T17:17:31Z</time>
  <course>325.04</course>
  <speed>1.9669773765857095</speed>
  <fix>3d</fix>
</trkpt>
<trkpt lat="40.0711236" lon="-105.2292242">
  <ele>1583.0</ele>
  <time>2026-08-27T17:17:31Z</time>
  <course>324.05</course>
  <speed>2.0</speed>
  <fix>3d</fix>
</trkpt>
<trkpt lat="40.0711272" lon="-105.2292272">
  <ele>1583.15</ele>
  <time>2026-08-27T17:17:31Z</time>
  <course>324.94</course>
  <speed>1.9669773765857095</speed>
  <fix>3d</fix>
</trkpt>
<trkpt lat="40.0711236" lon="-105.2292242">
  <ele>1583.0</ele>
  <time>2026-08-27T17:17:31Z</time>
  <course>324.05</course>
  <speed>2.0</speed>
  <fix>3d</fix>
</trkpt>
<trkpt lat="40.0711287" lon="-105.2292286">
  <ele>1583.15</ele>
  <time>2026-08-27T17:17:31Z</time>
  <course>324.75</course>
  <speed>1.9645864704817653</speed>
  <fix>3d</fix>
</trkpt>
<trkpt lat="40.0711265" lon="-105.2292269">
  <ele>1583.0</ele>
  <time>2026-08-27T17:17:31Z</time>
  <course>323.94</course>
  <speed>1.99</speed>
  <fix>3d</fix>
</trkpt>
<trkpt lat="40.0711301" lon="-105.22923">
  <ele>1583.15</ele>
  <time>2026-08-27T17:17:31Z</time>
  <course>324.48</course>
  <speed>1.9704060495238032</speed>
  <fix>3d</fix>
</trkpt>
<trkpt lat="40.0711265" lon="-105.2292269">
  <ele>1583.0</ele>
  <time>2026-08-27T17:17:31Z</time>
  <course>323.94</course>
  <speed>1.99</speed>
  <fix>3d</fix>
</trkpt>
<trkpt lat="40.0711316" lon="-105.2292314">
  <ele>1583.15</ele>
  <time>2026-08-27T17:17:31Z</time>
  <course>324.15</course>
  <speed>1.9622945752358385</speed>
  <fix>3d</fix>
</trkpt>
<trkpt lat="40.0711294" lon="-105.2292296">
  <ele>1583.0</ele>
  <time>2026-08-27T17:17:31Z</time>
  <course>323.52</course>
  <speed>1.99</speed>
  <fix>3d</fix>
</trkpt>
<trkpt lat="40.071133" lon="-105.2292328">
  <ele>1583.15</ele>
  <time>2026-08-27T17:17:31Z</time>
  <course>323.82</course>
  <speed>1.9601020381602587</speed>
  <fix>3d</fix>
</trkpt>
<trkpt lat="40.0711294" lon="-105.2292296">
  <ele>1583.0</ele>
  <time>2026-08-27T17:17:31Z</time>
  <course>323.52</course>
  <speed>1.99</speed>
  <fix>3d</fix>
</trkpt>
<trkpt lat="40.0711344" lon="-105.2292342">
  <ele>1583.15</ele>
  <time>2026-08-27T17:17:31Z</time>
  <course>323.54</course>
  <speed>1.966036622242831</speed>
  <fix>3d</fix>
</trkpt>
<trkpt lat="40.0711323" lon="-105.2292325">
  <ele>1583.0</ele>
  <time>2026-08-27T17:17:31Z</time>
  <course>322.91</course>
  <speed>1.99</speed>
  <fix>3d</fix>
</trkpt>
<trkpt lat="40.0711358" lon="-105.2292356">
  <ele>1583.15</ele>
  <time>2026-08-27T17:17:31Z</time>
  <course>323.3</course>
  <speed>1.964001018329675</speed>
  <fix>3d</fix>
</trkpt>
<trkpt lat="40.0711323" lon="-105.2292325">
  <ele>1583.0</ele>
  <time>2026-08-27T17:17:31Z</time>
  <course>322.91</course>
  <speed>1.99</speed>
  <fix>3d</fix>
</trkpt>
<trkpt lat="40.0711372" lon="-105.2292371">
  <ele>1583.15</ele>
  <time>2026-08-27T17:17:31Z</time>
  <course>323.12</course>
  <speed>1.964001018329675</speed>
  <fix>3d</fix>
</trkpt>
<trkpt lat="40.0711352" lon="-105.2292353">
  <ele>1583.0</ele>
  <time>2026-08-27T17:17:31Z</time>
  <course>322.38</course>
  <speed>1.99</speed>
  <fix>3d</fix>
</trkpt>
<trkpt lat="40.0711386" lon="-105.2292385">
  <ele>1583.15</ele>
  <time>2026-08-27T17:17:31Z</time>
  <course>322.99</course>
  <speed>1.962065238466856</speed>
  <fix>3d</fix>
</trkpt>
<trkpt lat="40.0711352" lon="-105.2292353">
  <ele>1583.0</ele>
  <time>2026-08-27T17:17:31Z</time>
  <course>322.38</course>
  <speed>1.99</speed>
  <fix>3d</fix>
</trkpt>
<trkpt lat="40.07114" lon="-105.2292399">
  <ele>1583.15</ele>
  <time>2026-08-27T17:17:31Z</time>
  <course>322.92</course>
  <speed>1.962065238466856</speed>
  <fix>3d</fix>
</trkpt>
<trkpt lat="40.071138" lon="-105.2292382">
  <ele>1583.0</ele>
  <time>2026-08-27T17:17:31Z</time>
  <course>322.05</course>
  <speed>1.99</speed>
  <fix>3d</fix>
</trkpt>
<trkpt lat="40.0711412" lon="-105.2292411">
  <ele>1583.16</ele>
  <time>2026-08-27T17:17:31Z</time>
  <course>322.91</course>
  <speed>1.962065238466856</speed>
  <fix>3d</fix>
</trkpt>
<trkpt lat="40.071138" lon="-105.2292382">
  <ele>1583.0</ele>
  <time>2026-08-27T17:17:31Z</time>
  <course>322.05</course>
  <speed>1.99</speed>
  <fix>3d</fix>
</trkpt>
<trkpt lat="40.0711426" lon="-105.2292425">
  <ele>1583.16</ele>
  <time>2026-08-27T17:17:31Z</time>
  <course>322.91</course>
  <speed>1.962065238466856</speed>
  <fix>3d</fix>
</trkpt>
<trkpt lat="40.0711407" lon="-105.2292411">
  <ele>1583.0</ele>
  <time>2026-08-27T17:17:31Z</time>
  <course>321.93</course>
  <speed>1.99</speed>
  <fix>3d</fix>
</trkpt>
<trkpt lat="40.071144" lon="-105.229244">
  <ele>1583.16</ele>
  <time>2026-08-27T17:17:31Z</time>
  <course>322.91</course>
  <speed>1.962065238466856</speed>
  <fix>3d</fix>
</trkpt>
<trkpt lat="40.0711407" lon="-105.2292411">
  <ele>1583.0</ele>
  <time>2026-08-27T17:17:31Z</time>
  <course>321.93</course>
  <speed>1.99</speed>
  <fix>3d</fix>
</trkpt>
<trkpt lat="40.0711454" lon="-105.2292454">
  <ele>1583.16</ele>
  <time>2026-08-27T17:17:31Z</time>
  <course>322.91</course>
  <speed>1.962065238466856</speed>
  <fix>3d</fix>
</trkpt>
<trkpt lat="40.0711436" lon="-105.229244">
  <ele>1583.0</ele>
  <time>2026-08-27T17:17:31Z</time>
  <course>321.92</course>
  <speed>1.99</speed>
  <fix>3d</fix>
</trkpt>
<trkpt lat="40.0711468" lon="-105.2292469">
  <ele>1583.16</ele>
  <time>2026-08-27T17:17:31Z</time>
  <course>322.91</course>
  <speed>1.9760819821049935</speed>
  <fix>3d</fix>
</trkpt>
<trkpt lat="40.0711436" lon="-105.229244">
  <ele>1583.0</ele>
  <time>2026-08-27T17:17:31Z</time>
  <course>321.92</course>
  <speed>1.99</speed>
  <fix>3d</fix>
</trkpt>
<trkpt lat="40.0711482" lon="-105.2292483">
  <ele>1583.16</ele>
  <time>2026-08-27T17:17:31Z</time>
  <course>322.91</course>
  <speed>1.9760819821049935</speed>
  <fix>3d</fix>
</trkpt>
<trkpt lat="40.0711465" lon="-105.2292469">
  <ele>1583.0</ele>
  <time>2026-08-27T17:17:31Z</time>
  <course>321.92</course>
  <speed>2.0</speed>
  <fix>3d</fix>
</trkpt>
<trkpt lat="40.0711496" lon="-105.2292498">
  <ele>1583.16</ele>
  <time>2026-08-27T17:17:31Z</time>
  <course>322.91</course>
  <speed>1.9760819821049935</speed>
  <fix>3d</fix>
</trkpt>
<trkpt lat="40.0711465" lon="-105.2292469">
  <ele>1583.0</ele>
  <time>2026-08-27T17:17:31Z</time>
  <course>321.92</course>
  <speed>2.0</speed>
  <fix>3d</fix>
</trkpt>
<trkpt lat="40.0711511" lon="-105.2292513">
  <ele>1583.16</ele>
  <time>2026-08-27T17:17:31Z</time>
  <course>322.91</course>
  <speed>1.9760819821049935</speed>
  <fix>3d</fix>
</trkpt>
<trkpt lat="40.0711493" lon="-105.2292498">
  <ele>1583.0</ele>
  <time>2026-08-27T17:17:31Z</time>
  <course>321.92</course>
  <speed>2.0</speed>
  <fix>3d</fix>
</trkpt>
<trkpt lat="40.0711525" lon="-105.2292527">
  <ele>1583.16</ele>
  <time>2026-08-27T17:17:31Z</time>
  <course>322.91</course>
  <speed>1.9760819821049935</speed>
  <fix>3d</fix>
</trkpt>
<trkpt lat="40.0711493" lon="-105.2292498">
  <ele>1583.0</ele>
  <time>2026-08-27T17:17:31Z</time>
  <course>321.92</course>
  <speed>2.0</speed>
  <fix>3d</fix>
</trkpt>
<trkpt lat="40.0711539" lon="-105.2292542">
  <ele>1583.17</ele>
  <time>2026-08-27T17:17:31Z</time>
  <course>322.91</course>
  <speed>1.9760819821049935</speed>
  <fix>3d</fix>
</trkpt>
<trkpt lat="40.0711521" lon="-105.2292527">
  <ele>1583.0</ele>
  <time>2026-08-27T17:17:31Z</time>
  <course>321.92</course>
  <speed>2.0</speed>
  <fix>3d</fix>
</trkpt>
<trkpt lat="40.0711556" lon="-105.229256">
  <ele>1583.17</ele>
  <time>2026-08-27T17:17:31Z</time>
  <course>322.91</course>
  <speed>1.9760819821049935</speed>
  <fix>3d</fix>
</trkpt>
<trkpt lat="40.0711521" lon="-105.2292527">
  <ele>1583.0</ele>
  <time>2026-08-27T17:17:31Z</time>
  <course>321.92</course>
  <speed>2.0</speed>
  <fix>3d</fix>
</trkpt>
<trkpt lat="40.0711571" lon="-105.2292574">
  <ele>1583.17</ele>
  <time>2026-08-27T17:17:31Z</time>
  <course>322.93</course>
  <speed>1.9760819821049935</speed>
  <fix>3d</fix>
</trkpt>
<trkpt lat="40.071155" lon="-105.2292556">
  <ele>1583.0</ele>
  <time>2026-08-27T17:17:31Z</time>
  <course>321.93</course>
  <speed>2.0</speed>
  <fix>3d</fix>
</trkpt>
<trkpt lat="40.0711585" lon="-105.2292589">
  <ele>1583.17</ele>
  <time>2026-08-27T17:17:31Z</time>
  <course>322.95</course>
  <speed>1.9901004999748126</speed>
  <fix>3d</fix>
</trkpt>
<trkpt lat="40.071155" lon="-105.2292556">
  <ele>1583.0</ele>
  <time>2026-08-27T17:17:31Z</time>
  <course>321.93</course>
  <speed>2.0</speed>
  <fix>3d</fix>
</trkpt>
<trkpt lat="40.0711599" lon="-105.2292604">
  <ele>1583.17</ele>
  <time>2026-08-27T17:17:31Z</time>
  <course>322.98</course>
  <speed>1.9901004999748126</speed>
  <fix>3d</fix>
</trkpt>
<trkpt lat="40.0711577" lon="-105.2292585">
  <ele>1583.0</ele>
  <time>2026-08-27T17:17:31Z</time>
  <course>321.96</course>
  <speed>2.0</speed>
  <fix>3d</fix>
</trkpt>
<trkpt lat="40.0711614" lon="-105.2292618">
  <ele>1583.17</ele>
  <time>2026-08-27T17:17:31Z</time>
  <course>323.01</course>
  <speed>1.9901004999748126</speed>
  <fix>3d</fix>
</trkpt>
<trkpt lat="40.0711577" lon="-105.2292585">
  <ele>1583.0</ele>
  <time>2026-08-27T17:17:31Z</time>
  <course>321.96</course>
  <speed>2.0</speed>
  <fix>3d</fix>
</trkpt>
<trkpt lat="40.0711628" lon="-105.2292633">
  <ele>1583.17</ele>
  <time>2026-08-27T17:17:31Z</time>
  <course>323.03</course>
  <speed>1.9901004999748126</speed>
  <fix>3d</fix>
</trkpt>
<trkpt lat="40.0711606" lon="-105.2292614">
  <ele>1583.0</ele>
  <time>2026-08-27T17:17:31Z</time>
  <course>322.01</course>
  <speed>2.0</speed>
  <fix>3d</fix>
</trkpt>
<trkpt lat="40.0711642" lon="-105.2292647">
  <ele>1583.17</ele>
  <time>2026-08-27T17:17:31Z</time>
  <course>323.06</course>
  <speed>1.9840362899906847</speed>
  <fix>3d</fix>
</trkpt>
<trkpt lat="40.0711606" lon="-105.2292614">
  <ele>1583.0</ele>
  <time>2026-08-27T17:17:31Z</time>
  <course>322.01</course>
  <speed>2.0</speed>
  <fix>3d</fix>
</trkpt>
<trkpt lat="40.0711656" lon="-105.2292662">
  <ele>1583.17</ele>
  <time>2026-08-27T17:17:31Z</time>
  <course>323.09</course>
  <speed>1.9840362899906847</speed>
  <fix>3d</fix>
</trkpt>
<trkpt lat="40.0711635" lon="-105.2292643">
  <ele>1583.0</ele>
  <time>2026-08-27T17:17:31Z</time>
  <course>322.06</course>
  <speed>2.0</speed>
  <fix>3d</fix>
</trkpt>
<trkpt lat="40.071167" lon="-105.2292676">
  <ele>1583.17</ele>
  <time>2026-08-27T17:17:31Z</time>
  <course>323.12</course>
  <speed>1.9840362899906847</speed>
  <fix>3d</fix>
</trkpt>
<trkpt lat="40.0711635" lon="-105.2292643">
  <ele>1583.0</ele>
  <time>2026-08-27T17:17:31Z</time>
  <course>322.06</course>
  <speed>2.0</speed>
  <fix>3d</fix>
</trkpt>
<trkpt lat="40.0711684" lon="-105.2292691">
  <ele>1583.17</ele>
  <time>2026-08-27T17:17:31Z</time>
  <course>323.15</course>
  <speed>1.9840362899906847</speed>
  <fix>3d</fix>
</trkpt>
<trkpt lat="40.0711663" lon="-105.2292672">
  <ele>1583.0</ele>
  <time>2026-08-27T17:17:31Z</time>
  <course>322.11</course>
  <speed>2.0</speed>
  <fix>3d</fix>
</trkpt>
<trkpt lat="40.0711699" lon="-105.2292705">
  <ele>1583.17</ele>
  <time>2026-08-27T17:17:31Z</time>
  <course>323.18</course>
  <speed>1.9840362899906847</speed>
  <fix>3d</fix>
</trkpt>
<trkpt lat="40.0711663" lon="-105.2292672">
  <ele>1583.0</ele>
  <time>2026-08-27T17:17:31Z</time>
  <course>322.11</course>
  <speed>2.0</speed>
  <fix>3d</fix>
</trkpt>
<trkpt lat="40.071171" lon="-105.2292717">
  <ele>1583.17</ele>
  <time>2026-08-27T17:17:31Z</time>
  <course>323.2</course>
  <speed>1.9840362899906847</speed>
  <fix>3d</fix>
</trkpt>
<trkpt lat="40.0711692" lon="-105.2292701">
  <ele>1583.0</ele>
  <time>2026-08-27T17:17:31Z</time>
  <course>322.17</course>
  <speed>2.0</speed>
  <fix>3d</fix>
</trkpt>
<trkpt lat="40.0711724" lon="-105.2292731">
  <ele>1583.17</ele>
  <time>2026-08-27T17:17:31Z</time>
  <course>323.23</course>
  <speed>1.9840362899906847</speed>
  <fix>3d</fix>
</trkpt>
<trkpt lat="40.0711692" lon="-105.2292701">
  <ele>1583.0</ele>
  <time>2026-08-27T17:17:31Z</time>
  <course>322.17</course>
  <speed>2.0</speed>
  <fix>3d</fix>
</trkpt>
<trkpt lat="40.0711738" lon="-105.2292745">
  <ele>1583.17</ele>
  <time>2026-08-27T17:17:31Z</time>
  <course>323.25</course>
  <speed>1.9840362899906847</speed>
  <fix>3d</fix>
</trkpt>
<trkpt lat="40.071172" lon="-105.229273">
  <ele>1583.0</ele>
  <time>2026-08-27T17:17:31Z</time>
  <course>322.22</course>
  <speed>2.0</speed>
  <fix>3d</fix>
</trkpt>
<trkpt lat="40.0711753" lon="-105.229276">
  <ele>1583.17</ele>
  <time>2026-08-27T17:17:31Z</time>
  <course>323.28</course>
  <speed>1.9840362899906847</speed>
  <fix>3d</fix>
</trkpt>
<trkpt lat="40.071172" lon="-105.229273">
  <ele>1583.0</ele>
  <time>2026-08-27T17:17:31Z</time>
  <course>322.22</course>
  <speed>2.0</speed>
  <fix>3d</fix>
</trkpt>
<trkpt lat="40.0711767" lon="-105.2292774">
  <ele>1583.16</ele>
  <time>2026-08-27T17:17:31Z</time>
  <course>323.31</course>
  <speed>1.9840362899906847</speed>
  <fix>3d</fix>
</trkpt>
<trkpt lat="40.0711749" lon="-105.2292758">
  <ele>1583.0</ele>
  <time>2026-08-27T17:17:31Z</time>
  <course>322.28</course>
  <speed>2.0</speed>
  <fix>3d</fix>
</trkpt>
<trkpt lat="40.0711781" lon="-105.2292789">
  <ele>1583.16</ele>
  <time>2026-08-27T17:17:31Z</time>
  <course>323.34</course>
  <speed>1.9840362899906847</speed>
  <fix>3d</fix>
</trkpt>
<trkpt lat="40.0711749" lon="-105.2292758">
  <ele>1583.0</ele>
  <time>2026-08-27T17:17:31Z</time>
  <course>322.28</course>
  <speed>2.0</speed>
  <fix>3d</fix>
</trkpt>
<trkpt lat="40.0711796" lon="-105.2292803">
  <ele>1583.15</ele>
  <time>2026-08-27T17:17:31Z</time>
  <course>323.36</course>
  <speed>1.9840362899906847</speed>
  <fix>3d</fix>
</trkpt>
<trkpt lat="40.0711777" lon="-105.2292787">
  <ele>1583.0</ele>
  <time>2026-08-27T17:17:31Z</time>
  <course>322.33</course>
  <speed>2.0</speed>
  <fix>3d</fix>
</trkpt>
<trkpt lat="40.071181" lon="-105.2292818">
  <ele>1583.15</ele>
  <time>2026-08-27T17:17:31Z</time>
  <course>323.39</course>
  <speed>1.9840362899906847</speed>
  <fix>3d</fix>
</trkpt>
<trkpt lat="40.0711777" lon="-105.2292787">
  <ele>1583.0</ele>
  <time>2026-08-27T17:17:31Z</time>
  <course>322.33</course>
  <speed>2.0</speed>
  <fix>3d</fix>
</trkpt>
<trkpt lat="40.0711824" lon="-105.2292832">
  <ele>1583.15</ele>
  <time>2026-08-27T17:17:31Z</time>
  <course>323.42</course>
  <speed>1.9920090361240836</speed>
  <fix>3d</fix>
</trkpt>
<trkpt lat="40.0711806" lon="-105.2292816">
  <ele>1583.0</ele>
  <time>2026-08-27T17:17:31Z</time>
  <course>322.39</course>
  <speed>2.0</speed>
  <fix>3d</fix>
</trkpt>
<trkpt lat="40.0711842" lon="-105.229285">
  <ele>1583.14</ele>
  <time>2026-08-27T17:17:31Z</time>
  <course>323.45</course>
  <speed>1.9920090361240836</speed>
  <fix>3d</fix>
</trkpt>
<trkpt lat="40.0711806" lon="-105.2292816">
  <ele>1583.0</ele>
  <time>2026-08-27T17:17:31Z</time>
  <course>322.39</course>
  <speed>2.0</speed>
  <fix>3d</fix>
</trkpt>
<trkpt lat="40.0711856" lon="-105.2292864">
  <ele>1583.14</ele>
  <time>2026-08-27T17:17:31Z</time>
  <course>323.48</course>
  <speed>1.9920090361240836</speed>
  <fix>3d</fix>
</trkpt>
<trkpt lat="40.0711834" lon="-105.2292845">
  <ele>1583.0</ele>
  <time>2026-08-27T17:17:31Z</time>
  <course>322.44</course>
  <speed>2.0</speed>
  <fix>3d</fix>
</trkpt>
<trkpt lat="40.071187" lon="-105.2292879">
  <ele>1583.14</ele>
  <time>2026-08-27T17:17:31Z</time>
  <course>323.51</course>
  <speed>1.9920090361240836</speed>
  <fix>3d</fix>
</trkpt>
<trkpt lat="40.0711834" lon="-105.2292845">
  <ele>1583.0</ele>
  <time>2026-08-27T17:17:31Z</time>
  <course>322.44</course>
  <speed>2.0</speed>
  <fix>3d</fix>
</trkpt>
<trkpt lat="40.0711885" lon="-105.2292893">
  <ele>1583.14</ele>
  <time>2026-08-27T17:17:31Z</time>
  <course>323.53</course>
  <speed>1.98600100704909</speed>
  <fix>3d</fix>
</trkpt>
<trkpt lat="40.0711863" lon="-105.2292874">
  <ele>1583.0</ele>
  <time>2026-08-27T17:17:31Z</time>
  <course>322.49</course>
  <speed>2.0</speed>
  <fix>3d</fix>
</trkpt>
<trkpt lat="40.0711899" lon="-105.2292907">
  <ele>1583.14</ele>
  <time>2026-08-27T17:17:31Z</time>
  <course>323.55</course>
  <speed>1.98600100704909</speed>
  <fix>3d</fix>
</trkpt>
<trkpt lat="40.0711863" lon="-105.2292874">
  <ele>1583.0</ele>
  <time>2026-08-27T17:17:31Z</time>
  <course>322.49</course>
  <speed>2.0</speed>
  <fix>3d</fix>
</trkpt>
<trkpt lat="40.0711913" lon="-105.2292922">
  <ele>1583.14</ele>
  <time>2026-08-27T17:17:31Z</time>
  <course>323.56</course>
  <speed>1.98600100704909</speed>
  <fix>3d</fix>
</trkpt>
<trkpt lat="40.0711892" lon="-105.2292902">
  <ele>1583.0</ele>
  <time>2026-08-27T17:17:31Z</time>
  <course>322.53</course>
  <speed>2.0</speed>
  <fix>3d</fix>
</trkpt>
<trkpt lat="40.0711928" lon="-105.2292936">
  <ele>1583.14</ele>
  <time>2026-08-27T17:17:31Z</time>
  <course>323.58</course>
  <speed>1.98600100704909</speed>
  <fix>3d</fix>
</trkpt>
<trkpt lat="40.0711892" lon="-105.2292902">
  <ele>1583.0</ele>
  <time>2026-08-27T17:17:31Z</time>
  <course>322.53</course>
  <speed>2.0</speed>
  <fix>3d</fix>
</trkpt>
<trkpt lat="40.0711942" lon="-105.229295">
  <ele>1583.14</ele>
  <time>2026-08-27T17:17:31Z</time>
  <course>323.6</course>
  <speed>1.98600100704909</speed>
  <fix>3d</fix>
</trkpt>
<trkpt lat="40.071192" lon="-105.2292931">
  <ele>1583.0</ele>
  <time>2026-08-27T17:17:31Z</time>
  <course>322.57</course>
  <speed>2.0</speed>
  <fix>3d</fix>
</trkpt>
<trkpt lat="40.0711956" lon="-105.2292964">
  <ele>1583.14</ele>
  <time>2026-08-27T17:17:31Z</time>
  <course>323.6</course>
  <speed>1.98600100704909</speed>
  <fix>3d</fix>
</trkpt>
<trkpt lat="40.071192" lon="-105.2292931">
  <ele>1583.0</ele>
  <time>2026-08-27T17:17:31Z</time>
  <course>322.57</course>
  <speed>2.0</speed>
  <fix>3d</fix>
</trkpt>
<trkpt lat="40.071197" lon="-105.2292979">
  <ele>1583.14</ele>
  <time>2026-08-27T17:17:31Z</time>
  <course>323.62</course>
  <speed>1.98600100704909</speed>
  <fix>3d</fix>
</trkpt>
<trkpt lat="40.0711948" lon="-105.2292959">
  <ele>1583.0</ele>
  <time>2026-08-27T17:17:31Z</time>
  <course>322.6</course>
  <speed>2.0</speed>
  <fix>3d</fix>
</trkpt>
<trkpt lat="40.0711984" lon="-105.2292993">
  <ele>1583.14</ele>
  <time>2026-08-27T17:17:31Z</time>
  <course>323.63</course>
  <speed>1.98600100704909</speed>
  <fix>3d</fix>
</trkpt>
<trkpt lat="40.0711948" lon="-105.2292959">
  <ele>1583.0</ele>
  <time>2026-08-27T17:17:31Z</time>
  <course>322.6</course>
  <speed>2.0</speed>
  <fix>3d</fix>
</trkpt>
<trkpt lat="40.0711996" lon="-105.2293004">
  <ele>1583.14</ele>
  <time>2026-08-27T17:17:31Z</time>
  <course>323.63</course>
  <speed>1.9780040444852482</speed>
  <fix>3d</fix>
</trkpt>
<trkpt lat="40.0711977" lon="-105.2292988">
  <ele>1583.0</ele>
  <time>2026-08-27T17:17:31Z</time>
  <course>322.61</course>
  <speed>2.0</speed>
  <fix>3d</fix>
</trkpt>
<trkpt lat="40.071201" lon="-105.2293018">
  <ele>1583.14</ele>
  <time>2026-08-27T17:17:31Z</time>
  <course>323.66</course>
  <speed>1.9780040444852482</speed>
  <fix>3d</fix>
</trkpt>
<trkpt lat="40.0711977" lon="-105.2292988">
  <ele>1583.0</ele>
  <time>2026-08-27T17:17:31Z</time>
  <course>322.61</course>
  <speed>2.0</speed>
  <fix>3d</fix>
</trkpt>
<trkpt lat="40.0712024" lon="-105.2293033">
  <ele>1583.14</ele>
  <time>2026-08-27T17:17:31Z</time>
  <course>323.66</course>
  <speed>1.9780040444852482</speed>
  <fix>3d</fix>
</trkpt>
<trkpt lat="40.0712006" lon="-105.2293016">
  <ele>1583.0</ele>
  <time>2026-08-27T17:17:31Z</time>
  <course>322.63</course>
  <speed>2.0</speed>
  <fix>3d</fix>
</trkpt>
<trkpt lat="40.0712038" lon="-105.2293047">
  <ele>1583.14</ele>
  <time>2026-08-27T17:17:31Z</time>
  <course>323.67</course>
  <speed>1.9780040444852482</speed>
  <fix>3d</fix>
</trkpt>
<trkpt lat="40.0712006" lon="-105.2293016">
  <ele>1583.0</ele>
  <time>2026-08-27T17:17:31Z</time>
  <course>322.63</course>
  <speed>2.0</speed>
  <fix>3d</fix>
</trkpt>
<trkpt lat="40.0712053" lon="-105.2293061">
  <ele>1583.14</ele>
  <time>2026-08-27T17:17:31Z</time>
  <course>323.67</course>
  <speed>1.9780040444852482</speed>
  <fix>3d</fix>
</trkpt>
<trkpt lat="40.0712034" lon="-105.2293045">
  <ele>1583.0</ele>
  <time>2026-08-27T17:17:31Z</time>
  <course>322.65</course>
  <speed>2.0</speed>
  <fix>3d</fix>
</trkpt>
<trkpt lat="40.0712067" lon="-105.2293075">
  <ele>1583.14</ele>
  <time>2026-08-27T17:17:31Z</time>
  <course>323.69</course>
  <speed>1.9780040444852482</speed>
  <fix>3d</fix>
</trkpt>
<trkpt lat="40.0712034" lon="-105.2293045">
  <ele>1583.0</ele>
  <time>2026-08-27T17:17:31Z</time>
  <course>322.65</course>
  <speed>2.0</speed>
  <fix>3d</fix>
</trkpt>
<trkpt lat="40.0712081" lon="-105.229309">
  <ele>1583.14</ele>
  <time>2026-08-27T17:17:31Z</time>
  <course>323.7</course>
  <speed>1.9780040444852482</speed>
  <fix>3d</fix>
</trkpt>
<trkpt lat="40.0712063" lon="-105.2293074">
  <ele>1583.0</ele>
  <time>2026-08-27T17:17:31Z</time>
  <course>322.67</course>
  <speed>2.0</speed>
  <fix>3d</fix>
</trkpt>
<trkpt lat="40.0712096" lon="-105.2293104">
  <ele>1583.14</ele>
  <time>2026-08-27T17:17:31Z</time>
  <course>323.7</course>
  <speed>1.9780040444852482</speed>
  <fix>3d</fix>
</trkpt>
<trkpt lat="40.0712063" lon="-105.2293074">
  <ele>1583.0</ele>
  <time>2026-08-27T17:17:31Z</time>
  <course>322.67</course>
  <speed>2.0</speed>
  <fix>3d</fix>
</trkpt>
<trkpt lat="40.071211" lon="-105.2293118">
  <ele>1583.14</ele>
  <time>2026-08-27T17:17:31Z</time>
  <course>323.71</course>
  <speed>1.9780040444852482</speed>
  <fix>3d</fix>
</trkpt>
<trkpt lat="40.0712092" lon="-105.2293102">
  <ele>1583.0</ele>
  <time>2026-08-27T17:17:31Z</time>
  <course>322.69</course>
  <speed>2.0</speed>
  <fix>3d</fix>
</trkpt>
<trkpt lat="40.0712125" lon="-105.2293133">
  <ele>1583.14</ele>
  <time>2026-08-27T17:17:31Z</time>
  <course>323.72</course>
  <speed>1.98600100704909</speed>
  <fix>3d</fix>
</trkpt>
<trkpt lat="40.0712092" lon="-105.2293102">
  <ele>1583.0</ele>
  <time>2026-08-27T17:17:31Z</time>
  <course>322.69</course>
  <speed>2.0</speed>
  <fix>3d</fix>
</trkpt>
<trkpt lat="40.0712142" lon="-105.229315">
  <ele>1583.14</ele>
  <time>2026-08-27T17:17:31Z</time>
  <course>323.73</course>
  <speed>1.98600100704909</speed>
  <fix>3d</fix>
</trkpt>
<trkpt lat="40.071212" lon="-105.2293131">
  <ele>1583.0</ele>
  <time>2026-08-27T17:17:31Z</time>
  <course>322.7</course>
  <speed>2.0</speed>
  <fix>3d</fix>
</trkpt>
<trkpt lat="40.0712156" lon="-105.2293164">
  <ele>1583.14</ele>
  <time>2026-08-27T17:17:31Z</time>
  <course>323.73</course>
  <speed>1.98600100704909</speed>
  <fix>3d</fix>
</trkpt>
<trkpt lat="40.071212" lon="-105.2293131">
  <ele>1583.0</ele>
  <time>2026-08-27T17:17:31Z</time>
  <course>322.7</course>
  <speed>2.0</speed>
  <fix>3d</fix>
</trkpt>
<trkpt lat="40.0712171" lon="-105.2293179">
  <ele>1583.14</ele>
  <time>2026-08-27T17:17:31Z</time>
  <course>323.74</course>
  <speed>1.98600100704909</speed>
  <fix>3d</fix>
</trkpt>
<trkpt lat="40.0712149" lon="-105.2293159">
  <ele>1583.0</ele>
  <time>2026-08-27T17:17:31Z</time>
  <course>322.71</course>
  <speed>2.0</speed>
  <fix>3d</fix>
</trkpt>
<trkpt lat="40.0712185" lon="-105.2293193">
  <ele>1583.14</ele>
  <time>2026-08-27T17:17:31Z</time>
  <course>323.74</course>
  <speed>1.98600100704909</speed>
  <fix>3d</fix>
</trkpt>
<trkpt lat="40.0712149" lon="-105.2293159">
  <ele>1583.0</ele>
  <time>2026-08-27T17:17:31Z</time>
  <course>322.71</course>
  <speed>2.0</speed>
  <fix>3d</fix>
</trkpt>
<trkpt lat="40.0712199" lon="-105.2293207">
  <ele>1583.14</ele>
  <time>2026-08-27T17:17:31Z</time>
  <course>323.75</course>
  <speed>1.98600100704909</speed>
  <fix>3d</fix>
</trkpt>
<trkpt lat="40.0712178" lon="-105.2293187">
  <ele>1583.0</ele>
  <time>2026-08-27T17:17:31Z</time>
  <course>322.72</course>
  <speed>2.0</speed>
  <fix>3d</fix>
</trkpt>
<trkpt lat="40.0712213" lon="-105.2293221">
  <ele>1583.15</ele>
  <time>2026-08-27T17:17:31Z</time>
  <course>323.75</course>
  <speed>1.98600100704909</speed>
  <fix>3d</fix>
</trkpt>
<trkpt lat="40.0712178" lon="-105.2293187">
  <ele>1583.0</ele>
  <time>2026-08-27T17:17:31Z</time>
  <course>322.72</course>
  <speed>2.0</speed>
  <fix>3d</fix>
</trkpt>
<trkpt lat="40.0712228" lon="-105.2293235">
  <ele>1583.15</ele>
  <time>2026-08-27T17:17:31Z</time>
  <course>323.75</course>
  <speed>1.98600100704909</speed>
  <fix>3d</fix>
</trkpt>
<trkpt lat="40.0712206" lon="-105.2293216">
  <ele>1583.0</ele>
  <time>2026-08-27T17:17:31Z</time>
  <course>322.72</course>
  <speed>2.0</speed>
  <fix>3d</fix>
</trkpt>
<trkpt lat="40.0712242" lon="-105.2293249">
  <ele>1583.15</ele>
  <time>2026-08-27T17:17:31Z</time>
  <course>323.75</course>
  <speed>1.972004056790959</speed>
  <fix>3d</fix>
</trkpt>
<trkpt lat="40.0712206" lon="-105.2293216">
  <ele>1583.0</ele>
  <time>2026-08-27T17:17:31Z</time>
  <course>322.72</course>
  <speed>2.0</speed>
  <fix>3d</fix>
</trkpt>
<trkpt lat="40.0712256" lon="-105.2293263">
  <ele>1583.15</ele>
  <time>2026-08-27T17:17:31Z</time>
  <course>323.75</course>
  <speed>1.972004056790959</speed>
  <fix>3d</fix>
</trkpt>
<trkpt lat="40.0712235" lon="-105.2293244">
  <ele>1583.0</ele>
  <time>2026-08-27T17:17:31Z</time>
  <course>322.72</course>
  <speed>2.0</speed>
  <fix>3d</fix>
</trkpt>
<trkpt lat="40.071227" lon="-105.2293277">
  <ele>1583.15</ele>
  <time>2026-08-27T17:17:31Z</time>
  <course>323.75</course>
  <speed>1.972004056790959</speed>
  <fix>3d</fix>
</trkpt>
<trkpt lat="40.0712235" lon="-105.2293244">
  <ele>1583.0</ele>
  <time>2026-08-27T17:17:31Z</time>
  <course>322.72</course>
  <speed>2.0</speed>
  <fix>3d</fix>
</trkpt>
<trkpt lat="40.0712284" lon="-105.2293291">
  <ele>1583.16</ele>
  <time>2026-08-27T17:17:31Z</time>
  <course>323.75</course>
  <speed>1.972004056790959</speed>
  <fix>3d</fix>
</trkpt>
<trkpt lat="40.0712264" lon="-105.2293273">
  <ele>1583.0</ele>
  <time>2026-08-27T17:17:31Z</time>
  <course>322.72</course>
  <speed>2.0</speed>
  <fix>3d</fix>
</trkpt>
<trkpt lat="40.0712296" lon="-105.2293303">
  <ele>1583.16</ele>
  <time>2026-08-27T17:17:31Z</time>
  <course>323.75</course>
  <speed>1.972004056790959</speed>
  <fix>3d</fix>
</trkpt>
<trkpt lat="40.0712264" lon="-105.2293273">
  <ele>1583.0</ele>
  <time>2026-08-27T17:17:31Z</time>
  <course>322.72</course>
  <speed>2.0</speed>
  <fix>3d</fix>
</trkpt>
<trkpt lat="40.071231" lon="-105.2293317">
  <ele>1583.16</ele>
  <time>2026-08-27T17:17:31Z</time>
  <course>323.75</course>
  <speed>1.972004056790959</speed>
  <fix>3d</fix>
</trkpt>
<trkpt lat="40.0712292" lon="-105.2293301">
  <ele>1583.0</ele>
  <time>2026-08-27T17:17:31Z</time>
  <course>322.72</course>
  <speed>2.0</speed>
  <fix>3d</fix>
</trkpt>
<trkpt lat="40.0712324" lon="-105.2293331">
  <ele>1583.16</ele>
  <time>2026-08-27T17:17:31Z</time>
  <course>323.75</course>
  <speed>1.972004056790959</speed>
  <fix>3d</fix>
</trkpt>
<trkpt lat="40.0712292" lon="-105.2293301">
  <ele>1583.0</ele>
  <time>2026-08-27T17:17:31Z</time>
  <course>322.72</course>
  <speed>2.0</speed>
  <fix>3d</fix>
</trkpt>
<trkpt lat="40.0712338" lon="-105.2293345">
  <ele>1583.16</ele>
  <time>2026-08-27T17:17:31Z</time>
  <course>323.75</course>
  <speed>1.972004056790959</speed>
  <fix>3d</fix>
</trkpt>
<trkpt lat="40.0712321" lon="-105.229333">
  <ele>1583.0</ele>
  <time>2026-08-27T17:17:31Z</time>
  <course>322.72</course>
  <speed>2.0</speed>
  <fix>3d</fix>
</trkpt>
<trkpt lat="40.0712353" lon="-105.2293359">
  <ele>1583.16</ele>
  <time>2026-08-27T17:17:31Z</time>
  <course>323.75</course>
  <speed>1.972004056790959</speed>
  <fix>3d</fix>
</trkpt>
<trkpt lat="40.0712321" lon="-105.229333">
  <ele>1583.0</ele>
  <time>2026-08-27T17:17:31Z</time>
  <course>322.72</course>
  <speed>2.0</speed>
  <fix>3d</fix>
</trkpt>
<trkpt lat="40.0712367" lon="-105.2293374">
  <ele>1583.16</ele>
  <time>2026-08-27T17:17:31Z</time>
  <course>323.75</course>
  <speed>1.972004056790959</speed>
  <fix>3d</fix>
</trkpt>
<trkpt lat="40.0712349" lon="-105.2293359">
  <ele>1583.0</ele>
  <time>2026-08-27T17:17:31Z</time>
  <course>322.72</course>
  <speed>1.99</speed>
  <fix>3d</fix>
</trkpt>
<trkpt lat="40.0712381" lon="-105.2293388">
  <ele>1583.16</ele>
  <time>2026-08-27T17:17:31Z</time>
  <course>323.75</course>
  <speed>1.972004056790959</speed>
  <fix>3d</fix>
</trkpt>
<trkpt lat="40.0712349" lon="-105.2293359">
  <ele>1583.0</ele>
  <time>2026-08-27T17:17:31Z</time>
  <course>322.72</course>
  <speed>1.99</speed>
  <fix>3d</fix>
</trkpt>
<trkpt lat="40.0712396" lon="-105.2293402">
  <ele>1583.16</ele>
  <time>2026-08-27T17:17:31Z</time>
  <course>323.75</course>
  <speed>1.972004056790959</speed>
  <fix>3d</fix>
</trkpt>
<trkpt lat="40.0712378" lon="-105.2293387">
  <ele>1583.0</ele>
  <time>2026-08-27T17:17:31Z</time>
  <course>322.72</course>
  <speed>1.99</speed>
  <fix>3d</fix>
</trkpt>
<trkpt lat="40.071241" lon="-105.2293417">
  <ele>1583.16</ele>
  <time>2026-08-27T17:17:31Z</time>
  <course>323.76</course>
  <speed>1.972004056790959</speed>
  <fix>3d</fix>
</trkpt>
<trkpt lat="40.0712378" lon="-105.2293387">
  <ele>1583.0</ele>
  <time>2026-08-27T17:17:31Z</time>
  <course>322.72</course>
  <speed>1.99</speed>
  <fix>3d</fix>
</trkpt>
<trkpt lat="40.0712425" lon="-105.2293431">
  <ele>1583.16</ele>
  <time>2026-08-27T17:17:31Z</time>
  <course>323.76</course>
  <speed>1.972004056790959</speed>
  <fix>3d</fix>
</trkpt>
<trkpt lat="40.0712407" lon="-105.2293415">
  <ele>1583.0</ele>
  <time>2026-08-27T17:17:31Z</time>
  <course>322.72</course>
  <speed>1.99</speed>
  <fix>3d</fix>
</trkpt>
<trkpt lat="40.0712442" lon="-105.2293448">
  <ele>1583.16</ele>
  <time>2026-08-27T17:17:31Z</time>
  <course>323.77</course>
  <speed>1.972004056790959</speed>
  <fix>3d</fix>
</trkpt>
<trkpt lat="40.0712407" lon="-105.2293415">
  <ele>1583.0</ele>
  <time>2026-08-27T17:17:31Z</time>
  <course>322.72</course>
  <speed>1.99</speed>
  <fix>3d</fix>
</trkpt>
<trkpt lat="40.0712456" lon="-105.2293463">
  <ele>1583.15</ele>
  <time>2026-08-27T17:17:31Z</time>
  <course>323.83</course>
  <speed>1.9800252523642217</speed>
  <fix>3d</fix>
</trkpt>
<trkpt lat="40.0712435" lon="-105.2293444">
  <ele>1583.0</ele>
  <time>2026-08-27T17:17:31Z</time>
  <course>322.75</course>
  <speed>1.99</speed>
  <fix>3d</fix>
</trkpt>
<trkpt lat="40.0712471" lon="-105.2293477">
  <ele>1583.15</ele>
  <time>2026-08-27T17:17:31Z</time>
  <course>323.94</course>
  <speed>1.9800252523642217</speed>
  <fix>3d</fix>
</trkpt>
<trkpt lat="40.0712435" lon="-105.2293444">
  <ele>1583.0</ele>
  <time>2026-08-27T17:17:31Z</time>
  <course>322.75</course>
  <speed>1.99</speed>
  <fix>3d</fix>
</trkpt>
<trkpt lat="40.0712485" lon="-105.2293491">
  <ele>1583.15</ele>
  <time>2026-08-27T17:17:31Z</time>
  <course>324.11</course>
  <speed>1.9800252523642217</speed>
  <fix>3d</fix>
</trkpt>
<trkpt lat="40.0712463" lon="-105.2293472">
  <ele>1583.0</ele>
  <time>2026-08-27T17:17:31Z</time>
  <course>322.91</course>
  <speed>1.99</speed>
  <fix>3d</fix>
</trkpt>
<trkpt lat="40.07125" lon="-105.2293505">
  <ele>1583.14</ele>
  <time>2026-08-27T17:17:31Z</time>
  <course>324.33</course>
  <speed>1.982145302443794</speed>
  <fix>3d</fix>
</trkpt>
<trkpt lat="40.0712463" lon="-105.2293472">
  <ele>1583.0</ele>
  <time>2026-08-27T17:17:31Z</time>
  <course>322.91</course>
  <speed>1.99</speed>
  <fix>3d</fix>
</trkpt>
<trkpt lat="40.0712514" lon="-105.2293519">
  <ele>1583.14</ele>
  <time>2026-08-27T17:17:31Z</time>
  <course>324.62</course>
  <speed>1.9762590923257</speed>
  <fix>3d</fix>
</trkpt>
<trkpt lat="40.0712492" lon="-105.22935">
  <ele>1583.0</ele>
  <time>2026-08-27T17:17:31Z</time>
  <course>323.28</course>
  <speed>1.99</speed>
  <fix>3d</fix>
</trkpt>
<trkpt lat="40.0712528" lon="-105.2293533">
  <ele>1583.14</ele>
  <time>2026-08-27T17:17:31Z</time>
  <course>324.96</course>
  <speed>1.978534811419804</speed>
  <fix>3d</fix>
</trkpt>
<trkpt lat="40.0712492" lon="-105.22935">
  <ele>1583.0</ele>
  <time>2026-08-27T17:17:31Z</time>
  <course>323.28</course>
  <speed>1.99</speed>
  <fix>3d</fix>
</trkpt>
<trkpt lat="40.0712543" lon="-105.2293547">
  <ele>1583.14</ele>
  <time>2026-08-27T17:17:31Z</time>
  <course>325.31</course>
  <speed>1.9727392123643712</speed>
  <fix>3d</fix>
</trkpt>
<trkpt lat="40.0712521" lon="-105.2293528">
  <ele>1583.0</ele>
  <time>2026-08-27T17:17:31Z</time>
  <course>323.87</course>
  <speed>1.99</speed>
  <fix>3d</fix>
</trkpt>
<trkpt lat="40.0712557" lon="-105.229356">
  <ele>1583.14</ele>
  <time>2026-08-27T17:17:31Z</time>
  <course>325.65</course>
  <speed>1.9751708786836648</speed>
  <fix>3d</fix>
</trkpt>
<trkpt lat="40.0712521" lon="-105.2293528">
  <ele>1583.0</ele>
  <time>2026-08-27T17:17:31Z</time>
  <course>323.87</course>
  <speed>1.99</speed>
  <fix>3d</fix>
</trkpt>
<trkpt lat="40.0712572" lon="-105.2293574">
  <ele>1583.14</ele>
  <time>2026-08-27T17:17:31Z</time>
  <course>325.93</course>
  <speed>1.969466932954194</speed>
  <fix>3d</fix>
</trkpt>
<trkpt lat="40.071255" lon="-105.2293555">
  <ele>1583.0</ele>
  <time>2026-08-27T17:17:31Z</time>
  <course>324.53</course>
  <speed>1.99</speed>
  <fix>3d</fix>
</trkpt>
<trkpt lat="40.0712586" lon="-105.2293587">
  <ele>1583.14</ele>
  <time>2026-08-27T17:17:31Z</time>
  <course>326.18</course>
  <speed>1.9637973418863772</speed>
  <fix>3d</fix>
</trkpt>
<trkpt lat="40.071255" lon="-105.2293555">
  <ele>1583.0</ele>
  <time>2026-08-27T17:17:31Z</time>
  <course>324.53</course>
  <speed>1.99</speed>
  <fix>3d</fix>
</trkpt>
<trkpt lat="40.0712598" lon="-105.2293597">
  <ele>1583.14</ele>
  <time>2026-08-27T17:17:31Z</time>
  <course>326.34</course>
  <speed>1.9664434901618708</speed>
  <fix>3d</fix>
</trkpt>
<trkpt lat="40.071258" lon="-105.2293583">
  <ele>1583.0</ele>
  <time>2026-08-27T17:17:31Z</time>
  <course>325.07</course>
  <speed>1.99</speed>
  <fix>3d</fix>
</trkpt>
<trkpt lat="40.0712613" lon="-105.2293611">
  <ele>1583.13</ele>
  <time>2026-08-27T17:17:31Z</time>
  <course>326.5</course>
  <speed>1.9664434901618708</speed>
  <fix>3d</fix>
</trkpt>
<trkpt lat="40.071258" lon="-105.2293583">
  <ele>1583.0</ele>
  <time>2026-08-27T17:17:31Z</time>
  <course>325.07</course>
  <speed>1.99</speed>
  <fix>3d</fix>
</trkpt>
<trkpt lat="40.0712627" lon="-105.2293624">
  <ele>1583.13</ele>
  <time>2026-08-27T17:17:31Z</time>
  <course>326.62</course>
  <speed>1.9608671551127577</speed>
  <fix>3d</fix>
</trkpt>
<trkpt lat="40.0712609" lon="-105.2293609">
  <ele>1583.0</ele>
  <time>2026-08-27T17:17:31Z</time>
  <course>325.44</course>
  <speed>1.98</speed>
  <fix>3d</fix>
</trkpt>
<trkpt lat="40.0712642" lon="-105.2293637">
  <ele>1583.13</ele>
  <time>2026-08-27T17:17:31Z</time>
  <course>326.7</course>
  <speed>1.9608671551127577</speed>
  <fix>3d</fix>
</trkpt>
<trkpt lat="40.0712609" lon="-105.2293609">
  <ele>1583.0</ele>
  <time>2026-08-27T17:17:31Z</time>
  <course>325.44</course>
  <speed>1.98</speed>
  <fix>3d</fix>
</trkpt>
<trkpt lat="40.0712657" lon="-105.229365">
  <ele>1583.13</ele>
  <time>2026-08-27T17:17:31Z</time>
  <course>326.78</course>
  <speed>1.9608671551127577</speed>
  <fix>3d</fix>
</trkpt>
<trkpt lat="40.0712639" lon="-105.2293636">
  <ele>1583.0</ele>
  <time>2026-08-27T17:17:31Z</time>
  <course>325.66</course>
  <speed>1.98</speed>
  <fix>3d</fix>
</trkpt>
<trkpt lat="40.0712672" lon="-105.2293663">
  <ele>1583.13</ele>
  <time>2026-08-27T17:17:31Z</time>
  <course>326.85</course>
  <speed>1.955326059765992</speed>
  <fix>3d</fix>
</trkpt>
<trkpt lat="40.0712639" lon="-105.2293636">
  <ele>1583.0</ele>
  <time>2026-08-27T17:17:31Z</time>
  <course>325.66</course>
  <speed>1.98</speed>
  <fix>3d</fix>
</trkpt>
<trkpt lat="40.0712686" lon="-105.2293676">
  <ele>1583.13</ele>
  <time>2026-08-27T17:17:31Z</time>
  <course>326.91</course>
  <speed>1.955326059765992</speed>
  <fix>3d</fix>
</trkpt>
<trkpt lat="40.0712668" lon="-105.2293661">
  <ele>1583.0</ele>
  <time>2026-08-27T17:17:31Z</time>
  <course>325.8</course>
  <speed>1.97</speed>
  <fix>3d</fix>
</trkpt>
<trkpt lat="40.0712701" lon="-105.2293689">
  <ele>1583.13</ele>
  <time>2026-08-27T17:17:31Z</time>
  <course>326.96</course>
  <speed>1.955326059765992</speed>
  <fix>3d</fix>
</trkpt>
<trkpt lat="40.0712668" lon="-105.2293661">
  <ele>1583.0</ele>
  <time>2026-08-27T17:17:31Z</time>
  <course>325.8</course>
  <speed>1.97</speed>
  <fix>3d</fix>
</trkpt>
<trkpt lat="40.0712716" lon="-105.2293702">
  <ele>1583.13</ele>
  <time>2026-08-27T17:17:31Z</time>
  <course>327.02</course>
  <speed>1.94982050455933</speed>
  <fix>3d</fix>
</trkpt>
<trkpt lat="40.0712697" lon="-105.2293688">
  <ele>1583.0</ele>
  <time>2026-08-27T17:17:31Z</time>
  <course>325.92</course>
  <speed>1.97</speed>
  <fix>3d</fix>
</trkpt>
<trkpt lat="40.0712731" lon="-105.2293715">
  <ele>1583.13</ele>
  <time>2026-08-27T17:17:31Z</time>
  <course>327.07</course>
  <speed>1.94982050455933</speed>
  <fix>3d</fix>
</trkpt>
<trkpt lat="40.0712697" lon="-105.2293688">
  <ele>1583.0</ele>
  <time>2026-08-27T17:17:31Z</time>
  <course>325.92</course>
  <speed>1.97</speed>
  <fix>3d</fix>
</trkpt>
<trkpt lat="40.0712749" lon="-105.2293731">
  <ele>1583.13</ele>
  <time>2026-08-27T17:17:31Z</time>
  <course>327.14</course>
  <speed>1.94982050455933</speed>
  <fix>3d</fix>
</trkpt>
<trkpt lat="40.0712726" lon="-105.2293713">
  <ele>1583.0</ele>
  <time>2026-08-27T17:17:31Z</time>
  <course>326.03</course>
  <speed>1.97</speed>
  <fix>3d</fix>
</trkpt>
<trkpt lat="40.0712763" lon="-105.2293744">
  <ele>1583.14</ele>
  <time>2026-08-27T17:17:31Z</time>
  <course>327.17</course>
  <speed>1.941468516355596</speed>
  <fix>3d</fix>
</trkpt>
<trkpt lat="40.0712726" lon="-105.2293713">
  <ele>1583.0</ele>
  <time>2026-08-27T17:17:31Z</time>
  <course>326.03</course>
  <speed>1.97</speed>
  <fix>3d</fix>
</trkpt>
<trkpt lat="40.0712778" lon="-105.2293757">
  <ele>1583.14</ele>
  <time>2026-08-27T17:17:31Z</time>
  <course>327.2</course>
  <speed>1.941468516355596</speed>
  <fix>3d</fix>
</trkpt>
<trkpt lat="40.0712756" lon="-105.229374">
  <ele>1583.0</ele>
  <time>2026-08-27T17:17:31Z</time>
  <course>326.12</course>
  <speed>1.96</speed>
  <fix>3d</fix>
</trkpt>
<trkpt lat="40.0712793" lon="-105.2293769">
  <ele>1583.14</ele>
  <time>2026-08-27T17:17:31Z</time>
  <course>327.23</course>
  <speed>1.9359752064528097</speed>
  <fix>3d</fix>
</trkpt>
<trkpt lat="40.0712756" lon="-105.229374">
  <ele>1583.0</ele>
  <time>2026-08-27T17:17:31Z</time>
  <course>326.12</course>
  <speed>1.96</speed>
  <fix>3d</fix>
</trkpt>
<trkpt lat="40.0712807" lon="-105.2293782">
  <ele>1583.13</ele>
  <time>2026-08-27T17:17:31Z</time>
  <course>327.25</course>
  <speed>1.9359752064528097</speed>
  <fix>3d</fix>
</trkpt>
<trkpt lat="40.0712785" lon="-105.2293765">
  <ele>1583.0</ele>
  <time>2026-08-27T17:17:31Z</time>
  <course>326.18</course>
  <speed>1.96</speed>
  <fix>3d</fix>
</trkpt>
<trkpt lat="40.0712822" lon="-105.2293795">
  <ele>1583.13</ele>
  <time>2026-08-27T17:17:31Z</time>
  <course>327.28</course>
  <speed>1.9359752064528097</speed>
  <fix>3d</fix>
</trkpt>
<trkpt lat="40.0712785" lon="-105.2293765">
  <ele>1583.0</ele>
  <time>2026-08-27T17:17:31Z</time>
  <course>326.18</course>
  <speed>1.96</speed>
  <fix>3d</fix>
</trkpt>
<trkpt lat="40.0712836" lon="-105.2293808">
  <ele>1583.13</ele>
  <time>2026-08-27T17:17:31Z</time>
  <course>327.31</course>
  <speed>1.9359752064528097</speed>
  <fix>3d</fix>
</trkpt>
<trkpt lat="40.0712815" lon="-105.229379">
  <ele>1583.0</ele>
  <time>2026-08-27T17:17:31Z</time>
  <course>326.23</course>
  <speed>1.95</speed>
  <fix>3d</fix>
</trkpt>
<trkpt lat="40.0712851" lon="-105.229382">
  <ele>1583.13</ele>
  <time>2026-08-27T17:17:31Z</time>
  <course>327.34</course>
  <speed>1.9359752064528097</speed>
  <fix>3d</fix>
</trkpt>
<trkpt lat="40.0712815" lon="-105.229379">
  <ele>1583.0</ele>
  <time>2026-08-27T17:17:31Z</time>
  <course>326.23</course>
  <speed>1.95</speed>
  <fix>3d</fix>
</trkpt>
<trkpt lat="40.0712865" lon="-105.2293833">
  <ele>1583.13</ele>
  <time>2026-08-27T17:17:31Z</time>
  <course>327.36</course>
  <speed>1.9359752064528097</speed>
  <fix>3d</fix>
</trkpt>
<trkpt lat="40.0712844" lon="-105.2293816">
  <ele>1583.0</ele>
  <time>2026-08-27T17:17:31Z</time>
  <course>326.28</course>
  <speed>1.95</speed>
  <fix>3d</fix>
</trkpt>
<trkpt lat="40.071288" lon="-105.2293845">
  <ele>1583.13</ele>
  <time>2026-08-27T17:17:31Z</time>
  <course>327.39</course>
  <speed>1.9305180651835403</speed>
  <fix>3d</fix>
</trkpt>
<trkpt lat="40.0712844" lon="-105.2293816">
  <ele>1583.0</ele>
  <time>2026-08-27T17:17:31Z</time>
  <course>326.28</course>
  <speed>1.95</speed>
  <fix>3d</fix>
</trkpt>
<trkpt lat="40.0712894" lon="-105.2293858">
  <ele>1583.13</ele>
  <time>2026-08-27T17:17:31Z</time>
  <course>327.41</course>
  <speed>1.9305180651835403</speed>
  <fix>3d</fix>
</trkpt>
<trkpt lat="40.0712873" lon="-105.2293842">
  <ele>1583.0</ele>
  <time>2026-08-27T17:17:31Z</time>
  <course>326.34</course>
  <speed>1.95</speed>
  <fix>3d</fix>
</trkpt>
<trkpt lat="40.0712906" lon="-105.2293868">
  <ele>1583.12</ele>
  <time>2026-08-27T17:17:31Z</time>
  <course>327.42</course>
  <speed>1.9221342304844373</speed>
  <fix>3d</fix>
</trkpt>
<trkpt lat="40.0712873" lon="-105.2293842">
  <ele>1583.0</ele>
  <time>2026-08-27T17:17:31Z</time>
  <course>326.34</course>
  <speed>1.95</speed>
  <fix>3d</fix>
</trkpt>
<trkpt lat="40.071292" lon="-105.2293881">
  <ele>1583.12</ele>
  <time>2026-08-27T17:17:31Z</time>
  <course>327.43</course>
  <speed>1.9221342304844373</speed>
  <fix>3d</fix>
</trkpt>
<trkpt lat="40.0712902" lon="-105.2293867">
  <ele>1583.0</ele>
  <time>2026-08-27T17:17:31Z</time>
  <course>326.37</course>
  <speed>1.95</speed>
  <fix>3d</fix>
</trkpt>
<trkpt lat="40.0712935" lon="-105.2293893">
  <ele>1583.12</ele>
  <time>2026-08-27T17:17:31Z</time>
  <course>327.44</course>
  <speed>1.9221342304844373</speed>
  <fix>3d</fix>
</trkpt>
<trkpt lat="40.0712902" lon="-105.2293867">
  <ele>1583.0</ele>
  <time>2026-08-27T17:17:31Z</time>
  <course>326.37</course>
  <speed>1.95</speed>
  <fix>3d</fix>
</trkpt>
<trkpt lat="40.0712949" lon="-105.2293906">
  <ele>1583.12</ele>
  <time>2026-08-27T17:17:31Z</time>
  <course>327.44</course>
  <speed>1.9221342304844373</speed>
  <fix>3d</fix>
</trkpt>
<trkpt lat="40.0712932" lon="-105.2293893">
  <ele>1583.0</ele>
  <time>2026-08-27T17:17:31Z</time>
  <course>326.38</course>
  <speed>1.95</speed>
  <fix>3d</fix>
</trkpt>
<trkpt lat="40.0712964" lon="-105.2293919">
  <ele>1583.13</ele>
  <time>2026-08-27T17:17:31Z</time>
  <course>327.45</course>
  <speed>1.9221342304844373</speed>
  <fix>3d</fix>
</trkpt>
<trkpt lat="40.0712932" lon="-105.2293893">
  <ele>1583.0</ele>
  <time>2026-08-27T17:17:31Z</time>
  <course>326.38</course>
  <speed>1.95</speed>
  <fix>3d</fix>
</trkpt>
<trkpt lat="40.0712979" lon="-105.2293931">
  <ele>1583.13</ele>
  <time>2026-08-27T17:17:31Z</time>
  <course>327.45</course>
  <speed>1.9221342304844373</speed>
  <fix>3d</fix>
</trkpt>
<trkpt lat="40.0712961" lon="-105.2293918">
  <ele>1583.0</ele>
  <time>2026-08-27T17:17:31Z</time>
  <course>326.39</course>
  <speed>1.94</speed>
  <fix>3d</fix>
</trkpt>
<trkpt lat="40.0712993" lon="-105.2293944">
  <ele>1583.13</ele>
  <time>2026-08-27T17:17:31Z</time>
  <course>327.45</course>
  <speed>1.9221342304844373</speed>
  <fix>3d</fix>
</trkpt>
<trkpt lat="40.0712961" lon="-105.2293918">
  <ele>1583.0</ele>
  <time>2026-08-27T17:17:31Z</time>
  <course>326.39</course>
  <speed>1.94</speed>
  <fix>3d</fix>
</trkpt>
<trkpt lat="40.0713008" lon="-105.2293957">
  <ele>1583.13</ele>
  <time>2026-08-27T17:17:31Z</time>
  <course>327.46</course>
  <speed>1.9221342304844373</speed>
  <fix>3d</fix>
</trkpt>
<trkpt lat="40.071299" lon="-105.2293943">
  <ele>1583.0</ele>
  <time>2026-08-27T17:17:31Z</time>
  <course>326.41</course>
  <speed>1.94</speed>
  <fix>3d</fix>
</trkpt>
<trkpt lat="40.0713023" lon="-105.229397">
  <ele>1583.13</ele>
  <time>2026-08-27T17:17:31Z</time>
  <course>327.46</course>
  <speed>1.9221342304844373</speed>
  <fix>3d</fix>
</trkpt>
<trkpt lat="40.071299" lon="-105.2293943">
  <ele>1583.0</ele>
  <time>2026-08-27T17:17:31Z</time>
  <course>326.41</course>
  <speed>1.94</speed>
  <fix>3d</fix>
</trkpt>
<trkpt lat="40.0713038" lon="-105.2293982">
  <ele>1583.14</ele>
  <time>2026-08-27T17:17:31Z</time>
  <course>327.46</course>
  <speed>1.9221342304844373</speed>
  <fix>3d</fix>
</trkpt>
<trkpt lat="40.0713019" lon="-105.2293968">
  <ele>1583.0</ele>
  <time>2026-08-27T17:17:31Z</time>
  <course>326.41</course>
  <speed>1.94</speed>
  <fix>3d</fix>
</trkpt>
<trkpt lat="40.0713055" lon="-105.2293997">
  <ele>1583.13</ele>
  <time>2026-08-27T17:17:31Z</time>
  <course>327.47</course>
  <speed>1.9221342304844373</speed>
  <fix>3d</fix>
</trkpt>
<trkpt lat="40.0713019" lon="-105.2293968">
  <ele>1583.0</ele>
  <time>2026-08-27T17:17:31Z</time>
  <course>326.41</course>
  <speed>1.94</speed>
  <fix>3d</fix>
</trkpt>
<trkpt lat="40.071307" lon="-105.229401">
  <ele>1583.13</ele>
  <time>2026-08-27T17:17:31Z</time>
  <course>327.47</course>
  <speed>1.9221342304844373</speed>
  <fix>3d</fix>
</trkpt>
<trkpt lat="40.0713048" lon="-105.2293994">
  <ele>1583.0</ele>
  <time>2026-08-27T17:17:31Z</time>
  <course>326.41</course>
  <speed>1.94</speed>
  <fix>3d</fix>
</trkpt>
<trkpt lat="40.0713084" lon="-105.2294023">
  <ele>1583.13</ele>
  <time>2026-08-27T17:17:31Z</time>
  <course>327.47</course>
  <speed>1.9221342304844373</speed>
  <fix>3d</fix>
</trkpt>
<trkpt lat="40.0713048" lon="-105.2293994">
  <ele>1583.0</ele>
  <time>2026-08-27T17:17:31Z</time>
  <course>326.41</course>
  <speed>1.94</speed>
  <fix>3d</fix>
</trkpt>
<trkpt lat="40.0713099" lon="-105.2294036">
  <ele>1583.13</ele>
  <time>2026-08-27T17:17:31Z</time>
  <course>327.47</course>
  <speed>1.9221342304844373</speed>
  <fix>3d</fix>
</trkpt>
<trkpt lat="40.0713077" lon="-105.2294019">
  <ele>1583.0</ele>
  <time>2026-08-27T17:17:31Z</time>
  <course>326.41</course>
  <speed>1.94</speed>
  <fix>3d</fix>
</trkpt>
<trkpt lat="40.0713114" lon="-105.2294048">
  <ele>1583.13</ele>
  <time>2026-08-27T17:17:31Z</time>
  <course>327.47</course>
  <speed>1.9221342304844373</speed>
  <fix>3d</fix>
</trkpt>
<trkpt lat="40.0713077" lon="-105.2294019">
  <ele>1583.0</ele>
  <time>2026-08-27T17:17:31Z</time>
  <course>326.41</course>
  <speed>1.94</speed>
  <fix>3d</fix>
</trkpt>
<trkpt lat="40.0713128" lon="-105.2294061">
  <ele>1583.13</ele>
  <time>2026-08-27T17:17:31Z</time>
  <course>327.47</course>
  <speed>1.9221342304844373</speed>
  <fix>3d</fix>
</trkpt>
<trkpt lat="40.0713106" lon="-105.2294044">
  <ele>1583.0</ele>
  <time>2026-08-27T17:17:31Z</time>
  <course>326.41</course>
  <speed>1.94</speed>
  <fix>3d</fix>
</trkpt>
<trkpt lat="40.0713143" lon="-105.2294073">
  <ele>1583.13</ele>
  <time>2026-08-27T17:17:31Z</time>
  <course>327.47</course>
  <speed>1.9221342304844373</speed>
  <fix>3d</fix>
</trkpt>
<trkpt lat="40.0713106" lon="-105.2294044">
  <ele>1583.0</ele>
  <time>2026-08-27T17:17:31Z</time>
  <course>326.41</course>
  <speed>1.94</speed>
  <fix>3d</fix>
</trkpt>
<trkpt lat="40.0713157" lon="-105.2294086">
  <ele>1583.13</ele>
  <time>2026-08-27T17:17:31Z</time>
  <course>327.47</course>
  <speed>1.9221342304844373</speed>
  <fix>3d</fix>
</trkpt>
<trkpt lat="40.0713135" lon="-105.2294069">
  <ele>1583.0</ele>
  <time>2026-08-27T17:17:31Z</time>
  <course>326.41</course>
  <speed>1.94</speed>
  <fix>3d</fix>
</trkpt>
<trkpt lat="40.0713171" lon="-105.2294098">
  <ele>1583.13</ele>
  <time>2026-08-27T17:17:31Z</time>
  <course>327.47</course>
  <speed>1.9221342304844373</speed>
  <fix>3d</fix>
</trkpt>
<trkpt lat="40.0713135" lon="-105.2294069">
  <ele>1583.0</ele>
  <time>2026-08-27T17:17:31Z</time>
  <course>326.41</course>
  <speed>1.94</speed>
  <fix>3d</fix>
</trkpt>
<trkpt lat="40.0713186" lon="-105.2294111">
  <ele>1583.13</ele>
  <time>2026-08-27T17:17:31Z</time>
  <course>327.47</course>
  <speed>1.9221342304844373</speed>
  <fix>3d</fix>
</trkpt>
<trkpt lat="40.0713164" lon="-105.2294095">
  <ele>1583.0</ele>
  <time>2026-08-27T17:17:31Z</time>
  <course>326.41</course>
  <speed>1.94</speed>
  <fix>3d</fix>
</trkpt>
<trkpt lat="40.07132" lon="-105.2294123">
  <ele>1583.14</ele>
  <time>2026-08-27T17:17:31Z</time>
  <course>327.47</course>
  <speed>1.9221342304844373</speed>
  <fix>3d</fix>
</trkpt>
<trkpt lat="40.0713164" lon="-105.2294095">
  <ele>1583.0</ele>
  <time>2026-08-27T17:17:31Z</time>
  <course>326.41</course>
  <speed>1.94</speed>
  <fix>3d</fix>
</trkpt>
<trkpt lat="40.0713212" lon="-105.2294134">
  <ele>1583.14</ele>
  <time>2026-08-27T17:17:31Z</time>
  <course>327.47</course>
  <speed>1.9221342304844373</speed>
  <fix>3d</fix>
</trkpt>
<trkpt lat="40.0713194" lon="-105.229412">
  <ele>1583.0</ele>
  <time>2026-08-27T17:17:31Z</time>
  <course>326.41</course>
  <speed>1.94</speed>
  <fix>3d</fix>
</trkpt>
<trkpt lat="40.0713226" lon="-105.2294146">
  <ele>1583.14</ele>
  <time>2026-08-27T17:17:31Z</time>
  <course>327.47</course>
  <speed>1.9221342304844373</speed>
  <fix>3d</fix>
</trkpt>
<trkpt lat="40.0713194" lon="-105.229412">
  <ele>1583.0</ele>
  <time>2026-08-27T17:17:31Z</time>
  <course>326.41</course>
  <speed>1.94</speed>
  <fix>3d</fix>
</trkpt>
<trkpt lat="40.0713241" lon="-105.2294159">
  <ele>1583.14</ele>
  <time>2026-08-27T17:17:31Z</time>
  <course>327.47</course>
  <speed>1.9221342304844373</speed>
  <fix>3d</fix>
</trkpt>
<trkpt lat="40.0713223" lon="-105.2294145">
  <ele>1583.0</ele>
  <time>2026-08-27T17:17:31Z</time>
  <course>326.41</course>
  <speed>1.94</speed>
  <fix>3d</fix>
</trkpt>
<trkpt lat="40.0713255" lon="-105.2294171">
  <ele>1583.14</ele>
  <time>2026-08-27T17:17:31Z</time>
  <course>327.47</course>
  <speed>1.9221342304844373</speed>
  <fix>3d</fix>
</trkpt>
<trkpt lat="40.0713223" lon="-105.2294145">
  <ele>1583.0</ele>
  <time>2026-08-27T17:17:31Z</time>
  <course>326.41</course>
  <speed>1.94</speed>
  <fix>3d</fix>
</trkpt>
<trkpt lat="40.071327" lon="-105.2294184">
  <ele>1583.14</ele>
  <time>2026-08-27T17:17:31Z</time>
  <course>327.47</course>
  <speed>1.9221342304844373</speed>
  <fix>3d</fix>
</trkpt>
<trkpt lat="40.0713252" lon="-105.229417">
  <ele>1583.0</ele>
  <time>2026-08-27T17:17:31Z</time>
  <course>326.41</course>
  <speed>1.94</speed>
  <fix>3d</fix>
</trkpt>
<trkpt lat="40.0713284" lon="-105.2294197">
  <ele>1583.14</ele>
  <time>2026-08-27T17:17:31Z</time>
  <course>327.47</course>
  <speed>1.9221342304844373</speed>
  <fix>3d</fix>
</trkpt>
<trkpt lat="40.0713252" lon="-105.229417">
  <ele>1583.0</ele>
  <time>2026-08-27T17:17:31Z</time>
  <course>326.41</course>
  <speed>1.94</speed>
  <fix>3d</fix>
</trkpt>
<trkpt lat="40.0713299" lon="-105.2294209">
  <ele>1583.14</ele>
  <time>2026-08-27T17:17:31Z</time>
  <course>327.47</course>
  <speed>1.9221342304844373</speed>
  <fix>3d</fix>
</trkpt>
<trkpt lat="40.0713281" lon="-105.2294196">
  <ele>1583.0</ele>
  <time>2026-08-27T17:17:31Z</time>
  <course>326.41</course>
  <speed>1.94</speed>
  <fix>3d</fix>
</trkpt>
<trkpt lat="40.0713314" lon="-105.2294222">
  <ele>1583.14</ele>
  <time>2026-08-27T17:17:31Z</time>
  <course>327.48</course>
  <speed>1.9221342304844373</speed>
  <fix>3d</fix>
</trkpt>
<trkpt lat="40.0713281" lon="-105.2294196">
  <ele>1583.0</ele>
  <time>2026-08-27T17:17:31Z</time>
  <course>326.41</course>
  <speed>1.94</speed>
  <fix>3d</fix>
</trkpt>
<trkpt lat="40.0713328" lon="-105.2294235">
  <ele>1583.14</ele>
  <time>2026-08-27T17:17:31Z</time>
  <course>327.48</course>
  <speed>1.9221342304844373</speed>
  <fix>3d</fix>
</trkpt>
<trkpt lat="40.071331" lon="-105.2294221">
  <ele>1583.0</ele>
  <time>2026-08-27T17:17:31Z</time>
  <course>326.41</course>
  <speed>1.94</speed>
  <fix>3d</fix>
</trkpt>
<trkpt lat="40.0713346" lon="-105.229425">
  <ele>1583.14</ele>
  <time>2026-08-27T17:17:31Z</time>
  <course>327.48</course>
  <speed>1.9221342304844373</speed>
  <fix>3d</fix>
</trkpt>
<trkpt lat="40.071331" lon="-105.2294221">
  <ele>1583.0</ele>
  <time>2026-08-27T17:17:31Z</time>
  <course>326.41</course>
  <speed>1.94</speed>
  <fix>3d</fix>
</trkpt>
<trkpt lat="40.0713361" lon="-105.2294263">
  <ele>1583.14</ele>
  <time>2026-08-27T17:17:31Z</time>
  <course>327.48</course>
  <speed>1.9221342304844373</speed>
  <fix>3d</fix>
</trkpt>
<trkpt lat="40.0713339" lon="-105.2294246">
  <ele>1583.0</ele>
  <time>2026-08-27T17:17:31Z</time>
  <course>326.41</course>
  <speed>1.94</speed>
  <fix>3d</fix>
</trkpt>
<trkpt lat="40.0713375" lon="-105.2294275">
  <ele>1583.13</ele>
  <time>2026-08-27T17:17:31Z</time>
  <course>327.48</course>
  <speed>1.9221342304844373</speed>
  <fix>3d</fix>
</trkpt>
<trkpt lat="40.0713339" lon="-105.2294246">
  <ele>1583.0</ele>
  <time>2026-08-27T17:17:31Z</time>
  <course>326.41</course>
  <speed>1.94</speed>
  <fix>3d</fix>
</trkpt>
<trkpt lat="40.071339" lon="-105.2294288">
  <ele>1583.13</ele>
  <time>2026-08-27T17:17:31Z</time>
  <course>327.48</course>
  <speed>1.9221342304844373</speed>
  <fix>3d</fix>
</trkpt>
<trkpt lat="40.0713368" lon="-105.2294271">
  <ele>1583.0</ele>
  <time>2026-08-27T17:17:31Z</time>
  <course>326.41</course>
  <speed>1.94</speed>
  <fix>3d</fix>
</trkpt>
<trkpt lat="40.0713404" lon="-105.2294301">
  <ele>1583.14</ele>
  <time>2026-08-27T17:17:31Z</time>
  <course>327.48</course>
  <speed>1.9221342304844373</speed>
  <fix>3d</fix>
</trkpt>
<trkpt lat="40.0713368" lon="-105.2294271">
  <ele>1583.0</ele>
  <time>2026-08-27T17:17:31Z</time>
  <course>326.41</course>
  <speed>1.94</speed>
  <fix>3d</fix>
</trkpt>
<trkpt lat="40.0713419" lon="-105.2294313">
  <ele>1583.14</ele>
  <time>2026-08-27T17:17:31Z</time>
  <course>327.48</course>
  <speed>1.9221342304844373</speed>
  <fix>3d</fix>
</trkpt>
<trkpt lat="40.0713397" lon="-105.2294296">
  <ele>1583.0</ele>
  <time>2026-08-27T17:17:31Z</time>
  <course>326.41</course>
  <speed>1.94</speed>
  <fix>3d</fix>
</trkpt>
<trkpt lat="40.0713433" lon="-105.2294326">
  <ele>1583.14</ele>
  <time>2026-08-27T17:17:31Z</time>
  <course>327.48</course>
  <speed>1.9221342304844373</speed>
  <fix>3d</fix>
</trkpt>
<trkpt lat="40.0713397" lon="-105.2294296">
  <ele>1583.0</ele>
  <time>2026-08-27T17:17:31Z</time>
  <course>326.41</course>
  <speed>1.94</speed>
  <fix>3d</fix>
</trkpt>
<trkpt lat="40.0713448" lon="-105.2294338">
  <ele>1583.13</ele>
  <time>2026-08-27T17:17:31Z</time>
  <course>327.48</course>
  <speed>1.9221342304844373</speed>
  <fix>3d</fix>
</trkpt>
<trkpt lat="40.0713426" lon="-105.2294321">
  <ele>1583.0</ele>
  <time>2026-08-27T17:17:31Z</time>
  <course>326.41</course>
  <speed>1.94</speed>
  <fix>3d</fix>
</trkpt>
<trkpt lat="40.0713462" lon="-105.2294351">
  <ele>1583.13</ele>
  <time>2026-08-27T17:17:31Z</time>
  <course>327.48</course>
  <speed>1.9221342304844373</speed>
  <fix>3d</fix>
</trkpt>
<trkpt lat="40.0713426" lon="-105.2294321">
  <ele>1583.0</ele>
  <time>2026-08-27T17:17:31Z</time>
  <course>326.41</course>
  <speed>1.94</speed>
  <fix>3d</fix>
</trkpt>
<trkpt lat="40.0713477" lon="-105.2294363">
  <ele>1583.13</ele>
  <time>2026-08-27T17:17:31Z</time>
  <course>327.48</course>
  <speed>1.9166898549321953</speed>
  <fix>3d</fix>
</trkpt>
<trkpt lat="40.0713455" lon="-105.2294347">
  <ele>1583.0</ele>
  <time>2026-08-27T17:17:31Z</time>
  <course>326.41</course>
  <speed>1.94</speed>
  <fix>3d</fix>
</trkpt>
<trkpt lat="40.0713491" lon="-105.2294376">
  <ele>1583.13</ele>
  <time>2026-08-27T17:17:31Z</time>
  <course>327.48</course>
  <speed>1.9166898549321953</speed>
  <fix>3d</fix>
</trkpt>
<trkpt lat="40.0713455" lon="-105.2294347">
  <ele>1583.0</ele>
  <time>2026-08-27T17:17:31Z</time>
  <course>326.41</course>
  <speed>1.94</speed>
  <fix>3d</fix>
</trkpt>
<trkpt lat="40.0713505" lon="-105.2294388">
  <ele>1583.12</ele>
  <time>2026-08-27T17:17:31Z</time>
  <course>327.48</course>
  <speed>1.9166898549321953</speed>
  <fix>3d</fix>
</trkpt>
<trkpt lat="40.0713484" lon="-105.2294372">
  <ele>1583.0</ele>
  <time>2026-08-27T17:17:31Z</time>
  <course>326.41</course>
  <speed>1.94</speed>
  <fix>3d</fix>
</trkpt>
<trkpt lat="40.0713517" lon="-105.2294398">
  <ele>1583.12</ele>
  <time>2026-08-27T17:17:31Z</time>
  <course>327.48</course>
  <speed>1.9166898549321953</speed>
  <fix>3d</fix>
</trkpt>
<trkpt lat="40.0713484" lon="-105.2294372">
  <ele>1583.0</ele>
  <time>2026-08-27T17:17:31Z</time>
  <course>326.41</course>
  <speed>1.94</speed>
  <fix>3d</fix>
</trkpt>
<trkpt lat="40.0713531" lon="-105.2294411">
  <ele>1583.12</ele>
  <time>2026-08-27T17:17:31Z</time>
  <course>327.48</course>
  <speed>1.9082976707002501</speed>
  <fix>3d</fix>
</trkpt>
<trkpt lat="40.0713513" lon="-105.2294397">
  <ele>1583.0</ele>
  <time>2026-08-27T17:17:31Z</time>
  <course>326.41</course>
  <speed>1.94</speed>
  <fix>3d</fix>
</trkpt>
<trkpt lat="40.0713546" lon="-105.2294423">
  <ele>1583.12</ele>
  <time>2026-08-27T17:17:31Z</time>
  <course>327.48</course>
  <speed>1.9082976707002501</speed>
  <fix>3d</fix>
</trkpt>
<trkpt lat="40.0713513" lon="-105.2294397">
  <ele>1583.0</ele>
  <time>2026-08-27T17:17:31Z</time>
  <course>326.41</course>
  <speed>1.94</speed>
  <fix>3d</fix>
</trkpt>
<trkpt lat="40.071356" lon="-105.2294436">
  <ele>1583.12</ele>
  <time>2026-08-27T17:17:31Z</time>
  <course>327.49</course>
  <speed>1.9082976707002501</speed>
  <fix>3d</fix>
</trkpt>
<trkpt lat="40.0713542" lon="-105.2294422">
  <ele>1583.0</ele>
  <time>2026-08-27T17:17:31Z</time>
  <course>326.41</course>
  <speed>1.94</speed>
  <fix>3d</fix>
</trkpt>
<trkpt lat="40.0713575" lon="-105.2294448">
  <ele>1583.12</ele>
  <time>2026-08-27T17:17:31Z</time>
  <course>327.49</course>
  <speed>1.9082976707002501</speed>
  <fix>3d</fix>
</trkpt>
<trkpt lat="40.0713542" lon="-105.2294422">
  <ele>1583.0</ele>
  <time>2026-08-27T17:17:31Z</time>
  <course>326.41</course>
  <speed>1.94</speed>
  <fix>3d</fix>
</trkpt>
<trkpt lat="40.0713589" lon="-105.2294461">
  <ele>1583.12</ele>
  <time>2026-08-27T17:17:31Z</time>
  <course>327.49</course>
  <speed>1.9082976707002501</speed>
  <fix>3d</fix>
</trkpt>
<trkpt lat="40.0713571" lon="-105.2294448">
  <ele>1583.0</ele>
  <time>2026-08-27T17:17:31Z</time>
  <course>326.41</course>
  <speed>1.94</speed>
  <fix>3d</fix>
</trkpt>
<trkpt lat="40.0713604" lon="-105.2294474">
  <ele>1583.12</ele>
  <time>2026-08-27T17:17:31Z</time>
  <course>327.49</course>
  <speed>1.9166898549321953</speed>
  <fix>3d</fix>
</trkpt>
<trkpt lat="40.0713571" lon="-105.2294448">
  <ele>1583.0</ele>
  <time>2026-08-27T17:17:31Z</time>
  <course>326.41</course>
  <speed>1.94</speed>
  <fix>3d</fix>
</trkpt>
<trkpt lat="40.0713618" lon="-105.2294486">
  <ele>1583.12</ele>
  <time>2026-08-27T17:17:31Z</time>
  <course>327.49</course>
  <speed>1.9166898549321953</speed>
  <fix>3d</fix>
</trkpt>
<trkpt lat="40.07136" lon="-105.2294473">
  <ele>1583.0</ele>
  <time>2026-08-27T17:17:31Z</time>
  <course>326.41</course>
  <speed>1.94</speed>
  <fix>3d</fix>
</trkpt>
<trkpt lat="40.0713633" lon="-105.2294499">
  <ele>1583.12</ele>
  <time>2026-08-27T17:17:31Z</time>
  <course>327.49</course>
  <speed>1.9221342304844373</speed>
  <fix>3d</fix>
</trkpt>
<trkpt lat="40.07136" lon="-105.2294473">
  <ele>1583.0</ele>
  <time>2026-08-27T17:17:31Z</time>
  <course>326.41</course>
  <speed>1.94</speed>
  <fix>3d</fix>
</trkpt>
<trkpt lat="40.0713651" lon="-105.2294514">
  <ele>1583.12</ele>
  <time>2026-08-27T17:17:31Z</time>
  <course>327.49</course>
  <speed>1.9221342304844373</speed>
  <fix>3d</fix>
</trkpt>
<trkpt lat="40.0713629" lon="-105.2294498">
  <ele>1583.0</ele>
  <time>2026-08-27T17:17:31Z</time>
  <course>326.41</course>
  <speed>1.94</speed>
  <fix>3d</fix>
</trkpt>
<trkpt lat="40.0713665" lon="-105.2294527">
  <ele>1583.12</ele>
  <time>2026-08-27T17:17:31Z</time>
  <course>327.49</course>
  <speed>1.9221342304844373</speed>
  <fix>3d</fix>
</trkpt>
<trkpt lat="40.0713629" lon="-105.2294498">
  <ele>1583.0</ele>
  <time>2026-08-27T17:17:31Z</time>
  <course>326.41</course>
  <speed>1.94</speed>
  <fix>3d</fix>
</trkpt>
<trkpt lat="40.071368" lon="-105.229454">
  <ele>1583.13</ele>
  <time>2026-08-27T17:17:31Z</time>
  <course>327.49</course>
  <speed>1.9221342304844373</speed>
  <fix>3d</fix>
</trkpt>
<trkpt lat="40.0713658" lon="-105.2294523">
  <ele>1583.0</ele>
  <time>2026-08-27T17:17:31Z</time>
  <course>326.41</course>
  <speed>1.94</speed>
  <fix>3d</fix>
</trkpt>
<trkpt lat="40.0713694" lon="-105.2294552">
  <ele>1583.13</ele>
  <time>2026-08-27T17:17:31Z</time>
  <course>327.49</course>
  <speed>1.9221342304844373</speed>
  <fix>3d</fix>
</trkpt>
<trkpt lat="40.0713658" lon="-105.2294523">
  <ele>1583.0</ele>
  <time>2026-08-27T17:17:31Z</time>
  <course>326.41</course>
  <speed>1.94</speed>
  <fix>3d</fix>
</trkpt>
<trkpt lat="40.0713709" lon="-105.2294565">
  <ele>1583.13</ele>
  <time>2026-08-27T17:17:31Z</time>
  <course>327.49</course>
  <speed>1.9221342304844373</speed>
  <fix>3d</fix>
</trkpt>
<trkpt lat="40.0713687" lon="-105.2294548">
  <ele>1583.0</ele>
  <time>2026-08-27T17:17:31Z</time>
  <course>326.41</course>
  <speed>1.94</speed>
  <fix>3d</fix>
</trkpt>
<trkpt lat="40.0713723" lon="-105.2294577">
  <ele>1583.13</ele>
  <time>2026-08-27T17:17:31Z</time>
  <course>327.49</course>
  <speed>1.9221342304844373</speed>
  <fix>3d</fix>
</trkpt>
<trkpt lat="40.0713687" lon="-105.2294548">
  <ele>1583.0</ele>
  <time>2026-08-27T17:17:31Z</time>
  <course>326.41</course>
  <speed>1.94</speed>
  <fix>3d</fix>
</trkpt>
<trkpt lat="40.0713738" lon="-105.229459">
  <ele>1583.13</ele>
  <time>2026-08-27T17:17:31Z</time>
  <course>327.49</course>
  <speed>1.9221342304844373</speed>
  <fix>3d</fix>
</trkpt>
<trkpt lat="40.0713716" lon="-105.2294574">
  <ele>1583.0</ele>
  <time>2026-08-27T17:17:31Z</time>
  <course>326.41</course>
  <speed>1.94</speed>
  <fix>3d</fix>
</trkpt>
<trkpt lat="40.0713752" lon="-105.2294602">
  <ele>1583.13</ele>
  <time>2026-08-27T17:17:31Z</time>
  <course>327.49</course>
  <speed>1.9221342304844373</speed>
  <fix>3d</fix>
</trkpt>
<trkpt lat="40.0713716" lon="-105.2294574">
  <ele>1583.0</ele>
  <time>2026-08-27T17:17:31Z</time>
  <course>326.41</course>
  <speed>1.94</speed>
  <fix>3d</fix>
</trkpt>
<trkpt lat="40.0713766" lon="-105.2294615">
  <ele>1583.14</ele>
  <time>2026-08-27T17:17:31Z</time>
  <course>327.49</course>
  <speed>1.9082976707002501</speed>
  <fix>3d</fix>
</trkpt>
<trkpt lat="40.0713745" lon="-105.2294599">
  <ele>1583.0</ele>
  <time>2026-08-27T17:17:31Z</time>
  <course>326.41</course>
  <speed>1.94</speed>
  <fix>3d</fix>
</trkpt>
<trkpt lat="40.0713781" lon="-105.2294627">
  <ele>1583.14</ele>
  <time>2026-08-27T17:17:31Z</time>
  <course>327.49</course>
  <speed>1.9082976707002501</speed>
  <fix>3d</fix>
</trkpt>
<trkpt lat="40.0713745" lon="-105.2294599">
  <ele>1583.0</ele>
  <time>2026-08-27T17:17:31Z</time>
  <course>326.41</course>
  <speed>1.94</speed>
  <fix>3d</fix>
</trkpt>
<trkpt lat="40.0713795" lon="-105.229464">
  <ele>1583.14</ele>
  <time>2026-08-27T17:17:31Z</time>
  <course>327.49</course>
  <speed>1.9082976707002501</speed>
  <fix>3d</fix>
</trkpt>
<trkpt lat="40.0713774" lon="-105.2294624">
  <ele>1583.0</ele>
  <time>2026-08-27T17:17:31Z</time>
  <course>326.41</course>
  <speed>1.94</speed>
  <fix>3d</fix>
</trkpt>
<trkpt lat="40.0713807" lon="-105.229465">
  <ele>1583.14</ele>
  <time>2026-08-27T17:17:31Z</time>
  <course>327.49</course>
  <speed>1.9082976707002501</speed>
  <fix>3d</fix>
</trkpt>
<trkpt lat="40.0713774" lon="-105.2294624">
  <ele>1583.0</ele>
  <time>2026-08-27T17:17:31Z</time>
  <course>326.41</course>
  <speed>1.94</speed>
  <fix>3d</fix>
</trkpt>
<trkpt lat="40.0713821" lon="-105.2294663">
  <ele>1583.14</ele>
  <time>2026-08-27T17:17:31Z</time>
  <course>327.49</course>
  <speed>1.9082976707002501</speed>
  <fix>3d</fix>
</trkpt>
<trkpt lat="40.0713804" lon="-105.2294649">
  <ele>1583.0</ele>
  <time>2026-08-27T17:17:31Z</time>
  <course>326.41</course>
  <speed>1.94</speed>
  <fix>3d</fix>
</trkpt>
<trkpt lat="40.0713836" lon="-105.2294675">
  <ele>1583.14</ele>
  <time>2026-08-27T17:17:31Z</time>
  <course>327.49</course>
  <speed>1.9082976707002501</speed>
  <fix>3d</fix>
</trkpt>
<trkpt lat="40.0713804" lon="-105.2294649">
  <ele>1583.0</ele>
  <time>2026-08-27T17:17:31Z</time>
  <course>326.41</course>
  <speed>1.94</speed>
  <fix>3d</fix>
</trkpt>
<trkpt lat="40.071385" lon="-105.2294688">
  <ele>1583.14</ele>
  <time>2026-08-27T17:17:31Z</time>
  <course>327.49</course>
  <speed>1.9082976707002501</speed>
  <fix>3d</fix>
</trkpt>
<trkpt lat="40.0713833" lon="-105.2294674">
  <ele>1583.0</ele>
  <time>2026-08-27T17:17:31Z</time>
  <course>326.41</course>
  <speed>1.94</speed>
  <fix>3d</fix>
</trkpt>
<trkpt lat="40.0713865" lon="-105.22947">
  <ele>1583.14</ele>
  <time>2026-08-27T17:17:31Z</time>
  <course>327.5</course>
  <speed>1.9082976707002501</speed>
  <fix>3d</fix>
</trkpt>
<trkpt lat="40.0713833" lon="-105.2294674">
  <ele>1583.0</ele>
  <time>2026-08-27T17:17:31Z</time>
  <course>326.41</course>
  <speed>1.94</speed>
  <fix>3d</fix>
</trkpt>
<trkpt lat="40.0713879" lon="-105.2294713">
  <ele>1583.14</ele>
  <time>2026-08-27T17:17:31Z</time>
  <course>327.5</course>
  <speed>1.9082976707002501</speed>
  <fix>3d</fix>
</trkpt>
<trkpt lat="40.0713862" lon="-105.2294699">
  <ele>1583.0</ele>
  <time>2026-08-27T17:17:31Z</time>
  <course>326.41</course>
  <speed>1.94</speed>
  <fix>3d</fix>
</trkpt>
<trkpt lat="40.0713894" lon="-105.2294726">
  <ele>1583.15</ele>
  <time>2026-08-27T17:17:31Z</time>
  <course>327.5</course>
  <speed>1.9082976707002501</speed>
  <fix>3d</fix>
</trkpt>
<trkpt lat="40.0713862" lon="-105.2294699">
  <ele>1583.0</ele>
  <time>2026-08-27T17:17:31Z</time>
  <course>326.41</course>
  <speed>1.94</speed>
  <fix>3d</fix>
</trkpt>
<trkpt lat="40.0713908" lon="-105.2294738">
  <ele>1583.15</ele>
  <time>2026-08-27T17:17:31Z</time>
  <course>327.5</course>
  <speed>1.9082976707002501</speed>
  <fix>3d</fix>
</trkpt>
<trkpt lat="40.0713891" lon="-105.2294725">
  <ele>1583.0</ele>
  <time>2026-08-27T17:17:31Z</time>
  <course>326.41</course>
  <speed>1.94</speed>
  <fix>3d</fix>
</trkpt>
<trkpt lat="40.0713923" lon="-105.2294751">
  <ele>1583.15</ele>
  <time>2026-08-27T17:17:31Z</time>
  <course>327.49</course>
  <speed>1.9166898549321953</speed>
  <fix>3d</fix>
</trkpt>
<trkpt lat="40.0713891" lon="-105.2294725">
  <ele>1583.0</ele>
  <time>2026-08-27T17:17:31Z</time>
  <course>326.41</course>
  <speed>1.94</speed>
  <fix>3d</fix>
</trkpt>
<trkpt lat="40.0713938" lon="-105.2294764">
  <ele>1583.15</ele>
  <time>2026-08-27T17:17:31Z</time>
  <course>327.0</course>
  <speed>1.9192706948213427</speed>
  <fix>3d</fix>
</trkpt>
<trkpt lat="40.071392" lon="-105.229475">
  <ele>1583.0</ele>
  <time>2026-08-27T17:17:31Z</time>
  <course>326.16</course>
  <speed>1.94</speed>
  <fix>3d</fix>
</trkpt>
<trkpt lat="40.0713955" lon="-105.2294779">
  <ele>1583.15</ele>
  <time>2026-08-27T17:17:31Z</time>
  <course>325.46</course>
  <speed>1.9170028690641023</speed>
  <fix>3d</fix>
</trkpt>
<trkpt lat="40.071392" lon="-105.229475">
  <ele>1583.0</ele>
  <time>2026-08-27T17:17:31Z</time>
  <course>326.16</course>
  <speed>1.94</speed>
  <fix>3d</fix>
</trkpt>
<trkpt lat="40.0713969" lon="-105.2294793">
  <ele>1583.15</ele>
  <time>2026-08-27T17:17:31Z</time>
  <course>323.32</course>
  <speed>1.9200260414900625</speed>
  <fix>3d</fix>
</trkpt>
<trkpt lat="40.0713949" lon="-105.2294776">
  <ele>1583.0</ele>
  <time>2026-08-27T17:17:31Z</time>
  <course>324.32</course>
  <speed>1.94</speed>
  <fix>3d</fix>
</trkpt>
<trkpt lat="40.0713983" lon="-105.2294808">
  <ele>1583.14</ele>
  <time>2026-08-27T17:17:31Z</time>
  <course>320.2</course>
  <speed>1.9220041623263984</speed>
  <fix>3d</fix>
</trkpt>
<trkpt lat="40.0713949" lon="-105.2294776">
  <ele>1583.0</ele>
  <time>2026-08-27T17:17:31Z</time>
  <course>324.32</course>
  <speed>1.94</speed>
  <fix>3d</fix>
</trkpt>
<trkpt lat="40.0713996" lon="-105.2294823">
  <ele>1583.14</ele>
  <time>2026-08-27T17:17:31Z</time>
  <course>315.97</course>
  <speed>1.9162724232217088</speed>
  <fix>3d</fix>
</trkpt>
<trkpt lat="40.0713976" lon="-105.2294804">
  <ele>1583.0</ele>
  <time>2026-08-27T17:17:31Z</time>
  <course>319.26</course>
  <speed>1.93</speed>
  <fix>3d</fix>
</trkpt>
<trkpt lat="40.0714007" lon="-105.2294841">
  <ele>1583.14</ele>
  <time>2026-08-27T17:17:31Z</time>
  <course>310.67</course>
  <speed>1.9026297590440446</speed>
  <fix>3d</fix>
</trkpt>
<trkpt lat="40.0713976" lon="-105.2294804">
  <ele>1583.0</ele>
  <time>2026-08-27T17:17:31Z</time>
  <course>319.26</course>
  <speed>1.93</speed>
  <fix>3d</fix>
</trkpt>
<trkpt lat="40.0714018" lon="-105.2294859">
  <ele>1583.14</ele>
  <time>2026-08-27T17:17:31Z</time>
  <course>304.35</course>
  <speed>1.8915602025840996</speed>
  <fix>3d</fix>
</trkpt>
<trkpt lat="40.0714001" lon="-105.2294836">
  <ele>1583.0</ele>
  <time>2026-08-27T17:17:31Z</time>
  <course>310.18</course>
  <speed>1.91</speed>
  <fix>3d</fix>
</trkpt>
<trkpt lat="40.0714026" lon="-105.2294878">
  <ele>1583.14</ele>
  <time>2026-08-27T17:17:31Z</time>
  <course>298.17</course>
  <speed>1.8649664876345633</speed>
  <fix>3d</fix>
</trkpt>
<trkpt lat="40.0714001" lon="-105.2294836">
  <ele>1583.0</ele>
  <time>2026-08-27T17:17:31Z</time>
  <course>310.18</course>
  <speed>1.91</speed>
  <fix>3d</fix>
</trkpt>
<trkpt lat="40.0714033" lon="-105.2294899">
  <ele>1583.13</ele>
  <time>2026-08-27T17:17:31Z</time>
  <course>292.81</course>
  <speed>1.8495404834715026</speed>
  <fix>3d</fix>
</trkpt>
<trkpt lat="40.071402" lon="-105.2294872">
  <ele>1583.0</ele>
  <time>2026-08-27T17:17:31Z</time>
  <course>298.63</course>
  <speed>1.87</speed>
  <fix>3d</fix>
</trkpt>
<trkpt lat="40.0714038" lon="-105.229492">
  <ele>1583.13</ele>
  <time>2026-08-27T17:17:31Z</time>
  <course>288.3</course>
  <speed>1.8409780009549273</speed>
  <fix>3d</fix>
</trkpt>
<trkpt lat="40.071402" lon="-105.2294872">
  <ele>1583.0</ele>
  <time>2026-08-27T17:17:31Z</time>
  <course>298.63</course>
  <speed>1.87</speed>
  <fix>3d</fix>
</trkpt>
<trkpt lat="40.0714042" lon="-105.2294941">
  <ele>1583.13</ele>
  <time>2026-08-27T17:17:31Z</time>
  <course>284.65</course>
  <speed>1.8386136081297777</speed>
  <fix>3d</fix>
</trkpt>
<trkpt lat="40.0714033" lon="-105.2294912">
  <ele>1583.0</ele>
  <time>2026-08-27T17:17:31Z</time>
  <course>288.43</course>
  <speed>1.85</speed>
  <fix>3d</fix>
</trkpt>
<trkpt lat="40.0714045" lon="-105.2294962">
  <ele>1583.13</ele>
  <time>2026-08-27T17:17:31Z</time>
  <course>281.81</course>
  <speed>1.84967564724197</speed>
  <fix>3d</fix>
</trkpt>
<trkpt lat="40.0714033" lon="-105.2294912">
  <ele>1583.0</ele>
  <time>2026-08-27T17:17:31Z</time>
  <course>288.43</course>
  <speed>1.85</speed>
  <fix>3d</fix>
</trkpt>
<trkpt lat="40.0714047" lon="-105.229498">
  <ele>1583.13</ele>
  <time>2026-08-27T17:17:31Z</time>
  <course>280.13</course>
  <speed>1.8611824198610947</speed>
  <fix>3d</fix>
</trkpt>
<trkpt lat="40.0714041" lon="-105.2294955">
  <ele>1583.0</ele>
  <time>2026-08-27T17:17:31Z</time>
  <course>281.58</course>
  <speed>1.86</speed>
  <fix>3d</fix>
</trkpt>
<trkpt lat="40.0714049" lon="-105.2295002">
  <ele>1583.13</ele>
  <time>2026-08-27T17:17:31Z</time>
  <course>278.5</course>
  <speed>1.8840912929048848</speed>
  <fix>3d</fix>
</trkpt>
<trkpt lat="40.0714041" lon="-105.2294955">
  <ele>1583.0</ele>
  <time>2026-08-27T17:17:31Z</time>
  <course>281.58</course>
  <speed>1.86</speed>
  <fix>3d</fix>
</trkpt>
<trkpt lat="40.0714051" lon="-105.2295024">
  <ele>1583.13</ele>
  <time>2026-08-27T17:17:31Z</time>
  <course>276.94</course>
  <speed>1.9085072700935672</speed>
  <fix>3d</fix>
</trkpt>
<trkpt lat="40.0714047" lon="-105.2294998">
  <ele>1583.0</ele>
  <time>2026-08-27T17:17:31Z</time>
  <course>277.4</course>
  <speed>1.89</speed>
  <fix>3d</fix>
</trkpt>
<trkpt lat="40.0714052" lon="-105.2295047">
  <ele>1583.13</ele>
  <time>2026-08-27T17:17:31Z</time>
  <course>275.51</course>
  <speed>1.9343732835210476</speed>
  <fix>3d</fix>
</trkpt>
<trkpt lat="40.0714047" lon="-105.2294998">
  <ele>1583.0</ele>
  <time>2026-08-27T17:17:31Z</time>
  <course>277.4</course>
  <speed>1.89</speed>
  <fix>3d</fix>
</trkpt>
<trkpt lat="40.0714053" lon="-105.229507">
  <ele>1583.13</ele>
  <time>2026-08-27T17:17:31Z</time>
  <course>274.16</course>
  <speed>1.962065238466856</speed>
  <fix>3d</fix>
</trkpt>
<trkpt lat="40.071405" lon="-105.2295043">
  <ele>1583.0</ele>
  <time>2026-08-27T17:17:31Z</time>
  <course>274.4</course>
  <speed>1.94</speed>
  <fix>3d</fix>
</trkpt>
<trkpt lat="40.0714053" lon="-105.2295094">
  <ele>1583.13</ele>
  <time>2026-08-27T17:17:31Z</time>
  <course>272.91</course>
  <speed>1.9904019694524018</speed>
  <fix>3d</fix>
</trkpt>
<trkpt lat="40.071405" lon="-105.2295043">
  <ele>1583.0</ele>
  <time>2026-08-27T17:17:31Z</time>
  <course>274.4</course>
  <speed>1.94</speed>
  <fix>3d</fix>
</trkpt>
<trkpt lat="40.0714053" lon="-105.2295118">
  <ele>1583.14</ele>
  <time>2026-08-27T17:17:31Z</time>
  <course>271.75</course>
  <speed>2.02</speed>
  <fix>3d</fix>
</trkpt>
<trkpt lat="40.0714052" lon="-105.2295089">
  <ele>1583.0</ele>
  <time>2026-08-27T17:17:31Z</time>
  <course>271.8</course>
  <speed>1.99</speed>
  <fix>3d</fix>
</trkpt>
<trkpt lat="40.0714053" lon="-105.2295142">
  <ele>1583.14</ele>
  <time>2026-08-27T17:17:31Z</time>
  <course>270.67</course>
  <speed>2.0400980368599937</speed>
  <fix>3d</fix>
</trkpt>
<trkpt lat="40.0714052" lon="-105.2295089">
  <ele>1583.0</ele>
  <time>2026-08-27T17:17:31Z</time>
  <course>271.8</course>
  <speed>1.99</speed>
  <fix>3d</fix>
</trkpt>
<trkpt lat="40.0714053" lon="-105.2295166">
  <ele>1583.14</ele>
  <time>2026-08-27T17:17:31Z</time>
  <course>269.68</course>
  <speed>2.0608736011701443</speed>
  <fix>3d</fix>
</trkpt>
<trkpt lat="40.0714052" lon="-105.2295137">
  <ele>1583.0</ele>
  <time>2026-08-27T17:17:31Z</time>
  <course>269.56</course>
  <speed>2.04</speed>
  <fix>3d</fix>
</trkpt>
<trkpt lat="40.0714053" lon="-105.2295191">
  <ele>1583.14</ele>
  <time>2026-08-27T17:17:31Z</time>
  <course>268.76</course>
  <speed>2.0819462048765813</speed>
  <fix>3d</fix>
</trkpt>
<trkpt lat="40.0714052" lon="-105.2295137">
  <ele>1583.0</ele>
  <time>2026-08-27T17:17:31Z</time>
  <course>269.56</course>
  <speed>2.04</speed>
  <fix>3d</fix>
</trkpt>
<trkpt lat="40.0714051" lon="-105.2295221">
  <ele>1583.15</ele>
  <time>2026-08-27T17:17:31Z</time>
  <course>267.75</course>
  <speed>2.104019961882491</speed>
  <fix>3d</fix>
</trkpt>
<trkpt lat="40.0714052" lon="-105.2295185">
  <ele>1583.0</ele>
  <time>2026-08-27T17:17:31Z</time>
  <course>267.65</course>
  <speed>2.08</speed>
  <fix>3d</fix>
</trkpt>
<trkpt lat="40.071405" lon="-105.2295246">
  <ele>1583.15</ele>
  <time>2026-08-27T17:17:31Z</time>
  <course>266.98</course>
  <speed>2.116057655169159</speed>
  <fix>3d</fix>
</trkpt>
<trkpt lat="40.0714052" lon="-105.2295185">
  <ele>1583.0</ele>
  <time>2026-08-27T17:17:31Z</time>
  <course>267.65</course>
  <speed>2.08</speed>
  <fix>3d</fix>
</trkpt>
<trkpt lat="40.0714048" lon="-105.2295271">
  <ele>1583.15</ele>
  <time>2026-08-27T17:17:31Z</time>
  <course>266.27</course>
  <speed>2.128497122384712</speed>
  <fix>3d</fix>
</trkpt>
<trkpt lat="40.0714051" lon="-105.2295234">
  <ele>1583.0</ele>
  <time>2026-08-27T17:17:31Z</time>
  <course>266.01</course>
  <speed>2.11</speed>
  <fix>3d</fix>
</trkpt>
<trkpt lat="40.0714046" lon="-105.2295297">
  <ele>1583.15</ele>
  <time>2026-08-27T17:17:31Z</time>
  <course>265.62</course>
  <speed>2.1403270778084362</speed>
  <fix>3d</fix>
</trkpt>
<trkpt lat="40.0714051" lon="-105.2295234">
  <ele>1583.0</ele>
  <time>2026-08-27T17:17:31Z</time>
  <course>266.01</course>
  <speed>2.11</speed>
  <fix>3d</fix>
</trkpt>
<trkpt lat="40.0714044" lon="-105.2295322">
  <ele>1583.15</ele>
  <time>2026-08-27T17:17:31Z</time>
  <course>265.01</course>
  <speed>2.1434784813475503</speed>
  <fix>3d</fix>
</trkpt>
<trkpt lat="40.0714047" lon="-105.2295284">
  <ele>1583.0</ele>
  <time>2026-08-27T17:17:31Z</time>
  <course>264.61</course>
  <speed>2.14</speed>
  <fix>3d</fix>
</trkpt>
<trkpt lat="40.0714042" lon="-105.2295347">
  <ele>1583.15</ele>
  <time>2026-08-27T17:17:31Z</time>
  <course>264.46</course>
  <speed>2.155736533067063</speed>
  <fix>3d</fix>
</trkpt>
<trkpt lat="40.0714047" lon="-105.2295284">
  <ele>1583.0</ele>
  <time>2026-08-27T17:17:31Z</time>
  <course>264.61</course>
  <speed>2.14</speed>
  <fix>3d</fix>
</trkpt>
<trkpt lat="40.071404" lon="-105.2295372">
  <ele>1583.15</ele>
  <time>2026-08-27T17:17:31Z</time>
  <course>263.95</course>
  <speed>2.1582400237230335</speed>
  <fix>3d</fix>
</trkpt>
<trkpt lat="40.0714044" lon="-105.2295335">
  <ele>1583.0</ele>
  <time>2026-08-27T17:17:31Z</time>
  <course>263.43</course>
  <speed>2.15</speed>
  <fix>3d</fix>
</trkpt>
<trkpt lat="40.0714037" lon="-105.2295397">
  <ele>1583.15</ele>
  <time>2026-08-27T17:17:31Z</time>
  <course>263.48</course>
  <speed>2.1595601403989657</speed>
  <fix>3d</fix>
</trkpt>
<trkpt lat="40.0714044" lon="-105.2295335">
  <ele>1583.0</ele>
  <time>2026-08-27T17:17:31Z</time>
  <course>263.43</course>
  <speed>2.15</speed>
  <fix>3d</fix>
</trkpt>
<trkpt lat="40.0714034" lon="-105.2295422">
  <ele>1583.15</ele>
  <time>2026-08-27T17:17:31Z</time>
  <course>263.05</course>
  <speed>2.1623366990364845</speed>
  <fix>3d</fix>
</trkpt>
<trkpt lat="40.0714038" lon="-105.2295384">
  <ele>1583.0</ele>
  <time>2026-08-27T17:17:31Z</time>
  <course>262.43</course>
  <speed>2.16</speed>
  <fix>3d</fix>
</trkpt>
<trkpt lat="40.0714032" lon="-105.2295447">
  <ele>1583.15</ele>
  <time>2026-08-27T17:17:31Z</time>
  <course>262.65</course>
  <speed>2.153903433304288</speed>
  <fix>3d</fix>
</trkpt>
<trkpt lat="40.0714038" lon="-105.2295384">
  <ele>1583.0</ele>
  <time>2026-08-27T17:17:31Z</time>
  <course>262.43</course>
  <speed>2.16</speed>
  <fix>3d</fix>
</trkpt>
<trkpt lat="40.0714029" lon="-105.2295472">
  <ele>1583.15</ele>
  <time>2026-08-27T17:17:31Z</time>
  <course>262.3</course>
  <speed>2.156965461012299</speed>
  <fix>3d</fix>
</trkpt>
<trkpt lat="40.0714033" lon="-105.2295435">
  <ele>1583.0</ele>
  <time>2026-08-27T17:17:31Z</time>
  <course>261.59</course>
  <speed>2.16</speed>
  <fix>3d</fix>
</trkpt>
<trkpt lat="40.0714026" lon="-105.2295492">
  <ele>1583.15</ele>
  <time>2026-08-27T17:17:31Z</time>
  <course>262.03</course>
  <speed>2.156965461012299</speed>
  <fix>3d</fix>
</trkpt>
<trkpt lat="40.0714033" lon="-105.2295435">
  <ele>1583.0</ele>
  <time>2026-08-27T17:17:31Z</time>
  <course>261.59</course>
  <speed>2.16</speed>
  <fix>3d</fix>
</trkpt>
<trkpt lat="40.0714023" lon="-105.2295517">
  <ele>1583.15</ele>
  <time>2026-08-27T17:17:31Z</time>
  <course>261.74</course>
  <speed>2.148697279748825</speed>
  <fix>3d</fix>
</trkpt>
<trkpt lat="40.0714028" lon="-105.2295485">
  <ele>1583.0</ele>
  <time>2026-08-27T17:17:31Z</time>
  <course>260.9</course>
  <speed>2.17</speed>
  <fix>3d</fix>
</trkpt>
<trkpt lat="40.071402" lon="-105.2295542">
  <ele>1583.14</ele>
  <time>2026-08-27T17:17:31Z</time>
  <course>261.48</course>
  <speed>2.150348808914498</speed>
  <fix>3d</fix>
</trkpt>
<trkpt lat="40.0714028" lon="-105.2295485">
  <ele>1583.0</ele>
  <time>2026-08-27T17:17:31Z</time>
  <course>260.9</course>
  <speed>2.17</speed>
  <fix>3d</fix>
</trkpt>
<trkpt lat="40.0714017" lon="-105.2295567">
  <ele>1583.14</ele>
  <time>2026-08-27T17:17:31Z</time>
  <course>261.25</course>
  <speed>2.1520455385516355</speed>
  <fix>3d</fix>
</trkpt>
<trkpt lat="40.0714021" lon="-105.2295536">
  <ele>1583.0</ele>
  <time>2026-08-27T17:17:31Z</time>
  <course>260.33</course>
  <speed>2.17</speed>
  <fix>3d</fix>
</trkpt>
<trkpt lat="40.0714013" lon="-105.2295592">
  <ele>1583.14</ele>
  <time>2026-08-27T17:17:31Z</time>
  <course>261.04</course>
  <speed>2.143944961980134</speed>
  <fix>3d</fix>
</trkpt>
<trkpt lat="40.0714021" lon="-105.2295536">
  <ele>1583.0</ele>
  <time>2026-08-27T17:17:31Z</time>
  <course>260.33</course>
  <speed>2.17</speed>
  <fix>3d</fix>
</trkpt>
<trkpt lat="40.071401" lon="-105.2295617">
  <ele>1583.14</ele>
  <time>2026-08-27T17:17:31Z</time>
  <course>260.85</course>
  <speed>2.143944961980134</speed>
  <fix>3d</fix>
</trkpt>
<trkpt lat="40.0714014" lon="-105.2295585">
  <ele>1583.0</ele>
  <time>2026-08-27T17:17:31Z</time>
  <course>259.88</course>
  <speed>2.16</speed>
  <fix>3d</fix>
</trkpt>
<trkpt lat="40.0714006" lon="-105.2295642">
  <ele>1583.14</ele>
  <time>2026-08-27T17:17:31Z</time>
  <course>260.69</course>
  <speed>2.145739965606271</speed>
  <fix>3d</fix>
</trkpt>
<trkpt lat="40.0714014" lon="-105.2295585">
  <ele>1583.0</ele>
  <time>2026-08-27T17:17:31Z</time>
  <course>259.88</course>
  <speed>2.16</speed>
  <fix>3d</fix>
</trkpt>
<trkpt lat="40.0714003" lon="-105.2295667">
  <ele>1583.14</ele>
  <time>2026-08-27T17:17:31Z</time>
  <course>260.54</course>
  <speed>2.145739965606271</speed>
  <fix>3d</fix>
</trkpt>
<trkpt lat="40.0714007" lon="-105.2295636">
  <ele>1583.0</ele>
  <time>2026-08-27T17:17:31Z</time>
  <course>259.53</course>
  <speed>2.16</speed>
  <fix>3d</fix>
</trkpt>
<trkpt lat="40.0713999" lon="-105.2295692">
  <ele>1583.14</ele>
  <time>2026-08-27T17:17:31Z</time>
  <course>260.43</course>
  <speed>2.137755832643195</speed>
  <fix>3d</fix>
</trkpt>
<trkpt lat="40.0714007" lon="-105.2295636">
  <ele>1583.0</ele>
  <time>2026-08-27T17:17:31Z</time>
  <course>259.53</course>
  <speed>2.16</speed>
  <fix>3d</fix>
</trkpt>
<trkpt lat="40.0713996" lon="-105.2295717">
  <ele>1583.14</ele>
  <time>2026-08-27T17:17:31Z</time>
  <course>260.32</course>
  <speed>2.137755832643195</speed>
  <fix>3d</fix>
</trkpt>
<trkpt lat="40.0714" lon="-105.2295685">
  <ele>1583.0</ele>
  <time>2026-08-27T17:17:31Z</time>
  <course>259.26</course>
  <speed>2.16</speed>
  <fix>3d</fix>
</trkpt>
<trkpt lat="40.0713991" lon="-105.2295747">
  <ele>1583.14</ele>
  <time>2026-08-27T17:17:31Z</time>
  <course>260.22</course>
  <speed>2.137755832643195</speed>
  <fix>3d</fix>
</trkpt>
<trkpt lat="40.0714" lon="-105.2295685">
  <ele>1583.0</ele>
  <time>2026-08-27T17:17:31Z</time>
  <course>259.26</course>
  <speed>2.16</speed>
  <fix>3d</fix>
</trkpt>
<trkpt lat="40.0713988" lon="-105.2295772">
  <ele>1583.14</ele>
  <time>2026-08-27T17:17:31Z</time>
  <course>260.16</course>
  <speed>2.137755832643195</speed>
  <fix>3d</fix>
</trkpt>
<trkpt lat="40.0713993" lon="-105.2295736">
  <ele>1583.0</ele>
  <time>2026-08-27T17:17:31Z</time>
  <course>259.07</course>
  <speed>2.16</speed>
  <fix>3d</fix>
</trkpt>
<trkpt lat="40.0713984" lon="-105.2295797">
  <ele>1583.14</ele>
  <time>2026-08-27T17:17:31Z</time>
  <course>260.1</course>
  <speed>2.1279332696304176</speed>
  <fix>3d</fix>
</trkpt>
<trkpt lat="40.0713993" lon="-105.2295736">
  <ele>1583.0</ele>
  <time>2026-08-27T17:17:31Z</time>
  <course>259.07</course>
  <speed>2.16</speed>
  <fix>3d</fix>
</trkpt>
<trkpt lat="40.071398" lon="-105.2295822">
  <ele>1583.14</ele>
  <time>2026-08-27T17:17:31Z</time>
  <course>260.07</course>
  <speed>2.1279332696304176</speed>
  <fix>3d</fix>
</trkpt>
<trkpt lat="40.0713985" lon="-105.2295786">
  <ele>1583.0</ele>
  <time>2026-08-27T17:17:31Z</time>
  <course>258.95</course>
  <speed>2.15</speed>
  <fix>3d</fix>
</trkpt>
<trkpt lat="40.0713976" lon="-105.2295847">
  <ele>1583.14</ele>
  <time>2026-08-27T17:17:31Z</time>
  <course>260.04</course>
  <speed>2.1279332696304176</speed>
  <fix>3d</fix>
</trkpt>
<trkpt lat="40.0713985" lon="-105.2295786">
  <ele>1583.0</ele>
  <time>2026-08-27T17:17:31Z</time>
  <course>258.95</course>
  <speed>2.15</speed>
  <fix>3d</fix>
</trkpt>
<trkpt lat="40.0713973" lon="-105.2295872">
  <ele>1583.14</ele>
  <time>2026-08-27T17:17:31Z</time>
  <course>260.03</course>
  <speed>2.1279332696304176</speed>
  <fix>3d</fix>
</trkpt>
<trkpt lat="40.0713978" lon="-105.2295835">
  <ele>1583.0</ele>
  <time>2026-08-27T17:17:31Z</time>
  <course>258.88</course>
  <speed>2.15</speed>
  <fix>3d</fix>
</trkpt>
<trkpt lat="40.0713969" lon="-105.2295896">
  <ele>1583.14</ele>
  <time>2026-08-27T17:17:31Z</time>
  <course>260.03</course>
  <speed>2.1279332696304176</speed>
  <fix>3d</fix>
</trkpt>
<trkpt lat="40.0713978" lon="-105.2295835">
  <ele>1583.0</ele>
  <time>2026-08-27T17:17:31Z</time>
  <course>258.88</course>
  <speed>2.15</speed>
  <fix>3d</fix>
</trkpt>
<trkpt lat="40.0713965" lon="-105.2295921">
  <ele>1583.14</ele>
  <time>2026-08-27T17:17:31Z</time>
  <course>260.03</course>
  <speed>2.1181123671797963</speed>
  <fix>3d</fix>
</trkpt>
<trkpt lat="40.0713971" lon="-105.2295885">
  <ele>1583.0</ele>
  <time>2026-08-27T17:17:31Z</time>
  <course>258.85</course>
  <speed>2.15</speed>
  <fix>3d</fix>
</trkpt>
<trkpt lat="40.0713962" lon="-105.2295945">
  <ele>1583.14</ele>
  <time>2026-08-27T17:17:31Z</time>
  <course>260.03</course>
  <speed>2.1181123671797963</speed>
  <fix>3d</fix>
</trkpt>
<trkpt lat="40.0713971" lon="-105.2295885">
  <ele>1583.0</ele>
  <time>2026-08-27T17:17:31Z</time>
  <course>258.85</course>
  <speed>2.15</speed>
  <fix>3d</fix>
</trkpt>
<trkpt lat="40.0713958" lon="-105.229597">
  <ele>1583.14</ele>
  <time>2026-08-27T17:17:31Z</time>
  <course>260.03</course>
  <speed>2.1181123671797963</speed>
  <fix>3d</fix>
</trkpt>
<trkpt lat="40.0713963" lon="-105.2295934">
  <ele>1583.0</ele>
  <time>2026-08-27T17:17:31Z</time>
  <course>258.85</course>
  <speed>2.15</speed>
  <fix>3d</fix>
</trkpt>
<trkpt lat="40.0713955" lon="-105.2295994">
  <ele>1583.14</ele>
  <time>2026-08-27T17:17:31Z</time>
  <course>260.03</course>
  <speed>2.1181123671797963</speed>
  <fix>3d</fix>
</trkpt>
<trkpt lat="40.0713963" lon="-105.2295934">
  <ele>1583.0</ele>
  <time>2026-08-27T17:17:31Z</time>
  <course>258.85</course>
  <speed>2.15</speed>
  <fix>3d</fix>
</trkpt>
<trkpt lat="40.0713952" lon="-105.2296014">
  <ele>1583.15</ele>
  <time>2026-08-27T17:17:31Z</time>
  <course>260.03</course>
  <speed>2.1162466774929616</speed>
  <fix>3d</fix>
</trkpt>
<trkpt lat="40.0713956" lon="-105.2295984">
  <ele>1583.0</ele>
  <time>2026-08-27T17:17:32Z</time>
  <course>258.85</course>
  <speed>2.15</speed>
  <fix>3d</fix>
</trkpt>
<trkpt lat="40.0713948" lon="-105.2296039">
  <ele>1583.15</ele>
  <time>2026-08-27T17:17:32Z</time>
  <course>260.04</course>
  <speed>2.1162466774929616</speed>
  <fix>3d</fix>
</trkpt>
<trkpt lat="40.0713956" lon="-105.2295984">
  <ele>1583.0</ele>
  <time>2026-08-27T17:17:32Z</time>
  <course>258.85</course>
  <speed>2.15</speed>
  <fix>3d</fix>
</trkpt>
<trkpt lat="40.0713945" lon="-105.2296063">
  <ele>1583.15</ele>
  <time>2026-08-27T17:17:32Z</time>
  <course>260.07</course>
  <speed>2.106418761785035</speed>
  <fix>3d</fix>
</trkpt>
<trkpt lat="40.0713948" lon="-105.2296034">
  <ele>1583.0</ele>
  <time>2026-08-27T17:17:32Z</time>
  <course>258.87</course>
  <speed>2.14</speed>
  <fix>3d</fix>
</trkpt>
<trkpt lat="40.0713941" lon="-105.2296088">
  <ele>1583.16</ele>
  <time>2026-08-27T17:17:32Z</time>
  <course>260.1</course>
  <speed>2.106418761785035</speed>
  <fix>3d</fix>
</trkpt>
<trkpt lat="40.0713948" lon="-105.2296034">
  <ele>1583.0</ele>
  <time>2026-08-27T17:17:32Z</time>
  <course>258.87</course>
  <speed>2.14</speed>
  <fix>3d</fix>
</trkpt>
<trkpt lat="40.0713937" lon="-105.2296113">
  <ele>1583.16</ele>
  <time>2026-08-27T17:17:32Z</time>
  <course>260.13</course>
  <speed>2.106418761785035</speed>
  <fix>3d</fix>
</trkpt>
<trkpt lat="40.0713941" lon="-105.2296083">
  <ele>1583.0</ele>
  <time>2026-08-27T17:17:32Z</time>
  <course>258.93</course>
  <speed>2.14</speed>
  <fix>3d</fix>
</trkpt>
<trkpt lat="40.0713934" lon="-105.2296137">
  <ele>1583.16</ele>
  <time>2026-08-27T17:17:32Z</time>
  <course>260.15</course>
  <speed>2.1144266362302573</speed>
  <fix>3d</fix>
</trkpt>
<trkpt lat="40.0713941" lon="-105.2296083">
  <ele>1583.0</ele>
  <time>2026-08-27T17:17:32Z</time>
  <course>258.93</course>
  <speed>2.14</speed>
  <fix>3d</fix>
</trkpt>
<trkpt lat="40.071393" lon="-105.2296162">
  <ele>1583.17</ele>
  <time>2026-08-27T17:17:32Z</time>
  <course>260.19</course>
  <speed>2.1144266362302573</speed>
  <fix>3d</fix>
</trkpt>
<trkpt lat="40.0713933" lon="-105.2296132">
  <ele>1583.0</ele>
  <time>2026-08-27T17:17:32Z</time>
  <course>258.99</course>
  <speed>2.14</speed>
  <fix>3d</fix>
</trkpt>
<trkpt lat="40.0713926" lon="-105.2296187">
  <ele>1583.17</ele>
  <time>2026-08-27T17:17:32Z</time>
  <course>260.25</course>
  <speed>2.1144266362302573</speed>
  <fix>3d</fix>
</trkpt>
<trkpt lat="40.0713933" lon="-105.2296132">
  <ele>1583.0</ele>
  <time>2026-08-27T17:17:32Z</time>
  <course>258.99</course>
  <speed>2.14</speed>
  <fix>3d</fix>
</trkpt>
<trkpt lat="40.0713923" lon="-105.2296212">
  <ele>1583.17</ele>
  <time>2026-08-27T17:17:32Z</time>
  <course>260.31</course>
  <speed>2.1144266362302573</speed>
  <fix>3d</fix>
</trkpt>
<trkpt lat="40.0713926" lon="-105.2296182">
  <ele>1583.0</ele>
  <time>2026-08-27T17:17:32Z</time>
  <course>259.08</course>
  <speed>2.14</speed>
  <fix>3d</fix>
</trkpt>
<trkpt lat="40.0713919" lon="-105.2296237">
  <ele>1583.17</ele>
  <time>2026-08-27T17:17:32Z</time>
  <course>260.37</course>
  <speed>2.1126523613694705</speed>
  <fix>3d</fix>
</trkpt>
<trkpt lat="40.0713926" lon="-105.2296182">
  <ele>1583.0</ele>
  <time>2026-08-27T17:17:32Z</time>
  <course>259.08</course>
  <speed>2.14</speed>
  <fix>3d</fix>
</trkpt>
<trkpt lat="40.0713915" lon="-105.2296267">
  <ele>1583.17</ele>
  <time>2026-08-27T17:17:32Z</time>
  <course>260.43</course>
  <speed>2.1126523613694705</speed>
  <fix>3d</fix>
</trkpt>
<trkpt lat="40.0713918" lon="-105.2296231">
  <ele>1583.0</ele>
  <time>2026-08-27T17:17:32Z</time>
  <course>259.2</course>
  <speed>2.14</speed>
  <fix>3d</fix>
</trkpt>
<trkpt lat="40.0713911" lon="-105.2296292">
  <ele>1583.17</ele>
  <time>2026-08-27T17:17:32Z</time>
  <course>260.49</course>
  <speed>2.1126523613694705</speed>
  <fix>3d</fix>
</trkpt>
<trkpt lat="40.0713918" lon="-105.2296231">
  <ele>1583.0</ele>
  <time>2026-08-27T17:17:32Z</time>
  <course>259.2</course>
  <speed>2.14</speed>
  <fix>3d</fix>
</trkpt>
<trkpt lat="40.0713908" lon="-105.2296316">
  <ele>1583.17</ele>
  <time>2026-08-27T17:17:32Z</time>
  <course>260.55</course>
  <speed>2.1126523613694705</speed>
  <fix>3d</fix>
</trkpt>
<trkpt lat="40.0713911" lon="-105.2296281">
  <ele>1583.0</ele>
  <time>2026-08-27T17:17:32Z</time>
  <course>259.32</course>
  <speed>2.14</speed>
  <fix>3d</fix>
</trkpt>
<trkpt lat="40.0713904" lon="-105.2296341">
  <ele>1583.17</ele>
  <time>2026-08-27T17:17:32Z</time>
  <course>260.6</course>
  <speed>2.110923968313402</speed>
  <fix>3d</fix>
</trkpt>
<trkpt lat="40.0713911" lon="-105.2296281">
  <ele>1583.0</ele>
  <time>2026-08-27T17:17:32Z</time>
  <course>259.32</course>
  <speed>2.14</speed>
  <fix>3d</fix>
</trkpt>
<trkpt lat="40.0713901" lon="-105.2296366">
  <ele>1583.17</ele>
  <time>2026-08-27T17:17:32Z</time>
  <course>260.66</course>
  <speed>2.110923968313402</speed>
  <fix>3d</fix>
</trkpt>
<trkpt lat="40.0713904" lon="-105.2296331">
  <ele>1583.0</ele>
  <time>2026-08-27T17:17:32Z</time>
  <course>259.43</course>
  <speed>2.14</speed>
  <fix>3d</fix>
</trkpt>
<trkpt lat="40.0713897" lon="-105.2296391">
  <ele>1583.17</ele>
  <time>2026-08-27T17:17:32Z</time>
  <course>260.72</course>
  <speed>2.110923968313402</speed>
  <fix>3d</fix>
</trkpt>
<trkpt lat="40.0713904" lon="-105.2296331">
  <ele>1583.0</ele>
  <time>2026-08-27T17:17:32Z</time>
  <course>259.43</course>
  <speed>2.14</speed>
  <fix>3d</fix>
</trkpt>
<trkpt lat="40.0713894" lon="-105.2296415">
  <ele>1583.17</ele>
  <time>2026-08-27T17:17:32Z</time>
  <course>260.79</course>
  <speed>2.110923968313402</speed>
  <fix>3d</fix>
</trkpt>
<trkpt lat="40.0713897" lon="-105.229638">
  <ele>1583.0</ele>
  <time>2026-08-27T17:17:32Z</time>
  <course>259.56</course>
  <speed>2.14</speed>
  <fix>3d</fix>
</trkpt>
<trkpt lat="40.0713891" lon="-105.229644">
  <ele>1583.17</ele>
  <time>2026-08-27T17:17:32Z</time>
  <course>260.86</course>
  <speed>2.1092415698539604</speed>
  <fix>3d</fix>
</trkpt>
<trkpt lat="40.0713897" lon="-105.229638">
  <ele>1583.0</ele>
  <time>2026-08-27T17:17:32Z</time>
  <course>259.56</course>
  <speed>2.14</speed>
  <fix>3d</fix>
</trkpt>
<trkpt lat="40.0713887" lon="-105.2296465">
  <ele>1583.17</ele>
  <time>2026-08-27T17:17:32Z</time>
  <course>260.94</course>
  <speed>2.1092415698539604</speed>
  <fix>3d</fix>
</trkpt>
<trkpt lat="40.071389" lon="-105.229643">
  <ele>1583.0</ele>
  <time>2026-08-27T17:17:32Z</time>
  <course>259.7</course>
  <speed>2.14</speed>
  <fix>3d</fix>
</trkpt>
<trkpt lat="40.0713884" lon="-105.2296489">
  <ele>1583.17</ele>
  <time>2026-08-27T17:17:32Z</time>
  <course>261.01</course>
  <speed>2.1092415698539604</speed>
  <fix>3d</fix>
</trkpt>
<trkpt lat="40.071389" lon="-105.229643">
  <ele>1583.0</ele>
  <time>2026-08-27T17:17:32Z</time>
  <course>259.7</course>
  <speed>2.14</speed>
  <fix>3d</fix>
</trkpt>
<trkpt lat="40.0713881" lon="-105.2296514">
  <ele>1583.17</ele>
  <time>2026-08-27T17:17:32Z</time>
  <course>261.08</course>
  <speed>2.1076052761368764</speed>
  <fix>3d</fix>
</trkpt>
<trkpt lat="40.0713884" lon="-105.229648">
  <ele>1583.0</ele>
  <time>2026-08-27T17:17:32Z</time>
  <course>259.84</course>
  <speed>2.15</speed>
  <fix>3d</fix>
</trkpt>
<trkpt lat="40.0713878" lon="-105.2296534">
  <ele>1583.17</ele>
  <time>2026-08-27T17:17:32Z</time>
  <course>261.15</course>
  <speed>2.1076052761368764</speed>
  <fix>3d</fix>
</trkpt>
<trkpt lat="40.0713884" lon="-105.229648">
  <ele>1583.0</ele>
  <time>2026-08-27T17:17:32Z</time>
  <course>259.84</course>
  <speed>2.15</speed>
  <fix>3d</fix>
</trkpt>
<trkpt lat="40.0713875" lon="-105.2296558">
  <ele>1583.17</ele>
  <time>2026-08-27T17:17:32Z</time>
  <course>261.21</course>
  <speed>2.1076052761368764</speed>
  <fix>3d</fix>
</trkpt>
<trkpt lat="40.0713877" lon="-105.2296529">
  <ele>1583.0</ele>
  <time>2026-08-27T17:17:32Z</time>
  <course>259.99</course>
  <speed>2.15</speed>
  <fix>3d</fix>
</trkpt>
<trkpt lat="40.0713871" lon="-105.2296583">
  <ele>1583.17</ele>
  <time>2026-08-27T17:17:32Z</time>
  <course>261.28</course>
  <speed>2.115892246783848</speed>
  <fix>3d</fix>
</trkpt>
<trkpt lat="40.0713877" lon="-105.2296529">
  <ele>1583.0</ele>
  <time>2026-08-27T17:17:32Z</time>
  <course>259.99</course>
  <speed>2.15</speed>
  <fix>3d</fix>
</trkpt>
<trkpt lat="40.0713868" lon="-105.2296608">
  <ele>1583.17</ele>
  <time>2026-08-27T17:17:32Z</time>
  <course>261.34</course>
  <speed>2.115892246783848</speed>
  <fix>3d</fix>
</trkpt>
<trkpt lat="40.071387" lon="-105.2296579">
  <ele>1583.0</ele>
  <time>2026-08-27T17:17:32Z</time>
  <course>260.12</course>
  <speed>2.15</speed>
  <fix>3d</fix>
</trkpt>
<trkpt lat="40.0713865" lon="-105.2296633">
  <ele>1583.17</ele>
  <time>2026-08-27T17:17:32Z</time>
  <course>261.41</course>
  <speed>2.115892246783848</speed>
  <fix>3d</fix>
</trkpt>
<trkpt lat="40.071387" lon="-105.2296579">
  <ele>1583.0</ele>
  <time>2026-08-27T17:17:32Z</time>
  <course>260.12</course>
  <speed>2.15</speed>
  <fix>3d</fix>
</trkpt>
<trkpt lat="40.0713862" lon="-105.2296658">
  <ele>1583.17</ele>
  <time>2026-08-27T17:17:32Z</time>
  <course>261.46</course>
  <speed>2.115892246783848</speed>
  <fix>3d</fix>
</trkpt>
<trkpt lat="40.0713863" lon="-105.2296628">
  <ele>1583.0</ele>
  <time>2026-08-27T17:17:32Z</time>
  <course>260.26</course>
  <speed>2.15</speed>
  <fix>3d</fix>
</trkpt>
<trkpt lat="40.0713859" lon="-105.2296683">
  <ele>1583.17</ele>
  <time>2026-08-27T17:17:32Z</time>
  <course>261.53</course>
  <speed>2.1143556938225885</speed>
  <fix>3d</fix>
</trkpt>
<trkpt lat="40.0713863" lon="-105.2296628">
  <ele>1583.0</ele>
  <time>2026-08-27T17:17:32Z</time>
  <course>260.26</course>
  <speed>2.15</speed>
  <fix>3d</fix>
</trkpt>
<trkpt lat="40.0713855" lon="-105.2296708">
  <ele>1583.17</ele>
  <time>2026-08-27T17:17:32Z</time>
  <course>261.59</course>
  <speed>2.1143556938225885</speed>
  <fix>3d</fix>
</trkpt>
<trkpt lat="40.0713857" lon="-105.2296679">
  <ele>1583.0</ele>
  <time>2026-08-27T17:17:32Z</time>
  <course>260.38</course>
  <speed>2.15</speed>
  <fix>3d</fix>
</trkpt>
<trkpt lat="40.0713852" lon="-105.2296733">
  <ele>1583.18</ele>
  <time>2026-08-27T17:17:32Z</time>
  <course>261.65</course>
  <speed>2.124241040936739</speed>
  <fix>3d</fix>
</trkpt>
<trkpt lat="40.0713857" lon="-105.2296679">
  <ele>1583.0</ele>
  <time>2026-08-27T17:17:32Z</time>
  <course>260.38</course>
  <speed>2.15</speed>
  <fix>3d</fix>
</trkpt>
<trkpt lat="40.0713848" lon="-105.2296763">
  <ele>1583.18</ele>
  <time>2026-08-27T17:17:32Z</time>
  <course>261.72</course>
  <speed>2.124241040936739</speed>
  <fix>3d</fix>
</trkpt>
<trkpt lat="40.0713851" lon="-105.2296729">
  <ele>1583.0</ele>
  <time>2026-08-27T17:17:32Z</time>
  <course>260.51</course>
  <speed>2.15</speed>
  <fix>3d</fix>
</trkpt>
<trkpt lat="40.0713845" lon="-105.2296789">
  <ele>1583.18</ele>
  <time>2026-08-27T17:17:32Z</time>
  <course>261.78</course>
  <speed>2.1227576404290716</speed>
  <fix>3d</fix>
</trkpt>
<trkpt lat="40.0713851" lon="-105.2296729">
  <ele>1583.0</ele>
  <time>2026-08-27T17:17:32Z</time>
  <course>260.51</course>
  <speed>2.15</speed>
  <fix>3d</fix>
</trkpt>
<trkpt lat="40.0713842" lon="-105.2296814">
  <ele>1583.18</ele>
  <time>2026-08-27T17:17:32Z</time>
  <course>261.84</course>
  <speed>2.1227576404290716</speed>
  <fix>3d</fix>
</trkpt>
<trkpt lat="40.0713844" lon="-105.2296778">
  <ele>1583.0</ele>
  <time>2026-08-27T17:17:32Z</time>
  <course>260.64</course>
  <speed>2.15</speed>
  <fix>3d</fix>
</trkpt>
<trkpt lat="40.0713839" lon="-105.2296839">
  <ele>1583.17</ele>
  <time>2026-08-27T17:17:32Z</time>
  <course>261.89</course>
  <speed>2.1227576404290716</speed>
  <fix>3d</fix>
</trkpt>
<trkpt lat="40.0713844" lon="-105.2296778">
  <ele>1583.0</ele>
  <time>2026-08-27T17:17:32Z</time>
  <course>260.64</course>
  <speed>2.15</speed>
  <fix>3d</fix>
</trkpt>
<trkpt lat="40.0713836" lon="-105.2296864">
  <ele>1583.17</ele>
  <time>2026-08-27T17:17:32Z</time>
  <course>261.95</course>
  <speed>2.1227576404290716</speed>
  <fix>3d</fix>
</trkpt>
<trkpt lat="40.0713837" lon="-105.2296829">
  <ele>1583.0</ele>
  <time>2026-08-27T17:17:32Z</time>
  <course>260.75</course>
  <speed>2.15</speed>
  <fix>3d</fix>
</trkpt>
<trkpt lat="40.0713833" lon="-105.2296889">
  <ele>1583.17</ele>
  <time>2026-08-27T17:17:32Z</time>
  <course>262.01</course>
  <speed>2.132650932525058</speed>
  <fix>3d</fix>
</trkpt>
<trkpt lat="40.0713837" lon="-105.2296829">
  <ele>1583.0</ele>
  <time>2026-08-27T17:17:32Z</time>
  <course>260.75</course>
  <speed>2.15</speed>
  <fix>3d</fix>
</trkpt>
<trkpt lat="40.071383" lon="-105.2296914">
  <ele>1583.17</ele>
  <time>2026-08-27T17:17:32Z</time>
  <course>262.07</course>
  <speed>2.1312203077110543</speed>
  <fix>3d</fix>
</trkpt>
<trkpt lat="40.0713832" lon="-105.2296878">
  <ele>1583.0</ele>
  <time>2026-08-27T17:17:32Z</time>
  <course>260.87</course>
  <speed>2.15</speed>
  <fix>3d</fix>
</trkpt>
<trkpt lat="40.0713827" lon="-105.2296939">
  <ele>1583.17</ele>
  <time>2026-08-27T17:17:32Z</time>
  <course>262.12</course>
  <speed>2.1312203077110543</speed>
  <fix>3d</fix>
</trkpt>
<trkpt lat="40.0713832" lon="-105.2296878">
  <ele>1583.0</ele>
  <time>2026-08-27T17:17:32Z</time>
  <course>260.87</course>
  <speed>2.15</speed>
  <fix>3d</fix>
</trkpt>
<trkpt lat="40.0713824" lon="-105.2296964">
  <ele>1583.17</ele>
  <time>2026-08-27T17:17:32Z</time>
  <course>262.18</course>
  <speed>2.1312203077110543</speed>
  <fix>3d</fix>
</trkpt>
<trkpt lat="40.0713825" lon="-105.2296929">
  <ele>1583.0</ele>
  <time>2026-08-27T17:17:32Z</time>
  <course>260.99</course>
  <speed>2.16</speed>
  <fix>3d</fix>
</trkpt>
<trkpt lat="40.0713821" lon="-105.2296989">
  <ele>1583.17</ele>
  <time>2026-08-27T17:17:32Z</time>
  <course>262.24</course>
  <speed>2.1312203077110543</speed>
  <fix>3d</fix>
</trkpt>
<trkpt lat="40.0713825" lon="-105.2296929">
  <ele>1583.0</ele>
  <time>2026-08-27T17:17:32Z</time>
  <course>260.99</course>
  <speed>2.16</speed>
  <fix>3d</fix>
</trkpt>
<trkpt lat="40.0713818" lon="-105.2297014">
  <ele>1583.17</ele>
  <time>2026-08-27T17:17:32Z</time>
  <course>262.3</course>
  <speed>2.1312203077110543</speed>
  <fix>3d</fix>
</trkpt>
<trkpt lat="40.071382" lon="-105.2296978">
  <ele>1583.0</ele>
  <time>2026-08-27T17:17:32Z</time>
  <course>261.1</course>
  <speed>2.16</speed>
  <fix>3d</fix>
</trkpt>
<trkpt lat="40.0713815" lon="-105.2297039">
  <ele>1583.16</ele>
  <time>2026-08-27T17:17:32Z</time>
  <course>262.36</course>
  <speed>2.1298356744124654</speed>
  <fix>3d</fix>
</trkpt>
<trkpt lat="40.071382" lon="-105.2296978">
  <ele>1583.0</ele>
  <time>2026-08-27T17:17:32Z</time>
  <course>261.1</course>
  <speed>2.16</speed>
  <fix>3d</fix>
</trkpt>
<trkpt lat="40.0713813" lon="-105.2297059">
  <ele>1583.16</ele>
  <time>2026-08-27T17:17:32Z</time>
  <course>262.41</course>
  <speed>2.1298356744124654</speed>
  <fix>3d</fix>
</trkpt>
<trkpt lat="40.0713813" lon="-105.2297029">
  <ele>1583.0</ele>
  <time>2026-08-27T17:17:32Z</time>
  <course>261.22</course>
  <speed>2.16</speed>
  <fix>3d</fix>
</trkpt>
<trkpt lat="40.071381" lon="-105.2297084">
  <ele>1583.16</ele>
  <time>2026-08-27T17:17:32Z</time>
  <course>262.46</course>
  <speed>2.1298356744124654</speed>
  <fix>3d</fix>
</trkpt>
<trkpt lat="40.0713813" lon="-105.2297029">
  <ele>1583.0</ele>
  <time>2026-08-27T17:17:32Z</time>
  <course>261.22</course>
  <speed>2.16</speed>
  <fix>3d</fix>
</trkpt>
<trkpt lat="40.0713807" lon="-105.2297109">
  <ele>1583.15</ele>
  <time>2026-08-27T17:17:32Z</time>
  <course>262.52</course>
  <speed>2.1298356744124654</speed>
  <fix>3d</fix>
</trkpt>
<trkpt lat="40.0713808" lon="-105.2297079">
  <ele>1583.0</ele>
  <time>2026-08-27T17:17:32Z</time>
  <course>261.34</course>
  <speed>2.16</speed>
  <fix>3d</fix>
</trkpt>
<trkpt lat="40.0713804" lon="-105.2297134">
  <ele>1583.15</ele>
  <time>2026-08-27T17:17:32Z</time>
  <course>262.58</course>
  <speed>2.1298356744124654</speed>
  <fix>3d</fix>
</trkpt>
<trkpt lat="40.0713808" lon="-105.2297079">
  <ele>1583.0</ele>
  <time>2026-08-27T17:17:32Z</time>
  <course>261.34</course>
  <speed>2.16</speed>
  <fix>3d</fix>
</trkpt>
<trkpt lat="40.0713801" lon="-105.2297159">
  <ele>1583.15</ele>
  <time>2026-08-27T17:17:32Z</time>
  <course>262.63</course>
  <speed>2.128497122384712</speed>
  <fix>3d</fix>
</trkpt>
<trkpt lat="40.0713801" lon="-105.229713">
  <ele>1583.0</ele>
  <time>2026-08-27T17:17:32Z</time>
  <course>261.46</course>
  <speed>2.16</speed>
  <fix>3d</fix>
</trkpt>
<trkpt lat="40.0713798" lon="-105.2297185">
  <ele>1583.15</ele>
  <time>2026-08-27T17:17:32Z</time>
  <course>262.69</course>
  <speed>2.1384106247397856</speed>
  <fix>3d</fix>
</trkpt>
<trkpt lat="40.0713801" lon="-105.229713">
  <ele>1583.0</ele>
  <time>2026-08-27T17:17:32Z</time>
  <course>261.46</course>
  <speed>2.16</speed>
  <fix>3d</fix>
</trkpt>
<trkpt lat="40.0713795" lon="-105.229721">
  <ele>1583.15</ele>
  <time>2026-08-27T17:17:32Z</time>
  <course>262.75</course>
  <speed>2.1384106247397856</speed>
  <fix>3d</fix>
</trkpt>
<trkpt lat="40.0713796" lon="-105.2297179">
  <ele>1583.0</ele>
  <time>2026-08-27T17:17:32Z</time>
  <course>261.57</course>
  <speed>2.16</speed>
  <fix>3d</fix>
</trkpt>
<trkpt lat="40.0713792" lon="-105.2297236">
  <ele>1583.15</ele>
  <time>2026-08-27T17:17:32Z</time>
  <course>262.81</course>
  <speed>2.1384106247397856</speed>
  <fix>3d</fix>
</trkpt>
<trkpt lat="40.0713796" lon="-105.2297179">
  <ele>1583.0</ele>
  <time>2026-08-27T17:17:32Z</time>
  <course>261.57</course>
  <speed>2.16</speed>
  <fix>3d</fix>
</trkpt>
<trkpt lat="40.0713789" lon="-105.2297261">
  <ele>1583.15</ele>
  <time>2026-08-27T17:17:32Z</time>
  <course>262.86</course>
  <speed>2.1384106247397856</speed>
  <fix>3d</fix>
</trkpt>
<trkpt lat="40.0713791" lon="-105.229723">
  <ele>1583.0</ele>
  <time>2026-08-27T17:17:32Z</time>
  <course>261.69</course>
  <speed>2.16</speed>
  <fix>3d</fix>
</trkpt>
<trkpt lat="40.0713786" lon="-105.2297291">
  <ele>1583.15</ele>
  <time>2026-08-27T17:17:32Z</time>
  <course>262.93</course>
  <speed>2.1384106247397856</speed>
  <fix>3d</fix>
</trkpt>
<trkpt lat="40.0713791" lon="-105.229723">
  <ele>1583.0</ele>
  <time>2026-08-27T17:17:32Z</time>
  <course>261.69</course>
  <speed>2.16</speed>
  <fix>3d</fix>
</trkpt>
<trkpt lat="40.0713783" lon="-105.2297317">
  <ele>1583.15</ele>
  <time>2026-08-27T17:17:32Z</time>
  <course>262.99</course>
  <speed>2.1371242359769353</speed>
  <fix>3d</fix>
</trkpt>
<trkpt lat="40.0713785" lon="-105.229728">
  <ele>1583.0</ele>
  <time>2026-08-27T17:17:32Z</time>
  <course>261.81</course>
  <speed>2.16</speed>
  <fix>3d</fix>
</trkpt>
<trkpt lat="40.0713781" lon="-105.2297342">
  <ele>1583.14</ele>
  <time>2026-08-27T17:17:32Z</time>
  <course>263.05</course>
  <speed>2.1470444802099466</speed>
  <fix>3d</fix>
</trkpt>
<trkpt lat="40.0713785" lon="-105.229728">
  <ele>1583.0</ele>
  <time>2026-08-27T17:17:32Z</time>
  <course>261.81</course>
  <speed>2.16</speed>
  <fix>3d</fix>
</trkpt>
<trkpt lat="40.0713778" lon="-105.2297367">
  <ele>1583.14</ele>
  <time>2026-08-27T17:17:32Z</time>
  <course>263.08</course>
  <speed>2.1470444802099466</speed>
  <fix>3d</fix>
</trkpt>
<trkpt lat="40.0713779" lon="-105.2297331">
  <ele>1583.0</ele>
  <time>2026-08-27T17:17:32Z</time>
  <course>261.91</course>
  <speed>2.16</speed>
  <fix>3d</fix>
</trkpt>
<trkpt lat="40.0713775" lon="-105.2297393">
  <ele>1583.13</ele>
  <time>2026-08-27T17:17:32Z</time>
  <course>263.12</course>
  <speed>2.1470444802099466</speed>
  <fix>3d</fix>
</trkpt>
<trkpt lat="40.0713779" lon="-105.2297331">
  <ele>1583.0</ele>
  <time>2026-08-27T17:17:32Z</time>
  <course>261.91</course>
  <speed>2.16</speed>
  <fix>3d</fix>
</trkpt>
<trkpt lat="40.0713772" lon="-105.2297418">
  <ele>1583.13</ele>
  <time>2026-08-27T17:17:32Z</time>
  <course>263.15</course>
  <speed>2.1470444802099466</speed>
  <fix>3d</fix>
</trkpt>
<trkpt lat="40.0713774" lon="-105.2297381">
  <ele>1583.0</ele>
  <time>2026-08-27T17:17:32Z</time>
  <course>262.0</course>
  <speed>2.17</speed>
  <fix>3d</fix>
</trkpt>
<trkpt lat="40.071377" lon="-105.2297443">
  <ele>1583.13</ele>
  <time>2026-08-27T17:17:32Z</time>
  <course>263.18</course>
  <speed>2.1470444802099466</speed>
  <fix>3d</fix>
</trkpt>
<trkpt lat="40.0713774" lon="-105.2297381">
  <ele>1583.0</ele>
  <time>2026-08-27T17:17:32Z</time>
  <course>262.0</course>
  <speed>2.17</speed>
  <fix>3d</fix>
</trkpt>
<trkpt lat="40.0713767" lon="-105.2297468">
  <ele>1583.13</ele>
  <time>2026-08-27T17:17:32Z</time>
  <course>263.21</course>
  <speed>2.1470444802099466</speed>
  <fix>3d</fix>
</trkpt>
<trkpt lat="40.0713769" lon="-105.2297432">
  <ele>1583.0</ele>
  <time>2026-08-27T17:17:32Z</time>
  <course>262.07</course>
  <speed>2.17</speed>
  <fix>3d</fix>
</trkpt>
<trkpt lat="40.0713764" lon="-105.2297493">
  <ele>1583.13</ele>
  <time>2026-08-27T17:17:32Z</time>
  <course>263.24</course>
  <speed>2.145809870421888</speed>
  <fix>3d</fix>
</trkpt>
<trkpt lat="40.0713769" lon="-105.2297432">
  <ele>1583.0</ele>
  <time>2026-08-27T17:17:32Z</time>
  <course>262.07</course>
  <speed>2.17</speed>
  <fix>3d</fix>
</trkpt>
<trkpt lat="40.0713762" lon="-105.2297518">
  <ele>1583.13</ele>
  <time>2026-08-27T17:17:32Z</time>
  <course>263.27</course>
  <speed>2.145809870421888</speed>
  <fix>3d</fix>
</trkpt>
<trkpt lat="40.0713763" lon="-105.2297482">
  <ele>1583.0</ele>
  <time>2026-08-27T17:17:32Z</time>
  <course>262.13</course>
  <speed>2.17</speed>
  <fix>3d</fix>
</trkpt>
<trkpt lat="40.0713759" lon="-105.2297543">
  <ele>1583.13</ele>
  <time>2026-08-27T17:17:32Z</time>
  <course>263.3</course>
  <speed>2.145809870421888</speed>
  <fix>3d</fix>
</trkpt>
<trkpt lat="40.0713763" lon="-105.2297482">
  <ele>1583.0</ele>
  <time>2026-08-27T17:17:32Z</time>
  <course>262.13</course>
  <speed>2.17</speed>
  <fix>3d</fix>
</trkpt>
<trkpt lat="40.0713757" lon="-105.2297564">
  <ele>1583.13</ele>
  <time>2026-08-27T17:17:32Z</time>
  <course>263.32</course>
  <speed>2.145809870421888</speed>
  <fix>3d</fix>
</trkpt>
<trkpt lat="40.0713758" lon="-105.2297533">
  <ele>1583.0</ele>
  <time>2026-08-27T17:17:32Z</time>
  <course>262.19</course>
  <speed>2.17</speed>
  <fix>3d</fix>
</trkpt>
<trkpt lat="40.0713754" lon="-105.2297589">
  <ele>1583.13</ele>
  <time>2026-08-27T17:17:32Z</time>
  <course>263.35</course>
  <speed>2.145809870421888</speed>
  <fix>3d</fix>
</trkpt>
<trkpt lat="40.0713758" lon="-105.2297533">
  <ele>1583.0</ele>
  <time>2026-08-27T17:17:32Z</time>
  <course>262.19</course>
  <speed>2.17</speed>
  <fix>3d</fix>
</trkpt>
<trkpt lat="40.0713752" lon="-105.2297614">
  <ele>1583.13</ele>
  <time>2026-08-27T17:17:32Z</time>
  <course>263.38</course>
  <speed>2.145809870421888</speed>
  <fix>3d</fix>
</trkpt>
<trkpt lat="40.0713753" lon="-105.2297583">
  <ele>1583.0</ele>
  <time>2026-08-27T17:17:32Z</time>
  <course>262.24</course>
  <speed>2.17</speed>
  <fix>3d</fix>
</trkpt>
<trkpt lat="40.0713749" lon="-105.2297639">
  <ele>1583.12</ele>
  <time>2026-08-27T17:17:32Z</time>
  <course>263.41</course>
  <speed>2.145809870421888</speed>
  <fix>3d</fix>
</trkpt>
<trkpt lat="40.0713753" lon="-105.2297583">
  <ele>1583.0</ele>
  <time>2026-08-27T17:17:32Z</time>
  <course>262.24</course>
  <speed>2.17</speed>
  <fix>3d</fix>
</trkpt>
<trkpt lat="40.0713747" lon="-105.2297665">
  <ele>1583.12</ele>
  <time>2026-08-27T17:17:32Z</time>
  <course>263.44</course>
  <speed>2.145809870421888</speed>
  <fix>3d</fix>
</trkpt>
<trkpt lat="40.0713747" lon="-105.2297634">
  <ele>1583.0</ele>
  <time>2026-08-27T17:17:32Z</time>
  <course>262.3</course>
  <speed>2.17</speed>
  <fix>3d</fix>
</trkpt>
<trkpt lat="40.0713744" lon="-105.229769">
  <ele>1583.12</ele>
  <time>2026-08-27T17:17:32Z</time>
  <course>263.47</course>
  <speed>2.145809870421888</speed>
  <fix>3d</fix>
</trkpt>
<trkpt lat="40.0713747" lon="-105.2297634">
  <ele>1583.0</ele>
  <time>2026-08-27T17:17:32Z</time>
  <course>262.3</course>
  <speed>2.17</speed>
  <fix>3d</fix>
</trkpt>
<trkpt lat="40.0713741" lon="-105.2297716">
  <ele>1583.12</ele>
  <time>2026-08-27T17:17:32Z</time>
  <course>263.5</course>
  <speed>2.155736533067063</speed>
  <fix>3d</fix>
</trkpt>
<trkpt lat="40.0713742" lon="-105.2297684">
  <ele>1583.0</ele>
  <time>2026-08-27T17:17:32Z</time>
  <course>262.36</course>
  <speed>2.17</speed>
  <fix>3d</fix>
</trkpt>
<trkpt lat="40.0713739" lon="-105.2297741">
  <ele>1583.12</ele>
  <time>2026-08-27T17:17:32Z</time>
  <course>263.52</course>
  <speed>2.155736533067063</speed>
  <fix>3d</fix>
</trkpt>
<trkpt lat="40.0713742" lon="-105.2297684">
  <ele>1583.0</ele>
  <time>2026-08-27T17:17:32Z</time>
  <course>262.36</course>
  <speed>2.17</speed>
  <fix>3d</fix>
</trkpt>
<trkpt lat="40.0713736" lon="-105.2297767">
  <ele>1583.12</ele>
  <time>2026-08-27T17:17:32Z</time>
  <course>263.55</course>
  <speed>2.1545533179756773</speed>
  <fix>3d</fix>
</trkpt>
<trkpt lat="40.0713737" lon="-105.2297735">
  <ele>1583.0</ele>
  <time>2026-08-27T17:17:32Z</time>
  <course>262.42</course>
  <speed>2.17</speed>
  <fix>3d</fix>
</trkpt>
<trkpt lat="40.0713734" lon="-105.2297792">
  <ele>1583.12</ele>
  <time>2026-08-27T17:17:32Z</time>
  <course>263.58</course>
  <speed>2.1545533179756773</speed>
  <fix>3d</fix>
</trkpt>
<trkpt lat="40.0713737" lon="-105.2297735">
  <ele>1583.0</ele>
  <time>2026-08-27T17:17:32Z</time>
  <course>262.42</course>
  <speed>2.17</speed>
  <fix>3d</fix>
</trkpt>
<trkpt lat="40.071373" lon="-105.2297823">
  <ele>1583.12</ele>
  <time>2026-08-27T17:17:32Z</time>
  <course>263.62</course>
  <speed>2.1545533179756773</speed>
  <fix>3d</fix>
</trkpt>
<trkpt lat="40.0713732" lon="-105.2297786">
  <ele>1583.0</ele>
  <time>2026-08-27T17:17:32Z</time>
  <course>262.48</course>
  <speed>2.17</speed>
  <fix>3d</fix>
</trkpt>
<trkpt lat="40.0713728" lon="-105.2297848">
  <ele>1583.12</ele>
  <time>2026-08-27T17:17:32Z</time>
  <course>263.65</course>
  <speed>2.1545533179756773</speed>
  <fix>3d</fix>
</trkpt>
<trkpt lat="40.0713732" lon="-105.2297786">
  <ele>1583.0</ele>
  <time>2026-08-27T17:17:32Z</time>
  <course>262.48</course>
  <speed>2.17</speed>
  <fix>3d</fix>
</trkpt>
<trkpt lat="40.0713725" lon="-105.2297874">
  <ele>1583.12</ele>
  <time>2026-08-27T17:17:32Z</time>
  <course>263.66</course>
  <speed>2.1545533179756773</speed>
  <fix>3d</fix>
</trkpt>
<trkpt lat="40.0713727" lon="-105.2297836">
  <ele>1583.0</ele>
  <time>2026-08-27T17:17:32Z</time>
  <course>262.53</course>
  <speed>2.17</speed>
  <fix>3d</fix>
</trkpt>
<trkpt lat="40.0713723" lon="-105.2297899">
  <ele>1583.12</ele>
  <time>2026-08-27T17:17:32Z</time>
  <course>263.67</course>
  <speed>2.1545533179756773</speed>
  <fix>3d</fix>
</trkpt>
<trkpt lat="40.0713727" lon="-105.2297836">
  <ele>1583.0</ele>
  <time>2026-08-27T17:17:32Z</time>
  <course>262.53</course>
  <speed>2.17</speed>
  <fix>3d</fix>
</trkpt>
<trkpt lat="40.071372" lon="-105.2297925">
  <ele>1583.12</ele>
  <time>2026-08-27T17:17:32Z</time>
  <course>263.68</course>
  <speed>2.1545533179756773</speed>
  <fix>3d</fix>
</trkpt>
<trkpt lat="40.0713722" lon="-105.2297887">
  <ele>1583.0</ele>
  <time>2026-08-27T17:17:32Z</time>
  <course>262.57</course>
  <speed>2.17</speed>
  <fix>3d</fix>
</trkpt>
<trkpt lat="40.0713718" lon="-105.229795">
  <ele>1583.12</ele>
  <time>2026-08-27T17:17:32Z</time>
  <course>263.68</course>
  <speed>2.1545533179756773</speed>
  <fix>3d</fix>
</trkpt>
<trkpt lat="40.0713722" lon="-105.2297887">
  <ele>1583.0</ele>
  <time>2026-08-27T17:17:32Z</time>
  <course>262.57</course>
  <speed>2.17</speed>
  <fix>3d</fix>
</trkpt>
<trkpt lat="40.0713715" lon="-105.2297975">
  <ele>1583.12</ele>
  <time>2026-08-27T17:17:32Z</time>
  <course>263.68</course>
  <speed>2.1545533179756773</speed>
  <fix>3d</fix>
</trkpt>
<trkpt lat="40.0713717" lon="-105.2297938">
  <ele>1583.0</ele>
  <time>2026-08-27T17:17:32Z</time>
  <course>262.58</course>
  <speed>2.17</speed>
  <fix>3d</fix>
</trkpt>
<trkpt lat="40.0713713" lon="-105.2298">
  <ele>1583.12</ele>
  <time>2026-08-27T17:17:32Z</time>
  <course>263.68</course>
  <speed>2.1545533179756773</speed>
  <fix>3d</fix>
</trkpt>
<trkpt lat="40.0713717" lon="-105.2297938">
  <ele>1583.0</ele>
  <time>2026-08-27T17:17:32Z</time>
  <course>262.58</course>
  <speed>2.17</speed>
  <fix>3d</fix>
</trkpt>
<trkpt lat="40.071371" lon="-105.2298025">
  <ele>1583.11</ele>
  <time>2026-08-27T17:17:32Z</time>
  <course>263.68</course>
  <speed>2.1545533179756773</speed>
  <fix>3d</fix>
</trkpt>
<trkpt lat="40.0713712" lon="-105.2297988">
  <ele>1583.0</ele>
  <time>2026-08-27T17:17:32Z</time>
  <course>262.58</course>
  <speed>2.17</speed>
  <fix>3d</fix>
</trkpt>
<trkpt lat="40.0713708" lon="-105.229805">
  <ele>1583.11</ele>
  <time>2026-08-27T17:17:32Z</time>
  <course>263.68</course>
  <speed>2.1545533179756773</speed>
  <fix>3d</fix>
</trkpt>
<trkpt lat="40.0713712" lon="-105.2297988">
  <ele>1583.0</ele>
  <time>2026-08-27T17:17:32Z</time>
  <course>262.58</course>
  <speed>2.17</speed>
  <fix>3d</fix>
</trkpt>
<trkpt lat="40.0713705" lon="-105.2298075">
  <ele>1583.11</ele>
  <time>2026-08-27T17:17:32Z</time>
  <course>263.68</course>
  <speed>2.1545533179756773</speed>
  <fix>3d</fix>
</trkpt>
<trkpt lat="40.0713706" lon="-105.2298039">
  <ele>1583.0</ele>
  <time>2026-08-27T17:17:32Z</time>
  <course>262.58</course>
  <speed>2.17</speed>
  <fix>3d</fix>
</trkpt>
<trkpt lat="40.0713703" lon="-105.2298096">
  <ele>1583.11</ele>
  <time>2026-08-27T17:17:32Z</time>
  <course>263.68</course>
  <speed>2.1545533179756773</speed>
  <fix>3d</fix>
</trkpt>
<trkpt lat="40.0713706" lon="-105.2298039">
  <ele>1583.0</ele>
  <time>2026-08-27T17:17:32Z</time>
  <course>262.58</course>
  <speed>2.17</speed>
  <fix>3d</fix>
</trkpt>
<trkpt lat="40.0713701" lon="-105.2298121">
  <ele>1583.11</ele>
  <time>2026-08-27T17:17:32Z</time>
  <course>263.7</course>
  <speed>2.1545533179756773</speed>
  <fix>3d</fix>
</trkpt>
<trkpt lat="40.0713701" lon="-105.229809">
  <ele>1583.0</ele>
  <time>2026-08-27T17:17:32Z</time>
  <course>262.59</course>
  <speed>2.17</speed>
  <fix>3d</fix>
</trkpt>
<trkpt lat="40.0713698" lon="-105.2298146">
  <ele>1583.11</ele>
  <time>2026-08-27T17:17:32Z</time>
  <course>263.73</course>
  <speed>2.1545533179756773</speed>
  <fix>3d</fix>
</trkpt>
<trkpt lat="40.0713701" lon="-105.229809">
  <ele>1583.0</ele>
  <time>2026-08-27T17:17:32Z</time>
  <course>262.59</course>
  <speed>2.17</speed>
  <fix>3d</fix>
</trkpt>
<trkpt lat="40.0713696" lon="-105.2298171">
  <ele>1583.11</ele>
  <time>2026-08-27T17:17:32Z</time>
  <course>263.79</course>
  <speed>2.1545533179756773</speed>
  <fix>3d</fix>
</trkpt>
<trkpt lat="40.0713696" lon="-105.2298141">
  <ele>1583.0</ele>
  <time>2026-08-27T17:17:32Z</time>
  <course>262.65</course>
  <speed>2.17</speed>
  <fix>3d</fix>
</trkpt>
<trkpt lat="40.0713693" lon="-105.2298197">
  <ele>1583.11</ele>
  <time>2026-08-27T17:17:32Z</time>
  <course>263.89</course>
  <speed>2.1534158910902463</speed>
  <fix>3d</fix>
</trkpt>
<trkpt lat="40.0713696" lon="-105.2298141">
  <ele>1583.0</ele>
  <time>2026-08-27T17:17:32Z</time>
  <course>262.65</course>
  <speed>2.17</speed>
  <fix>3d</fix>
</trkpt>
<trkpt lat="40.0713691" lon="-105.2298222">
  <ele>1583.11</ele>
  <time>2026-08-27T17:17:32Z</time>
  <course>264.04</course>
  <speed>2.1534158910902463</speed>
  <fix>3d</fix>
</trkpt>
<trkpt lat="40.0713691" lon="-105.2298191">
  <ele>1583.0</ele>
  <time>2026-08-27T17:17:32Z</time>
  <course>262.82</course>
  <speed>2.17</speed>
  <fix>3d</fix>
</trkpt>
<trkpt lat="40.0713688" lon="-105.2298248">
  <ele>1583.11</ele>
  <time>2026-08-27T17:17:32Z</time>
  <course>264.24</course>
  <speed>2.1523243250030886</speed>
  <fix>3d</fix>
</trkpt>
<trkpt lat="40.0713691" lon="-105.2298191">
  <ele>1583.0</ele>
  <time>2026-08-27T17:17:32Z</time>
  <course>262.82</course>
  <speed>2.17</speed>
  <fix>3d</fix>
</trkpt>
<trkpt lat="40.0713686" lon="-105.2298273">
  <ele>1583.11</ele>
  <time>2026-08-27T17:17:32Z</time>
  <course>264.5</course>
  <speed>2.151278689523977</speed>
  <fix>3d</fix>
</trkpt>
<trkpt lat="40.0713686" lon="-105.2298242">
  <ele>1583.0</ele>
  <time>2026-08-27T17:17:32Z</time>
  <course>263.17</course>
  <speed>2.18</speed>
  <fix>3d</fix>
</trkpt>
<trkpt lat="40.0713684" lon="-105.2298299">
  <ele>1583.11</ele>
  <time>2026-08-27T17:17:32Z</time>
  <course>264.76</course>
  <speed>2.1602314690791817</speed>
  <fix>3d</fix>
</trkpt>
<trkpt lat="40.0713686" lon="-105.2298242">
  <ele>1583.0</ele>
  <time>2026-08-27T17:17:32Z</time>
  <course>263.17</course>
  <speed>2.18</speed>
  <fix>3d</fix>
</trkpt>
<trkpt lat="40.0713682" lon="-105.2298325">
  <ele>1583.11</ele>
  <time>2026-08-27T17:17:32Z</time>
  <course>265.03</course>
  <speed>2.1592822881689187</speed>
  <fix>3d</fix>
</trkpt>
<trkpt lat="40.0713683" lon="-105.2298293">
  <ele>1583.0</ele>
  <time>2026-08-27T17:17:32Z</time>
  <course>263.67</course>
  <speed>2.18</speed>
  <fix>3d</fix>
</trkpt>
<trkpt lat="40.0713679" lon="-105.2298355">
  <ele>1583.11</ele>
  <time>2026-08-27T17:17:32Z</time>
  <course>265.31</course>
  <speed>2.158379021395455</speed>
  <fix>3d</fix>
</trkpt>
<trkpt lat="40.0713683" lon="-105.2298293">
  <ele>1583.0</ele>
  <time>2026-08-27T17:17:32Z</time>
  <course>263.67</course>
  <speed>2.18</speed>
  <fix>3d</fix>
</trkpt>
<trkpt lat="40.0713677" lon="-105.2298381">
  <ele>1583.11</ele>
  <time>2026-08-27T17:17:32Z</time>
  <course>265.39</course>
  <speed>2.138457387931777</speed>
  <fix>3d</fix>
</trkpt>
<trkpt lat="40.0713679" lon="-105.2298344">
  <ele>1583.0</ele>
  <time>2026-08-27T17:17:32Z</time>
  <course>264.11</course>
  <speed>2.16</speed>
  <fix>3d</fix>
</trkpt>
<trkpt lat="40.0713675" lon="-105.2298406">
  <ele>1583.11</ele>
  <time>2026-08-27T17:17:32Z</time>
  <course>265.39</course>
  <speed>2.138457387931777</speed>
  <fix>3d</fix>
</trkpt>
<trkpt lat="40.0713679" lon="-105.2298344">
  <ele>1583.0</ele>
  <time>2026-08-27T17:17:32Z</time>
  <course>264.11</course>
  <speed>2.16</speed>
  <fix>3d</fix>
</trkpt>
<trkpt lat="40.0713673" lon="-105.2298432">
  <ele>1583.12</ele>
  <time>2026-08-27T17:17:32Z</time>
  <course>265.39</course>
  <speed>2.1484180226389835</speed>
  <fix>3d</fix>
</trkpt>
<trkpt lat="40.0713674" lon="-105.2298395">
  <ele>1583.0</ele>
  <time>2026-08-27T17:17:32Z</time>
  <course>264.29</course>
  <speed>2.16</speed>
  <fix>3d</fix>
</trkpt>
<trkpt lat="40.0713671" lon="-105.2298457">
  <ele>1583.12</ele>
  <time>2026-08-27T17:17:32Z</time>
  <course>265.39</course>
  <speed>2.1484180226389835</speed>
  <fix>3d</fix>
</trkpt>
<trkpt lat="40.0713674" lon="-105.2298395">
  <ele>1583.0</ele>
  <time>2026-08-27T17:17:32Z</time>
  <course>264.29</course>
  <speed>2.16</speed>
  <fix>3d</fix>
</trkpt>
<trkpt lat="40.071367" lon="-105.2298483">
  <ele>1583.12</ele>
  <time>2026-08-27T17:17:32Z</time>
  <course>265.39</course>
  <speed>2.1484180226389835</speed>
  <fix>3d</fix>
</trkpt>
<trkpt lat="40.0713671" lon="-105.2298445">
  <ele>1583.0</ele>
  <time>2026-08-27T17:17:32Z</time>
  <course>264.29</course>
  <speed>2.16</speed>
  <fix>3d</fix>
</trkpt>
<trkpt lat="40.0713668" lon="-105.2298508">
  <ele>1583.12</ele>
  <time>2026-08-27T17:17:32Z</time>
  <course>265.39</course>
  <speed>2.1484180226389835</speed>
  <fix>3d</fix>
</trkpt>
<trkpt lat="40.0713671" lon="-105.2298445">
  <ele>1583.0</ele>
  <time>2026-08-27T17:17:32Z</time>
  <course>264.29</course>
  <speed>2.16</speed>
  <fix>3d</fix>
</trkpt>
<trkpt lat="40.0713666" lon="-105.2298533">
  <ele>1583.12</ele>
  <time>2026-08-27T17:17:32Z</time>
  <course>265.39</course>
  <speed>2.158379021395455</speed>
  <fix>3d</fix>
</trkpt>
<trkpt lat="40.0713667" lon="-105.2298496">
  <ele>1583.0</ele>
  <time>2026-08-27T17:17:32Z</time>
  <course>264.29</course>
  <speed>2.17</speed>
  <fix>3d</fix>
</trkpt>
<trkpt lat="40.0713664" lon="-105.2298558">
  <ele>1583.13</ele>
  <time>2026-08-27T17:17:32Z</time>
  <course>265.39</course>
  <speed>2.158379021395455</speed>
  <fix>3d</fix>
</trkpt>
<trkpt lat="40.0713667" lon="-105.2298496">
  <ele>1583.0</ele>
  <time>2026-08-27T17:17:32Z</time>
  <course>264.29</course>
  <speed>2.17</speed>
  <fix>3d</fix>
</trkpt>
<trkpt lat="40.0713662" lon="-105.2298584">
  <ele>1583.13</ele>
  <time>2026-08-27T17:17:32Z</time>
  <course>265.39</course>
  <speed>2.158379021395455</speed>
  <fix>3d</fix>
</trkpt>
<trkpt lat="40.0713662" lon="-105.2298547">
  <ele>1583.0</ele>
  <time>2026-08-27T17:17:32Z</time>
  <course>264.29</course>
  <speed>2.17</speed>
  <fix>3d</fix>
</trkpt>
<trkpt lat="40.071366" lon="-105.2298609">
  <ele>1583.14</ele>
  <time>2026-08-27T17:17:32Z</time>
  <course>265.39</course>
  <speed>2.158379021395455</speed>
  <fix>3d</fix>
</trkpt>
<trkpt lat="40.0713662" lon="-105.2298547">
  <ele>1583.0</ele>
  <time>2026-08-27T17:17:32Z</time>
  <course>264.29</course>
  <speed>2.17</speed>
  <fix>3d</fix>
</trkpt>
<trkpt lat="40.0713659" lon="-105.2298629">
  <ele>1583.14</ele>
  <time>2026-08-27T17:17:32Z</time>
  <course>265.39</course>
  <speed>2.158379021395455</speed>
  <fix>3d</fix>
</trkpt>
<trkpt lat="40.0713659" lon="-105.2298598">
  <ele>1583.0</ele>
  <time>2026-08-27T17:17:32Z</time>
  <course>264.29</course>
  <speed>2.18</speed>
  <fix>3d</fix>
</trkpt>
<trkpt lat="40.0713657" lon="-105.2298655">
  <ele>1583.15</ele>
  <time>2026-08-27T17:17:32Z</time>
  <course>265.39</course>
  <speed>2.158379021395455</speed>
  <fix>3d</fix>
</trkpt>
<trkpt lat="40.0713659" lon="-105.2298598">
  <ele>1583.0</ele>
  <time>2026-08-27T17:17:32Z</time>
  <course>264.29</course>
  <speed>2.18</speed>
  <fix>3d</fix>
</trkpt>
<trkpt lat="40.0713655" lon="-105.229868">
  <ele>1583.15</ele>
  <time>2026-08-27T17:17:32Z</time>
  <course>265.39</course>
  <speed>2.158379021395455</speed>
  <fix>3d</fix>
</trkpt>
<trkpt lat="40.0713655" lon="-105.2298649">
  <ele>1583.0</ele>
  <time>2026-08-27T17:17:32Z</time>
  <course>264.29</course>
  <speed>2.18</speed>
  <fix>3d</fix>
</trkpt>
<trkpt lat="40.0713653" lon="-105.2298706">
  <ele>1583.16</ele>
  <time>2026-08-27T17:17:32Z</time>
  <course>265.39</course>
  <speed>2.158379021395455</speed>
  <fix>3d</fix>
</trkpt>
<trkpt lat="40.0713655" lon="-105.2298649">
  <ele>1583.0</ele>
  <time>2026-08-27T17:17:32Z</time>
  <course>264.29</course>
  <speed>2.18</speed>
  <fix>3d</fix>
</trkpt>
<trkpt lat="40.0713651" lon="-105.2298731">
  <ele>1583.16</ele>
  <time>2026-08-27T17:17:32Z</time>
  <course>265.39</course>
  <speed>2.168340379184043</speed>
  <fix>3d</fix>
</trkpt>
<trkpt lat="40.071365" lon="-105.22987">
  <ele>1583.0</ele>
  <time>2026-08-27T17:17:32Z</time>
  <course>264.29</course>
  <speed>2.18</speed>
  <fix>3d</fix>
</trkpt>
<trkpt lat="40.0713649" lon="-105.2298757">
  <ele>1583.16</ele>
  <time>2026-08-27T17:17:32Z</time>
  <course>265.39</course>
  <speed>2.168340379184043</speed>
  <fix>3d</fix>
</trkpt>
<trkpt lat="40.071365" lon="-105.22987">
  <ele>1583.0</ele>
  <time>2026-08-27T17:17:32Z</time>
  <course>264.29</course>
  <speed>2.18</speed>
  <fix>3d</fix>
</trkpt>
<trkpt lat="40.0713647" lon="-105.2298783">
  <ele>1583.16</ele>
  <time>2026-08-27T17:17:32Z</time>
  <course>265.39</course>
  <speed>2.168340379184043</speed>
  <fix>3d</fix>
</trkpt>
<trkpt lat="40.0713647" lon="-105.2298751">
  <ele>1583.0</ele>
  <time>2026-08-27T17:17:32Z</time>
  <course>264.29</course>
  <speed>2.18</speed>
  <fix>3d</fix>
</trkpt>
<trkpt lat="40.0713645" lon="-105.2298809">
  <ele>1583.16</ele>
  <time>2026-08-27T17:17:32Z</time>
  <course>265.39</course>
  <speed>2.168340379184043</speed>
  <fix>3d</fix>
</trkpt>
<trkpt lat="40.0713647" lon="-105.2298751">
  <ele>1583.0</ele>
  <time>2026-08-27T17:17:32Z</time>
  <course>264.29</course>
  <speed>2.18</speed>
  <fix>3d</fix>
</trkpt>
<trkpt lat="40.0713643" lon="-105.2298834">
  <ele>1583.15</ele>
  <time>2026-08-27T17:17:32Z</time>
  <course>265.39</course>
  <speed>2.168340379184043</speed>
  <fix>3d</fix>
</trkpt>
<trkpt lat="40.0713643" lon="-105.2298802">
  <ele>1583.0</ele>
  <time>2026-08-27T17:17:32Z</time>
  <course>264.29</course>
  <speed>2.18</speed>
  <fix>3d</fix>
</trkpt>
<trkpt lat="40.0713641" lon="-105.229886">
  <ele>1583.15</ele>
  <time>2026-08-27T17:17:32Z</time>
  <course>265.39</course>
  <speed>2.168340379184043</speed>
  <fix>3d</fix>
</trkpt>
<trkpt lat="40.0713643" lon="-105.2298802">
  <ele>1583.0</ele>
  <time>2026-08-27T17:17:32Z</time>
  <course>264.29</course>
  <speed>2.18</speed>
  <fix>3d</fix>
</trkpt>
<trkpt lat="40.0713638" lon="-105.2298891">
  <ele>1583.14</ele>
  <time>2026-08-27T17:17:32Z</time>
  <course>265.39</course>
  <speed>2.168340379184043</speed>
  <fix>3d</fix>
</trkpt>
<trkpt lat="40.071364" lon="-105.2298853">
  <ele>1583.0</ele>
  <time>2026-08-27T17:17:32Z</time>
  <course>264.29</course>
  <speed>2.19</speed>
  <fix>3d</fix>
</trkpt>
<trkpt lat="40.0713636" lon="-105.2298917">
  <ele>1583.14</ele>
  <time>2026-08-27T17:17:32Z</time>
  <course>265.39</course>
  <speed>2.168340379184043</speed>
  <fix>3d</fix>
</trkpt>
<trkpt lat="40.071364" lon="-105.2298853">
  <ele>1583.0</ele>
  <time>2026-08-27T17:17:32Z</time>
  <course>264.29</course>
  <speed>2.19</speed>
  <fix>3d</fix>
</trkpt>
<trkpt lat="40.0713634" lon="-105.2298942">
  <ele>1583.13</ele>
  <time>2026-08-27T17:17:32Z</time>
  <course>265.39</course>
  <speed>2.1783020910791966</speed>
  <fix>3d</fix>
</trkpt>
<trkpt lat="40.0713636" lon="-105.2298904">
  <ele>1583.0</ele>
  <time>2026-08-27T17:17:32Z</time>
  <course>264.29</course>
  <speed>2.19</speed>
  <fix>3d</fix>
</trkpt>
<trkpt lat="40.0713633" lon="-105.2298968">
  <ele>1583.13</ele>
  <time>2026-08-27T17:17:32Z</time>
  <course>265.39</course>
  <speed>2.1783020910791966</speed>
  <fix>3d</fix>
</trkpt>
<trkpt lat="40.0713636" lon="-105.2298904">
  <ele>1583.0</ele>
  <time>2026-08-27T17:17:32Z</time>
  <course>264.29</course>
  <speed>2.19</speed>
  <fix>3d</fix>
</trkpt>
<trkpt lat="40.0713631" lon="-105.2298994">
  <ele>1583.12</ele>
  <time>2026-08-27T17:17:32Z</time>
  <course>265.39</course>
  <speed>2.1783020910791966</speed>
  <fix>3d</fix>
</trkpt>
<trkpt lat="40.0713631" lon="-105.2298955">
  <ele>1583.0</ele>
  <time>2026-08-27T17:17:32Z</time>
  <course>264.29</course>
  <speed>2.19</speed>
  <fix>3d</fix>
</trkpt>
<trkpt lat="40.0713629" lon="-105.2299019">
  <ele>1583.12</ele>
  <time>2026-08-27T17:17:32Z</time>
  <course>265.38</course>
  <speed>2.1783020910791966</speed>
  <fix>3d</fix>
</trkpt>
<trkpt lat="40.0713631" lon="-105.2298955">
  <ele>1583.0</ele>
  <time>2026-08-27T17:17:32Z</time>
  <course>264.29</course>
  <speed>2.19</speed>
  <fix>3d</fix>
</trkpt>
<trkpt lat="40.0713627" lon="-105.2299045">
  <ele>1583.11</ele>
  <time>2026-08-27T17:17:32Z</time>
  <course>265.38</course>
  <speed>2.168340379184043</speed>
  <fix>3d</fix>
</trkpt>
<trkpt lat="40.0713628" lon="-105.2299007">
  <ele>1583.0</ele>
  <time>2026-08-27T17:17:32Z</time>
  <course>264.29</course>
  <speed>2.19</speed>
  <fix>3d</fix>
</trkpt>
<trkpt lat="40.0713625" lon="-105.229907">
  <ele>1583.11</ele>
  <time>2026-08-27T17:17:32Z</time>
  <course>265.38</course>
  <speed>2.168340379184043</speed>
  <fix>3d</fix>
</trkpt>
<trkpt lat="40.0713628" lon="-105.2299007">
  <ele>1583.0</ele>
  <time>2026-08-27T17:17:32Z</time>
  <course>264.29</course>
  <speed>2.19</speed>
  <fix>3d</fix>
</trkpt>
<trkpt lat="40.0713623" lon="-105.2299095">
  <ele>1583.1</ele>
  <time>2026-08-27T17:17:32Z</time>
  <course>265.38</course>
  <speed>2.168340379184043</speed>
  <fix>3d</fix>
</trkpt>
<trkpt lat="40.0713624" lon="-105.2299058">
  <ele>1583.0</ele>
  <time>2026-08-27T17:17:32Z</time>
  <course>264.29</course>
  <speed>2.19</speed>
  <fix>3d</fix>
</trkpt>
<trkpt lat="40.0713621" lon="-105.2299121">
  <ele>1583.1</ele>
  <time>2026-08-27T17:17:32Z</time>
  <course>265.38</course>
  <speed>2.168340379184043</speed>
  <fix>3d</fix>
</trkpt>
<trkpt lat="40.0713624" lon="-105.2299058">
  <ele>1583.0</ele>
  <time>2026-08-27T17:17:32Z</time>
  <course>264.29</course>
  <speed>2.19</speed>
  <fix>3d</fix>
</trkpt>
<trkpt lat="40.0713619" lon="-105.2299146">
  <ele>1583.09</ele>
  <time>2026-08-27T17:17:32Z</time>
  <course>265.38</course>
  <speed>2.168340379184043</speed>
  <fix>3d</fix>
</trkpt>
<trkpt lat="40.0713619" lon="-105.2299109">
  <ele>1583.0</ele>
  <time>2026-08-27T17:17:32Z</time>
  <course>264.29</course>
  <speed>2.19</speed>
  <fix>3d</fix>
</trkpt>
<trkpt lat="40.0713617" lon="-105.2299166">
  <ele>1583.09</ele>
  <time>2026-08-27T17:17:32Z</time>
  <course>265.38</course>
  <speed>2.168340379184043</speed>
  <fix>3d</fix>
</trkpt>
<trkpt lat="40.0713619" lon="-105.2299109">
  <ele>1583.0</ele>
  <time>2026-08-27T17:17:32Z</time>
  <course>264.29</course>
  <speed>2.19</speed>
  <fix>3d</fix>
</trkpt>
<trkpt lat="40.0713611" lon="-105.2299269">
  <ele>1583.08</ele>
  <time>2026-08-27T17:17:32Z</time>
  <course>269.69</course>
  <speed>2.1702073633641557</speed>
  <fix>3d</fix>
</trkpt>
<trkpt lat="40.0713612" lon="-105.2299212">
  <ele>1583.0</ele>
  <time>2026-08-27T17:17:32Z</time>
  <course>264.83</course>
  <speed>2.19</speed>
  <fix>3d</fix>
</trkpt>
<trkpt lat="40.0713614" lon="-105.229932">
  <ele>1583.08</ele>
  <time>2026-08-27T17:17:32Z</time>
  <course>281.79</course>
  <speed>2.172970317330635</speed>
  <fix>3d</fix>
</trkpt>
<trkpt lat="40.0713609" lon="-105.2299263">
  <ele>1583.0</ele>
  <time>2026-08-27T17:17:32Z</time>
  <course>269.56</course>
  <speed>2.19</speed>
  <fix>3d</fix>
</trkpt>
<trkpt lat="40.0713614" lon="-105.229932">
  <ele>1583.08</ele>
  <time>2026-08-27T17:17:32Z</time>
  <course>281.79</course>
  <speed>2.172970317330635</speed>
  <fix>3d</fix>
</trkpt>
<trkpt lat="40.0713609" lon="-105.2299263">
  <ele>1583.0</ele>
  <time>2026-08-27T17:17:32Z</time>
  <course>269.56</course>
  <speed>2.19</speed>
  <fix>3d</fix>
</trkpt>
<trkpt lat="40.0713619" lon="-105.2299345">
  <ele>1583.07</ele>
  <time>2026-08-27T17:17:32Z</time>
  <course>290.74</course>
  <speed>2.1582400237230335</speed>
  <fix>3d</fix>
</trkpt>
<trkpt lat="40.0713613" lon="-105.2299314">
  <ele>1583.0</ele>
  <time>2026-08-27T17:17:32Z</time>
  <course>281.7</course>
  <speed>2.17</speed>
  <fix>3d</fix>
</trkpt>
<trkpt lat="40.0713627" lon="-105.2299368">
  <ele>1583.06</ele>
  <time>2026-08-27T17:17:32Z</time>
  <course>301.4</course>
  <speed>2.137007253146325</speed>
  <fix>3d</fix>
</trkpt>
<trkpt lat="40.0713613" lon="-105.2299314">
  <ele>1583.0</ele>
  <time>2026-08-27T17:17:32Z</time>
  <course>281.7</course>
  <speed>2.17</speed>
  <fix>3d</fix>
</trkpt>
<trkpt lat="40.0713639" lon="-105.2299388">
  <ele>1583.06</ele>
  <time>2026-08-27T17:17:32Z</time>
  <course>313.74</course>
  <speed>2.107368026710095</speed>
  <fix>3d</fix>
</trkpt>
<trkpt lat="40.0713626" lon="-105.2299361">
  <ele>1583.0</ele>
  <time>2026-08-27T17:17:32Z</time>
  <course>301.07</course>
  <speed>2.13</speed>
  <fix>3d</fix>
</trkpt>
<trkpt lat="40.0713657" lon="-105.2299406">
  <ele>1583.04</ele>
  <time>2026-08-27T17:17:32Z</time>
  <course>329.98</course>
  <speed>2.067873303662485</speed>
  <fix>3d</fix>
</trkpt>
<trkpt lat="40.0713626" lon="-105.2299361">
  <ele>1583.0</ele>
  <time>2026-08-27T17:17:32Z</time>
  <course>301.07</course>
  <speed>2.13</speed>
  <fix>3d</fix>
</trkpt>
</trkseg>
</trk>
</gpx>
